<?xml version='1.0' encoding='UTF-8'?><gpx version="1.1" creator="JPX - https://github.com/jenetics/jpx" xmlns="http://www.topografix.com/GPX/1/1"><trk><trkseg><trkpt lat="43.6229" lon="11.5532583"><ele>279.0</ele><time>2026-05-02T07:37:34.953Z</time></trkpt><trkpt lat="43.6228583" lon="11.5533433"><ele>279.0</ele><time>2026-05-02T07:37:36.953Z</time></trkpt><trkpt lat="43.6227983" lon="11.553455"><ele>279.0</ele><time>2026-05-02T07:37:38.952Z</time></trkpt><trkpt lat="43.6227217" lon="11.5535417"><ele>279.0</ele><time>2026-05-02T07:37:40.952Z</time></trkpt><trkpt lat="43.6226433" lon="11.553585"><ele>279.0</ele><time>2026-05-02T07:37:42.954Z</time></trkpt><trkpt lat="43.6227133" lon="11.553565"><ele>279.0</ele><time>2026-05-02T07:38:00.954Z</time></trkpt><trkpt lat="43.6227683" lon="11.5535217"><ele>279.0</ele><time>2026-05-02T07:38:35.952Z</time></trkpt><trkpt lat="43.6228183" lon="11.5534683"><ele>279.0</ele><time>2026-05-02T07:38:47.952Z</time></trkpt><trkpt lat="43.622765" lon="11.5535467"><ele>279.0</ele><time>2026-05-02T07:39:25.953Z</time></trkpt><trkpt lat="43.622685" lon="11.5535833"><ele>279.0</ele><time>2026-05-02T07:39:28.953Z</time></trkpt><trkpt lat="43.6226233" lon="11.5536067"><ele>279.0</ele><time>2026-05-02T07:39:33.952Z</time></trkpt><trkpt lat="43.6225483" lon="11.553785"><ele>279.0</ele><time>2026-05-02T07:39:59.951Z</time></trkpt><trkpt lat="43.6225683" lon="11.5539383"><ele>279.0</ele><time>2026-05-02T07:40:01.953Z</time></trkpt><trkpt lat="43.6225783" lon="11.554025"><ele>279.0</ele><time>2026-05-02T07:40:02.954Z</time></trkpt><trkpt lat="43.6225917" lon="11.5542"><ele>279.0</ele><time>2026-05-02T07:40:04.952Z</time></trkpt><trkpt lat="43.6225933" lon="11.554295"><ele>279.0</ele><time>2026-05-02T07:40:05.954Z</time></trkpt><trkpt lat="43.6225983" lon="11.55439"><ele>279.0</ele><time>2026-05-02T07:40:06.954Z</time></trkpt><trkpt lat="43.6226" lon="11.554485"><ele>279.0</ele><time>2026-05-02T07:40:07.951Z</time></trkpt><trkpt lat="43.6226033" lon="11.5545783"><ele>279.2857142857143</ele><time>2026-05-02T07:40:08.953Z</time></trkpt><trkpt lat="43.622605" lon="11.55467"><ele>279.57142857142856</ele><time>2026-05-02T07:40:09.952Z</time></trkpt><trkpt lat="43.622605" lon="11.5548367"><ele>279.8571428571429</ele><time>2026-05-02T07:40:11.952Z</time></trkpt><trkpt lat="43.6226033" lon="11.5549267"><ele>280.1428571428571</ele><time>2026-05-02T07:40:12.953Z</time></trkpt><trkpt lat="43.622595" lon="11.5550133"><ele>280.42857142857144</ele><time>2026-05-02T07:40:13.953Z</time></trkpt><trkpt lat="43.6225833" lon="11.5551"><ele>280.7142857142857</ele><time>2026-05-02T07:40:14.954Z</time></trkpt><trkpt lat="43.6225667" lon="11.55519"><ele>281.0</ele><time>2026-05-02T07:40:15.953Z</time></trkpt><trkpt lat="43.622545" lon="11.5552733"><ele>281.0</ele><time>2026-05-02T07:40:16.954Z</time></trkpt><trkpt lat="43.6225217" lon="11.5553583"><ele>281.0</ele><time>2026-05-02T07:40:17.954Z</time></trkpt><trkpt lat="43.6224967" lon="11.5554383"><ele>281.0</ele><time>2026-05-02T07:40:18.952Z</time></trkpt><trkpt lat="43.622465" lon="11.5555183"><ele>281.0</ele><time>2026-05-02T07:40:19.955Z</time></trkpt><trkpt lat="43.62239" lon="11.5556533"><ele>281.0</ele><time>2026-05-02T07:40:21.953Z</time></trkpt><trkpt lat="43.62235" lon="11.5557217"><ele>281.0</ele><time>2026-05-02T07:40:22.952Z</time></trkpt><trkpt lat="43.6222667" lon="11.5558233"><ele>281.6</ele><time>2026-05-02T07:40:24.953Z</time></trkpt><trkpt lat="43.6221833" lon="11.5559317"><ele>282.20000000000005</ele><time>2026-05-02T07:40:26.953Z</time></trkpt><trkpt lat="43.6220983" lon="11.5560317"><ele>282.79999999999995</ele><time>2026-05-02T07:40:28.954Z</time></trkpt><trkpt lat="43.622015" lon="11.5561267"><ele>283.4</ele><time>2026-05-02T07:40:30.953Z</time></trkpt><trkpt lat="43.6219367" lon="11.5562083"><ele>284.0</ele><time>2026-05-02T07:40:32.955Z</time></trkpt><trkpt lat="43.621845" lon="11.5562933"><ele>284.0</ele><time>2026-05-02T07:40:34.954Z</time></trkpt><trkpt lat="43.6217633" lon="11.5563717"><ele>284.0</ele><time>2026-05-02T07:40:36.955Z</time></trkpt><trkpt lat="43.6216867" lon="11.556445"><ele>284.0</ele><time>2026-05-02T07:40:38.956Z</time></trkpt><trkpt lat="43.6216067" lon="11.5565317"><ele>284.0</ele><time>2026-05-02T07:40:40.953Z</time></trkpt><trkpt lat="43.62152" lon="11.5566267"><ele>284.0</ele><time>2026-05-02T07:40:42.955Z</time></trkpt><trkpt lat="43.6214233" lon="11.55672"><ele>284.0</ele><time>2026-05-02T07:40:44.955Z</time></trkpt><trkpt lat="43.621345" lon="11.5568083"><ele>284.0</ele><time>2026-05-02T07:40:46.953Z</time></trkpt><trkpt lat="43.621275" lon="11.556915"><ele>284.0</ele><time>2026-05-02T07:40:48.952Z</time></trkpt><trkpt lat="43.6212083" lon="11.557025"><ele>284.0</ele><time>2026-05-02T07:40:50.952Z</time></trkpt><trkpt lat="43.621185" lon="11.5571567"><ele>284.0</ele><time>2026-05-02T07:40:52.951Z</time></trkpt><trkpt lat="43.621225" lon="11.5572983"><ele>284.25</ele><time>2026-05-02T07:40:54.953Z</time></trkpt><trkpt lat="43.62129" lon="11.5574283"><ele>284.5</ele><time>2026-05-02T07:40:56.953Z</time></trkpt><trkpt lat="43.621365" lon="11.5575533"><ele>284.75</ele><time>2026-05-02T07:40:58.951Z</time></trkpt><trkpt lat="43.6214567" lon="11.557655"><ele>285.0</ele><time>2026-05-02T07:41:00.952Z</time></trkpt><trkpt lat="43.6215467" lon="11.5577317"><ele>285.0</ele><time>2026-05-02T07:41:02.954Z</time></trkpt><trkpt lat="43.6216417" lon="11.557815"><ele>285.0</ele><time>2026-05-02T07:41:04.953Z</time></trkpt><trkpt lat="43.6217267" lon="11.5578967"><ele>285.0</ele><time>2026-05-02T07:41:06.952Z</time></trkpt><trkpt lat="43.6218117" lon="11.5579683"><ele>285.0</ele><time>2026-05-02T07:41:08.953Z</time></trkpt><trkpt lat="43.6218983" lon="11.558045"><ele>285.0</ele><time>2026-05-02T07:41:10.953Z</time></trkpt><trkpt lat="43.62199" lon="11.5581317"><ele>284.4</ele><time>2026-05-02T07:41:12.956Z</time></trkpt><trkpt lat="43.6220733" lon="11.5582183"><ele>283.8</ele><time>2026-05-02T07:41:14.953Z</time></trkpt><trkpt lat="43.6221483" lon="11.5583233"><ele>283.2</ele><time>2026-05-02T07:41:16.951Z</time></trkpt><trkpt lat="43.6222067" lon="11.5584383"><ele>282.6</ele><time>2026-05-02T07:41:18.953Z</time></trkpt><trkpt lat="43.6222467" lon="11.5585633"><ele>282.0</ele><time>2026-05-02T07:41:20.952Z</time></trkpt><trkpt lat="43.6222717" lon="11.558695"><ele>282.8</ele><time>2026-05-02T07:41:22.952Z</time></trkpt><trkpt lat="43.6222883" lon="11.5588283"><ele>283.6</ele><time>2026-05-02T07:41:24.954Z</time></trkpt><trkpt lat="43.62229" lon="11.5589633"><ele>284.40000000000003</ele><time>2026-05-02T07:41:26.954Z</time></trkpt><trkpt lat="43.6222567" lon="11.559095"><ele>285.2</ele><time>2026-05-02T07:41:28.952Z</time></trkpt><trkpt lat="43.622205" lon="11.5592267"><ele>286.0</ele><time>2026-05-02T07:41:30.953Z</time></trkpt><trkpt lat="43.6221417" lon="11.559325"><ele>286.0</ele><time>2026-05-02T07:41:32.954Z</time></trkpt><trkpt lat="43.6220467" lon="11.5593933"><ele>286.0</ele><time>2026-05-02T07:41:34.954Z</time></trkpt><trkpt lat="43.6219333" lon="11.559435"><ele>286.0</ele><time>2026-05-02T07:41:36.953Z</time></trkpt><trkpt lat="43.6218167" lon="11.5594717"><ele>286.0</ele><time>2026-05-02T07:41:38.953Z</time></trkpt><trkpt lat="43.6217533" lon="11.559495"><ele>286.0</ele><time>2026-05-02T07:41:39.953Z</time></trkpt><trkpt lat="43.62169" lon="11.5595233"><ele>286.1428571428571</ele><time>2026-05-02T07:41:40.953Z</time></trkpt><trkpt lat="43.6216317" lon="11.55956"><ele>286.2857142857143</ele><time>2026-05-02T07:41:41.955Z</time></trkpt><trkpt lat="43.6215717" lon="11.5596067"><ele>286.42857142857144</ele><time>2026-05-02T07:41:42.954Z</time></trkpt><trkpt lat="43.621515" lon="11.55966"><ele>286.57142857142856</ele><time>2026-05-02T07:41:43.955Z</time></trkpt><trkpt lat="43.6214617" lon="11.559725"><ele>286.7142857142857</ele><time>2026-05-02T07:41:44.955Z</time></trkpt><trkpt lat="43.6214083" lon="11.5597967"><ele>286.85714285714283</ele><time>2026-05-02T07:41:45.953Z</time></trkpt><trkpt lat="43.6213583" lon="11.5598717"><ele>287.0</ele><time>2026-05-02T07:41:46.952Z</time></trkpt><trkpt lat="43.6213083" lon="11.5599467"><ele>287.0</ele><time>2026-05-02T07:41:47.955Z</time></trkpt><trkpt lat="43.6212583" lon="11.5600317"><ele>287.0</ele><time>2026-05-02T07:41:48.954Z</time></trkpt><trkpt lat="43.6212067" lon="11.5601133"><ele>287.0</ele><time>2026-05-02T07:41:49.953Z</time></trkpt><trkpt lat="43.6211533" lon="11.5602033"><ele>287.0</ele><time>2026-05-02T07:41:50.955Z</time></trkpt><trkpt lat="43.6211" lon="11.56029"><ele>287.0</ele><time>2026-05-02T07:41:51.953Z</time></trkpt><trkpt lat="43.621045" lon="11.5603783"><ele>287.0</ele><time>2026-05-02T07:41:52.951Z</time></trkpt><trkpt lat="43.6209933" lon="11.5604733"><ele>287.0</ele><time>2026-05-02T07:41:53.953Z</time></trkpt><trkpt lat="43.620945" lon="11.560575"><ele>287.0</ele><time>2026-05-02T07:41:54.951Z</time></trkpt><trkpt lat="43.6208967" lon="11.5606783"><ele>287.0</ele><time>2026-05-02T07:41:55.953Z</time></trkpt><trkpt lat="43.62085" lon="11.5607817"><ele>287.0</ele><time>2026-05-02T07:41:56.952Z</time></trkpt><trkpt lat="43.6208" lon="11.5608883"><ele>287.0</ele><time>2026-05-02T07:41:57.953Z</time></trkpt><trkpt lat="43.6207517" lon="11.5609983"><ele>287.0</ele><time>2026-05-02T07:41:58.953Z</time></trkpt><trkpt lat="43.620705" lon="11.5611167"><ele>287.0</ele><time>2026-05-02T07:41:59.953Z</time></trkpt><trkpt lat="43.6206583" lon="11.56123"><ele>287.0</ele><time>2026-05-02T07:42:00.954Z</time></trkpt><trkpt lat="43.6206117" lon="11.5613433"><ele>287.0</ele><time>2026-05-02T07:42:01.954Z</time></trkpt><trkpt lat="43.6205633" lon="11.5614533"><ele>287.0</ele><time>2026-05-02T07:42:02.952Z</time></trkpt><trkpt lat="43.6205133" lon="11.5615717"><ele>287.2</ele><time>2026-05-02T07:42:03.953Z</time></trkpt><trkpt lat="43.62046" lon="11.5616867"><ele>287.4</ele><time>2026-05-02T07:42:04.955Z</time></trkpt><trkpt lat="43.6204067" lon="11.5617967"><ele>287.6</ele><time>2026-05-02T07:42:05.954Z</time></trkpt><trkpt lat="43.6203583" lon="11.5619067"><ele>287.8</ele><time>2026-05-02T07:42:06.954Z</time></trkpt><trkpt lat="43.6203067" lon="11.5620183"><ele>288.0</ele><time>2026-05-02T07:42:07.954Z</time></trkpt><trkpt lat="43.6202567" lon="11.56213"><ele>286.2</ele><time>2026-05-02T07:42:08.955Z</time></trkpt><trkpt lat="43.6202083" lon="11.5622417"><ele>284.4</ele><time>2026-05-02T07:42:09.952Z</time></trkpt><trkpt lat="43.6201633" lon="11.562355"><ele>282.59999999999997</ele><time>2026-05-02T07:42:10.953Z</time></trkpt><trkpt lat="43.620115" lon="11.5624717"><ele>280.8</ele><time>2026-05-02T07:42:11.954Z</time></trkpt><trkpt lat="43.6200633" lon="11.562585"><ele>279.0</ele><time>2026-05-02T07:42:12.952Z</time></trkpt><trkpt lat="43.6200083" lon="11.5627"><ele>279.0</ele><time>2026-05-02T07:42:13.953Z</time></trkpt><trkpt lat="43.61995" lon="11.5628117"><ele>279.0</ele><time>2026-05-02T07:42:14.955Z</time></trkpt><trkpt lat="43.6198833" lon="11.5629183"><ele>279.0</ele><time>2026-05-02T07:42:15.954Z</time></trkpt><trkpt lat="43.6198083" lon="11.5630183"><ele>279.0</ele><time>2026-05-02T07:42:16.953Z</time></trkpt><trkpt lat="43.6197183" lon="11.5631"><ele>279.0</ele><time>2026-05-02T07:42:17.953Z</time></trkpt><trkpt lat="43.6196217" lon="11.56316"><ele>278.59999999999997</ele><time>2026-05-02T07:42:18.955Z</time></trkpt><trkpt lat="43.6195233" lon="11.5632017"><ele>278.2</ele><time>2026-05-02T07:42:19.953Z</time></trkpt><trkpt lat="43.6194283" lon="11.5632417"><ele>277.79999999999995</ele><time>2026-05-02T07:42:20.955Z</time></trkpt><trkpt lat="43.619335" lon="11.5632633"><ele>277.4</ele><time>2026-05-02T07:42:21.954Z</time></trkpt><trkpt lat="43.6192417" lon="11.5632833"><ele>277.0</ele><time>2026-05-02T07:42:22.954Z</time></trkpt><trkpt lat="43.619155" lon="11.5633083"><ele>277.0</ele><time>2026-05-02T07:42:23.953Z</time></trkpt><trkpt lat="43.61907" lon="11.5633333"><ele>277.0</ele><time>2026-05-02T07:42:24.954Z</time></trkpt><trkpt lat="43.6189917" lon="11.5633633"><ele>277.0</ele><time>2026-05-02T07:42:25.951Z</time></trkpt><trkpt lat="43.6189217" lon="11.5633983"><ele>277.0</ele><time>2026-05-02T07:42:26.955Z</time></trkpt><trkpt lat="43.6188583" lon="11.5634467"><ele>277.0</ele><time>2026-05-02T07:42:27.954Z</time></trkpt><trkpt lat="43.6188017" lon="11.5635033"><ele>277.0</ele><time>2026-05-02T07:42:28.953Z</time></trkpt><trkpt lat="43.6187483" lon="11.5635683"><ele>277.0</ele><time>2026-05-02T07:42:29.952Z</time></trkpt><trkpt lat="43.618695" lon="11.563635"><ele>277.0</ele><time>2026-05-02T07:42:30.953Z</time></trkpt><trkpt lat="43.6186483" lon="11.5636983"><ele>277.0</ele><time>2026-05-02T07:42:31.952Z</time></trkpt><trkpt lat="43.6186" lon="11.5637567"><ele>277.0</ele><time>2026-05-02T07:42:32.954Z</time></trkpt><trkpt lat="43.61855" lon="11.5638117"><ele>277.0</ele><time>2026-05-02T07:42:33.955Z</time></trkpt><trkpt lat="43.618445" lon="11.5638917"><ele>277.0</ele><time>2026-05-02T07:42:35.955Z</time></trkpt><trkpt lat="43.618345" lon="11.5639367"><ele>278.4</ele><time>2026-05-02T07:42:37.954Z</time></trkpt><trkpt lat="43.618245" lon="11.563955"><ele>279.79999999999995</ele><time>2026-05-02T07:42:39.953Z</time></trkpt><trkpt lat="43.6181433" lon="11.56397"><ele>281.2</ele><time>2026-05-02T07:42:41.953Z</time></trkpt><trkpt lat="43.618045" lon="11.5639817"><ele>282.59999999999997</ele><time>2026-05-02T07:42:43.953Z</time></trkpt><trkpt lat="43.61795" lon="11.564"><ele>284.0</ele><time>2026-05-02T07:42:45.953Z</time></trkpt><trkpt lat="43.6178683" lon="11.5640267"><ele>284.0</ele><time>2026-05-02T07:42:47.952Z</time></trkpt><trkpt lat="43.6177867" lon="11.5640617"><ele>284.0</ele><time>2026-05-02T07:42:49.954Z</time></trkpt><trkpt lat="43.6177117" lon="11.564115"><ele>284.0</ele><time>2026-05-02T07:42:51.952Z</time></trkpt><trkpt lat="43.6176333" lon="11.5641783"><ele>284.0</ele><time>2026-05-02T07:42:53.952Z</time></trkpt><trkpt lat="43.61755" lon="11.5642433"><ele>284.0</ele><time>2026-05-02T07:42:55.954Z</time></trkpt><trkpt lat="43.6174717" lon="11.5643217"><ele>284.0</ele><time>2026-05-02T07:42:57.953Z</time></trkpt><trkpt lat="43.61739" lon="11.5644233"><ele>284.0</ele><time>2026-05-02T07:42:59.953Z</time></trkpt><trkpt lat="43.6173117" lon="11.5645417"><ele>284.0</ele><time>2026-05-02T07:43:01.953Z</time></trkpt><trkpt lat="43.61725" lon="11.5646783"><ele>284.0</ele><time>2026-05-02T07:43:03.953Z</time></trkpt><trkpt lat="43.6172" lon="11.5648367"><ele>284.42857142857144</ele><time>2026-05-02T07:43:05.953Z</time></trkpt><trkpt lat="43.6171817" lon="11.5649267"><ele>284.85714285714283</ele><time>2026-05-02T07:43:06.953Z</time></trkpt><trkpt lat="43.6171633" lon="11.5650233"><ele>285.2857142857143</ele><time>2026-05-02T07:43:07.952Z</time></trkpt><trkpt lat="43.6171417" lon="11.56512"><ele>285.7142857142857</ele><time>2026-05-02T07:43:08.953Z</time></trkpt><trkpt lat="43.6171183" lon="11.5652183"><ele>286.1428571428571</ele><time>2026-05-02T07:43:09.952Z</time></trkpt><trkpt lat="43.6170917" lon="11.5653183"><ele>286.57142857142856</ele><time>2026-05-02T07:43:10.953Z</time></trkpt><trkpt lat="43.617055" lon="11.5654033"><ele>287.0</ele><time>2026-05-02T07:43:11.953Z</time></trkpt><trkpt lat="43.61701" lon="11.5654817"><ele>286.7142857142857</ele><time>2026-05-02T07:43:12.953Z</time></trkpt><trkpt lat="43.616955" lon="11.565545"><ele>286.42857142857144</ele><time>2026-05-02T07:43:13.953Z</time></trkpt><trkpt lat="43.6168883" lon="11.5655967"><ele>286.1428571428571</ele><time>2026-05-02T07:43:14.956Z</time></trkpt><trkpt lat="43.61682" lon="11.5656283"><ele>285.8571428571429</ele><time>2026-05-02T07:43:15.953Z</time></trkpt><trkpt lat="43.61675" lon="11.5656483"><ele>285.57142857142856</ele><time>2026-05-02T07:43:16.955Z</time></trkpt><trkpt lat="43.61668" lon="11.5656583"><ele>285.2857142857143</ele><time>2026-05-02T07:43:17.954Z</time></trkpt><trkpt lat="43.6166117" lon="11.565665"><ele>285.0</ele><time>2026-05-02T07:43:18.953Z</time></trkpt><trkpt lat="43.6165417" lon="11.56567"><ele>285.0</ele><time>2026-05-02T07:43:19.954Z</time></trkpt><trkpt lat="43.616475" lon="11.5656733"><ele>285.0</ele><time>2026-05-02T07:43:20.953Z</time></trkpt><trkpt lat="43.6164083" lon="11.56568"><ele>285.0</ele><time>2026-05-02T07:43:21.954Z</time></trkpt><trkpt lat="43.6162883" lon="11.565685"><ele>285.0</ele><time>2026-05-02T07:43:23.952Z</time></trkpt><trkpt lat="43.6161733" lon="11.5657033"><ele>285.0</ele><time>2026-05-02T07:43:25.955Z</time></trkpt><trkpt lat="43.6160633" lon="11.5657333"><ele>284.6</ele><time>2026-05-02T07:43:27.953Z</time></trkpt><trkpt lat="43.615965" lon="11.5657617"><ele>284.2</ele><time>2026-05-02T07:43:29.954Z</time></trkpt><trkpt lat="43.6158633" lon="11.5657967"><ele>283.8</ele><time>2026-05-02T07:43:31.954Z</time></trkpt><trkpt lat="43.61576" lon="11.565855"><ele>283.4</ele><time>2026-05-02T07:43:33.952Z</time></trkpt><trkpt lat="43.6156683" lon="11.5659417"><ele>283.0</ele><time>2026-05-02T07:43:35.953Z</time></trkpt><trkpt lat="43.615585" lon="11.5660483"><ele>283.0</ele><time>2026-05-02T07:43:37.953Z</time></trkpt><trkpt lat="43.6155133" lon="11.5661717"><ele>283.0</ele><time>2026-05-02T07:43:39.954Z</time></trkpt><trkpt lat="43.6154683" lon="11.56631"><ele>283.0</ele><time>2026-05-02T07:43:41.954Z</time></trkpt><trkpt lat="43.6154167" lon="11.56646"><ele>283.0</ele><time>2026-05-02T07:43:43.954Z</time></trkpt><trkpt lat="43.61537" lon="11.5666117"><ele>283.0</ele><time>2026-05-02T07:43:45.952Z</time></trkpt><trkpt lat="43.6153267" lon="11.5667533"><ele>283.0</ele><time>2026-05-02T07:43:47.954Z</time></trkpt><trkpt lat="43.61529" lon="11.5668983"><ele>283.0</ele><time>2026-05-02T07:43:49.953Z</time></trkpt><trkpt lat="43.61525" lon="11.5670467"><ele>283.0</ele><time>2026-05-02T07:43:51.954Z</time></trkpt><trkpt lat="43.6152067" lon="11.5671833"><ele>283.0</ele><time>2026-05-02T07:43:53.952Z</time></trkpt><trkpt lat="43.6151733" lon="11.5673217"><ele>284.5</ele><time>2026-05-02T07:43:55.955Z</time></trkpt><trkpt lat="43.61514" lon="11.567475"><ele>286.0</ele><time>2026-05-02T07:43:57.953Z</time></trkpt><trkpt lat="43.615115" lon="11.56763"><ele>287.5</ele><time>2026-05-02T07:43:59.953Z</time></trkpt><trkpt lat="43.6151017" lon="11.567785"><ele>289.0</ele><time>2026-05-02T07:44:01.953Z</time></trkpt><trkpt lat="43.615105" lon="11.5679367"><ele>290.2</ele><time>2026-05-02T07:44:03.953Z</time></trkpt><trkpt lat="43.6151117" lon="11.5680883"><ele>291.4</ele><time>2026-05-02T07:44:05.956Z</time></trkpt><trkpt lat="43.615115" lon="11.56824"><ele>292.6</ele><time>2026-05-02T07:44:07.955Z</time></trkpt><trkpt lat="43.6151133" lon="11.5684"><ele>293.8</ele><time>2026-05-02T07:44:09.953Z</time></trkpt><trkpt lat="43.615105" lon="11.5685533"><ele>295.0</ele><time>2026-05-02T07:44:11.952Z</time></trkpt><trkpt lat="43.61509" lon="11.5687083"><ele>295.2</ele><time>2026-05-02T07:44:13.953Z</time></trkpt><trkpt lat="43.6150733" lon="11.5688633"><ele>295.4</ele><time>2026-05-02T07:44:15.951Z</time></trkpt><trkpt lat="43.6150583" lon="11.56902"><ele>295.6</ele><time>2026-05-02T07:44:17.956Z</time></trkpt><trkpt lat="43.61503" lon="11.5691683"><ele>295.8</ele><time>2026-05-02T07:44:19.951Z</time></trkpt><trkpt lat="43.6149567" lon="11.5692817"><ele>296.0</ele><time>2026-05-02T07:44:21.955Z</time></trkpt><trkpt lat="43.614855" lon="11.5693333"><ele>296.0</ele><time>2026-05-02T07:44:23.953Z</time></trkpt><trkpt lat="43.6147817" lon="11.5692617"><ele>296.0</ele><time>2026-05-02T07:44:25.953Z</time></trkpt><trkpt lat="43.614725" lon="11.56914"><ele>296.0</ele><time>2026-05-02T07:44:27.956Z</time></trkpt><trkpt lat="43.6146667" lon="11.5690217"><ele>296.0</ele><time>2026-05-02T07:44:29.956Z</time></trkpt><trkpt lat="43.6145983" lon="11.5689183"><ele>296.0</ele><time>2026-05-02T07:44:31.955Z</time></trkpt><trkpt lat="43.6145183" lon="11.568835"><ele>296.6</ele><time>2026-05-02T07:44:33.954Z</time></trkpt><trkpt lat="43.61442" lon="11.5687867"><ele>297.20000000000005</ele><time>2026-05-02T07:44:35.954Z</time></trkpt><trkpt lat="43.6143233" lon="11.5687783"><ele>297.79999999999995</ele><time>2026-05-02T07:44:37.956Z</time></trkpt><trkpt lat="43.61423" lon="11.5687917"><ele>298.4</ele><time>2026-05-02T07:44:39.954Z</time></trkpt><trkpt lat="43.61414" lon="11.5688167"><ele>299.0</ele><time>2026-05-02T07:44:41.952Z</time></trkpt><trkpt lat="43.61405" lon="11.5688617"><ele>299.0</ele><time>2026-05-02T07:44:43.953Z</time></trkpt><trkpt lat="43.6139533" lon="11.5689233"><ele>299.0</ele><time>2026-05-02T07:44:45.953Z</time></trkpt><trkpt lat="43.613855" lon="11.5689917"><ele>299.0</ele><time>2026-05-02T07:44:47.953Z</time></trkpt><trkpt lat="43.61376" lon="11.5690717"><ele>299.0</ele><time>2026-05-02T07:44:49.952Z</time></trkpt><trkpt lat="43.6136617" lon="11.5691483"><ele>299.0</ele><time>2026-05-02T07:44:51.953Z</time></trkpt><trkpt lat="43.6135583" lon="11.5692267"><ele>298.5</ele><time>2026-05-02T07:44:53.954Z</time></trkpt><trkpt lat="43.6134517" lon="11.56931"><ele>298.0</ele><time>2026-05-02T07:44:55.954Z</time></trkpt><trkpt lat="43.6133417" lon="11.56939"><ele>297.5</ele><time>2026-05-02T07:44:57.953Z</time></trkpt><trkpt lat="43.6132317" lon="11.5694683"><ele>297.0</ele><time>2026-05-02T07:44:59.955Z</time></trkpt><trkpt lat="43.6131217" lon="11.5695467"><ele>296.6</ele><time>2026-05-02T07:45:01.953Z</time></trkpt><trkpt lat="43.6130167" lon="11.5696267"><ele>296.2</ele><time>2026-05-02T07:45:03.955Z</time></trkpt><trkpt lat="43.612915" lon="11.5697317"><ele>295.8</ele><time>2026-05-02T07:45:05.954Z</time></trkpt><trkpt lat="43.612825" lon="11.5698483"><ele>295.4</ele><time>2026-05-02T07:45:07.953Z</time></trkpt><trkpt lat="43.6127833" lon="11.5699183"><ele>295.0</ele><time>2026-05-02T07:45:08.953Z</time></trkpt><trkpt lat="43.612745" lon="11.5699917"><ele>295.0</ele><time>2026-05-02T07:45:09.953Z</time></trkpt><trkpt lat="43.6127083" lon="11.5700667"><ele>295.0</ele><time>2026-05-02T07:45:10.955Z</time></trkpt><trkpt lat="43.6126717" lon="11.5701417"><ele>295.0</ele><time>2026-05-02T07:45:11.953Z</time></trkpt><trkpt lat="43.612635" lon="11.570215"><ele>295.0</ele><time>2026-05-02T07:45:12.954Z</time></trkpt><trkpt lat="43.612555" lon="11.5703433"><ele>295.0</ele><time>2026-05-02T07:45:14.955Z</time></trkpt><trkpt lat="43.61251" lon="11.5704067"><ele>295.0</ele><time>2026-05-02T07:45:15.952Z</time></trkpt><trkpt lat="43.612415" lon="11.5705183"><ele>295.0</ele><time>2026-05-02T07:45:17.953Z</time></trkpt><trkpt lat="43.61236" lon="11.570565"><ele>295.0</ele><time>2026-05-02T07:45:18.953Z</time></trkpt><trkpt lat="43.6123" lon="11.570595"><ele>295.0</ele><time>2026-05-02T07:45:19.953Z</time></trkpt><trkpt lat="43.61217" lon="11.5706217"><ele>295.0</ele><time>2026-05-02T07:45:21.954Z</time></trkpt><trkpt lat="43.612105" lon="11.570635"><ele>295.0</ele><time>2026-05-02T07:45:22.952Z</time></trkpt><trkpt lat="43.6119817" lon="11.5706667"><ele>295.00000000000006</ele><time>2026-05-02T07:45:24.954Z</time></trkpt><trkpt lat="43.6119183" lon="11.57069"><ele>295.0</ele><time>2026-05-02T07:45:25.953Z</time></trkpt><trkpt lat="43.6118567" lon="11.5707233"><ele>295.0</ele><time>2026-05-02T07:45:26.954Z</time></trkpt><trkpt lat="43.6117983" lon="11.5707683"><ele>295.0</ele><time>2026-05-02T07:45:27.954Z</time></trkpt><trkpt lat="43.611745" lon="11.570825"><ele>295.0</ele><time>2026-05-02T07:45:28.955Z</time></trkpt><trkpt lat="43.6116967" lon="11.57089"><ele>295.00000000000006</ele><time>2026-05-02T07:45:29.956Z</time></trkpt><trkpt lat="43.6116533" lon="11.5709617"><ele>295.0</ele><time>2026-05-02T07:45:30.956Z</time></trkpt><trkpt lat="43.6116167" lon="11.5710467"><ele>295.0</ele><time>2026-05-02T07:45:31.955Z</time></trkpt><trkpt lat="43.61159" lon="11.5711383"><ele>295.0</ele><time>2026-05-02T07:45:32.954Z</time></trkpt><trkpt lat="43.6115767" lon="11.5712367"><ele>295.0</ele><time>2026-05-02T07:45:33.953Z</time></trkpt><trkpt lat="43.6115683" lon="11.57134"><ele>295.0</ele><time>2026-05-02T07:45:34.954Z</time></trkpt><trkpt lat="43.6115633" lon="11.5714483"><ele>295.0</ele><time>2026-05-02T07:45:35.953Z</time></trkpt><trkpt lat="43.6115567" lon="11.5715583"><ele>295.0</ele><time>2026-05-02T07:45:36.954Z</time></trkpt><trkpt lat="43.6115517" lon="11.5716683"><ele>295.5</ele><time>2026-05-02T07:45:37.954Z</time></trkpt><trkpt lat="43.6115483" lon="11.5717667"><ele>296.0</ele><time>2026-05-02T07:45:38.954Z</time></trkpt><trkpt lat="43.6115433" lon="11.571875"><ele>296.5</ele><time>2026-05-02T07:45:39.953Z</time></trkpt><trkpt lat="43.6115383" lon="11.5719883"><ele>297.0</ele><time>2026-05-02T07:45:40.952Z</time></trkpt><trkpt lat="43.611535" lon="11.5721017"><ele>297.5</ele><time>2026-05-02T07:45:41.952Z</time></trkpt><trkpt lat="43.6115267" lon="11.5722233"><ele>298.0</ele><time>2026-05-02T07:45:42.953Z</time></trkpt><trkpt lat="43.61152" lon="11.5723483"><ele>298.4</ele><time>2026-05-02T07:45:43.953Z</time></trkpt><trkpt lat="43.6115117" lon="11.5724767"><ele>298.8</ele><time>2026-05-02T07:45:44.954Z</time></trkpt><trkpt lat="43.6115017" lon="11.5726033"><ele>299.2</ele><time>2026-05-02T07:45:45.953Z</time></trkpt><trkpt lat="43.61149" lon="11.57273"><ele>299.6</ele><time>2026-05-02T07:45:46.954Z</time></trkpt><trkpt lat="43.6114617" lon="11.572855"><ele>300.0</ele><time>2026-05-02T07:45:47.955Z</time></trkpt><trkpt lat="43.61142" lon="11.572965"><ele>300.1666666666667</ele><time>2026-05-02T07:45:48.952Z</time></trkpt><trkpt lat="43.6113683" lon="11.5730617"><ele>300.3333333333333</ele><time>2026-05-02T07:45:49.953Z</time></trkpt><trkpt lat="43.6113083" lon="11.5731417"><ele>300.5</ele><time>2026-05-02T07:45:50.953Z</time></trkpt><trkpt lat="43.6112417" lon="11.57319"><ele>300.66666666666663</ele><time>2026-05-02T07:45:51.952Z</time></trkpt><trkpt lat="43.6111717" lon="11.5732017"><ele>300.8333333333333</ele><time>2026-05-02T07:45:52.952Z</time></trkpt><trkpt lat="43.61109" lon="11.57316"><ele>301.0</ele><time>2026-05-02T07:45:53.955Z</time></trkpt><trkpt lat="43.6110333" lon="11.5730817"><ele>300.66666666666663</ele><time>2026-05-02T07:45:54.953Z</time></trkpt><trkpt lat="43.6109983" lon="11.5729717"><ele>300.3333333333333</ele><time>2026-05-02T07:45:55.955Z</time></trkpt><trkpt lat="43.610975" lon="11.572865"><ele>300.0</ele><time>2026-05-02T07:45:56.956Z</time></trkpt><trkpt lat="43.6109483" lon="11.5727517"><ele>299.6666666666667</ele><time>2026-05-02T07:45:57.953Z</time></trkpt><trkpt lat="43.6109183" lon="11.5726483"><ele>299.33333333333337</ele><time>2026-05-02T07:45:58.952Z</time></trkpt><trkpt lat="43.6108967" lon="11.5725417"><ele>299.0</ele><time>2026-05-02T07:45:59.954Z</time></trkpt><trkpt lat="43.610875" lon="11.572435"><ele>299.0</ele><time>2026-05-02T07:46:00.954Z</time></trkpt><trkpt lat="43.610855" lon="11.5723333"><ele>299.0</ele><time>2026-05-02T07:46:01.954Z</time></trkpt><trkpt lat="43.6108333" lon="11.5722367"><ele>299.0</ele><time>2026-05-02T07:46:02.955Z</time></trkpt><trkpt lat="43.61081" lon="11.57214"><ele>299.0</ele><time>2026-05-02T07:46:03.955Z</time></trkpt><trkpt lat="43.6107883" lon="11.5720417"><ele>299.0</ele><time>2026-05-02T07:46:04.955Z</time></trkpt><trkpt lat="43.6107617" lon="11.5719467"><ele>299.0</ele><time>2026-05-02T07:46:05.955Z</time></trkpt><trkpt lat="43.6107367" lon="11.5718517"><ele>299.0</ele><time>2026-05-02T07:46:06.956Z</time></trkpt><trkpt lat="43.6107133" lon="11.5717517"><ele>298.0</ele><time>2026-05-02T07:46:07.954Z</time></trkpt><trkpt lat="43.61069" lon="11.5716483"><ele>297.0</ele><time>2026-05-02T07:46:08.955Z</time></trkpt><trkpt lat="43.6106667" lon="11.57155"><ele>296.0</ele><time>2026-05-02T07:46:09.953Z</time></trkpt><trkpt lat="43.6106417" lon="11.5714517"><ele>295.0</ele><time>2026-05-02T07:46:10.954Z</time></trkpt><trkpt lat="43.6106117" lon="11.571355"><ele>294.0</ele><time>2026-05-02T07:46:11.954Z</time></trkpt><trkpt lat="43.610575" lon="11.5712617"><ele>293.0</ele><time>2026-05-02T07:46:12.952Z</time></trkpt><trkpt lat="43.610535" lon="11.5711783"><ele>292.83333333333337</ele><time>2026-05-02T07:46:13.953Z</time></trkpt><trkpt lat="43.6104833" lon="11.5710967"><ele>292.6666666666667</ele><time>2026-05-02T07:46:14.955Z</time></trkpt><trkpt lat="43.6104183" lon="11.571045"><ele>292.5</ele><time>2026-05-02T07:46:15.954Z</time></trkpt><trkpt lat="43.61034" lon="11.5710117"><ele>292.3333333333333</ele><time>2026-05-02T07:46:16.952Z</time></trkpt><trkpt lat="43.6102683" lon="11.57099"><ele>292.16666666666663</ele><time>2026-05-02T07:46:17.955Z</time></trkpt><trkpt lat="43.6101917" lon="11.570975"><ele>292.0</ele><time>2026-05-02T07:46:18.953Z</time></trkpt><trkpt lat="43.61012" lon="11.5709733"><ele>292.0</ele><time>2026-05-02T07:46:19.954Z</time></trkpt><trkpt lat="43.610045" lon="11.5709783"><ele>292.0</ele><time>2026-05-02T07:46:20.953Z</time></trkpt><trkpt lat="43.6099667" lon="11.5709917"><ele>292.0</ele><time>2026-05-02T07:46:21.954Z</time></trkpt><trkpt lat="43.6098833" lon="11.57101"><ele>292.0</ele><time>2026-05-02T07:46:22.957Z</time></trkpt><trkpt lat="43.6098017" lon="11.57103"><ele>292.0</ele><time>2026-05-02T07:46:23.954Z</time></trkpt><trkpt lat="43.60972" lon="11.571045"><ele>292.0</ele><time>2026-05-02T07:46:24.955Z</time></trkpt><trkpt lat="43.609635" lon="11.5710617"><ele>292.0</ele><time>2026-05-02T07:46:25.952Z</time></trkpt><trkpt lat="43.6095467" lon="11.5710817"><ele>292.0</ele><time>2026-05-02T07:46:26.954Z</time></trkpt><trkpt lat="43.609455" lon="11.5711017"><ele>292.0</ele><time>2026-05-02T07:46:27.953Z</time></trkpt><trkpt lat="43.609365" lon="11.5711217"><ele>292.0</ele><time>2026-05-02T07:46:28.952Z</time></trkpt><trkpt lat="43.6092733" lon="11.57114"><ele>292.0</ele><time>2026-05-02T07:46:29.955Z</time></trkpt><trkpt lat="43.6091867" lon="11.5711617"><ele>292.6</ele><time>2026-05-02T07:46:30.953Z</time></trkpt><trkpt lat="43.6090983" lon="11.5711833"><ele>293.2</ele><time>2026-05-02T07:46:31.953Z</time></trkpt><trkpt lat="43.6090067" lon="11.5712033"><ele>293.8</ele><time>2026-05-02T07:46:32.955Z</time></trkpt><trkpt lat="43.6089183" lon="11.571225"><ele>294.4</ele><time>2026-05-02T07:46:33.954Z</time></trkpt><trkpt lat="43.6088283" lon="11.571245"><ele>295.0</ele><time>2026-05-02T07:46:34.954Z</time></trkpt><trkpt lat="43.6087367" lon="11.5712667"><ele>294.16666666666663</ele><time>2026-05-02T07:46:35.954Z</time></trkpt><trkpt lat="43.6086483" lon="11.5712867"><ele>293.3333333333333</ele><time>2026-05-02T07:46:36.953Z</time></trkpt><trkpt lat="43.60856" lon="11.5713067"><ele>292.5</ele><time>2026-05-02T07:46:37.955Z</time></trkpt><trkpt lat="43.6084717" lon="11.5713217"><ele>291.6666666666667</ele><time>2026-05-02T07:46:38.955Z</time></trkpt><trkpt lat="43.6083817" lon="11.57133"><ele>290.83333333333337</ele><time>2026-05-02T07:46:39.953Z</time></trkpt><trkpt lat="43.608295" lon="11.5713417"><ele>290.0</ele><time>2026-05-02T07:46:40.956Z</time></trkpt><trkpt lat="43.6082067" lon="11.5713483"><ele>290.0</ele><time>2026-05-02T07:46:41.955Z</time></trkpt><trkpt lat="43.6081217" lon="11.571355"><ele>290.0</ele><time>2026-05-02T07:46:42.955Z</time></trkpt><trkpt lat="43.6080333" lon="11.5713667"><ele>290.0</ele><time>2026-05-02T07:46:43.955Z</time></trkpt><trkpt lat="43.6079483" lon="11.5713867"><ele>290.0</ele><time>2026-05-02T07:46:44.956Z</time></trkpt><trkpt lat="43.6078683" lon="11.5714183"><ele>290.0</ele><time>2026-05-02T07:46:45.954Z</time></trkpt><trkpt lat="43.6077867" lon="11.57146"><ele>290.0</ele><time>2026-05-02T07:46:46.955Z</time></trkpt><trkpt lat="43.60771" lon="11.5715067"><ele>289.1666666666667</ele><time>2026-05-02T07:46:47.954Z</time></trkpt><trkpt lat="43.6076367" lon="11.5715567"><ele>288.33333333333337</ele><time>2026-05-02T07:46:48.955Z</time></trkpt><trkpt lat="43.607565" lon="11.5716117"><ele>287.5</ele><time>2026-05-02T07:46:49.953Z</time></trkpt><trkpt lat="43.607495" lon="11.5716683"><ele>286.6666666666667</ele><time>2026-05-02T07:46:50.957Z</time></trkpt><trkpt lat="43.6074283" lon="11.571735"><ele>285.8333333333333</ele><time>2026-05-02T07:46:51.955Z</time></trkpt><trkpt lat="43.60737" lon="11.57181"><ele>285.0</ele><time>2026-05-02T07:46:52.954Z</time></trkpt><trkpt lat="43.607315" lon="11.5719"><ele>285.0</ele><time>2026-05-02T07:46:53.955Z</time></trkpt><trkpt lat="43.6072683" lon="11.5720033"><ele>285.0</ele><time>2026-05-02T07:46:54.956Z</time></trkpt><trkpt lat="43.607235" lon="11.572115"><ele>285.0</ele><time>2026-05-02T07:46:55.954Z</time></trkpt><trkpt lat="43.6072167" lon="11.57224"><ele>285.0</ele><time>2026-05-02T07:46:56.955Z</time></trkpt><trkpt lat="43.607215" lon="11.5723717"><ele>285.0</ele><time>2026-05-02T07:46:57.952Z</time></trkpt><trkpt lat="43.6072317" lon="11.572505"><ele>285.0</ele><time>2026-05-02T07:46:58.952Z</time></trkpt><trkpt lat="43.6072533" lon="11.57264"><ele>285.0</ele><time>2026-05-02T07:46:59.954Z</time></trkpt><trkpt lat="43.6072767" lon="11.572775"><ele>285.0</ele><time>2026-05-02T07:47:00.954Z</time></trkpt><trkpt lat="43.6073" lon="11.5729117"><ele>285.0</ele><time>2026-05-02T07:47:01.955Z</time></trkpt><trkpt lat="43.6073267" lon="11.5730467"><ele>285.0</ele><time>2026-05-02T07:47:02.953Z</time></trkpt><trkpt lat="43.6073533" lon="11.5731817"><ele>285.0</ele><time>2026-05-02T07:47:03.956Z</time></trkpt><trkpt lat="43.60737" lon="11.5733217"><ele>285.0</ele><time>2026-05-02T07:47:04.954Z</time></trkpt><trkpt lat="43.6073667" lon="11.5734433"><ele>285.0</ele><time>2026-05-02T07:47:05.955Z</time></trkpt><trkpt lat="43.6073333" lon="11.5735467"><ele>285.0</ele><time>2026-05-02T07:47:06.953Z</time></trkpt><trkpt lat="43.607275" lon="11.5736233"><ele>285.0</ele><time>2026-05-02T07:47:07.953Z</time></trkpt><trkpt lat="43.6071933" lon="11.5736317"><ele>285.0</ele><time>2026-05-02T07:47:08.953Z</time></trkpt><trkpt lat="43.60711" lon="11.57361"><ele>285.0</ele><time>2026-05-02T07:47:09.954Z</time></trkpt><trkpt lat="43.607025" lon="11.573585"><ele>285.0</ele><time>2026-05-02T07:47:10.954Z</time></trkpt><trkpt lat="43.60694" lon="11.5735733"><ele>285.0</ele><time>2026-05-02T07:47:11.954Z</time></trkpt><trkpt lat="43.6068583" lon="11.5735717"><ele>285.0</ele><time>2026-05-02T07:47:12.954Z</time></trkpt><trkpt lat="43.6067767" lon="11.57358"><ele>285.0</ele><time>2026-05-02T07:47:13.953Z</time></trkpt><trkpt lat="43.6066983" lon="11.5736083"><ele>285.0</ele><time>2026-05-02T07:47:14.955Z</time></trkpt><trkpt lat="43.6066267" lon="11.5736533"><ele>285.5</ele><time>2026-05-02T07:47:15.955Z</time></trkpt><trkpt lat="43.6065617" lon="11.5737083"><ele>286.0</ele><time>2026-05-02T07:47:16.954Z</time></trkpt><trkpt lat="43.6064983" lon="11.57377"><ele>286.5</ele><time>2026-05-02T07:47:17.951Z</time></trkpt><trkpt lat="43.6064317" lon="11.573835"><ele>287.0</ele><time>2026-05-02T07:47:18.953Z</time></trkpt><trkpt lat="43.6063667" lon="11.5738983"><ele>287.5</ele><time>2026-05-02T07:47:19.954Z</time></trkpt><trkpt lat="43.6063033" lon="11.5739667"><ele>288.0</ele><time>2026-05-02T07:47:20.956Z</time></trkpt><trkpt lat="43.6062433" lon="11.574035"><ele>288.0</ele><time>2026-05-02T07:47:21.954Z</time></trkpt><trkpt lat="43.6061833" lon="11.57411"><ele>288.0</ele><time>2026-05-02T07:47:22.954Z</time></trkpt><trkpt lat="43.606125" lon="11.5741917"><ele>288.0</ele><time>2026-05-02T07:47:23.955Z</time></trkpt><trkpt lat="43.60607" lon="11.5742767"><ele>288.0</ele><time>2026-05-02T07:47:24.953Z</time></trkpt><trkpt lat="43.6060183" lon="11.5743667"><ele>288.0</ele><time>2026-05-02T07:47:25.952Z</time></trkpt><trkpt lat="43.6059717" lon="11.57446"><ele>288.0</ele><time>2026-05-02T07:47:26.955Z</time></trkpt><trkpt lat="43.605925" lon="11.5745517"><ele>287.5</ele><time>2026-05-02T07:47:27.953Z</time></trkpt><trkpt lat="43.6058767" lon="11.57464"><ele>287.0</ele><time>2026-05-02T07:47:28.954Z</time></trkpt><trkpt lat="43.6058233" lon="11.5747183"><ele>286.5</ele><time>2026-05-02T07:47:29.953Z</time></trkpt><trkpt lat="43.605765" lon="11.57479"><ele>286.0</ele><time>2026-05-02T07:47:30.957Z</time></trkpt><trkpt lat="43.6056983" lon="11.5748517"><ele>285.5</ele><time>2026-05-02T07:47:31.953Z</time></trkpt><trkpt lat="43.6056317" lon="11.574905"><ele>285.0</ele><time>2026-05-02T07:47:32.952Z</time></trkpt><trkpt lat="43.6055633" lon="11.5749483"><ele>285.0</ele><time>2026-05-02T07:47:33.955Z</time></trkpt><trkpt lat="43.6054967" lon="11.5749883"><ele>285.0</ele><time>2026-05-02T07:47:34.955Z</time></trkpt><trkpt lat="43.6054317" lon="11.575025"><ele>285.0</ele><time>2026-05-02T07:47:35.952Z</time></trkpt><trkpt lat="43.6053683" lon="11.5750567"><ele>285.0</ele><time>2026-05-02T07:47:36.953Z</time></trkpt><trkpt lat="43.6053017" lon="11.57509"><ele>285.0</ele><time>2026-05-02T07:47:37.954Z</time></trkpt><trkpt lat="43.60524" lon="11.5751283"><ele>285.0</ele><time>2026-05-02T07:47:38.954Z</time></trkpt><trkpt lat="43.60518" lon="11.5751783"><ele>285.0</ele><time>2026-05-02T07:47:39.952Z</time></trkpt><trkpt lat="43.6051283" lon="11.5752367"><ele>284.7142857142857</ele><time>2026-05-02T07:47:40.954Z</time></trkpt><trkpt lat="43.6050867" lon="11.5753083"><ele>284.42857142857144</ele><time>2026-05-02T07:47:41.953Z</time></trkpt><trkpt lat="43.60506" lon="11.5753883"><ele>284.14285714285717</ele><time>2026-05-02T07:47:42.951Z</time></trkpt><trkpt lat="43.6050483" lon="11.5754767"><ele>283.8571428571429</ele><time>2026-05-02T07:47:43.952Z</time></trkpt><trkpt lat="43.6050433" lon="11.5755667"><ele>283.5714285714286</ele><time>2026-05-02T07:47:44.952Z</time></trkpt><trkpt lat="43.60504" lon="11.575655"><ele>283.2857142857143</ele><time>2026-05-02T07:47:45.955Z</time></trkpt><trkpt lat="43.605035" lon="11.5757433"><ele>283.0</ele><time>2026-05-02T07:47:46.951Z</time></trkpt><trkpt lat="43.6050233" lon="11.575905"><ele>283.0</ele><time>2026-05-02T07:47:48.952Z</time></trkpt><trkpt lat="43.6050117" lon="11.576055"><ele>283.0</ele><time>2026-05-02T07:47:50.955Z</time></trkpt><trkpt lat="43.605" lon="11.5762"><ele>283.0</ele><time>2026-05-02T07:47:52.954Z</time></trkpt><trkpt lat="43.6049767" lon="11.5763467"><ele>283.0</ele><time>2026-05-02T07:47:54.955Z</time></trkpt><trkpt lat="43.6049367" lon="11.576475"><ele>283.0</ele><time>2026-05-02T07:47:56.955Z</time></trkpt><trkpt lat="43.604885" lon="11.5765883"><ele>284.4</ele><time>2026-05-02T07:47:58.951Z</time></trkpt><trkpt lat="43.6048083" lon="11.57666"><ele>285.8</ele><time>2026-05-02T07:48:00.951Z</time></trkpt><trkpt lat="43.6047183" lon="11.5767133"><ele>287.2</ele><time>2026-05-02T07:48:02.954Z</time></trkpt><trkpt lat="43.6046233" lon="11.5767383"><ele>288.6</ele><time>2026-05-02T07:48:04.952Z</time></trkpt><trkpt lat="43.6045283" lon="11.576735"><ele>290.0</ele><time>2026-05-02T07:48:06.954Z</time></trkpt><trkpt lat="43.6044333" lon="11.57672"><ele>290.2</ele><time>2026-05-02T07:48:08.954Z</time></trkpt><trkpt lat="43.60434" lon="11.5766983"><ele>290.4</ele><time>2026-05-02T07:48:10.953Z</time></trkpt><trkpt lat="43.6042467" lon="11.5766733"><ele>290.6</ele><time>2026-05-02T07:48:12.954Z</time></trkpt><trkpt lat="43.604155" lon="11.57664"><ele>290.8</ele><time>2026-05-02T07:48:14.954Z</time></trkpt><trkpt lat="43.6040617" lon="11.5765917"><ele>291.0</ele><time>2026-05-02T07:48:16.954Z</time></trkpt><trkpt lat="43.60397" lon="11.5765467"><ele>291.0</ele><time>2026-05-02T07:48:18.957Z</time></trkpt><trkpt lat="43.6038783" lon="11.5765183"><ele>291.0</ele><time>2026-05-02T07:48:20.953Z</time></trkpt><trkpt lat="43.60379" lon="11.5765217"><ele>291.0</ele><time>2026-05-02T07:48:22.953Z</time></trkpt><trkpt lat="43.603705" lon="11.5765617"><ele>291.0</ele><time>2026-05-02T07:48:24.954Z</time></trkpt><trkpt lat="43.6036133" lon="11.5766283"><ele>291.0</ele><time>2026-05-02T07:48:26.953Z</time></trkpt><trkpt lat="43.6035267" lon="11.5767"><ele>290.40000000000003</ele><time>2026-05-02T07:48:28.953Z</time></trkpt><trkpt lat="43.60345" lon="11.576775"><ele>289.8</ele><time>2026-05-02T07:48:30.952Z</time></trkpt><trkpt lat="43.60338" lon="11.5768567"><ele>289.20000000000005</ele><time>2026-05-02T07:48:32.951Z</time></trkpt><trkpt lat="43.6033083" lon="11.576945"><ele>288.6</ele><time>2026-05-02T07:48:34.952Z</time></trkpt><trkpt lat="43.6032417" lon="11.5770483"><ele>288.0</ele><time>2026-05-02T07:48:36.954Z</time></trkpt><trkpt lat="43.6031817" lon="11.5771617"><ele>289.8</ele><time>2026-05-02T07:48:38.955Z</time></trkpt><trkpt lat="43.6031467" lon="11.5772817"><ele>291.6</ele><time>2026-05-02T07:48:40.952Z</time></trkpt><trkpt lat="43.6031333" lon="11.5774067"><ele>293.4</ele><time>2026-05-02T07:48:42.954Z</time></trkpt><trkpt lat="43.6031267" lon="11.577535"><ele>295.2</ele><time>2026-05-02T07:48:44.953Z</time></trkpt><trkpt lat="43.6031283" lon="11.5776667"><ele>297.0</ele><time>2026-05-02T07:48:46.955Z</time></trkpt><trkpt lat="43.603135" lon="11.5778033"><ele>298.2</ele><time>2026-05-02T07:48:48.953Z</time></trkpt><trkpt lat="43.603135" lon="11.5779383"><ele>299.4</ele><time>2026-05-02T07:48:50.953Z</time></trkpt><trkpt lat="43.6031317" lon="11.5780783"><ele>300.6</ele><time>2026-05-02T07:48:52.953Z</time></trkpt><trkpt lat="43.6030917" lon="11.5782067"><ele>301.8</ele><time>2026-05-02T07:48:54.954Z</time></trkpt><trkpt lat="43.603015" lon="11.5782967"><ele>303.0</ele><time>2026-05-02T07:48:56.951Z</time></trkpt><trkpt lat="43.6029217" lon="11.578355"><ele>303.0</ele><time>2026-05-02T07:48:58.954Z</time></trkpt><trkpt lat="43.6028217" lon="11.578405"><ele>303.0</ele><time>2026-05-02T07:49:00.953Z</time></trkpt><trkpt lat="43.602725" lon="11.5784767"><ele>303.0</ele><time>2026-05-02T07:49:02.954Z</time></trkpt><trkpt lat="43.6026483" lon="11.5785883"><ele>303.0</ele><time>2026-05-02T07:49:04.953Z</time></trkpt><trkpt lat="43.6025867" lon="11.5787267"><ele>303.0</ele><time>2026-05-02T07:49:06.952Z</time></trkpt><trkpt lat="43.60252" lon="11.5788617"><ele>303.0</ele><time>2026-05-02T07:49:08.954Z</time></trkpt><trkpt lat="43.6024333" lon="11.5789717"><ele>303.0</ele><time>2026-05-02T07:49:10.954Z</time></trkpt><trkpt lat="43.60233" lon="11.5790417"><ele>303.0</ele><time>2026-05-02T07:49:12.953Z</time></trkpt><trkpt lat="43.6022167" lon="11.579075"><ele>303.0</ele><time>2026-05-02T07:49:14.954Z</time></trkpt><trkpt lat="43.6021033" lon="11.579095"><ele>301.5</ele><time>2026-05-02T07:49:16.954Z</time></trkpt><trkpt lat="43.6019933" lon="11.5791233"><ele>300.0</ele><time>2026-05-02T07:49:18.952Z</time></trkpt><trkpt lat="43.60188" lon="11.5791567"><ele>298.5</ele><time>2026-05-02T07:49:20.953Z</time></trkpt><trkpt lat="43.60176" lon="11.5791917"><ele>297.0</ele><time>2026-05-02T07:49:22.954Z</time></trkpt><trkpt lat="43.6016383" lon="11.5791983"><ele>297.0</ele><time>2026-05-02T07:49:24.954Z</time></trkpt><trkpt lat="43.601515" lon="11.5791717"><ele>297.0</ele><time>2026-05-02T07:49:26.956Z</time></trkpt><trkpt lat="43.6013917" lon="11.5791233"><ele>297.0</ele><time>2026-05-02T07:49:28.953Z</time></trkpt><trkpt lat="43.6013217" lon="11.5791117"><ele>297.0</ele><time>2026-05-02T07:49:29.953Z</time></trkpt><trkpt lat="43.6012517" lon="11.5791167"><ele>297.0</ele><time>2026-05-02T07:49:30.954Z</time></trkpt><trkpt lat="43.60118" lon="11.5791283"><ele>296.6666666666667</ele><time>2026-05-02T07:49:31.95Z</time></trkpt><trkpt lat="43.601105" lon="11.5791483"><ele>296.3333333333333</ele><time>2026-05-02T07:49:32.954Z</time></trkpt><trkpt lat="43.6010333" lon="11.5791717"><ele>296.0</ele><time>2026-05-02T07:49:33.953Z</time></trkpt><trkpt lat="43.6009617" lon="11.579205"><ele>295.66666666666663</ele><time>2026-05-02T07:49:34.954Z</time></trkpt><trkpt lat="43.60089" lon="11.5792517"><ele>295.3333333333333</ele><time>2026-05-02T07:49:35.954Z</time></trkpt><trkpt lat="43.6008233" lon="11.57931"><ele>295.0</ele><time>2026-05-02T07:49:36.953Z</time></trkpt><trkpt lat="43.6007583" lon="11.5793817"><ele>295.0</ele><time>2026-05-02T07:49:37.953Z</time></trkpt><trkpt lat="43.6007" lon="11.5794633"><ele>295.0</ele><time>2026-05-02T07:49:38.955Z</time></trkpt><trkpt lat="43.600645" lon="11.5795533"><ele>295.0</ele><time>2026-05-02T07:49:39.953Z</time></trkpt><trkpt lat="43.6005917" lon="11.5796467"><ele>295.0</ele><time>2026-05-02T07:49:40.953Z</time></trkpt><trkpt lat="43.6005383" lon="11.5797483"><ele>295.0</ele><time>2026-05-02T07:49:41.954Z</time></trkpt><trkpt lat="43.600485" lon="11.5798467"><ele>295.0</ele><time>2026-05-02T07:49:42.954Z</time></trkpt><trkpt lat="43.6004333" lon="11.579945"><ele>295.16666666666663</ele><time>2026-05-02T07:49:43.955Z</time></trkpt><trkpt lat="43.600385" lon="11.5800533"><ele>295.3333333333333</ele><time>2026-05-02T07:49:44.955Z</time></trkpt><trkpt lat="43.6003483" lon="11.5801667"><ele>295.5</ele><time>2026-05-02T07:49:45.955Z</time></trkpt><trkpt lat="43.6003217" lon="11.58028"><ele>295.6666666666667</ele><time>2026-05-02T07:49:46.953Z</time></trkpt><trkpt lat="43.6003083" lon="11.5804"><ele>295.83333333333337</ele><time>2026-05-02T07:49:47.954Z</time></trkpt><trkpt lat="43.6003183" lon="11.5805183"><ele>296.0</ele><time>2026-05-02T07:49:48.951Z</time></trkpt><trkpt lat="43.6003383" lon="11.5806383"><ele>296.1666666666667</ele><time>2026-05-02T07:49:49.953Z</time></trkpt><trkpt lat="43.600365" lon="11.580755"><ele>296.33333333333337</ele><time>2026-05-02T07:49:50.953Z</time></trkpt><trkpt lat="43.600395" lon="11.580875"><ele>296.5</ele><time>2026-05-02T07:49:51.953Z</time></trkpt><trkpt lat="43.600425" lon="11.580985"><ele>296.6666666666667</ele><time>2026-05-02T07:49:52.952Z</time></trkpt><trkpt lat="43.6004517" lon="11.5811"><ele>296.8333333333333</ele><time>2026-05-02T07:49:53.951Z</time></trkpt><trkpt lat="43.6004767" lon="11.5812183"><ele>297.0</ele><time>2026-05-02T07:49:54.954Z</time></trkpt><trkpt lat="43.600505" lon="11.5813317"><ele>297.0</ele><time>2026-05-02T07:49:55.956Z</time></trkpt><trkpt lat="43.6005333" lon="11.5814433"><ele>297.0</ele><time>2026-05-02T07:49:56.953Z</time></trkpt><trkpt lat="43.6005667" lon="11.5815533"><ele>297.0</ele><time>2026-05-02T07:49:57.954Z</time></trkpt><trkpt lat="43.6005933" lon="11.5816633"><ele>297.0</ele><time>2026-05-02T07:49:58.955Z</time></trkpt><trkpt lat="43.60062" lon="11.5817717"><ele>297.0</ele><time>2026-05-02T07:49:59.953Z</time></trkpt><trkpt lat="43.6006517" lon="11.5818817"><ele>297.0</ele><time>2026-05-02T07:50:00.953Z</time></trkpt><trkpt lat="43.60069" lon="11.5819867"><ele>296.6666666666667</ele><time>2026-05-02T07:50:01.952Z</time></trkpt><trkpt lat="43.600735" lon="11.58209"><ele>296.3333333333333</ele><time>2026-05-02T07:50:02.953Z</time></trkpt><trkpt lat="43.6007783" lon="11.5821867"><ele>296.0</ele><time>2026-05-02T07:50:03.952Z</time></trkpt><trkpt lat="43.6008083" lon="11.58229"><ele>295.66666666666663</ele><time>2026-05-02T07:50:04.953Z</time></trkpt><trkpt lat="43.6008233" lon="11.5824"><ele>295.3333333333333</ele><time>2026-05-02T07:50:05.956Z</time></trkpt><trkpt lat="43.6008167" lon="11.5825117"><ele>295.0</ele><time>2026-05-02T07:50:06.953Z</time></trkpt><trkpt lat="43.600785" lon="11.5826017"><ele>295.00000000000006</ele><time>2026-05-02T07:50:07.953Z</time></trkpt><trkpt lat="43.6007283" lon="11.5826733"><ele>295.0</ele><time>2026-05-02T07:50:08.954Z</time></trkpt><trkpt lat="43.6006583" lon="11.5827183"><ele>295.0</ele><time>2026-05-02T07:50:09.956Z</time></trkpt><trkpt lat="43.600585" lon="11.5827267"><ele>295.0</ele><time>2026-05-02T07:50:10.954Z</time></trkpt><trkpt lat="43.6005117" lon="11.5827017"><ele>295.0</ele><time>2026-05-02T07:50:11.953Z</time></trkpt><trkpt lat="43.6004517" lon="11.5826517"><ele>295.00000000000006</ele><time>2026-05-02T07:50:12.953Z</time></trkpt><trkpt lat="43.600405" lon="11.5825833"><ele>295.0</ele><time>2026-05-02T07:50:13.954Z</time></trkpt><trkpt lat="43.6003533" lon="11.5825183"><ele>295.6</ele><time>2026-05-02T07:50:14.955Z</time></trkpt><trkpt lat="43.60031" lon="11.582455"><ele>296.2</ele><time>2026-05-02T07:50:15.954Z</time></trkpt><trkpt lat="43.600265" lon="11.5823933"><ele>296.8</ele><time>2026-05-02T07:50:16.953Z</time></trkpt><trkpt lat="43.600175" lon="11.5822833"><ele>297.4</ele><time>2026-05-02T07:50:18.952Z</time></trkpt><trkpt lat="43.6000867" lon="11.5821733"><ele>298.0</ele><time>2026-05-02T07:50:20.953Z</time></trkpt><trkpt lat="43.6000033" lon="11.5820683"><ele>296.0</ele><time>2026-05-02T07:50:22.951Z</time></trkpt><trkpt lat="43.5999217" lon="11.5819667"><ele>294.0</ele><time>2026-05-02T07:50:24.951Z</time></trkpt><trkpt lat="43.5998483" lon="11.5818583"><ele>292.0</ele><time>2026-05-02T07:50:26.953Z</time></trkpt><trkpt lat="43.5997817" lon="11.5817517"><ele>290.0</ele><time>2026-05-02T07:50:28.954Z</time></trkpt><trkpt lat="43.5997183" lon="11.5816533"><ele>288.0</ele><time>2026-05-02T07:50:30.953Z</time></trkpt><trkpt lat="43.59964" lon="11.5815617"><ele>288.0</ele><time>2026-05-02T07:50:32.954Z</time></trkpt><trkpt lat="43.599545" lon="11.5814983"><ele>288.0</ele><time>2026-05-02T07:50:34.954Z</time></trkpt><trkpt lat="43.5994483" lon="11.5814717"><ele>288.0</ele><time>2026-05-02T07:50:36.954Z</time></trkpt><trkpt lat="43.59936" lon="11.58147"><ele>288.0</ele><time>2026-05-02T07:50:38.954Z</time></trkpt><trkpt lat="43.5992517" lon="11.58151"><ele>288.0</ele><time>2026-05-02T07:50:40.952Z</time></trkpt><trkpt lat="43.59915" lon="11.58158"><ele>289.25</ele><time>2026-05-02T07:50:42.953Z</time></trkpt><trkpt lat="43.5990583" lon="11.5816933"><ele>290.5</ele><time>2026-05-02T07:50:44.954Z</time></trkpt><trkpt lat="43.598995" lon="11.5818333"><ele>291.75</ele><time>2026-05-02T07:50:46.953Z</time></trkpt><trkpt lat="43.5989667" lon="11.58199"><ele>293.0</ele><time>2026-05-02T07:50:48.951Z</time></trkpt><trkpt lat="43.59894" lon="11.582145"><ele>294.0</ele><time>2026-05-02T07:50:50.955Z</time></trkpt><trkpt lat="43.5989133" lon="11.5823017"><ele>295.0</ele><time>2026-05-02T07:50:52.951Z</time></trkpt><trkpt lat="43.5988833" lon="11.582455"><ele>296.0</ele><time>2026-05-02T07:50:54.953Z</time></trkpt><trkpt lat="43.5988567" lon="11.5826133"><ele>297.0</ele><time>2026-05-02T07:50:56.954Z</time></trkpt><trkpt lat="43.5988383" lon="11.5827683"><ele>297.6</ele><time>2026-05-02T07:50:58.952Z</time></trkpt><trkpt lat="43.5988167" lon="11.58294"><ele>298.2</ele><time>2026-05-02T07:51:00.953Z</time></trkpt><trkpt lat="43.5988067" lon="11.5831033"><ele>298.8</ele><time>2026-05-02T07:51:02.955Z</time></trkpt><trkpt lat="43.5988067" lon="11.5832783"><ele>299.4</ele><time>2026-05-02T07:51:04.952Z</time></trkpt><trkpt lat="43.59881" lon="11.5833717"><ele>300.0</ele><time>2026-05-02T07:51:05.953Z</time></trkpt><trkpt lat="43.5988133" lon="11.583465"><ele>299.99999999999994</ele><time>2026-05-02T07:51:06.953Z</time></trkpt><trkpt lat="43.5988167" lon="11.5835583"><ele>300.0</ele><time>2026-05-02T07:51:07.954Z</time></trkpt><trkpt lat="43.5988233" lon="11.5836567"><ele>300.0</ele><time>2026-05-02T07:51:08.953Z</time></trkpt><trkpt lat="43.5988317" lon="11.5837633"><ele>300.0</ele><time>2026-05-02T07:51:09.953Z</time></trkpt><trkpt lat="43.5988367" lon="11.5838733"><ele>300.0</ele><time>2026-05-02T07:51:10.954Z</time></trkpt><trkpt lat="43.5988333" lon="11.5839783"><ele>299.99999999999994</ele><time>2026-05-02T07:51:11.954Z</time></trkpt><trkpt lat="43.5988083" lon="11.584075"><ele>300.0</ele><time>2026-05-02T07:51:12.953Z</time></trkpt><trkpt lat="43.5987583" lon="11.5841733"><ele>300.6666666666667</ele><time>2026-05-02T07:51:13.952Z</time></trkpt><trkpt lat="43.59869" lon="11.5842283"><ele>301.3333333333333</ele><time>2026-05-02T07:51:14.953Z</time></trkpt><trkpt lat="43.598615" lon="11.58426"><ele>302.0</ele><time>2026-05-02T07:51:15.955Z</time></trkpt><trkpt lat="43.5985367" lon="11.58428"><ele>302.66666666666663</ele><time>2026-05-02T07:51:16.955Z</time></trkpt><trkpt lat="43.59846" lon="11.5843033"><ele>303.3333333333333</ele><time>2026-05-02T07:51:17.956Z</time></trkpt><trkpt lat="43.598385" lon="11.5843383"><ele>304.0</ele><time>2026-05-02T07:51:18.953Z</time></trkpt><trkpt lat="43.598315" lon="11.58439"><ele>303.0</ele><time>2026-05-02T07:51:19.956Z</time></trkpt><trkpt lat="43.5982517" lon="11.5844567"><ele>302.0</ele><time>2026-05-02T07:51:20.954Z</time></trkpt><trkpt lat="43.5981983" lon="11.58454"><ele>301.0</ele><time>2026-05-02T07:51:21.953Z</time></trkpt><trkpt lat="43.598155" lon="11.5846283"><ele>300.0</ele><time>2026-05-02T07:51:22.954Z</time></trkpt><trkpt lat="43.598115" lon="11.584725"><ele>299.0</ele><time>2026-05-02T07:51:23.953Z</time></trkpt><trkpt lat="43.5980767" lon="11.584825"><ele>298.0</ele><time>2026-05-02T07:51:24.954Z</time></trkpt><trkpt lat="43.5980383" lon="11.5849317"><ele>298.0</ele><time>2026-05-02T07:51:25.953Z</time></trkpt><trkpt lat="43.5979983" lon="11.5850333"><ele>298.0</ele><time>2026-05-02T07:51:26.953Z</time></trkpt><trkpt lat="43.5979517" lon="11.585135"><ele>298.0</ele><time>2026-05-02T07:51:27.953Z</time></trkpt><trkpt lat="43.5978933" lon="11.58523"><ele>298.0</ele><time>2026-05-02T07:51:28.954Z</time></trkpt><trkpt lat="43.59782" lon="11.5853083"><ele>298.0</ele><time>2026-05-02T07:51:29.954Z</time></trkpt><trkpt lat="43.5977383" lon="11.5853617"><ele>298.0</ele><time>2026-05-02T07:51:30.952Z</time></trkpt><trkpt lat="43.59765" lon="11.5853983"><ele>297.4</ele><time>2026-05-02T07:51:31.953Z</time></trkpt><trkpt lat="43.59756" lon="11.585435"><ele>296.8</ele><time>2026-05-02T07:51:32.953Z</time></trkpt><trkpt lat="43.5974683" lon="11.5854767"><ele>296.2</ele><time>2026-05-02T07:51:33.952Z</time></trkpt><trkpt lat="43.597375" lon="11.5855217"><ele>295.6</ele><time>2026-05-02T07:51:34.953Z</time></trkpt><trkpt lat="43.5972783" lon="11.5855683"><ele>295.0</ele><time>2026-05-02T07:51:35.954Z</time></trkpt><trkpt lat="43.5971817" lon="11.585615"><ele>295.0</ele><time>2026-05-02T07:51:36.954Z</time></trkpt><trkpt lat="43.5970867" lon="11.58566"><ele>295.0</ele><time>2026-05-02T07:51:37.956Z</time></trkpt><trkpt lat="43.5969933" lon="11.585715"><ele>295.0</ele><time>2026-05-02T07:51:38.953Z</time></trkpt><trkpt lat="43.5969067" lon="11.58579"><ele>295.0</ele><time>2026-05-02T07:51:39.954Z</time></trkpt><trkpt lat="43.5968317" lon="11.5858783"><ele>295.0</ele><time>2026-05-02T07:51:40.953Z</time></trkpt><trkpt lat="43.59677" lon="11.585985"><ele>293.0</ele><time>2026-05-02T07:51:41.954Z</time></trkpt><trkpt lat="43.5967317" lon="11.5861133"><ele>291.0</ele><time>2026-05-02T07:51:42.954Z</time></trkpt><trkpt lat="43.5967117" lon="11.586255"><ele>289.0</ele><time>2026-05-02T07:51:43.954Z</time></trkpt><trkpt lat="43.59671" lon="11.5863933"><ele>287.0</ele><time>2026-05-02T07:51:44.952Z</time></trkpt><trkpt lat="43.5967067" lon="11.586535"><ele>285.0</ele><time>2026-05-02T07:51:45.954Z</time></trkpt><trkpt lat="43.59668" lon="11.586675"><ele>285.0</ele><time>2026-05-02T07:51:46.952Z</time></trkpt><trkpt lat="43.5966317" lon="11.5867967"><ele>285.0</ele><time>2026-05-02T07:51:47.952Z</time></trkpt><trkpt lat="43.5965483" lon="11.5869033"><ele>285.0</ele><time>2026-05-02T07:51:48.954Z</time></trkpt><trkpt lat="43.596455" lon="11.5869917"><ele>285.0</ele><time>2026-05-02T07:51:49.952Z</time></trkpt><trkpt lat="43.5963683" lon="11.58708"><ele>285.0</ele><time>2026-05-02T07:51:50.953Z</time></trkpt><trkpt lat="43.5962867" lon="11.5871617"><ele>285.8</ele><time>2026-05-02T07:51:51.953Z</time></trkpt><trkpt lat="43.5961983" lon="11.587205"><ele>286.6</ele><time>2026-05-02T07:51:52.953Z</time></trkpt><trkpt lat="43.596105" lon="11.5871933"><ele>287.4</ele><time>2026-05-02T07:51:53.954Z</time></trkpt><trkpt lat="43.596015" lon="11.5871433"><ele>288.2</ele><time>2026-05-02T07:51:54.954Z</time></trkpt><trkpt lat="43.59593" lon="11.5870883"><ele>289.0</ele><time>2026-05-02T07:51:55.953Z</time></trkpt><trkpt lat="43.5958467" lon="11.5870483"><ele>289.8333333333333</ele><time>2026-05-02T07:51:56.956Z</time></trkpt><trkpt lat="43.59577" lon="11.5870183"><ele>290.66666666666663</ele><time>2026-05-02T07:51:57.955Z</time></trkpt><trkpt lat="43.5956983" lon="11.586985"><ele>291.5</ele><time>2026-05-02T07:51:58.952Z</time></trkpt><trkpt lat="43.595625" lon="11.5869567"><ele>292.3333333333333</ele><time>2026-05-02T07:51:59.953Z</time></trkpt><trkpt lat="43.59555" lon="11.5869283"><ele>293.1666666666667</ele><time>2026-05-02T07:52:00.953Z</time></trkpt><trkpt lat="43.5954817" lon="11.5868983"><ele>294.0</ele><time>2026-05-02T07:52:01.953Z</time></trkpt><trkpt lat="43.5954083" lon="11.5868517"><ele>292.42857142857144</ele><time>2026-05-02T07:52:02.953Z</time></trkpt><trkpt lat="43.59534" lon="11.5868133"><ele>290.8571428571429</ele><time>2026-05-02T07:52:03.954Z</time></trkpt><trkpt lat="43.59528" lon="11.5867833"><ele>289.2857142857143</ele><time>2026-05-02T07:52:04.953Z</time></trkpt><trkpt lat="43.5952167" lon="11.586785"><ele>287.7142857142857</ele><time>2026-05-02T07:52:05.953Z</time></trkpt><trkpt lat="43.59515" lon="11.5867933"><ele>286.14285714285717</ele><time>2026-05-02T07:52:06.953Z</time></trkpt><trkpt lat="43.595085" lon="11.586785"><ele>284.57142857142856</ele><time>2026-05-02T07:52:07.955Z</time></trkpt><trkpt lat="43.5950167" lon="11.5868167"><ele>283.0</ele><time>2026-05-02T07:52:08.953Z</time></trkpt><trkpt lat="43.594955" lon="11.5868517"><ele>283.0</ele><time>2026-05-02T07:52:09.953Z</time></trkpt><trkpt lat="43.5948967" lon="11.5869133"><ele>283.0</ele><time>2026-05-02T07:52:10.953Z</time></trkpt><trkpt lat="43.594835" lon="11.58696"><ele>283.0</ele><time>2026-05-02T07:52:11.955Z</time></trkpt><trkpt lat="43.59477" lon="11.5870117"><ele>283.0</ele><time>2026-05-02T07:52:12.951Z</time></trkpt><trkpt lat="43.5947083" lon="11.5870683"><ele>283.0</ele><time>2026-05-02T07:52:13.953Z</time></trkpt><trkpt lat="43.594655" lon="11.58714"><ele>283.0</ele><time>2026-05-02T07:52:14.953Z</time></trkpt><trkpt lat="43.5946133" lon="11.5872233"><ele>283.0</ele><time>2026-05-02T07:52:15.953Z</time></trkpt><trkpt lat="43.5945683" lon="11.5873083"><ele>282.66666666666663</ele><time>2026-05-02T07:52:16.953Z</time></trkpt><trkpt lat="43.5945367" lon="11.5874033"><ele>282.3333333333333</ele><time>2026-05-02T07:52:17.954Z</time></trkpt><trkpt lat="43.5945" lon="11.5874933"><ele>282.0</ele><time>2026-05-02T07:52:18.954Z</time></trkpt><trkpt lat="43.59447" lon="11.5875933"><ele>281.6666666666667</ele><time>2026-05-02T07:52:19.956Z</time></trkpt><trkpt lat="43.594435" lon="11.5876883"><ele>281.33333333333337</ele><time>2026-05-02T07:52:20.954Z</time></trkpt><trkpt lat="43.594415" lon="11.5877983"><ele>281.0</ele><time>2026-05-02T07:52:21.952Z</time></trkpt><trkpt lat="43.5943933" lon="11.5879017"><ele>280.83333333333337</ele><time>2026-05-02T07:52:22.954Z</time></trkpt><trkpt lat="43.594385" lon="11.5880083"><ele>280.6666666666667</ele><time>2026-05-02T07:52:23.953Z</time></trkpt><trkpt lat="43.594385" lon="11.5881117"><ele>280.5</ele><time>2026-05-02T07:52:24.953Z</time></trkpt><trkpt lat="43.5943933" lon="11.5882167"><ele>280.3333333333333</ele><time>2026-05-02T07:52:25.952Z</time></trkpt><trkpt lat="43.5944083" lon="11.5883217"><ele>280.16666666666663</ele><time>2026-05-02T07:52:26.955Z</time></trkpt><trkpt lat="43.5944317" lon="11.5884267"><ele>280.0</ele><time>2026-05-02T07:52:27.955Z</time></trkpt><trkpt lat="43.5944583" lon="11.5885333"><ele>280.0</ele><time>2026-05-02T07:52:28.954Z</time></trkpt><trkpt lat="43.5944867" lon="11.58864"><ele>280.0</ele><time>2026-05-02T07:52:29.953Z</time></trkpt><trkpt lat="43.5945133" lon="11.5887467"><ele>280.0</ele><time>2026-05-02T07:52:30.955Z</time></trkpt><trkpt lat="43.5945383" lon="11.58885"><ele>280.0</ele><time>2026-05-02T07:52:31.953Z</time></trkpt><trkpt lat="43.5945567" lon="11.5889567"><ele>280.0</ele><time>2026-05-02T07:52:32.953Z</time></trkpt><trkpt lat="43.5945667" lon="11.5890683"><ele>280.0</ele><time>2026-05-02T07:52:33.954Z</time></trkpt><trkpt lat="43.5945633" lon="11.5891817"><ele>280.16666666666663</ele><time>2026-05-02T07:52:34.954Z</time></trkpt><trkpt lat="43.594545" lon="11.58929"><ele>280.3333333333333</ele><time>2026-05-02T07:52:35.954Z</time></trkpt><trkpt lat="43.594525" lon="11.589395"><ele>280.5</ele><time>2026-05-02T07:52:36.954Z</time></trkpt><trkpt lat="43.594495" lon="11.5894933"><ele>280.6666666666667</ele><time>2026-05-02T07:52:37.953Z</time></trkpt><trkpt lat="43.5944617" lon="11.58959"><ele>280.83333333333337</ele><time>2026-05-02T07:52:38.955Z</time></trkpt><trkpt lat="43.5944283" lon="11.5896883"><ele>281.0</ele><time>2026-05-02T07:52:39.955Z</time></trkpt><trkpt lat="43.5943933" lon="11.589785"><ele>281.0</ele><time>2026-05-02T07:52:40.954Z</time></trkpt><trkpt lat="43.5943567" lon="11.5898817"><ele>281.0</ele><time>2026-05-02T07:52:41.955Z</time></trkpt><trkpt lat="43.5943183" lon="11.589975"><ele>281.0</ele><time>2026-05-02T07:52:42.953Z</time></trkpt><trkpt lat="43.594275" lon="11.59006"><ele>281.0</ele><time>2026-05-02T07:52:43.953Z</time></trkpt><trkpt lat="43.59423" lon="11.5901467"><ele>281.0</ele><time>2026-05-02T07:52:44.956Z</time></trkpt><trkpt lat="43.5941867" lon="11.5902317"><ele>281.0</ele><time>2026-05-02T07:52:45.953Z</time></trkpt><trkpt lat="43.594145" lon="11.5903233"><ele>282.0</ele><time>2026-05-02T07:52:46.953Z</time></trkpt><trkpt lat="43.594105" lon="11.590415"><ele>283.0</ele><time>2026-05-02T07:52:47.951Z</time></trkpt><trkpt lat="43.594065" lon="11.59051"><ele>284.0</ele><time>2026-05-02T07:52:48.951Z</time></trkpt><trkpt lat="43.5940283" lon="11.5905983"><ele>285.0</ele><time>2026-05-02T07:52:49.954Z</time></trkpt><trkpt lat="43.5939867" lon="11.590685"><ele>286.0</ele><time>2026-05-02T07:52:50.955Z</time></trkpt><trkpt lat="43.5939483" lon="11.5907733"><ele>287.0</ele><time>2026-05-02T07:52:51.955Z</time></trkpt><trkpt lat="43.59391" lon="11.59087"><ele>287.0</ele><time>2026-05-02T07:52:52.955Z</time></trkpt><trkpt lat="43.5938733" lon="11.5909683"><ele>287.0</ele><time>2026-05-02T07:52:53.952Z</time></trkpt><trkpt lat="43.59384" lon="11.5910733"><ele>287.0</ele><time>2026-05-02T07:52:54.953Z</time></trkpt><trkpt lat="43.5938183" lon="11.591185"><ele>287.0</ele><time>2026-05-02T07:52:55.954Z</time></trkpt><trkpt lat="43.59381" lon="11.5913033"><ele>287.0</ele><time>2026-05-02T07:52:56.954Z</time></trkpt><trkpt lat="43.5938183" lon="11.591425"><ele>287.0</ele><time>2026-05-02T07:52:57.954Z</time></trkpt><trkpt lat="43.593825" lon="11.5915467"><ele>287.33333333333337</ele><time>2026-05-02T07:52:58.952Z</time></trkpt><trkpt lat="43.5938117" lon="11.591665"><ele>287.6666666666667</ele><time>2026-05-02T07:52:59.954Z</time></trkpt><trkpt lat="43.5937683" lon="11.5917667"><ele>288.0</ele><time>2026-05-02T07:53:00.955Z</time></trkpt><trkpt lat="43.5937033" lon="11.5918283"><ele>288.3333333333333</ele><time>2026-05-02T07:53:01.952Z</time></trkpt><trkpt lat="43.5936283" lon="11.5918533"><ele>288.66666666666663</ele><time>2026-05-02T07:53:02.953Z</time></trkpt><trkpt lat="43.5935517" lon="11.5918683"><ele>289.0</ele><time>2026-05-02T07:53:03.953Z</time></trkpt><trkpt lat="43.5934783" lon="11.5918817"><ele>288.2</ele><time>2026-05-02T07:53:04.954Z</time></trkpt><trkpt lat="43.59341" lon="11.5919"><ele>287.4</ele><time>2026-05-02T07:53:05.954Z</time></trkpt><trkpt lat="43.5933467" lon="11.591925"><ele>286.6</ele><time>2026-05-02T07:53:06.955Z</time></trkpt><trkpt lat="43.59324" lon="11.5920017"><ele>285.8</ele><time>2026-05-02T07:53:08.955Z</time></trkpt><trkpt lat="43.5931717" lon="11.5921217"><ele>285.0</ele><time>2026-05-02T07:53:10.954Z</time></trkpt><trkpt lat="43.5931467" lon="11.592265"><ele>285.0</ele><time>2026-05-02T07:53:12.954Z</time></trkpt><trkpt lat="43.5931683" lon="11.5924067"><ele>285.0</ele><time>2026-05-02T07:53:14.954Z</time></trkpt><trkpt lat="43.5932067" lon="11.5925367"><ele>285.0</ele><time>2026-05-02T07:53:16.954Z</time></trkpt><trkpt lat="43.5932333" lon="11.5926733"><ele>285.0</ele><time>2026-05-02T07:53:18.952Z</time></trkpt><trkpt lat="43.5932617" lon="11.5928217"><ele>285.0</ele><time>2026-05-02T07:53:20.953Z</time></trkpt><trkpt lat="43.5932933" lon="11.592975"><ele>285.2</ele><time>2026-05-02T07:53:22.954Z</time></trkpt><trkpt lat="43.593325" lon="11.5931233"><ele>285.4</ele><time>2026-05-02T07:53:24.953Z</time></trkpt><trkpt lat="43.5933617" lon="11.5932733"><ele>285.6</ele><time>2026-05-02T07:53:26.954Z</time></trkpt><trkpt lat="43.5933983" lon="11.5934067"><ele>285.8</ele><time>2026-05-02T07:53:28.955Z</time></trkpt><trkpt lat="43.5934167" lon="11.5935433"><ele>286.0</ele><time>2026-05-02T07:53:30.955Z</time></trkpt><trkpt lat="43.59339" lon="11.5936633"><ele>287.0</ele><time>2026-05-02T07:53:32.956Z</time></trkpt><trkpt lat="43.59334" lon="11.5937633"><ele>288.0</ele><time>2026-05-02T07:53:34.956Z</time></trkpt><trkpt lat="43.59328" lon="11.5938267"><ele>289.0</ele><time>2026-05-02T07:53:36.953Z</time></trkpt><trkpt lat="43.5932183" lon="11.59389"><ele>290.0</ele><time>2026-05-02T07:53:38.955Z</time></trkpt><trkpt lat="43.5931483" lon="11.59396"><ele>291.0</ele><time>2026-05-02T07:53:40.953Z</time></trkpt><trkpt lat="43.593075" lon="11.594025"><ele>292.0</ele><time>2026-05-02T07:53:42.954Z</time></trkpt><trkpt lat="43.5930033" lon="11.5940817"><ele>292.0</ele><time>2026-05-02T07:53:44.954Z</time></trkpt><trkpt lat="43.59293" lon="11.5941467"><ele>292.0</ele><time>2026-05-02T07:53:46.953Z</time></trkpt><trkpt lat="43.5928583" lon="11.594195"><ele>292.0</ele><time>2026-05-02T07:53:48.954Z</time></trkpt><trkpt lat="43.5927867" lon="11.594245"><ele>292.0</ele><time>2026-05-02T07:53:50.953Z</time></trkpt><trkpt lat="43.5927217" lon="11.5943"><ele>292.0</ele><time>2026-05-02T07:53:52.954Z</time></trkpt><trkpt lat="43.592655" lon="11.594365"><ele>292.0</ele><time>2026-05-02T07:53:54.955Z</time></trkpt><trkpt lat="43.5925867" lon="11.5944283"><ele>292.16666666666663</ele><time>2026-05-02T07:53:56.956Z</time></trkpt><trkpt lat="43.5925183" lon="11.5944883"><ele>292.3333333333333</ele><time>2026-05-02T07:53:58.953Z</time></trkpt><trkpt lat="43.5924567" lon="11.594565"><ele>292.5</ele><time>2026-05-02T07:54:00.956Z</time></trkpt><trkpt lat="43.5923983" lon="11.5946483"><ele>292.6666666666667</ele><time>2026-05-02T07:54:02.955Z</time></trkpt><trkpt lat="43.5923483" lon="11.59475"><ele>292.83333333333337</ele><time>2026-05-02T07:54:04.953Z</time></trkpt><trkpt lat="43.59231" lon="11.5948733"><ele>293.0</ele><time>2026-05-02T07:54:06.952Z</time></trkpt><trkpt lat="43.592285" lon="11.5950067"><ele>292.8</ele><time>2026-05-02T07:54:08.954Z</time></trkpt><trkpt lat="43.5922767" lon="11.59516"><ele>292.6</ele><time>2026-05-02T07:54:10.953Z</time></trkpt><trkpt lat="43.5922883" lon="11.595315"><ele>292.4</ele><time>2026-05-02T07:54:12.953Z</time></trkpt><trkpt lat="43.59232" lon="11.595485"><ele>292.2</ele><time>2026-05-02T07:54:14.953Z</time></trkpt><trkpt lat="43.5923483" lon="11.5955633"><ele>292.0</ele><time>2026-05-02T07:54:15.953Z</time></trkpt><trkpt lat="43.5923817" lon="11.595645"><ele>292.0</ele><time>2026-05-02T07:54:16.954Z</time></trkpt><trkpt lat="43.59242" lon="11.5957217"><ele>292.0</ele><time>2026-05-02T07:54:17.956Z</time></trkpt><trkpt lat="43.5924667" lon="11.5957917"><ele>292.0</ele><time>2026-05-02T07:54:18.955Z</time></trkpt><trkpt lat="43.592515" lon="11.5958567"><ele>292.0</ele><time>2026-05-02T07:54:19.953Z</time></trkpt><trkpt lat="43.5925667" lon="11.5959117"><ele>292.0</ele><time>2026-05-02T07:54:20.954Z</time></trkpt><trkpt lat="43.5926183" lon="11.595965"><ele>292.0</ele><time>2026-05-02T07:54:21.953Z</time></trkpt><trkpt lat="43.592675" lon="11.5960133"><ele>292.0</ele><time>2026-05-02T07:54:22.953Z</time></trkpt><trkpt lat="43.5927317" lon="11.5960517"><ele>292.0</ele><time>2026-05-02T07:54:23.954Z</time></trkpt><trkpt lat="43.5927933" lon="11.5960883"><ele>292.0</ele><time>2026-05-02T07:54:24.955Z</time></trkpt><trkpt lat="43.592855" lon="11.5961267"><ele>292.0</ele><time>2026-05-02T07:54:25.956Z</time></trkpt><trkpt lat="43.592915" lon="11.5961633"><ele>292.0</ele><time>2026-05-02T07:54:26.954Z</time></trkpt><trkpt lat="43.5929733" lon="11.5961983"><ele>292.0</ele><time>2026-05-02T07:54:27.954Z</time></trkpt><trkpt lat="43.5930317" lon="11.5962367"><ele>292.0</ele><time>2026-05-02T07:54:28.953Z</time></trkpt><trkpt lat="43.593125" lon="11.5963167"><ele>292.0</ele><time>2026-05-02T07:54:30.953Z</time></trkpt><trkpt lat="43.59316" lon="11.5964467"><ele>291.25</ele><time>2026-05-02T07:54:32.955Z</time></trkpt><trkpt lat="43.5931133" lon="11.5965717"><ele>290.5</ele><time>2026-05-02T07:54:34.955Z</time></trkpt><trkpt lat="43.5930133" lon="11.5966483"><ele>289.75</ele><time>2026-05-02T07:54:36.954Z</time></trkpt><trkpt lat="43.592895" lon="11.5967067"><ele>289.0</ele><time>2026-05-02T07:54:38.955Z</time></trkpt><trkpt lat="43.59279" lon="11.596775"><ele>289.0</ele><time>2026-05-02T07:54:40.954Z</time></trkpt><trkpt lat="43.5927333" lon="11.5968167"><ele>289.0</ele><time>2026-05-02T07:54:41.954Z</time></trkpt><trkpt lat="43.5926817" lon="11.5968667"><ele>289.0</ele><time>2026-05-02T07:54:42.954Z</time></trkpt><trkpt lat="43.59263" lon="11.5969183"><ele>289.0</ele><time>2026-05-02T07:54:43.957Z</time></trkpt><trkpt lat="43.59257" lon="11.596975"><ele>289.0</ele><time>2026-05-02T07:54:44.954Z</time></trkpt><trkpt lat="43.59251" lon="11.5970333"><ele>289.0</ele><time>2026-05-02T07:54:45.956Z</time></trkpt><trkpt lat="43.59245" lon="11.59709"><ele>289.0</ele><time>2026-05-02T07:54:46.956Z</time></trkpt><trkpt lat="43.59239" lon="11.5971467"><ele>290.0</ele><time>2026-05-02T07:54:47.956Z</time></trkpt><trkpt lat="43.5923317" lon="11.5971967"><ele>291.0</ele><time>2026-05-02T07:54:48.953Z</time></trkpt><trkpt lat="43.5922733" lon="11.5972533"><ele>292.0</ele><time>2026-05-02T07:54:49.954Z</time></trkpt><trkpt lat="43.5922183" lon="11.59732"><ele>293.0</ele><time>2026-05-02T07:54:50.954Z</time></trkpt><trkpt lat="43.59217" lon="11.597395"><ele>294.0</ele><time>2026-05-02T07:54:51.955Z</time></trkpt><trkpt lat="43.5921333" lon="11.59748"><ele>295.0</ele><time>2026-05-02T07:54:52.954Z</time></trkpt><trkpt lat="43.5921033" lon="11.597575"><ele>296.0</ele><time>2026-05-02T07:54:53.952Z</time></trkpt><trkpt lat="43.5920883" lon="11.5976833"><ele>296.0</ele><time>2026-05-02T07:54:54.955Z</time></trkpt><trkpt lat="43.5920867" lon="11.5977917"><ele>296.0</ele><time>2026-05-02T07:54:55.952Z</time></trkpt><trkpt lat="43.592095" lon="11.5978983"><ele>296.0</ele><time>2026-05-02T07:54:56.954Z</time></trkpt><trkpt lat="43.5921033" lon="11.5980083"><ele>296.0</ele><time>2026-05-02T07:54:57.954Z</time></trkpt><trkpt lat="43.5921017" lon="11.5981267"><ele>296.0</ele><time>2026-05-02T07:54:58.955Z</time></trkpt><trkpt lat="43.592085" lon="11.59824"><ele>296.0</ele><time>2026-05-02T07:54:59.953Z</time></trkpt><trkpt lat="43.5920533" lon="11.5983467"><ele>296.5</ele><time>2026-05-02T07:55:00.954Z</time></trkpt><trkpt lat="43.5920133" lon="11.5984383"><ele>297.0</ele><time>2026-05-02T07:55:01.953Z</time></trkpt><trkpt lat="43.591965" lon="11.5985133"><ele>297.5</ele><time>2026-05-02T07:55:02.954Z</time></trkpt><trkpt lat="43.5919167" lon="11.598585"><ele>298.0</ele><time>2026-05-02T07:55:03.953Z</time></trkpt><trkpt lat="43.5918667" lon="11.5986533"><ele>298.5</ele><time>2026-05-02T07:55:04.953Z</time></trkpt><trkpt lat="43.59182" lon="11.5987183"><ele>299.0</ele><time>2026-05-02T07:55:05.953Z</time></trkpt><trkpt lat="43.59174" lon="11.5988533"><ele>297.8</ele><time>2026-05-02T07:55:07.955Z</time></trkpt><trkpt lat="43.5916733" lon="11.5989883"><ele>296.59999999999997</ele><time>2026-05-02T07:55:09.954Z</time></trkpt><trkpt lat="43.59163" lon="11.5991433"><ele>295.4</ele><time>2026-05-02T07:55:11.953Z</time></trkpt><trkpt lat="43.591615" lon="11.59923"><ele>294.2</ele><time>2026-05-02T07:55:12.956Z</time></trkpt><trkpt lat="43.5916033" lon="11.5993167"><ele>293.0</ele><time>2026-05-02T07:55:13.955Z</time></trkpt><trkpt lat="43.5916067" lon="11.5994933"><ele>293.0</ele><time>2026-05-02T07:55:15.955Z</time></trkpt><trkpt lat="43.5916183" lon="11.59958"><ele>293.0</ele><time>2026-05-02T07:55:16.952Z</time></trkpt><trkpt lat="43.591655" lon="11.5997433"><ele>293.0</ele><time>2026-05-02T07:55:18.952Z</time></trkpt><trkpt lat="43.59168" lon="11.5998267"><ele>293.0</ele><time>2026-05-02T07:55:19.953Z</time></trkpt><trkpt lat="43.591705" lon="11.5999083"><ele>293.0</ele><time>2026-05-02T07:55:20.954Z</time></trkpt><trkpt lat="43.5917617" lon="11.600055"><ele>293.0</ele><time>2026-05-02T07:55:22.954Z</time></trkpt><trkpt lat="43.5918167" lon="11.60021"><ele>293.0</ele><time>2026-05-02T07:55:24.952Z</time></trkpt><trkpt lat="43.5918483" lon="11.60029"><ele>293.0</ele><time>2026-05-02T07:55:25.954Z</time></trkpt><trkpt lat="43.5919117" lon="11.6004383"><ele>293.0</ele><time>2026-05-02T07:55:27.954Z</time></trkpt><trkpt lat="43.5919433" lon="11.6005217"><ele>293.0</ele><time>2026-05-02T07:55:28.955Z</time></trkpt><trkpt lat="43.5919783" lon="11.6006033"><ele>293.0</ele><time>2026-05-02T07:55:29.954Z</time></trkpt><trkpt lat="43.592015" lon="11.600685"><ele>293.0</ele><time>2026-05-02T07:55:30.956Z</time></trkpt><trkpt lat="43.5920533" lon="11.6007633"><ele>293.57142857142856</ele><time>2026-05-02T07:55:31.955Z</time></trkpt><trkpt lat="43.5920933" lon="11.6008433"><ele>294.1428571428571</ele><time>2026-05-02T07:55:32.953Z</time></trkpt><trkpt lat="43.5921367" lon="11.6009183"><ele>294.7142857142857</ele><time>2026-05-02T07:55:33.956Z</time></trkpt><trkpt lat="43.5921817" lon="11.60099"><ele>295.2857142857143</ele><time>2026-05-02T07:55:34.954Z</time></trkpt><trkpt lat="43.5922333" lon="11.601055"><ele>295.8571428571429</ele><time>2026-05-02T07:55:35.955Z</time></trkpt><trkpt lat="43.5922867" lon="11.6011167"><ele>296.42857142857144</ele><time>2026-05-02T07:55:36.955Z</time></trkpt><trkpt lat="43.5923433" lon="11.60118"><ele>297.0</ele><time>2026-05-02T07:55:37.955Z</time></trkpt><trkpt lat="43.5923983" lon="11.6012433"><ele>297.0</ele><time>2026-05-02T07:55:38.955Z</time></trkpt><trkpt lat="43.5924467" lon="11.6013067"><ele>297.0</ele><time>2026-05-02T07:55:39.955Z</time></trkpt><trkpt lat="43.592495" lon="11.6013717"><ele>297.0</ele><time>2026-05-02T07:55:40.952Z</time></trkpt><trkpt lat="43.5925817" lon="11.6014967"><ele>297.0</ele><time>2026-05-02T07:55:42.954Z</time></trkpt><trkpt lat="43.592605" lon="11.60158"><ele>297.0</ele><time>2026-05-02T07:55:43.955Z</time></trkpt><trkpt lat="43.592595" lon="11.6017383"><ele>297.0</ele><time>2026-05-02T07:55:45.954Z</time></trkpt><trkpt lat="43.5925133" lon="11.6018683"><ele>297.0</ele><time>2026-05-02T07:55:47.953Z</time></trkpt><trkpt lat="43.592455" lon="11.601915"><ele>297.0</ele><time>2026-05-02T07:55:48.953Z</time></trkpt><trkpt lat="43.5923967" lon="11.601955"><ele>297.0</ele><time>2026-05-02T07:55:49.955Z</time></trkpt><trkpt lat="43.5923383" lon="11.60199"><ele>297.0</ele><time>2026-05-02T07:55:50.954Z</time></trkpt><trkpt lat="43.5922833" lon="11.6020333"><ele>297.0</ele><time>2026-05-02T07:55:51.953Z</time></trkpt><trkpt lat="43.5921867" lon="11.6021417"><ele>297.0</ele><time>2026-05-02T07:55:53.955Z</time></trkpt><trkpt lat="43.5921017" lon="11.6022533"><ele>297.1666666666667</ele><time>2026-05-02T07:55:55.955Z</time></trkpt><trkpt lat="43.59206" lon="11.6023217"><ele>297.3333333333333</ele><time>2026-05-02T07:55:56.956Z</time></trkpt><trkpt lat="43.5920167" lon="11.6023917"><ele>297.5</ele><time>2026-05-02T07:55:57.954Z</time></trkpt><trkpt lat="43.5919817" lon="11.60247"><ele>297.66666666666663</ele><time>2026-05-02T07:55:58.954Z</time></trkpt><trkpt lat="43.5919517" lon="11.60264"><ele>297.8333333333333</ele><time>2026-05-02T07:56:00.953Z</time></trkpt><trkpt lat="43.591995" lon="11.602795"><ele>298.0</ele><time>2026-05-02T07:56:02.955Z</time></trkpt><trkpt lat="43.5920417" lon="11.6028583"><ele>298.66666666666663</ele><time>2026-05-02T07:56:03.952Z</time></trkpt><trkpt lat="43.5920917" lon="11.602925"><ele>299.3333333333333</ele><time>2026-05-02T07:56:04.953Z</time></trkpt><trkpt lat="43.5921417" lon="11.602985"><ele>300.0</ele><time>2026-05-02T07:56:05.955Z</time></trkpt><trkpt lat="43.5921883" lon="11.6030517"><ele>300.6666666666667</ele><time>2026-05-02T07:56:06.955Z</time></trkpt><trkpt lat="43.592245" lon="11.6031983"><ele>301.33333333333337</ele><time>2026-05-02T07:56:08.954Z</time></trkpt><trkpt lat="43.59225" lon="11.6032867"><ele>302.0</ele><time>2026-05-02T07:56:09.954Z</time></trkpt><trkpt lat="43.592235" lon="11.6033783"><ele>302.00000000000006</ele><time>2026-05-02T07:56:10.954Z</time></trkpt><trkpt lat="43.5922067" lon="11.6034667"><ele>302.0</ele><time>2026-05-02T07:56:11.954Z</time></trkpt><trkpt lat="43.592175" lon="11.6035483"><ele>302.0</ele><time>2026-05-02T07:56:12.954Z</time></trkpt><trkpt lat="43.5921433" lon="11.60363"><ele>302.0</ele><time>2026-05-02T07:56:13.956Z</time></trkpt><trkpt lat="43.5921067" lon="11.6037117"><ele>302.0</ele><time>2026-05-02T07:56:14.956Z</time></trkpt><trkpt lat="43.592065" lon="11.6037917"><ele>302.00000000000006</ele><time>2026-05-02T07:56:15.955Z</time></trkpt><trkpt lat="43.5920217" lon="11.6038667"><ele>302.0</ele><time>2026-05-02T07:56:16.953Z</time></trkpt><trkpt lat="43.5919767" lon="11.6039417"><ele>301.14285714285717</ele><time>2026-05-02T07:56:17.955Z</time></trkpt><trkpt lat="43.5919267" lon="11.60401"><ele>300.2857142857143</ele><time>2026-05-02T07:56:18.956Z</time></trkpt><trkpt lat="43.591875" lon="11.604075"><ele>299.42857142857144</ele><time>2026-05-02T07:56:19.954Z</time></trkpt><trkpt lat="43.5918233" lon="11.6041317"><ele>298.57142857142856</ele><time>2026-05-02T07:56:20.954Z</time></trkpt><trkpt lat="43.59177" lon="11.6041933"><ele>297.7142857142857</ele><time>2026-05-02T07:56:21.954Z</time></trkpt><trkpt lat="43.591715" lon="11.60425"><ele>296.8571428571429</ele><time>2026-05-02T07:56:22.953Z</time></trkpt><trkpt lat="43.5916583" lon="11.60431"><ele>296.0</ele><time>2026-05-02T07:56:23.954Z</time></trkpt><trkpt lat="43.5916033" lon="11.6043733"><ele>296.0</ele><time>2026-05-02T07:56:24.956Z</time></trkpt><trkpt lat="43.5915467" lon="11.6044367"><ele>296.0</ele><time>2026-05-02T07:56:25.954Z</time></trkpt><trkpt lat="43.5914883" lon="11.6044967"><ele>296.0</ele><time>2026-05-02T07:56:26.955Z</time></trkpt><trkpt lat="43.59143" lon="11.6045567"><ele>296.0</ele><time>2026-05-02T07:56:27.954Z</time></trkpt><trkpt lat="43.5913717" lon="11.60461"><ele>296.0</ele><time>2026-05-02T07:56:28.954Z</time></trkpt><trkpt lat="43.5913133" lon="11.6046633"><ele>296.0</ele><time>2026-05-02T07:56:29.955Z</time></trkpt><trkpt lat="43.59126" lon="11.6047233"><ele>296.0</ele><time>2026-05-02T07:56:30.953Z</time></trkpt><trkpt lat="43.5912067" lon="11.6047817"><ele>295.33333333333337</ele><time>2026-05-02T07:56:31.956Z</time></trkpt><trkpt lat="43.5911633" lon="11.604845"><ele>294.6666666666667</ele><time>2026-05-02T07:56:32.954Z</time></trkpt><trkpt lat="43.59113" lon="11.6049267"><ele>294.0</ele><time>2026-05-02T07:56:33.952Z</time></trkpt><trkpt lat="43.5911083" lon="11.6050283"><ele>293.3333333333333</ele><time>2026-05-02T07:56:34.953Z</time></trkpt><trkpt lat="43.5910967" lon="11.6051367"><ele>292.66666666666663</ele><time>2026-05-02T07:56:35.953Z</time></trkpt><trkpt lat="43.59109" lon="11.605255"><ele>292.0</ele><time>2026-05-02T07:56:36.951Z</time></trkpt><trkpt lat="43.59108" lon="11.605375"><ele>292.0</ele><time>2026-05-02T07:56:37.953Z</time></trkpt><trkpt lat="43.5910667" lon="11.60549"><ele>292.0</ele><time>2026-05-02T07:56:38.954Z</time></trkpt><trkpt lat="43.5910567" lon="11.6056083"><ele>292.0</ele><time>2026-05-02T07:56:39.956Z</time></trkpt><trkpt lat="43.5910417" lon="11.60573"><ele>292.0</ele><time>2026-05-02T07:56:40.952Z</time></trkpt><trkpt lat="43.5910283" lon="11.6058517"><ele>292.0</ele><time>2026-05-02T07:56:41.955Z</time></trkpt><trkpt lat="43.5910233" lon="11.6059717"><ele>292.0</ele><time>2026-05-02T07:56:42.954Z</time></trkpt><trkpt lat="43.5910233" lon="11.6060917"><ele>292.3333333333333</ele><time>2026-05-02T07:56:43.952Z</time></trkpt><trkpt lat="43.5910333" lon="11.6061983"><ele>292.66666666666663</ele><time>2026-05-02T07:56:44.953Z</time></trkpt><trkpt lat="43.5910533" lon="11.6063033"><ele>293.0</ele><time>2026-05-02T07:56:45.955Z</time></trkpt><trkpt lat="43.591085" lon="11.606405"><ele>293.3333333333333</ele><time>2026-05-02T07:56:46.952Z</time></trkpt><trkpt lat="43.5911217" lon="11.6064983"><ele>293.6666666666667</ele><time>2026-05-02T07:56:47.955Z</time></trkpt><trkpt lat="43.5911567" lon="11.6066033"><ele>294.0</ele><time>2026-05-02T07:56:48.952Z</time></trkpt><trkpt lat="43.5911767" lon="11.60671"><ele>294.0</ele><time>2026-05-02T07:56:49.954Z</time></trkpt><trkpt lat="43.5911667" lon="11.606815"><ele>294.0</ele><time>2026-05-02T07:56:50.952Z</time></trkpt><trkpt lat="43.5911317" lon="11.6068933"><ele>294.0</ele><time>2026-05-02T07:56:51.953Z</time></trkpt><trkpt lat="43.5910717" lon="11.6069433"><ele>294.0</ele><time>2026-05-02T07:56:52.952Z</time></trkpt><trkpt lat="43.59101" lon="11.6069733"><ele>294.0</ele><time>2026-05-02T07:56:53.952Z</time></trkpt><trkpt lat="43.5909433" lon="11.606975"><ele>294.0</ele><time>2026-05-02T07:56:54.954Z</time></trkpt><trkpt lat="43.59088" lon="11.6069467"><ele>294.0</ele><time>2026-05-02T07:56:55.953Z</time></trkpt><trkpt lat="43.5908217" lon="11.6069"><ele>294.0</ele><time>2026-05-02T07:56:56.955Z</time></trkpt><trkpt lat="43.59072" lon="11.606795"><ele>294.0</ele><time>2026-05-02T07:56:58.953Z</time></trkpt><trkpt lat="43.5906717" lon="11.6067333"><ele>294.0</ele><time>2026-05-02T07:56:59.955Z</time></trkpt><trkpt lat="43.5906283" lon="11.6066683"><ele>294.0</ele><time>2026-05-02T07:57:00.957Z</time></trkpt><trkpt lat="43.590545" lon="11.606545"><ele>294.0</ele><time>2026-05-02T07:57:02.953Z</time></trkpt><trkpt lat="43.5904633" lon="11.6064233"><ele>294.0</ele><time>2026-05-02T07:57:04.952Z</time></trkpt><trkpt lat="43.5903833" lon="11.6063367"><ele>294.0</ele><time>2026-05-02T07:57:06.953Z</time></trkpt><trkpt lat="43.5902833" lon="11.6062883"><ele>294.0</ele><time>2026-05-02T07:57:08.953Z</time></trkpt><trkpt lat="43.5901667" lon="11.6062783"><ele>294.0</ele><time>2026-05-02T07:57:10.953Z</time></trkpt><trkpt lat="43.5900483" lon="11.6063233"><ele>294.0</ele><time>2026-05-02T07:57:12.952Z</time></trkpt><trkpt lat="43.5899833" lon="11.6063483"><ele>294.4</ele><time>2026-05-02T07:57:13.954Z</time></trkpt><trkpt lat="43.5899233" lon="11.606375"><ele>294.79999999999995</ele><time>2026-05-02T07:57:14.952Z</time></trkpt><trkpt lat="43.589805" lon="11.6064233"><ele>295.20000000000005</ele><time>2026-05-02T07:57:16.951Z</time></trkpt><trkpt lat="43.5896833" lon="11.60648"><ele>295.6</ele><time>2026-05-02T07:57:18.952Z</time></trkpt><trkpt lat="43.58962" lon="11.6065133"><ele>296.0</ele><time>2026-05-02T07:57:19.952Z</time></trkpt><trkpt lat="43.58956" lon="11.6065567"><ele>295.7142857142857</ele><time>2026-05-02T07:57:20.951Z</time></trkpt><trkpt lat="43.5895033" lon="11.6066133"><ele>295.42857142857144</ele><time>2026-05-02T07:57:21.951Z</time></trkpt><trkpt lat="43.5894517" lon="11.60668"><ele>295.1428571428571</ele><time>2026-05-02T07:57:22.952Z</time></trkpt><trkpt lat="43.589405" lon="11.6067533"><ele>294.8571428571429</ele><time>2026-05-02T07:57:23.952Z</time></trkpt><trkpt lat="43.58936" lon="11.60683"><ele>294.57142857142856</ele><time>2026-05-02T07:57:24.951Z</time></trkpt><trkpt lat="43.589315" lon="11.6069117"><ele>294.2857142857143</ele><time>2026-05-02T07:57:25.953Z</time></trkpt><trkpt lat="43.5892717" lon="11.6069933"><ele>294.0</ele><time>2026-05-02T07:57:26.954Z</time></trkpt><trkpt lat="43.589225" lon="11.6070817"><ele>294.0</ele><time>2026-05-02T07:57:27.954Z</time></trkpt><trkpt lat="43.5891783" lon="11.60717"><ele>294.0</ele><time>2026-05-02T07:57:28.952Z</time></trkpt><trkpt lat="43.5891283" lon="11.6072633"><ele>294.0</ele><time>2026-05-02T07:57:29.951Z</time></trkpt><trkpt lat="43.5890767" lon="11.6073567"><ele>294.0</ele><time>2026-05-02T07:57:30.951Z</time></trkpt><trkpt lat="43.589025" lon="11.6074533"><ele>294.0</ele><time>2026-05-02T07:57:31.952Z</time></trkpt><trkpt lat="43.5889717" lon="11.6075517"><ele>294.0</ele><time>2026-05-02T07:57:32.954Z</time></trkpt><trkpt lat="43.58892" lon="11.6076533"><ele>294.0</ele><time>2026-05-02T07:57:33.955Z</time></trkpt><trkpt lat="43.58887" lon="11.60775"><ele>294.0</ele><time>2026-05-02T07:57:34.952Z</time></trkpt><trkpt lat="43.5888183" lon="11.6078517"><ele>294.0</ele><time>2026-05-02T07:57:35.954Z</time></trkpt><trkpt lat="43.5887683" lon="11.6079517"><ele>294.0</ele><time>2026-05-02T07:57:36.951Z</time></trkpt><trkpt lat="43.58873" lon="11.608065"><ele>294.0</ele><time>2026-05-02T07:57:37.952Z</time></trkpt><trkpt lat="43.58871" lon="11.608185"><ele>294.0</ele><time>2026-05-02T07:57:38.952Z</time></trkpt><trkpt lat="43.5887117" lon="11.60831"><ele>293.8</ele><time>2026-05-02T07:57:39.952Z</time></trkpt><trkpt lat="43.58873" lon="11.6084367"><ele>293.59999999999997</ele><time>2026-05-02T07:57:40.951Z</time></trkpt><trkpt lat="43.5887517" lon="11.608565"><ele>293.4</ele><time>2026-05-02T07:57:41.952Z</time></trkpt><trkpt lat="43.588775" lon="11.6086967"><ele>293.2</ele><time>2026-05-02T07:57:42.954Z</time></trkpt><trkpt lat="43.58879" lon="11.6088367"><ele>293.0</ele><time>2026-05-02T07:57:43.951Z</time></trkpt><trkpt lat="43.58879" lon="11.6089733"><ele>292.8</ele><time>2026-05-02T07:57:44.951Z</time></trkpt><trkpt lat="43.588775" lon="11.6091117"><ele>292.6</ele><time>2026-05-02T07:57:45.951Z</time></trkpt><trkpt lat="43.5887567" lon="11.6092467"><ele>292.4</ele><time>2026-05-02T07:57:46.952Z</time></trkpt><trkpt lat="43.5887367" lon="11.609385"><ele>292.2</ele><time>2026-05-02T07:57:47.952Z</time></trkpt><trkpt lat="43.5887083" lon="11.6095133"><ele>292.0</ele><time>2026-05-02T07:57:48.953Z</time></trkpt><trkpt lat="43.58866" lon="11.6096317"><ele>291.4</ele><time>2026-05-02T07:57:49.952Z</time></trkpt><trkpt lat="43.5885967" lon="11.6097333"><ele>290.79999999999995</ele><time>2026-05-02T07:57:50.952Z</time></trkpt><trkpt lat="43.5885167" lon="11.609815"><ele>290.2</ele><time>2026-05-02T07:57:51.953Z</time></trkpt><trkpt lat="43.58843" lon="11.6098733"><ele>289.59999999999997</ele><time>2026-05-02T07:57:52.954Z</time></trkpt><trkpt lat="43.588345" lon="11.6099233"><ele>289.0</ele><time>2026-05-02T07:57:53.955Z</time></trkpt><trkpt lat="43.5882617" lon="11.6099617"><ele>289.0</ele><time>2026-05-02T07:57:54.953Z</time></trkpt><trkpt lat="43.588185" lon="11.6100033"><ele>289.0</ele><time>2026-05-02T07:57:55.952Z</time></trkpt><trkpt lat="43.5881167" lon="11.61005"><ele>289.0</ele><time>2026-05-02T07:57:56.953Z</time></trkpt><trkpt lat="43.5880517" lon="11.6100967"><ele>289.0</ele><time>2026-05-02T07:57:57.952Z</time></trkpt><trkpt lat="43.5879883" lon="11.6101367"><ele>289.0</ele><time>2026-05-02T07:57:58.952Z</time></trkpt><trkpt lat="43.5879283" lon="11.6101817"><ele>289.0</ele><time>2026-05-02T07:57:59.952Z</time></trkpt><trkpt lat="43.5878733" lon="11.6102367"><ele>289.0</ele><time>2026-05-02T07:58:00.953Z</time></trkpt><trkpt lat="43.5878267" lon="11.6103"><ele>288.8571428571429</ele><time>2026-05-02T07:58:01.952Z</time></trkpt><trkpt lat="43.58779" lon="11.6103717"><ele>288.7142857142857</ele><time>2026-05-02T07:58:02.954Z</time></trkpt><trkpt lat="43.5877567" lon="11.6104483"><ele>288.57142857142856</ele><time>2026-05-02T07:58:03.953Z</time></trkpt><trkpt lat="43.587725" lon="11.6105317"><ele>288.42857142857144</ele><time>2026-05-02T07:58:04.953Z</time></trkpt><trkpt lat="43.587705" lon="11.61062"><ele>288.2857142857143</ele><time>2026-05-02T07:58:05.952Z</time></trkpt><trkpt lat="43.5876967" lon="11.61071"><ele>288.14285714285717</ele><time>2026-05-02T07:58:06.952Z</time></trkpt><trkpt lat="43.5877" lon="11.6108083"><ele>288.0</ele><time>2026-05-02T07:58:07.954Z</time></trkpt><trkpt lat="43.5877183" lon="11.6109017"><ele>288.0</ele><time>2026-05-02T07:58:08.952Z</time></trkpt><trkpt lat="43.5877517" lon="11.6109917"><ele>288.0</ele><time>2026-05-02T07:58:09.953Z</time></trkpt><trkpt lat="43.5877983" lon="11.611075"><ele>288.0</ele><time>2026-05-02T07:58:10.953Z</time></trkpt><trkpt lat="43.587855" lon="11.6111367"><ele>288.0</ele><time>2026-05-02T07:58:11.955Z</time></trkpt><trkpt lat="43.58792" lon="11.61119"><ele>288.0</ele><time>2026-05-02T07:58:12.953Z</time></trkpt><trkpt lat="43.5879867" lon="11.6112467"><ele>288.0</ele><time>2026-05-02T07:58:13.953Z</time></trkpt><trkpt lat="43.5880583" lon="11.6113033"><ele>287.5</ele><time>2026-05-02T07:58:14.952Z</time></trkpt><trkpt lat="43.58813" lon="11.61136"><ele>287.0</ele><time>2026-05-02T07:58:15.951Z</time></trkpt><trkpt lat="43.5882083" lon="11.61141"><ele>286.5</ele><time>2026-05-02T07:58:16.952Z</time></trkpt><trkpt lat="43.588285" lon="11.611455"><ele>286.0</ele><time>2026-05-02T07:58:17.951Z</time></trkpt><trkpt lat="43.5883683" lon="11.6114967"><ele>285.5</ele><time>2026-05-02T07:58:18.953Z</time></trkpt><trkpt lat="43.588455" lon="11.6115367"><ele>285.0</ele><time>2026-05-02T07:58:19.954Z</time></trkpt><trkpt lat="43.5885433" lon="11.611575"><ele>285.0</ele><time>2026-05-02T07:58:20.952Z</time></trkpt><trkpt lat="43.5886333" lon="11.61162"><ele>285.0</ele><time>2026-05-02T07:58:21.952Z</time></trkpt><trkpt lat="43.588725" lon="11.61167"><ele>285.0</ele><time>2026-05-02T07:58:22.952Z</time></trkpt><trkpt lat="43.58881" lon="11.6117317"><ele>285.0</ele><time>2026-05-02T07:58:23.954Z</time></trkpt><trkpt lat="43.58889" lon="11.611805"><ele>285.0</ele><time>2026-05-02T07:58:24.953Z</time></trkpt><trkpt lat="43.5889583" lon="11.6118917"><ele>285.4</ele><time>2026-05-02T07:58:25.953Z</time></trkpt><trkpt lat="43.5890233" lon="11.611985"><ele>285.8</ele><time>2026-05-02T07:58:26.954Z</time></trkpt><trkpt lat="43.589085" lon="11.6120883"><ele>286.2</ele><time>2026-05-02T07:58:27.953Z</time></trkpt><trkpt lat="43.5891383" lon="11.612195"><ele>286.6</ele><time>2026-05-02T07:58:28.951Z</time></trkpt><trkpt lat="43.58918" lon="11.6123083"><ele>287.0</ele><time>2026-05-02T07:58:29.952Z</time></trkpt><trkpt lat="43.5891983" lon="11.6124217"><ele>287.0</ele><time>2026-05-02T07:58:30.952Z</time></trkpt><trkpt lat="43.5891883" lon="11.6125283"><ele>287.0</ele><time>2026-05-02T07:58:31.952Z</time></trkpt><trkpt lat="43.5891567" lon="11.6126283"><ele>287.0</ele><time>2026-05-02T07:58:32.953Z</time></trkpt><trkpt lat="43.589105" lon="11.612695"><ele>287.0</ele><time>2026-05-02T07:58:33.953Z</time></trkpt><trkpt lat="43.5890433" lon="11.612735"><ele>287.0</ele><time>2026-05-02T07:58:34.952Z</time></trkpt><trkpt lat="43.58898" lon="11.6127583"><ele>287.0</ele><time>2026-05-02T07:58:35.953Z</time></trkpt><trkpt lat="43.5889167" lon="11.61276"><ele>287.0</ele><time>2026-05-02T07:58:36.953Z</time></trkpt><trkpt lat="43.58881" lon="11.6127683"><ele>287.0</ele><time>2026-05-02T07:58:38.953Z</time></trkpt><trkpt lat="43.5887117" lon="11.6127733"><ele>287.0</ele><time>2026-05-02T07:58:40.952Z</time></trkpt><trkpt lat="43.5886183" lon="11.6127867"><ele>287.0</ele><time>2026-05-02T07:58:42.952Z</time></trkpt><trkpt lat="43.588525" lon="11.6128"><ele>287.0</ele><time>2026-05-02T07:58:44.953Z</time></trkpt><trkpt lat="43.5884417" lon="11.6128133"><ele>287.0</ele><time>2026-05-02T07:58:46.953Z</time></trkpt><trkpt lat="43.5883717" lon="11.6128417"><ele>287.0</ele><time>2026-05-02T07:58:48.953Z</time></trkpt><trkpt lat="43.58829" lon="11.6128867"><ele>288.0</ele><time>2026-05-02T07:58:50.955Z</time></trkpt><trkpt lat="43.58823" lon="11.6129583"><ele>289.0</ele><time>2026-05-02T07:58:52.952Z</time></trkpt><trkpt lat="43.5881733" lon="11.6130483"><ele>290.0</ele><time>2026-05-02T07:58:54.955Z</time></trkpt><trkpt lat="43.588125" lon="11.6131467"><ele>291.0</ele><time>2026-05-02T07:58:56.952Z</time></trkpt><trkpt lat="43.5880867" lon="11.6132583"><ele>292.0</ele><time>2026-05-02T07:58:58.953Z</time></trkpt><trkpt lat="43.5880417" lon="11.6133783"><ele>293.0</ele><time>2026-05-02T07:59:00.953Z</time></trkpt><trkpt lat="43.588" lon="11.61349"><ele>293.0</ele><time>2026-05-02T07:59:02.953Z</time></trkpt><trkpt lat="43.5879567" lon="11.6135967"><ele>293.0</ele><time>2026-05-02T07:59:04.951Z</time></trkpt><trkpt lat="43.5879133" lon="11.6137083"><ele>293.0</ele><time>2026-05-02T07:59:06.952Z</time></trkpt><trkpt lat="43.58788" lon="11.613815"><ele>293.0</ele><time>2026-05-02T07:59:08.953Z</time></trkpt><trkpt lat="43.5878467" lon="11.6139267"><ele>293.0</ele><time>2026-05-02T07:59:10.952Z</time></trkpt><trkpt lat="43.5878117" lon="11.6140367"><ele>293.0</ele><time>2026-05-02T07:59:12.952Z</time></trkpt><trkpt lat="43.5877917" lon="11.6141483"><ele>293.5</ele><time>2026-05-02T07:59:14.954Z</time></trkpt><trkpt lat="43.5877733" lon="11.6142617"><ele>294.0</ele><time>2026-05-02T07:59:16.952Z</time></trkpt><trkpt lat="43.5877667" lon="11.6143683"><ele>294.5</ele><time>2026-05-02T07:59:18.954Z</time></trkpt><trkpt lat="43.5877667" lon="11.61449"><ele>295.0</ele><time>2026-05-02T07:59:20.954Z</time></trkpt><trkpt lat="43.5877633" lon="11.6146167"><ele>295.5</ele><time>2026-05-02T07:59:22.953Z</time></trkpt><trkpt lat="43.5877617" lon="11.61475"><ele>296.0</ele><time>2026-05-02T07:59:24.952Z</time></trkpt><trkpt lat="43.58776" lon="11.6148867"><ele>296.0</ele><time>2026-05-02T07:59:26.951Z</time></trkpt><trkpt lat="43.5877567" lon="11.61503"><ele>296.0</ele><time>2026-05-02T07:59:28.951Z</time></trkpt><trkpt lat="43.5877483" lon="11.6151717"><ele>296.0</ele><time>2026-05-02T07:59:30.954Z</time></trkpt><trkpt lat="43.587745" lon="11.6153183"><ele>296.0</ele><time>2026-05-02T07:59:32.954Z</time></trkpt><trkpt lat="43.5877383" lon="11.6154683"><ele>296.0</ele><time>2026-05-02T07:59:34.951Z</time></trkpt><trkpt lat="43.5877367" lon="11.6156083"><ele>296.0</ele><time>2026-05-02T07:59:36.951Z</time></trkpt><trkpt lat="43.58774" lon="11.6157517"><ele>296.0</ele><time>2026-05-02T07:59:38.955Z</time></trkpt><trkpt lat="43.58774" lon="11.6158967"><ele>296.0</ele><time>2026-05-02T07:59:40.952Z</time></trkpt><trkpt lat="43.5877417" lon="11.6160367"><ele>296.0</ele><time>2026-05-02T07:59:42.953Z</time></trkpt><trkpt lat="43.5877583" lon="11.6161683"><ele>296.0</ele><time>2026-05-02T07:59:44.951Z</time></trkpt><trkpt lat="43.5877917" lon="11.6163167"><ele>296.0</ele><time>2026-05-02T07:59:46.952Z</time></trkpt><trkpt lat="43.58783" lon="11.6164633"><ele>296.0</ele><time>2026-05-02T07:59:48.953Z</time></trkpt><trkpt lat="43.587865" lon="11.61661"><ele>296.0</ele><time>2026-05-02T07:59:50.952Z</time></trkpt><trkpt lat="43.5879017" lon="11.6167617"><ele>296.0</ele><time>2026-05-02T07:59:52.952Z</time></trkpt><trkpt lat="43.5879383" lon="11.6169233"><ele>298.0</ele><time>2026-05-02T07:59:54.953Z</time></trkpt><trkpt lat="43.5879717" lon="11.6170717"><ele>300.0</ele><time>2026-05-02T07:59:56.952Z</time></trkpt><trkpt lat="43.5879983" lon="11.617225"><ele>302.0</ele><time>2026-05-02T07:59:58.955Z</time></trkpt><trkpt lat="43.58803" lon="11.6173717"><ele>304.0</ele><time>2026-05-02T08:00:00.952Z</time></trkpt><trkpt lat="43.5880617" lon="11.6175167"><ele>306.0</ele><time>2026-05-02T08:00:02.953Z</time></trkpt><trkpt lat="43.5880767" lon="11.617645"><ele>306.0</ele><time>2026-05-02T08:00:04.953Z</time></trkpt><trkpt lat="43.58808" lon="11.6177783"><ele>306.0</ele><time>2026-05-02T08:00:06.952Z</time></trkpt><trkpt lat="43.588075" lon="11.6179067"><ele>306.0</ele><time>2026-05-02T08:00:08.953Z</time></trkpt><trkpt lat="43.5880617" lon="11.61803"><ele>306.0</ele><time>2026-05-02T08:00:10.953Z</time></trkpt><trkpt lat="43.58803" lon="11.61815"><ele>306.0</ele><time>2026-05-02T08:00:12.953Z</time></trkpt><trkpt lat="43.5879983" lon="11.6182633"><ele>306.40000000000003</ele><time>2026-05-02T08:00:14.953Z</time></trkpt><trkpt lat="43.5879567" lon="11.618365"><ele>306.8</ele><time>2026-05-02T08:00:16.953Z</time></trkpt><trkpt lat="43.5878983" lon="11.6184767"><ele>307.20000000000005</ele><time>2026-05-02T08:00:18.954Z</time></trkpt><trkpt lat="43.587835" lon="11.6186133"><ele>307.6</ele><time>2026-05-02T08:00:20.952Z</time></trkpt><trkpt lat="43.5877667" lon="11.6187333"><ele>308.0</ele><time>2026-05-02T08:00:22.954Z</time></trkpt><trkpt lat="43.5877017" lon="11.6188533"><ele>308.0</ele><time>2026-05-02T08:00:24.952Z</time></trkpt><trkpt lat="43.5876383" lon="11.6189667"><ele>308.0</ele><time>2026-05-02T08:00:26.952Z</time></trkpt><trkpt lat="43.5875817" lon="11.6190817"><ele>308.0</ele><time>2026-05-02T08:00:28.954Z</time></trkpt><trkpt lat="43.587545" lon="11.619215"><ele>308.0</ele><time>2026-05-02T08:00:30.952Z</time></trkpt><trkpt lat="43.5875267" lon="11.6193633"><ele>308.0</ele><time>2026-05-02T08:00:32.953Z</time></trkpt><trkpt lat="43.5875267" lon="11.619515"><ele>308.4</ele><time>2026-05-02T08:00:34.952Z</time></trkpt><trkpt lat="43.58753" lon="11.6196683"><ele>308.8</ele><time>2026-05-02T08:00:36.952Z</time></trkpt><trkpt lat="43.5875317" lon="11.6198133"><ele>309.2</ele><time>2026-05-02T08:00:38.954Z</time></trkpt><trkpt lat="43.587525" lon="11.619965"><ele>309.6</ele><time>2026-05-02T08:00:40.953Z</time></trkpt><trkpt lat="43.587515" lon="11.6201217"><ele>310.0</ele><time>2026-05-02T08:00:42.952Z</time></trkpt><trkpt lat="43.5874833" lon="11.6202617"><ele>310.2</ele><time>2026-05-02T08:00:44.953Z</time></trkpt><trkpt lat="43.5874433" lon="11.6203983"><ele>310.4</ele><time>2026-05-02T08:00:46.953Z</time></trkpt><trkpt lat="43.5874" lon="11.620535"><ele>310.6</ele><time>2026-05-02T08:00:48.954Z</time></trkpt><trkpt lat="43.58736" lon="11.620685"><ele>310.8</ele><time>2026-05-02T08:00:50.955Z</time></trkpt><trkpt lat="43.5873367" lon="11.6207683"><ele>311.0</ele><time>2026-05-02T08:00:51.956Z</time></trkpt><trkpt lat="43.5872933" lon="11.6209233"><ele>311.0</ele><time>2026-05-02T08:00:53.954Z</time></trkpt><trkpt lat="43.5872517" lon="11.6210817"><ele>311.0</ele><time>2026-05-02T08:00:55.953Z</time></trkpt><trkpt lat="43.5872133" lon="11.6212467"><ele>311.0</ele><time>2026-05-02T08:00:57.955Z</time></trkpt><trkpt lat="43.587195" lon="11.62133"><ele>311.0</ele><time>2026-05-02T08:00:58.953Z</time></trkpt><trkpt lat="43.5871817" lon="11.621415"><ele>311.0</ele><time>2026-05-02T08:00:59.955Z</time></trkpt><trkpt lat="43.5871617" lon="11.62158"><ele>311.0</ele><time>2026-05-02T08:01:01.955Z</time></trkpt><trkpt lat="43.5871467" lon="11.6217433"><ele>311.0</ele><time>2026-05-02T08:01:03.957Z</time></trkpt><trkpt lat="43.5871367" lon="11.6219167"><ele>311.0</ele><time>2026-05-02T08:01:05.955Z</time></trkpt><trkpt lat="43.58713" lon="11.6220933"><ele>311.0</ele><time>2026-05-02T08:01:07.952Z</time></trkpt><trkpt lat="43.5871217" lon="11.6221867"><ele>311.0</ele><time>2026-05-02T08:01:08.954Z</time></trkpt><trkpt lat="43.5871067" lon="11.6222767"><ele>311.0</ele><time>2026-05-02T08:01:09.954Z</time></trkpt><trkpt lat="43.58708" lon="11.622365"><ele>311.0</ele><time>2026-05-02T08:01:10.955Z</time></trkpt><trkpt lat="43.5870433" lon="11.62244"><ele>311.0</ele><time>2026-05-02T08:01:11.954Z</time></trkpt><trkpt lat="43.5870033" lon="11.6225183"><ele>311.0</ele><time>2026-05-02T08:01:12.954Z</time></trkpt><trkpt lat="43.58698" lon="11.6226067"><ele>311.0</ele><time>2026-05-02T08:01:13.952Z</time></trkpt><trkpt lat="43.5869817" lon="11.6227067"><ele>311.0</ele><time>2026-05-02T08:01:14.952Z</time></trkpt><trkpt lat="43.587015" lon="11.6227933"><ele>311.0</ele><time>2026-05-02T08:01:15.952Z</time></trkpt><trkpt lat="43.5870617" lon="11.6228633"><ele>311.0</ele><time>2026-05-02T08:01:16.953Z</time></trkpt><trkpt lat="43.5871133" lon="11.6229233"><ele>311.0</ele><time>2026-05-02T08:01:17.954Z</time></trkpt><trkpt lat="43.587155" lon="11.6229917"><ele>311.0</ele><time>2026-05-02T08:01:18.954Z</time></trkpt><trkpt lat="43.5871867" lon="11.6230717"><ele>311.0</ele><time>2026-05-02T08:01:19.952Z</time></trkpt><trkpt lat="43.5872117" lon="11.6231517"><ele>311.0</ele><time>2026-05-02T08:01:20.953Z</time></trkpt><trkpt lat="43.5872583" lon="11.6233117"><ele>311.0</ele><time>2026-05-02T08:01:22.953Z</time></trkpt><trkpt lat="43.5872833" lon="11.6233933"><ele>311.0</ele><time>2026-05-02T08:01:23.952Z</time></trkpt><trkpt lat="43.58731" lon="11.623475"><ele>311.0</ele><time>2026-05-02T08:01:24.953Z</time></trkpt><trkpt lat="43.5873367" lon="11.6235567"><ele>311.0</ele><time>2026-05-02T08:01:25.955Z</time></trkpt><trkpt lat="43.5873767" lon="11.62372"><ele>311.0</ele><time>2026-05-02T08:01:27.952Z</time></trkpt><trkpt lat="43.5873917" lon="11.623805"><ele>311.0</ele><time>2026-05-02T08:01:28.952Z</time></trkpt><trkpt lat="43.587405" lon="11.6238917"><ele>311.0</ele><time>2026-05-02T08:01:29.955Z</time></trkpt><trkpt lat="43.5874183" lon="11.6239783"><ele>311.0</ele><time>2026-05-02T08:01:30.956Z</time></trkpt><trkpt lat="43.58743" lon="11.6240667"><ele>311.1666666666667</ele><time>2026-05-02T08:01:31.953Z</time></trkpt><trkpt lat="43.5874433" lon="11.6241583"><ele>311.33333333333337</ele><time>2026-05-02T08:01:32.953Z</time></trkpt><trkpt lat="43.5874533" lon="11.6242483"><ele>311.5</ele><time>2026-05-02T08:01:33.952Z</time></trkpt><trkpt lat="43.5874767" lon="11.6244167"><ele>311.6666666666667</ele><time>2026-05-02T08:01:35.952Z</time></trkpt><trkpt lat="43.5875017" lon="11.6245817"><ele>311.8333333333333</ele><time>2026-05-02T08:01:37.952Z</time></trkpt><trkpt lat="43.5875167" lon="11.6246717"><ele>312.0</ele><time>2026-05-02T08:01:38.953Z</time></trkpt><trkpt lat="43.5875367" lon="11.6247567"><ele>312.0</ele><time>2026-05-02T08:01:39.955Z</time></trkpt><trkpt lat="43.58756" lon="11.62484"><ele>312.0</ele><time>2026-05-02T08:01:40.953Z</time></trkpt><trkpt lat="43.5875867" lon="11.62492"><ele>312.0</ele><time>2026-05-02T08:01:41.953Z</time></trkpt><trkpt lat="43.587645" lon="11.6250717"><ele>312.0</ele><time>2026-05-02T08:01:43.952Z</time></trkpt><trkpt lat="43.5877117" lon="11.6252033"><ele>312.0</ele><time>2026-05-02T08:01:45.952Z</time></trkpt><trkpt lat="43.5877833" lon="11.6253267"><ele>313.75</ele><time>2026-05-02T08:01:47.954Z</time></trkpt><trkpt lat="43.5878533" lon="11.625455"><ele>315.5</ele><time>2026-05-02T08:01:49.954Z</time></trkpt><trkpt lat="43.5879217" lon="11.62558"><ele>317.25</ele><time>2026-05-02T08:01:51.952Z</time></trkpt><trkpt lat="43.58799" lon="11.6257067"><ele>319.0</ele><time>2026-05-02T08:01:53.952Z</time></trkpt><trkpt lat="43.5880617" lon="11.625835"><ele>319.0</ele><time>2026-05-02T08:01:55.952Z</time></trkpt><trkpt lat="43.5881217" lon="11.6259683"><ele>319.0</ele><time>2026-05-02T08:01:57.954Z</time></trkpt><trkpt lat="43.5881533" lon="11.626125"><ele>319.0</ele><time>2026-05-02T08:01:59.953Z</time></trkpt><trkpt lat="43.5881483" lon="11.62628"><ele>319.0</ele><time>2026-05-02T08:02:01.954Z</time></trkpt><trkpt lat="43.5881133" lon="11.62643"><ele>319.2</ele><time>2026-05-02T08:02:03.956Z</time></trkpt><trkpt lat="43.5880567" lon="11.62657"><ele>319.4</ele><time>2026-05-02T08:02:05.954Z</time></trkpt><trkpt lat="43.58798" lon="11.6266683"><ele>319.6</ele><time>2026-05-02T08:02:07.955Z</time></trkpt><trkpt lat="43.587895" lon="11.62677"><ele>319.8</ele><time>2026-05-02T08:02:09.955Z</time></trkpt><trkpt lat="43.587805" lon="11.62687"><ele>320.0</ele><time>2026-05-02T08:02:11.954Z</time></trkpt><trkpt lat="43.5876933" lon="11.6269217"><ele>319.2857142857143</ele><time>2026-05-02T08:02:13.954Z</time></trkpt><trkpt lat="43.5876267" lon="11.62691"><ele>318.57142857142856</ele><time>2026-05-02T08:02:14.955Z</time></trkpt><trkpt lat="43.5875567" lon="11.626875"><ele>317.8571428571429</ele><time>2026-05-02T08:02:15.955Z</time></trkpt><trkpt lat="43.58749" lon="11.6268283"><ele>317.1428571428571</ele><time>2026-05-02T08:02:16.953Z</time></trkpt><trkpt lat="43.5874217" lon="11.62678"><ele>316.42857142857144</ele><time>2026-05-02T08:02:17.954Z</time></trkpt><trkpt lat="43.5873533" lon="11.6267333"><ele>315.7142857142857</ele><time>2026-05-02T08:02:18.956Z</time></trkpt><trkpt lat="43.5872833" lon="11.626685"><ele>315.0</ele><time>2026-05-02T08:02:19.954Z</time></trkpt><trkpt lat="43.58721" lon="11.626635"><ele>315.0</ele><time>2026-05-02T08:02:20.953Z</time></trkpt><trkpt lat="43.5871367" lon="11.6265867"><ele>315.0</ele><time>2026-05-02T08:02:21.953Z</time></trkpt><trkpt lat="43.58706" lon="11.626535"><ele>315.0</ele><time>2026-05-02T08:02:22.955Z</time></trkpt><trkpt lat="43.5869817" lon="11.6264867"><ele>315.0</ele><time>2026-05-02T08:02:23.955Z</time></trkpt><trkpt lat="43.5869017" lon="11.6264333"><ele>315.0</ele><time>2026-05-02T08:02:24.955Z</time></trkpt><trkpt lat="43.5868233" lon="11.6263767"><ele>315.0</ele><time>2026-05-02T08:02:25.956Z</time></trkpt><trkpt lat="43.5867383" lon="11.6263217"><ele>314.4</ele><time>2026-05-02T08:02:26.953Z</time></trkpt><trkpt lat="43.5866533" lon="11.6262683"><ele>313.8</ele><time>2026-05-02T08:02:27.954Z</time></trkpt><trkpt lat="43.5865667" lon="11.6262083"><ele>313.2</ele><time>2026-05-02T08:02:28.954Z</time></trkpt><trkpt lat="43.5864817" lon="11.6261483"><ele>312.6</ele><time>2026-05-02T08:02:29.954Z</time></trkpt><trkpt lat="43.5863967" lon="11.62609"><ele>312.0</ele><time>2026-05-02T08:02:30.954Z</time></trkpt><trkpt lat="43.5863117" lon="11.626035"><ele>312.0</ele><time>2026-05-02T08:02:31.955Z</time></trkpt><trkpt lat="43.5862267" lon="11.6259817"><ele>312.0</ele><time>2026-05-02T08:02:32.955Z</time></trkpt><trkpt lat="43.58614" lon="11.62593"><ele>312.0</ele><time>2026-05-02T08:02:33.954Z</time></trkpt><trkpt lat="43.5860583" lon="11.62588"><ele>312.0</ele><time>2026-05-02T08:02:34.954Z</time></trkpt><trkpt lat="43.5859783" lon="11.6258333"><ele>312.0</ele><time>2026-05-02T08:02:35.952Z</time></trkpt><trkpt lat="43.5859067" lon="11.6257867"><ele>312.0</ele><time>2026-05-02T08:02:36.955Z</time></trkpt><trkpt lat="43.5858383" lon="11.625745"><ele>311.5</ele><time>2026-05-02T08:02:37.954Z</time></trkpt><trkpt lat="43.5857733" lon="11.6257033"><ele>311.0</ele><time>2026-05-02T08:02:38.954Z</time></trkpt><trkpt lat="43.5857067" lon="11.6256583"><ele>310.5</ele><time>2026-05-02T08:02:39.955Z</time></trkpt><trkpt lat="43.5856383" lon="11.62561"><ele>310.0</ele><time>2026-05-02T08:02:40.953Z</time></trkpt><trkpt lat="43.5855683" lon="11.6255633"><ele>309.5</ele><time>2026-05-02T08:02:41.956Z</time></trkpt><trkpt lat="43.58549" lon="11.625515"><ele>309.0</ele><time>2026-05-02T08:02:42.954Z</time></trkpt><trkpt lat="43.585415" lon="11.6254667"><ele>308.5</ele><time>2026-05-02T08:02:43.953Z</time></trkpt><trkpt lat="43.5853383" lon="11.625415"><ele>308.0</ele><time>2026-05-02T08:02:44.956Z</time></trkpt><trkpt lat="43.58526" lon="11.625365"><ele>307.5</ele><time>2026-05-02T08:02:45.955Z</time></trkpt><trkpt lat="43.5851817" lon="11.6253117"><ele>307.0</ele><time>2026-05-02T08:02:46.954Z</time></trkpt><trkpt lat="43.5851017" lon="11.6252617"><ele>306.5</ele><time>2026-05-02T08:02:47.955Z</time></trkpt><trkpt lat="43.58502" lon="11.6252067"><ele>306.0</ele><time>2026-05-02T08:02:48.955Z</time></trkpt><trkpt lat="43.5849383" lon="11.6251517"><ele>305.8</ele><time>2026-05-02T08:02:49.952Z</time></trkpt><trkpt lat="43.5848533" lon="11.625095"><ele>305.6</ele><time>2026-05-02T08:02:50.953Z</time></trkpt><trkpt lat="43.5847667" lon="11.6250383"><ele>305.4</ele><time>2026-05-02T08:02:51.955Z</time></trkpt><trkpt lat="43.5846867" lon="11.624985"><ele>305.2</ele><time>2026-05-02T08:02:52.955Z</time></trkpt><trkpt lat="43.5846033" lon="11.62493"><ele>305.0</ele><time>2026-05-02T08:02:53.952Z</time></trkpt><trkpt lat="43.584525" lon="11.624875"><ele>304.4</ele><time>2026-05-02T08:02:54.955Z</time></trkpt><trkpt lat="43.5844383" lon="11.62482"><ele>303.8</ele><time>2026-05-02T08:02:55.953Z</time></trkpt><trkpt lat="43.5843633" lon="11.6247683"><ele>303.2</ele><time>2026-05-02T08:02:56.954Z</time></trkpt><trkpt lat="43.5842817" lon="11.624715"><ele>302.6</ele><time>2026-05-02T08:02:57.953Z</time></trkpt><trkpt lat="43.584195" lon="11.62466"><ele>302.0</ele><time>2026-05-02T08:02:58.957Z</time></trkpt><trkpt lat="43.5841117" lon="11.6246067"><ele>302.0</ele><time>2026-05-02T08:02:59.955Z</time></trkpt><trkpt lat="43.584025" lon="11.6245533"><ele>302.0</ele><time>2026-05-02T08:03:00.955Z</time></trkpt><trkpt lat="43.58394" lon="11.6245017"><ele>302.0</ele><time>2026-05-02T08:03:01.954Z</time></trkpt><trkpt lat="43.5838583" lon="11.6244517"><ele>302.0</ele><time>2026-05-02T08:03:02.954Z</time></trkpt><trkpt lat="43.5837833" lon="11.624405"><ele>302.0</ele><time>2026-05-02T08:03:03.957Z</time></trkpt><trkpt lat="43.58372" lon="11.624365"><ele>302.0</ele><time>2026-05-02T08:03:04.954Z</time></trkpt><trkpt lat="43.583645" lon="11.6243067"><ele>301.4</ele><time>2026-05-02T08:03:06.954Z</time></trkpt><trkpt lat="43.583565" lon="11.6242183"><ele>300.79999999999995</ele><time>2026-05-02T08:03:09.953Z</time></trkpt><trkpt lat="43.5834683" lon="11.624175"><ele>300.2</ele><time>2026-05-02T08:03:11.954Z</time></trkpt><trkpt lat="43.583355" lon="11.6241217"><ele>299.59999999999997</ele><time>2026-05-02T08:03:13.956Z</time></trkpt><trkpt lat="43.5832933" lon="11.6240883"><ele>299.0</ele><time>2026-05-02T08:03:14.955Z</time></trkpt><trkpt lat="43.58323" lon="11.62405"><ele>299.0</ele><time>2026-05-02T08:03:15.954Z</time></trkpt><trkpt lat="43.5831633" lon="11.6240083"><ele>299.0</ele><time>2026-05-02T08:03:16.954Z</time></trkpt><trkpt lat="43.5830983" lon="11.6239633"><ele>299.0</ele><time>2026-05-02T08:03:17.953Z</time></trkpt><trkpt lat="43.58303" lon="11.623915"><ele>299.0</ele><time>2026-05-02T08:03:18.953Z</time></trkpt><trkpt lat="43.582955" lon="11.6238667"><ele>299.0</ele><time>2026-05-02T08:03:19.953Z</time></trkpt><trkpt lat="43.5828817" lon="11.6238183"><ele>299.0</ele><time>2026-05-02T08:03:20.953Z</time></trkpt><trkpt lat="43.5828133" lon="11.62377"><ele>299.0</ele><time>2026-05-02T08:03:21.953Z</time></trkpt><trkpt lat="43.5827433" lon="11.62372"><ele>299.0</ele><time>2026-05-02T08:03:22.955Z</time></trkpt><trkpt lat="43.582675" lon="11.6236683"><ele>299.0</ele><time>2026-05-02T08:03:23.954Z</time></trkpt><trkpt lat="43.5826067" lon="11.623625"><ele>299.0</ele><time>2026-05-02T08:03:24.955Z</time></trkpt><trkpt lat="43.582535" lon="11.6235783"><ele>299.0</ele><time>2026-05-02T08:03:25.953Z</time></trkpt><trkpt lat="43.5824617" lon="11.6235267"><ele>299.0</ele><time>2026-05-02T08:03:26.956Z</time></trkpt><trkpt lat="43.5823883" lon="11.6234783"><ele>298.5</ele><time>2026-05-02T08:03:27.954Z</time></trkpt><trkpt lat="43.5823183" lon="11.6234333"><ele>298.0</ele><time>2026-05-02T08:03:28.953Z</time></trkpt><trkpt lat="43.582245" lon="11.6233883"><ele>297.5</ele><time>2026-05-02T08:03:29.953Z</time></trkpt><trkpt lat="43.58217" lon="11.6233383"><ele>297.0</ele><time>2026-05-02T08:03:30.954Z</time></trkpt><trkpt lat="43.5820933" lon="11.623285"><ele>296.5</ele><time>2026-05-02T08:03:31.953Z</time></trkpt><trkpt lat="43.582015" lon="11.623235"><ele>296.0</ele><time>2026-05-02T08:03:32.955Z</time></trkpt><trkpt lat="43.5819333" lon="11.6231817"><ele>295.6666666666667</ele><time>2026-05-02T08:03:33.953Z</time></trkpt><trkpt lat="43.5818517" lon="11.6231283"><ele>295.33333333333337</ele><time>2026-05-02T08:03:34.954Z</time></trkpt><trkpt lat="43.58177" lon="11.623075"><ele>295.0</ele><time>2026-05-02T08:03:35.952Z</time></trkpt><trkpt lat="43.5816933" lon="11.62302"><ele>294.6666666666667</ele><time>2026-05-02T08:03:36.954Z</time></trkpt><trkpt lat="43.581615" lon="11.622965"><ele>294.3333333333333</ele><time>2026-05-02T08:03:37.954Z</time></trkpt><trkpt lat="43.5815333" lon="11.6229083"><ele>294.0</ele><time>2026-05-02T08:03:38.952Z</time></trkpt><trkpt lat="43.58145" lon="11.62285"><ele>293.8</ele><time>2026-05-02T08:03:39.953Z</time></trkpt><trkpt lat="43.5813683" lon="11.6227933"><ele>293.59999999999997</ele><time>2026-05-02T08:03:40.956Z</time></trkpt><trkpt lat="43.581285" lon="11.6227367"><ele>293.4</ele><time>2026-05-02T08:03:41.953Z</time></trkpt><trkpt lat="43.5812017" lon="11.6226833"><ele>293.2</ele><time>2026-05-02T08:03:42.953Z</time></trkpt><trkpt lat="43.5811183" lon="11.62263"><ele>293.0</ele><time>2026-05-02T08:03:43.955Z</time></trkpt><trkpt lat="43.5810317" lon="11.6225733"><ele>292.2</ele><time>2026-05-02T08:03:44.955Z</time></trkpt><trkpt lat="43.5809483" lon="11.62252"><ele>291.4</ele><time>2026-05-02T08:03:45.953Z</time></trkpt><trkpt lat="43.5808617" lon="11.6224633"><ele>290.59999999999997</ele><time>2026-05-02T08:03:46.956Z</time></trkpt><trkpt lat="43.580775" lon="11.6224083"><ele>289.8</ele><time>2026-05-02T08:03:47.955Z</time></trkpt><trkpt lat="43.5806883" lon="11.6223567"><ele>289.0</ele><time>2026-05-02T08:03:48.952Z</time></trkpt><trkpt lat="43.5806" lon="11.6223017"><ele>289.0</ele><time>2026-05-02T08:03:49.953Z</time></trkpt><trkpt lat="43.5805133" lon="11.6222483"><ele>289.0</ele><time>2026-05-02T08:03:50.955Z</time></trkpt><trkpt lat="43.58043" lon="11.6221983"><ele>289.0</ele><time>2026-05-02T08:03:51.955Z</time></trkpt><trkpt lat="43.5803467" lon="11.622145"><ele>289.0</ele><time>2026-05-02T08:03:52.954Z</time></trkpt><trkpt lat="43.58026" lon="11.6220933"><ele>289.0</ele><time>2026-05-02T08:03:53.956Z</time></trkpt><trkpt lat="43.58017" lon="11.6220433"><ele>288.4</ele><time>2026-05-02T08:03:54.956Z</time></trkpt><trkpt lat="43.5800817" lon="11.6219917"><ele>287.79999999999995</ele><time>2026-05-02T08:03:55.953Z</time></trkpt><trkpt lat="43.58" lon="11.62194"><ele>287.20000000000005</ele><time>2026-05-02T08:03:56.953Z</time></trkpt><trkpt lat="43.5799133" lon="11.621885"><ele>286.6</ele><time>2026-05-02T08:03:57.954Z</time></trkpt><trkpt lat="43.5798267" lon="11.62183"><ele>286.0</ele><time>2026-05-02T08:03:58.956Z</time></trkpt><trkpt lat="43.5797383" lon="11.62177"><ele>286.0</ele><time>2026-05-02T08:03:59.954Z</time></trkpt><trkpt lat="43.5796517" lon="11.6217117"><ele>286.0</ele><time>2026-05-02T08:04:00.953Z</time></trkpt><trkpt lat="43.5795633" lon="11.6216567"><ele>286.0</ele><time>2026-05-02T08:04:01.954Z</time></trkpt><trkpt lat="43.5794733" lon="11.6215983"><ele>286.0</ele><time>2026-05-02T08:04:02.955Z</time></trkpt><trkpt lat="43.5793833" lon="11.62154"><ele>286.0</ele><time>2026-05-02T08:04:03.953Z</time></trkpt><trkpt lat="43.5792917" lon="11.62148"><ele>285.40000000000003</ele><time>2026-05-02T08:04:04.954Z</time></trkpt><trkpt lat="43.5792033" lon="11.6214217"><ele>284.8</ele><time>2026-05-02T08:04:05.954Z</time></trkpt><trkpt lat="43.5791133" lon="11.6213617"><ele>284.20000000000005</ele><time>2026-05-02T08:04:06.953Z</time></trkpt><trkpt lat="43.5790217" lon="11.6213017"><ele>283.6</ele><time>2026-05-02T08:04:07.954Z</time></trkpt><trkpt lat="43.5789317" lon="11.6212383"><ele>283.0</ele><time>2026-05-02T08:04:08.955Z</time></trkpt><trkpt lat="43.5788417" lon="11.621175"><ele>283.0</ele><time>2026-05-02T08:04:09.955Z</time></trkpt><trkpt lat="43.5787533" lon="11.6211183"><ele>283.0</ele><time>2026-05-02T08:04:10.955Z</time></trkpt><trkpt lat="43.57866" lon="11.6210583"><ele>283.0</ele><time>2026-05-02T08:04:11.955Z</time></trkpt><trkpt lat="43.5785667" lon="11.621"><ele>283.0</ele><time>2026-05-02T08:04:12.955Z</time></trkpt><trkpt lat="43.5784767" lon="11.6209433"><ele>283.0</ele><time>2026-05-02T08:04:13.953Z</time></trkpt><trkpt lat="43.578385" lon="11.62088"><ele>282.2</ele><time>2026-05-02T08:04:14.955Z</time></trkpt><trkpt lat="43.578295" lon="11.6208217"><ele>281.4</ele><time>2026-05-02T08:04:15.954Z</time></trkpt><trkpt lat="43.578205" lon="11.6207633"><ele>280.59999999999997</ele><time>2026-05-02T08:04:16.956Z</time></trkpt><trkpt lat="43.5781117" lon="11.6207017"><ele>279.8</ele><time>2026-05-02T08:04:17.954Z</time></trkpt><trkpt lat="43.5780183" lon="11.62064"><ele>279.0</ele><time>2026-05-02T08:04:18.953Z</time></trkpt><trkpt lat="43.5779283" lon="11.62058"><ele>278.59999999999997</ele><time>2026-05-02T08:04:19.954Z</time></trkpt><trkpt lat="43.5778333" lon="11.6205183"><ele>278.2</ele><time>2026-05-02T08:04:20.958Z</time></trkpt><trkpt lat="43.5777383" lon="11.6204583"><ele>277.79999999999995</ele><time>2026-05-02T08:04:21.956Z</time></trkpt><trkpt lat="43.5776467" lon="11.6204"><ele>277.4</ele><time>2026-05-02T08:04:22.953Z</time></trkpt><trkpt lat="43.5775617" lon="11.6203433"><ele>277.0</ele><time>2026-05-02T08:04:23.953Z</time></trkpt><trkpt lat="43.577475" lon="11.6202833"><ele>276.6</ele><time>2026-05-02T08:04:24.956Z</time></trkpt><trkpt lat="43.5773867" lon="11.6202283"><ele>276.2</ele><time>2026-05-02T08:04:25.954Z</time></trkpt><trkpt lat="43.5772983" lon="11.620175"><ele>275.8</ele><time>2026-05-02T08:04:26.955Z</time></trkpt><trkpt lat="43.5772083" lon="11.62012"><ele>275.4</ele><time>2026-05-02T08:04:27.953Z</time></trkpt><trkpt lat="43.577125" lon="11.62006"><ele>275.0</ele><time>2026-05-02T08:04:28.953Z</time></trkpt><trkpt lat="43.5770383" lon="11.6200033"><ele>274.8</ele><time>2026-05-02T08:04:29.953Z</time></trkpt><trkpt lat="43.5769483" lon="11.6199467"><ele>274.6</ele><time>2026-05-02T08:04:30.953Z</time></trkpt><trkpt lat="43.57686" lon="11.6198867"><ele>274.4</ele><time>2026-05-02T08:04:31.955Z</time></trkpt><trkpt lat="43.5767683" lon="11.61983"><ele>274.2</ele><time>2026-05-02T08:04:32.955Z</time></trkpt><trkpt lat="43.576675" lon="11.6197717"><ele>274.0</ele><time>2026-05-02T08:04:33.955Z</time></trkpt><trkpt lat="43.576585" lon="11.6197233"><ele>274.0</ele><time>2026-05-02T08:04:34.953Z</time></trkpt><trkpt lat="43.576495" lon="11.619675"><ele>274.0</ele><time>2026-05-02T08:04:35.955Z</time></trkpt><trkpt lat="43.5764067" lon="11.6196267"><ele>274.0</ele><time>2026-05-02T08:04:36.955Z</time></trkpt><trkpt lat="43.57632" lon="11.6195833"><ele>274.0</ele><time>2026-05-02T08:04:37.955Z</time></trkpt><trkpt lat="43.576235" lon="11.6195417"><ele>274.0</ele><time>2026-05-02T08:04:38.955Z</time></trkpt><trkpt lat="43.5761533" lon="11.6194933"><ele>273.16666666666663</ele><time>2026-05-02T08:04:39.954Z</time></trkpt><trkpt lat="43.5760683" lon="11.6194467"><ele>272.3333333333333</ele><time>2026-05-02T08:04:40.954Z</time></trkpt><trkpt lat="43.57599" lon="11.619405"><ele>271.5</ele><time>2026-05-02T08:04:41.956Z</time></trkpt><trkpt lat="43.5759067" lon="11.61937"><ele>270.6666666666667</ele><time>2026-05-02T08:04:42.954Z</time></trkpt><trkpt lat="43.575825" lon="11.6193483"><ele>269.83333333333337</ele><time>2026-05-02T08:04:43.956Z</time></trkpt><trkpt lat="43.5757417" lon="11.6193417"><ele>269.0</ele><time>2026-05-02T08:04:44.953Z</time></trkpt><trkpt lat="43.575655" lon="11.6193517"><ele>269.0</ele><time>2026-05-02T08:04:45.955Z</time></trkpt><trkpt lat="43.57557" lon="11.61938"><ele>269.0</ele><time>2026-05-02T08:04:46.955Z</time></trkpt><trkpt lat="43.575485" lon="11.61942"><ele>269.0</ele><time>2026-05-02T08:04:47.952Z</time></trkpt><trkpt lat="43.5754083" lon="11.6194767"><ele>269.0</ele><time>2026-05-02T08:04:48.955Z</time></trkpt><trkpt lat="43.57534" lon="11.61955"><ele>269.0</ele><time>2026-05-02T08:04:49.953Z</time></trkpt><trkpt lat="43.5752833" lon="11.61964"><ele>269.0</ele><time>2026-05-02T08:04:50.953Z</time></trkpt><trkpt lat="43.5752367" lon="11.61974"><ele>269.4</ele><time>2026-05-02T08:04:51.953Z</time></trkpt><trkpt lat="43.57519" lon="11.619845"><ele>269.79999999999995</ele><time>2026-05-02T08:04:52.952Z</time></trkpt><trkpt lat="43.5751433" lon="11.6199517"><ele>270.20000000000005</ele><time>2026-05-02T08:04:53.954Z</time></trkpt><trkpt lat="43.5750933" lon="11.620065"><ele>270.6</ele><time>2026-05-02T08:04:54.955Z</time></trkpt><trkpt lat="43.5750433" lon="11.6201817"><ele>271.0</ele><time>2026-05-02T08:04:55.953Z</time></trkpt><trkpt lat="43.57499" lon="11.6203"><ele>271.2</ele><time>2026-05-02T08:04:56.954Z</time></trkpt><trkpt lat="43.5749267" lon="11.6204067"><ele>271.40000000000003</ele><time>2026-05-02T08:04:57.956Z</time></trkpt><trkpt lat="43.57485" lon="11.6204967"><ele>271.6</ele><time>2026-05-02T08:04:58.953Z</time></trkpt><trkpt lat="43.57476" lon="11.620555"><ele>271.8</ele><time>2026-05-02T08:04:59.953Z</time></trkpt><trkpt lat="43.5746633" lon="11.620585"><ele>272.0</ele><time>2026-05-02T08:05:00.954Z</time></trkpt><trkpt lat="43.5745633" lon="11.62058"><ele>271.2</ele><time>2026-05-02T08:05:01.954Z</time></trkpt><trkpt lat="43.574465" lon="11.620545"><ele>270.4</ele><time>2026-05-02T08:05:02.952Z</time></trkpt><trkpt lat="43.574365" lon="11.6204933"><ele>269.6</ele><time>2026-05-02T08:05:03.955Z</time></trkpt><trkpt lat="43.574265" lon="11.6204367"><ele>268.8</ele><time>2026-05-02T08:05:04.953Z</time></trkpt><trkpt lat="43.5741667" lon="11.6203783"><ele>268.0</ele><time>2026-05-02T08:05:05.955Z</time></trkpt><trkpt lat="43.5740583" lon="11.6203217"><ele>268.25</ele><time>2026-05-02T08:05:06.957Z</time></trkpt><trkpt lat="43.5739483" lon="11.6202733"><ele>268.5</ele><time>2026-05-02T08:05:07.952Z</time></trkpt><trkpt lat="43.5738333" lon="11.6202417"><ele>268.75</ele><time>2026-05-02T08:05:08.955Z</time></trkpt><trkpt lat="43.5737133" lon="11.6202417"><ele>269.0</ele><time>2026-05-02T08:05:09.957Z</time></trkpt><trkpt lat="43.5735983" lon="11.62027"><ele>264.25</ele><time>2026-05-02T08:05:10.954Z</time></trkpt><trkpt lat="43.5734867" lon="11.62032"><ele>259.5</ele><time>2026-05-02T08:05:11.954Z</time></trkpt><trkpt lat="43.5733767" lon="11.6203833"><ele>254.75</ele><time>2026-05-02T08:05:12.954Z</time></trkpt><trkpt lat="43.5732667" lon="11.6204567"><ele>250.0</ele><time>2026-05-02T08:05:13.952Z</time></trkpt><trkpt lat="43.5731617" lon="11.6205417"><ele>250.0</ele><time>2026-05-02T08:05:14.954Z</time></trkpt><trkpt lat="43.5730567" lon="11.6206267"><ele>250.0</ele><time>2026-05-02T08:05:15.954Z</time></trkpt><trkpt lat="43.5729617" lon="11.6207017"><ele>250.0</ele><time>2026-05-02T08:05:16.954Z</time></trkpt><trkpt lat="43.5728667" lon="11.6207567"><ele>250.0</ele><time>2026-05-02T08:05:17.955Z</time></trkpt><trkpt lat="43.572775" lon="11.6207967"><ele>250.0</ele><time>2026-05-02T08:05:18.955Z</time></trkpt><trkpt lat="43.572675" lon="11.6207783"><ele>251.25</ele><time>2026-05-02T08:05:19.952Z</time></trkpt><trkpt lat="43.5725883" lon="11.6206917"><ele>252.5</ele><time>2026-05-02T08:05:20.954Z</time></trkpt><trkpt lat="43.5725117" lon="11.6205717"><ele>253.75</ele><time>2026-05-02T08:05:21.953Z</time></trkpt><trkpt lat="43.5724433" lon="11.6204417"><ele>255.0</ele><time>2026-05-02T08:05:22.955Z</time></trkpt><trkpt lat="43.5723867" lon="11.6203033"><ele>255.0</ele><time>2026-05-02T08:05:23.954Z</time></trkpt><trkpt lat="43.5723233" lon="11.6201717"><ele>255.0</ele><time>2026-05-02T08:05:24.956Z</time></trkpt><trkpt lat="43.57225" lon="11.62005"><ele>255.0</ele><time>2026-05-02T08:05:25.955Z</time></trkpt><trkpt lat="43.5721767" lon="11.6199267"><ele>255.0</ele><time>2026-05-02T08:05:26.957Z</time></trkpt><trkpt lat="43.5721" lon="11.6197967"><ele>255.0</ele><time>2026-05-02T08:05:27.955Z</time></trkpt><trkpt lat="43.5720267" lon="11.619645"><ele>255.0</ele><time>2026-05-02T08:05:28.953Z</time></trkpt><trkpt lat="43.5719483" lon="11.6195183"><ele>255.0</ele><time>2026-05-02T08:05:29.953Z</time></trkpt><trkpt lat="43.57187" lon="11.61938"><ele>255.0</ele><time>2026-05-02T08:05:30.953Z</time></trkpt><trkpt lat="43.5718" lon="11.619235"><ele>252.5</ele><time>2026-05-02T08:05:31.952Z</time></trkpt><trkpt lat="43.571745" lon="11.6190733"><ele>250.0</ele><time>2026-05-02T08:05:32.955Z</time></trkpt><trkpt lat="43.5717017" lon="11.618905"><ele>247.5</ele><time>2026-05-02T08:05:33.954Z</time></trkpt><trkpt lat="43.5716567" lon="11.6187367"><ele>245.0</ele><time>2026-05-02T08:05:34.954Z</time></trkpt><trkpt lat="43.57161" lon="11.6185717"><ele>245.0</ele><time>2026-05-02T08:05:35.954Z</time></trkpt><trkpt lat="43.5715483" lon="11.61842"><ele>245.0</ele><time>2026-05-02T08:05:36.954Z</time></trkpt><trkpt lat="43.57147" lon="11.6182833"><ele>245.0</ele><time>2026-05-02T08:05:37.953Z</time></trkpt><trkpt lat="43.5713933" lon="11.618145"><ele>245.0</ele><time>2026-05-02T08:05:38.957Z</time></trkpt><trkpt lat="43.5713183" lon="11.618005"><ele>245.0</ele><time>2026-05-02T08:05:39.954Z</time></trkpt><trkpt lat="43.5712483" lon="11.6178633"><ele>245.0</ele><time>2026-05-02T08:05:40.953Z</time></trkpt><trkpt lat="43.57117" lon="11.6177283"><ele>245.0</ele><time>2026-05-02T08:05:41.954Z</time></trkpt><trkpt lat="43.5710933" lon="11.6175933"><ele>245.0</ele><time>2026-05-02T08:05:42.952Z</time></trkpt><trkpt lat="43.5710167" lon="11.6174583"><ele>242.0</ele><time>2026-05-02T08:05:43.953Z</time></trkpt><trkpt lat="43.5709433" lon="11.6173217"><ele>239.0</ele><time>2026-05-02T08:05:44.955Z</time></trkpt><trkpt lat="43.57087" lon="11.6171783"><ele>236.0</ele><time>2026-05-02T08:05:45.954Z</time></trkpt><trkpt lat="43.5708017" lon="11.6170333"><ele>233.0</ele><time>2026-05-02T08:05:46.955Z</time></trkpt><trkpt lat="43.5707317" lon="11.6168867"><ele>233.0</ele><time>2026-05-02T08:05:47.954Z</time></trkpt><trkpt lat="43.5706617" lon="11.616735"><ele>233.0</ele><time>2026-05-02T08:05:48.954Z</time></trkpt><trkpt lat="43.5705933" lon="11.6165867"><ele>233.0</ele><time>2026-05-02T08:05:49.954Z</time></trkpt><trkpt lat="43.5705283" lon="11.61643"><ele>233.0</ele><time>2026-05-02T08:05:50.955Z</time></trkpt><trkpt lat="43.5704583" lon="11.6162783"><ele>235.25</ele><time>2026-05-02T08:05:51.954Z</time></trkpt><trkpt lat="43.5703917" lon="11.616125"><ele>237.5</ele><time>2026-05-02T08:05:52.953Z</time></trkpt><trkpt lat="43.5703283" lon="11.6159667"><ele>239.75</ele><time>2026-05-02T08:05:53.953Z</time></trkpt><trkpt lat="43.5702717" lon="11.6158017"><ele>242.0</ele><time>2026-05-02T08:05:54.954Z</time></trkpt><trkpt lat="43.5702167" lon="11.6156417"><ele>236.0</ele><time>2026-05-02T08:05:55.956Z</time></trkpt><trkpt lat="43.57016" lon="11.6154867"><ele>230.0</ele><time>2026-05-02T08:05:56.955Z</time></trkpt><trkpt lat="43.5701067" lon="11.61533"><ele>224.0</ele><time>2026-05-02T08:05:57.955Z</time></trkpt><trkpt lat="43.5700583" lon="11.6151717"><ele>218.0</ele><time>2026-05-02T08:05:58.955Z</time></trkpt><trkpt lat="43.5700033" lon="11.6150233"><ele>218.0</ele><time>2026-05-02T08:05:59.953Z</time></trkpt><trkpt lat="43.56995" lon="11.6148733"><ele>218.0</ele><time>2026-05-02T08:06:00.955Z</time></trkpt><trkpt lat="43.5699017" lon="11.61473"><ele>218.0</ele><time>2026-05-02T08:06:01.953Z</time></trkpt><trkpt lat="43.5698567" lon="11.6145983"><ele>218.0</ele><time>2026-05-02T08:06:02.954Z</time></trkpt><trkpt lat="43.5698217" lon="11.6144717"><ele>218.0</ele><time>2026-05-02T08:06:03.953Z</time></trkpt><trkpt lat="43.5697883" lon="11.6143583"><ele>217.0</ele><time>2026-05-02T08:06:04.953Z</time></trkpt><trkpt lat="43.56977" lon="11.61426"><ele>216.0</ele><time>2026-05-02T08:06:05.956Z</time></trkpt><trkpt lat="43.5697833" lon="11.614165"><ele>215.0</ele><time>2026-05-02T08:06:06.954Z</time></trkpt><trkpt lat="43.56982" lon="11.614085"><ele>214.0</ele><time>2026-05-02T08:06:07.953Z</time></trkpt><trkpt lat="43.5698717" lon="11.6140217"><ele>213.0</ele><time>2026-05-02T08:06:08.954Z</time></trkpt><trkpt lat="43.569915" lon="11.61395"><ele>212.0</ele><time>2026-05-02T08:06:09.952Z</time></trkpt><trkpt lat="43.5699317" lon="11.6138633"><ele>211.0</ele><time>2026-05-02T08:06:10.954Z</time></trkpt><trkpt lat="43.5699267" lon="11.6137717"><ele>211.0</ele><time>2026-05-02T08:06:11.954Z</time></trkpt><trkpt lat="43.569905" lon="11.6136783"><ele>211.0</ele><time>2026-05-02T08:06:12.952Z</time></trkpt><trkpt lat="43.5698683" lon="11.6135933"><ele>211.0</ele><time>2026-05-02T08:06:13.954Z</time></trkpt><trkpt lat="43.5698083" lon="11.6135283"><ele>211.0</ele><time>2026-05-02T08:06:14.953Z</time></trkpt><trkpt lat="43.5697417" lon="11.613475"><ele>211.0</ele><time>2026-05-02T08:06:15.954Z</time></trkpt><trkpt lat="43.5696767" lon="11.61342"><ele>211.0</ele><time>2026-05-02T08:06:16.953Z</time></trkpt><trkpt lat="43.5696167" lon="11.6133533"><ele>211.0</ele><time>2026-05-02T08:06:17.955Z</time></trkpt><trkpt lat="43.56957" lon="11.6132633"><ele>210.71428571428572</ele><time>2026-05-02T08:06:18.954Z</time></trkpt><trkpt lat="43.5695333" lon="11.6131667"><ele>210.42857142857144</ele><time>2026-05-02T08:06:19.953Z</time></trkpt><trkpt lat="43.5695033" lon="11.6130783"><ele>210.14285714285714</ele><time>2026-05-02T08:06:20.952Z</time></trkpt><trkpt lat="43.56947" lon="11.6129917"><ele>209.85714285714286</ele><time>2026-05-02T08:06:21.952Z</time></trkpt><trkpt lat="43.5694317" lon="11.6129133"><ele>209.57142857142856</ele><time>2026-05-02T08:06:22.95Z</time></trkpt><trkpt lat="43.5693917" lon="11.61284"><ele>209.28571428571428</ele><time>2026-05-02T08:06:23.953Z</time></trkpt><trkpt lat="43.5693517" lon="11.6127633"><ele>209.0</ele><time>2026-05-02T08:06:24.953Z</time></trkpt><trkpt lat="43.5693083" lon="11.6126833"><ele>209.00000000000003</ele><time>2026-05-02T08:06:25.953Z</time></trkpt><trkpt lat="43.56926" lon="11.612605"><ele>209.0</ele><time>2026-05-02T08:06:26.954Z</time></trkpt><trkpt lat="43.5692133" lon="11.6125267"><ele>209.0</ele><time>2026-05-02T08:06:27.955Z</time></trkpt><trkpt lat="43.56916" lon="11.6124433"><ele>209.0</ele><time>2026-05-02T08:06:28.953Z</time></trkpt><trkpt lat="43.5691083" lon="11.6123617"><ele>209.00000000000003</ele><time>2026-05-02T08:06:29.952Z</time></trkpt><trkpt lat="43.569055" lon="11.6122817"><ele>209.0</ele><time>2026-05-02T08:06:30.953Z</time></trkpt><trkpt lat="43.5689983" lon="11.612195"><ele>209.00000000000003</ele><time>2026-05-02T08:06:31.952Z</time></trkpt><trkpt lat="43.5689417" lon="11.6121117"><ele>209.0</ele><time>2026-05-02T08:06:32.954Z</time></trkpt><trkpt lat="43.5688867" lon="11.612025"><ele>209.0</ele><time>2026-05-02T08:06:33.953Z</time></trkpt><trkpt lat="43.568825" lon="11.61194"><ele>209.0</ele><time>2026-05-02T08:06:34.954Z</time></trkpt><trkpt lat="43.5687633" lon="11.6118483"><ele>209.00000000000003</ele><time>2026-05-02T08:06:35.953Z</time></trkpt><trkpt lat="43.5687067" lon="11.61175"><ele>209.0</ele><time>2026-05-02T08:06:36.953Z</time></trkpt><trkpt lat="43.568655" lon="11.6116467"><ele>208.0</ele><time>2026-05-02T08:06:37.952Z</time></trkpt><trkpt lat="43.568605" lon="11.6115367"><ele>207.0</ele><time>2026-05-02T08:06:38.953Z</time></trkpt><trkpt lat="43.5685633" lon="11.6114283"><ele>206.0</ele><time>2026-05-02T08:06:39.952Z</time></trkpt><trkpt lat="43.5685217" lon="11.611315"><ele>205.0</ele><time>2026-05-02T08:06:40.952Z</time></trkpt><trkpt lat="43.5684817" lon="11.6111967"><ele>204.0</ele><time>2026-05-02T08:06:41.955Z</time></trkpt><trkpt lat="43.568445" lon="11.6110767"><ele>204.0</ele><time>2026-05-02T08:06:42.953Z</time></trkpt><trkpt lat="43.5684083" lon="11.6109567"><ele>204.0</ele><time>2026-05-02T08:06:43.953Z</time></trkpt><trkpt lat="43.568375" lon="11.610835"><ele>204.0</ele><time>2026-05-02T08:06:44.954Z</time></trkpt><trkpt lat="43.5683467" lon="11.6107083"><ele>204.0</ele><time>2026-05-02T08:06:45.951Z</time></trkpt><trkpt lat="43.5683167" lon="11.61059"><ele>204.0</ele><time>2026-05-02T08:06:46.953Z</time></trkpt><trkpt lat="43.5682867" lon="11.6104683"><ele>204.0</ele><time>2026-05-02T08:06:47.953Z</time></trkpt><trkpt lat="43.5682567" lon="11.610345"><ele>204.0</ele><time>2026-05-02T08:06:48.951Z</time></trkpt><trkpt lat="43.5682267" lon="11.6102267"><ele>204.0</ele><time>2026-05-02T08:06:49.952Z</time></trkpt><trkpt lat="43.5681967" lon="11.6101067"><ele>204.0</ele><time>2026-05-02T08:06:50.952Z</time></trkpt><trkpt lat="43.568165" lon="11.6099933"><ele>204.0</ele><time>2026-05-02T08:06:51.952Z</time></trkpt><trkpt lat="43.5681283" lon="11.6098817"><ele>204.5</ele><time>2026-05-02T08:06:52.951Z</time></trkpt><trkpt lat="43.56809" lon="11.609775"><ele>205.0</ele><time>2026-05-02T08:06:53.955Z</time></trkpt><trkpt lat="43.5680483" lon="11.6096683"><ele>205.5</ele><time>2026-05-02T08:06:54.954Z</time></trkpt><trkpt lat="43.5680067" lon="11.609565"><ele>206.0</ele><time>2026-05-02T08:06:55.953Z</time></trkpt><trkpt lat="43.567965" lon="11.6094617"><ele>206.5</ele><time>2026-05-02T08:06:56.954Z</time></trkpt><trkpt lat="43.5679217" lon="11.6093617"><ele>207.0</ele><time>2026-05-02T08:06:57.953Z</time></trkpt><trkpt lat="43.56788" lon="11.6092617"><ele>205.83333333333334</ele><time>2026-05-02T08:06:58.953Z</time></trkpt><trkpt lat="43.567835" lon="11.60916"><ele>204.66666666666669</ele><time>2026-05-02T08:06:59.953Z</time></trkpt><trkpt lat="43.5677933" lon="11.60906"><ele>203.5</ele><time>2026-05-02T08:07:00.952Z</time></trkpt><trkpt lat="43.56775" lon="11.6089583"><ele>202.33333333333334</ele><time>2026-05-02T08:07:01.952Z</time></trkpt><trkpt lat="43.5677033" lon="11.6088567"><ele>201.16666666666669</ele><time>2026-05-02T08:07:02.953Z</time></trkpt><trkpt lat="43.5676583" lon="11.6087533"><ele>200.0</ele><time>2026-05-02T08:07:03.953Z</time></trkpt><trkpt lat="43.5676133" lon="11.6086567"><ele>200.00000000000003</ele><time>2026-05-02T08:07:04.955Z</time></trkpt><trkpt lat="43.56757" lon="11.6085567"><ele>200.0</ele><time>2026-05-02T08:07:05.951Z</time></trkpt><trkpt lat="43.5675367" lon="11.6084517"><ele>200.0</ele><time>2026-05-02T08:07:06.952Z</time></trkpt><trkpt lat="43.5675167" lon="11.608345"><ele>200.0</ele><time>2026-05-02T08:07:07.954Z</time></trkpt><trkpt lat="43.5675183" lon="11.60824"><ele>200.00000000000003</ele><time>2026-05-02T08:07:08.956Z</time></trkpt><trkpt lat="43.5675317" lon="11.608135"><ele>200.0</ele><time>2026-05-02T08:07:09.953Z</time></trkpt><trkpt lat="43.5675383" lon="11.6080283"><ele>200.00000000000003</ele><time>2026-05-02T08:07:10.954Z</time></trkpt><trkpt lat="43.5675217" lon="11.60793"><ele>200.0</ele><time>2026-05-02T08:07:11.952Z</time></trkpt><trkpt lat="43.5674817" lon="11.6078483"><ele>200.0</ele><time>2026-05-02T08:07:12.953Z</time></trkpt><trkpt lat="43.56742" lon="11.60779"><ele>200.0</ele><time>2026-05-02T08:07:13.955Z</time></trkpt><trkpt lat="43.5673433" lon="11.6077533"><ele>200.00000000000003</ele><time>2026-05-02T08:07:14.953Z</time></trkpt><trkpt lat="43.5672583" lon="11.6077433"><ele>200.0</ele><time>2026-05-02T08:07:15.955Z</time></trkpt><trkpt lat="43.5671683" lon="11.607755"><ele>200.0</ele><time>2026-05-02T08:07:16.955Z</time></trkpt><trkpt lat="43.56708" lon="11.607785"><ele>200.0</ele><time>2026-05-02T08:07:17.953Z</time></trkpt><trkpt lat="43.5669933" lon="11.607815"><ele>200.0</ele><time>2026-05-02T08:07:18.953Z</time></trkpt><trkpt lat="43.5669067" lon="11.6078283"><ele>200.0</ele><time>2026-05-02T08:07:19.953Z</time></trkpt><trkpt lat="43.5668167" lon="11.6078083"><ele>200.0</ele><time>2026-05-02T08:07:20.953Z</time></trkpt><trkpt lat="43.5667233" lon="11.607775"><ele>198.4</ele><time>2026-05-02T08:07:21.953Z</time></trkpt><trkpt lat="43.5666367" lon="11.60774"><ele>196.8</ele><time>2026-05-02T08:07:22.95Z</time></trkpt><trkpt lat="43.5665483" lon="11.6077"><ele>195.2</ele><time>2026-05-02T08:07:23.952Z</time></trkpt><trkpt lat="43.56646" lon="11.60765"><ele>193.6</ele><time>2026-05-02T08:07:24.952Z</time></trkpt><trkpt lat="43.5663717" lon="11.6075833"><ele>192.0</ele><time>2026-05-02T08:07:25.952Z</time></trkpt><trkpt lat="43.56628" lon="11.6075"><ele>192.0</ele><time>2026-05-02T08:07:26.952Z</time></trkpt><trkpt lat="43.5661967" lon="11.6074"><ele>192.0</ele><time>2026-05-02T08:07:27.952Z</time></trkpt><trkpt lat="43.5661183" lon="11.6072933"><ele>192.0</ele><time>2026-05-02T08:07:28.952Z</time></trkpt><trkpt lat="43.56605" lon="11.6071767"><ele>192.0</ele><time>2026-05-02T08:07:29.952Z</time></trkpt><trkpt lat="43.5659883" lon="11.6070533"><ele>192.0</ele><time>2026-05-02T08:07:30.952Z</time></trkpt><trkpt lat="43.5659317" lon="11.60693"><ele>190.8</ele><time>2026-05-02T08:07:31.954Z</time></trkpt><trkpt lat="43.56588" lon="11.606805"><ele>189.6</ele><time>2026-05-02T08:07:32.953Z</time></trkpt><trkpt lat="43.5658267" lon="11.6066817"><ele>188.4</ele><time>2026-05-02T08:07:33.952Z</time></trkpt><trkpt lat="43.5657717" lon="11.6065533"><ele>187.20000000000002</ele><time>2026-05-02T08:07:34.955Z</time></trkpt><trkpt lat="43.565715" lon="11.60642"><ele>186.0</ele><time>2026-05-02T08:07:35.954Z</time></trkpt><trkpt lat="43.5656633" lon="11.6062933"><ele>186.0</ele><time>2026-05-02T08:07:36.952Z</time></trkpt><trkpt lat="43.565615" lon="11.6061717"><ele>186.0</ele><time>2026-05-02T08:07:37.953Z</time></trkpt><trkpt lat="43.5655667" lon="11.60605"><ele>186.0</ele><time>2026-05-02T08:07:38.956Z</time></trkpt><trkpt lat="43.5655133" lon="11.6059333"><ele>186.0</ele><time>2026-05-02T08:07:39.954Z</time></trkpt><trkpt lat="43.5654633" lon="11.605815"><ele>186.0</ele><time>2026-05-02T08:07:40.952Z</time></trkpt><trkpt lat="43.5654133" lon="11.605695"><ele>186.4</ele><time>2026-05-02T08:07:41.953Z</time></trkpt><trkpt lat="43.565365" lon="11.605575"><ele>186.8</ele><time>2026-05-02T08:07:42.953Z</time></trkpt><trkpt lat="43.5653183" lon="11.605455"><ele>187.20000000000002</ele><time>2026-05-02T08:07:43.953Z</time></trkpt><trkpt lat="43.5652683" lon="11.605335"><ele>187.60000000000002</ele><time>2026-05-02T08:07:44.954Z</time></trkpt><trkpt lat="43.5652167" lon="11.6052183"><ele>188.0</ele><time>2026-05-02T08:07:45.953Z</time></trkpt><trkpt lat="43.5651633" lon="11.6051067"><ele>187.0</ele><time>2026-05-02T08:07:46.954Z</time></trkpt><trkpt lat="43.5651083" lon="11.604995"><ele>186.0</ele><time>2026-05-02T08:07:47.954Z</time></trkpt><trkpt lat="43.565055" lon="11.6048783"><ele>185.0</ele><time>2026-05-02T08:07:48.954Z</time></trkpt><trkpt lat="43.5650067" lon="11.6047583"><ele>184.0</ele><time>2026-05-02T08:07:49.955Z</time></trkpt><trkpt lat="43.5649583" lon="11.6046383"><ele>183.0</ele><time>2026-05-02T08:07:50.954Z</time></trkpt><trkpt lat="43.5649067" lon="11.60452"><ele>183.2</ele><time>2026-05-02T08:07:51.953Z</time></trkpt><trkpt lat="43.5648567" lon="11.6043983"><ele>183.4</ele><time>2026-05-02T08:07:52.954Z</time></trkpt><trkpt lat="43.5648067" lon="11.6042817"><ele>183.6</ele><time>2026-05-02T08:07:53.954Z</time></trkpt><trkpt lat="43.5647567" lon="11.604165"><ele>183.79999999999998</ele><time>2026-05-02T08:07:54.954Z</time></trkpt><trkpt lat="43.5647083" lon="11.6040483"><ele>184.0</ele><time>2026-05-02T08:07:55.954Z</time></trkpt><trkpt lat="43.56466" lon="11.6039367"><ele>184.0</ele><time>2026-05-02T08:07:56.953Z</time></trkpt><trkpt lat="43.5646067" lon="11.6038217"><ele>184.0</ele><time>2026-05-02T08:07:57.954Z</time></trkpt><trkpt lat="43.5645483" lon="11.6037167"><ele>184.0</ele><time>2026-05-02T08:07:58.953Z</time></trkpt><trkpt lat="43.5644817" lon="11.60362"><ele>184.0</ele><time>2026-05-02T08:07:59.952Z</time></trkpt><trkpt lat="43.5644117" lon="11.6035267"><ele>184.0</ele><time>2026-05-02T08:08:00.952Z</time></trkpt><trkpt lat="43.5643317" lon="11.6034433"><ele>182.79999999999998</ele><time>2026-05-02T08:08:01.952Z</time></trkpt><trkpt lat="43.564245" lon="11.60337"><ele>181.6</ele><time>2026-05-02T08:08:02.954Z</time></trkpt><trkpt lat="43.5641617" lon="11.6032967"><ele>180.4</ele><time>2026-05-02T08:08:03.955Z</time></trkpt><trkpt lat="43.5640833" lon="11.603225"><ele>179.2</ele><time>2026-05-02T08:08:04.954Z</time></trkpt><trkpt lat="43.5640033" lon="11.6031517"><ele>178.0</ele><time>2026-05-02T08:08:05.952Z</time></trkpt><trkpt lat="43.5639267" lon="11.60308"><ele>178.0</ele><time>2026-05-02T08:08:06.953Z</time></trkpt><trkpt lat="43.5638467" lon="11.60301"><ele>178.0</ele><time>2026-05-02T08:08:07.954Z</time></trkpt><trkpt lat="43.563765" lon="11.60294"><ele>178.0</ele><time>2026-05-02T08:08:08.954Z</time></trkpt><trkpt lat="43.5636783" lon="11.6028683"><ele>178.0</ele><time>2026-05-02T08:08:09.953Z</time></trkpt><trkpt lat="43.563595" lon="11.6028"><ele>178.0</ele><time>2026-05-02T08:08:10.953Z</time></trkpt><trkpt lat="43.5635117" lon="11.6027333"><ele>178.0</ele><time>2026-05-02T08:08:11.952Z</time></trkpt><trkpt lat="43.56343" lon="11.6026667"><ele>178.0</ele><time>2026-05-02T08:08:12.955Z</time></trkpt><trkpt lat="43.5633467" lon="11.6026"><ele>178.0</ele><time>2026-05-02T08:08:13.954Z</time></trkpt><trkpt lat="43.5632683" lon="11.6025333"><ele>178.0</ele><time>2026-05-02T08:08:14.956Z</time></trkpt><trkpt lat="43.5631933" lon="11.6024667"><ele>178.0</ele><time>2026-05-02T08:08:15.953Z</time></trkpt><trkpt lat="43.5631167" lon="11.6024"><ele>178.0</ele><time>2026-05-02T08:08:16.953Z</time></trkpt><trkpt lat="43.5630433" lon="11.602335"><ele>178.0</ele><time>2026-05-02T08:08:17.953Z</time></trkpt><trkpt lat="43.5629667" lon="11.6022717"><ele>178.0</ele><time>2026-05-02T08:08:18.953Z</time></trkpt><trkpt lat="43.5628917" lon="11.6022033"><ele>178.0</ele><time>2026-05-02T08:08:19.953Z</time></trkpt><trkpt lat="43.5628183" lon="11.60214"><ele>178.0</ele><time>2026-05-02T08:08:20.956Z</time></trkpt><trkpt lat="43.562745" lon="11.6020783"><ele>178.0</ele><time>2026-05-02T08:08:21.955Z</time></trkpt><trkpt lat="43.5626733" lon="11.6020167"><ele>178.4</ele><time>2026-05-02T08:08:22.953Z</time></trkpt><trkpt lat="43.5625983" lon="11.6019517"><ele>178.8</ele><time>2026-05-02T08:08:23.951Z</time></trkpt><trkpt lat="43.56252" lon="11.601885"><ele>179.2</ele><time>2026-05-02T08:08:24.952Z</time></trkpt><trkpt lat="43.5624417" lon="11.60182"><ele>179.6</ele><time>2026-05-02T08:08:25.953Z</time></trkpt><trkpt lat="43.562365" lon="11.6017567"><ele>180.0</ele><time>2026-05-02T08:08:26.954Z</time></trkpt><trkpt lat="43.5622917" lon="11.6016883"><ele>180.0</ele><time>2026-05-02T08:08:27.953Z</time></trkpt><trkpt lat="43.5622183" lon="11.601625"><ele>180.0</ele><time>2026-05-02T08:08:28.954Z</time></trkpt><trkpt lat="43.5621417" lon="11.6015583"><ele>180.0</ele><time>2026-05-02T08:08:29.952Z</time></trkpt><trkpt lat="43.5620683" lon="11.6014933"><ele>180.0</ele><time>2026-05-02T08:08:30.954Z</time></trkpt><trkpt lat="43.5619933" lon="11.601425"><ele>180.0</ele><time>2026-05-02T08:08:31.953Z</time></trkpt><trkpt lat="43.5619167" lon="11.60136"><ele>180.0</ele><time>2026-05-02T08:08:32.954Z</time></trkpt><trkpt lat="43.56184" lon="11.601295"><ele>179.4</ele><time>2026-05-02T08:08:33.955Z</time></trkpt><trkpt lat="43.5617633" lon="11.6012317"><ele>178.8</ele><time>2026-05-02T08:08:34.953Z</time></trkpt><trkpt lat="43.5616817" lon="11.601165"><ele>178.2</ele><time>2026-05-02T08:08:35.953Z</time></trkpt><trkpt lat="43.5616017" lon="11.6010983"><ele>177.6</ele><time>2026-05-02T08:08:36.952Z</time></trkpt><trkpt lat="43.5615217" lon="11.60103"><ele>177.0</ele><time>2026-05-02T08:08:37.954Z</time></trkpt><trkpt lat="43.56144" lon="11.6009583"><ele>177.0</ele><time>2026-05-02T08:08:38.954Z</time></trkpt><trkpt lat="43.56136" lon="11.6008883"><ele>177.0</ele><time>2026-05-02T08:08:39.951Z</time></trkpt><trkpt lat="43.56128" lon="11.600815"><ele>177.0</ele><time>2026-05-02T08:08:40.953Z</time></trkpt><trkpt lat="43.5612" lon="11.600745"><ele>177.0</ele><time>2026-05-02T08:08:41.956Z</time></trkpt><trkpt lat="43.56112" lon="11.6006767"><ele>177.0</ele><time>2026-05-02T08:08:42.953Z</time></trkpt><trkpt lat="43.561035" lon="11.600605"><ele>176.0</ele><time>2026-05-02T08:08:43.955Z</time></trkpt><trkpt lat="43.5609533" lon="11.6005333"><ele>175.0</ele><time>2026-05-02T08:08:44.953Z</time></trkpt><trkpt lat="43.560865" lon="11.6004583"><ele>174.0</ele><time>2026-05-02T08:08:45.955Z</time></trkpt><trkpt lat="43.560775" lon="11.6003833"><ele>173.0</ele><time>2026-05-02T08:08:46.952Z</time></trkpt><trkpt lat="43.560685" lon="11.6003067"><ele>172.0</ele><time>2026-05-02T08:08:47.953Z</time></trkpt><trkpt lat="43.5605933" lon="11.6002283"><ele>172.0</ele><time>2026-05-02T08:08:48.953Z</time></trkpt><trkpt lat="43.5605" lon="11.6001517"><ele>172.0</ele><time>2026-05-02T08:08:49.952Z</time></trkpt><trkpt lat="43.5604083" lon="11.6000767"><ele>172.0</ele><time>2026-05-02T08:08:50.953Z</time></trkpt><trkpt lat="43.5603183" lon="11.6"><ele>172.0</ele><time>2026-05-02T08:08:51.951Z</time></trkpt><trkpt lat="43.5602317" lon="11.5999217"><ele>172.0</ele><time>2026-05-02T08:08:52.954Z</time></trkpt><trkpt lat="43.5601417" lon="11.5998467"><ele>171.6</ele><time>2026-05-02T08:08:53.953Z</time></trkpt><trkpt lat="43.5600517" lon="11.5997683"><ele>171.2</ele><time>2026-05-02T08:08:54.954Z</time></trkpt><trkpt lat="43.5599583" lon="11.59969"><ele>170.8</ele><time>2026-05-02T08:08:55.953Z</time></trkpt><trkpt lat="43.5598667" lon="11.599615"><ele>170.4</ele><time>2026-05-02T08:08:56.955Z</time></trkpt><trkpt lat="43.5597733" lon="11.5995367"><ele>170.0</ele><time>2026-05-02T08:08:57.952Z</time></trkpt><trkpt lat="43.559685" lon="11.5994583"><ele>170.0</ele><time>2026-05-02T08:08:58.954Z</time></trkpt><trkpt lat="43.5595967" lon="11.5993783"><ele>170.0</ele><time>2026-05-02T08:08:59.953Z</time></trkpt><trkpt lat="43.5595033" lon="11.5993033"><ele>170.0</ele><time>2026-05-02T08:09:00.955Z</time></trkpt><trkpt lat="43.5594133" lon="11.5992317"><ele>170.0</ele><time>2026-05-02T08:09:01.954Z</time></trkpt><trkpt lat="43.5593233" lon="11.59916"><ele>170.0</ele><time>2026-05-02T08:09:02.953Z</time></trkpt><trkpt lat="43.5592317" lon="11.5990833"><ele>168.8</ele><time>2026-05-02T08:09:03.955Z</time></trkpt><trkpt lat="43.55914" lon="11.5990017"><ele>167.6</ele><time>2026-05-02T08:09:04.955Z</time></trkpt><trkpt lat="43.559045" lon="11.5989167"><ele>166.39999999999998</ele><time>2026-05-02T08:09:05.953Z</time></trkpt><trkpt lat="43.5589467" lon="11.598835"><ele>165.2</ele><time>2026-05-02T08:09:06.953Z</time></trkpt><trkpt lat="43.558855" lon="11.5987517"><ele>164.0</ele><time>2026-05-02T08:09:07.955Z</time></trkpt><trkpt lat="43.5587633" lon="11.5986667"><ele>162.79999999999998</ele><time>2026-05-02T08:09:08.951Z</time></trkpt><trkpt lat="43.558675" lon="11.598585"><ele>161.6</ele><time>2026-05-02T08:09:09.953Z</time></trkpt><trkpt lat="43.5585883" lon="11.5985067"><ele>160.4</ele><time>2026-05-02T08:09:10.955Z</time></trkpt><trkpt lat="43.5584967" lon="11.598435"><ele>159.2</ele><time>2026-05-02T08:09:11.954Z</time></trkpt><trkpt lat="43.5584083" lon="11.5983617"><ele>158.0</ele><time>2026-05-02T08:09:12.954Z</time></trkpt><trkpt lat="43.5583283" lon="11.5982917"><ele>158.0</ele><time>2026-05-02T08:09:13.952Z</time></trkpt><trkpt lat="43.5582433" lon="11.59822"><ele>158.0</ele><time>2026-05-02T08:09:14.954Z</time></trkpt><trkpt lat="43.5581567" lon="11.5981483"><ele>158.0</ele><time>2026-05-02T08:09:15.954Z</time></trkpt><trkpt lat="43.5580667" lon="11.5980733"><ele>158.0</ele><time>2026-05-02T08:09:16.953Z</time></trkpt><trkpt lat="43.5579817" lon="11.598005"><ele>158.0</ele><time>2026-05-02T08:09:17.956Z</time></trkpt><trkpt lat="43.5578867" lon="11.59794"><ele>157.8</ele><time>2026-05-02T08:09:18.954Z</time></trkpt><trkpt lat="43.5577967" lon="11.59788"><ele>157.60000000000002</ele><time>2026-05-02T08:09:19.953Z</time></trkpt><trkpt lat="43.5577067" lon="11.5978283"><ele>157.39999999999998</ele><time>2026-05-02T08:09:20.954Z</time></trkpt><trkpt lat="43.5576217" lon="11.5977833"><ele>157.2</ele><time>2026-05-02T08:09:21.955Z</time></trkpt><trkpt lat="43.5575317" lon="11.5977617"><ele>157.0</ele><time>2026-05-02T08:09:22.954Z</time></trkpt><trkpt lat="43.5574383" lon="11.59775"><ele>157.0</ele><time>2026-05-02T08:09:23.954Z</time></trkpt><trkpt lat="43.557345" lon="11.597745"><ele>157.0</ele><time>2026-05-02T08:09:24.953Z</time></trkpt><trkpt lat="43.5572467" lon="11.5977383"><ele>157.0</ele><time>2026-05-02T08:09:25.953Z</time></trkpt><trkpt lat="43.5571467" lon="11.5977333"><ele>157.0</ele><time>2026-05-02T08:09:26.955Z</time></trkpt><trkpt lat="43.5570517" lon="11.59773"><ele>157.0</ele><time>2026-05-02T08:09:27.954Z</time></trkpt><trkpt lat="43.5569567" lon="11.597725"><ele>156.79999999999998</ele><time>2026-05-02T08:09:28.954Z</time></trkpt><trkpt lat="43.55686" lon="11.59772"><ele>156.6</ele><time>2026-05-02T08:09:29.952Z</time></trkpt><trkpt lat="43.5567667" lon="11.597715"><ele>156.39999999999998</ele><time>2026-05-02T08:09:30.956Z</time></trkpt><trkpt lat="43.556675" lon="11.59771"><ele>156.2</ele><time>2026-05-02T08:09:31.952Z</time></trkpt><trkpt lat="43.5565817" lon="11.597705"><ele>156.0</ele><time>2026-05-02T08:09:32.953Z</time></trkpt><trkpt lat="43.5564933" lon="11.5977017"><ele>156.0</ele><time>2026-05-02T08:09:33.953Z</time></trkpt><trkpt lat="43.5564017" lon="11.5976983"><ele>156.0</ele><time>2026-05-02T08:09:34.952Z</time></trkpt><trkpt lat="43.5563117" lon="11.5976933"><ele>156.0</ele><time>2026-05-02T08:09:35.954Z</time></trkpt><trkpt lat="43.5562233" lon="11.5976867"><ele>156.0</ele><time>2026-05-02T08:09:36.954Z</time></trkpt><trkpt lat="43.55614" lon="11.5976783"><ele>156.0</ele><time>2026-05-02T08:09:37.953Z</time></trkpt><trkpt lat="43.55606" lon="11.5976617"><ele>156.0</ele><time>2026-05-02T08:09:38.953Z</time></trkpt><trkpt lat="43.5559867" lon="11.597635"><ele>156.0</ele><time>2026-05-02T08:09:39.955Z</time></trkpt><trkpt lat="43.5559217" lon="11.597605"><ele>156.0</ele><time>2026-05-02T08:09:40.953Z</time></trkpt><trkpt lat="43.55582" lon="11.5975283"><ele>156.0</ele><time>2026-05-02T08:09:42.953Z</time></trkpt><trkpt lat="43.5557383" lon="11.5974133"><ele>156.0</ele><time>2026-05-02T08:09:44.954Z</time></trkpt><trkpt lat="43.5557017" lon="11.5973383"><ele>156.0</ele><time>2026-05-02T08:09:45.953Z</time></trkpt><trkpt lat="43.5556667" lon="11.5972617"><ele>156.0</ele><time>2026-05-02T08:09:46.953Z</time></trkpt><trkpt lat="43.5556267" lon="11.5971867"><ele>156.0</ele><time>2026-05-02T08:09:47.955Z</time></trkpt><trkpt lat="43.5555817" lon="11.597115"><ele>156.0</ele><time>2026-05-02T08:09:48.956Z</time></trkpt><trkpt lat="43.5555317" lon="11.5970533"><ele>156.0</ele><time>2026-05-02T08:09:49.954Z</time></trkpt><trkpt lat="43.55547" lon="11.5970083"><ele>156.0</ele><time>2026-05-02T08:09:50.955Z</time></trkpt><trkpt lat="43.5554017" lon="11.5969817"><ele>156.0</ele><time>2026-05-02T08:09:51.951Z</time></trkpt><trkpt lat="43.5553333" lon="11.596975"><ele>156.0</ele><time>2026-05-02T08:09:52.955Z</time></trkpt><trkpt lat="43.555265" lon="11.5969867"><ele>156.0</ele><time>2026-05-02T08:09:53.954Z</time></trkpt><trkpt lat="43.5551967" lon="11.5970117"><ele>155.71428571428572</ele><time>2026-05-02T08:09:54.956Z</time></trkpt><trkpt lat="43.55513" lon="11.5970433"><ele>155.42857142857142</ele><time>2026-05-02T08:09:55.953Z</time></trkpt><trkpt lat="43.5550617" lon="11.5970783"><ele>155.14285714285714</ele><time>2026-05-02T08:09:56.954Z</time></trkpt><trkpt lat="43.5549917" lon="11.5971083"><ele>154.85714285714286</ele><time>2026-05-02T08:09:57.953Z</time></trkpt><trkpt lat="43.5549217" lon="11.597125"><ele>154.57142857142856</ele><time>2026-05-02T08:09:58.955Z</time></trkpt><trkpt lat="43.5548433" lon="11.597125"><ele>154.28571428571428</ele><time>2026-05-02T08:09:59.953Z</time></trkpt><trkpt lat="43.55477" lon="11.5971067"><ele>154.0</ele><time>2026-05-02T08:10:00.953Z</time></trkpt><trkpt lat="43.5546983" lon="11.5970783"><ele>154.0</ele><time>2026-05-02T08:10:01.953Z</time></trkpt><trkpt lat="43.5546283" lon="11.59705"><ele>154.0</ele><time>2026-05-02T08:10:02.951Z</time></trkpt><trkpt lat="43.554555" lon="11.5970183"><ele>154.0</ele><time>2026-05-02T08:10:03.95Z</time></trkpt><trkpt lat="43.5544833" lon="11.5969883"><ele>154.0</ele><time>2026-05-02T08:10:04.951Z</time></trkpt><trkpt lat="43.5544133" lon="11.5969567"><ele>154.0</ele><time>2026-05-02T08:10:05.952Z</time></trkpt><trkpt lat="43.5543417" lon="11.5969233"><ele>154.0</ele><time>2026-05-02T08:10:06.951Z</time></trkpt><trkpt lat="43.5542683" lon="11.59689"><ele>153.85714285714286</ele><time>2026-05-02T08:10:07.951Z</time></trkpt><trkpt lat="43.5541967" lon="11.5968567"><ele>153.71428571428572</ele><time>2026-05-02T08:10:08.952Z</time></trkpt><trkpt lat="43.5541283" lon="11.5968267"><ele>153.57142857142856</ele><time>2026-05-02T08:10:09.952Z</time></trkpt><trkpt lat="43.55406" lon="11.596795"><ele>153.42857142857144</ele><time>2026-05-02T08:10:10.95Z</time></trkpt><trkpt lat="43.5539933" lon="11.5967633"><ele>153.28571428571428</ele><time>2026-05-02T08:10:11.956Z</time></trkpt><trkpt lat="43.553925" lon="11.5967333"><ele>153.14285714285714</ele><time>2026-05-02T08:10:12.954Z</time></trkpt><trkpt lat="43.553855" lon="11.5967017"><ele>153.0</ele><time>2026-05-02T08:10:13.953Z</time></trkpt><trkpt lat="43.5537833" lon="11.5966717"><ele>153.0</ele><time>2026-05-02T08:10:14.955Z</time></trkpt><trkpt lat="43.5537167" lon="11.5966433"><ele>153.0</ele><time>2026-05-02T08:10:15.955Z</time></trkpt><trkpt lat="43.5536517" lon="11.5966133"><ele>153.0</ele><time>2026-05-02T08:10:16.954Z</time></trkpt><trkpt lat="43.553585" lon="11.596585"><ele>153.0</ele><time>2026-05-02T08:10:17.955Z</time></trkpt><trkpt lat="43.5535167" lon="11.596555"><ele>153.0</ele><time>2026-05-02T08:10:18.955Z</time></trkpt><trkpt lat="43.55345" lon="11.5965267"><ele>153.0</ele><time>2026-05-02T08:10:19.955Z</time></trkpt><trkpt lat="43.55338" lon="11.5964967"><ele>153.0</ele><time>2026-05-02T08:10:20.955Z</time></trkpt><trkpt lat="43.5533133" lon="11.5964667"><ele>153.0</ele><time>2026-05-02T08:10:21.954Z</time></trkpt><trkpt lat="43.5532467" lon="11.5964367"><ele>153.0</ele><time>2026-05-02T08:10:22.955Z</time></trkpt><trkpt lat="43.5531767" lon="11.59641"><ele>153.0</ele><time>2026-05-02T08:10:23.953Z</time></trkpt><trkpt lat="43.55311" lon="11.59638"><ele>153.0</ele><time>2026-05-02T08:10:24.952Z</time></trkpt><trkpt lat="43.5530483" lon="11.5963517"><ele>153.0</ele><time>2026-05-02T08:10:25.954Z</time></trkpt><trkpt lat="43.5529333" lon="11.5962917"><ele>153.0</ele><time>2026-05-02T08:10:27.954Z</time></trkpt><trkpt lat="43.5528233" lon="11.5962383"><ele>154.16666666666666</ele><time>2026-05-02T08:10:29.952Z</time></trkpt><trkpt lat="43.55272" lon="11.5961917"><ele>155.33333333333334</ele><time>2026-05-02T08:10:31.954Z</time></trkpt><trkpt lat="43.5526367" lon="11.5961567"><ele>156.5</ele><time>2026-05-02T08:10:33.955Z</time></trkpt><trkpt lat="43.55257" lon="11.5961167"><ele>157.66666666666669</ele><time>2026-05-02T08:10:35.953Z</time></trkpt><trkpt lat="43.5525033" lon="11.596085"><ele>158.83333333333334</ele><time>2026-05-02T08:10:37.953Z</time></trkpt><trkpt lat="43.5524367" lon="11.59605"><ele>160.0</ele><time>2026-05-02T08:10:39.953Z</time></trkpt><trkpt lat="43.5523633" lon="11.596015"><ele>160.0</ele><time>2026-05-02T08:10:41.954Z</time></trkpt><trkpt lat="43.5523017" lon="11.5959833"><ele>160.0</ele><time>2026-05-02T08:10:43.954Z</time></trkpt><trkpt lat="43.5522283" lon="11.59595"><ele>160.0</ele><time>2026-05-02T08:10:45.953Z</time></trkpt><trkpt lat="43.5521517" lon="11.595905"><ele>160.0</ele><time>2026-05-02T08:10:47.952Z</time></trkpt><trkpt lat="43.5520717" lon="11.5958617"><ele>160.0</ele><time>2026-05-02T08:10:49.953Z</time></trkpt><trkpt lat="43.55198" lon="11.5958083"><ele>160.0</ele><time>2026-05-02T08:10:51.952Z</time></trkpt><trkpt lat="43.5518917" lon="11.5957567"><ele>160.6</ele><time>2026-05-02T08:10:53.953Z</time></trkpt><trkpt lat="43.5518083" lon="11.5956933"><ele>161.2</ele><time>2026-05-02T08:10:55.953Z</time></trkpt><trkpt lat="43.5517233" lon="11.595635"><ele>161.8</ele><time>2026-05-02T08:10:57.954Z</time></trkpt><trkpt lat="43.551635" lon="11.5955817"><ele>162.4</ele><time>2026-05-02T08:10:59.951Z</time></trkpt><trkpt lat="43.5515483" lon="11.595515"><ele>163.0</ele><time>2026-05-02T08:11:01.954Z</time></trkpt><trkpt lat="43.5514633" lon="11.5954417"><ele>163.0</ele><time>2026-05-02T08:11:03.953Z</time></trkpt><trkpt lat="43.5513717" lon="11.5953633"><ele>163.0</ele><time>2026-05-02T08:11:05.955Z</time></trkpt><trkpt lat="43.551265" lon="11.5952733"><ele>163.0</ele><time>2026-05-02T08:11:07.952Z</time></trkpt><trkpt lat="43.5512083" lon="11.5952317"><ele>163.0</ele><time>2026-05-02T08:11:08.954Z</time></trkpt><trkpt lat="43.55115" lon="11.5951883"><ele>163.0</ele><time>2026-05-02T08:11:09.953Z</time></trkpt><trkpt lat="43.5510917" lon="11.5951417"><ele>163.0</ele><time>2026-05-02T08:11:10.953Z</time></trkpt><trkpt lat="43.5510367" lon="11.5950933"><ele>163.0</ele><time>2026-05-02T08:11:11.952Z</time></trkpt><trkpt lat="43.5509783" lon="11.59505"><ele>163.0</ele><time>2026-05-02T08:11:12.954Z</time></trkpt><trkpt lat="43.5509217" lon="11.5950033"><ele>163.0</ele><time>2026-05-02T08:11:13.953Z</time></trkpt><trkpt lat="43.5508217" lon="11.594905"><ele>163.0</ele><time>2026-05-02T08:11:15.956Z</time></trkpt><trkpt lat="43.5507683" lon="11.5948567"><ele>163.0</ele><time>2026-05-02T08:11:16.952Z</time></trkpt><trkpt lat="43.550715" lon="11.5948067"><ele>163.0</ele><time>2026-05-02T08:11:17.953Z</time></trkpt><trkpt lat="43.5506667" lon="11.59475"><ele>163.0</ele><time>2026-05-02T08:11:18.953Z</time></trkpt><trkpt lat="43.550615" lon="11.5946917"><ele>163.0</ele><time>2026-05-02T08:11:19.954Z</time></trkpt><trkpt lat="43.5505633" lon="11.594635"><ele>163.0</ele><time>2026-05-02T08:11:20.956Z</time></trkpt><trkpt lat="43.5505083" lon="11.594575"><ele>163.0</ele><time>2026-05-02T08:11:21.953Z</time></trkpt><trkpt lat="43.5504533" lon="11.5945217"><ele>163.0</ele><time>2026-05-02T08:11:22.953Z</time></trkpt><trkpt lat="43.5504" lon="11.59447"><ele>163.0</ele><time>2026-05-02T08:11:23.954Z</time></trkpt><trkpt lat="43.5503433" lon="11.59442"><ele>163.0</ele><time>2026-05-02T08:11:24.953Z</time></trkpt><trkpt lat="43.5502867" lon="11.5943667"><ele>163.0</ele><time>2026-05-02T08:11:25.956Z</time></trkpt><trkpt lat="43.5502283" lon="11.5943117"><ele>163.57142857142858</ele><time>2026-05-02T08:11:26.954Z</time></trkpt><trkpt lat="43.55017" lon="11.5942567"><ele>164.14285714285714</ele><time>2026-05-02T08:11:27.954Z</time></trkpt><trkpt lat="43.5501117" lon="11.5942"><ele>164.71428571428572</ele><time>2026-05-02T08:11:28.951Z</time></trkpt><trkpt lat="43.550055" lon="11.5941417"><ele>165.28571428571428</ele><time>2026-05-02T08:11:29.951Z</time></trkpt><trkpt lat="43.5500033" lon="11.5940867"><ele>165.85714285714286</ele><time>2026-05-02T08:11:30.95Z</time></trkpt><trkpt lat="43.5499433" lon="11.59403"><ele>166.42857142857142</ele><time>2026-05-02T08:11:31.951Z</time></trkpt><trkpt lat="43.5498833" lon="11.5939767"><ele>167.0</ele><time>2026-05-02T08:11:32.951Z</time></trkpt><trkpt lat="43.5498267" lon="11.5939217"><ele>167.0</ele><time>2026-05-02T08:11:33.951Z</time></trkpt><trkpt lat="43.5497667" lon="11.5938633"><ele>167.0</ele><time>2026-05-02T08:11:34.951Z</time></trkpt><trkpt lat="43.549705" lon="11.5938"><ele>167.0</ele><time>2026-05-02T08:11:35.952Z</time></trkpt><trkpt lat="43.549645" lon="11.59374"><ele>167.0</ele><time>2026-05-02T08:11:36.952Z</time></trkpt><trkpt lat="43.54958" lon="11.5936783"><ele>167.0</ele><time>2026-05-02T08:11:37.951Z</time></trkpt><trkpt lat="43.5495117" lon="11.5936167"><ele>167.0</ele><time>2026-05-02T08:11:38.954Z</time></trkpt><trkpt lat="43.5494433" lon="11.593555"><ele>166.0</ele><time>2026-05-02T08:11:39.953Z</time></trkpt><trkpt lat="43.549375" lon="11.59349"><ele>165.0</ele><time>2026-05-02T08:11:40.953Z</time></trkpt><trkpt lat="43.549305" lon="11.593425"><ele>164.0</ele><time>2026-05-02T08:11:41.954Z</time></trkpt><trkpt lat="43.5492333" lon="11.5933567"><ele>163.0</ele><time>2026-05-02T08:11:42.952Z</time></trkpt><trkpt lat="43.5491583" lon="11.5932867"><ele>162.0</ele><time>2026-05-02T08:11:43.953Z</time></trkpt><trkpt lat="43.54908" lon="11.5932117"><ele>161.0</ele><time>2026-05-02T08:11:44.955Z</time></trkpt><trkpt lat="43.5489983" lon="11.5931317"><ele>161.0</ele><time>2026-05-02T08:11:45.954Z</time></trkpt><trkpt lat="43.548915" lon="11.5930517"><ele>161.0</ele><time>2026-05-02T08:11:46.952Z</time></trkpt><trkpt lat="43.5488283" lon="11.5929683"><ele>161.0</ele><time>2026-05-02T08:11:47.954Z</time></trkpt><trkpt lat="43.5487417" lon="11.592885"><ele>161.0</ele><time>2026-05-02T08:11:48.953Z</time></trkpt><trkpt lat="43.5486567" lon="11.5928"><ele>161.0</ele><time>2026-05-02T08:11:49.954Z</time></trkpt><trkpt lat="43.548575" lon="11.5927067"><ele>158.75</ele><time>2026-05-02T08:11:50.955Z</time></trkpt><trkpt lat="43.5484917" lon="11.5926067"><ele>156.5</ele><time>2026-05-02T08:11:51.952Z</time></trkpt><trkpt lat="43.54841" lon="11.592505"><ele>154.25</ele><time>2026-05-02T08:11:52.954Z</time></trkpt><trkpt lat="43.54833" lon="11.59239"><ele>152.0</ele><time>2026-05-02T08:11:53.954Z</time></trkpt><trkpt lat="43.5482583" lon="11.5922667"><ele>152.0</ele><time>2026-05-02T08:11:54.953Z</time></trkpt><trkpt lat="43.5481917" lon="11.592135"><ele>152.0</ele><time>2026-05-02T08:11:55.956Z</time></trkpt><trkpt lat="43.5481333" lon="11.5919933"><ele>152.0</ele><time>2026-05-02T08:11:56.956Z</time></trkpt><trkpt lat="43.5480783" lon="11.5918467"><ele>152.0</ele><time>2026-05-02T08:11:57.953Z</time></trkpt><trkpt lat="43.5480317" lon="11.5916983"><ele>152.0</ele><time>2026-05-02T08:11:58.953Z</time></trkpt><trkpt lat="43.5479917" lon="11.5915467"><ele>152.0</ele><time>2026-05-02T08:11:59.952Z</time></trkpt><trkpt lat="43.5479583" lon="11.5913967"><ele>152.0</ele><time>2026-05-02T08:12:00.956Z</time></trkpt><trkpt lat="43.5479267" lon="11.5912483"><ele>152.0</ele><time>2026-05-02T08:12:01.954Z</time></trkpt><trkpt lat="43.5479" lon="11.5910983"><ele>152.6</ele><time>2026-05-02T08:12:02.953Z</time></trkpt><trkpt lat="43.547875" lon="11.59095"><ele>153.2</ele><time>2026-05-02T08:12:03.953Z</time></trkpt><trkpt lat="43.54785" lon="11.590805"><ele>153.8</ele><time>2026-05-02T08:12:04.955Z</time></trkpt><trkpt lat="43.547825" lon="11.5906633"><ele>154.4</ele><time>2026-05-02T08:12:05.957Z</time></trkpt><trkpt lat="43.5477983" lon="11.5905267"><ele>155.0</ele><time>2026-05-02T08:12:06.956Z</time></trkpt><trkpt lat="43.5477783" lon="11.590395"><ele>154.4</ele><time>2026-05-02T08:12:07.954Z</time></trkpt><trkpt lat="43.5477583" lon="11.59026"><ele>153.8</ele><time>2026-05-02T08:12:08.955Z</time></trkpt><trkpt lat="43.54774" lon="11.590125"><ele>153.2</ele><time>2026-05-02T08:12:09.952Z</time></trkpt><trkpt lat="43.5477233" lon="11.5899917"><ele>152.6</ele><time>2026-05-02T08:12:10.955Z</time></trkpt><trkpt lat="43.5477033" lon="11.5898617"><ele>152.0</ele><time>2026-05-02T08:12:11.953Z</time></trkpt><trkpt lat="43.5476817" lon="11.5897317"><ele>152.0</ele><time>2026-05-02T08:12:12.954Z</time></trkpt><trkpt lat="43.5476583" lon="11.589605"><ele>152.0</ele><time>2026-05-02T08:12:13.954Z</time></trkpt><trkpt lat="43.5476333" lon="11.5894817"><ele>152.0</ele><time>2026-05-02T08:12:14.956Z</time></trkpt><trkpt lat="43.5476067" lon="11.589355"><ele>152.0</ele><time>2026-05-02T08:12:15.954Z</time></trkpt><trkpt lat="43.5475783" lon="11.5892333"><ele>152.0</ele><time>2026-05-02T08:12:16.955Z</time></trkpt><trkpt lat="43.5475467" lon="11.5891083"><ele>152.2</ele><time>2026-05-02T08:12:17.954Z</time></trkpt><trkpt lat="43.54751" lon="11.5889817"><ele>152.39999999999998</ele><time>2026-05-02T08:12:18.956Z</time></trkpt><trkpt lat="43.5474667" lon="11.5888583"><ele>152.60000000000002</ele><time>2026-05-02T08:12:19.952Z</time></trkpt><trkpt lat="43.5474133" lon="11.5887417"><ele>152.8</ele><time>2026-05-02T08:12:20.955Z</time></trkpt><trkpt lat="43.547355" lon="11.5886283"><ele>153.0</ele><time>2026-05-02T08:12:21.953Z</time></trkpt><trkpt lat="43.5472967" lon="11.5885183"><ele>152.6</ele><time>2026-05-02T08:12:22.954Z</time></trkpt><trkpt lat="43.5472383" lon="11.5884067"><ele>152.20000000000002</ele><time>2026-05-02T08:12:23.954Z</time></trkpt><trkpt lat="43.547175" lon="11.588295"><ele>151.8</ele><time>2026-05-02T08:12:24.953Z</time></trkpt><trkpt lat="43.5471117" lon="11.588185"><ele>151.4</ele><time>2026-05-02T08:12:25.955Z</time></trkpt><trkpt lat="43.5470483" lon="11.5880783"><ele>151.0</ele><time>2026-05-02T08:12:26.956Z</time></trkpt><trkpt lat="43.5469883" lon="11.58797"><ele>151.4</ele><time>2026-05-02T08:12:27.955Z</time></trkpt><trkpt lat="43.5469317" lon="11.5878583"><ele>151.8</ele><time>2026-05-02T08:12:28.954Z</time></trkpt><trkpt lat="43.5468833" lon="11.5877417"><ele>152.20000000000002</ele><time>2026-05-02T08:12:29.953Z</time></trkpt><trkpt lat="43.5468417" lon="11.5876183"><ele>152.6</ele><time>2026-05-02T08:12:30.955Z</time></trkpt><trkpt lat="43.5468033" lon="11.587495"><ele>153.0</ele><time>2026-05-02T08:12:31.954Z</time></trkpt><trkpt lat="43.5467733" lon="11.58737"><ele>153.0</ele><time>2026-05-02T08:12:32.955Z</time></trkpt><trkpt lat="43.5467433" lon="11.5872467"><ele>153.0</ele><time>2026-05-02T08:12:33.954Z</time></trkpt><trkpt lat="43.546715" lon="11.587125"><ele>153.0</ele><time>2026-05-02T08:12:34.953Z</time></trkpt><trkpt lat="43.546685" lon="11.587"><ele>153.0</ele><time>2026-05-02T08:12:35.955Z</time></trkpt><trkpt lat="43.54665" lon="11.58688"><ele>153.0</ele><time>2026-05-02T08:12:36.955Z</time></trkpt><trkpt lat="43.5466117" lon="11.586765"><ele>152.66666666666666</ele><time>2026-05-02T08:12:37.953Z</time></trkpt><trkpt lat="43.54657" lon="11.5866567"><ele>152.33333333333334</ele><time>2026-05-02T08:12:38.954Z</time></trkpt><trkpt lat="43.546525" lon="11.5865533"><ele>152.0</ele><time>2026-05-02T08:12:39.955Z</time></trkpt><trkpt lat="43.54648" lon="11.5864483"><ele>151.66666666666669</ele><time>2026-05-02T08:12:40.954Z</time></trkpt><trkpt lat="43.5464333" lon="11.58634"><ele>151.33333333333334</ele><time>2026-05-02T08:12:41.956Z</time></trkpt><trkpt lat="43.546385" lon="11.5862333"><ele>151.0</ele><time>2026-05-02T08:12:42.954Z</time></trkpt><trkpt lat="43.5463417" lon="11.5861267"><ele>150.5</ele><time>2026-05-02T08:12:43.952Z</time></trkpt><trkpt lat="43.5463033" lon="11.58602"><ele>150.0</ele><time>2026-05-02T08:12:44.955Z</time></trkpt><trkpt lat="43.546265" lon="11.5859183"><ele>149.5</ele><time>2026-05-02T08:12:45.953Z</time></trkpt><trkpt lat="43.5462283" lon="11.5858183"><ele>149.0</ele><time>2026-05-02T08:12:46.953Z</time></trkpt><trkpt lat="43.5461917" lon="11.5857217"><ele>148.5</ele><time>2026-05-02T08:12:47.956Z</time></trkpt><trkpt lat="43.546155" lon="11.58563"><ele>148.0</ele><time>2026-05-02T08:12:48.955Z</time></trkpt><trkpt lat="43.54612" lon="11.5855333"><ele>148.71428571428572</ele><time>2026-05-02T08:12:49.953Z</time></trkpt><trkpt lat="43.5460883" lon="11.585435"><ele>149.42857142857142</ele><time>2026-05-02T08:12:50.955Z</time></trkpt><trkpt lat="43.5460533" lon="11.58534"><ele>150.14285714285714</ele><time>2026-05-02T08:12:51.954Z</time></trkpt><trkpt lat="43.5460233" lon="11.58525"><ele>150.85714285714286</ele><time>2026-05-02T08:12:52.953Z</time></trkpt><trkpt lat="43.5459917" lon="11.5851583"><ele>151.57142857142858</ele><time>2026-05-02T08:12:53.954Z</time></trkpt><trkpt lat="43.5459633" lon="11.5850733"><ele>152.28571428571428</ele><time>2026-05-02T08:12:54.954Z</time></trkpt><trkpt lat="43.5459333" lon="11.584985"><ele>153.0</ele><time>2026-05-02T08:12:55.953Z</time></trkpt><trkpt lat="43.5459033" lon="11.5849017"><ele>153.0</ele><time>2026-05-02T08:12:56.956Z</time></trkpt><trkpt lat="43.5458733" lon="11.5848183"><ele>153.0</ele><time>2026-05-02T08:12:57.954Z</time></trkpt><trkpt lat="43.5458433" lon="11.5847317"><ele>153.0</ele><time>2026-05-02T08:12:58.957Z</time></trkpt><trkpt lat="43.5458067" lon="11.5846433"><ele>153.0</ele><time>2026-05-02T08:12:59.955Z</time></trkpt><trkpt lat="43.5457733" lon="11.5845583"><ele>153.0</ele><time>2026-05-02T08:13:00.952Z</time></trkpt><trkpt lat="43.545735" lon="11.5844733"><ele>153.0</ele><time>2026-05-02T08:13:01.953Z</time></trkpt><trkpt lat="43.5457067" lon="11.5843883"><ele>153.0</ele><time>2026-05-02T08:13:02.954Z</time></trkpt><trkpt lat="43.5456767" lon="11.584305"><ele>152.28571428571428</ele><time>2026-05-02T08:13:03.953Z</time></trkpt><trkpt lat="43.5456483" lon="11.58422"><ele>151.57142857142858</ele><time>2026-05-02T08:13:04.953Z</time></trkpt><trkpt lat="43.54562" lon="11.5841317"><ele>150.85714285714286</ele><time>2026-05-02T08:13:05.954Z</time></trkpt><trkpt lat="43.54559" lon="11.5840433"><ele>150.14285714285714</ele><time>2026-05-02T08:13:06.953Z</time></trkpt><trkpt lat="43.5455567" lon="11.5839517"><ele>149.42857142857142</ele><time>2026-05-02T08:13:07.955Z</time></trkpt><trkpt lat="43.5455233" lon="11.583865"><ele>148.71428571428572</ele><time>2026-05-02T08:13:08.954Z</time></trkpt><trkpt lat="43.5454983" lon="11.5837783"><ele>148.0</ele><time>2026-05-02T08:13:09.954Z</time></trkpt><trkpt lat="43.5454717" lon="11.5836867"><ele>148.28571428571428</ele><time>2026-05-02T08:13:10.955Z</time></trkpt><trkpt lat="43.545445" lon="11.5835933"><ele>148.57142857142856</ele><time>2026-05-02T08:13:11.953Z</time></trkpt><trkpt lat="43.5454183" lon="11.5835033"><ele>148.85714285714283</ele><time>2026-05-02T08:13:12.954Z</time></trkpt><trkpt lat="43.5453933" lon="11.583415"><ele>149.14285714285714</ele><time>2026-05-02T08:13:13.954Z</time></trkpt><trkpt lat="43.54537" lon="11.5833267"><ele>149.42857142857142</ele><time>2026-05-02T08:13:14.955Z</time></trkpt><trkpt lat="43.5453533" lon="11.5832333"><ele>149.7142857142857</ele><time>2026-05-02T08:13:15.954Z</time></trkpt><trkpt lat="43.5453383" lon="11.5831417"><ele>150.0</ele><time>2026-05-02T08:13:16.954Z</time></trkpt><trkpt lat="43.545325" lon="11.5830467"><ele>150.28571428571428</ele><time>2026-05-02T08:13:17.954Z</time></trkpt><trkpt lat="43.545315" lon="11.5829517"><ele>150.57142857142856</ele><time>2026-05-02T08:13:18.952Z</time></trkpt><trkpt lat="43.5453033" lon="11.582855"><ele>150.85714285714283</ele><time>2026-05-02T08:13:19.953Z</time></trkpt><trkpt lat="43.5452967" lon="11.582755"><ele>151.14285714285714</ele><time>2026-05-02T08:13:20.954Z</time></trkpt><trkpt lat="43.545295" lon="11.582655"><ele>151.42857142857144</ele><time>2026-05-02T08:13:21.953Z</time></trkpt><trkpt lat="43.5452933" lon="11.5825517"><ele>151.7142857142857</ele><time>2026-05-02T08:13:22.952Z</time></trkpt><trkpt lat="43.5452933" lon="11.58245"><ele>152.0</ele><time>2026-05-02T08:13:23.953Z</time></trkpt><trkpt lat="43.5452917" lon="11.5823517"><ele>152.0</ele><time>2026-05-02T08:13:24.951Z</time></trkpt><trkpt lat="43.54529" lon="11.5822617"><ele>152.0</ele><time>2026-05-02T08:13:25.954Z</time></trkpt><trkpt lat="43.545295" lon="11.5821633"><ele>152.0</ele><time>2026-05-02T08:13:26.954Z</time></trkpt><trkpt lat="43.5452967" lon="11.5820617"><ele>152.0</ele><time>2026-05-02T08:13:27.954Z</time></trkpt><trkpt lat="43.5452967" lon="11.5819583"><ele>152.0</ele><time>2026-05-02T08:13:28.955Z</time></trkpt><trkpt lat="43.5453" lon="11.581855"><ele>152.0</ele><time>2026-05-02T08:13:29.954Z</time></trkpt><trkpt lat="43.5453067" lon="11.5817467"><ele>152.0</ele><time>2026-05-02T08:13:30.953Z</time></trkpt><trkpt lat="43.54531" lon="11.58164"><ele>152.14285714285714</ele><time>2026-05-02T08:13:31.954Z</time></trkpt><trkpt lat="43.5453133" lon="11.581535"><ele>152.2857142857143</ele><time>2026-05-02T08:13:32.953Z</time></trkpt><trkpt lat="43.54532" lon="11.5814317"><ele>152.42857142857144</ele><time>2026-05-02T08:13:33.954Z</time></trkpt><trkpt lat="43.5453267" lon="11.58133"><ele>152.57142857142856</ele><time>2026-05-02T08:13:34.951Z</time></trkpt><trkpt lat="43.5453333" lon="11.58123"><ele>152.71428571428572</ele><time>2026-05-02T08:13:35.953Z</time></trkpt><trkpt lat="43.54534" lon="11.5811317"><ele>152.85714285714286</ele><time>2026-05-02T08:13:36.954Z</time></trkpt><trkpt lat="43.5453483" lon="11.5810367"><ele>153.0</ele><time>2026-05-02T08:13:37.953Z</time></trkpt><trkpt lat="43.5453567" lon="11.5809317"><ele>153.16666666666666</ele><time>2026-05-02T08:13:38.953Z</time></trkpt><trkpt lat="43.5453667" lon="11.5808333"><ele>153.33333333333334</ele><time>2026-05-02T08:13:39.953Z</time></trkpt><trkpt lat="43.5453817" lon="11.5807233"><ele>153.5</ele><time>2026-05-02T08:13:40.953Z</time></trkpt><trkpt lat="43.5454017" lon="11.58061"><ele>153.66666666666669</ele><time>2026-05-02T08:13:41.954Z</time></trkpt><trkpt lat="43.5454233" lon="11.580495"><ele>153.83333333333334</ele><time>2026-05-02T08:13:42.955Z</time></trkpt><trkpt lat="43.5454483" lon="11.58038"><ele>154.0</ele><time>2026-05-02T08:13:43.953Z</time></trkpt><trkpt lat="43.545475" lon="11.580265"><ele>153.16666666666669</ele><time>2026-05-02T08:13:44.954Z</time></trkpt><trkpt lat="43.5455033" lon="11.5801533"><ele>152.33333333333334</ele><time>2026-05-02T08:13:45.955Z</time></trkpt><trkpt lat="43.5455367" lon="11.5800483"><ele>151.5</ele><time>2026-05-02T08:13:46.953Z</time></trkpt><trkpt lat="43.5455733" lon="11.5799367"><ele>150.66666666666666</ele><time>2026-05-02T08:13:47.953Z</time></trkpt><trkpt lat="43.5456117" lon="11.5798283"><ele>149.83333333333331</ele><time>2026-05-02T08:13:48.954Z</time></trkpt><trkpt lat="43.545655" lon="11.5797167"><ele>149.0</ele><time>2026-05-02T08:13:49.953Z</time></trkpt><trkpt lat="43.5457033" lon="11.5796117"><ele>148.8</ele><time>2026-05-02T08:13:50.956Z</time></trkpt><trkpt lat="43.5457567" lon="11.5795067"><ele>148.60000000000002</ele><time>2026-05-02T08:13:51.954Z</time></trkpt><trkpt lat="43.54581" lon="11.5794017"><ele>148.4</ele><time>2026-05-02T08:13:52.952Z</time></trkpt><trkpt lat="43.5458667" lon="11.5793017"><ele>148.20000000000002</ele><time>2026-05-02T08:13:53.954Z</time></trkpt><trkpt lat="43.54593" lon="11.5792033"><ele>148.0</ele><time>2026-05-02T08:13:54.955Z</time></trkpt><trkpt lat="43.5459933" lon="11.57911"><ele>148.0</ele><time>2026-05-02T08:13:55.952Z</time></trkpt><trkpt lat="43.5460583" lon="11.5790183"><ele>148.0</ele><time>2026-05-02T08:13:56.953Z</time></trkpt><trkpt lat="43.54613" lon="11.5789317"><ele>148.0</ele><time>2026-05-02T08:13:57.953Z</time></trkpt><trkpt lat="43.5462067" lon="11.5788483"><ele>148.0</ele><time>2026-05-02T08:13:58.951Z</time></trkpt><trkpt lat="43.5462867" lon="11.5787633"><ele>148.0</ele><time>2026-05-02T08:13:59.954Z</time></trkpt><trkpt lat="43.5463617" lon="11.5786833"><ele>146.20000000000002</ele><time>2026-05-02T08:14:00.952Z</time></trkpt><trkpt lat="43.546435" lon="11.5786017"><ele>144.4</ele><time>2026-05-02T08:14:01.952Z</time></trkpt><trkpt lat="43.5465083" lon="11.5785233"><ele>142.60000000000002</ele><time>2026-05-02T08:14:02.953Z</time></trkpt><trkpt lat="43.5465783" lon="11.5784483"><ele>140.8</ele><time>2026-05-02T08:14:03.954Z</time></trkpt><trkpt lat="43.5466517" lon="11.5783767"><ele>139.0</ele><time>2026-05-02T08:14:04.951Z</time></trkpt><trkpt lat="43.546725" lon="11.5782933"><ele>139.0</ele><time>2026-05-02T08:14:05.952Z</time></trkpt><trkpt lat="43.5468033" lon="11.5782083"><ele>139.0</ele><time>2026-05-02T08:14:06.952Z</time></trkpt><trkpt lat="43.54688" lon="11.578125"><ele>139.0</ele><time>2026-05-02T08:14:07.952Z</time></trkpt><trkpt lat="43.5469617" lon="11.5780383"><ele>139.0</ele><time>2026-05-02T08:14:08.952Z</time></trkpt><trkpt lat="43.5470533" lon="11.57798"><ele>139.0</ele><time>2026-05-02T08:14:09.965Z</time></trkpt><trkpt lat="43.5471483" lon="11.5779533"><ele>139.8</ele><time>2026-05-02T08:14:10.952Z</time></trkpt><trkpt lat="43.547245" lon="11.577955"><ele>140.60000000000002</ele><time>2026-05-02T08:14:11.951Z</time></trkpt><trkpt lat="43.54734" lon="11.5779833"><ele>141.4</ele><time>2026-05-02T08:14:12.953Z</time></trkpt><trkpt lat="43.5474333" lon="11.5780133"><ele>142.20000000000002</ele><time>2026-05-02T08:14:13.952Z</time></trkpt><trkpt lat="43.5475233" lon="11.578025"><ele>143.0</ele><time>2026-05-02T08:14:14.953Z</time></trkpt><trkpt lat="43.5476083" lon="11.5780117"><ele>143.0</ele><time>2026-05-02T08:14:15.952Z</time></trkpt><trkpt lat="43.547685" lon="11.5779733"><ele>143.0</ele><time>2026-05-02T08:14:16.954Z</time></trkpt><trkpt lat="43.54775" lon="11.5779117"><ele>143.0</ele><time>2026-05-02T08:14:17.951Z</time></trkpt><trkpt lat="43.547805" lon="11.5778333"><ele>143.0</ele><time>2026-05-02T08:14:18.951Z</time></trkpt><trkpt lat="43.5478417" lon="11.57774"><ele>143.0</ele><time>2026-05-02T08:14:19.952Z</time></trkpt><trkpt lat="43.54786" lon="11.5776367"><ele>143.0</ele><time>2026-05-02T08:14:20.956Z</time></trkpt><trkpt lat="43.547865" lon="11.5775283"><ele>143.0</ele><time>2026-05-02T08:14:21.952Z</time></trkpt><trkpt lat="43.5478533" lon="11.5774183"><ele>143.0</ele><time>2026-05-02T08:14:22.952Z</time></trkpt><trkpt lat="43.5478283" lon="11.5773067"><ele>143.0</ele><time>2026-05-02T08:14:23.952Z</time></trkpt><trkpt lat="43.547795" lon="11.5772"><ele>143.0</ele><time>2026-05-02T08:14:24.953Z</time></trkpt><trkpt lat="43.5477483" lon="11.5770983"><ele>143.0</ele><time>2026-05-02T08:14:25.954Z</time></trkpt><trkpt lat="43.54769" lon="11.5770083"><ele>143.0</ele><time>2026-05-02T08:14:26.952Z</time></trkpt><trkpt lat="43.547625" lon="11.57694"><ele>143.0</ele><time>2026-05-02T08:14:27.952Z</time></trkpt><trkpt lat="43.5475517" lon="11.576885"><ele>143.0</ele><time>2026-05-02T08:14:28.952Z</time></trkpt><trkpt lat="43.5474733" lon="11.5768383"><ele>143.0</ele><time>2026-05-02T08:14:29.952Z</time></trkpt><trkpt lat="43.5473933" lon="11.5767917"><ele>143.0</ele><time>2026-05-02T08:14:30.952Z</time></trkpt><trkpt lat="43.5473183" lon="11.57674"><ele>143.0</ele><time>2026-05-02T08:14:31.953Z</time></trkpt><trkpt lat="43.5472533" lon="11.5766683"><ele>143.0</ele><time>2026-05-02T08:14:32.953Z</time></trkpt><trkpt lat="43.5471967" lon="11.57658"><ele>143.0</ele><time>2026-05-02T08:14:33.953Z</time></trkpt><trkpt lat="43.5471567" lon="11.5764883"><ele>143.0</ele><time>2026-05-02T08:14:34.953Z</time></trkpt><trkpt lat="43.547115" lon="11.5763917"><ele>143.0</ele><time>2026-05-02T08:14:35.952Z</time></trkpt><trkpt lat="43.5470733" lon="11.576295"><ele>143.0</ele><time>2026-05-02T08:14:36.952Z</time></trkpt><trkpt lat="43.5470317" lon="11.5761983"><ele>143.0</ele><time>2026-05-02T08:14:37.952Z</time></trkpt><trkpt lat="43.5469933" lon="11.5761067"><ele>143.0</ele><time>2026-05-02T08:14:38.953Z</time></trkpt><trkpt lat="43.5469533" lon="11.576015"><ele>142.83333333333331</ele><time>2026-05-02T08:14:39.951Z</time></trkpt><trkpt lat="43.5469083" lon="11.5759233"><ele>142.66666666666666</ele><time>2026-05-02T08:14:40.952Z</time></trkpt><trkpt lat="43.5468633" lon="11.5758317"><ele>142.5</ele><time>2026-05-02T08:14:41.951Z</time></trkpt><trkpt lat="43.54682" lon="11.5757433"><ele>142.33333333333334</ele><time>2026-05-02T08:14:42.952Z</time></trkpt><trkpt lat="43.546775" lon="11.575655"><ele>142.16666666666669</ele><time>2026-05-02T08:14:43.951Z</time></trkpt><trkpt lat="43.54673" lon="11.575565"><ele>142.0</ele><time>2026-05-02T08:14:44.951Z</time></trkpt><trkpt lat="43.5466833" lon="11.5754767"><ele>142.0</ele><time>2026-05-02T08:14:45.951Z</time></trkpt><trkpt lat="43.5466333" lon="11.5753867"><ele>142.0</ele><time>2026-05-02T08:14:46.952Z</time></trkpt><trkpt lat="43.5465917" lon="11.5752983"><ele>142.0</ele><time>2026-05-02T08:14:47.956Z</time></trkpt><trkpt lat="43.5465433" lon="11.57521"><ele>142.0</ele><time>2026-05-02T08:14:48.953Z</time></trkpt><trkpt lat="43.546495" lon="11.5751183"><ele>142.0</ele><time>2026-05-02T08:14:49.956Z</time></trkpt><trkpt lat="43.5464467" lon="11.5750317"><ele>142.0</ele><time>2026-05-02T08:14:50.954Z</time></trkpt><trkpt lat="43.5463983" lon="11.574945"><ele>141.83333333333334</ele><time>2026-05-02T08:14:51.953Z</time></trkpt><trkpt lat="43.5463533" lon="11.57486"><ele>141.66666666666669</ele><time>2026-05-02T08:14:52.954Z</time></trkpt><trkpt lat="43.5463067" lon="11.5747733"><ele>141.5</ele><time>2026-05-02T08:14:53.954Z</time></trkpt><trkpt lat="43.5462583" lon="11.57469"><ele>141.33333333333334</ele><time>2026-05-02T08:14:54.955Z</time></trkpt><trkpt lat="43.5462067" lon="11.5746117"><ele>141.16666666666666</ele><time>2026-05-02T08:14:55.956Z</time></trkpt><trkpt lat="43.546155" lon="11.5745333"><ele>141.0</ele><time>2026-05-02T08:14:56.954Z</time></trkpt><trkpt lat="43.546105" lon="11.5744533"><ele>141.0</ele><time>2026-05-02T08:14:57.953Z</time></trkpt><trkpt lat="43.546055" lon="11.57437"><ele>141.0</ele><time>2026-05-02T08:14:58.953Z</time></trkpt><trkpt lat="43.5460067" lon="11.574285"><ele>141.0</ele><time>2026-05-02T08:14:59.954Z</time></trkpt><trkpt lat="43.5459683" lon="11.5741967"><ele>141.0</ele><time>2026-05-02T08:15:00.955Z</time></trkpt><trkpt lat="43.5459383" lon="11.5740983"><ele>141.0</ele><time>2026-05-02T08:15:01.951Z</time></trkpt><trkpt lat="43.5459167" lon="11.573995"><ele>141.0</ele><time>2026-05-02T08:15:02.953Z</time></trkpt><trkpt lat="43.5459033" lon="11.57389"><ele>141.0</ele><time>2026-05-02T08:15:03.953Z</time></trkpt><trkpt lat="43.5458983" lon="11.5737883"><ele>141.0</ele><time>2026-05-02T08:15:04.951Z</time></trkpt><trkpt lat="43.5458983" lon="11.5736867"><ele>141.0</ele><time>2026-05-02T08:15:05.954Z</time></trkpt><trkpt lat="43.5459083" lon="11.57359"><ele>141.0</ele><time>2026-05-02T08:15:06.954Z</time></trkpt><trkpt lat="43.5459317" lon="11.5734983"><ele>141.0</ele><time>2026-05-02T08:15:07.953Z</time></trkpt><trkpt lat="43.5459517" lon="11.5734067"><ele>141.0</ele><time>2026-05-02T08:15:08.953Z</time></trkpt><trkpt lat="43.5459767" lon="11.57332"><ele>141.0</ele><time>2026-05-02T08:15:09.953Z</time></trkpt><trkpt lat="43.5459983" lon="11.573235"><ele>141.0</ele><time>2026-05-02T08:15:10.952Z</time></trkpt><trkpt lat="43.5460433" lon="11.5730717"><ele>141.0</ele><time>2026-05-02T08:15:12.953Z</time></trkpt><trkpt lat="43.5460883" lon="11.5729067"><ele>141.0</ele><time>2026-05-02T08:15:14.954Z</time></trkpt><trkpt lat="43.5461117" lon="11.572825"><ele>141.0</ele><time>2026-05-02T08:15:15.954Z</time></trkpt><trkpt lat="43.54615" lon="11.5726667"><ele>141.0</ele><time>2026-05-02T08:15:17.95Z</time></trkpt><trkpt lat="43.5461683" lon="11.57258"><ele>141.0</ele><time>2026-05-02T08:15:18.953Z</time></trkpt><trkpt lat="43.5461833" lon="11.5724883"><ele>141.0</ele><time>2026-05-02T08:15:19.952Z</time></trkpt><trkpt lat="43.5461983" lon="11.572385"><ele>141.0</ele><time>2026-05-02T08:15:20.953Z</time></trkpt><trkpt lat="43.5462067" lon="11.5722717"><ele>141.0</ele><time>2026-05-02T08:15:21.952Z</time></trkpt><trkpt lat="43.5462083" lon="11.5721483"><ele>141.0</ele><time>2026-05-02T08:15:22.951Z</time></trkpt><trkpt lat="43.5462133" lon="11.572025"><ele>141.0</ele><time>2026-05-02T08:15:23.953Z</time></trkpt><trkpt lat="43.5462217" lon="11.5718967"><ele>141.0</ele><time>2026-05-02T08:15:24.953Z</time></trkpt><trkpt lat="43.546235" lon="11.57176"><ele>141.0</ele><time>2026-05-02T08:15:25.955Z</time></trkpt><trkpt lat="43.5462467" lon="11.5716317"><ele>141.0</ele><time>2026-05-02T08:15:26.954Z</time></trkpt><trkpt lat="43.5462617" lon="11.5715"><ele>141.0</ele><time>2026-05-02T08:15:27.954Z</time></trkpt><trkpt lat="43.5462733" lon="11.5713767"><ele>141.0</ele><time>2026-05-02T08:15:28.953Z</time></trkpt><trkpt lat="43.5462667" lon="11.57127"><ele>140.85714285714286</ele><time>2026-05-02T08:15:29.953Z</time></trkpt><trkpt lat="43.5462483" lon="11.5711667"><ele>140.71428571428572</ele><time>2026-05-02T08:15:30.954Z</time></trkpt><trkpt lat="43.5462083" lon="11.5710833"><ele>140.57142857142856</ele><time>2026-05-02T08:15:31.953Z</time></trkpt><trkpt lat="43.54616" lon="11.57102"><ele>140.42857142857144</ele><time>2026-05-02T08:15:32.954Z</time></trkpt><trkpt lat="43.54609" lon="11.57102"><ele>140.28571428571428</ele><time>2026-05-02T08:15:33.954Z</time></trkpt><trkpt lat="43.5460117" lon="11.5710333"><ele>140.14285714285714</ele><time>2026-05-02T08:15:34.953Z</time></trkpt><trkpt lat="43.5459383" lon="11.57104"><ele>140.0</ele><time>2026-05-02T08:15:35.954Z</time></trkpt><trkpt lat="43.54587" lon="11.5710433"><ele>140.0</ele><time>2026-05-02T08:15:36.953Z</time></trkpt><trkpt lat="43.5458017" lon="11.5710483"><ele>140.0</ele><time>2026-05-02T08:15:37.951Z</time></trkpt><trkpt lat="43.54573" lon="11.5710533"><ele>140.0</ele><time>2026-05-02T08:15:38.952Z</time></trkpt><trkpt lat="43.545655" lon="11.57105"><ele>140.0</ele><time>2026-05-02T08:15:39.953Z</time></trkpt><trkpt lat="43.5455767" lon="11.5710417"><ele>140.0</ele><time>2026-05-02T08:15:40.954Z</time></trkpt><trkpt lat="43.54549" lon="11.5710333"><ele>140.0</ele><time>2026-05-02T08:15:41.953Z</time></trkpt><trkpt lat="43.5453983" lon="11.5710233"><ele>140.2</ele><time>2026-05-02T08:15:42.952Z</time></trkpt><trkpt lat="43.545305" lon="11.5710183"><ele>140.4</ele><time>2026-05-02T08:15:43.953Z</time></trkpt><trkpt lat="43.5452067" lon="11.571025"><ele>140.6</ele><time>2026-05-02T08:15:44.954Z</time></trkpt><trkpt lat="43.5451133" lon="11.57104"><ele>140.8</ele><time>2026-05-02T08:15:45.952Z</time></trkpt><trkpt lat="43.5450233" lon="11.5710617"><ele>141.0</ele><time>2026-05-02T08:15:46.952Z</time></trkpt><trkpt lat="43.54492" lon="11.5710917"><ele>141.0</ele><time>2026-05-02T08:15:47.953Z</time></trkpt><trkpt lat="43.5448233" lon="11.5711333"><ele>141.0</ele><time>2026-05-02T08:15:48.952Z</time></trkpt><trkpt lat="43.5447317" lon="11.5711817"><ele>141.0</ele><time>2026-05-02T08:15:49.953Z</time></trkpt><trkpt lat="43.544645" lon="11.5712333"><ele>141.0</ele><time>2026-05-02T08:15:50.954Z</time></trkpt><trkpt lat="43.5445567" lon="11.57128"><ele>141.0</ele><time>2026-05-02T08:15:51.955Z</time></trkpt><trkpt lat="43.5444633" lon="11.5713167"><ele>141.0</ele><time>2026-05-02T08:15:52.952Z</time></trkpt><trkpt lat="43.544375" lon="11.5713267"><ele>141.0</ele><time>2026-05-02T08:15:53.953Z</time></trkpt><trkpt lat="43.5442867" lon="11.5713017"><ele>141.0</ele><time>2026-05-02T08:15:54.953Z</time></trkpt><trkpt lat="43.5442067" lon="11.571245"><ele>141.0</ele><time>2026-05-02T08:15:55.952Z</time></trkpt><trkpt lat="43.5441333" lon="11.5711717"><ele>141.0</ele><time>2026-05-02T08:15:56.954Z</time></trkpt><trkpt lat="43.5440717" lon="11.571085"><ele>141.0</ele><time>2026-05-02T08:15:57.952Z</time></trkpt><trkpt lat="43.5440133" lon="11.5709983"><ele>141.0</ele><time>2026-05-02T08:15:58.952Z</time></trkpt><trkpt lat="43.54396" lon="11.5709133"><ele>141.0</ele><time>2026-05-02T08:15:59.951Z</time></trkpt><trkpt lat="43.54391" lon="11.5708283"><ele>141.0</ele><time>2026-05-02T08:16:00.954Z</time></trkpt><trkpt lat="43.5438633" lon="11.5707417"><ele>141.0</ele><time>2026-05-02T08:16:01.955Z</time></trkpt><trkpt lat="43.5438167" lon="11.5706517"><ele>141.0</ele><time>2026-05-02T08:16:02.954Z</time></trkpt><trkpt lat="43.5437733" lon="11.5705667"><ele>141.0</ele><time>2026-05-02T08:16:03.953Z</time></trkpt><trkpt lat="43.5437317" lon="11.5704867"><ele>140.83333333333334</ele><time>2026-05-02T08:16:04.952Z</time></trkpt><trkpt lat="43.543685" lon="11.5704067"><ele>140.66666666666666</ele><time>2026-05-02T08:16:05.954Z</time></trkpt><trkpt lat="43.5436333" lon="11.5703233"><ele>140.5</ele><time>2026-05-02T08:16:06.955Z</time></trkpt><trkpt lat="43.5435733" lon="11.5702333"><ele>140.33333333333331</ele><time>2026-05-02T08:16:07.953Z</time></trkpt><trkpt lat="43.5435083" lon="11.5701367"><ele>140.16666666666666</ele><time>2026-05-02T08:16:08.954Z</time></trkpt><trkpt lat="43.5434483" lon="11.570035"><ele>140.0</ele><time>2026-05-02T08:16:09.952Z</time></trkpt><trkpt lat="43.543385" lon="11.5699417"><ele>140.0</ele><time>2026-05-02T08:16:10.954Z</time></trkpt><trkpt lat="43.5433167" lon="11.56987"><ele>140.0</ele><time>2026-05-02T08:16:11.951Z</time></trkpt><trkpt lat="43.54324" lon="11.5698433"><ele>140.0</ele><time>2026-05-02T08:16:12.953Z</time></trkpt><trkpt lat="43.5431617" lon="11.5698617"><ele>140.0</ele><time>2026-05-02T08:16:13.954Z</time></trkpt><trkpt lat="43.54309" lon="11.56991"><ele>140.0</ele><time>2026-05-02T08:16:14.956Z</time></trkpt><trkpt lat="43.5430217" lon="11.5699683"><ele>140.0</ele><time>2026-05-02T08:16:15.954Z</time></trkpt><trkpt lat="43.542955" lon="11.5700333"><ele>140.0</ele><time>2026-05-02T08:16:16.952Z</time></trkpt><trkpt lat="43.542895" lon="11.5701"><ele>140.0</ele><time>2026-05-02T08:16:17.954Z</time></trkpt><trkpt lat="43.542835" lon="11.57017"><ele>140.0</ele><time>2026-05-02T08:16:18.953Z</time></trkpt><trkpt lat="43.5427783" lon="11.5702367"><ele>140.0</ele><time>2026-05-02T08:16:19.953Z</time></trkpt><trkpt lat="43.5427233" lon="11.570305"><ele>140.0</ele><time>2026-05-02T08:16:20.954Z</time></trkpt><trkpt lat="43.5426667" lon="11.57037"><ele>140.0</ele><time>2026-05-02T08:16:21.953Z</time></trkpt><trkpt lat="43.5426133" lon="11.570435"><ele>140.0</ele><time>2026-05-02T08:16:22.955Z</time></trkpt><trkpt lat="43.54256" lon="11.5704967"><ele>140.14285714285714</ele><time>2026-05-02T08:16:23.953Z</time></trkpt><trkpt lat="43.542505" lon="11.5705633"><ele>140.28571428571428</ele><time>2026-05-02T08:16:24.951Z</time></trkpt><trkpt lat="43.5424483" lon="11.5706333"><ele>140.42857142857144</ele><time>2026-05-02T08:16:25.954Z</time></trkpt><trkpt lat="43.542395" lon="11.5706983"><ele>140.57142857142856</ele><time>2026-05-02T08:16:26.953Z</time></trkpt><trkpt lat="43.5423417" lon="11.570765"><ele>140.71428571428572</ele><time>2026-05-02T08:16:27.954Z</time></trkpt><trkpt lat="43.5422883" lon="11.5708267"><ele>140.85714285714286</ele><time>2026-05-02T08:16:28.954Z</time></trkpt><trkpt lat="43.542235" lon="11.5708817"><ele>141.0</ele><time>2026-05-02T08:16:29.953Z</time></trkpt><trkpt lat="43.5421783" lon="11.57093"><ele>141.0</ele><time>2026-05-02T08:16:30.954Z</time></trkpt><trkpt lat="43.5421133" lon="11.57095"><ele>141.0</ele><time>2026-05-02T08:16:31.952Z</time></trkpt><trkpt lat="43.5420483" lon="11.570945"><ele>141.0</ele><time>2026-05-02T08:16:32.953Z</time></trkpt><trkpt lat="43.541985" lon="11.57093"><ele>141.0</ele><time>2026-05-02T08:16:33.954Z</time></trkpt><trkpt lat="43.5419233" lon="11.5709117"><ele>141.0</ele><time>2026-05-02T08:16:34.954Z</time></trkpt><trkpt lat="43.5418567" lon="11.5708933"><ele>141.0</ele><time>2026-05-02T08:16:35.953Z</time></trkpt><trkpt lat="43.5417933" lon="11.5708733"><ele>141.0</ele><time>2026-05-02T08:16:36.955Z</time></trkpt><trkpt lat="43.5417283" lon="11.570855"><ele>140.66666666666666</ele><time>2026-05-02T08:16:37.953Z</time></trkpt><trkpt lat="43.54166" lon="11.5708367"><ele>140.33333333333334</ele><time>2026-05-02T08:16:38.952Z</time></trkpt><trkpt lat="43.5415967" lon="11.5708167"><ele>140.0</ele><time>2026-05-02T08:16:39.954Z</time></trkpt><trkpt lat="43.54147" lon="11.5707867"><ele>139.66666666666669</ele><time>2026-05-02T08:16:41.954Z</time></trkpt><trkpt lat="43.5414033" lon="11.5707733"><ele>139.33333333333334</ele><time>2026-05-02T08:16:42.954Z</time></trkpt><trkpt lat="43.541335" lon="11.5707583"><ele>139.0</ele><time>2026-05-02T08:16:43.953Z</time></trkpt><trkpt lat="43.54127" lon="11.5707383"><ele>139.42857142857142</ele><time>2026-05-02T08:16:44.953Z</time></trkpt><trkpt lat="43.541205" lon="11.57072"><ele>139.85714285714286</ele><time>2026-05-02T08:16:45.953Z</time></trkpt><trkpt lat="43.5411417" lon="11.5707"><ele>140.28571428571428</ele><time>2026-05-02T08:16:46.954Z</time></trkpt><trkpt lat="43.5410783" lon="11.5706817"><ele>140.71428571428572</ele><time>2026-05-02T08:16:47.953Z</time></trkpt><trkpt lat="43.5410133" lon="11.5706667"><ele>141.14285714285714</ele><time>2026-05-02T08:16:48.954Z</time></trkpt><trkpt lat="43.5409483" lon="11.57065"><ele>141.57142857142856</ele><time>2026-05-02T08:16:49.953Z</time></trkpt><trkpt lat="43.5408817" lon="11.5706333"><ele>142.0</ele><time>2026-05-02T08:16:50.954Z</time></trkpt><trkpt lat="43.5408167" lon="11.5706183"><ele>142.0</ele><time>2026-05-02T08:16:51.953Z</time></trkpt><trkpt lat="43.5407533" lon="11.5706017"><ele>142.0</ele><time>2026-05-02T08:16:52.952Z</time></trkpt><trkpt lat="43.5406867" lon="11.5705817"><ele>142.0</ele><time>2026-05-02T08:16:53.954Z</time></trkpt><trkpt lat="43.5406117" lon="11.5705483"><ele>142.0</ele><time>2026-05-02T08:16:54.953Z</time></trkpt><trkpt lat="43.5405433" lon="11.570505"><ele>142.0</ele><time>2026-05-02T08:16:55.953Z</time></trkpt><trkpt lat="43.5404833" lon="11.570445"><ele>142.0</ele><time>2026-05-02T08:16:56.954Z</time></trkpt><trkpt lat="43.5404217" lon="11.5703833"><ele>142.0</ele><time>2026-05-02T08:16:57.954Z</time></trkpt><trkpt lat="43.5403583" lon="11.57034"><ele>141.85714285714286</ele><time>2026-05-02T08:16:58.954Z</time></trkpt><trkpt lat="43.5402883" lon="11.5703283"><ele>141.7142857142857</ele><time>2026-05-02T08:16:59.952Z</time></trkpt><trkpt lat="43.540225" lon="11.570355"><ele>141.57142857142856</ele><time>2026-05-02T08:17:00.953Z</time></trkpt><trkpt lat="43.5401717" lon="11.5704117"><ele>141.42857142857142</ele><time>2026-05-02T08:17:01.954Z</time></trkpt><trkpt lat="43.5401233" lon="11.570485"><ele>141.28571428571428</ele><time>2026-05-02T08:17:02.955Z</time></trkpt><trkpt lat="43.5400767" lon="11.5705617"><ele>141.14285714285714</ele><time>2026-05-02T08:17:03.954Z</time></trkpt><trkpt lat="43.54002" lon="11.5706233"><ele>141.0</ele><time>2026-05-02T08:17:04.953Z</time></trkpt><trkpt lat="43.5399617" lon="11.5706733"><ele>141.0</ele><time>2026-05-02T08:17:05.953Z</time></trkpt><trkpt lat="43.5399" lon="11.5707183"><ele>141.0</ele><time>2026-05-02T08:17:06.952Z</time></trkpt><trkpt lat="43.5398417" lon="11.5707667"><ele>141.0</ele><time>2026-05-02T08:17:07.953Z</time></trkpt><trkpt lat="43.5397867" lon="11.5708217"><ele>141.0</ele><time>2026-05-02T08:17:08.953Z</time></trkpt><trkpt lat="43.5397317" lon="11.5708833"><ele>141.0</ele><time>2026-05-02T08:17:09.952Z</time></trkpt><trkpt lat="43.53968" lon="11.5709467"><ele>141.0</ele><time>2026-05-02T08:17:10.953Z</time></trkpt><trkpt lat="43.5396267" lon="11.5710117"><ele>141.0</ele><time>2026-05-02T08:17:11.952Z</time></trkpt><trkpt lat="43.539575" lon="11.5710817"><ele>140.71428571428572</ele><time>2026-05-02T08:17:12.953Z</time></trkpt><trkpt lat="43.5395267" lon="11.5711533"><ele>140.42857142857142</ele><time>2026-05-02T08:17:13.954Z</time></trkpt><trkpt lat="43.5394783" lon="11.5712233"><ele>140.14285714285714</ele><time>2026-05-02T08:17:14.953Z</time></trkpt><trkpt lat="43.5394283" lon="11.5712983"><ele>139.85714285714286</ele><time>2026-05-02T08:17:15.952Z</time></trkpt><trkpt lat="43.5393833" lon="11.5713717"><ele>139.57142857142858</ele><time>2026-05-02T08:17:16.955Z</time></trkpt><trkpt lat="43.5393367" lon="11.5714467"><ele>139.28571428571428</ele><time>2026-05-02T08:17:17.952Z</time></trkpt><trkpt lat="43.53929" lon="11.57152"><ele>139.0</ele><time>2026-05-02T08:17:18.953Z</time></trkpt><trkpt lat="43.5392433" lon="11.5715933"><ele>139.0</ele><time>2026-05-02T08:17:19.952Z</time></trkpt><trkpt lat="43.5391983" lon="11.571665"><ele>139.0</ele><time>2026-05-02T08:17:20.955Z</time></trkpt><trkpt lat="43.5391517" lon="11.5717367"><ele>139.0</ele><time>2026-05-02T08:17:21.954Z</time></trkpt><trkpt lat="43.5391033" lon="11.5718133"><ele>139.0</ele><time>2026-05-02T08:17:22.953Z</time></trkpt><trkpt lat="43.539055" lon="11.57189"><ele>139.0</ele><time>2026-05-02T08:17:23.953Z</time></trkpt><trkpt lat="43.5390083" lon="11.5719667"><ele>139.0</ele><time>2026-05-02T08:17:24.954Z</time></trkpt><trkpt lat="43.5389583" lon="11.572045"><ele>139.0</ele><time>2026-05-02T08:17:25.952Z</time></trkpt><trkpt lat="43.5389117" lon="11.572125"><ele>139.42857142857142</ele><time>2026-05-02T08:17:26.954Z</time></trkpt><trkpt lat="43.5388667" lon="11.572205"><ele>139.85714285714286</ele><time>2026-05-02T08:17:27.953Z</time></trkpt><trkpt lat="43.5388217" lon="11.5722817"><ele>140.28571428571428</ele><time>2026-05-02T08:17:28.954Z</time></trkpt><trkpt lat="43.5387733" lon="11.572355"><ele>140.71428571428572</ele><time>2026-05-02T08:17:29.954Z</time></trkpt><trkpt lat="43.5387267" lon="11.5724283"><ele>141.14285714285714</ele><time>2026-05-02T08:17:30.954Z</time></trkpt><trkpt lat="43.5386817" lon="11.5725033"><ele>141.57142857142856</ele><time>2026-05-02T08:17:31.954Z</time></trkpt><trkpt lat="43.5386367" lon="11.57258"><ele>142.0</ele><time>2026-05-02T08:17:32.954Z</time></trkpt><trkpt lat="43.53859" lon="11.5726617"><ele>142.0</ele><time>2026-05-02T08:17:33.952Z</time></trkpt><trkpt lat="43.538545" lon="11.572745"><ele>142.0</ele><time>2026-05-02T08:17:34.953Z</time></trkpt><trkpt lat="43.5384983" lon="11.57283"><ele>142.0</ele><time>2026-05-02T08:17:35.954Z</time></trkpt><trkpt lat="43.5384517" lon="11.5729117"><ele>142.0</ele><time>2026-05-02T08:17:36.955Z</time></trkpt><trkpt lat="43.538405" lon="11.5729967"><ele>142.0</ele><time>2026-05-02T08:17:37.953Z</time></trkpt><trkpt lat="43.5383567" lon="11.5730817"><ele>142.0</ele><time>2026-05-02T08:17:38.954Z</time></trkpt><trkpt lat="43.5383083" lon="11.5731683"><ele>142.0</ele><time>2026-05-02T08:17:39.953Z</time></trkpt><trkpt lat="43.5382633" lon="11.5732617"><ele>142.0</ele><time>2026-05-02T08:17:40.954Z</time></trkpt><trkpt lat="43.538215" lon="11.57335"><ele>142.0</ele><time>2026-05-02T08:17:41.953Z</time></trkpt><trkpt lat="43.5381667" lon="11.5734367"><ele>142.0</ele><time>2026-05-02T08:17:42.954Z</time></trkpt><trkpt lat="43.5381167" lon="11.573525"><ele>142.0</ele><time>2026-05-02T08:17:43.954Z</time></trkpt><trkpt lat="43.53807" lon="11.57361"><ele>142.0</ele><time>2026-05-02T08:17:44.953Z</time></trkpt><trkpt lat="43.5380233" lon="11.5736983"><ele>142.16666666666669</ele><time>2026-05-02T08:17:45.954Z</time></trkpt><trkpt lat="43.5379767" lon="11.5737867"><ele>142.33333333333334</ele><time>2026-05-02T08:17:46.954Z</time></trkpt><trkpt lat="43.5379267" lon="11.5738783"><ele>142.5</ele><time>2026-05-02T08:17:47.953Z</time></trkpt><trkpt lat="43.53788" lon="11.5739667"><ele>142.66666666666666</ele><time>2026-05-02T08:17:48.953Z</time></trkpt><trkpt lat="43.53783" lon="11.5740567"><ele>142.83333333333331</ele><time>2026-05-02T08:17:49.953Z</time></trkpt><trkpt lat="43.53778" lon="11.574145"><ele>143.0</ele><time>2026-05-02T08:17:50.955Z</time></trkpt><trkpt lat="43.5377317" lon="11.5742317"><ele>143.0</ele><time>2026-05-02T08:17:51.954Z</time></trkpt><trkpt lat="43.5376867" lon="11.5743183"><ele>143.0</ele><time>2026-05-02T08:17:52.955Z</time></trkpt><trkpt lat="43.53764" lon="11.5744067"><ele>143.0</ele><time>2026-05-02T08:17:53.955Z</time></trkpt><trkpt lat="43.53759" lon="11.5744983"><ele>143.0</ele><time>2026-05-02T08:17:54.955Z</time></trkpt><trkpt lat="43.53754" lon="11.5745867"><ele>143.0</ele><time>2026-05-02T08:17:55.952Z</time></trkpt><trkpt lat="43.53749" lon="11.5746783"><ele>143.0</ele><time>2026-05-02T08:17:56.954Z</time></trkpt><trkpt lat="43.5374417" lon="11.5747683"><ele>142.66666666666666</ele><time>2026-05-02T08:17:57.954Z</time></trkpt><trkpt lat="43.5373933" lon="11.5748617"><ele>142.33333333333331</ele><time>2026-05-02T08:17:58.953Z</time></trkpt><trkpt lat="43.5373433" lon="11.5749517"><ele>142.0</ele><time>2026-05-02T08:17:59.952Z</time></trkpt><trkpt lat="43.5372917" lon="11.5750417"><ele>141.66666666666666</ele><time>2026-05-02T08:18:00.953Z</time></trkpt><trkpt lat="43.53724" lon="11.5751283"><ele>141.33333333333334</ele><time>2026-05-02T08:18:01.952Z</time></trkpt><trkpt lat="43.5371833" lon="11.5752217"><ele>141.0</ele><time>2026-05-02T08:18:02.956Z</time></trkpt><trkpt lat="43.5371333" lon="11.57531"><ele>141.0</ele><time>2026-05-02T08:18:03.954Z</time></trkpt><trkpt lat="43.5370833" lon="11.5754"><ele>141.0</ele><time>2026-05-02T08:18:04.954Z</time></trkpt><trkpt lat="43.537035" lon="11.57549"><ele>141.0</ele><time>2026-05-02T08:18:05.953Z</time></trkpt><trkpt lat="43.536985" lon="11.5755767"><ele>141.0</ele><time>2026-05-02T08:18:06.953Z</time></trkpt><trkpt lat="43.536935" lon="11.57566"><ele>141.0</ele><time>2026-05-02T08:18:07.953Z</time></trkpt><trkpt lat="43.5368833" lon="11.5757433"><ele>141.0</ele><time>2026-05-02T08:18:08.954Z</time></trkpt><trkpt lat="43.5368333" lon="11.5758317"><ele>141.0</ele><time>2026-05-02T08:18:09.954Z</time></trkpt><trkpt lat="43.5367867" lon="11.5759233"><ele>141.0</ele><time>2026-05-02T08:18:10.953Z</time></trkpt><trkpt lat="43.536735" lon="11.576015"><ele>141.0</ele><time>2026-05-02T08:18:11.953Z</time></trkpt><trkpt lat="43.536685" lon="11.5761033"><ele>141.0</ele><time>2026-05-02T08:18:12.954Z</time></trkpt><trkpt lat="43.5366333" lon="11.5761883"><ele>141.0</ele><time>2026-05-02T08:18:13.954Z</time></trkpt><trkpt lat="43.5365867" lon="11.5762733"><ele>141.0</ele><time>2026-05-02T08:18:14.953Z</time></trkpt><trkpt lat="43.5365367" lon="11.57636"><ele>141.16666666666666</ele><time>2026-05-02T08:18:15.953Z</time></trkpt><trkpt lat="43.5364867" lon="11.5764517"><ele>141.33333333333334</ele><time>2026-05-02T08:18:16.954Z</time></trkpt><trkpt lat="43.5364367" lon="11.5765417"><ele>141.5</ele><time>2026-05-02T08:18:17.952Z</time></trkpt><trkpt lat="43.5363883" lon="11.5766283"><ele>141.66666666666669</ele><time>2026-05-02T08:18:18.953Z</time></trkpt><trkpt lat="43.5363383" lon="11.5767167"><ele>141.83333333333334</ele><time>2026-05-02T08:18:19.954Z</time></trkpt><trkpt lat="43.5362883" lon="11.5768067"><ele>142.0</ele><time>2026-05-02T08:18:20.954Z</time></trkpt><trkpt lat="43.53624" lon="11.5769033"><ele>141.83333333333334</ele><time>2026-05-02T08:18:21.953Z</time></trkpt><trkpt lat="43.53619" lon="11.576995"><ele>141.66666666666669</ele><time>2026-05-02T08:18:22.954Z</time></trkpt><trkpt lat="43.5361383" lon="11.5770917"><ele>141.5</ele><time>2026-05-02T08:18:23.956Z</time></trkpt><trkpt lat="43.5360883" lon="11.5771817"><ele>141.33333333333334</ele><time>2026-05-02T08:18:24.951Z</time></trkpt><trkpt lat="43.5360367" lon="11.5772767"><ele>141.16666666666666</ele><time>2026-05-02T08:18:25.953Z</time></trkpt><trkpt lat="43.5359833" lon="11.5773733"><ele>141.0</ele><time>2026-05-02T08:18:26.954Z</time></trkpt><trkpt lat="43.5359333" lon="11.5774717"><ele>141.0</ele><time>2026-05-02T08:18:27.954Z</time></trkpt><trkpt lat="43.53588" lon="11.5775717"><ele>141.0</ele><time>2026-05-02T08:18:28.953Z</time></trkpt><trkpt lat="43.53583" lon="11.577665"><ele>141.0</ele><time>2026-05-02T08:18:29.953Z</time></trkpt><trkpt lat="43.53578" lon="11.577755"><ele>141.0</ele><time>2026-05-02T08:18:30.953Z</time></trkpt><trkpt lat="43.53573" lon="11.5778467"><ele>141.0</ele><time>2026-05-02T08:18:31.954Z</time></trkpt><trkpt lat="43.53568" lon="11.5779367"><ele>141.0</ele><time>2026-05-02T08:18:32.955Z</time></trkpt><trkpt lat="43.5356283" lon="11.5780267"><ele>141.0</ele><time>2026-05-02T08:18:33.953Z</time></trkpt><trkpt lat="43.5355783" lon="11.578115"><ele>141.0</ele><time>2026-05-02T08:18:34.955Z</time></trkpt><trkpt lat="43.5355267" lon="11.5782067"><ele>141.0</ele><time>2026-05-02T08:18:35.952Z</time></trkpt><trkpt lat="43.535475" lon="11.5782983"><ele>141.0</ele><time>2026-05-02T08:18:36.953Z</time></trkpt><trkpt lat="43.5354267" lon="11.5783867"><ele>141.0</ele><time>2026-05-02T08:18:37.953Z</time></trkpt><trkpt lat="43.5353767" lon="11.5784783"><ele>141.0</ele><time>2026-05-02T08:18:38.954Z</time></trkpt><trkpt lat="43.535325" lon="11.5785667"><ele>141.0</ele><time>2026-05-02T08:18:39.952Z</time></trkpt><trkpt lat="43.5352767" lon="11.5786533"><ele>141.0</ele><time>2026-05-02T08:18:40.956Z</time></trkpt><trkpt lat="43.535225" lon="11.5787433"><ele>141.0</ele><time>2026-05-02T08:18:41.954Z</time></trkpt><trkpt lat="43.535175" lon="11.57883"><ele>141.0</ele><time>2026-05-02T08:18:42.953Z</time></trkpt><trkpt lat="43.535125" lon="11.57892"><ele>141.0</ele><time>2026-05-02T08:18:43.954Z</time></trkpt><trkpt lat="43.5350767" lon="11.57901"><ele>141.0</ele><time>2026-05-02T08:18:44.954Z</time></trkpt><trkpt lat="43.5350267" lon="11.5791017"><ele>141.0</ele><time>2026-05-02T08:18:45.955Z</time></trkpt><trkpt lat="43.5349783" lon="11.57919"><ele>141.0</ele><time>2026-05-02T08:18:46.955Z</time></trkpt><trkpt lat="43.53493" lon="11.5792833"><ele>141.0</ele><time>2026-05-02T08:18:47.953Z</time></trkpt><trkpt lat="43.53488" lon="11.579375"><ele>141.0</ele><time>2026-05-02T08:18:48.953Z</time></trkpt><trkpt lat="43.53483" lon="11.5794683"><ele>141.0</ele><time>2026-05-02T08:18:49.953Z</time></trkpt><trkpt lat="43.534775" lon="11.57956"><ele>141.0</ele><time>2026-05-02T08:18:50.955Z</time></trkpt><trkpt lat="43.5347233" lon="11.5796533"><ele>141.33333333333334</ele><time>2026-05-02T08:18:51.953Z</time></trkpt><trkpt lat="43.5346717" lon="11.5797433"><ele>141.66666666666666</ele><time>2026-05-02T08:18:52.953Z</time></trkpt><trkpt lat="43.53462" lon="11.5798333"><ele>142.0</ele><time>2026-05-02T08:18:53.954Z</time></trkpt><trkpt lat="43.5345683" lon="11.5799217"><ele>142.33333333333331</ele><time>2026-05-02T08:18:54.953Z</time></trkpt><trkpt lat="43.534515" lon="11.5800083"><ele>142.66666666666666</ele><time>2026-05-02T08:18:55.954Z</time></trkpt><trkpt lat="43.53446" lon="11.5800933"><ele>143.0</ele><time>2026-05-02T08:18:56.954Z</time></trkpt><trkpt lat="43.534405" lon="11.5801767"><ele>143.0</ele><time>2026-05-02T08:18:57.954Z</time></trkpt><trkpt lat="43.53435" lon="11.5802633"><ele>143.0</ele><time>2026-05-02T08:18:58.955Z</time></trkpt><trkpt lat="43.5342983" lon="11.580345"><ele>143.0</ele><time>2026-05-02T08:18:59.953Z</time></trkpt><trkpt lat="43.5342433" lon="11.5804317"><ele>143.0</ele><time>2026-05-02T08:19:00.954Z</time></trkpt><trkpt lat="43.53419" lon="11.58052"><ele>143.0</ele><time>2026-05-02T08:19:01.953Z</time></trkpt><trkpt lat="43.5341333" lon="11.58061"><ele>143.0</ele><time>2026-05-02T08:19:02.954Z</time></trkpt><trkpt lat="43.5340783" lon="11.5806983"><ele>143.0</ele><time>2026-05-02T08:19:03.954Z</time></trkpt><trkpt lat="43.534025" lon="11.5807833"><ele>143.0</ele><time>2026-05-02T08:19:04.951Z</time></trkpt><trkpt lat="43.5339717" lon="11.5808733"><ele>143.0</ele><time>2026-05-02T08:19:05.953Z</time></trkpt><trkpt lat="43.53392" lon="11.58096"><ele>143.0</ele><time>2026-05-02T08:19:06.955Z</time></trkpt><trkpt lat="43.53387" lon="11.581045"><ele>143.0</ele><time>2026-05-02T08:19:07.955Z</time></trkpt><trkpt lat="43.5338167" lon="11.581135"><ele>143.0</ele><time>2026-05-02T08:19:08.956Z</time></trkpt><trkpt lat="43.5337667" lon="11.5812267"><ele>142.66666666666666</ele><time>2026-05-02T08:19:09.952Z</time></trkpt><trkpt lat="43.5337167" lon="11.5813217"><ele>142.33333333333331</ele><time>2026-05-02T08:19:10.955Z</time></trkpt><trkpt lat="43.5336667" lon="11.5814133"><ele>142.0</ele><time>2026-05-02T08:19:11.953Z</time></trkpt><trkpt lat="43.5336167" lon="11.5815067"><ele>141.66666666666666</ele><time>2026-05-02T08:19:12.953Z</time></trkpt><trkpt lat="43.5335683" lon="11.5816"><ele>141.33333333333334</ele><time>2026-05-02T08:19:13.956Z</time></trkpt><trkpt lat="43.5335183" lon="11.5816933"><ele>141.0</ele><time>2026-05-02T08:19:14.954Z</time></trkpt><trkpt lat="43.5334717" lon="11.5817883"><ele>141.0</ele><time>2026-05-02T08:19:15.955Z</time></trkpt><trkpt lat="43.5334217" lon="11.5818867"><ele>141.0</ele><time>2026-05-02T08:19:16.953Z</time></trkpt><trkpt lat="43.533375" lon="11.5819833"><ele>141.0</ele><time>2026-05-02T08:19:17.955Z</time></trkpt><trkpt lat="43.5333317" lon="11.5820767"><ele>141.0</ele><time>2026-05-02T08:19:18.954Z</time></trkpt><trkpt lat="43.533285" lon="11.5821733"><ele>141.0</ele><time>2026-05-02T08:19:19.952Z</time></trkpt><trkpt lat="43.53324" lon="11.5822633"><ele>141.0</ele><time>2026-05-02T08:19:20.956Z</time></trkpt><trkpt lat="43.5331917" lon="11.5823617"><ele>141.33333333333334</ele><time>2026-05-02T08:19:21.953Z</time></trkpt><trkpt lat="43.5331417" lon="11.58246"><ele>141.66666666666666</ele><time>2026-05-02T08:19:22.955Z</time></trkpt><trkpt lat="43.5330933" lon="11.5825567"><ele>142.0</ele><time>2026-05-02T08:19:23.954Z</time></trkpt><trkpt lat="43.5330417" lon="11.5826533"><ele>142.33333333333331</ele><time>2026-05-02T08:19:24.955Z</time></trkpt><trkpt lat="43.5329917" lon="11.5827467"><ele>142.66666666666666</ele><time>2026-05-02T08:19:25.953Z</time></trkpt><trkpt lat="43.5329433" lon="11.5828417"><ele>143.0</ele><time>2026-05-02T08:19:26.954Z</time></trkpt><trkpt lat="43.5328917" lon="11.5829333"><ele>143.0</ele><time>2026-05-02T08:19:27.953Z</time></trkpt><trkpt lat="43.5328417" lon="11.583025"><ele>143.0</ele><time>2026-05-02T08:19:28.955Z</time></trkpt><trkpt lat="43.5327933" lon="11.5831133"><ele>143.0</ele><time>2026-05-02T08:19:29.954Z</time></trkpt><trkpt lat="43.5327433" lon="11.583205"><ele>143.0</ele><time>2026-05-02T08:19:30.953Z</time></trkpt><trkpt lat="43.5326967" lon="11.5832917"><ele>143.0</ele><time>2026-05-02T08:19:31.954Z</time></trkpt><trkpt lat="43.53265" lon="11.58338"><ele>143.0</ele><time>2026-05-02T08:19:32.953Z</time></trkpt><trkpt lat="43.5326017" lon="11.58347"><ele>143.0</ele><time>2026-05-02T08:19:33.954Z</time></trkpt><trkpt lat="43.5325517" lon="11.58356"><ele>143.0</ele><time>2026-05-02T08:19:34.953Z</time></trkpt><trkpt lat="43.532505" lon="11.58365"><ele>143.0</ele><time>2026-05-02T08:19:35.953Z</time></trkpt><trkpt lat="43.532455" lon="11.5837383"><ele>143.0</ele><time>2026-05-02T08:19:36.955Z</time></trkpt><trkpt lat="43.5324033" lon="11.5838283"><ele>143.0</ele><time>2026-05-02T08:19:37.953Z</time></trkpt><trkpt lat="43.5323517" lon="11.58392"><ele>143.0</ele><time>2026-05-02T08:19:38.953Z</time></trkpt><trkpt lat="43.5323017" lon="11.5840117"><ele>143.0</ele><time>2026-05-02T08:19:39.955Z</time></trkpt><trkpt lat="43.5322533" lon="11.5841033"><ele>143.0</ele><time>2026-05-02T08:19:40.953Z</time></trkpt><trkpt lat="43.532205" lon="11.5841933"><ele>143.0</ele><time>2026-05-02T08:19:41.953Z</time></trkpt><trkpt lat="43.532155" lon="11.5842817"><ele>143.0</ele><time>2026-05-02T08:19:42.955Z</time></trkpt><trkpt lat="43.5321067" lon="11.5843733"><ele>143.0</ele><time>2026-05-02T08:19:43.954Z</time></trkpt><trkpt lat="43.5320567" lon="11.584465"><ele>143.0</ele><time>2026-05-02T08:19:44.953Z</time></trkpt><trkpt lat="43.5320083" lon="11.5845583"><ele>143.16666666666666</ele><time>2026-05-02T08:19:45.955Z</time></trkpt><trkpt lat="43.5319583" lon="11.58465"><ele>143.33333333333331</ele><time>2026-05-02T08:19:46.953Z</time></trkpt><trkpt lat="43.53191" lon="11.58474"><ele>143.5</ele><time>2026-05-02T08:19:47.953Z</time></trkpt><trkpt lat="43.5318617" lon="11.58483"><ele>143.66666666666666</ele><time>2026-05-02T08:19:48.951Z</time></trkpt><trkpt lat="43.5318117" lon="11.5849183"><ele>143.83333333333334</ele><time>2026-05-02T08:19:49.953Z</time></trkpt><trkpt lat="43.53176" lon="11.58501"><ele>144.0</ele><time>2026-05-02T08:19:50.953Z</time></trkpt><trkpt lat="43.5317083" lon="11.5851033"><ele>144.0</ele><time>2026-05-02T08:19:51.953Z</time></trkpt><trkpt lat="43.5316583" lon="11.5851967"><ele>144.0</ele><time>2026-05-02T08:19:52.953Z</time></trkpt><trkpt lat="43.5316083" lon="11.5852833"><ele>144.0</ele><time>2026-05-02T08:19:53.953Z</time></trkpt><trkpt lat="43.5315583" lon="11.5853717"><ele>144.0</ele><time>2026-05-02T08:19:54.954Z</time></trkpt><trkpt lat="43.5315067" lon="11.5854583"><ele>144.0</ele><time>2026-05-02T08:19:55.955Z</time></trkpt><trkpt lat="43.5314567" lon="11.585545"><ele>144.0</ele><time>2026-05-02T08:19:56.954Z</time></trkpt><trkpt lat="43.5314033" lon="11.585635"><ele>143.83333333333334</ele><time>2026-05-02T08:19:57.955Z</time></trkpt><trkpt lat="43.531355" lon="11.5857283"><ele>143.66666666666666</ele><time>2026-05-02T08:19:58.953Z</time></trkpt><trkpt lat="43.5313067" lon="11.5858167"><ele>143.5</ele><time>2026-05-02T08:19:59.953Z</time></trkpt><trkpt lat="43.5312583" lon="11.5859033"><ele>143.33333333333331</ele><time>2026-05-02T08:20:00.954Z</time></trkpt><trkpt lat="43.53121" lon="11.58599"><ele>143.16666666666666</ele><time>2026-05-02T08:20:01.954Z</time></trkpt><trkpt lat="43.5311617" lon="11.586075"><ele>143.0</ele><time>2026-05-02T08:20:02.954Z</time></trkpt><trkpt lat="43.5311133" lon="11.586165"><ele>143.0</ele><time>2026-05-02T08:20:03.956Z</time></trkpt><trkpt lat="43.5310633" lon="11.58625"><ele>143.0</ele><time>2026-05-02T08:20:04.953Z</time></trkpt><trkpt lat="43.531015" lon="11.5863367"><ele>143.0</ele><time>2026-05-02T08:20:05.953Z</time></trkpt><trkpt lat="43.5309633" lon="11.5864283"><ele>143.0</ele><time>2026-05-02T08:20:06.953Z</time></trkpt><trkpt lat="43.530915" lon="11.5865167"><ele>143.0</ele><time>2026-05-02T08:20:07.954Z</time></trkpt><trkpt lat="43.530865" lon="11.5866067"><ele>143.0</ele><time>2026-05-02T08:20:08.952Z</time></trkpt><trkpt lat="43.5308183" lon="11.5866967"><ele>143.0</ele><time>2026-05-02T08:20:09.955Z</time></trkpt><trkpt lat="43.5307717" lon="11.586785"><ele>143.0</ele><time>2026-05-02T08:20:10.954Z</time></trkpt><trkpt lat="43.5307233" lon="11.5868767"><ele>143.0</ele><time>2026-05-02T08:20:11.953Z</time></trkpt><trkpt lat="43.530675" lon="11.58697"><ele>143.0</ele><time>2026-05-02T08:20:12.954Z</time></trkpt><trkpt lat="43.5306233" lon="11.58706"><ele>143.0</ele><time>2026-05-02T08:20:13.953Z</time></trkpt><trkpt lat="43.5305717" lon="11.58715"><ele>143.0</ele><time>2026-05-02T08:20:14.956Z</time></trkpt><trkpt lat="43.5305217" lon="11.58724"><ele>143.16666666666666</ele><time>2026-05-02T08:20:15.953Z</time></trkpt><trkpt lat="43.5304717" lon="11.58733"><ele>143.33333333333331</ele><time>2026-05-02T08:20:16.954Z</time></trkpt><trkpt lat="43.5304217" lon="11.58742"><ele>143.5</ele><time>2026-05-02T08:20:17.954Z</time></trkpt><trkpt lat="43.5303717" lon="11.5875117"><ele>143.66666666666666</ele><time>2026-05-02T08:20:18.955Z</time></trkpt><trkpt lat="43.53032" lon="11.5876033"><ele>143.83333333333334</ele><time>2026-05-02T08:20:19.954Z</time></trkpt><trkpt lat="43.53027" lon="11.5876917"><ele>144.0</ele><time>2026-05-02T08:20:20.954Z</time></trkpt><trkpt lat="43.5302183" lon="11.58778"><ele>144.16666666666666</ele><time>2026-05-02T08:20:21.953Z</time></trkpt><trkpt lat="43.5301667" lon="11.5878733"><ele>144.33333333333334</ele><time>2026-05-02T08:20:22.956Z</time></trkpt><trkpt lat="43.5301167" lon="11.5879583"><ele>144.5</ele><time>2026-05-02T08:20:23.954Z</time></trkpt><trkpt lat="43.530065" lon="11.5880517"><ele>144.66666666666669</ele><time>2026-05-02T08:20:24.953Z</time></trkpt><trkpt lat="43.530015" lon="11.5881433"><ele>144.83333333333334</ele><time>2026-05-02T08:20:25.952Z</time></trkpt><trkpt lat="43.5299667" lon="11.588235"><ele>145.0</ele><time>2026-05-02T08:20:26.952Z</time></trkpt><trkpt lat="43.5299183" lon="11.5883233"><ele>145.0</ele><time>2026-05-02T08:20:27.955Z</time></trkpt><trkpt lat="43.5298667" lon="11.5884117"><ele>145.0</ele><time>2026-05-02T08:20:28.955Z</time></trkpt><trkpt lat="43.5298167" lon="11.5885033"><ele>145.0</ele><time>2026-05-02T08:20:29.953Z</time></trkpt><trkpt lat="43.5297683" lon="11.5885917"><ele>145.0</ele><time>2026-05-02T08:20:30.954Z</time></trkpt><trkpt lat="43.52972" lon="11.5886783"><ele>145.0</ele><time>2026-05-02T08:20:31.953Z</time></trkpt><trkpt lat="43.5296733" lon="11.5887683"><ele>145.0</ele><time>2026-05-02T08:20:32.955Z</time></trkpt><trkpt lat="43.5296283" lon="11.5888583"><ele>145.0</ele><time>2026-05-02T08:20:33.953Z</time></trkpt><trkpt lat="43.5295817" lon="11.5889483"><ele>145.0</ele><time>2026-05-02T08:20:34.953Z</time></trkpt><trkpt lat="43.5295333" lon="11.5890383"><ele>145.0</ele><time>2026-05-02T08:20:35.953Z</time></trkpt><trkpt lat="43.5294883" lon="11.5891267"><ele>145.0</ele><time>2026-05-02T08:20:36.953Z</time></trkpt><trkpt lat="43.5294467" lon="11.5892117"><ele>145.0</ele><time>2026-05-02T08:20:37.952Z</time></trkpt><trkpt lat="43.529405" lon="11.5892933"><ele>145.0</ele><time>2026-05-02T08:20:38.953Z</time></trkpt><trkpt lat="43.529365" lon="11.5893783"><ele>145.0</ele><time>2026-05-02T08:20:39.955Z</time></trkpt><trkpt lat="43.5293233" lon="11.5894633"><ele>145.0</ele><time>2026-05-02T08:20:40.956Z</time></trkpt><trkpt lat="43.5292817" lon="11.589545"><ele>145.0</ele><time>2026-05-02T08:20:41.953Z</time></trkpt><trkpt lat="43.529245" lon="11.5896233"><ele>145.0</ele><time>2026-05-02T08:20:42.954Z</time></trkpt><trkpt lat="43.5292067" lon="11.5896967"><ele>145.0</ele><time>2026-05-02T08:20:43.953Z</time></trkpt><trkpt lat="43.529165" lon="11.589775"><ele>145.0</ele><time>2026-05-02T08:20:44.956Z</time></trkpt><trkpt lat="43.5291233" lon="11.5898517"><ele>145.0</ele><time>2026-05-02T08:20:45.954Z</time></trkpt><trkpt lat="43.5290817" lon="11.58993"><ele>145.0</ele><time>2026-05-02T08:20:46.956Z</time></trkpt><trkpt lat="43.52904" lon="11.5900033"><ele>145.0</ele><time>2026-05-02T08:20:47.954Z</time></trkpt><trkpt lat="43.5289983" lon="11.5900783"><ele>145.0</ele><time>2026-05-02T08:20:48.953Z</time></trkpt><trkpt lat="43.528955" lon="11.59015"><ele>145.0</ele><time>2026-05-02T08:20:49.952Z</time></trkpt><trkpt lat="43.52891" lon="11.5902267"><ele>145.0</ele><time>2026-05-02T08:20:50.955Z</time></trkpt><trkpt lat="43.528865" lon="11.5903017"><ele>145.0</ele><time>2026-05-02T08:20:51.953Z</time></trkpt><trkpt lat="43.5288217" lon="11.5903733"><ele>145.0</ele><time>2026-05-02T08:20:52.953Z</time></trkpt><trkpt lat="43.52878" lon="11.5904467"><ele>145.28571428571428</ele><time>2026-05-02T08:20:53.952Z</time></trkpt><trkpt lat="43.5287383" lon="11.5905217"><ele>145.57142857142858</ele><time>2026-05-02T08:20:54.954Z</time></trkpt><trkpt lat="43.5286967" lon="11.5905967"><ele>145.85714285714286</ele><time>2026-05-02T08:20:55.952Z</time></trkpt><trkpt lat="43.5286533" lon="11.5906733"><ele>146.14285714285714</ele><time>2026-05-02T08:20:56.955Z</time></trkpt><trkpt lat="43.5286133" lon="11.5907533"><ele>146.42857142857144</ele><time>2026-05-02T08:20:57.953Z</time></trkpt><trkpt lat="43.528575" lon="11.590835"><ele>146.71428571428572</ele><time>2026-05-02T08:20:58.954Z</time></trkpt><trkpt lat="43.5285333" lon="11.5909167"><ele>147.0</ele><time>2026-05-02T08:20:59.953Z</time></trkpt><trkpt lat="43.528495" lon="11.590995"><ele>147.0</ele><time>2026-05-02T08:21:00.955Z</time></trkpt><trkpt lat="43.5284583" lon="11.591075"><ele>147.0</ele><time>2026-05-02T08:21:01.953Z</time></trkpt><trkpt lat="43.5284217" lon="11.5911583"><ele>147.0</ele><time>2026-05-02T08:21:02.953Z</time></trkpt><trkpt lat="43.52839" lon="11.59124"><ele>147.0</ele><time>2026-05-02T08:21:03.955Z</time></trkpt><trkpt lat="43.5283567" lon="11.5913217"><ele>147.0</ele><time>2026-05-02T08:21:04.953Z</time></trkpt><trkpt lat="43.5283267" lon="11.5914083"><ele>147.0</ele><time>2026-05-02T08:21:05.953Z</time></trkpt><trkpt lat="43.5282983" lon="11.5915"><ele>147.0</ele><time>2026-05-02T08:21:06.956Z</time></trkpt><trkpt lat="43.52827" lon="11.59159"><ele>147.0</ele><time>2026-05-02T08:21:07.954Z</time></trkpt><trkpt lat="43.5282433" lon="11.5916767"><ele>147.0</ele><time>2026-05-02T08:21:08.955Z</time></trkpt><trkpt lat="43.5282117" lon="11.5917633"><ele>147.0</ele><time>2026-05-02T08:21:09.953Z</time></trkpt><trkpt lat="43.5281683" lon="11.5918433"><ele>147.0</ele><time>2026-05-02T08:21:10.953Z</time></trkpt><trkpt lat="43.52812" lon="11.59192"><ele>147.0</ele><time>2026-05-02T08:21:11.953Z</time></trkpt><trkpt lat="43.5280633" lon="11.5919817"><ele>147.0</ele><time>2026-05-02T08:21:12.951Z</time></trkpt><trkpt lat="43.528" lon="11.5920367"><ele>147.0</ele><time>2026-05-02T08:21:13.954Z</time></trkpt><trkpt lat="43.5279267" lon="11.5920967"><ele>146.83333333333334</ele><time>2026-05-02T08:21:14.955Z</time></trkpt><trkpt lat="43.5278617" lon="11.592165"><ele>146.66666666666666</ele><time>2026-05-02T08:21:15.954Z</time></trkpt><trkpt lat="43.5278033" lon="11.5922467"><ele>146.5</ele><time>2026-05-02T08:21:16.952Z</time></trkpt><trkpt lat="43.527745" lon="11.592335"><ele>146.33333333333331</ele><time>2026-05-02T08:21:17.954Z</time></trkpt><trkpt lat="43.52769" lon="11.59243"><ele>146.16666666666666</ele><time>2026-05-02T08:21:18.953Z</time></trkpt><trkpt lat="43.5276367" lon="11.5925283"><ele>146.0</ele><time>2026-05-02T08:21:19.955Z</time></trkpt><trkpt lat="43.5275867" lon="11.5926283"><ele>146.0</ele><time>2026-05-02T08:21:20.955Z</time></trkpt><trkpt lat="43.5275367" lon="11.5927267"><ele>146.0</ele><time>2026-05-02T08:21:21.953Z</time></trkpt><trkpt lat="43.5274867" lon="11.5928267"><ele>146.0</ele><time>2026-05-02T08:21:22.953Z</time></trkpt><trkpt lat="43.5274383" lon="11.5929183"><ele>146.0</ele><time>2026-05-02T08:21:23.953Z</time></trkpt><trkpt lat="43.52739" lon="11.593005"><ele>146.0</ele><time>2026-05-02T08:21:24.953Z</time></trkpt><trkpt lat="43.5273417" lon="11.5930917"><ele>146.0</ele><time>2026-05-02T08:21:25.954Z</time></trkpt><trkpt lat="43.527295" lon="11.593175"><ele>146.0</ele><time>2026-05-02T08:21:26.955Z</time></trkpt><trkpt lat="43.52725" lon="11.5932583"><ele>146.0</ele><time>2026-05-02T08:21:27.955Z</time></trkpt><trkpt lat="43.5272067" lon="11.5933417"><ele>146.0</ele><time>2026-05-02T08:21:28.955Z</time></trkpt><trkpt lat="43.5271617" lon="11.5934233"><ele>146.0</ele><time>2026-05-02T08:21:29.953Z</time></trkpt><trkpt lat="43.527115" lon="11.5935067"><ele>146.0</ele><time>2026-05-02T08:21:30.955Z</time></trkpt><trkpt lat="43.5270667" lon="11.59358"><ele>146.0</ele><time>2026-05-02T08:21:31.952Z</time></trkpt><trkpt lat="43.527015" lon="11.5936383"><ele>146.0</ele><time>2026-05-02T08:21:32.953Z</time></trkpt><trkpt lat="43.5269633" lon="11.5937083"><ele>146.0</ele><time>2026-05-02T08:21:33.954Z</time></trkpt><trkpt lat="43.526905" lon="11.5937733"><ele>146.0</ele><time>2026-05-02T08:21:34.956Z</time></trkpt><trkpt lat="43.526845" lon="11.593855"><ele>146.0</ele><time>2026-05-02T08:21:35.952Z</time></trkpt><trkpt lat="43.5267983" lon="11.5939417"><ele>146.0</ele><time>2026-05-02T08:21:36.953Z</time></trkpt><trkpt lat="43.5267533" lon="11.5940233"><ele>146.0</ele><time>2026-05-02T08:21:37.954Z</time></trkpt><trkpt lat="43.5267067" lon="11.5941033"><ele>146.0</ele><time>2026-05-02T08:21:38.956Z</time></trkpt><trkpt lat="43.5266617" lon="11.594185"><ele>146.0</ele><time>2026-05-02T08:21:39.954Z</time></trkpt><trkpt lat="43.5266133" lon="11.5942667"><ele>146.0</ele><time>2026-05-02T08:21:40.955Z</time></trkpt><trkpt lat="43.5265683" lon="11.5943433"><ele>146.0</ele><time>2026-05-02T08:21:41.954Z</time></trkpt><trkpt lat="43.526525" lon="11.594425"><ele>146.0</ele><time>2026-05-02T08:21:42.953Z</time></trkpt><trkpt lat="43.5264817" lon="11.594505"><ele>146.0</ele><time>2026-05-02T08:21:43.953Z</time></trkpt><trkpt lat="43.5264367" lon="11.5945867"><ele>146.0</ele><time>2026-05-02T08:21:44.955Z</time></trkpt><trkpt lat="43.5263933" lon="11.5946683"><ele>146.0</ele><time>2026-05-02T08:21:45.952Z</time></trkpt><trkpt lat="43.52635" lon="11.59475"><ele>146.14285714285714</ele><time>2026-05-02T08:21:46.952Z</time></trkpt><trkpt lat="43.526305" lon="11.594825"><ele>146.28571428571428</ele><time>2026-05-02T08:21:47.954Z</time></trkpt><trkpt lat="43.52626" lon="11.594905"><ele>146.42857142857144</ele><time>2026-05-02T08:21:48.954Z</time></trkpt><trkpt lat="43.5262183" lon="11.5949833"><ele>146.57142857142856</ele><time>2026-05-02T08:21:49.953Z</time></trkpt><trkpt lat="43.5261733" lon="11.595065"><ele>146.71428571428572</ele><time>2026-05-02T08:21:50.954Z</time></trkpt><trkpt lat="43.52613" lon="11.595145"><ele>146.85714285714286</ele><time>2026-05-02T08:21:51.956Z</time></trkpt><trkpt lat="43.5260883" lon="11.595225"><ele>147.0</ele><time>2026-05-02T08:21:52.953Z</time></trkpt><trkpt lat="43.526045" lon="11.5953067"><ele>146.71428571428572</ele><time>2026-05-02T08:21:53.954Z</time></trkpt><trkpt lat="43.5259983" lon="11.595385"><ele>146.42857142857144</ele><time>2026-05-02T08:21:54.953Z</time></trkpt><trkpt lat="43.525955" lon="11.5954633"><ele>146.14285714285714</ele><time>2026-05-02T08:21:55.952Z</time></trkpt><trkpt lat="43.52591" lon="11.5955433"><ele>145.85714285714286</ele><time>2026-05-02T08:21:56.955Z</time></trkpt><trkpt lat="43.5258633" lon="11.5956217"><ele>145.57142857142858</ele><time>2026-05-02T08:21:57.954Z</time></trkpt><trkpt lat="43.5258217" lon="11.5957"><ele>145.28571428571428</ele><time>2026-05-02T08:21:58.954Z</time></trkpt><trkpt lat="43.52578" lon="11.5957733"><ele>145.0</ele><time>2026-05-02T08:21:59.955Z</time></trkpt><trkpt lat="43.5257417" lon="11.5958433"><ele>145.0</ele><time>2026-05-02T08:22:00.955Z</time></trkpt><trkpt lat="43.5256983" lon="11.595915"><ele>145.0</ele><time>2026-05-02T08:22:01.953Z</time></trkpt><trkpt lat="43.525655" lon="11.5959867"><ele>145.0</ele><time>2026-05-02T08:22:02.953Z</time></trkpt><trkpt lat="43.525615" lon="11.5960583"><ele>145.0</ele><time>2026-05-02T08:22:03.954Z</time></trkpt><trkpt lat="43.5255733" lon="11.596135"><ele>145.0</ele><time>2026-05-02T08:22:04.955Z</time></trkpt><trkpt lat="43.5255333" lon="11.5962117"><ele>145.0</ele><time>2026-05-02T08:22:05.953Z</time></trkpt><trkpt lat="43.52549" lon="11.5962933"><ele>145.0</ele><time>2026-05-02T08:22:06.953Z</time></trkpt><trkpt lat="43.525445" lon="11.5963733"><ele>145.0</ele><time>2026-05-02T08:22:07.955Z</time></trkpt><trkpt lat="43.5254" lon="11.5964517"><ele>145.0</ele><time>2026-05-02T08:22:08.954Z</time></trkpt><trkpt lat="43.5253567" lon="11.59653"><ele>145.0</ele><time>2026-05-02T08:22:09.954Z</time></trkpt><trkpt lat="43.5253117" lon="11.5966083"><ele>145.0</ele><time>2026-05-02T08:22:10.954Z</time></trkpt><trkpt lat="43.5252683" lon="11.5966867"><ele>145.0</ele><time>2026-05-02T08:22:11.954Z</time></trkpt><trkpt lat="43.525225" lon="11.596765"><ele>145.0</ele><time>2026-05-02T08:22:12.953Z</time></trkpt><trkpt lat="43.52518" lon="11.596845"><ele>145.0</ele><time>2026-05-02T08:22:13.954Z</time></trkpt><trkpt lat="43.525135" lon="11.5969233"><ele>144.57142857142858</ele><time>2026-05-02T08:22:14.955Z</time></trkpt><trkpt lat="43.5250917" lon="11.5970033"><ele>144.14285714285717</ele><time>2026-05-02T08:22:15.954Z</time></trkpt><trkpt lat="43.5250467" lon="11.5970833"><ele>143.71428571428572</ele><time>2026-05-02T08:22:16.955Z</time></trkpt><trkpt lat="43.5250033" lon="11.5971633"><ele>143.28571428571428</ele><time>2026-05-02T08:22:17.953Z</time></trkpt><trkpt lat="43.52496" lon="11.5972383"><ele>142.85714285714283</ele><time>2026-05-02T08:22:18.954Z</time></trkpt><trkpt lat="43.5249167" lon="11.5973133"><ele>142.42857142857142</ele><time>2026-05-02T08:22:19.953Z</time></trkpt><trkpt lat="43.5248767" lon="11.5973883"><ele>142.0</ele><time>2026-05-02T08:22:20.954Z</time></trkpt><trkpt lat="43.5248333" lon="11.59746"><ele>142.0</ele><time>2026-05-02T08:22:21.955Z</time></trkpt><trkpt lat="43.52479" lon="11.5975333"><ele>142.0</ele><time>2026-05-02T08:22:22.952Z</time></trkpt><trkpt lat="43.5247483" lon="11.59761"><ele>142.0</ele><time>2026-05-02T08:22:23.955Z</time></trkpt><trkpt lat="43.5247067" lon="11.5976867"><ele>142.0</ele><time>2026-05-02T08:22:24.953Z</time></trkpt><trkpt lat="43.5246683" lon="11.59776"><ele>142.0</ele><time>2026-05-02T08:22:25.955Z</time></trkpt><trkpt lat="43.5246267" lon="11.5978383"><ele>142.0</ele><time>2026-05-02T08:22:26.953Z</time></trkpt><trkpt lat="43.524585" lon="11.5979167"><ele>142.0</ele><time>2026-05-02T08:22:27.956Z</time></trkpt><trkpt lat="43.5245433" lon="11.597995"><ele>142.71428571428572</ele><time>2026-05-02T08:22:28.955Z</time></trkpt><trkpt lat="43.5245" lon="11.5980717"><ele>143.42857142857142</ele><time>2026-05-02T08:22:29.954Z</time></trkpt><trkpt lat="43.5244567" lon="11.5981517"><ele>144.14285714285714</ele><time>2026-05-02T08:22:30.952Z</time></trkpt><trkpt lat="43.5244133" lon="11.5982267"><ele>144.85714285714286</ele><time>2026-05-02T08:22:31.953Z</time></trkpt><trkpt lat="43.5243683" lon="11.5983067"><ele>145.57142857142856</ele><time>2026-05-02T08:22:32.955Z</time></trkpt><trkpt lat="43.5243217" lon="11.598385"><ele>146.28571428571428</ele><time>2026-05-02T08:22:33.952Z</time></trkpt><trkpt lat="43.5242767" lon="11.5984617"><ele>147.0</ele><time>2026-05-02T08:22:34.956Z</time></trkpt><trkpt lat="43.5242317" lon="11.5985417"><ele>147.0</ele><time>2026-05-02T08:22:35.955Z</time></trkpt><trkpt lat="43.5241867" lon="11.5986183"><ele>147.0</ele><time>2026-05-02T08:22:36.954Z</time></trkpt><trkpt lat="43.52414" lon="11.5986967"><ele>147.0</ele><time>2026-05-02T08:22:37.954Z</time></trkpt><trkpt lat="43.524095" lon="11.5987783"><ele>147.0</ele><time>2026-05-02T08:22:38.956Z</time></trkpt><trkpt lat="43.5240517" lon="11.59886"><ele>147.0</ele><time>2026-05-02T08:22:39.954Z</time></trkpt><trkpt lat="43.5240083" lon="11.5989383"><ele>147.0</ele><time>2026-05-02T08:22:40.954Z</time></trkpt><trkpt lat="43.5239667" lon="11.5990133"><ele>147.0</ele><time>2026-05-02T08:22:41.955Z</time></trkpt><trkpt lat="43.523925" lon="11.59909"><ele>147.0</ele><time>2026-05-02T08:22:42.955Z</time></trkpt><trkpt lat="43.5238817" lon="11.5991667"><ele>147.0</ele><time>2026-05-02T08:22:43.954Z</time></trkpt><trkpt lat="43.52384" lon="11.599245"><ele>147.0</ele><time>2026-05-02T08:22:44.954Z</time></trkpt><trkpt lat="43.5237967" lon="11.599325"><ele>147.0</ele><time>2026-05-02T08:22:45.953Z</time></trkpt><trkpt lat="43.52375" lon="11.5994033"><ele>147.0</ele><time>2026-05-02T08:22:46.955Z</time></trkpt><trkpt lat="43.5237067" lon="11.599485"><ele>147.0</ele><time>2026-05-02T08:22:47.955Z</time></trkpt><trkpt lat="43.5236633" lon="11.59956"><ele>147.0</ele><time>2026-05-02T08:22:48.954Z</time></trkpt><trkpt lat="43.52362" lon="11.5996367"><ele>147.0</ele><time>2026-05-02T08:22:49.955Z</time></trkpt><trkpt lat="43.5235767" lon="11.5997133"><ele>147.0</ele><time>2026-05-02T08:22:50.954Z</time></trkpt><trkpt lat="43.523535" lon="11.599785"><ele>147.0</ele><time>2026-05-02T08:22:51.953Z</time></trkpt><trkpt lat="43.5234917" lon="11.59986"><ele>147.0</ele><time>2026-05-02T08:22:52.952Z</time></trkpt><trkpt lat="43.5234483" lon="11.5999333"><ele>147.0</ele><time>2026-05-02T08:22:53.954Z</time></trkpt><trkpt lat="43.5234033" lon="11.6000083"><ele>147.0</ele><time>2026-05-02T08:22:54.954Z</time></trkpt><trkpt lat="43.5233583" lon="11.6000817"><ele>147.0</ele><time>2026-05-02T08:22:55.955Z</time></trkpt><trkpt lat="43.523315" lon="11.6001533"><ele>147.0</ele><time>2026-05-02T08:22:56.955Z</time></trkpt><trkpt lat="43.5232683" lon="11.6002267"><ele>147.0</ele><time>2026-05-02T08:22:57.954Z</time></trkpt><trkpt lat="43.5232217" lon="11.6003017"><ele>147.0</ele><time>2026-05-02T08:22:58.954Z</time></trkpt><trkpt lat="43.5231767" lon="11.600375"><ele>147.0</ele><time>2026-05-02T08:22:59.952Z</time></trkpt><trkpt lat="43.52313" lon="11.6004533"><ele>147.0</ele><time>2026-05-02T08:23:00.953Z</time></trkpt><trkpt lat="43.523085" lon="11.6005317"><ele>147.0</ele><time>2026-05-02T08:23:01.953Z</time></trkpt><trkpt lat="43.5230417" lon="11.60061"><ele>147.0</ele><time>2026-05-02T08:23:02.953Z</time></trkpt><trkpt lat="43.5229967" lon="11.60069"><ele>147.0</ele><time>2026-05-02T08:23:03.954Z</time></trkpt><trkpt lat="43.5229483" lon="11.6007717"><ele>147.0</ele><time>2026-05-02T08:23:04.953Z</time></trkpt><trkpt lat="43.5229" lon="11.60085"><ele>147.0</ele><time>2026-05-02T08:23:05.952Z</time></trkpt><trkpt lat="43.5228533" lon="11.6009267"><ele>147.0</ele><time>2026-05-02T08:23:06.953Z</time></trkpt><trkpt lat="43.522805" lon="11.6010017"><ele>147.0</ele><time>2026-05-02T08:23:07.954Z</time></trkpt><trkpt lat="43.5227583" lon="11.60108"><ele>147.0</ele><time>2026-05-02T08:23:08.954Z</time></trkpt><trkpt lat="43.5227117" lon="11.6011617"><ele>147.0</ele><time>2026-05-02T08:23:09.954Z</time></trkpt><trkpt lat="43.5226617" lon="11.6012417"><ele>147.0</ele><time>2026-05-02T08:23:10.954Z</time></trkpt><trkpt lat="43.522615" lon="11.60132"><ele>147.0</ele><time>2026-05-02T08:23:11.954Z</time></trkpt><trkpt lat="43.522565" lon="11.6014"><ele>147.0</ele><time>2026-05-02T08:23:12.954Z</time></trkpt><trkpt lat="43.52252" lon="11.60148"><ele>147.0</ele><time>2026-05-02T08:23:13.953Z</time></trkpt><trkpt lat="43.522475" lon="11.6015583"><ele>147.0</ele><time>2026-05-02T08:23:14.953Z</time></trkpt><trkpt lat="43.52243" lon="11.6016383"><ele>147.0</ele><time>2026-05-02T08:23:15.955Z</time></trkpt><trkpt lat="43.5223833" lon="11.60172"><ele>147.0</ele><time>2026-05-02T08:23:16.952Z</time></trkpt><trkpt lat="43.5223333" lon="11.6018"><ele>147.0</ele><time>2026-05-02T08:23:17.953Z</time></trkpt><trkpt lat="43.5222833" lon="11.60188"><ele>147.0</ele><time>2026-05-02T08:23:18.952Z</time></trkpt><trkpt lat="43.5222333" lon="11.6019617"><ele>147.0</ele><time>2026-05-02T08:23:19.952Z</time></trkpt><trkpt lat="43.5221867" lon="11.60204"><ele>147.0</ele><time>2026-05-02T08:23:20.952Z</time></trkpt><trkpt lat="43.5221367" lon="11.60212"><ele>147.0</ele><time>2026-05-02T08:23:21.953Z</time></trkpt><trkpt lat="43.5220883" lon="11.6022"><ele>147.0</ele><time>2026-05-02T08:23:22.953Z</time></trkpt><trkpt lat="43.5220417" lon="11.6022833"><ele>146.71428571428572</ele><time>2026-05-02T08:23:23.953Z</time></trkpt><trkpt lat="43.5219967" lon="11.60236"><ele>146.42857142857144</ele><time>2026-05-02T08:23:24.952Z</time></trkpt><trkpt lat="43.5219517" lon="11.6024367"><ele>146.14285714285714</ele><time>2026-05-02T08:23:25.953Z</time></trkpt><trkpt lat="43.5219067" lon="11.6025067"><ele>145.85714285714286</ele><time>2026-05-02T08:23:26.952Z</time></trkpt><trkpt lat="43.52186" lon="11.60258"><ele>145.57142857142858</ele><time>2026-05-02T08:23:27.954Z</time></trkpt><trkpt lat="43.52181" lon="11.6026567"><ele>145.28571428571428</ele><time>2026-05-02T08:23:28.953Z</time></trkpt><trkpt lat="43.521765" lon="11.6027283"><ele>145.0</ele><time>2026-05-02T08:23:29.953Z</time></trkpt><trkpt lat="43.5217183" lon="11.6028017"><ele>145.33333333333334</ele><time>2026-05-02T08:23:30.952Z</time></trkpt><trkpt lat="43.5216683" lon="11.6028833"><ele>145.66666666666669</ele><time>2026-05-02T08:23:31.952Z</time></trkpt><trkpt lat="43.5216183" lon="11.602965"><ele>146.0</ele><time>2026-05-02T08:23:32.952Z</time></trkpt><trkpt lat="43.52157" lon="11.60305"><ele>146.33333333333334</ele><time>2026-05-02T08:23:33.953Z</time></trkpt><trkpt lat="43.5215233" lon="11.6031317"><ele>146.66666666666666</ele><time>2026-05-02T08:23:34.954Z</time></trkpt><trkpt lat="43.521475" lon="11.6032133"><ele>147.0</ele><time>2026-05-02T08:23:35.952Z</time></trkpt><trkpt lat="43.5214283" lon="11.6032917"><ele>147.0</ele><time>2026-05-02T08:23:36.953Z</time></trkpt><trkpt lat="43.5213817" lon="11.60337"><ele>147.0</ele><time>2026-05-02T08:23:37.952Z</time></trkpt><trkpt lat="43.521335" lon="11.60345"><ele>147.0</ele><time>2026-05-02T08:23:38.953Z</time></trkpt><trkpt lat="43.5212883" lon="11.6035317"><ele>147.0</ele><time>2026-05-02T08:23:39.953Z</time></trkpt><trkpt lat="43.52124" lon="11.6036117"><ele>147.0</ele><time>2026-05-02T08:23:40.952Z</time></trkpt><trkpt lat="43.5211917" lon="11.6036917"><ele>147.0</ele><time>2026-05-02T08:23:41.952Z</time></trkpt><trkpt lat="43.5211417" lon="11.6037767"><ele>147.16666666666666</ele><time>2026-05-02T08:23:42.952Z</time></trkpt><trkpt lat="43.5210933" lon="11.6038583"><ele>147.33333333333334</ele><time>2026-05-02T08:23:43.954Z</time></trkpt><trkpt lat="43.521045" lon="11.60394"><ele>147.5</ele><time>2026-05-02T08:23:44.953Z</time></trkpt><trkpt lat="43.5209967" lon="11.6040183"><ele>147.66666666666669</ele><time>2026-05-02T08:23:45.954Z</time></trkpt><trkpt lat="43.5209483" lon="11.6041"><ele>147.83333333333334</ele><time>2026-05-02T08:23:46.953Z</time></trkpt><trkpt lat="43.5209017" lon="11.60418"><ele>148.0</ele><time>2026-05-02T08:23:47.954Z</time></trkpt><trkpt lat="43.5208517" lon="11.60426"><ele>148.0</ele><time>2026-05-02T08:23:48.952Z</time></trkpt><trkpt lat="43.5208033" lon="11.6043417"><ele>148.0</ele><time>2026-05-02T08:23:49.953Z</time></trkpt><trkpt lat="43.5207567" lon="11.60442"><ele>148.0</ele><time>2026-05-02T08:23:50.953Z</time></trkpt><trkpt lat="43.5207083" lon="11.6045"><ele>148.0</ele><time>2026-05-02T08:23:51.952Z</time></trkpt><trkpt lat="43.5206617" lon="11.6045833"><ele>148.0</ele><time>2026-05-02T08:23:52.952Z</time></trkpt><trkpt lat="43.520615" lon="11.6046633"><ele>148.0</ele><time>2026-05-02T08:23:53.952Z</time></trkpt><trkpt lat="43.5205667" lon="11.604745"><ele>147.85714285714286</ele><time>2026-05-02T08:23:54.953Z</time></trkpt><trkpt lat="43.5205183" lon="11.604825"><ele>147.71428571428572</ele><time>2026-05-02T08:23:55.954Z</time></trkpt><trkpt lat="43.5204683" lon="11.604905"><ele>147.57142857142856</ele><time>2026-05-02T08:23:56.953Z</time></trkpt><trkpt lat="43.5204217" lon="11.6049833"><ele>147.42857142857144</ele><time>2026-05-02T08:23:57.952Z</time></trkpt><trkpt lat="43.520375" lon="11.6050633"><ele>147.28571428571428</ele><time>2026-05-02T08:23:58.953Z</time></trkpt><trkpt lat="43.5203267" lon="11.6051417"><ele>147.14285714285714</ele><time>2026-05-02T08:23:59.954Z</time></trkpt><trkpt lat="43.52028" lon="11.6052167"><ele>147.0</ele><time>2026-05-02T08:24:00.952Z</time></trkpt><trkpt lat="43.5202333" lon="11.605295"><ele>147.28571428571428</ele><time>2026-05-02T08:24:01.953Z</time></trkpt><trkpt lat="43.5201883" lon="11.6053733"><ele>147.57142857142856</ele><time>2026-05-02T08:24:02.955Z</time></trkpt><trkpt lat="43.5201417" lon="11.6054517"><ele>147.85714285714286</ele><time>2026-05-02T08:24:03.952Z</time></trkpt><trkpt lat="43.5200967" lon="11.6055267"><ele>148.14285714285714</ele><time>2026-05-02T08:24:04.951Z</time></trkpt><trkpt lat="43.5200517" lon="11.6056033"><ele>148.42857142857142</ele><time>2026-05-02T08:24:05.953Z</time></trkpt><trkpt lat="43.5200067" lon="11.6056783"><ele>148.71428571428572</ele><time>2026-05-02T08:24:06.953Z</time></trkpt><trkpt lat="43.5199617" lon="11.6057583"><ele>149.0</ele><time>2026-05-02T08:24:07.952Z</time></trkpt><trkpt lat="43.5199167" lon="11.60584"><ele>149.0</ele><time>2026-05-02T08:24:08.955Z</time></trkpt><trkpt lat="43.5198683" lon="11.60592"><ele>149.0</ele><time>2026-05-02T08:24:09.953Z</time></trkpt><trkpt lat="43.5198217" lon="11.6059983"><ele>149.0</ele><time>2026-05-02T08:24:10.953Z</time></trkpt><trkpt lat="43.519775" lon="11.606075"><ele>149.0</ele><time>2026-05-02T08:24:11.954Z</time></trkpt><trkpt lat="43.5197283" lon="11.6061567"><ele>149.0</ele><time>2026-05-02T08:24:12.954Z</time></trkpt><trkpt lat="43.5196817" lon="11.6062367"><ele>149.0</ele><time>2026-05-02T08:24:13.951Z</time></trkpt><trkpt lat="43.519635" lon="11.6063133"><ele>149.0</ele><time>2026-05-02T08:24:14.953Z</time></trkpt><trkpt lat="43.5195883" lon="11.6063917"><ele>149.0</ele><time>2026-05-02T08:24:15.953Z</time></trkpt><trkpt lat="43.5195417" lon="11.6064683"><ele>149.0</ele><time>2026-05-02T08:24:16.954Z</time></trkpt><trkpt lat="43.519495" lon="11.606545"><ele>149.0</ele><time>2026-05-02T08:24:17.954Z</time></trkpt><trkpt lat="43.519445" lon="11.6066217"><ele>149.0</ele><time>2026-05-02T08:24:18.953Z</time></trkpt><trkpt lat="43.519395" lon="11.6067017"><ele>149.0</ele><time>2026-05-02T08:24:19.954Z</time></trkpt><trkpt lat="43.519345" lon="11.6067783"><ele>149.0</ele><time>2026-05-02T08:24:20.953Z</time></trkpt><trkpt lat="43.519295" lon="11.6068517"><ele>149.0</ele><time>2026-05-02T08:24:21.953Z</time></trkpt><trkpt lat="43.5192433" lon="11.6069267"><ele>149.5</ele><time>2026-05-02T08:24:22.953Z</time></trkpt><trkpt lat="43.5191917" lon="11.607"><ele>150.0</ele><time>2026-05-02T08:24:23.954Z</time></trkpt><trkpt lat="43.51914" lon="11.6070783"><ele>150.5</ele><time>2026-05-02T08:24:24.953Z</time></trkpt><trkpt lat="43.5190883" lon="11.6071567"><ele>151.0</ele><time>2026-05-02T08:24:25.954Z</time></trkpt><trkpt lat="43.519035" lon="11.6072367"><ele>151.5</ele><time>2026-05-02T08:24:26.953Z</time></trkpt><trkpt lat="43.5189817" lon="11.6073117"><ele>152.0</ele><time>2026-05-02T08:24:27.954Z</time></trkpt><trkpt lat="43.51893" lon="11.6073817"><ele>152.0</ele><time>2026-05-02T08:24:28.954Z</time></trkpt><trkpt lat="43.5188767" lon="11.607455"><ele>152.0</ele><time>2026-05-02T08:24:29.953Z</time></trkpt><trkpt lat="43.5188233" lon="11.6075283"><ele>152.0</ele><time>2026-05-02T08:24:30.953Z</time></trkpt><trkpt lat="43.5187683" lon="11.6076033"><ele>152.0</ele><time>2026-05-02T08:24:31.953Z</time></trkpt><trkpt lat="43.5187117" lon="11.6076733"><ele>152.0</ele><time>2026-05-02T08:24:32.955Z</time></trkpt><trkpt lat="43.518655" lon="11.607745"><ele>152.0</ele><time>2026-05-02T08:24:33.953Z</time></trkpt><trkpt lat="43.5186033" lon="11.6078217"><ele>151.66666666666666</ele><time>2026-05-02T08:24:34.953Z</time></trkpt><trkpt lat="43.5185517" lon="11.6078983"><ele>151.33333333333331</ele><time>2026-05-02T08:24:35.952Z</time></trkpt><trkpt lat="43.5185033" lon="11.6079783"><ele>151.0</ele><time>2026-05-02T08:24:36.953Z</time></trkpt><trkpt lat="43.5184533" lon="11.60806"><ele>150.66666666666666</ele><time>2026-05-02T08:24:37.951Z</time></trkpt><trkpt lat="43.518405" lon="11.6081433"><ele>150.33333333333334</ele><time>2026-05-02T08:24:38.952Z</time></trkpt><trkpt lat="43.51836" lon="11.608225"><ele>150.0</ele><time>2026-05-02T08:24:39.954Z</time></trkpt><trkpt lat="43.518315" lon="11.6083067"><ele>149.99999999999997</ele><time>2026-05-02T08:24:40.952Z</time></trkpt><trkpt lat="43.5182717" lon="11.6083883"><ele>150.0</ele><time>2026-05-02T08:24:41.953Z</time></trkpt><trkpt lat="43.5182283" lon="11.6084717"><ele>150.0</ele><time>2026-05-02T08:24:42.953Z</time></trkpt><trkpt lat="43.518185" lon="11.6085483"><ele>150.0</ele><time>2026-05-02T08:24:43.953Z</time></trkpt><trkpt lat="43.5181383" lon="11.6086283"><ele>150.0</ele><time>2026-05-02T08:24:44.954Z</time></trkpt><trkpt lat="43.5180917" lon="11.608705"><ele>149.99999999999997</ele><time>2026-05-02T08:24:45.952Z</time></trkpt><trkpt lat="43.5180483" lon="11.6087867"><ele>150.0</ele><time>2026-05-02T08:24:46.955Z</time></trkpt><trkpt lat="43.5180033" lon="11.6088717"><ele>150.16666666666666</ele><time>2026-05-02T08:24:47.953Z</time></trkpt><trkpt lat="43.5179567" lon="11.60895"><ele>150.33333333333334</ele><time>2026-05-02T08:24:48.953Z</time></trkpt><trkpt lat="43.51791" lon="11.609035"><ele>150.5</ele><time>2026-05-02T08:24:49.951Z</time></trkpt><trkpt lat="43.5178617" lon="11.6091217"><ele>150.66666666666669</ele><time>2026-05-02T08:24:50.954Z</time></trkpt><trkpt lat="43.5178117" lon="11.6092117"><ele>150.83333333333334</ele><time>2026-05-02T08:24:51.953Z</time></trkpt><trkpt lat="43.5177633" lon="11.6092983"><ele>151.0</ele><time>2026-05-02T08:24:52.952Z</time></trkpt><trkpt lat="43.517715" lon="11.6093833"><ele>151.0</ele><time>2026-05-02T08:24:53.953Z</time></trkpt><trkpt lat="43.517665" lon="11.60947"><ele>151.0</ele><time>2026-05-02T08:24:54.954Z</time></trkpt><trkpt lat="43.517615" lon="11.6095567"><ele>151.0</ele><time>2026-05-02T08:24:55.954Z</time></trkpt><trkpt lat="43.5175667" lon="11.6096467"><ele>151.0</ele><time>2026-05-02T08:24:56.953Z</time></trkpt><trkpt lat="43.5175133" lon="11.6097367"><ele>151.0</ele><time>2026-05-02T08:24:57.953Z</time></trkpt><trkpt lat="43.517465" lon="11.6098183"><ele>151.0</ele><time>2026-05-02T08:24:58.952Z</time></trkpt><trkpt lat="43.517415" lon="11.6099067"><ele>151.33333333333334</ele><time>2026-05-02T08:24:59.954Z</time></trkpt><trkpt lat="43.517365" lon="11.6099933"><ele>151.66666666666669</ele><time>2026-05-02T08:25:00.954Z</time></trkpt><trkpt lat="43.5173167" lon="11.6100817"><ele>152.0</ele><time>2026-05-02T08:25:01.955Z</time></trkpt><trkpt lat="43.5172667" lon="11.61017"><ele>152.33333333333334</ele><time>2026-05-02T08:25:02.954Z</time></trkpt><trkpt lat="43.517215" lon="11.61026"><ele>152.66666666666666</ele><time>2026-05-02T08:25:03.952Z</time></trkpt><trkpt lat="43.5171633" lon="11.6103517"><ele>153.0</ele><time>2026-05-02T08:25:04.953Z</time></trkpt><trkpt lat="43.517115" lon="11.6104367"><ele>152.66666666666666</ele><time>2026-05-02T08:25:05.954Z</time></trkpt><trkpt lat="43.517065" lon="11.6105233"><ele>152.33333333333334</ele><time>2026-05-02T08:25:06.954Z</time></trkpt><trkpt lat="43.517015" lon="11.6106133"><ele>152.0</ele><time>2026-05-02T08:25:07.953Z</time></trkpt><trkpt lat="43.516965" lon="11.6107"><ele>151.66666666666669</ele><time>2026-05-02T08:25:08.953Z</time></trkpt><trkpt lat="43.5169133" lon="11.61079"><ele>151.33333333333334</ele><time>2026-05-02T08:25:09.953Z</time></trkpt><trkpt lat="43.516865" lon="11.6108767"><ele>151.0</ele><time>2026-05-02T08:25:10.952Z</time></trkpt><trkpt lat="43.5168183" lon="11.6109667"><ele>151.0</ele><time>2026-05-02T08:25:11.953Z</time></trkpt><trkpt lat="43.5167717" lon="11.6110583"><ele>151.0</ele><time>2026-05-02T08:25:12.953Z</time></trkpt><trkpt lat="43.5167217" lon="11.6111517"><ele>151.0</ele><time>2026-05-02T08:25:13.953Z</time></trkpt><trkpt lat="43.5166733" lon="11.6112417"><ele>151.0</ele><time>2026-05-02T08:25:14.954Z</time></trkpt><trkpt lat="43.516625" lon="11.6113317"><ele>151.0</ele><time>2026-05-02T08:25:15.953Z</time></trkpt><trkpt lat="43.5165783" lon="11.61142"><ele>151.0</ele><time>2026-05-02T08:25:16.954Z</time></trkpt><trkpt lat="43.5165333" lon="11.61151"><ele>151.33333333333334</ele><time>2026-05-02T08:25:17.953Z</time></trkpt><trkpt lat="43.5164883" lon="11.61161"><ele>151.66666666666669</ele><time>2026-05-02T08:25:18.953Z</time></trkpt><trkpt lat="43.516445" lon="11.6117133"><ele>152.0</ele><time>2026-05-02T08:25:19.954Z</time></trkpt><trkpt lat="43.516405" lon="11.6118167"><ele>152.33333333333334</ele><time>2026-05-02T08:25:20.954Z</time></trkpt><trkpt lat="43.5163667" lon="11.6119217"><ele>152.66666666666666</ele><time>2026-05-02T08:25:21.954Z</time></trkpt><trkpt lat="43.51633" lon="11.6120267"><ele>153.0</ele><time>2026-05-02T08:25:22.952Z</time></trkpt><trkpt lat="43.516295" lon="11.6121283"><ele>153.0</ele><time>2026-05-02T08:25:23.954Z</time></trkpt><trkpt lat="43.5162617" lon="11.6122317"><ele>153.0</ele><time>2026-05-02T08:25:24.954Z</time></trkpt><trkpt lat="43.51623" lon="11.6123367"><ele>153.0</ele><time>2026-05-02T08:25:25.953Z</time></trkpt><trkpt lat="43.5162017" lon="11.61244"><ele>153.0</ele><time>2026-05-02T08:25:26.953Z</time></trkpt><trkpt lat="43.51617" lon="11.6125433"><ele>153.0</ele><time>2026-05-02T08:25:27.954Z</time></trkpt><trkpt lat="43.51614" lon="11.6126483"><ele>153.0</ele><time>2026-05-02T08:25:28.953Z</time></trkpt><trkpt lat="43.5161067" lon="11.6127517"><ele>152.5</ele><time>2026-05-02T08:25:29.954Z</time></trkpt><trkpt lat="43.516075" lon="11.6128533"><ele>152.0</ele><time>2026-05-02T08:25:30.955Z</time></trkpt><trkpt lat="43.5160433" lon="11.6129583"><ele>151.5</ele><time>2026-05-02T08:25:31.952Z</time></trkpt><trkpt lat="43.5160117" lon="11.6130583"><ele>151.0</ele><time>2026-05-02T08:25:32.954Z</time></trkpt><trkpt lat="43.5159783" lon="11.6131567"><ele>150.5</ele><time>2026-05-02T08:25:33.955Z</time></trkpt><trkpt lat="43.5159483" lon="11.6132533"><ele>150.0</ele><time>2026-05-02T08:25:34.953Z</time></trkpt><trkpt lat="43.5159183" lon="11.61335"><ele>150.0</ele><time>2026-05-02T08:25:35.952Z</time></trkpt><trkpt lat="43.5158867" lon="11.6134467"><ele>150.0</ele><time>2026-05-02T08:25:36.954Z</time></trkpt><trkpt lat="43.515855" lon="11.61354"><ele>150.0</ele><time>2026-05-02T08:25:37.953Z</time></trkpt><trkpt lat="43.515825" lon="11.6136367"><ele>150.0</ele><time>2026-05-02T08:25:38.954Z</time></trkpt><trkpt lat="43.515795" lon="11.6137433"><ele>150.0</ele><time>2026-05-02T08:25:39.954Z</time></trkpt><trkpt lat="43.5157617" lon="11.6138417"><ele>150.0</ele><time>2026-05-02T08:25:40.952Z</time></trkpt><trkpt lat="43.5157317" lon="11.6139383"><ele>150.83333333333334</ele><time>2026-05-02T08:25:41.954Z</time></trkpt><trkpt lat="43.5157017" lon="11.6140333"><ele>151.66666666666666</ele><time>2026-05-02T08:25:42.952Z</time></trkpt><trkpt lat="43.51567" lon="11.61413"><ele>152.5</ele><time>2026-05-02T08:25:43.954Z</time></trkpt><trkpt lat="43.5156383" lon="11.614225"><ele>153.33333333333331</ele><time>2026-05-02T08:25:44.954Z</time></trkpt><trkpt lat="43.5156067" lon="11.6143183"><ele>154.16666666666666</ele><time>2026-05-02T08:25:45.953Z</time></trkpt><trkpt lat="43.5155783" lon="11.614415"><ele>155.0</ele><time>2026-05-02T08:25:46.953Z</time></trkpt><trkpt lat="43.5155467" lon="11.6145083"><ele>155.28571428571428</ele><time>2026-05-02T08:25:47.954Z</time></trkpt><trkpt lat="43.5155167" lon="11.6146"><ele>155.57142857142856</ele><time>2026-05-02T08:25:48.951Z</time></trkpt><trkpt lat="43.5154883" lon="11.6146967"><ele>155.85714285714283</ele><time>2026-05-02T08:25:49.954Z</time></trkpt><trkpt lat="43.515465" lon="11.6147883"><ele>156.14285714285714</ele><time>2026-05-02T08:25:50.954Z</time></trkpt><trkpt lat="43.5154433" lon="11.6148783"><ele>156.42857142857142</ele><time>2026-05-02T08:25:51.954Z</time></trkpt><trkpt lat="43.5154233" lon="11.6149767"><ele>156.7142857142857</ele><time>2026-05-02T08:25:52.954Z</time></trkpt><trkpt lat="43.515405" lon="11.6150733"><ele>157.0</ele><time>2026-05-02T08:25:53.954Z</time></trkpt><trkpt lat="43.515385" lon="11.61517"><ele>155.33333333333334</ele><time>2026-05-02T08:25:54.952Z</time></trkpt><trkpt lat="43.5153667" lon="11.61527"><ele>153.66666666666669</ele><time>2026-05-02T08:25:55.952Z</time></trkpt><trkpt lat="43.5153517" lon="11.61537"><ele>152.0</ele><time>2026-05-02T08:25:56.954Z</time></trkpt><trkpt lat="43.51533" lon="11.61547"><ele>150.33333333333334</ele><time>2026-05-02T08:25:57.954Z</time></trkpt><trkpt lat="43.51531" lon="11.61557"><ele>148.66666666666666</ele><time>2026-05-02T08:25:58.953Z</time></trkpt><trkpt lat="43.51529" lon="11.61567"><ele>147.0</ele><time>2026-05-02T08:25:59.953Z</time></trkpt><trkpt lat="43.51527" lon="11.6157717"><ele>147.0</ele><time>2026-05-02T08:26:00.951Z</time></trkpt><trkpt lat="43.51525" lon="11.6158667"><ele>147.0</ele><time>2026-05-02T08:26:01.953Z</time></trkpt><trkpt lat="43.51523" lon="11.6159633"><ele>147.0</ele><time>2026-05-02T08:26:02.954Z</time></trkpt><trkpt lat="43.5152083" lon="11.616055"><ele>147.0</ele><time>2026-05-02T08:26:03.953Z</time></trkpt><trkpt lat="43.5151867" lon="11.6161517"><ele>147.0</ele><time>2026-05-02T08:26:04.952Z</time></trkpt><trkpt lat="43.5151633" lon="11.616245"><ele>147.0</ele><time>2026-05-02T08:26:05.954Z</time></trkpt><trkpt lat="43.515145" lon="11.6163383"><ele>147.0</ele><time>2026-05-02T08:26:06.953Z</time></trkpt><trkpt lat="43.5151283" lon="11.61643"><ele>147.42857142857142</ele><time>2026-05-02T08:26:07.954Z</time></trkpt><trkpt lat="43.5151133" lon="11.6165233"><ele>147.85714285714286</ele><time>2026-05-02T08:26:08.954Z</time></trkpt><trkpt lat="43.5151017" lon="11.61662"><ele>148.28571428571428</ele><time>2026-05-02T08:26:09.953Z</time></trkpt><trkpt lat="43.51509" lon="11.6167233"><ele>148.71428571428572</ele><time>2026-05-02T08:26:10.952Z</time></trkpt><trkpt lat="43.5150817" lon="11.6168217"><ele>149.14285714285714</ele><time>2026-05-02T08:26:11.954Z</time></trkpt><trkpt lat="43.5150717" lon="11.61692"><ele>149.57142857142856</ele><time>2026-05-02T08:26:12.952Z</time></trkpt><trkpt lat="43.5150633" lon="11.6170217"><ele>150.0</ele><time>2026-05-02T08:26:13.953Z</time></trkpt><trkpt lat="43.51505" lon="11.6171283"><ele>150.66666666666666</ele><time>2026-05-02T08:26:14.953Z</time></trkpt><trkpt lat="43.5150383" lon="11.6172367"><ele>151.33333333333334</ele><time>2026-05-02T08:26:15.953Z</time></trkpt><trkpt lat="43.5150233" lon="11.6173433"><ele>152.0</ele><time>2026-05-02T08:26:16.953Z</time></trkpt><trkpt lat="43.515005" lon="11.617445"><ele>152.66666666666669</ele><time>2026-05-02T08:26:17.955Z</time></trkpt><trkpt lat="43.5149833" lon="11.6175483"><ele>153.33333333333334</ele><time>2026-05-02T08:26:18.954Z</time></trkpt><trkpt lat="43.5149617" lon="11.617645"><ele>154.0</ele><time>2026-05-02T08:26:19.954Z</time></trkpt><trkpt lat="43.5149433" lon="11.6177417"><ele>154.14285714285714</ele><time>2026-05-02T08:26:20.953Z</time></trkpt><trkpt lat="43.5149283" lon="11.617835"><ele>154.28571428571428</ele><time>2026-05-02T08:26:21.954Z</time></trkpt><trkpt lat="43.514915" lon="11.6179267"><ele>154.42857142857144</ele><time>2026-05-02T08:26:22.953Z</time></trkpt><trkpt lat="43.5149083" lon="11.6180217"><ele>154.57142857142856</ele><time>2026-05-02T08:26:23.951Z</time></trkpt><trkpt lat="43.514905" lon="11.6181183"><ele>154.71428571428572</ele><time>2026-05-02T08:26:24.955Z</time></trkpt><trkpt lat="43.5149017" lon="11.6182183"><ele>154.85714285714286</ele><time>2026-05-02T08:26:25.953Z</time></trkpt><trkpt lat="43.5149017" lon="11.6183167"><ele>155.0</ele><time>2026-05-02T08:26:26.953Z</time></trkpt><trkpt lat="43.5149033" lon="11.6184183"><ele>155.0</ele><time>2026-05-02T08:26:27.953Z</time></trkpt><trkpt lat="43.5149017" lon="11.61852"><ele>155.0</ele><time>2026-05-02T08:26:28.953Z</time></trkpt><trkpt lat="43.5148983" lon="11.618625"><ele>155.0</ele><time>2026-05-02T08:26:29.953Z</time></trkpt><trkpt lat="43.5149" lon="11.6187317"><ele>155.0</ele><time>2026-05-02T08:26:30.955Z</time></trkpt><trkpt lat="43.5149033" lon="11.6188367"><ele>155.0</ele><time>2026-05-02T08:26:31.954Z</time></trkpt><trkpt lat="43.5149033" lon="11.618945"><ele>155.0</ele><time>2026-05-02T08:26:32.954Z</time></trkpt><trkpt lat="43.5149017" lon="11.619055"><ele>154.83333333333331</ele><time>2026-05-02T08:26:33.954Z</time></trkpt><trkpt lat="43.514895" lon="11.6191683"><ele>154.66666666666666</ele><time>2026-05-02T08:26:34.953Z</time></trkpt><trkpt lat="43.5148917" lon="11.6192783"><ele>154.5</ele><time>2026-05-02T08:26:35.954Z</time></trkpt><trkpt lat="43.5148867" lon="11.619385"><ele>154.33333333333334</ele><time>2026-05-02T08:26:36.954Z</time></trkpt><trkpt lat="43.5148783" lon="11.6194917"><ele>154.16666666666669</ele><time>2026-05-02T08:26:37.954Z</time></trkpt><trkpt lat="43.51487" lon="11.619595"><ele>154.0</ele><time>2026-05-02T08:26:38.953Z</time></trkpt><trkpt lat="43.514865" lon="11.6197"><ele>154.0</ele><time>2026-05-02T08:26:39.953Z</time></trkpt><trkpt lat="43.51486" lon="11.6198033"><ele>154.0</ele><time>2026-05-02T08:26:40.953Z</time></trkpt><trkpt lat="43.5148533" lon="11.6199083"><ele>154.0</ele><time>2026-05-02T08:26:41.953Z</time></trkpt><trkpt lat="43.5148483" lon="11.6200133"><ele>154.0</ele><time>2026-05-02T08:26:42.953Z</time></trkpt><trkpt lat="43.5148433" lon="11.6201133"><ele>154.0</ele><time>2026-05-02T08:26:43.953Z</time></trkpt><trkpt lat="43.5148367" lon="11.6202133"><ele>154.0</ele><time>2026-05-02T08:26:44.954Z</time></trkpt><trkpt lat="43.51483" lon="11.620315"><ele>154.0</ele><time>2026-05-02T08:26:45.953Z</time></trkpt><trkpt lat="43.5148233" lon="11.6204167"><ele>154.42857142857142</ele><time>2026-05-02T08:26:46.953Z</time></trkpt><trkpt lat="43.5148167" lon="11.6205167"><ele>154.85714285714286</ele><time>2026-05-02T08:26:47.953Z</time></trkpt><trkpt lat="43.5148117" lon="11.62062"><ele>155.28571428571428</ele><time>2026-05-02T08:26:48.951Z</time></trkpt><trkpt lat="43.514805" lon="11.620725"><ele>155.71428571428572</ele><time>2026-05-02T08:26:49.953Z</time></trkpt><trkpt lat="43.5147967" lon="11.6208233"><ele>156.14285714285714</ele><time>2026-05-02T08:26:50.953Z</time></trkpt><trkpt lat="43.51479" lon="11.62092"><ele>156.57142857142856</ele><time>2026-05-02T08:26:51.953Z</time></trkpt><trkpt lat="43.514785" lon="11.621015"><ele>157.0</ele><time>2026-05-02T08:26:52.953Z</time></trkpt><trkpt lat="43.5147783" lon="11.6211133"><ele>156.99999999999997</ele><time>2026-05-02T08:26:53.953Z</time></trkpt><trkpt lat="43.5147717" lon="11.62121"><ele>157.0</ele><time>2026-05-02T08:26:54.953Z</time></trkpt><trkpt lat="43.5147633" lon="11.6213083"><ele>157.0</ele><time>2026-05-02T08:26:55.953Z</time></trkpt><trkpt lat="43.5147567" lon="11.621405"><ele>157.0</ele><time>2026-05-02T08:26:56.953Z</time></trkpt><trkpt lat="43.5147517" lon="11.6215017"><ele>157.0</ele><time>2026-05-02T08:26:57.951Z</time></trkpt><trkpt lat="43.5147467" lon="11.621595"><ele>156.99999999999997</ele><time>2026-05-02T08:26:58.953Z</time></trkpt><trkpt lat="43.5147433" lon="11.621685"><ele>157.0</ele><time>2026-05-02T08:26:59.953Z</time></trkpt><trkpt lat="43.51474" lon="11.6217833"><ele>157.0</ele><time>2026-05-02T08:27:00.953Z</time></trkpt><trkpt lat="43.5147367" lon="11.6218867"><ele>157.0</ele><time>2026-05-02T08:27:01.952Z</time></trkpt><trkpt lat="43.5147333" lon="11.6219967"><ele>157.0</ele><time>2026-05-02T08:27:02.954Z</time></trkpt><trkpt lat="43.5147333" lon="11.6221033"><ele>157.0</ele><time>2026-05-02T08:27:03.953Z</time></trkpt><trkpt lat="43.5147317" lon="11.6222167"><ele>157.0</ele><time>2026-05-02T08:27:04.953Z</time></trkpt><trkpt lat="43.5147317" lon="11.622325"><ele>157.0</ele><time>2026-05-02T08:27:05.954Z</time></trkpt><trkpt lat="43.51473" lon="11.6224367"><ele>156.66666666666669</ele><time>2026-05-02T08:27:06.954Z</time></trkpt><trkpt lat="43.5147283" lon="11.6225483"><ele>156.33333333333334</ele><time>2026-05-02T08:27:07.955Z</time></trkpt><trkpt lat="43.514725" lon="11.6226633"><ele>156.0</ele><time>2026-05-02T08:27:08.954Z</time></trkpt><trkpt lat="43.5147217" lon="11.622775"><ele>155.66666666666666</ele><time>2026-05-02T08:27:09.954Z</time></trkpt><trkpt lat="43.5147167" lon="11.6228867"><ele>155.33333333333331</ele><time>2026-05-02T08:27:10.954Z</time></trkpt><trkpt lat="43.51471" lon="11.623"><ele>155.0</ele><time>2026-05-02T08:27:11.955Z</time></trkpt><trkpt lat="43.5147033" lon="11.623105"><ele>155.0</ele><time>2026-05-02T08:27:12.955Z</time></trkpt><trkpt lat="43.5146983" lon="11.6232117"><ele>155.0</ele><time>2026-05-02T08:27:13.953Z</time></trkpt><trkpt lat="43.5146933" lon="11.623315"><ele>155.0</ele><time>2026-05-02T08:27:14.954Z</time></trkpt><trkpt lat="43.5146883" lon="11.6234183"><ele>155.0</ele><time>2026-05-02T08:27:15.954Z</time></trkpt><trkpt lat="43.51468" lon="11.623515"><ele>155.0</ele><time>2026-05-02T08:27:16.953Z</time></trkpt><trkpt lat="43.5146717" lon="11.623615"><ele>155.0</ele><time>2026-05-02T08:27:17.953Z</time></trkpt><trkpt lat="43.514665" lon="11.62372"><ele>155.0</ele><time>2026-05-02T08:27:18.954Z</time></trkpt><trkpt lat="43.5146583" lon="11.6238267"><ele>155.14285714285714</ele><time>2026-05-02T08:27:19.953Z</time></trkpt><trkpt lat="43.5146533" lon="11.62393"><ele>155.28571428571428</ele><time>2026-05-02T08:27:20.954Z</time></trkpt><trkpt lat="43.5146483" lon="11.624025"><ele>155.42857142857144</ele><time>2026-05-02T08:27:21.954Z</time></trkpt><trkpt lat="43.5146433" lon="11.62412"><ele>155.57142857142856</ele><time>2026-05-02T08:27:22.953Z</time></trkpt><trkpt lat="43.5146383" lon="11.6242217"><ele>155.7142857142857</ele><time>2026-05-02T08:27:23.954Z</time></trkpt><trkpt lat="43.5146333" lon="11.624315"><ele>155.85714285714286</ele><time>2026-05-02T08:27:24.953Z</time></trkpt><trkpt lat="43.51463" lon="11.624415"><ele>156.0</ele><time>2026-05-02T08:27:25.954Z</time></trkpt><trkpt lat="43.51463" lon="11.6245183"><ele>156.16666666666666</ele><time>2026-05-02T08:27:26.953Z</time></trkpt><trkpt lat="43.51463" lon="11.624615"><ele>156.33333333333334</ele><time>2026-05-02T08:27:27.953Z</time></trkpt><trkpt lat="43.514635" lon="11.6247183"><ele>156.5</ele><time>2026-05-02T08:27:28.954Z</time></trkpt><trkpt lat="43.5146467" lon="11.6248267"><ele>156.66666666666669</ele><time>2026-05-02T08:27:29.954Z</time></trkpt><trkpt lat="43.5146633" lon="11.62493"><ele>156.83333333333334</ele><time>2026-05-02T08:27:30.953Z</time></trkpt><trkpt lat="43.5146817" lon="11.6250333"><ele>157.0</ele><time>2026-05-02T08:27:31.954Z</time></trkpt><trkpt lat="43.5146967" lon="11.6251367"><ele>156.99999999999997</ele><time>2026-05-02T08:27:32.955Z</time></trkpt><trkpt lat="43.51471" lon="11.6252317"><ele>157.0</ele><time>2026-05-02T08:27:33.955Z</time></trkpt><trkpt lat="43.5147167" lon="11.62533"><ele>157.0</ele><time>2026-05-02T08:27:34.953Z</time></trkpt><trkpt lat="43.5147183" lon="11.6254317"><ele>157.0</ele><time>2026-05-02T08:27:35.953Z</time></trkpt><trkpt lat="43.514715" lon="11.6255267"><ele>157.0</ele><time>2026-05-02T08:27:36.954Z</time></trkpt><trkpt lat="43.514705" lon="11.6256167"><ele>156.99999999999997</ele><time>2026-05-02T08:27:37.953Z</time></trkpt><trkpt lat="43.5146967" lon="11.625705"><ele>157.0</ele><time>2026-05-02T08:27:38.955Z</time></trkpt><trkpt lat="43.5146883" lon="11.6257933"><ele>157.0</ele><time>2026-05-02T08:27:39.953Z</time></trkpt><trkpt lat="43.5146767" lon="11.6258817"><ele>157.0</ele><time>2026-05-02T08:27:40.955Z</time></trkpt><trkpt lat="43.514655" lon="11.6260217"><ele>157.0</ele><time>2026-05-02T08:27:42.953Z</time></trkpt><trkpt lat="43.5146283" lon="11.6261867"><ele>157.0</ele><time>2026-05-02T08:27:44.955Z</time></trkpt><trkpt lat="43.5146133" lon="11.626275"><ele>157.0</ele><time>2026-05-02T08:27:45.954Z</time></trkpt><trkpt lat="43.5145967" lon="11.6263683"><ele>157.0</ele><time>2026-05-02T08:27:46.953Z</time></trkpt><trkpt lat="43.5145817" lon="11.6264667"><ele>156.0</ele><time>2026-05-02T08:27:47.955Z</time></trkpt><trkpt lat="43.51456" lon="11.62657"><ele>155.0</ele><time>2026-05-02T08:27:48.954Z</time></trkpt><trkpt lat="43.5145267" lon="11.626665"><ele>154.0</ele><time>2026-05-02T08:27:49.952Z</time></trkpt><trkpt lat="43.51448" lon="11.6267417"><ele>153.0</ele><time>2026-05-02T08:27:50.955Z</time></trkpt><trkpt lat="43.51443" lon="11.6267967"><ele>152.0</ele><time>2026-05-02T08:27:51.954Z</time></trkpt><trkpt lat="43.5143517" lon="11.6268767"><ele>151.0</ele><time>2026-05-02T08:27:53.954Z</time></trkpt><trkpt lat="43.5141967" lon="11.626945"><ele>151.0</ele><time>2026-05-02T08:27:55.954Z</time></trkpt><trkpt lat="43.514115" lon="11.626965"><ele>151.0</ele><time>2026-05-02T08:27:56.955Z</time></trkpt><trkpt lat="43.5140367" lon="11.6270267"><ele>151.0</ele><time>2026-05-02T08:27:57.953Z</time></trkpt><trkpt lat="43.513985" lon="11.6271117"><ele>151.0</ele><time>2026-05-02T08:27:58.954Z</time></trkpt><trkpt lat="43.513935" lon="11.6272067"><ele>151.0</ele><time>2026-05-02T08:27:59.954Z</time></trkpt><trkpt lat="43.5138967" lon="11.6273067"><ele>151.0</ele><time>2026-05-02T08:28:00.954Z</time></trkpt><trkpt lat="43.5138567" lon="11.627405"><ele>150.66666666666669</ele><time>2026-05-02T08:28:01.956Z</time></trkpt><trkpt lat="43.5138167" lon="11.6275"><ele>150.33333333333334</ele><time>2026-05-02T08:28:02.954Z</time></trkpt><trkpt lat="43.5137783" lon="11.6275917"><ele>150.0</ele><time>2026-05-02T08:28:03.956Z</time></trkpt><trkpt lat="43.513735" lon="11.627685"><ele>149.66666666666666</ele><time>2026-05-02T08:28:04.953Z</time></trkpt><trkpt lat="43.5136933" lon="11.627775"><ele>149.33333333333331</ele><time>2026-05-02T08:28:05.954Z</time></trkpt><trkpt lat="43.513655" lon="11.6278683"><ele>149.0</ele><time>2026-05-02T08:28:06.953Z</time></trkpt><trkpt lat="43.51362" lon="11.6279533"><ele>149.66666666666666</ele><time>2026-05-02T08:28:07.953Z</time></trkpt><trkpt lat="43.51359" lon="11.6280367"><ele>150.33333333333331</ele><time>2026-05-02T08:28:08.953Z</time></trkpt><trkpt lat="43.5135667" lon="11.62812"><ele>151.0</ele><time>2026-05-02T08:28:09.953Z</time></trkpt><trkpt lat="43.5135433" lon="11.6282067"><ele>151.66666666666666</ele><time>2026-05-02T08:28:10.954Z</time></trkpt><trkpt lat="43.513525" lon="11.6282967"><ele>152.33333333333334</ele><time>2026-05-02T08:28:11.954Z</time></trkpt><trkpt lat="43.5134917" lon="11.6284317"><ele>153.0</ele><time>2026-05-02T08:28:13.952Z</time></trkpt><trkpt lat="43.5134583" lon="11.62859"><ele>153.28571428571428</ele><time>2026-05-02T08:28:15.955Z</time></trkpt><trkpt lat="43.5134417" lon="11.62868"><ele>153.57142857142858</ele><time>2026-05-02T08:28:16.953Z</time></trkpt><trkpt lat="43.5134233" lon="11.628775"><ele>153.85714285714286</ele><time>2026-05-02T08:28:17.954Z</time></trkpt><trkpt lat="43.513405" lon="11.6288717"><ele>154.14285714285714</ele><time>2026-05-02T08:28:18.955Z</time></trkpt><trkpt lat="43.5133833" lon="11.6289667"><ele>154.42857142857142</ele><time>2026-05-02T08:28:19.953Z</time></trkpt><trkpt lat="43.5133583" lon="11.6290667"><ele>154.71428571428572</ele><time>2026-05-02T08:28:20.953Z</time></trkpt><trkpt lat="43.513335" lon="11.629165"><ele>155.0</ele><time>2026-05-02T08:28:21.954Z</time></trkpt><trkpt lat="43.513315" lon="11.6292683"><ele>155.0</ele><time>2026-05-02T08:28:22.954Z</time></trkpt><trkpt lat="43.5132933" lon="11.62936"><ele>155.0</ele><time>2026-05-02T08:28:23.953Z</time></trkpt><trkpt lat="43.5132717" lon="11.6294517"><ele>155.0</ele><time>2026-05-02T08:28:24.954Z</time></trkpt><trkpt lat="43.5132467" lon="11.6295383"><ele>155.0</ele><time>2026-05-02T08:28:25.955Z</time></trkpt><trkpt lat="43.513225" lon="11.6296367"><ele>155.0</ele><time>2026-05-02T08:28:26.953Z</time></trkpt><trkpt lat="43.5132017" lon="11.6297383"><ele>155.0</ele><time>2026-05-02T08:28:27.953Z</time></trkpt><trkpt lat="43.5131783" lon="11.6298433"><ele>155.0</ele><time>2026-05-02T08:28:28.954Z</time></trkpt><trkpt lat="43.5131517" lon="11.62995"><ele>155.28571428571428</ele><time>2026-05-02T08:28:29.952Z</time></trkpt><trkpt lat="43.5131267" lon="11.6300433"><ele>155.57142857142856</ele><time>2026-05-02T08:28:30.952Z</time></trkpt><trkpt lat="43.5131067" lon="11.6301483"><ele>155.85714285714283</ele><time>2026-05-02T08:28:31.951Z</time></trkpt><trkpt lat="43.513085" lon="11.6302517"><ele>156.14285714285714</ele><time>2026-05-02T08:28:32.954Z</time></trkpt><trkpt lat="43.513065" lon="11.6303533"><ele>156.42857142857142</ele><time>2026-05-02T08:28:33.953Z</time></trkpt><trkpt lat="43.5130433" lon="11.63045"><ele>156.7142857142857</ele><time>2026-05-02T08:28:34.953Z</time></trkpt><trkpt lat="43.513005" lon="11.6305217"><ele>157.0</ele><time>2026-05-02T08:28:35.953Z</time></trkpt><trkpt lat="43.512945" lon="11.6305617"><ele>156.14285714285714</ele><time>2026-05-02T08:28:36.953Z</time></trkpt><trkpt lat="43.512875" lon="11.6305667"><ele>155.28571428571428</ele><time>2026-05-02T08:28:37.952Z</time></trkpt><trkpt lat="43.5128083" lon="11.6305367"><ele>154.42857142857144</ele><time>2026-05-02T08:28:38.956Z</time></trkpt><trkpt lat="43.51274" lon="11.630495"><ele>153.57142857142856</ele><time>2026-05-02T08:28:39.956Z</time></trkpt><trkpt lat="43.5126733" lon="11.6304483"><ele>152.71428571428572</ele><time>2026-05-02T08:28:40.954Z</time></trkpt><trkpt lat="43.512605" lon="11.6304033"><ele>151.85714285714286</ele><time>2026-05-02T08:28:41.952Z</time></trkpt><trkpt lat="43.51254" lon="11.6303633"><ele>151.0</ele><time>2026-05-02T08:28:42.955Z</time></trkpt><trkpt lat="43.51247" lon="11.630325"><ele>150.71428571428572</ele><time>2026-05-02T08:28:43.955Z</time></trkpt><trkpt lat="43.512405" lon="11.63029"><ele>150.42857142857144</ele><time>2026-05-02T08:28:44.955Z</time></trkpt><trkpt lat="43.5123433" lon="11.6302517"><ele>150.14285714285714</ele><time>2026-05-02T08:28:45.954Z</time></trkpt><trkpt lat="43.5122817" lon="11.63021"><ele>149.85714285714286</ele><time>2026-05-02T08:28:46.954Z</time></trkpt><trkpt lat="43.512215" lon="11.6301667"><ele>149.57142857142856</ele><time>2026-05-02T08:28:47.953Z</time></trkpt><trkpt lat="43.51215" lon="11.6301267"><ele>149.28571428571428</ele><time>2026-05-02T08:28:48.954Z</time></trkpt><trkpt lat="43.51209" lon="11.6300983"><ele>149.0</ele><time>2026-05-02T08:28:49.956Z</time></trkpt><trkpt lat="43.5120267" lon="11.630065"><ele>150.66666666666666</ele><time>2026-05-02T08:28:50.955Z</time></trkpt><trkpt lat="43.5119683" lon="11.6300317"><ele>152.33333333333331</ele><time>2026-05-02T08:28:51.954Z</time></trkpt><trkpt lat="43.5118533" lon="11.629965"><ele>154.0</ele><time>2026-05-02T08:28:53.953Z</time></trkpt><trkpt lat="43.5117633" lon="11.62991"><ele>155.66666666666666</ele><time>2026-05-02T08:28:55.954Z</time></trkpt><trkpt lat="43.511685" lon="11.6298633"><ele>157.33333333333334</ele><time>2026-05-02T08:28:57.951Z</time></trkpt><trkpt lat="43.5116217" lon="11.6298067"><ele>159.0</ele><time>2026-05-02T08:28:59.954Z</time></trkpt><trkpt lat="43.5115567" lon="11.629735"><ele>159.0</ele><time>2026-05-02T08:29:01.953Z</time></trkpt><trkpt lat="43.511505" lon="11.6296567"><ele>159.0</ele><time>2026-05-02T08:29:03.953Z</time></trkpt><trkpt lat="43.511485" lon="11.62957"><ele>159.0</ele><time>2026-05-02T08:29:05.953Z</time></trkpt><trkpt lat="43.5114467" lon="11.629465"><ele>159.0</ele><time>2026-05-02T08:29:07.953Z</time></trkpt><trkpt lat="43.5114133" lon="11.62935"><ele>159.0</ele><time>2026-05-02T08:29:09.953Z</time></trkpt><trkpt lat="43.5113783" lon="11.6292367"><ele>159.0</ele><time>2026-05-02T08:29:11.952Z</time></trkpt><trkpt lat="43.5113483" lon="11.6291167"><ele>159.2</ele><time>2026-05-02T08:29:13.955Z</time></trkpt><trkpt lat="43.5113217" lon="11.6289983"><ele>159.4</ele><time>2026-05-02T08:29:15.953Z</time></trkpt><trkpt lat="43.51129" lon="11.6288667"><ele>159.6</ele><time>2026-05-02T08:29:17.954Z</time></trkpt><trkpt lat="43.5112517" lon="11.6287283"><ele>159.8</ele><time>2026-05-02T08:29:19.955Z</time></trkpt><trkpt lat="43.51121" lon="11.6285783"><ele>160.0</ele><time>2026-05-02T08:29:21.954Z</time></trkpt><trkpt lat="43.5111633" lon="11.6284283"><ele>162.0</ele><time>2026-05-02T08:29:23.955Z</time></trkpt><trkpt lat="43.5111117" lon="11.6282767"><ele>164.0</ele><time>2026-05-02T08:29:25.956Z</time></trkpt><trkpt lat="43.5110617" lon="11.62812"><ele>166.0</ele><time>2026-05-02T08:29:27.956Z</time></trkpt><trkpt lat="43.5110317" lon="11.62804"><ele>168.0</ele><time>2026-05-02T08:29:28.953Z</time></trkpt><trkpt lat="43.5109733" lon="11.6278767"><ele>170.0</ele><time>2026-05-02T08:29:30.953Z</time></trkpt><trkpt lat="43.51094" lon="11.6277933"><ele>170.0</ele><time>2026-05-02T08:29:31.953Z</time></trkpt><trkpt lat="43.51091" lon="11.6277067"><ele>170.0</ele><time>2026-05-02T08:29:32.954Z</time></trkpt><trkpt lat="43.5108783" lon="11.6276233"><ele>170.0</ele><time>2026-05-02T08:29:33.955Z</time></trkpt><trkpt lat="43.510845" lon="11.6275367"><ele>170.0</ele><time>2026-05-02T08:29:34.954Z</time></trkpt><trkpt lat="43.5108117" lon="11.62745"><ele>170.0</ele><time>2026-05-02T08:29:35.954Z</time></trkpt><trkpt lat="43.5107717" lon="11.6273617"><ele>170.0</ele><time>2026-05-02T08:29:36.953Z</time></trkpt><trkpt lat="43.5107383" lon="11.627275"><ele>170.0</ele><time>2026-05-02T08:29:37.953Z</time></trkpt><trkpt lat="43.5107067" lon="11.6271883"><ele>170.0</ele><time>2026-05-02T08:29:38.954Z</time></trkpt><trkpt lat="43.5106733" lon="11.6271017"><ele>170.0</ele><time>2026-05-02T08:29:39.956Z</time></trkpt><trkpt lat="43.5106383" lon="11.6270133"><ele>170.0</ele><time>2026-05-02T08:29:40.954Z</time></trkpt><trkpt lat="43.5106017" lon="11.6269233"><ele>170.0</ele><time>2026-05-02T08:29:41.953Z</time></trkpt><trkpt lat="43.5105667" lon="11.6268283"><ele>170.0</ele><time>2026-05-02T08:29:42.954Z</time></trkpt><trkpt lat="43.5105317" lon="11.6267317"><ele>170.0</ele><time>2026-05-02T08:29:43.955Z</time></trkpt><trkpt lat="43.5104917" lon="11.6266383"><ele>170.66666666666666</ele><time>2026-05-02T08:29:44.954Z</time></trkpt><trkpt lat="43.5104533" lon="11.6265417"><ele>171.33333333333331</ele><time>2026-05-02T08:29:45.953Z</time></trkpt><trkpt lat="43.5104133" lon="11.6264483"><ele>172.0</ele><time>2026-05-02T08:29:46.955Z</time></trkpt><trkpt lat="43.5103767" lon="11.626355"><ele>172.66666666666666</ele><time>2026-05-02T08:29:47.955Z</time></trkpt><trkpt lat="43.51034" lon="11.62626"><ele>173.33333333333334</ele><time>2026-05-02T08:29:48.954Z</time></trkpt><trkpt lat="43.5103017" lon="11.6261617"><ele>174.0</ele><time>2026-05-02T08:29:49.953Z</time></trkpt><trkpt lat="43.5102633" lon="11.6260583"><ele>171.66666666666666</ele><time>2026-05-02T08:29:50.955Z</time></trkpt><trkpt lat="43.5102283" lon="11.6259517"><ele>169.33333333333334</ele><time>2026-05-02T08:29:51.955Z</time></trkpt><trkpt lat="43.5101883" lon="11.62584"><ele>167.0</ele><time>2026-05-02T08:29:52.952Z</time></trkpt><trkpt lat="43.5101483" lon="11.62573"><ele>164.66666666666669</ele><time>2026-05-02T08:29:53.955Z</time></trkpt><trkpt lat="43.5101117" lon="11.62562"><ele>162.33333333333334</ele><time>2026-05-02T08:29:54.954Z</time></trkpt><trkpt lat="43.510075" lon="11.62551"><ele>160.0</ele><time>2026-05-02T08:29:55.954Z</time></trkpt><trkpt lat="43.510045" lon="11.625405"><ele>159.16666666666669</ele><time>2026-05-02T08:29:56.955Z</time></trkpt><trkpt lat="43.5100133" lon="11.6252967"><ele>158.33333333333334</ele><time>2026-05-02T08:29:57.953Z</time></trkpt><trkpt lat="43.509985" lon="11.6251867"><ele>157.5</ele><time>2026-05-02T08:29:58.956Z</time></trkpt><trkpt lat="43.509955" lon="11.6250817"><ele>156.66666666666666</ele><time>2026-05-02T08:29:59.954Z</time></trkpt><trkpt lat="43.5099217" lon="11.624975"><ele>155.83333333333331</ele><time>2026-05-02T08:30:00.954Z</time></trkpt><trkpt lat="43.5098917" lon="11.62487"><ele>155.0</ele><time>2026-05-02T08:30:01.955Z</time></trkpt><trkpt lat="43.50986" lon="11.6247617"><ele>155.0</ele><time>2026-05-02T08:30:02.955Z</time></trkpt><trkpt lat="43.50983" lon="11.624655"><ele>155.0</ele><time>2026-05-02T08:30:03.954Z</time></trkpt><trkpt lat="43.5097983" lon="11.6245533"><ele>155.0</ele><time>2026-05-02T08:30:04.955Z</time></trkpt><trkpt lat="43.5097617" lon="11.6244533"><ele>155.0</ele><time>2026-05-02T08:30:05.954Z</time></trkpt><trkpt lat="43.5097167" lon="11.62436"><ele>155.0</ele><time>2026-05-02T08:30:06.953Z</time></trkpt><trkpt lat="43.509665" lon="11.6242717"><ele>155.0</ele><time>2026-05-02T08:30:07.953Z</time></trkpt><trkpt lat="43.50961" lon="11.6241933"><ele>155.0</ele><time>2026-05-02T08:30:08.954Z</time></trkpt><trkpt lat="43.5095467" lon="11.6241283"><ele>155.0</ele><time>2026-05-02T08:30:09.953Z</time></trkpt><trkpt lat="43.5094783" lon="11.62407"><ele>155.0</ele><time>2026-05-02T08:30:10.953Z</time></trkpt><trkpt lat="43.5094083" lon="11.6240117"><ele>155.0</ele><time>2026-05-02T08:30:11.954Z</time></trkpt><trkpt lat="43.5093367" lon="11.6239467"><ele>155.0</ele><time>2026-05-02T08:30:12.955Z</time></trkpt><trkpt lat="43.5092617" lon="11.62388"><ele>155.0</ele><time>2026-05-02T08:30:13.955Z</time></trkpt><trkpt lat="43.5091867" lon="11.6238217"><ele>155.0</ele><time>2026-05-02T08:30:14.954Z</time></trkpt><trkpt lat="43.509115" lon="11.6237583"><ele>155.0</ele><time>2026-05-02T08:30:15.953Z</time></trkpt><trkpt lat="43.5090483" lon="11.6236967"><ele>155.0</ele><time>2026-05-02T08:30:16.954Z</time></trkpt><trkpt lat="43.50898" lon="11.62364"><ele>155.0</ele><time>2026-05-02T08:30:17.953Z</time></trkpt><trkpt lat="43.50891" lon="11.6235817"><ele>155.0</ele><time>2026-05-02T08:30:18.954Z</time></trkpt><trkpt lat="43.50884" lon="11.6235267"><ele>155.0</ele><time>2026-05-02T08:30:19.954Z</time></trkpt><trkpt lat="43.50877" lon="11.6234733"><ele>155.16666666666666</ele><time>2026-05-02T08:30:20.954Z</time></trkpt><trkpt lat="43.5087017" lon="11.623425"><ele>155.33333333333331</ele><time>2026-05-02T08:30:21.954Z</time></trkpt><trkpt lat="43.5086283" lon="11.6233767"><ele>155.5</ele><time>2026-05-02T08:30:22.955Z</time></trkpt><trkpt lat="43.508555" lon="11.62333"><ele>155.66666666666666</ele><time>2026-05-02T08:30:23.954Z</time></trkpt><trkpt lat="43.5084833" lon="11.6232817"><ele>155.83333333333334</ele><time>2026-05-02T08:30:24.955Z</time></trkpt><trkpt lat="43.5084133" lon="11.6232367"><ele>156.0</ele><time>2026-05-02T08:30:25.954Z</time></trkpt><trkpt lat="43.5083417" lon="11.62319"><ele>156.0</ele><time>2026-05-02T08:30:26.955Z</time></trkpt><trkpt lat="43.5082683" lon="11.6231433"><ele>156.0</ele><time>2026-05-02T08:30:27.955Z</time></trkpt><trkpt lat="43.508195" lon="11.6230983"><ele>156.0</ele><time>2026-05-02T08:30:28.954Z</time></trkpt><trkpt lat="43.508125" lon="11.6230517"><ele>156.0</ele><time>2026-05-02T08:30:29.955Z</time></trkpt><trkpt lat="43.50805" lon="11.623005"><ele>156.0</ele><time>2026-05-02T08:30:30.954Z</time></trkpt><trkpt lat="43.5079783" lon="11.622955"><ele>156.0</ele><time>2026-05-02T08:30:31.955Z</time></trkpt><trkpt lat="43.5079083" lon="11.622905"><ele>155.83333333333334</ele><time>2026-05-02T08:30:32.953Z</time></trkpt><trkpt lat="43.507835" lon="11.6228517"><ele>155.66666666666666</ele><time>2026-05-02T08:30:33.953Z</time></trkpt><trkpt lat="43.5077583" lon="11.6228"><ele>155.5</ele><time>2026-05-02T08:30:34.954Z</time></trkpt><trkpt lat="43.5076833" lon="11.6227467"><ele>155.33333333333331</ele><time>2026-05-02T08:30:35.955Z</time></trkpt><trkpt lat="43.5076117" lon="11.6226933"><ele>155.16666666666666</ele><time>2026-05-02T08:30:36.953Z</time></trkpt><trkpt lat="43.5075417" lon="11.6226383"><ele>155.0</ele><time>2026-05-02T08:30:37.954Z</time></trkpt><trkpt lat="43.50747" lon="11.6225867"><ele>154.83333333333331</ele><time>2026-05-02T08:30:38.953Z</time></trkpt><trkpt lat="43.5073983" lon="11.6225367"><ele>154.66666666666666</ele><time>2026-05-02T08:30:39.956Z</time></trkpt><trkpt lat="43.5073283" lon="11.6224883"><ele>154.5</ele><time>2026-05-02T08:30:40.954Z</time></trkpt><trkpt lat="43.507255" lon="11.6224417"><ele>154.33333333333334</ele><time>2026-05-02T08:30:41.953Z</time></trkpt><trkpt lat="43.5071817" lon="11.6223983"><ele>154.16666666666669</ele><time>2026-05-02T08:30:42.954Z</time></trkpt><trkpt lat="43.5071117" lon="11.622355"><ele>154.0</ele><time>2026-05-02T08:30:43.953Z</time></trkpt><trkpt lat="43.5070417" lon="11.6223117"><ele>154.0</ele><time>2026-05-02T08:30:44.956Z</time></trkpt><trkpt lat="43.5069717" lon="11.6222667"><ele>154.0</ele><time>2026-05-02T08:30:45.954Z</time></trkpt><trkpt lat="43.5069" lon="11.622225"><ele>154.0</ele><time>2026-05-02T08:30:46.954Z</time></trkpt><trkpt lat="43.50683" lon="11.6221783"><ele>154.0</ele><time>2026-05-02T08:30:47.956Z</time></trkpt><trkpt lat="43.5067617" lon="11.6221317"><ele>154.0</ele><time>2026-05-02T08:30:48.953Z</time></trkpt><trkpt lat="43.5066917" lon="11.6220767"><ele>154.0</ele><time>2026-05-02T08:30:49.954Z</time></trkpt><trkpt lat="43.506625" lon="11.6220217"><ele>154.0</ele><time>2026-05-02T08:30:50.955Z</time></trkpt><trkpt lat="43.50656" lon="11.621965"><ele>154.0</ele><time>2026-05-02T08:30:51.954Z</time></trkpt><trkpt lat="43.506495" lon="11.621905"><ele>154.0</ele><time>2026-05-02T08:30:52.954Z</time></trkpt><trkpt lat="43.5064283" lon="11.6218483"><ele>154.0</ele><time>2026-05-02T08:30:53.953Z</time></trkpt><trkpt lat="43.5063617" lon="11.6217833"><ele>154.0</ele><time>2026-05-02T08:30:54.953Z</time></trkpt><trkpt lat="43.5062967" lon="11.6217133"><ele>154.0</ele><time>2026-05-02T08:30:55.955Z</time></trkpt><trkpt lat="43.5062317" lon="11.621645"><ele>154.16666666666669</ele><time>2026-05-02T08:30:56.956Z</time></trkpt><trkpt lat="43.506165" lon="11.6215817"><ele>154.33333333333334</ele><time>2026-05-02T08:30:57.952Z</time></trkpt><trkpt lat="43.506095" lon="11.62152"><ele>154.5</ele><time>2026-05-02T08:30:58.954Z</time></trkpt><trkpt lat="43.5060283" lon="11.6214633"><ele>154.66666666666666</ele><time>2026-05-02T08:30:59.954Z</time></trkpt><trkpt lat="43.50596" lon="11.6214117"><ele>154.83333333333331</ele><time>2026-05-02T08:31:00.956Z</time></trkpt><trkpt lat="43.5058917" lon="11.6213683"><ele>155.0</ele><time>2026-05-02T08:31:01.953Z</time></trkpt><trkpt lat="43.5058233" lon="11.6213317"><ele>155.0</ele><time>2026-05-02T08:31:02.955Z</time></trkpt><trkpt lat="43.505755" lon="11.6212967"><ele>155.0</ele><time>2026-05-02T08:31:03.954Z</time></trkpt><trkpt lat="43.5056867" lon="11.6212617"><ele>155.0</ele><time>2026-05-02T08:31:04.952Z</time></trkpt><trkpt lat="43.5056183" lon="11.6212267"><ele>155.0</ele><time>2026-05-02T08:31:05.954Z</time></trkpt><trkpt lat="43.50555" lon="11.621195"><ele>155.0</ele><time>2026-05-02T08:31:06.954Z</time></trkpt><trkpt lat="43.5054833" lon="11.6211633"><ele>155.0</ele><time>2026-05-02T08:31:07.954Z</time></trkpt><trkpt lat="43.5054167" lon="11.6211333"><ele>155.0</ele><time>2026-05-02T08:31:08.956Z</time></trkpt><trkpt lat="43.5053483" lon="11.6211067"><ele>155.0</ele><time>2026-05-02T08:31:09.953Z</time></trkpt><trkpt lat="43.5052767" lon="11.62108"><ele>155.0</ele><time>2026-05-02T08:31:10.954Z</time></trkpt><trkpt lat="43.5052083" lon="11.6210533"><ele>155.0</ele><time>2026-05-02T08:31:11.955Z</time></trkpt><trkpt lat="43.5051417" lon="11.6210267"><ele>155.0</ele><time>2026-05-02T08:31:12.953Z</time></trkpt><trkpt lat="43.5050733" lon="11.6210083"><ele>155.0</ele><time>2026-05-02T08:31:13.954Z</time></trkpt><trkpt lat="43.5050017" lon="11.62099"><ele>155.0</ele><time>2026-05-02T08:31:14.953Z</time></trkpt><trkpt lat="43.5049317" lon="11.62097"><ele>155.0</ele><time>2026-05-02T08:31:15.953Z</time></trkpt><trkpt lat="43.5048567" lon="11.6209533"><ele>155.0</ele><time>2026-05-02T08:31:16.952Z</time></trkpt><trkpt lat="43.5047867" lon="11.6209333"><ele>155.0</ele><time>2026-05-02T08:31:17.955Z</time></trkpt><trkpt lat="43.5047183" lon="11.6209083"><ele>155.0</ele><time>2026-05-02T08:31:18.954Z</time></trkpt><trkpt lat="43.5046467" lon="11.62088"><ele>155.0</ele><time>2026-05-02T08:31:19.953Z</time></trkpt><trkpt lat="43.5045717" lon="11.6208533"><ele>155.0</ele><time>2026-05-02T08:31:20.953Z</time></trkpt><trkpt lat="43.504505" lon="11.6208283"><ele>155.0</ele><time>2026-05-02T08:31:21.954Z</time></trkpt><trkpt lat="43.50444" lon="11.620805"><ele>155.0</ele><time>2026-05-02T08:31:22.954Z</time></trkpt><trkpt lat="43.5043733" lon="11.6207817"><ele>155.16666666666666</ele><time>2026-05-02T08:31:23.956Z</time></trkpt><trkpt lat="43.5043067" lon="11.6207533"><ele>155.33333333333331</ele><time>2026-05-02T08:31:24.952Z</time></trkpt><trkpt lat="43.5041883" lon="11.6206967"><ele>155.5</ele><time>2026-05-02T08:31:26.954Z</time></trkpt><trkpt lat="43.5041217" lon="11.6206733"><ele>155.66666666666666</ele><time>2026-05-02T08:31:27.953Z</time></trkpt><trkpt lat="43.504055" lon="11.6206517"><ele>155.83333333333334</ele><time>2026-05-02T08:31:28.956Z</time></trkpt><trkpt lat="43.5039883" lon="11.62063"><ele>156.0</ele><time>2026-05-02T08:31:29.952Z</time></trkpt><trkpt lat="43.50392" lon="11.620615"><ele>156.0</ele><time>2026-05-02T08:31:30.956Z</time></trkpt><trkpt lat="43.5038533" lon="11.6206"><ele>156.0</ele><time>2026-05-02T08:31:31.954Z</time></trkpt><trkpt lat="43.5037883" lon="11.620585"><ele>156.0</ele><time>2026-05-02T08:31:32.955Z</time></trkpt><trkpt lat="43.503725" lon="11.6205717"><ele>156.0</ele><time>2026-05-02T08:31:33.952Z</time></trkpt><trkpt lat="43.5036617" lon="11.6205583"><ele>156.0</ele><time>2026-05-02T08:31:34.954Z</time></trkpt><trkpt lat="43.5035983" lon="11.620545"><ele>156.0</ele><time>2026-05-02T08:31:35.957Z</time></trkpt><trkpt lat="43.50353" lon="11.6205317"><ele>156.0</ele><time>2026-05-02T08:31:36.954Z</time></trkpt><trkpt lat="43.5034583" lon="11.62052"><ele>156.0</ele><time>2026-05-02T08:31:37.954Z</time></trkpt><trkpt lat="43.5033917" lon="11.62051"><ele>156.0</ele><time>2026-05-02T08:31:38.955Z</time></trkpt><trkpt lat="43.5033283" lon="11.6205017"><ele>156.0</ele><time>2026-05-02T08:31:39.956Z</time></trkpt><trkpt lat="43.50326" lon="11.62049"><ele>156.0</ele><time>2026-05-02T08:31:40.954Z</time></trkpt><trkpt lat="43.5031933" lon="11.6204717"><ele>156.0</ele><time>2026-05-02T08:31:41.956Z</time></trkpt><trkpt lat="43.5031283" lon="11.6204533"><ele>156.0</ele><time>2026-05-02T08:31:42.954Z</time></trkpt><trkpt lat="43.5030617" lon="11.6204333"><ele>156.0</ele><time>2026-05-02T08:31:43.952Z</time></trkpt><trkpt lat="43.5029933" lon="11.6204133"><ele>156.0</ele><time>2026-05-02T08:31:44.954Z</time></trkpt><trkpt lat="43.5029233" lon="11.6203967"><ele>156.0</ele><time>2026-05-02T08:31:45.953Z</time></trkpt><trkpt lat="43.5028533" lon="11.6203817"><ele>156.0</ele><time>2026-05-02T08:31:46.954Z</time></trkpt><trkpt lat="43.50278" lon="11.6203667"><ele>156.0</ele><time>2026-05-02T08:31:47.955Z</time></trkpt><trkpt lat="43.5027117" lon="11.62035"><ele>156.0</ele><time>2026-05-02T08:31:48.955Z</time></trkpt><trkpt lat="43.50264" lon="11.620335"><ele>156.0</ele><time>2026-05-02T08:31:49.954Z</time></trkpt><trkpt lat="43.5025633" lon="11.620325"><ele>156.0</ele><time>2026-05-02T08:31:50.957Z</time></trkpt><trkpt lat="43.5024833" lon="11.6203133"><ele>155.66666666666666</ele><time>2026-05-02T08:31:51.955Z</time></trkpt><trkpt lat="43.5024083" lon="11.6203"><ele>155.33333333333334</ele><time>2026-05-02T08:31:52.954Z</time></trkpt><trkpt lat="43.50233" lon="11.620285"><ele>155.0</ele><time>2026-05-02T08:31:53.952Z</time></trkpt><trkpt lat="43.5022533" lon="11.620265"><ele>154.66666666666669</ele><time>2026-05-02T08:31:54.954Z</time></trkpt><trkpt lat="43.5021733" lon="11.6202383"><ele>154.33333333333334</ele><time>2026-05-02T08:31:55.953Z</time></trkpt><trkpt lat="43.5020983" lon="11.6202083"><ele>154.0</ele><time>2026-05-02T08:31:56.955Z</time></trkpt><trkpt lat="43.5020233" lon="11.620175"><ele>154.0</ele><time>2026-05-02T08:31:57.954Z</time></trkpt><trkpt lat="43.5019483" lon="11.620135"><ele>154.0</ele><time>2026-05-02T08:31:58.955Z</time></trkpt><trkpt lat="43.501875" lon="11.62009"><ele>154.0</ele><time>2026-05-02T08:31:59.954Z</time></trkpt><trkpt lat="43.5018017" lon="11.6200433"><ele>154.0</ele><time>2026-05-02T08:32:00.952Z</time></trkpt><trkpt lat="43.5017267" lon="11.6199933"><ele>154.0</ele><time>2026-05-02T08:32:01.953Z</time></trkpt><trkpt lat="43.5016583" lon="11.619945"><ele>154.0</ele><time>2026-05-02T08:32:02.954Z</time></trkpt><trkpt lat="43.5015933" lon="11.6198983"><ele>154.0</ele><time>2026-05-02T08:32:03.953Z</time></trkpt><trkpt lat="43.50153" lon="11.6198517"><ele>154.0</ele><time>2026-05-02T08:32:04.953Z</time></trkpt><trkpt lat="43.5014633" lon="11.6198033"><ele>154.0</ele><time>2026-05-02T08:32:05.954Z</time></trkpt><trkpt lat="43.5014" lon="11.6197567"><ele>154.0</ele><time>2026-05-02T08:32:06.955Z</time></trkpt><trkpt lat="43.5013367" lon="11.6197117"><ele>154.0</ele><time>2026-05-02T08:32:07.954Z</time></trkpt><trkpt lat="43.5012733" lon="11.6196583"><ele>154.0</ele><time>2026-05-02T08:32:08.953Z</time></trkpt><trkpt lat="43.5012117" lon="11.6196067"><ele>154.0</ele><time>2026-05-02T08:32:09.954Z</time></trkpt><trkpt lat="43.50115" lon="11.61956"><ele>154.28571428571428</ele><time>2026-05-02T08:32:10.953Z</time></trkpt><trkpt lat="43.5010883" lon="11.6195167"><ele>154.57142857142856</ele><time>2026-05-02T08:32:11.952Z</time></trkpt><trkpt lat="43.501025" lon="11.61947"><ele>154.85714285714286</ele><time>2026-05-02T08:32:12.955Z</time></trkpt><trkpt lat="43.500965" lon="11.6194233"><ele>155.14285714285714</ele><time>2026-05-02T08:32:13.954Z</time></trkpt><trkpt lat="43.5009" lon="11.6193767"><ele>155.42857142857142</ele><time>2026-05-02T08:32:14.953Z</time></trkpt><trkpt lat="43.5008333" lon="11.6193283"><ele>155.71428571428572</ele><time>2026-05-02T08:32:15.953Z</time></trkpt><trkpt lat="43.500765" lon="11.61928"><ele>156.0</ele><time>2026-05-02T08:32:16.954Z</time></trkpt><trkpt lat="43.5007" lon="11.6192317"><ele>156.0</ele><time>2026-05-02T08:32:17.955Z</time></trkpt><trkpt lat="43.5006317" lon="11.6191917"><ele>156.0</ele><time>2026-05-02T08:32:18.955Z</time></trkpt><trkpt lat="43.500565" lon="11.6191583"><ele>156.0</ele><time>2026-05-02T08:32:19.952Z</time></trkpt><trkpt lat="43.5004967" lon="11.61913"><ele>156.0</ele><time>2026-05-02T08:32:20.956Z</time></trkpt><trkpt lat="43.5004283" lon="11.619095"><ele>156.0</ele><time>2026-05-02T08:32:21.953Z</time></trkpt><trkpt lat="43.5003533" lon="11.6190667"><ele>156.0</ele><time>2026-05-02T08:32:22.953Z</time></trkpt><trkpt lat="43.5002767" lon="11.61904"><ele>156.0</ele><time>2026-05-02T08:32:23.954Z</time></trkpt><trkpt lat="43.500205" lon="11.6190117"><ele>156.16666666666666</ele><time>2026-05-02T08:32:24.955Z</time></trkpt><trkpt lat="43.5001283" lon="11.6189817"><ele>156.33333333333334</ele><time>2026-05-02T08:32:25.954Z</time></trkpt><trkpt lat="43.500055" lon="11.618955"><ele>156.5</ele><time>2026-05-02T08:32:26.954Z</time></trkpt><trkpt lat="43.49998" lon="11.6189317"><ele>156.66666666666669</ele><time>2026-05-02T08:32:27.953Z</time></trkpt><trkpt lat="43.499905" lon="11.61891"><ele>156.83333333333334</ele><time>2026-05-02T08:32:28.953Z</time></trkpt><trkpt lat="43.4998333" lon="11.6188833"><ele>157.0</ele><time>2026-05-02T08:32:29.953Z</time></trkpt><trkpt lat="43.49976" lon="11.61886"><ele>156.99999999999997</ele><time>2026-05-02T08:32:30.955Z</time></trkpt><trkpt lat="43.4996867" lon="11.618845"><ele>157.0</ele><time>2026-05-02T08:32:31.953Z</time></trkpt><trkpt lat="43.4996117" lon="11.6188283"><ele>157.0</ele><time>2026-05-02T08:32:32.956Z</time></trkpt><trkpt lat="43.49954" lon="11.61881"><ele>157.0</ele><time>2026-05-02T08:32:33.955Z</time></trkpt><trkpt lat="43.4994717" lon="11.6187917"><ele>157.0</ele><time>2026-05-02T08:32:34.954Z</time></trkpt><trkpt lat="43.499405" lon="11.6187733"><ele>156.99999999999997</ele><time>2026-05-02T08:32:35.954Z</time></trkpt><trkpt lat="43.4993417" lon="11.6187533"><ele>157.0</ele><time>2026-05-02T08:32:36.955Z</time></trkpt><trkpt lat="43.49928" lon="11.61873"><ele>157.2</ele><time>2026-05-02T08:32:37.955Z</time></trkpt><trkpt lat="43.4991617" lon="11.61868"><ele>157.39999999999998</ele><time>2026-05-02T08:32:39.955Z</time></trkpt><trkpt lat="43.4990983" lon="11.6186567"><ele>157.60000000000002</ele><time>2026-05-02T08:32:40.954Z</time></trkpt><trkpt lat="43.4989783" lon="11.618615"><ele>157.8</ele><time>2026-05-02T08:32:42.954Z</time></trkpt><trkpt lat="43.4988783" lon="11.6185783"><ele>158.0</ele><time>2026-05-02T08:32:44.954Z</time></trkpt><trkpt lat="43.498785" lon="11.6185983"><ele>158.25</ele><time>2026-05-02T08:32:46.953Z</time></trkpt><trkpt lat="43.498695" lon="11.6186833"><ele>158.5</ele><time>2026-05-02T08:32:48.954Z</time></trkpt><trkpt lat="43.4986083" lon="11.6188033"><ele>158.75</ele><time>2026-05-02T08:32:50.953Z</time></trkpt><trkpt lat="43.4985283" lon="11.61893"><ele>159.0</ele><time>2026-05-02T08:32:52.956Z</time></trkpt><trkpt lat="43.498455" lon="11.619045"><ele>159.0</ele><time>2026-05-02T08:32:54.951Z</time></trkpt><trkpt lat="43.49838" lon="11.61917"><ele>159.0</ele><time>2026-05-02T08:32:56.953Z</time></trkpt><trkpt lat="43.498305" lon="11.6192833"><ele>159.0</ele><time>2026-05-02T08:32:58.953Z</time></trkpt><trkpt lat="43.49823" lon="11.6193917"><ele>159.0</ele><time>2026-05-02T08:33:00.953Z</time></trkpt><trkpt lat="43.49816" lon="11.6195117"><ele>159.0</ele><time>2026-05-02T08:33:02.956Z</time></trkpt><trkpt lat="43.4980967" lon="11.61961"><ele>159.0</ele><time>2026-05-02T08:33:04.953Z</time></trkpt><trkpt lat="43.498045" lon="11.6197033"><ele>159.0</ele><time>2026-05-02T08:33:06.954Z</time></trkpt><trkpt lat="43.4979833" lon="11.619805"><ele>159.0</ele><time>2026-05-02T08:33:08.955Z</time></trkpt><trkpt lat="43.4979383" lon="11.6198967"><ele>159.0</ele><time>2026-05-02T08:33:10.953Z</time></trkpt><trkpt lat="43.4978833" lon="11.6199967"><ele>159.0</ele><time>2026-05-02T08:33:12.953Z</time></trkpt><trkpt lat="43.4978267" lon="11.620095"><ele>159.0</ele><time>2026-05-02T08:33:14.954Z</time></trkpt><trkpt lat="43.4977733" lon="11.6201833"><ele>159.33333333333334</ele><time>2026-05-02T08:33:16.953Z</time></trkpt><trkpt lat="43.4977083" lon="11.6202883"><ele>159.66666666666666</ele><time>2026-05-02T08:33:18.952Z</time></trkpt><trkpt lat="43.4976517" lon="11.6203917"><ele>160.0</ele><time>2026-05-02T08:33:20.953Z</time></trkpt><trkpt lat="43.497595" lon="11.620475"><ele>160.33333333333331</ele><time>2026-05-02T08:33:22.953Z</time></trkpt><trkpt lat="43.4975433" lon="11.620555"><ele>160.66666666666666</ele><time>2026-05-02T08:33:24.954Z</time></trkpt><trkpt lat="43.4974817" lon="11.6206233"><ele>161.0</ele><time>2026-05-02T08:33:26.953Z</time></trkpt><trkpt lat="43.4974233" lon="11.6206817"><ele>161.42857142857142</ele><time>2026-05-02T08:33:28.953Z</time></trkpt><trkpt lat="43.497365" lon="11.6207367"><ele>161.85714285714286</ele><time>2026-05-02T08:33:30.956Z</time></trkpt><trkpt lat="43.4973067" lon="11.62078"><ele>162.28571428571428</ele><time>2026-05-02T08:33:32.954Z</time></trkpt><trkpt lat="43.497245" lon="11.6208267"><ele>162.71428571428572</ele><time>2026-05-02T08:33:34.952Z</time></trkpt><trkpt lat="43.49718" lon="11.620865"><ele>163.14285714285714</ele><time>2026-05-02T08:33:36.954Z</time></trkpt><trkpt lat="43.4971133" lon="11.620905"><ele>163.57142857142856</ele><time>2026-05-02T08:33:38.953Z</time></trkpt><trkpt lat="43.49705" lon="11.6209467"><ele>164.0</ele><time>2026-05-02T08:33:40.953Z</time></trkpt><trkpt lat="43.49697" lon="11.6210033"><ele>164.33333333333331</ele><time>2026-05-02T08:33:42.954Z</time></trkpt><trkpt lat="43.49689" lon="11.621045"><ele>164.66666666666666</ele><time>2026-05-02T08:33:44.952Z</time></trkpt><trkpt lat="43.4968067" lon="11.62107"><ele>165.0</ele><time>2026-05-02T08:33:46.953Z</time></trkpt><trkpt lat="43.4967317" lon="11.6211033"><ele>165.33333333333334</ele><time>2026-05-02T08:33:48.954Z</time></trkpt><trkpt lat="43.4966583" lon="11.621135"><ele>165.66666666666669</ele><time>2026-05-02T08:33:50.953Z</time></trkpt><trkpt lat="43.4965833" lon="11.6211667"><ele>166.0</ele><time>2026-05-02T08:33:52.953Z</time></trkpt><trkpt lat="43.4965117" lon="11.6212"><ele>166.8</ele><time>2026-05-02T08:33:54.954Z</time></trkpt><trkpt lat="43.4964183" lon="11.62121"><ele>167.60000000000002</ele><time>2026-05-02T08:33:56.954Z</time></trkpt><trkpt lat="43.4963067" lon="11.6212383"><ele>168.4</ele><time>2026-05-02T08:33:58.953Z</time></trkpt><trkpt lat="43.4962133" lon="11.62126"><ele>169.2</ele><time>2026-05-02T08:34:00.953Z</time></trkpt><trkpt lat="43.4961333" lon="11.6212683"><ele>170.0</ele><time>2026-05-02T08:34:02.954Z</time></trkpt><trkpt lat="43.4960517" lon="11.621275"><ele>170.2857142857143</ele><time>2026-05-02T08:34:04.953Z</time></trkpt><trkpt lat="43.495975" lon="11.6212783"><ele>170.57142857142856</ele><time>2026-05-02T08:34:06.956Z</time></trkpt><trkpt lat="43.4959" lon="11.6212767"><ele>170.85714285714286</ele><time>2026-05-02T08:34:08.954Z</time></trkpt><trkpt lat="43.49583" lon="11.6212733"><ele>171.14285714285717</ele><time>2026-05-02T08:34:10.953Z</time></trkpt><trkpt lat="43.49576" lon="11.6212617"><ele>171.42857142857144</ele><time>2026-05-02T08:34:12.954Z</time></trkpt><trkpt lat="43.49569" lon="11.62125"><ele>171.71428571428572</ele><time>2026-05-02T08:34:14.955Z</time></trkpt><trkpt lat="43.49562" lon="11.621235"><ele>172.0</ele><time>2026-05-02T08:34:16.951Z</time></trkpt><trkpt lat="43.4955517" lon="11.62122"><ele>172.00000000000003</ele><time>2026-05-02T08:34:18.954Z</time></trkpt><trkpt lat="43.4954783" lon="11.6212133"><ele>172.0</ele><time>2026-05-02T08:34:20.956Z</time></trkpt><trkpt lat="43.49541" lon="11.621205"><ele>172.0</ele><time>2026-05-02T08:34:22.953Z</time></trkpt><trkpt lat="43.4953433" lon="11.6211967"><ele>172.0</ele><time>2026-05-02T08:34:24.954Z</time></trkpt><trkpt lat="43.49527" lon="11.6211983"><ele>172.0</ele><time>2026-05-02T08:34:26.954Z</time></trkpt><trkpt lat="43.4951983" lon="11.6211983"><ele>172.00000000000003</ele><time>2026-05-02T08:34:28.952Z</time></trkpt><trkpt lat="43.495125" lon="11.621205"><ele>172.0</ele><time>2026-05-02T08:34:30.953Z</time></trkpt><trkpt lat="43.4950517" lon="11.6212267"><ele>173.33333333333334</ele><time>2026-05-02T08:34:32.953Z</time></trkpt><trkpt lat="43.494975" lon="11.6212567"><ele>174.66666666666669</ele><time>2026-05-02T08:34:34.953Z</time></trkpt><trkpt lat="43.4949017" lon="11.6212867"><ele>176.0</ele><time>2026-05-02T08:34:36.954Z</time></trkpt><trkpt lat="43.4948333" lon="11.6213183"><ele>177.33333333333334</ele><time>2026-05-02T08:34:38.954Z</time></trkpt><trkpt lat="43.4947717" lon="11.6213533"><ele>178.66666666666666</ele><time>2026-05-02T08:34:40.954Z</time></trkpt><trkpt lat="43.4947017" lon="11.621385"><ele>180.0</ele><time>2026-05-02T08:34:42.954Z</time></trkpt><trkpt lat="43.494625" lon="11.6214217"><ele>180.28571428571428</ele><time>2026-05-02T08:34:44.953Z</time></trkpt><trkpt lat="43.4945567" lon="11.6214483"><ele>180.57142857142858</ele><time>2026-05-02T08:34:46.954Z</time></trkpt><trkpt lat="43.4944883" lon="11.621475"><ele>180.85714285714286</ele><time>2026-05-02T08:34:48.954Z</time></trkpt><trkpt lat="43.49442" lon="11.621505"><ele>181.14285714285714</ele><time>2026-05-02T08:34:50.953Z</time></trkpt><trkpt lat="43.4943417" lon="11.6215383"><ele>181.42857142857144</ele><time>2026-05-02T08:34:52.953Z</time></trkpt><trkpt lat="43.4942733" lon="11.6215717"><ele>181.71428571428572</ele><time>2026-05-02T08:34:54.954Z</time></trkpt><trkpt lat="43.4942033" lon="11.6216017"><ele>182.0</ele><time>2026-05-02T08:34:56.953Z</time></trkpt><trkpt lat="43.4941117" lon="11.6216433"><ele>182.0</ele><time>2026-05-02T08:34:59.951Z</time></trkpt><trkpt lat="43.49404" lon="11.621675"><ele>182.0</ele><time>2026-05-02T08:35:01.952Z</time></trkpt><trkpt lat="43.493965" lon="11.6217067"><ele>182.0</ele><time>2026-05-02T08:35:03.951Z</time></trkpt><trkpt lat="43.4938933" lon="11.621735"><ele>182.0</ele><time>2026-05-02T08:35:05.951Z</time></trkpt><trkpt lat="43.4938283" lon="11.6217683"><ele>182.0</ele><time>2026-05-02T08:35:07.952Z</time></trkpt><trkpt lat="43.4937317" lon="11.6217983"><ele>182.0</ele><time>2026-05-02T08:35:09.954Z</time></trkpt><trkpt lat="43.4936383" lon="11.6218167"><ele>181.83333333333331</ele><time>2026-05-02T08:35:11.953Z</time></trkpt><trkpt lat="43.493555" lon="11.6218433"><ele>181.66666666666666</ele><time>2026-05-02T08:35:13.951Z</time></trkpt><trkpt lat="43.493475" lon="11.6218767"><ele>181.5</ele><time>2026-05-02T08:35:15.953Z</time></trkpt><trkpt lat="43.4933967" lon="11.6219217"><ele>181.33333333333334</ele><time>2026-05-02T08:35:17.954Z</time></trkpt><trkpt lat="43.4933267" lon="11.621995"><ele>181.16666666666669</ele><time>2026-05-02T08:35:19.954Z</time></trkpt><trkpt lat="43.4932767" lon="11.6220883"><ele>181.0</ele><time>2026-05-02T08:35:21.953Z</time></trkpt><trkpt lat="43.4932483" lon="11.6222117"><ele>182.33333333333334</ele><time>2026-05-02T08:35:23.954Z</time></trkpt><trkpt lat="43.49325" lon="11.622325"><ele>183.66666666666669</ele><time>2026-05-02T08:35:25.953Z</time></trkpt><trkpt lat="43.4932883" lon="11.62243"><ele>185.0</ele><time>2026-05-02T08:35:27.953Z</time></trkpt><trkpt lat="43.4933533" lon="11.6225017"><ele>186.33333333333334</ele><time>2026-05-02T08:35:29.954Z</time></trkpt><trkpt lat="43.493435" lon="11.6225417"><ele>187.66666666666666</ele><time>2026-05-02T08:35:31.954Z</time></trkpt><trkpt lat="43.4935183" lon="11.62256"><ele>189.0</ele><time>2026-05-02T08:35:33.954Z</time></trkpt><trkpt lat="43.4936" lon="11.6225883"><ele>189.0</ele><time>2026-05-02T08:35:35.955Z</time></trkpt><trkpt lat="43.493675" lon="11.6225983"><ele>189.0</ele><time>2026-05-02T08:35:37.953Z</time></trkpt><trkpt lat="43.4937583" lon="11.6226133"><ele>189.0</ele><time>2026-05-02T08:35:39.954Z</time></trkpt><trkpt lat="43.4938417" lon="11.6226333"><ele>189.0</ele><time>2026-05-02T08:35:41.953Z</time></trkpt><trkpt lat="43.4939167" lon="11.6226617"><ele>189.0</ele><time>2026-05-02T08:35:43.953Z</time></trkpt><trkpt lat="43.4939867" lon="11.6227083"><ele>189.0</ele><time>2026-05-02T08:35:45.952Z</time></trkpt><trkpt lat="43.4940483" lon="11.6227867"><ele>190.16666666666666</ele><time>2026-05-02T08:35:47.952Z</time></trkpt><trkpt lat="43.4940883" lon="11.6228783"><ele>191.33333333333331</ele><time>2026-05-02T08:35:49.953Z</time></trkpt><trkpt lat="43.4941083" lon="11.622975"><ele>192.5</ele><time>2026-05-02T08:35:51.955Z</time></trkpt><trkpt lat="43.4941017" lon="11.6231133"><ele>193.66666666666666</ele><time>2026-05-02T08:35:54.952Z</time></trkpt><trkpt lat="43.4940733" lon="11.6232"><ele>194.83333333333331</ele><time>2026-05-02T08:35:56.954Z</time></trkpt><trkpt lat="43.4940333" lon="11.6232867"><ele>196.0</ele><time>2026-05-02T08:35:58.954Z</time></trkpt><trkpt lat="43.493985" lon="11.623355"><ele>196.0</ele><time>2026-05-02T08:36:00.957Z</time></trkpt><trkpt lat="43.49393" lon="11.62341"><ele>196.0</ele><time>2026-05-02T08:36:02.955Z</time></trkpt><trkpt lat="43.4938733" lon="11.62346"><ele>196.0</ele><time>2026-05-02T08:36:04.953Z</time></trkpt><trkpt lat="43.493815" lon="11.6235167"><ele>196.0</ele><time>2026-05-02T08:36:06.955Z</time></trkpt><trkpt lat="43.4937567" lon="11.623565"><ele>196.0</ele><time>2026-05-02T08:36:08.956Z</time></trkpt><trkpt lat="43.4936983" lon="11.6236283"><ele>196.0</ele><time>2026-05-02T08:36:10.954Z</time></trkpt><trkpt lat="43.4936367" lon="11.6236917"><ele>196.0</ele><time>2026-05-02T08:36:12.951Z</time></trkpt><trkpt lat="43.493575" lon="11.62376"><ele>196.66666666666666</ele><time>2026-05-02T08:36:14.954Z</time></trkpt><trkpt lat="43.4935283" lon="11.6238317"><ele>197.33333333333331</ele><time>2026-05-02T08:36:16.954Z</time></trkpt><trkpt lat="43.4934867" lon="11.62391"><ele>198.0</ele><time>2026-05-02T08:36:18.953Z</time></trkpt><trkpt lat="43.4934517" lon="11.6240083"><ele>198.66666666666669</ele><time>2026-05-02T08:36:20.954Z</time></trkpt><trkpt lat="43.4934233" lon="11.62411"><ele>199.33333333333334</ele><time>2026-05-02T08:36:22.953Z</time></trkpt><trkpt lat="43.4933983" lon="11.624215"><ele>200.0</ele><time>2026-05-02T08:36:24.953Z</time></trkpt><trkpt lat="43.493375" lon="11.6243133"><ele>200.00000000000003</ele><time>2026-05-02T08:36:26.954Z</time></trkpt><trkpt lat="43.4933583" lon="11.6244117"><ele>200.0</ele><time>2026-05-02T08:36:28.953Z</time></trkpt><trkpt lat="43.493345" lon="11.6245133"><ele>200.0</ele><time>2026-05-02T08:36:30.953Z</time></trkpt><trkpt lat="43.493335" lon="11.624615"><ele>200.0</ele><time>2026-05-02T08:36:32.954Z</time></trkpt><trkpt lat="43.4933167" lon="11.624715"><ele>200.00000000000003</ele><time>2026-05-02T08:36:34.954Z</time></trkpt><trkpt lat="43.4932967" lon="11.624815"><ele>200.0</ele><time>2026-05-02T08:36:36.953Z</time></trkpt><trkpt lat="43.493275" lon="11.624925"><ele>201.00000000000003</ele><time>2026-05-02T08:36:38.954Z</time></trkpt><trkpt lat="43.49326" lon="11.6250217"><ele>202.0</ele><time>2026-05-02T08:36:40.953Z</time></trkpt><trkpt lat="43.4932467" lon="11.625115"><ele>203.0</ele><time>2026-05-02T08:36:42.953Z</time></trkpt><trkpt lat="43.4932333" lon="11.6252133"><ele>204.0</ele><time>2026-05-02T08:36:44.955Z</time></trkpt><trkpt lat="43.4932233" lon="11.625315"><ele>205.0</ele><time>2026-05-02T08:36:46.953Z</time></trkpt><trkpt lat="43.49321" lon="11.62541"><ele>206.00000000000003</ele><time>2026-05-02T08:36:48.954Z</time></trkpt><trkpt lat="43.4931867" lon="11.6255117"><ele>207.0</ele><time>2026-05-02T08:36:50.954Z</time></trkpt><trkpt lat="43.493155" lon="11.6256083"><ele>208.33333333333334</ele><time>2026-05-02T08:36:52.951Z</time></trkpt><trkpt lat="43.4931133" lon="11.6256783"><ele>209.66666666666669</ele><time>2026-05-02T08:36:54.954Z</time></trkpt><trkpt lat="43.493035" lon="11.6257567"><ele>211.0</ele><time>2026-05-02T08:36:57.954Z</time></trkpt><trkpt lat="43.4929717" lon="11.6258117"><ele>212.33333333333334</ele><time>2026-05-02T08:36:59.954Z</time></trkpt><trkpt lat="43.4929083" lon="11.625845"><ele>213.66666666666669</ele><time>2026-05-02T08:37:01.955Z</time></trkpt><trkpt lat="43.4928217" lon="11.625855"><ele>215.0</ele><time>2026-05-02T08:37:04.956Z</time></trkpt><trkpt lat="43.49274" lon="11.6258267"><ele>215.14285714285714</ele><time>2026-05-02T08:37:07.953Z</time></trkpt><trkpt lat="43.4926567" lon="11.625775"><ele>215.2857142857143</ele><time>2026-05-02T08:37:10.954Z</time></trkpt><trkpt lat="43.4925967" lon="11.6257283"><ele>215.42857142857144</ele><time>2026-05-02T08:37:12.954Z</time></trkpt><trkpt lat="43.4925433" lon="11.62568"><ele>215.57142857142856</ele><time>2026-05-02T08:37:14.953Z</time></trkpt><trkpt lat="43.4924883" lon="11.6256333"><ele>215.71428571428572</ele><time>2026-05-02T08:37:16.952Z</time></trkpt><trkpt lat="43.492435" lon="11.6255783"><ele>215.85714285714286</ele><time>2026-05-02T08:37:18.953Z</time></trkpt><trkpt lat="43.4923567" lon="11.6255067"><ele>216.0</ele><time>2026-05-02T08:37:21.954Z</time></trkpt><trkpt lat="43.4923" lon="11.6254667"><ele>216.0</ele><time>2026-05-02T08:37:23.954Z</time></trkpt><trkpt lat="43.4922217" lon="11.6254017"><ele>216.0</ele><time>2026-05-02T08:37:26.954Z</time></trkpt><trkpt lat="43.492165" lon="11.625345"><ele>216.0</ele><time>2026-05-02T08:37:28.953Z</time></trkpt><trkpt lat="43.4921117" lon="11.6252967"><ele>216.0</ele><time>2026-05-02T08:37:30.954Z</time></trkpt><trkpt lat="43.4920533" lon="11.6252467"><ele>216.0</ele><time>2026-05-02T08:37:32.954Z</time></trkpt><trkpt lat="43.4919983" lon="11.6252"><ele>216.0</ele><time>2026-05-02T08:37:34.954Z</time></trkpt><trkpt lat="43.491945" lon="11.6251533"><ele>216.0</ele><time>2026-05-02T08:37:36.955Z</time></trkpt><trkpt lat="43.4918667" lon="11.6250833"><ele>216.85714285714286</ele><time>2026-05-02T08:37:39.954Z</time></trkpt><trkpt lat="43.4917867" lon="11.62502"><ele>217.71428571428572</ele><time>2026-05-02T08:37:42.953Z</time></trkpt><trkpt lat="43.4917317" lon="11.6249767"><ele>218.57142857142856</ele><time>2026-05-02T08:37:44.954Z</time></trkpt><trkpt lat="43.4916717" lon="11.6249383"><ele>219.42857142857144</ele><time>2026-05-02T08:37:46.953Z</time></trkpt><trkpt lat="43.4916033" lon="11.6249167"><ele>220.2857142857143</ele><time>2026-05-02T08:37:48.952Z</time></trkpt><trkpt lat="43.491535" lon="11.62491"><ele>221.14285714285714</ele><time>2026-05-02T08:37:50.953Z</time></trkpt><trkpt lat="43.4914483" lon="11.62492"><ele>222.0</ele><time>2026-05-02T08:37:52.956Z</time></trkpt><trkpt lat="43.4913717" lon="11.62496"><ele>222.0</ele><time>2026-05-02T08:37:54.953Z</time></trkpt><trkpt lat="43.4913" lon="11.62502"><ele>222.0</ele><time>2026-05-02T08:37:56.955Z</time></trkpt><trkpt lat="43.4912417" lon="11.6250933"><ele>222.0</ele><time>2026-05-02T08:37:58.953Z</time></trkpt><trkpt lat="43.4911883" lon="11.625175"><ele>222.0</ele><time>2026-05-02T08:38:00.955Z</time></trkpt><trkpt lat="43.4911483" lon="11.6252683"><ele>222.0</ele><time>2026-05-02T08:38:02.954Z</time></trkpt><trkpt lat="43.491125" lon="11.6253733"><ele>222.0</ele><time>2026-05-02T08:38:04.955Z</time></trkpt><trkpt lat="43.4911017" lon="11.6254933"><ele>222.5</ele><time>2026-05-02T08:38:06.954Z</time></trkpt><trkpt lat="43.49108" lon="11.6256133"><ele>223.0</ele><time>2026-05-02T08:38:08.954Z</time></trkpt><trkpt lat="43.491055" lon="11.6257267"><ele>223.5</ele><time>2026-05-02T08:38:10.955Z</time></trkpt><trkpt lat="43.491035" lon="11.6258417"><ele>224.0</ele><time>2026-05-02T08:38:12.954Z</time></trkpt><trkpt lat="43.49101" lon="11.6259467"><ele>224.5</ele><time>2026-05-02T08:38:14.953Z</time></trkpt><trkpt lat="43.4909883" lon="11.6260617"><ele>225.0</ele><time>2026-05-02T08:38:16.952Z</time></trkpt><trkpt lat="43.49097" lon="11.626175"><ele>225.33333333333334</ele><time>2026-05-02T08:38:18.954Z</time></trkpt><trkpt lat="43.4909517" lon="11.626275"><ele>225.66666666666669</ele><time>2026-05-02T08:38:20.955Z</time></trkpt><trkpt lat="43.4909383" lon="11.626385"><ele>226.0</ele><time>2026-05-02T08:38:22.953Z</time></trkpt><trkpt lat="43.4909233" lon="11.6264983"><ele>226.33333333333334</ele><time>2026-05-02T08:38:24.954Z</time></trkpt><trkpt lat="43.49092" lon="11.6266083"><ele>226.66666666666669</ele><time>2026-05-02T08:38:26.952Z</time></trkpt><trkpt lat="43.4909183" lon="11.6267117"><ele>227.0</ele><time>2026-05-02T08:38:28.953Z</time></trkpt><trkpt lat="43.49092" lon="11.62683"><ele>227.00000000000003</ele><time>2026-05-02T08:38:30.952Z</time></trkpt><trkpt lat="43.4909283" lon="11.6269517"><ele>227.0</ele><time>2026-05-02T08:38:32.954Z</time></trkpt><trkpt lat="43.49094" lon="11.6270717"><ele>227.0</ele><time>2026-05-02T08:38:34.954Z</time></trkpt><trkpt lat="43.4909567" lon="11.62719"><ele>227.0</ele><time>2026-05-02T08:38:36.955Z</time></trkpt><trkpt lat="43.4909783" lon="11.6273083"><ele>227.00000000000003</ele><time>2026-05-02T08:38:38.955Z</time></trkpt><trkpt lat="43.4910067" lon="11.627425"><ele>227.0</ele><time>2026-05-02T08:38:40.952Z</time></trkpt><trkpt lat="43.491035" lon="11.6275417"><ele>227.00000000000003</ele><time>2026-05-02T08:38:42.953Z</time></trkpt><trkpt lat="43.491065" lon="11.62766"><ele>227.0</ele><time>2026-05-02T08:38:44.952Z</time></trkpt><trkpt lat="43.49109" lon="11.62776"><ele>227.0</ele><time>2026-05-02T08:38:46.953Z</time></trkpt><trkpt lat="43.4910967" lon="11.627865"><ele>227.0</ele><time>2026-05-02T08:38:48.955Z</time></trkpt><trkpt lat="43.491095" lon="11.6279617"><ele>227.00000000000003</ele><time>2026-05-02T08:38:50.954Z</time></trkpt><trkpt lat="43.49111" lon="11.6280633"><ele>227.0</ele><time>2026-05-02T08:39:00.953Z</time></trkpt><trkpt lat="43.4911183" lon="11.6281783"><ele>227.00000000000003</ele><time>2026-05-02T08:39:03.953Z</time></trkpt><trkpt lat="43.4911633" lon="11.6282767"><ele>227.0</ele><time>2026-05-02T08:39:06.953Z</time></trkpt><trkpt lat="43.49122" lon="11.6283383"><ele>227.0</ele><time>2026-05-02T08:39:08.954Z</time></trkpt><trkpt lat="43.4912933" lon="11.628405"><ele>227.0</ele><time>2026-05-02T08:39:10.953Z</time></trkpt><trkpt lat="43.4913683" lon="11.6284767"><ele>227.00000000000003</ele><time>2026-05-02T08:39:12.954Z</time></trkpt><trkpt lat="43.49144" lon="11.62855"><ele>227.0</ele><time>2026-05-02T08:39:14.954Z</time></trkpt><trkpt lat="43.491515" lon="11.6286317"><ele>228.83333333333334</ele><time>2026-05-02T08:39:16.954Z</time></trkpt><trkpt lat="43.49158" lon="11.628705"><ele>230.66666666666669</ele><time>2026-05-02T08:39:18.955Z</time></trkpt><trkpt lat="43.4916417" lon="11.6287917"><ele>232.5</ele><time>2026-05-02T08:39:20.956Z</time></trkpt><trkpt lat="43.4916933" lon="11.6288883"><ele>234.33333333333331</ele><time>2026-05-02T08:39:22.955Z</time></trkpt><trkpt lat="43.4917467" lon="11.6289867"><ele>236.16666666666666</ele><time>2026-05-02T08:39:24.953Z</time></trkpt><trkpt lat="43.491795" lon="11.6290967"><ele>238.0</ele><time>2026-05-02T08:39:26.952Z</time></trkpt><trkpt lat="43.4918483" lon="11.6292067"><ele>238.0</ele><time>2026-05-02T08:39:28.953Z</time></trkpt><trkpt lat="43.4919033" lon="11.6293167"><ele>238.0</ele><time>2026-05-02T08:39:30.957Z</time></trkpt><trkpt lat="43.491965" lon="11.62943"><ele>238.0</ele><time>2026-05-02T08:39:32.951Z</time></trkpt><trkpt lat="43.4920183" lon="11.62954"><ele>238.0</ele><time>2026-05-02T08:39:34.956Z</time></trkpt><trkpt lat="43.492075" lon="11.6296533"><ele>238.0</ele><time>2026-05-02T08:39:36.956Z</time></trkpt><trkpt lat="43.4921317" lon="11.62976"><ele>238.8</ele><time>2026-05-02T08:39:38.955Z</time></trkpt><trkpt lat="43.4921867" lon="11.6298683"><ele>239.60000000000002</ele><time>2026-05-02T08:39:40.954Z</time></trkpt><trkpt lat="43.4922483" lon="11.6299767"><ele>240.39999999999998</ele><time>2026-05-02T08:39:42.955Z</time></trkpt><trkpt lat="43.4923183" lon="11.6300967"><ele>241.2</ele><time>2026-05-02T08:39:44.954Z</time></trkpt><trkpt lat="43.492385" lon="11.630225"><ele>242.0</ele><time>2026-05-02T08:39:46.955Z</time></trkpt><trkpt lat="43.4924483" lon="11.6303533"><ele>242.0</ele><time>2026-05-02T08:39:48.955Z</time></trkpt><trkpt lat="43.4925183" lon="11.63048"><ele>242.0</ele><time>2026-05-02T08:39:50.957Z</time></trkpt><trkpt lat="43.4925867" lon="11.6306133"><ele>242.0</ele><time>2026-05-02T08:39:52.953Z</time></trkpt><trkpt lat="43.4926217" lon="11.6306867"><ele>242.0</ele><time>2026-05-02T08:39:53.954Z</time></trkpt><trkpt lat="43.4926933" lon="11.6308283"><ele>242.0</ele><time>2026-05-02T08:39:55.955Z</time></trkpt><trkpt lat="43.49273" lon="11.6309017"><ele>242.0</ele><time>2026-05-02T08:39:56.956Z</time></trkpt><trkpt lat="43.4927683" lon="11.6309767"><ele>241.99999999999997</ele><time>2026-05-02T08:39:57.956Z</time></trkpt><trkpt lat="43.4928067" lon="11.63105"><ele>242.0</ele><time>2026-05-02T08:39:58.956Z</time></trkpt><trkpt lat="43.4928433" lon="11.63113"><ele>242.0</ele><time>2026-05-02T08:39:59.954Z</time></trkpt><trkpt lat="43.4928783" lon="11.631215"><ele>241.99999999999997</ele><time>2026-05-02T08:40:00.956Z</time></trkpt><trkpt lat="43.492915" lon="11.6312967"><ele>242.0</ele><time>2026-05-02T08:40:01.954Z</time></trkpt><trkpt lat="43.49295" lon="11.6313867"><ele>242.0</ele><time>2026-05-02T08:40:02.955Z</time></trkpt><trkpt lat="43.4929867" lon="11.6314767"><ele>241.0</ele><time>2026-05-02T08:40:03.954Z</time></trkpt><trkpt lat="43.4930233" lon="11.63156"><ele>239.99999999999997</ele><time>2026-05-02T08:40:04.954Z</time></trkpt><trkpt lat="43.4930617" lon="11.6316433"><ele>239.0</ele><time>2026-05-02T08:40:05.954Z</time></trkpt><trkpt lat="43.4931033" lon="11.6317283"><ele>238.0</ele><time>2026-05-02T08:40:06.954Z</time></trkpt><trkpt lat="43.4931417" lon="11.6318083"><ele>236.99999999999997</ele><time>2026-05-02T08:40:07.954Z</time></trkpt><trkpt lat="43.4931817" lon="11.6318917"><ele>236.0</ele><time>2026-05-02T08:40:08.954Z</time></trkpt><trkpt lat="43.4932183" lon="11.6319717"><ele>235.0</ele><time>2026-05-02T08:40:09.954Z</time></trkpt><trkpt lat="43.4932583" lon="11.6320533"><ele>235.0</ele><time>2026-05-02T08:40:10.955Z</time></trkpt><trkpt lat="43.4932983" lon="11.6321333"><ele>234.99999999999997</ele><time>2026-05-02T08:40:11.953Z</time></trkpt><trkpt lat="43.4933367" lon="11.6322133"><ele>235.0</ele><time>2026-05-02T08:40:12.955Z</time></trkpt><trkpt lat="43.4933783" lon="11.6322933"><ele>235.0</ele><time>2026-05-02T08:40:13.955Z</time></trkpt><trkpt lat="43.4934183" lon="11.632375"><ele>234.99999999999997</ele><time>2026-05-02T08:40:14.954Z</time></trkpt><trkpt lat="43.4934583" lon="11.6324533"><ele>235.0</ele><time>2026-05-02T08:40:15.951Z</time></trkpt><trkpt lat="43.4934967" lon="11.63253"><ele>235.0</ele><time>2026-05-02T08:40:16.952Z</time></trkpt><trkpt lat="43.4935367" lon="11.6326117"><ele>234.99999999999997</ele><time>2026-05-02T08:40:17.952Z</time></trkpt><trkpt lat="43.4935783" lon="11.63269"><ele>235.0</ele><time>2026-05-02T08:40:18.951Z</time></trkpt><trkpt lat="43.4936217" lon="11.6327717"><ele>235.0</ele><time>2026-05-02T08:40:19.953Z</time></trkpt><trkpt lat="43.4936617" lon="11.6328517"><ele>235.0</ele><time>2026-05-02T08:40:20.952Z</time></trkpt><trkpt lat="43.4937333" lon="11.6329967"><ele>234.99999999999997</ele><time>2026-05-02T08:40:22.953Z</time></trkpt><trkpt lat="43.4937683" lon="11.6330783"><ele>235.0</ele><time>2026-05-02T08:40:23.953Z</time></trkpt><trkpt lat="43.4938067" lon="11.6331567"><ele>235.85714285714283</ele><time>2026-05-02T08:40:24.955Z</time></trkpt><trkpt lat="43.4938467" lon="11.6332367"><ele>236.7142857142857</ele><time>2026-05-02T08:40:25.954Z</time></trkpt><trkpt lat="43.4938833" lon="11.633315"><ele>237.57142857142856</ele><time>2026-05-02T08:40:26.952Z</time></trkpt><trkpt lat="43.4939233" lon="11.6333983"><ele>238.42857142857144</ele><time>2026-05-02T08:40:27.953Z</time></trkpt><trkpt lat="43.4939583" lon="11.6334767"><ele>239.2857142857143</ele><time>2026-05-02T08:40:28.953Z</time></trkpt><trkpt lat="43.4939917" lon="11.6335567"><ele>240.14285714285717</ele><time>2026-05-02T08:40:29.954Z</time></trkpt><trkpt lat="43.494025" lon="11.633635"><ele>241.0</ele><time>2026-05-02T08:40:30.955Z</time></trkpt><trkpt lat="43.4940583" lon="11.6337167"><ele>241.33333333333331</ele><time>2026-05-02T08:40:31.953Z</time></trkpt><trkpt lat="43.49409" lon="11.633795"><ele>241.66666666666666</ele><time>2026-05-02T08:40:32.955Z</time></trkpt><trkpt lat="43.4941233" lon="11.633875"><ele>242.0</ele><time>2026-05-02T08:40:33.955Z</time></trkpt><trkpt lat="43.494155" lon="11.633955"><ele>242.33333333333331</ele><time>2026-05-02T08:40:34.953Z</time></trkpt><trkpt lat="43.4942133" lon="11.6341067"><ele>242.66666666666666</ele><time>2026-05-02T08:40:36.955Z</time></trkpt><trkpt lat="43.49427" lon="11.63426"><ele>243.0</ele><time>2026-05-02T08:40:38.954Z</time></trkpt><trkpt lat="43.4943283" lon="11.6344033"><ele>243.5</ele><time>2026-05-02T08:40:40.953Z</time></trkpt><trkpt lat="43.4943567" lon="11.6344817"><ele>244.0</ele><time>2026-05-02T08:40:41.953Z</time></trkpt><trkpt lat="43.4943867" lon="11.63456"><ele>244.5</ele><time>2026-05-02T08:40:42.955Z</time></trkpt><trkpt lat="43.494415" lon="11.6346467"><ele>245.0</ele><time>2026-05-02T08:40:43.954Z</time></trkpt><trkpt lat="43.4944433" lon="11.634725"><ele>245.5</ele><time>2026-05-02T08:40:44.955Z</time></trkpt><trkpt lat="43.4944933" lon="11.6348683"><ele>246.0</ele><time>2026-05-02T08:40:46.953Z</time></trkpt><trkpt lat="43.494545" lon="11.635"><ele>246.0</ele><time>2026-05-02T08:40:48.955Z</time></trkpt><trkpt lat="43.494585" lon="11.635125"><ele>246.0</ele><time>2026-05-02T08:40:50.954Z</time></trkpt><trkpt lat="43.4946167" lon="11.6352333"><ele>246.0</ele><time>2026-05-02T08:40:52.953Z</time></trkpt><trkpt lat="43.494655" lon="11.6353383"><ele>246.0</ele><time>2026-05-02T08:40:54.953Z</time></trkpt><trkpt lat="43.4947" lon="11.6354283"><ele>246.0</ele><time>2026-05-02T08:40:56.953Z</time></trkpt><trkpt lat="43.4947483" lon="11.6354867"><ele>246.0</ele><time>2026-05-02T08:40:59.953Z</time></trkpt><trkpt lat="43.4947467" lon="11.6353833"><ele>246.0</ele><time>2026-05-02T08:41:03.953Z</time></trkpt><trkpt lat="43.4947133" lon="11.6352933"><ele>246.0</ele><time>2026-05-02T08:41:05.954Z</time></trkpt><trkpt lat="43.4946683" lon="11.63516"><ele>246.0</ele><time>2026-05-02T08:41:07.954Z</time></trkpt><trkpt lat="43.4946033" lon="11.63501"><ele>246.0</ele><time>2026-05-02T08:41:09.951Z</time></trkpt><trkpt lat="43.49457" lon="11.6349267"><ele>246.0</ele><time>2026-05-02T08:41:10.952Z</time></trkpt><trkpt lat="43.49454" lon="11.6348383"><ele>246.0</ele><time>2026-05-02T08:41:11.954Z</time></trkpt><trkpt lat="43.494505" lon="11.6347433"><ele>246.0</ele><time>2026-05-02T08:41:12.952Z</time></trkpt><trkpt lat="43.49447" lon="11.634645"><ele>246.0</ele><time>2026-05-02T08:41:13.953Z</time></trkpt><trkpt lat="43.4944317" lon="11.634545"><ele>246.0</ele><time>2026-05-02T08:41:14.955Z</time></trkpt><trkpt lat="43.4943917" lon="11.6344467"><ele>246.0</ele><time>2026-05-02T08:41:15.955Z</time></trkpt><trkpt lat="43.4943533" lon="11.6343483"><ele>246.0</ele><time>2026-05-02T08:41:16.951Z</time></trkpt><trkpt lat="43.4943133" lon="11.63425"><ele>246.0</ele><time>2026-05-02T08:41:17.951Z</time></trkpt><trkpt lat="43.4942717" lon="11.6341517"><ele>245.5</ele><time>2026-05-02T08:41:18.953Z</time></trkpt><trkpt lat="43.4942317" lon="11.634045"><ele>245.0</ele><time>2026-05-02T08:41:19.954Z</time></trkpt><trkpt lat="43.4941983" lon="11.63394"><ele>244.5</ele><time>2026-05-02T08:41:20.955Z</time></trkpt><trkpt lat="43.4941583" lon="11.633835"><ele>244.0</ele><time>2026-05-02T08:41:21.952Z</time></trkpt><trkpt lat="43.494115" lon="11.63374"><ele>243.5</ele><time>2026-05-02T08:41:22.954Z</time></trkpt><trkpt lat="43.494075" lon="11.6336367"><ele>243.0</ele><time>2026-05-02T08:41:23.952Z</time></trkpt><trkpt lat="43.4940317" lon="11.6335333"><ele>242.66666666666666</ele><time>2026-05-02T08:41:24.951Z</time></trkpt><trkpt lat="43.4939817" lon="11.6334367"><ele>242.33333333333331</ele><time>2026-05-02T08:41:25.953Z</time></trkpt><trkpt lat="43.4939367" lon="11.6333383"><ele>242.0</ele><time>2026-05-02T08:41:26.954Z</time></trkpt><trkpt lat="43.49389" lon="11.6332317"><ele>241.66666666666666</ele><time>2026-05-02T08:41:27.954Z</time></trkpt><trkpt lat="43.4938433" lon="11.6331333"><ele>241.33333333333331</ele><time>2026-05-02T08:41:28.953Z</time></trkpt><trkpt lat="43.4937967" lon="11.63303"><ele>241.0</ele><time>2026-05-02T08:41:29.953Z</time></trkpt><trkpt lat="43.493745" lon="11.63293"><ele>240.33333333333331</ele><time>2026-05-02T08:41:30.954Z</time></trkpt><trkpt lat="43.493695" lon="11.6328317"><ele>239.66666666666666</ele><time>2026-05-02T08:41:31.954Z</time></trkpt><trkpt lat="43.49365" lon="11.6327267"><ele>239.0</ele><time>2026-05-02T08:41:32.953Z</time></trkpt><trkpt lat="43.4936017" lon="11.6326217"><ele>238.33333333333331</ele><time>2026-05-02T08:41:33.954Z</time></trkpt><trkpt lat="43.493555" lon="11.6325183"><ele>237.66666666666666</ele><time>2026-05-02T08:41:34.953Z</time></trkpt><trkpt lat="43.493505" lon="11.632415"><ele>237.0</ele><time>2026-05-02T08:41:35.953Z</time></trkpt><trkpt lat="43.493455" lon="11.632315"><ele>236.6</ele><time>2026-05-02T08:41:36.952Z</time></trkpt><trkpt lat="43.493405" lon="11.63221"><ele>236.2</ele><time>2026-05-02T08:41:37.953Z</time></trkpt><trkpt lat="43.493355" lon="11.6321067"><ele>235.8</ele><time>2026-05-02T08:41:38.954Z</time></trkpt><trkpt lat="43.4933017" lon="11.6320067"><ele>235.4</ele><time>2026-05-02T08:41:39.954Z</time></trkpt><trkpt lat="43.49325" lon="11.6319033"><ele>235.0</ele><time>2026-05-02T08:41:40.953Z</time></trkpt><trkpt lat="43.4931983" lon="11.6317983"><ele>234.6</ele><time>2026-05-02T08:41:41.954Z</time></trkpt><trkpt lat="43.4931467" lon="11.63169"><ele>234.2</ele><time>2026-05-02T08:41:42.955Z</time></trkpt><trkpt lat="43.4930933" lon="11.63158"><ele>233.8</ele><time>2026-05-02T08:41:43.953Z</time></trkpt><trkpt lat="43.4930383" lon="11.6314733"><ele>233.4</ele><time>2026-05-02T08:41:44.953Z</time></trkpt><trkpt lat="43.492985" lon="11.631365"><ele>233.0</ele><time>2026-05-02T08:41:45.953Z</time></trkpt><trkpt lat="43.4929317" lon="11.6312567"><ele>233.66666666666669</ele><time>2026-05-02T08:41:46.954Z</time></trkpt><trkpt lat="43.4928783" lon="11.6311517"><ele>234.33333333333334</ele><time>2026-05-02T08:41:47.953Z</time></trkpt><trkpt lat="43.4928283" lon="11.6310467"><ele>235.0</ele><time>2026-05-02T08:41:48.953Z</time></trkpt><trkpt lat="43.49278" lon="11.6309483"><ele>235.66666666666669</ele><time>2026-05-02T08:41:49.954Z</time></trkpt><trkpt lat="43.4927317" lon="11.6308533"><ele>236.33333333333334</ele><time>2026-05-02T08:41:50.953Z</time></trkpt><trkpt lat="43.4926883" lon="11.6307567"><ele>237.0</ele><time>2026-05-02T08:41:51.952Z</time></trkpt><trkpt lat="43.4926417" lon="11.630655"><ele>237.83333333333334</ele><time>2026-05-02T08:41:52.954Z</time></trkpt><trkpt lat="43.492595" lon="11.6305567"><ele>238.66666666666669</ele><time>2026-05-02T08:41:53.953Z</time></trkpt><trkpt lat="43.4925467" lon="11.63046"><ele>239.5</ele><time>2026-05-02T08:41:54.955Z</time></trkpt><trkpt lat="43.4924983" lon="11.6303633"><ele>240.33333333333334</ele><time>2026-05-02T08:41:55.951Z</time></trkpt><trkpt lat="43.4924533" lon="11.6302667"><ele>241.16666666666669</ele><time>2026-05-02T08:41:56.953Z</time></trkpt><trkpt lat="43.4924067" lon="11.6301717"><ele>242.0</ele><time>2026-05-02T08:41:57.954Z</time></trkpt><trkpt lat="43.4923583" lon="11.630075"><ele>242.00000000000003</ele><time>2026-05-02T08:41:58.952Z</time></trkpt><trkpt lat="43.4923117" lon="11.629975"><ele>242.0</ele><time>2026-05-02T08:41:59.951Z</time></trkpt><trkpt lat="43.4922667" lon="11.6298767"><ele>242.0</ele><time>2026-05-02T08:42:00.951Z</time></trkpt><trkpt lat="43.4922183" lon="11.62978"><ele>242.0</ele><time>2026-05-02T08:42:01.953Z</time></trkpt><trkpt lat="43.4921717" lon="11.6296817"><ele>242.00000000000003</ele><time>2026-05-02T08:42:02.954Z</time></trkpt><trkpt lat="43.4921233" lon="11.629585"><ele>242.0</ele><time>2026-05-02T08:42:03.953Z</time></trkpt><trkpt lat="43.492075" lon="11.6294883"><ele>241.33333333333334</ele><time>2026-05-02T08:42:04.952Z</time></trkpt><trkpt lat="43.4920267" lon="11.62939"><ele>240.66666666666669</ele><time>2026-05-02T08:42:05.953Z</time></trkpt><trkpt lat="43.4919817" lon="11.6292917"><ele>240.0</ele><time>2026-05-02T08:42:06.953Z</time></trkpt><trkpt lat="43.491935" lon="11.6291967"><ele>239.33333333333331</ele><time>2026-05-02T08:42:07.953Z</time></trkpt><trkpt lat="43.4918867" lon="11.6291033"><ele>238.66666666666666</ele><time>2026-05-02T08:42:08.953Z</time></trkpt><trkpt lat="43.4918433" lon="11.629025"><ele>238.0</ele><time>2026-05-02T08:42:09.953Z</time></trkpt><trkpt lat="43.4917717" lon="11.62889"><ele>237.99999999999997</ele><time>2026-05-02T08:42:11.951Z</time></trkpt><trkpt lat="43.4916983" lon="11.62875"><ele>238.0</ele><time>2026-05-02T08:42:13.953Z</time></trkpt><trkpt lat="43.4916467" lon="11.628645"><ele>238.0</ele><time>2026-05-02T08:42:15.953Z</time></trkpt><trkpt lat="43.4915667" lon="11.6286517"><ele>238.0</ele><time>2026-05-02T08:43:22.953Z</time></trkpt><trkpt lat="43.4916033" lon="11.62874"><ele>237.99999999999997</ele><time>2026-05-02T08:43:25.953Z</time></trkpt><trkpt lat="43.4916533" lon="11.6288167"><ele>238.0</ele><time>2026-05-02T08:43:29.953Z</time></trkpt><trkpt lat="43.491695" lon="11.628895"><ele>238.0</ele><time>2026-05-02T08:43:33.954Z</time></trkpt><trkpt lat="43.491775" lon="11.6289967"><ele>238.0</ele><time>2026-05-02T09:04:31.955Z</time></trkpt><trkpt lat="43.49182" lon="11.6290817"><ele>238.0</ele><time>2026-05-02T09:04:34.955Z</time></trkpt><trkpt lat="43.4918767" lon="11.6292033"><ele>238.0</ele><time>2026-05-02T09:04:37.955Z</time></trkpt><trkpt lat="43.4919333" lon="11.629315"><ele>238.0</ele><time>2026-05-02T09:04:39.955Z</time></trkpt><trkpt lat="43.4919917" lon="11.6294283"><ele>238.60000000000002</ele><time>2026-05-02T09:04:41.952Z</time></trkpt><trkpt lat="43.4920383" lon="11.6295367"><ele>239.20000000000002</ele><time>2026-05-02T09:04:43.953Z</time></trkpt><trkpt lat="43.4920933" lon="11.6296433"><ele>239.8</ele><time>2026-05-02T09:04:45.955Z</time></trkpt><trkpt lat="43.4921433" lon="11.629765"><ele>240.4</ele><time>2026-05-02T09:04:47.951Z</time></trkpt><trkpt lat="43.49219" lon="11.6298717"><ele>241.0</ele><time>2026-05-02T09:04:49.953Z</time></trkpt><trkpt lat="43.4922467" lon="11.6299817"><ele>241.20000000000002</ele><time>2026-05-02T09:04:51.953Z</time></trkpt><trkpt lat="43.4923133" lon="11.6300983"><ele>241.40000000000003</ele><time>2026-05-02T09:04:53.956Z</time></trkpt><trkpt lat="43.492375" lon="11.6302217"><ele>241.6</ele><time>2026-05-02T09:04:55.953Z</time></trkpt><trkpt lat="43.492435" lon="11.6303433"><ele>241.8</ele><time>2026-05-02T09:04:57.955Z</time></trkpt><trkpt lat="43.4925033" lon="11.6304783"><ele>242.0</ele><time>2026-05-02T09:04:59.955Z</time></trkpt><trkpt lat="43.4925383" lon="11.6305517"><ele>242.0</ele><time>2026-05-02T09:05:00.953Z</time></trkpt><trkpt lat="43.4925767" lon="11.6306217"><ele>241.99999999999997</ele><time>2026-05-02T09:05:01.954Z</time></trkpt><trkpt lat="43.492615" lon="11.630695"><ele>242.0</ele><time>2026-05-02T09:05:02.955Z</time></trkpt><trkpt lat="43.492655" lon="11.630765"><ele>242.0</ele><time>2026-05-02T09:05:03.954Z</time></trkpt><trkpt lat="43.492695" lon="11.6308367"><ele>241.99999999999997</ele><time>2026-05-02T09:05:04.953Z</time></trkpt><trkpt lat="43.4927333" lon="11.6309067"><ele>242.0</ele><time>2026-05-02T09:05:05.953Z</time></trkpt><trkpt lat="43.4927683" lon="11.63098"><ele>242.0</ele><time>2026-05-02T09:05:06.953Z</time></trkpt><trkpt lat="43.492805" lon="11.631055"><ele>242.00000000000003</ele><time>2026-05-02T09:05:07.955Z</time></trkpt><trkpt lat="43.4928383" lon="11.6311317"><ele>242.0</ele><time>2026-05-02T09:05:08.954Z</time></trkpt><trkpt lat="43.4928683" lon="11.63121"><ele>242.0</ele><time>2026-05-02T09:05:09.953Z</time></trkpt><trkpt lat="43.49293" lon="11.631355"><ele>242.0</ele><time>2026-05-02T09:05:11.952Z</time></trkpt><trkpt lat="43.4929683" lon="11.631425"><ele>242.00000000000003</ele><time>2026-05-02T09:05:12.954Z</time></trkpt><trkpt lat="43.4930383" lon="11.6315683"><ele>242.0</ele><time>2026-05-02T09:05:14.952Z</time></trkpt><trkpt lat="43.4931033" lon="11.6317117"><ele>240.25</ele><time>2026-05-02T09:05:16.954Z</time></trkpt><trkpt lat="43.4931717" lon="11.63185"><ele>238.5</ele><time>2026-05-02T09:05:18.954Z</time></trkpt><trkpt lat="43.4932383" lon="11.6319833"><ele>236.75</ele><time>2026-05-02T09:05:20.955Z</time></trkpt><trkpt lat="43.493315" lon="11.6321267"><ele>235.0</ele><time>2026-05-02T09:05:22.953Z</time></trkpt><trkpt lat="43.4933833" lon="11.6322667"><ele>234.99999999999997</ele><time>2026-05-02T09:05:24.953Z</time></trkpt><trkpt lat="43.4934217" lon="11.6323417"><ele>235.0</ele><time>2026-05-02T09:05:25.954Z</time></trkpt><trkpt lat="43.493495" lon="11.6324867"><ele>235.0</ele><time>2026-05-02T09:05:27.954Z</time></trkpt><trkpt lat="43.4935333" lon="11.6325567"><ele>235.0</ele><time>2026-05-02T09:05:28.952Z</time></trkpt><trkpt lat="43.4935717" lon="11.6326283"><ele>234.99999999999997</ele><time>2026-05-02T09:05:29.954Z</time></trkpt><trkpt lat="43.49361" lon="11.6327"><ele>235.0</ele><time>2026-05-02T09:05:30.956Z</time></trkpt><trkpt lat="43.49368" lon="11.6328383"><ele>235.5</ele><time>2026-05-02T09:05:32.956Z</time></trkpt><trkpt lat="43.4937483" lon="11.632975"><ele>236.0</ele><time>2026-05-02T09:05:34.954Z</time></trkpt><trkpt lat="43.4938133" lon="11.6331133"><ele>236.5</ele><time>2026-05-02T09:05:36.955Z</time></trkpt><trkpt lat="43.4938767" lon="11.6332483"><ele>237.0</ele><time>2026-05-02T09:05:38.954Z</time></trkpt><trkpt lat="43.4939317" lon="11.6333833"><ele>237.8</ele><time>2026-05-02T09:05:40.954Z</time></trkpt><trkpt lat="43.4939883" lon="11.6335167"><ele>238.6</ele><time>2026-05-02T09:05:42.952Z</time></trkpt><trkpt lat="43.4940433" lon="11.633645"><ele>239.40000000000003</ele><time>2026-05-02T09:05:44.953Z</time></trkpt><trkpt lat="43.4941" lon="11.6337817"><ele>240.20000000000002</ele><time>2026-05-02T09:05:46.952Z</time></trkpt><trkpt lat="43.494155" lon="11.63392"><ele>241.0</ele><time>2026-05-02T09:05:48.954Z</time></trkpt><trkpt lat="43.4942067" lon="11.634045"><ele>241.4</ele><time>2026-05-02T09:05:50.954Z</time></trkpt><trkpt lat="43.494255" lon="11.6341683"><ele>241.8</ele><time>2026-05-02T09:05:52.953Z</time></trkpt><trkpt lat="43.4943067" lon="11.6343"><ele>242.20000000000002</ele><time>2026-05-02T09:05:54.952Z</time></trkpt><trkpt lat="43.4943533" lon="11.6344317"><ele>242.60000000000002</ele><time>2026-05-02T09:05:56.954Z</time></trkpt><trkpt lat="43.4944" lon="11.6345517"><ele>243.0</ele><time>2026-05-02T09:05:58.954Z</time></trkpt><trkpt lat="43.4944483" lon="11.6346817"><ele>242.60000000000002</ele><time>2026-05-02T09:06:00.955Z</time></trkpt><trkpt lat="43.4944983" lon="11.6348133"><ele>242.20000000000002</ele><time>2026-05-02T09:06:02.954Z</time></trkpt><trkpt lat="43.4945483" lon="11.6349483"><ele>241.8</ele><time>2026-05-02T09:06:04.953Z</time></trkpt><trkpt lat="43.4945983" lon="11.6350767"><ele>241.4</ele><time>2026-05-02T09:06:06.953Z</time></trkpt><trkpt lat="43.4946467" lon="11.6352117"><ele>241.0</ele><time>2026-05-02T09:06:08.953Z</time></trkpt><trkpt lat="43.494695" lon="11.6353417"><ele>242.0</ele><time>2026-05-02T09:06:10.954Z</time></trkpt><trkpt lat="43.494745" lon="11.635475"><ele>243.00000000000003</ele><time>2026-05-02T09:06:12.956Z</time></trkpt><trkpt lat="43.494795" lon="11.6356083"><ele>244.00000000000003</ele><time>2026-05-02T09:06:14.953Z</time></trkpt><trkpt lat="43.4948467" lon="11.63574"><ele>245.0</ele><time>2026-05-02T09:06:16.954Z</time></trkpt><trkpt lat="43.4949" lon="11.635875"><ele>246.0</ele><time>2026-05-02T09:06:18.954Z</time></trkpt><trkpt lat="43.4949533" lon="11.6360083"><ele>246.8</ele><time>2026-05-02T09:06:20.956Z</time></trkpt><trkpt lat="43.495" lon="11.6361433"><ele>247.60000000000002</ele><time>2026-05-02T09:06:22.954Z</time></trkpt><trkpt lat="43.4950483" lon="11.6362783"><ele>248.4</ele><time>2026-05-02T09:06:24.953Z</time></trkpt><trkpt lat="43.4950917" lon="11.63641"><ele>249.2</ele><time>2026-05-02T09:06:26.954Z</time></trkpt><trkpt lat="43.4951383" lon="11.6365467"><ele>250.0</ele><time>2026-05-02T09:06:28.954Z</time></trkpt><trkpt lat="43.49519" lon="11.6366917"><ele>250.0</ele><time>2026-05-02T09:06:30.954Z</time></trkpt><trkpt lat="43.495245" lon="11.636845"><ele>250.0</ele><time>2026-05-02T09:06:32.954Z</time></trkpt><trkpt lat="43.4953033" lon="11.6370017"><ele>250.0</ele><time>2026-05-02T09:06:34.953Z</time></trkpt><trkpt lat="43.4953617" lon="11.6371583"><ele>250.0</ele><time>2026-05-02T09:06:36.954Z</time></trkpt><trkpt lat="43.4954183" lon="11.63731"><ele>250.0</ele><time>2026-05-02T09:06:38.954Z</time></trkpt><trkpt lat="43.4954467" lon="11.6373883"><ele>250.0</ele><time>2026-05-02T09:06:39.953Z</time></trkpt><trkpt lat="43.4954783" lon="11.637465"><ele>250.0</ele><time>2026-05-02T09:06:40.953Z</time></trkpt><trkpt lat="43.4955083" lon="11.6375467"><ele>250.0</ele><time>2026-05-02T09:06:41.954Z</time></trkpt><trkpt lat="43.4955383" lon="11.6376267"><ele>250.0</ele><time>2026-05-02T09:06:42.954Z</time></trkpt><trkpt lat="43.4955667" lon="11.6377067"><ele>250.0</ele><time>2026-05-02T09:06:43.953Z</time></trkpt><trkpt lat="43.4955933" lon="11.6377867"><ele>250.0</ele><time>2026-05-02T09:06:44.954Z</time></trkpt><trkpt lat="43.4956183" lon="11.6378683"><ele>250.0</ele><time>2026-05-02T09:06:45.955Z</time></trkpt><trkpt lat="43.4956383" lon="11.6379517"><ele>250.0</ele><time>2026-05-02T09:06:46.954Z</time></trkpt><trkpt lat="43.4956583" lon="11.638035"><ele>250.0</ele><time>2026-05-02T09:06:47.954Z</time></trkpt><trkpt lat="43.4956783" lon="11.6381217"><ele>250.0</ele><time>2026-05-02T09:06:48.956Z</time></trkpt><trkpt lat="43.495695" lon="11.6382083"><ele>250.0</ele><time>2026-05-02T09:06:49.952Z</time></trkpt><trkpt lat="43.4957133" lon="11.6382983"><ele>250.0</ele><time>2026-05-02T09:06:50.953Z</time></trkpt><trkpt lat="43.49573" lon="11.6383867"><ele>250.0</ele><time>2026-05-02T09:06:51.953Z</time></trkpt><trkpt lat="43.4957467" lon="11.6384767"><ele>249.99999999999997</ele><time>2026-05-02T09:06:52.953Z</time></trkpt><trkpt lat="43.49576" lon="11.6385667"><ele>250.0</ele><time>2026-05-02T09:06:53.953Z</time></trkpt><trkpt lat="43.4957667" lon="11.638655"><ele>250.0</ele><time>2026-05-02T09:06:54.953Z</time></trkpt><trkpt lat="43.49578" lon="11.6388283"><ele>250.0</ele><time>2026-05-02T09:06:56.956Z</time></trkpt><trkpt lat="43.4957867" lon="11.638915"><ele>249.99999999999997</ele><time>2026-05-02T09:06:57.956Z</time></trkpt><trkpt lat="43.495795" lon="11.63909"><ele>250.0</ele><time>2026-05-02T09:06:59.953Z</time></trkpt><trkpt lat="43.4958033" lon="11.63918"><ele>249.99999999999997</ele><time>2026-05-02T09:07:00.953Z</time></trkpt><trkpt lat="43.4958067" lon="11.63927"><ele>250.0</ele><time>2026-05-02T09:07:01.952Z</time></trkpt><trkpt lat="43.4958133" lon="11.6393617"><ele>250.0</ele><time>2026-05-02T09:07:02.953Z</time></trkpt><trkpt lat="43.49582" lon="11.6394533"><ele>250.0</ele><time>2026-05-02T09:07:03.954Z</time></trkpt><trkpt lat="43.4958283" lon="11.6395433"><ele>249.99999999999997</ele><time>2026-05-02T09:07:04.953Z</time></trkpt><trkpt lat="43.49584" lon="11.6397083"><ele>250.0</ele><time>2026-05-02T09:07:06.954Z</time></trkpt><trkpt lat="43.4958567" lon="11.639875"><ele>250.16666666666666</ele><time>2026-05-02T09:07:08.953Z</time></trkpt><trkpt lat="43.49588" lon="11.6400433"><ele>250.33333333333331</ele><time>2026-05-02T09:07:10.955Z</time></trkpt><trkpt lat="43.4959083" lon="11.6402117"><ele>250.5</ele><time>2026-05-02T09:07:12.955Z</time></trkpt><trkpt lat="43.4959217" lon="11.6403"><ele>250.66666666666669</ele><time>2026-05-02T09:07:13.953Z</time></trkpt><trkpt lat="43.49594" lon="11.6403883"><ele>250.83333333333334</ele><time>2026-05-02T09:07:14.955Z</time></trkpt><trkpt lat="43.4959583" lon="11.6404717"><ele>251.0</ele><time>2026-05-02T09:07:15.953Z</time></trkpt><trkpt lat="43.4959767" lon="11.6405567"><ele>251.1428571428571</ele><time>2026-05-02T09:07:16.954Z</time></trkpt><trkpt lat="43.4959983" lon="11.6406383"><ele>251.28571428571428</ele><time>2026-05-02T09:07:17.952Z</time></trkpt><trkpt lat="43.4960217" lon="11.6407217"><ele>251.42857142857142</ele><time>2026-05-02T09:07:18.952Z</time></trkpt><trkpt lat="43.4960467" lon="11.6408017"><ele>251.57142857142856</ele><time>2026-05-02T09:07:19.953Z</time></trkpt><trkpt lat="43.4960733" lon="11.6408833"><ele>251.71428571428572</ele><time>2026-05-02T09:07:20.953Z</time></trkpt><trkpt lat="43.4961017" lon="11.6409633"><ele>251.85714285714286</ele><time>2026-05-02T09:07:21.954Z</time></trkpt><trkpt lat="43.4961333" lon="11.64104"><ele>252.0</ele><time>2026-05-02T09:07:22.953Z</time></trkpt><trkpt lat="43.4961917" lon="11.6411883"><ele>252.0</ele><time>2026-05-02T09:07:24.953Z</time></trkpt><trkpt lat="43.4962217" lon="11.6412717"><ele>252.0</ele><time>2026-05-02T09:07:25.952Z</time></trkpt><trkpt lat="43.4962517" lon="11.6413533"><ele>252.0</ele><time>2026-05-02T09:07:26.953Z</time></trkpt><trkpt lat="43.4962833" lon="11.6414367"><ele>252.0</ele><time>2026-05-02T09:07:27.954Z</time></trkpt><trkpt lat="43.4963167" lon="11.64152"><ele>252.0</ele><time>2026-05-02T09:07:28.953Z</time></trkpt><trkpt lat="43.49635" lon="11.6416033"><ele>252.0</ele><time>2026-05-02T09:07:29.954Z</time></trkpt><trkpt lat="43.4963833" lon="11.641685"><ele>252.0</ele><time>2026-05-02T09:07:30.955Z</time></trkpt><trkpt lat="43.4964183" lon="11.6417667"><ele>251.83333333333334</ele><time>2026-05-02T09:07:31.954Z</time></trkpt><trkpt lat="43.4964533" lon="11.64185"><ele>251.66666666666669</ele><time>2026-05-02T09:07:32.954Z</time></trkpt><trkpt lat="43.49649" lon="11.64194"><ele>251.5</ele><time>2026-05-02T09:07:33.953Z</time></trkpt><trkpt lat="43.4965267" lon="11.6420333"><ele>251.33333333333334</ele><time>2026-05-02T09:07:34.953Z</time></trkpt><trkpt lat="43.496565" lon="11.6421283"><ele>251.16666666666669</ele><time>2026-05-02T09:07:35.955Z</time></trkpt><trkpt lat="43.4966017" lon="11.6422217"><ele>251.0</ele><time>2026-05-02T09:07:36.954Z</time></trkpt><trkpt lat="43.49664" lon="11.6423167"><ele>251.00000000000003</ele><time>2026-05-02T09:07:37.952Z</time></trkpt><trkpt lat="43.4966783" lon="11.6424083"><ele>251.0</ele><time>2026-05-02T09:07:38.956Z</time></trkpt><trkpt lat="43.4967167" lon="11.6425017"><ele>251.0</ele><time>2026-05-02T09:07:39.953Z</time></trkpt><trkpt lat="43.496755" lon="11.6425983"><ele>251.0</ele><time>2026-05-02T09:07:40.955Z</time></trkpt><trkpt lat="43.496795" lon="11.6426967"><ele>251.00000000000003</ele><time>2026-05-02T09:07:41.954Z</time></trkpt><trkpt lat="43.4968333" lon="11.6427967"><ele>251.0</ele><time>2026-05-02T09:07:42.952Z</time></trkpt><trkpt lat="43.4968717" lon="11.6429"><ele>250.66666666666669</ele><time>2026-05-02T09:07:43.954Z</time></trkpt><trkpt lat="43.4969067" lon="11.643"><ele>250.33333333333334</ele><time>2026-05-02T09:07:44.953Z</time></trkpt><trkpt lat="43.496945" lon="11.6431083"><ele>250.0</ele><time>2026-05-02T09:07:45.954Z</time></trkpt><trkpt lat="43.49698" lon="11.6432117"><ele>249.66666666666669</ele><time>2026-05-02T09:07:46.955Z</time></trkpt><trkpt lat="43.4970167" lon="11.6433167"><ele>249.33333333333334</ele><time>2026-05-02T09:07:47.953Z</time></trkpt><trkpt lat="43.49705" lon="11.643425"><ele>249.0</ele><time>2026-05-02T09:07:48.954Z</time></trkpt><trkpt lat="43.4970867" lon="11.643535"><ele>248.6</ele><time>2026-05-02T09:07:49.953Z</time></trkpt><trkpt lat="43.4971217" lon="11.6436467"><ele>248.2</ele><time>2026-05-02T09:07:50.954Z</time></trkpt><trkpt lat="43.4971583" lon="11.6437617"><ele>247.79999999999998</ele><time>2026-05-02T09:07:51.954Z</time></trkpt><trkpt lat="43.4971967" lon="11.6438767"><ele>247.39999999999998</ele><time>2026-05-02T09:07:52.953Z</time></trkpt><trkpt lat="43.4972367" lon="11.6439933"><ele>247.0</ele><time>2026-05-02T09:07:53.952Z</time></trkpt><trkpt lat="43.4972783" lon="11.644115"><ele>247.0</ele><time>2026-05-02T09:07:54.952Z</time></trkpt><trkpt lat="43.4973183" lon="11.6442383"><ele>247.0</ele><time>2026-05-02T09:07:55.958Z</time></trkpt><trkpt lat="43.4973583" lon="11.64436"><ele>247.0</ele><time>2026-05-02T09:07:56.953Z</time></trkpt><trkpt lat="43.4974" lon="11.6444833"><ele>247.0</ele><time>2026-05-02T09:07:57.954Z</time></trkpt><trkpt lat="43.4974417" lon="11.6446067"><ele>247.0</ele><time>2026-05-02T09:07:58.954Z</time></trkpt><trkpt lat="43.4974817" lon="11.64473"><ele>246.39999999999998</ele><time>2026-05-02T09:07:59.955Z</time></trkpt><trkpt lat="43.4975233" lon="11.6448617"><ele>245.79999999999998</ele><time>2026-05-02T09:08:00.955Z</time></trkpt><trkpt lat="43.4975667" lon="11.6449917"><ele>245.2</ele><time>2026-05-02T09:08:01.953Z</time></trkpt><trkpt lat="43.49761" lon="11.6451233"><ele>244.6</ele><time>2026-05-02T09:08:02.955Z</time></trkpt><trkpt lat="43.4976517" lon="11.645255"><ele>244.0</ele><time>2026-05-02T09:08:03.953Z</time></trkpt><trkpt lat="43.497695" lon="11.645385"><ele>243.2</ele><time>2026-05-02T09:08:04.953Z</time></trkpt><trkpt lat="43.4977383" lon="11.6455117"><ele>242.39999999999998</ele><time>2026-05-02T09:08:05.954Z</time></trkpt><trkpt lat="43.4977817" lon="11.64564"><ele>241.6</ele><time>2026-05-02T09:08:06.953Z</time></trkpt><trkpt lat="43.4978217" lon="11.6457683"><ele>240.8</ele><time>2026-05-02T09:08:07.954Z</time></trkpt><trkpt lat="43.4978633" lon="11.6459"><ele>240.0</ele><time>2026-05-02T09:08:08.954Z</time></trkpt><trkpt lat="43.4979067" lon="11.6460317"><ele>240.4</ele><time>2026-05-02T09:08:09.954Z</time></trkpt><trkpt lat="43.49795" lon="11.6461617"><ele>240.8</ele><time>2026-05-02T09:08:10.953Z</time></trkpt><trkpt lat="43.4979917" lon="11.6462883"><ele>241.2</ele><time>2026-05-02T09:08:11.952Z</time></trkpt><trkpt lat="43.4980333" lon="11.6464167"><ele>241.6</ele><time>2026-05-02T09:08:12.955Z</time></trkpt><trkpt lat="43.4980783" lon="11.64655"><ele>242.0</ele><time>2026-05-02T09:08:13.954Z</time></trkpt><trkpt lat="43.4981233" lon="11.6466783"><ele>242.0</ele><time>2026-05-02T09:08:14.954Z</time></trkpt><trkpt lat="43.498165" lon="11.6468117"><ele>242.0</ele><time>2026-05-02T09:08:15.953Z</time></trkpt><trkpt lat="43.498205" lon="11.6469467"><ele>242.0</ele><time>2026-05-02T09:08:16.953Z</time></trkpt><trkpt lat="43.4982467" lon="11.6470833"><ele>242.0</ele><time>2026-05-02T09:08:17.953Z</time></trkpt><trkpt lat="43.49828" lon="11.6472167"><ele>242.0</ele><time>2026-05-02T09:08:18.954Z</time></trkpt><trkpt lat="43.4983083" lon="11.64735"><ele>241.8</ele><time>2026-05-02T09:08:19.954Z</time></trkpt><trkpt lat="43.4983317" lon="11.6474883"><ele>241.6</ele><time>2026-05-02T09:08:20.955Z</time></trkpt><trkpt lat="43.498345" lon="11.647625"><ele>241.40000000000003</ele><time>2026-05-02T09:08:21.953Z</time></trkpt><trkpt lat="43.498355" lon="11.64777"><ele>241.20000000000002</ele><time>2026-05-02T09:08:22.954Z</time></trkpt><trkpt lat="43.4983617" lon="11.6479167"><ele>241.0</ele><time>2026-05-02T09:08:23.953Z</time></trkpt><trkpt lat="43.4983667" lon="11.6480633"><ele>240.0</ele><time>2026-05-02T09:08:24.953Z</time></trkpt><trkpt lat="43.4983733" lon="11.648215"><ele>239.00000000000003</ele><time>2026-05-02T09:08:25.953Z</time></trkpt><trkpt lat="43.4983783" lon="11.6483633"><ele>238.00000000000003</ele><time>2026-05-02T09:08:26.953Z</time></trkpt><trkpt lat="43.4983833" lon="11.6485117"><ele>237.0</ele><time>2026-05-02T09:08:27.953Z</time></trkpt><trkpt lat="43.4983883" lon="11.6486583"><ele>236.0</ele><time>2026-05-02T09:08:28.954Z</time></trkpt><trkpt lat="43.4983933" lon="11.648805"><ele>235.8</ele><time>2026-05-02T09:08:29.954Z</time></trkpt><trkpt lat="43.4983933" lon="11.648945"><ele>235.60000000000002</ele><time>2026-05-02T09:08:30.953Z</time></trkpt><trkpt lat="43.498395" lon="11.6490883"><ele>235.4</ele><time>2026-05-02T09:08:31.954Z</time></trkpt><trkpt lat="43.4983967" lon="11.6492317"><ele>235.2</ele><time>2026-05-02T09:08:32.956Z</time></trkpt><trkpt lat="43.4984017" lon="11.64938"><ele>235.0</ele><time>2026-05-02T09:08:33.953Z</time></trkpt><trkpt lat="43.4984067" lon="11.6495233"><ele>235.0</ele><time>2026-05-02T09:08:34.955Z</time></trkpt><trkpt lat="43.4984117" lon="11.6496717"><ele>235.0</ele><time>2026-05-02T09:08:35.953Z</time></trkpt><trkpt lat="43.498415" lon="11.6498167"><ele>235.0</ele><time>2026-05-02T09:08:36.955Z</time></trkpt><trkpt lat="43.49842" lon="11.64996"><ele>235.0</ele><time>2026-05-02T09:08:37.953Z</time></trkpt><trkpt lat="43.4984233" lon="11.6501017"><ele>235.0</ele><time>2026-05-02T09:08:38.954Z</time></trkpt><trkpt lat="43.4984233" lon="11.6502367"><ele>235.2</ele><time>2026-05-02T09:08:39.953Z</time></trkpt><trkpt lat="43.4984267" lon="11.65037"><ele>235.4</ele><time>2026-05-02T09:08:40.953Z</time></trkpt><trkpt lat="43.49843" lon="11.6504967"><ele>235.60000000000002</ele><time>2026-05-02T09:08:41.953Z</time></trkpt><trkpt lat="43.4984317" lon="11.6506217"><ele>235.8</ele><time>2026-05-02T09:08:42.954Z</time></trkpt><trkpt lat="43.4984333" lon="11.6507483"><ele>236.0</ele><time>2026-05-02T09:08:43.955Z</time></trkpt><trkpt lat="43.4984367" lon="11.6508783"><ele>236.00000000000003</ele><time>2026-05-02T09:08:44.954Z</time></trkpt><trkpt lat="43.49844" lon="11.6509967"><ele>236.0</ele><time>2026-05-02T09:08:45.952Z</time></trkpt><trkpt lat="43.49844" lon="11.6511133"><ele>236.0</ele><time>2026-05-02T09:08:46.955Z</time></trkpt><trkpt lat="43.4984383" lon="11.6512317"><ele>236.0</ele><time>2026-05-02T09:08:47.954Z</time></trkpt><trkpt lat="43.49844" lon="11.65135"><ele>236.00000000000003</ele><time>2026-05-02T09:08:48.953Z</time></trkpt><trkpt lat="43.498435" lon="11.6514683"><ele>236.0</ele><time>2026-05-02T09:08:49.954Z</time></trkpt><trkpt lat="43.4984267" lon="11.6515833"><ele>236.50000000000003</ele><time>2026-05-02T09:08:50.956Z</time></trkpt><trkpt lat="43.4984183" lon="11.6517017"><ele>237.0</ele><time>2026-05-02T09:08:51.954Z</time></trkpt><trkpt lat="43.4984" lon="11.6518133"><ele>237.5</ele><time>2026-05-02T09:08:52.954Z</time></trkpt><trkpt lat="43.4983817" lon="11.6519233"><ele>238.0</ele><time>2026-05-02T09:08:53.955Z</time></trkpt><trkpt lat="43.49836" lon="11.6520317"><ele>238.50000000000003</ele><time>2026-05-02T09:08:54.955Z</time></trkpt><trkpt lat="43.49834" lon="11.6521367"><ele>239.0</ele><time>2026-05-02T09:08:55.956Z</time></trkpt><trkpt lat="43.498315" lon="11.6522367"><ele>239.00000000000003</ele><time>2026-05-02T09:08:56.955Z</time></trkpt><trkpt lat="43.4982883" lon="11.65234"><ele>239.0</ele><time>2026-05-02T09:08:57.955Z</time></trkpt><trkpt lat="43.4982583" lon="11.6524417"><ele>239.0</ele><time>2026-05-02T09:08:58.952Z</time></trkpt><trkpt lat="43.498225" lon="11.6525417"><ele>239.0</ele><time>2026-05-02T09:08:59.955Z</time></trkpt><trkpt lat="43.4981933" lon="11.652635"><ele>239.00000000000003</ele><time>2026-05-02T09:09:00.953Z</time></trkpt><trkpt lat="43.4981583" lon="11.6527267"><ele>239.0</ele><time>2026-05-02T09:09:01.954Z</time></trkpt><trkpt lat="43.4981217" lon="11.6528217"><ele>238.71428571428575</ele><time>2026-05-02T09:09:02.957Z</time></trkpt><trkpt lat="43.4980833" lon="11.6529133"><ele>238.42857142857144</ele><time>2026-05-02T09:09:03.955Z</time></trkpt><trkpt lat="43.4980483" lon="11.6530033"><ele>238.14285714285714</ele><time>2026-05-02T09:09:04.954Z</time></trkpt><trkpt lat="43.4980117" lon="11.65309"><ele>237.85714285714286</ele><time>2026-05-02T09:09:05.954Z</time></trkpt><trkpt lat="43.4979767" lon="11.6531767"><ele>237.57142857142856</ele><time>2026-05-02T09:09:06.954Z</time></trkpt><trkpt lat="43.4979433" lon="11.6532683"><ele>237.28571428571425</ele><time>2026-05-02T09:09:07.955Z</time></trkpt><trkpt lat="43.4979083" lon="11.6533583"><ele>236.99999999999997</ele><time>2026-05-02T09:09:08.954Z</time></trkpt><trkpt lat="43.497875" lon="11.6534433"><ele>237.71428571428567</ele><time>2026-05-02T09:09:09.956Z</time></trkpt><trkpt lat="43.4978417" lon="11.6535317"><ele>238.42857142857142</ele><time>2026-05-02T09:09:10.954Z</time></trkpt><trkpt lat="43.49781" lon="11.6536183"><ele>239.1428571428571</ele><time>2026-05-02T09:09:11.953Z</time></trkpt><trkpt lat="43.4977783" lon="11.6537067"><ele>239.85714285714283</ele><time>2026-05-02T09:09:12.954Z</time></trkpt><trkpt lat="43.4977483" lon="11.653795"><ele>240.57142857142856</ele><time>2026-05-02T09:09:13.954Z</time></trkpt><trkpt lat="43.497715" lon="11.6538783"><ele>241.28571428571428</ele><time>2026-05-02T09:09:14.955Z</time></trkpt><trkpt lat="43.4976833" lon="11.6539633"><ele>242.0</ele><time>2026-05-02T09:09:15.954Z</time></trkpt><trkpt lat="43.49765" lon="11.6540433"><ele>242.42857142857142</ele><time>2026-05-02T09:09:16.954Z</time></trkpt><trkpt lat="43.49762" lon="11.6541317"><ele>242.85714285714283</ele><time>2026-05-02T09:09:17.954Z</time></trkpt><trkpt lat="43.4975867" lon="11.654215"><ele>243.28571428571428</ele><time>2026-05-02T09:09:18.955Z</time></trkpt><trkpt lat="43.4975533" lon="11.6543"><ele>243.71428571428572</ele><time>2026-05-02T09:09:19.955Z</time></trkpt><trkpt lat="43.4975217" lon="11.6543867"><ele>244.14285714285714</ele><time>2026-05-02T09:09:20.954Z</time></trkpt><trkpt lat="43.4974883" lon="11.6544683"><ele>244.57142857142856</ele><time>2026-05-02T09:09:21.955Z</time></trkpt><trkpt lat="43.4974567" lon="11.6545483"><ele>245.0</ele><time>2026-05-02T09:09:22.954Z</time></trkpt><trkpt lat="43.497425" lon="11.6546267"><ele>245.28571428571428</ele><time>2026-05-02T09:09:23.954Z</time></trkpt><trkpt lat="43.497395" lon="11.6547117"><ele>245.57142857142856</ele><time>2026-05-02T09:09:24.954Z</time></trkpt><trkpt lat="43.4973633" lon="11.6547917"><ele>245.85714285714286</ele><time>2026-05-02T09:09:25.954Z</time></trkpt><trkpt lat="43.4973317" lon="11.6548783"><ele>246.14285714285714</ele><time>2026-05-02T09:09:26.955Z</time></trkpt><trkpt lat="43.4973017" lon="11.6549617"><ele>246.42857142857142</ele><time>2026-05-02T09:09:27.954Z</time></trkpt><trkpt lat="43.4972717" lon="11.655045"><ele>246.71428571428572</ele><time>2026-05-02T09:09:28.955Z</time></trkpt><trkpt lat="43.4972433" lon="11.6551283"><ele>247.0</ele><time>2026-05-02T09:09:29.955Z</time></trkpt><trkpt lat="43.4972183" lon="11.65521"><ele>246.33333333333331</ele><time>2026-05-02T09:09:30.954Z</time></trkpt><trkpt lat="43.4971883" lon="11.6552917"><ele>245.66666666666666</ele><time>2026-05-02T09:09:31.954Z</time></trkpt><trkpt lat="43.49716" lon="11.6553733"><ele>245.0</ele><time>2026-05-02T09:09:32.954Z</time></trkpt><trkpt lat="43.49713" lon="11.655455"><ele>244.33333333333331</ele><time>2026-05-02T09:09:33.954Z</time></trkpt><trkpt lat="43.4970983" lon="11.655535"><ele>243.66666666666666</ele><time>2026-05-02T09:09:34.953Z</time></trkpt><trkpt lat="43.4970433" lon="11.6556917"><ele>243.0</ele><time>2026-05-02T09:09:36.955Z</time></trkpt><trkpt lat="43.497015" lon="11.6557733"><ele>244.0</ele><time>2026-05-02T09:09:37.955Z</time></trkpt><trkpt lat="43.496985" lon="11.655855"><ele>245.0</ele><time>2026-05-02T09:09:38.954Z</time></trkpt><trkpt lat="43.496955" lon="11.6559367"><ele>246.0</ele><time>2026-05-02T09:09:39.954Z</time></trkpt><trkpt lat="43.4969233" lon="11.6560167"><ele>247.0</ele><time>2026-05-02T09:09:40.953Z</time></trkpt><trkpt lat="43.4968917" lon="11.6561"><ele>248.0</ele><time>2026-05-02T09:09:41.956Z</time></trkpt><trkpt lat="43.4968583" lon="11.6561833"><ele>249.0</ele><time>2026-05-02T09:09:42.955Z</time></trkpt><trkpt lat="43.4968267" lon="11.656265"><ele>250.0</ele><time>2026-05-02T09:09:43.954Z</time></trkpt><trkpt lat="43.496795" lon="11.6563517"><ele>250.0</ele><time>2026-05-02T09:09:44.955Z</time></trkpt><trkpt lat="43.49676" lon="11.656435"><ele>250.0</ele><time>2026-05-02T09:09:45.955Z</time></trkpt><trkpt lat="43.496725" lon="11.6565183"><ele>250.0</ele><time>2026-05-02T09:09:46.955Z</time></trkpt><trkpt lat="43.49669" lon="11.6566083"><ele>250.0</ele><time>2026-05-02T09:09:47.955Z</time></trkpt><trkpt lat="43.4966567" lon="11.6567017"><ele>250.0</ele><time>2026-05-02T09:09:48.954Z</time></trkpt><trkpt lat="43.4966233" lon="11.6567817"><ele>250.0</ele><time>2026-05-02T09:09:49.954Z</time></trkpt><trkpt lat="43.4965917" lon="11.656865"><ele>250.0</ele><time>2026-05-02T09:09:50.954Z</time></trkpt><trkpt lat="43.4965583" lon="11.6569517"><ele>249.71428571428572</ele><time>2026-05-02T09:09:51.957Z</time></trkpt><trkpt lat="43.496525" lon="11.6570417"><ele>249.42857142857144</ele><time>2026-05-02T09:09:52.954Z</time></trkpt><trkpt lat="43.4964917" lon="11.6571283"><ele>249.14285714285717</ele><time>2026-05-02T09:09:53.955Z</time></trkpt><trkpt lat="43.4964617" lon="11.657215"><ele>248.85714285714286</ele><time>2026-05-02T09:09:54.953Z</time></trkpt><trkpt lat="43.4964317" lon="11.6573033"><ele>248.5714285714286</ele><time>2026-05-02T09:09:55.954Z</time></trkpt><trkpt lat="43.4964017" lon="11.65739"><ele>248.2857142857143</ele><time>2026-05-02T09:09:56.956Z</time></trkpt><trkpt lat="43.49637" lon="11.6574767"><ele>248.0</ele><time>2026-05-02T09:09:57.954Z</time></trkpt><trkpt lat="43.4963383" lon="11.6575567"><ele>248.00000000000003</ele><time>2026-05-02T09:09:58.955Z</time></trkpt><trkpt lat="43.4963083" lon="11.6576367"><ele>248.0</ele><time>2026-05-02T09:09:59.954Z</time></trkpt><trkpt lat="43.496275" lon="11.6577167"><ele>248.0</ele><time>2026-05-02T09:10:00.954Z</time></trkpt><trkpt lat="43.4962433" lon="11.6577967"><ele>248.0</ele><time>2026-05-02T09:10:01.956Z</time></trkpt><trkpt lat="43.496215" lon="11.657875"><ele>248.00000000000003</ele><time>2026-05-02T09:10:02.955Z</time></trkpt><trkpt lat="43.4961633" lon="11.65803"><ele>248.0</ele><time>2026-05-02T09:10:04.957Z</time></trkpt><trkpt lat="43.496115" lon="11.6581767"><ele>249.2</ele><time>2026-05-02T09:10:06.954Z</time></trkpt><trkpt lat="43.4960833" lon="11.6582517"><ele>250.4</ele><time>2026-05-02T09:10:07.954Z</time></trkpt><trkpt lat="43.49602" lon="11.6583833"><ele>251.59999999999997</ele><time>2026-05-02T09:10:09.955Z</time></trkpt><trkpt lat="43.495935" lon="11.6584833"><ele>252.79999999999998</ele><time>2026-05-02T09:10:11.954Z</time></trkpt><trkpt lat="43.4958367" lon="11.6585533"><ele>254.0</ele><time>2026-05-02T09:10:13.955Z</time></trkpt><trkpt lat="43.4957683" lon="11.6586633"><ele>254.0</ele><time>2026-05-02T09:10:15.953Z</time></trkpt><trkpt lat="43.495755" lon="11.6588017"><ele>253.99999999999997</ele><time>2026-05-02T09:10:17.954Z</time></trkpt><trkpt lat="43.4958017" lon="11.6589267"><ele>253.99999999999997</ele><time>2026-05-02T09:10:19.953Z</time></trkpt><trkpt lat="43.4959133" lon="11.6589933"><ele>254.0</ele><time>2026-05-02T09:10:21.95Z</time></trkpt><trkpt lat="43.4960267" lon="11.6590233"><ele>254.0</ele><time>2026-05-02T09:10:23.952Z</time></trkpt><trkpt lat="43.4961383" lon="11.659065"><ele>254.0</ele><time>2026-05-02T09:10:25.955Z</time></trkpt><trkpt lat="43.4962517" lon="11.65913"><ele>254.0</ele><time>2026-05-02T09:10:27.954Z</time></trkpt><trkpt lat="43.496365" lon="11.65921"><ele>254.0</ele><time>2026-05-02T09:10:29.952Z</time></trkpt><trkpt lat="43.4964683" lon="11.6592867"><ele>254.0</ele><time>2026-05-02T09:10:31.953Z</time></trkpt><trkpt lat="43.49657" lon="11.6593767"><ele>253.2</ele><time>2026-05-02T09:10:33.956Z</time></trkpt><trkpt lat="43.4966567" lon="11.659455"><ele>252.39999999999998</ele><time>2026-05-02T09:10:35.954Z</time></trkpt><trkpt lat="43.49675" lon="11.659545"><ele>251.6</ele><time>2026-05-02T09:10:37.954Z</time></trkpt><trkpt lat="43.496835" lon="11.6596433"><ele>250.8</ele><time>2026-05-02T09:10:39.956Z</time></trkpt><trkpt lat="43.4969117" lon="11.6597383"><ele>250.0</ele><time>2026-05-02T09:10:41.955Z</time></trkpt><trkpt lat="43.4969817" lon="11.6598317"><ele>250.0</ele><time>2026-05-02T09:10:43.954Z</time></trkpt><trkpt lat="43.497045" lon="11.6599267"><ele>250.0</ele><time>2026-05-02T09:10:45.954Z</time></trkpt><trkpt lat="43.4971133" lon="11.660015"><ele>250.0</ele><time>2026-05-02T09:10:47.954Z</time></trkpt><trkpt lat="43.4971733" lon="11.6601317"><ele>250.0</ele><time>2026-05-02T09:10:49.954Z</time></trkpt><trkpt lat="43.497205" lon="11.6603033"><ele>250.0</ele><time>2026-05-02T09:10:51.951Z</time></trkpt><trkpt lat="43.4972083" lon="11.6603967"><ele>249.99999999999997</ele><time>2026-05-02T09:10:52.954Z</time></trkpt><trkpt lat="43.497205" lon="11.6604917"><ele>250.0</ele><time>2026-05-02T09:10:53.954Z</time></trkpt><trkpt lat="43.4971967" lon="11.6605867"><ele>250.0</ele><time>2026-05-02T09:10:54.954Z</time></trkpt><trkpt lat="43.4971867" lon="11.6606783"><ele>250.0</ele><time>2026-05-02T09:10:55.953Z</time></trkpt><trkpt lat="43.4971633" lon="11.66083"><ele>249.99999999999997</ele><time>2026-05-02T09:10:57.959Z</time></trkpt><trkpt lat="43.4971417" lon="11.6609767"><ele>250.0</ele><time>2026-05-02T09:10:59.954Z</time></trkpt><trkpt lat="43.4971233" lon="11.6611317"><ele>249.8</ele><time>2026-05-02T09:11:01.954Z</time></trkpt><trkpt lat="43.4970967" lon="11.6613"><ele>249.6</ele><time>2026-05-02T09:11:03.953Z</time></trkpt><trkpt lat="43.49707" lon="11.6614733"><ele>249.39999999999998</ele><time>2026-05-02T09:11:05.954Z</time></trkpt><trkpt lat="43.4970567" lon="11.6615717"><ele>249.2</ele><time>2026-05-02T09:11:06.955Z</time></trkpt><trkpt lat="43.4970417" lon="11.66167"><ele>249.0</ele><time>2026-05-02T09:11:07.953Z</time></trkpt><trkpt lat="43.497025" lon="11.6617683"><ele>249.0</ele><time>2026-05-02T09:11:08.953Z</time></trkpt><trkpt lat="43.49701" lon="11.66186"><ele>248.99999999999997</ele><time>2026-05-02T09:11:09.953Z</time></trkpt><trkpt lat="43.4969983" lon="11.6619617"><ele>249.0</ele><time>2026-05-02T09:11:10.955Z</time></trkpt><trkpt lat="43.496985" lon="11.6620567"><ele>249.0</ele><time>2026-05-02T09:11:11.955Z</time></trkpt><trkpt lat="43.49697" lon="11.6621517"><ele>248.99999999999997</ele><time>2026-05-02T09:11:12.953Z</time></trkpt><trkpt lat="43.49696" lon="11.6622467"><ele>249.0</ele><time>2026-05-02T09:11:13.952Z</time></trkpt><trkpt lat="43.4969467" lon="11.66234"><ele>249.0</ele><time>2026-05-02T09:11:14.954Z</time></trkpt><trkpt lat="43.4969333" lon="11.6624333"><ele>248.66666666666666</ele><time>2026-05-02T09:11:15.952Z</time></trkpt><trkpt lat="43.4969267" lon="11.662525"><ele>248.33333333333331</ele><time>2026-05-02T09:11:16.953Z</time></trkpt><trkpt lat="43.4969183" lon="11.6626133"><ele>248.0</ele><time>2026-05-02T09:11:17.953Z</time></trkpt><trkpt lat="43.4968967" lon="11.6627733"><ele>247.66666666666666</ele><time>2026-05-02T09:11:19.954Z</time></trkpt><trkpt lat="43.4968783" lon="11.662945"><ele>247.33333333333331</ele><time>2026-05-02T09:11:21.954Z</time></trkpt><trkpt lat="43.4968783" lon="11.6630367"><ele>247.0</ele><time>2026-05-02T09:11:22.956Z</time></trkpt><trkpt lat="43.4968683" lon="11.6631567"><ele>246.83333333333331</ele><time>2026-05-02T09:11:24.952Z</time></trkpt><trkpt lat="43.4968333" lon="11.6632383"><ele>246.66666666666666</ele><time>2026-05-02T09:11:35.952Z</time></trkpt><trkpt lat="43.496895" lon="11.6633083"><ele>246.5</ele><time>2026-05-02T09:13:23.955Z</time></trkpt><trkpt lat="43.4969017" lon="11.66344"><ele>246.33333333333331</ele><time>2026-05-02T09:13:26.954Z</time></trkpt><trkpt lat="43.49692" lon="11.6635633"><ele>246.16666666666666</ele><time>2026-05-02T09:13:28.953Z</time></trkpt><trkpt lat="43.4969517" lon="11.6636983"><ele>246.0</ele><time>2026-05-02T09:13:30.954Z</time></trkpt><trkpt lat="43.4969883" lon="11.6638433"><ele>246.0</ele><time>2026-05-02T09:13:32.955Z</time></trkpt><trkpt lat="43.49703" lon="11.6639933"><ele>246.00000000000003</ele><time>2026-05-02T09:13:34.952Z</time></trkpt><trkpt lat="43.4970817" lon="11.664095"><ele>246.00000000000003</ele><time>2026-05-02T09:13:36.954Z</time></trkpt><trkpt lat="43.4971433" lon="11.6642167"><ele>246.0</ele><time>2026-05-02T09:13:38.956Z</time></trkpt><trkpt lat="43.4972133" lon="11.6643383"><ele>246.0</ele><time>2026-05-02T09:13:40.953Z</time></trkpt><trkpt lat="43.4972933" lon="11.6644683"><ele>246.75</ele><time>2026-05-02T09:13:42.953Z</time></trkpt><trkpt lat="43.4973683" lon="11.6645983"><ele>247.5</ele><time>2026-05-02T09:13:44.954Z</time></trkpt><trkpt lat="43.497445" lon="11.66472"><ele>248.25</ele><time>2026-05-02T09:13:46.957Z</time></trkpt><trkpt lat="43.4975233" lon="11.6648417"><ele>249.0</ele><time>2026-05-02T09:13:48.955Z</time></trkpt><trkpt lat="43.4976" lon="11.6649633"><ele>249.0</ele><time>2026-05-02T09:13:50.954Z</time></trkpt><trkpt lat="43.4976717" lon="11.66509"><ele>249.0</ele><time>2026-05-02T09:13:52.955Z</time></trkpt><trkpt lat="43.49774" lon="11.665215"><ele>249.0</ele><time>2026-05-02T09:13:54.952Z</time></trkpt><trkpt lat="43.49781" lon="11.6653267"><ele>249.0</ele><time>2026-05-02T09:13:56.955Z</time></trkpt><trkpt lat="43.49789" lon="11.6654417"><ele>249.2</ele><time>2026-05-02T09:13:58.953Z</time></trkpt><trkpt lat="43.4979717" lon="11.665545"><ele>249.39999999999998</ele><time>2026-05-02T09:14:00.957Z</time></trkpt><trkpt lat="43.498045" lon="11.66564"><ele>249.6</ele><time>2026-05-02T09:14:02.954Z</time></trkpt><trkpt lat="43.4981283" lon="11.665745"><ele>249.8</ele><time>2026-05-02T09:14:04.954Z</time></trkpt><trkpt lat="43.4982117" lon="11.66586"><ele>250.0</ele><time>2026-05-02T09:14:06.951Z</time></trkpt><trkpt lat="43.498295" lon="11.6659817"><ele>249.99999999999997</ele><time>2026-05-02T09:14:08.952Z</time></trkpt><trkpt lat="43.49838" lon="11.6660967"><ele>250.0</ele><time>2026-05-02T09:14:10.952Z</time></trkpt><trkpt lat="43.4984267" lon="11.6661583"><ele>250.0</ele><time>2026-05-02T09:14:11.953Z</time></trkpt><trkpt lat="43.49847" lon="11.6662233"><ele>250.0</ele><time>2026-05-02T09:14:12.952Z</time></trkpt><trkpt lat="43.4985133" lon="11.6663"><ele>249.99999999999997</ele><time>2026-05-02T09:14:13.952Z</time></trkpt><trkpt lat="43.4985983" lon="11.6664133"><ele>250.0</ele><time>2026-05-02T09:14:15.953Z</time></trkpt><trkpt lat="43.4986883" lon="11.6665433"><ele>249.83333333333331</ele><time>2026-05-02T09:14:17.954Z</time></trkpt><trkpt lat="43.4987383" lon="11.6666117"><ele>249.66666666666666</ele><time>2026-05-02T09:14:18.955Z</time></trkpt><trkpt lat="43.4987867" lon="11.6666767"><ele>249.5</ele><time>2026-05-02T09:14:19.954Z</time></trkpt><trkpt lat="43.4988317" lon="11.6667383"><ele>249.33333333333331</ele><time>2026-05-02T09:14:20.954Z</time></trkpt><trkpt lat="43.4988767" lon="11.6668"><ele>249.16666666666666</ele><time>2026-05-02T09:14:21.957Z</time></trkpt><trkpt lat="43.4989567" lon="11.6669"><ele>249.0</ele><time>2026-05-02T09:14:23.954Z</time></trkpt><trkpt lat="43.49904" lon="11.667015"><ele>248.6</ele><time>2026-05-02T09:14:25.955Z</time></trkpt><trkpt lat="43.4991233" lon="11.6671283"><ele>248.2</ele><time>2026-05-02T09:14:27.954Z</time></trkpt><trkpt lat="43.499205" lon="11.6672433"><ele>247.79999999999998</ele><time>2026-05-02T09:14:29.954Z</time></trkpt><trkpt lat="43.49929" lon="11.667365"><ele>247.39999999999998</ele><time>2026-05-02T09:14:31.955Z</time></trkpt><trkpt lat="43.4993367" lon="11.667425"><ele>247.0</ele><time>2026-05-02T09:14:32.955Z</time></trkpt><trkpt lat="43.4993833" lon="11.667485"><ele>247.0</ele><time>2026-05-02T09:14:33.954Z</time></trkpt><trkpt lat="43.4994317" lon="11.6675433"><ele>247.0</ele><time>2026-05-02T09:14:34.955Z</time></trkpt><trkpt lat="43.4994817" lon="11.6676"><ele>247.0</ele><time>2026-05-02T09:14:35.955Z</time></trkpt><trkpt lat="43.4995333" lon="11.6676517"><ele>247.0</ele><time>2026-05-02T09:14:36.955Z</time></trkpt><trkpt lat="43.4995883" lon="11.6676983"><ele>247.0</ele><time>2026-05-02T09:14:37.953Z</time></trkpt><trkpt lat="43.499645" lon="11.667745"><ele>247.0</ele><time>2026-05-02T09:14:38.955Z</time></trkpt><trkpt lat="43.4997017" lon="11.66779"><ele>247.0</ele><time>2026-05-02T09:14:39.955Z</time></trkpt><trkpt lat="43.49976" lon="11.6678383"><ele>247.2</ele><time>2026-05-02T09:14:40.955Z</time></trkpt><trkpt lat="43.4998167" lon="11.667885"><ele>247.39999999999998</ele><time>2026-05-02T09:14:41.953Z</time></trkpt><trkpt lat="43.49992" lon="11.6679833"><ele>247.60000000000002</ele><time>2026-05-02T09:14:43.955Z</time></trkpt><trkpt lat="43.500005" lon="11.6681067"><ele>247.8</ele><time>2026-05-02T09:14:45.953Z</time></trkpt><trkpt lat="43.50005" lon="11.66818"><ele>248.0</ele><time>2026-05-02T09:14:46.955Z</time></trkpt><trkpt lat="43.50009" lon="11.6682583"><ele>248.00000000000003</ele><time>2026-05-02T09:14:47.957Z</time></trkpt><trkpt lat="43.500125" lon="11.6683517"><ele>248.0</ele><time>2026-05-02T09:14:48.954Z</time></trkpt><trkpt lat="43.5001533" lon="11.6684483"><ele>248.0</ele><time>2026-05-02T09:14:49.953Z</time></trkpt><trkpt lat="43.5001767" lon="11.66855"><ele>248.0</ele><time>2026-05-02T09:14:50.955Z</time></trkpt><trkpt lat="43.5001933" lon="11.6686567"><ele>248.00000000000003</ele><time>2026-05-02T09:14:51.954Z</time></trkpt><trkpt lat="43.500205" lon="11.6687733"><ele>248.0</ele><time>2026-05-02T09:14:52.954Z</time></trkpt><trkpt lat="43.5002083" lon="11.6688867"><ele>247.50000000000003</ele><time>2026-05-02T09:14:53.953Z</time></trkpt><trkpt lat="43.500205" lon="11.6689983"><ele>247.0</ele><time>2026-05-02T09:14:54.955Z</time></trkpt><trkpt lat="43.5001967" lon="11.6691083"><ele>246.5</ele><time>2026-05-02T09:14:55.954Z</time></trkpt><trkpt lat="43.5001767" lon="11.6692083"><ele>246.0</ele><time>2026-05-02T09:14:56.954Z</time></trkpt><trkpt lat="43.500155" lon="11.6693117"><ele>245.50000000000003</ele><time>2026-05-02T09:14:57.957Z</time></trkpt><trkpt lat="43.5001283" lon="11.66941"><ele>245.0</ele><time>2026-05-02T09:14:58.955Z</time></trkpt><trkpt lat="43.5001017" lon="11.6695117"><ele>244.16666666666669</ele><time>2026-05-02T09:14:59.954Z</time></trkpt><trkpt lat="43.5000733" lon="11.6696117"><ele>243.33333333333334</ele><time>2026-05-02T09:15:00.954Z</time></trkpt><trkpt lat="43.500045" lon="11.6697117"><ele>242.5</ele><time>2026-05-02T09:15:01.954Z</time></trkpt><trkpt lat="43.5000167" lon="11.6698133"><ele>241.66666666666669</ele><time>2026-05-02T09:15:02.954Z</time></trkpt><trkpt lat="43.499985" lon="11.669915"><ele>240.83333333333334</ele><time>2026-05-02T09:15:03.954Z</time></trkpt><trkpt lat="43.4999533" lon="11.6700217"><ele>240.0</ele><time>2026-05-02T09:15:04.954Z</time></trkpt><trkpt lat="43.4999233" lon="11.6701317"><ele>240.0</ele><time>2026-05-02T09:15:05.954Z</time></trkpt><trkpt lat="43.4998867" lon="11.6702433"><ele>240.0</ele><time>2026-05-02T09:15:06.955Z</time></trkpt><trkpt lat="43.4998433" lon="11.6703517"><ele>240.0</ele><time>2026-05-02T09:15:07.954Z</time></trkpt><trkpt lat="43.4997933" lon="11.670455"><ele>240.0</ele><time>2026-05-02T09:15:08.955Z</time></trkpt><trkpt lat="43.49974" lon="11.6705517"><ele>240.0</ele><time>2026-05-02T09:15:09.957Z</time></trkpt><trkpt lat="43.4996883" lon="11.6706433"><ele>240.0</ele><time>2026-05-02T09:15:10.956Z</time></trkpt><trkpt lat="43.4996383" lon="11.6707367"><ele>238.71428571428572</ele><time>2026-05-02T09:15:11.954Z</time></trkpt><trkpt lat="43.4995967" lon="11.6708317"><ele>237.42857142857142</ele><time>2026-05-02T09:15:12.955Z</time></trkpt><trkpt lat="43.4995617" lon="11.6709233"><ele>236.14285714285714</ele><time>2026-05-02T09:15:13.954Z</time></trkpt><trkpt lat="43.4995367" lon="11.6710133"><ele>234.85714285714286</ele><time>2026-05-02T09:15:14.957Z</time></trkpt><trkpt lat="43.499525" lon="11.67111"><ele>233.57142857142856</ele><time>2026-05-02T09:15:15.955Z</time></trkpt><trkpt lat="43.49953" lon="11.6712033"><ele>232.28571428571428</ele><time>2026-05-02T09:15:16.954Z</time></trkpt><trkpt lat="43.4995517" lon="11.6712933"><ele>231.0</ele><time>2026-05-02T09:15:17.954Z</time></trkpt><trkpt lat="43.49959" lon="11.6713767"><ele>230.33333333333334</ele><time>2026-05-02T09:15:18.954Z</time></trkpt><trkpt lat="43.499645" lon="11.67144"><ele>229.66666666666669</ele><time>2026-05-02T09:15:19.953Z</time></trkpt><trkpt lat="43.49971" lon="11.6714883"><ele>229.0</ele><time>2026-05-02T09:15:20.954Z</time></trkpt><trkpt lat="43.4997833" lon="11.6715167"><ele>228.33333333333334</ele><time>2026-05-02T09:15:21.953Z</time></trkpt><trkpt lat="43.49986" lon="11.67153"><ele>227.66666666666669</ele><time>2026-05-02T09:15:22.953Z</time></trkpt><trkpt lat="43.4999317" lon="11.6715183"><ele>227.0</ele><time>2026-05-02T09:15:23.955Z</time></trkpt><trkpt lat="43.5000417" lon="11.671455"><ele>227.0</ele><time>2026-05-02T09:15:25.954Z</time></trkpt><trkpt lat="43.5001317" lon="11.6713417"><ele>227.0</ele><time>2026-05-02T09:15:27.954Z</time></trkpt><trkpt lat="43.5001933" lon="11.6712367"><ele>227.0</ele><time>2026-05-02T09:15:29.957Z</time></trkpt><trkpt lat="43.5002383" lon="11.6711633"><ele>227.0</ele><time>2026-05-02T09:15:31.955Z</time></trkpt><trkpt lat="43.50027" lon="11.6710667"><ele>227.0</ele><time>2026-05-02T09:36:38.953Z</time></trkpt><trkpt lat="43.5003283" lon="11.67095"><ele>225.66666666666669</ele><time>2026-05-02T09:36:40.953Z</time></trkpt><trkpt lat="43.5004167" lon="11.670825"><ele>224.33333333333334</ele><time>2026-05-02T09:36:42.955Z</time></trkpt><trkpt lat="43.5004683" lon="11.670755"><ele>223.0</ele><time>2026-05-02T09:36:43.955Z</time></trkpt><trkpt lat="43.500525" lon="11.6706833"><ele>221.66666666666669</ele><time>2026-05-02T09:36:44.955Z</time></trkpt><trkpt lat="43.500585" lon="11.67061"><ele>220.33333333333334</ele><time>2026-05-02T09:36:45.955Z</time></trkpt><trkpt lat="43.500645" lon="11.6705333"><ele>219.0</ele><time>2026-05-02T09:36:46.954Z</time></trkpt><trkpt lat="43.5007083" lon="11.670455"><ele>219.0</ele><time>2026-05-02T09:36:47.954Z</time></trkpt><trkpt lat="43.500775" lon="11.6703767"><ele>219.0</ele><time>2026-05-02T09:36:48.953Z</time></trkpt><trkpt lat="43.5008483" lon="11.67031"><ele>219.0</ele><time>2026-05-02T09:36:49.954Z</time></trkpt><trkpt lat="43.5009283" lon="11.670265"><ele>219.0</ele><time>2026-05-02T09:36:50.954Z</time></trkpt><trkpt lat="43.5010083" lon="11.6702533"><ele>219.0</ele><time>2026-05-02T09:36:51.954Z</time></trkpt><trkpt lat="43.501095" lon="11.67027"><ele>219.0</ele><time>2026-05-02T09:36:52.954Z</time></trkpt><trkpt lat="43.5011783" lon="11.6703117"><ele>219.0</ele><time>2026-05-02T09:36:53.953Z</time></trkpt><trkpt lat="43.5012433" lon="11.67038"><ele>219.0</ele><time>2026-05-02T09:36:54.956Z</time></trkpt><trkpt lat="43.5012817" lon="11.6704733"><ele>219.0</ele><time>2026-05-02T09:36:55.954Z</time></trkpt><trkpt lat="43.50129" lon="11.67058"><ele>219.0</ele><time>2026-05-02T09:36:56.953Z</time></trkpt><trkpt lat="43.5012667" lon="11.6706933"><ele>219.0</ele><time>2026-05-02T09:36:57.953Z</time></trkpt><trkpt lat="43.5012167" lon="11.6707967"><ele>219.0</ele><time>2026-05-02T09:36:58.953Z</time></trkpt><trkpt lat="43.501145" lon="11.6708867"><ele>219.0</ele><time>2026-05-02T09:36:59.955Z</time></trkpt><trkpt lat="43.5010667" lon="11.6709683"><ele>218.99999999999997</ele><time>2026-05-02T09:37:00.955Z</time></trkpt><trkpt lat="43.5009917" lon="11.6710617"><ele>218.99999999999997</ele><time>2026-05-02T09:37:01.953Z</time></trkpt><trkpt lat="43.5009283" lon="11.6711733"><ele>219.0</ele><time>2026-05-02T09:37:02.954Z</time></trkpt><trkpt lat="43.5008867" lon="11.6713"><ele>219.0</ele><time>2026-05-02T09:37:03.953Z</time></trkpt><trkpt lat="43.5008633" lon="11.6714333"><ele>218.6</ele><time>2026-05-02T09:37:04.954Z</time></trkpt><trkpt lat="43.50086" lon="11.6715717"><ele>218.2</ele><time>2026-05-02T09:37:05.954Z</time></trkpt><trkpt lat="43.5008683" lon="11.6717083"><ele>217.79999999999998</ele><time>2026-05-02T09:37:06.954Z</time></trkpt><trkpt lat="43.5008817" lon="11.6718467"><ele>217.39999999999998</ele><time>2026-05-02T09:37:07.952Z</time></trkpt><trkpt lat="43.500895" lon="11.6719917"><ele>217.0</ele><time>2026-05-02T09:37:08.954Z</time></trkpt><trkpt lat="43.5009033" lon="11.6721383"><ele>216.6</ele><time>2026-05-02T09:37:09.953Z</time></trkpt><trkpt lat="43.5009083" lon="11.6722733"><ele>216.2</ele><time>2026-05-02T09:37:10.954Z</time></trkpt><trkpt lat="43.5008983" lon="11.6724217"><ele>215.8</ele><time>2026-05-02T09:37:11.954Z</time></trkpt><trkpt lat="43.5008783" lon="11.672575"><ele>215.4</ele><time>2026-05-02T09:37:12.953Z</time></trkpt><trkpt lat="43.5008533" lon="11.6727233"><ele>215.0</ele><time>2026-05-02T09:37:13.954Z</time></trkpt><trkpt lat="43.500825" lon="11.6728733"><ele>212.8</ele><time>2026-05-02T09:37:14.953Z</time></trkpt><trkpt lat="43.5007983" lon="11.67302"><ele>210.6</ele><time>2026-05-02T09:37:15.955Z</time></trkpt><trkpt lat="43.5007717" lon="11.6731683"><ele>208.39999999999998</ele><time>2026-05-02T09:37:16.954Z</time></trkpt><trkpt lat="43.5007417" lon="11.6733183"><ele>206.2</ele><time>2026-05-02T09:37:17.953Z</time></trkpt><trkpt lat="43.50071" lon="11.6734667"><ele>204.0</ele><time>2026-05-02T09:37:18.954Z</time></trkpt><trkpt lat="43.5006683" lon="11.6736117"><ele>201.75</ele><time>2026-05-02T09:37:19.953Z</time></trkpt><trkpt lat="43.5006183" lon="11.67375"><ele>199.5</ele><time>2026-05-02T09:37:20.955Z</time></trkpt><trkpt lat="43.50056" lon="11.6738883"><ele>197.25</ele><time>2026-05-02T09:37:21.954Z</time></trkpt><trkpt lat="43.5004967" lon="11.6740283"><ele>195.0</ele><time>2026-05-02T09:37:22.954Z</time></trkpt><trkpt lat="43.5004383" lon="11.6741683"><ele>195.0</ele><time>2026-05-02T09:37:23.954Z</time></trkpt><trkpt lat="43.5003967" lon="11.6743"><ele>195.0</ele><time>2026-05-02T09:37:24.955Z</time></trkpt><trkpt lat="43.50037" lon="11.6744317"><ele>195.0</ele><time>2026-05-02T09:37:25.953Z</time></trkpt><trkpt lat="43.5003633" lon="11.67456"><ele>195.0</ele><time>2026-05-02T09:37:26.955Z</time></trkpt><trkpt lat="43.50038" lon="11.67469"><ele>195.0</ele><time>2026-05-02T09:37:27.956Z</time></trkpt><trkpt lat="43.5004233" lon="11.6748017"><ele>193.5</ele><time>2026-05-02T09:37:28.956Z</time></trkpt><trkpt lat="43.50048" lon="11.6748933"><ele>192.0</ele><time>2026-05-02T09:37:29.955Z</time></trkpt><trkpt lat="43.5005467" lon="11.6749583"><ele>190.5</ele><time>2026-05-02T09:37:30.954Z</time></trkpt><trkpt lat="43.5006267" lon="11.675"><ele>189.0</ele><time>2026-05-02T09:37:31.956Z</time></trkpt><trkpt lat="43.5007083" lon="11.675015"><ele>187.5</ele><time>2026-05-02T09:37:32.955Z</time></trkpt><trkpt lat="43.500795" lon="11.6750033"><ele>186.0</ele><time>2026-05-02T09:37:33.955Z</time></trkpt><trkpt lat="43.5008783" lon="11.6749633"><ele>186.0</ele><time>2026-05-02T09:37:34.953Z</time></trkpt><trkpt lat="43.50095" lon="11.6748883"><ele>186.0</ele><time>2026-05-02T09:37:35.953Z</time></trkpt><trkpt lat="43.5010033" lon="11.674785"><ele>186.0</ele><time>2026-05-02T09:37:36.956Z</time></trkpt><trkpt lat="43.5010317" lon="11.6746583"><ele>186.0</ele><time>2026-05-02T09:37:37.953Z</time></trkpt><trkpt lat="43.50104" lon="11.6745167"><ele>186.0</ele><time>2026-05-02T09:37:38.954Z</time></trkpt><trkpt lat="43.5010317" lon="11.6743633"><ele>187.8</ele><time>2026-05-02T09:37:39.956Z</time></trkpt><trkpt lat="43.5010167" lon="11.6742133"><ele>189.60000000000002</ele><time>2026-05-02T09:37:40.957Z</time></trkpt><trkpt lat="43.501005" lon="11.674075"><ele>191.4</ele><time>2026-05-02T09:37:41.955Z</time></trkpt><trkpt lat="43.5010017" lon="11.6739467"><ele>193.2</ele><time>2026-05-02T09:37:42.954Z</time></trkpt><trkpt lat="43.5010133" lon="11.6738333"><ele>195.0</ele><time>2026-05-02T09:37:43.953Z</time></trkpt><trkpt lat="43.5010433" lon="11.6737333"><ele>195.0</ele><time>2026-05-02T09:37:44.956Z</time></trkpt><trkpt lat="43.5011033" lon="11.6736567"><ele>195.0</ele><time>2026-05-02T09:37:45.954Z</time></trkpt><trkpt lat="43.5011833" lon="11.6736083"><ele>195.0</ele><time>2026-05-02T09:37:46.954Z</time></trkpt><trkpt lat="43.5012767" lon="11.6736033"><ele>195.0</ele><time>2026-05-02T09:37:47.955Z</time></trkpt><trkpt lat="43.5013733" lon="11.6736283"><ele>195.0</ele><time>2026-05-02T09:37:48.956Z</time></trkpt><trkpt lat="43.5014517" lon="11.6737217"><ele>190.8</ele><time>2026-05-02T09:37:49.953Z</time></trkpt><trkpt lat="43.5015233" lon="11.6738267"><ele>186.6</ele><time>2026-05-02T09:37:50.953Z</time></trkpt><trkpt lat="43.5015833" lon="11.6739417"><ele>182.39999999999998</ele><time>2026-05-02T09:37:51.953Z</time></trkpt><trkpt lat="43.5016367" lon="11.6740683"><ele>178.2</ele><time>2026-05-02T09:37:52.954Z</time></trkpt><trkpt lat="43.501685" lon="11.6741967"><ele>174.0</ele><time>2026-05-02T09:37:53.956Z</time></trkpt><trkpt lat="43.501735" lon="11.6743283"><ele>173.6</ele><time>2026-05-02T09:37:54.954Z</time></trkpt><trkpt lat="43.5017833" lon="11.674465"><ele>173.2</ele><time>2026-05-02T09:37:55.954Z</time></trkpt><trkpt lat="43.5018317" lon="11.6745967"><ele>172.79999999999998</ele><time>2026-05-02T09:37:56.954Z</time></trkpt><trkpt lat="43.5018817" lon="11.67473"><ele>172.39999999999998</ele><time>2026-05-02T09:37:57.956Z</time></trkpt><trkpt lat="43.5019333" lon="11.6748567"><ele>172.0</ele><time>2026-05-02T09:37:58.953Z</time></trkpt><trkpt lat="43.5019867" lon="11.6749767"><ele>172.0</ele><time>2026-05-02T09:37:59.954Z</time></trkpt><trkpt lat="43.5020483" lon="11.67509"><ele>172.0</ele><time>2026-05-02T09:38:00.954Z</time></trkpt><trkpt lat="43.502115" lon="11.6751933"><ele>172.0</ele><time>2026-05-02T09:38:01.953Z</time></trkpt><trkpt lat="43.5021867" lon="11.67529"><ele>172.0</ele><time>2026-05-02T09:38:02.955Z</time></trkpt><trkpt lat="43.5022583" lon="11.6753833"><ele>172.0</ele><time>2026-05-02T09:38:03.953Z</time></trkpt><trkpt lat="43.5023317" lon="11.675475"><ele>172.0</ele><time>2026-05-02T09:38:04.954Z</time></trkpt><trkpt lat="43.502405" lon="11.6755633"><ele>172.0</ele><time>2026-05-02T09:38:05.954Z</time></trkpt><trkpt lat="43.5024717" lon="11.675655"><ele>172.0</ele><time>2026-05-02T09:38:06.954Z</time></trkpt><trkpt lat="43.5025367" lon="11.6757433"><ele>172.0</ele><time>2026-05-02T09:38:07.953Z</time></trkpt><trkpt lat="43.502595" lon="11.67583"><ele>172.0</ele><time>2026-05-02T09:38:08.953Z</time></trkpt><trkpt lat="43.5026383" lon="11.67592"><ele>172.0</ele><time>2026-05-02T09:38:09.955Z</time></trkpt><trkpt lat="43.5026617" lon="11.6760133"><ele>173.2</ele><time>2026-05-02T09:38:10.955Z</time></trkpt><trkpt lat="43.5026567" lon="11.67618"><ele>174.39999999999998</ele><time>2026-05-02T09:38:12.953Z</time></trkpt><trkpt lat="43.5026217" lon="11.676305"><ele>175.60000000000002</ele><time>2026-05-02T09:38:14.958Z</time></trkpt><trkpt lat="43.5025833" lon="11.67643"><ele>176.8</ele><time>2026-05-02T09:38:16.953Z</time></trkpt><trkpt lat="43.5025483" lon="11.6765567"><ele>178.0</ele><time>2026-05-02T09:38:18.954Z</time></trkpt><trkpt lat="43.5025083" lon="11.676665"><ele>178.0</ele><time>2026-05-02T09:38:20.951Z</time></trkpt><trkpt lat="43.502465" lon="11.6767767"><ele>178.0</ele><time>2026-05-02T09:38:22.952Z</time></trkpt><trkpt lat="43.5024217" lon="11.67689"><ele>178.0</ele><time>2026-05-02T09:38:24.953Z</time></trkpt><trkpt lat="43.502395" lon="11.6770017"><ele>178.0</ele><time>2026-05-02T09:38:26.953Z</time></trkpt><trkpt lat="43.5024233" lon="11.6771233"><ele>178.0</ele><time>2026-05-02T09:38:28.952Z</time></trkpt><trkpt lat="43.502505" lon="11.6771733"><ele>178.0</ele><time>2026-05-02T09:38:30.952Z</time></trkpt><trkpt lat="43.5025667" lon="11.67712"><ele>178.0</ele><time>2026-05-02T09:38:32.955Z</time></trkpt><trkpt lat="43.50261" lon="11.6770267"><ele>178.0</ele><time>2026-05-02T09:38:34.955Z</time></trkpt><trkpt lat="43.5026267" lon="11.6769183"><ele>178.0</ele><time>2026-05-02T09:38:36.955Z</time></trkpt><trkpt lat="43.5026467" lon="11.6768117"><ele>178.0</ele><time>2026-05-02T09:38:38.952Z</time></trkpt><trkpt lat="43.502675" lon="11.676715"><ele>178.0</ele><time>2026-05-02T09:38:40.952Z</time></trkpt><trkpt lat="43.5027017" lon="11.6766217"><ele>177.99999999999997</ele><time>2026-05-02T09:38:42.953Z</time></trkpt><trkpt lat="43.50273" lon="11.6765383"><ele>178.0</ele><time>2026-05-02T09:38:44.953Z</time></trkpt><trkpt lat="43.5027817" lon="11.676435"><ele>178.0</ele><time>2026-05-02T09:38:47.952Z</time></trkpt><trkpt lat="43.502825" lon="11.6763567"><ele>178.0</ele><time>2026-05-02T09:38:50.955Z</time></trkpt><trkpt lat="43.5028683" lon="11.6762933"><ele>178.0</ele><time>2026-05-02T09:38:53.954Z</time></trkpt><trkpt lat="43.5029267" lon="11.67623"><ele>177.99999999999997</ele><time>2026-05-02T09:38:57.953Z</time></trkpt><trkpt lat="43.502975" lon="11.6761733"><ele>178.0</ele><time>2026-05-02T09:39:00.953Z</time></trkpt><trkpt lat="43.503035" lon="11.6761"><ele>179.83333333333334</ele><time>2026-05-02T09:39:04.954Z</time></trkpt><trkpt lat="43.5030967" lon="11.6760383"><ele>181.66666666666669</ele><time>2026-05-02T09:39:08.952Z</time></trkpt><trkpt lat="43.5031717" lon="11.67599"><ele>183.5</ele><time>2026-05-02T09:39:12.954Z</time></trkpt><trkpt lat="43.5032417" lon="11.6759317"><ele>185.33333333333334</ele><time>2026-05-02T09:39:16.953Z</time></trkpt><trkpt lat="43.5033017" lon="11.6758883"><ele>187.16666666666666</ele><time>2026-05-02T09:39:19.954Z</time></trkpt><trkpt lat="43.5033733" lon="11.6758383"><ele>189.0</ele><time>2026-05-02T09:39:22.953Z</time></trkpt><trkpt lat="43.5034417" lon="11.6758033"><ele>189.0</ele><time>2026-05-02T09:39:25.952Z</time></trkpt><trkpt lat="43.5035183" lon="11.675755"><ele>189.0</ele><time>2026-05-02T09:39:28.951Z</time></trkpt><trkpt lat="43.5035983" lon="11.675695"><ele>189.0</ele><time>2026-05-02T09:39:31.953Z</time></trkpt><trkpt lat="43.5036517" lon="11.6756483"><ele>189.0</ele><time>2026-05-02T09:39:33.952Z</time></trkpt><trkpt lat="43.5037217" lon="11.6755667"><ele>189.0</ele><time>2026-05-02T09:39:36.954Z</time></trkpt><trkpt lat="43.5037817" lon="11.675475"><ele>189.0</ele><time>2026-05-02T09:39:39.954Z</time></trkpt><trkpt lat="43.50382" lon="11.6753817"><ele>191.33333333333334</ele><time>2026-05-02T09:39:41.953Z</time></trkpt><trkpt lat="43.503855" lon="11.6752833"><ele>193.66666666666669</ele><time>2026-05-02T09:39:43.955Z</time></trkpt><trkpt lat="43.5039" lon="11.675185"><ele>196.0</ele><time>2026-05-02T09:39:45.953Z</time></trkpt><trkpt lat="43.503965" lon="11.675085"><ele>198.33333333333334</ele><time>2026-05-02T09:39:47.953Z</time></trkpt><trkpt lat="43.5040383" lon="11.6750067"><ele>200.66666666666669</ele><time>2026-05-02T09:39:49.954Z</time></trkpt><trkpt lat="43.5041167" lon="11.6749317"><ele>203.0</ele><time>2026-05-02T09:39:51.952Z</time></trkpt><trkpt lat="43.5041933" lon="11.6748883"><ele>203.0</ele><time>2026-05-02T09:39:53.955Z</time></trkpt><trkpt lat="43.50428" lon="11.674855"><ele>203.0</ele><time>2026-05-02T09:39:55.955Z</time></trkpt><trkpt lat="43.5043583" lon="11.6748383"><ele>203.0</ele><time>2026-05-02T09:39:57.954Z</time></trkpt><trkpt lat="43.5044783" lon="11.6748267"><ele>203.0</ele><time>2026-05-02T09:40:00.955Z</time></trkpt><trkpt lat="43.50459" lon="11.6748183"><ele>203.0</ele><time>2026-05-02T09:40:03.953Z</time></trkpt><trkpt lat="43.5046517" lon="11.67479"><ele>204.42857142857142</ele><time>2026-05-02T09:40:05.953Z</time></trkpt><trkpt lat="43.5046917" lon="11.6747033"><ele>205.85714285714286</ele><time>2026-05-02T09:40:08.954Z</time></trkpt><trkpt lat="43.5046917" lon="11.6745967"><ele>207.28571428571428</ele><time>2026-05-02T09:40:11.953Z</time></trkpt><trkpt lat="43.5046933" lon="11.6744917"><ele>208.71428571428572</ele><time>2026-05-02T09:40:16.953Z</time></trkpt><trkpt lat="43.5047" lon="11.6744"><ele>210.14285714285714</ele><time>2026-05-02T09:40:20.954Z</time></trkpt><trkpt lat="43.5046884" lon="11.6743097"><ele>211.57142857142856</ele><time>2026-05-02T09:40:24.959Z</time></trkpt><trkpt lat="43.5047312" lon="11.6742243"><ele>213.0</ele><time>2026-05-02T09:40:28.82Z</time></trkpt><trkpt lat="43.5047637" lon="11.6741427"><ele>213.0</ele><time>2026-05-02T09:40:32.045Z</time></trkpt><trkpt lat="43.5047879" lon="11.674053"><ele>213.0</ele><time>2026-05-02T09:40:35.983Z</time></trkpt><trkpt lat="43.5047877" lon="11.673953"><ele>213.0</ele><time>2026-05-02T09:40:42.004Z</time></trkpt><trkpt lat="43.5048236" lon="11.6737862"><ele>213.0</ele><time>2026-05-02T09:40:43.973Z</time></trkpt><trkpt lat="43.5048356" lon="11.673676"><ele>213.0</ele><time>2026-05-02T09:40:45.015Z</time></trkpt><trkpt lat="43.5048933" lon="11.6734983"><ele>213.33333333333334</ele><time>2026-05-02T09:40:45.953Z</time></trkpt><trkpt lat="43.5049167" lon="11.67339"><ele>213.66666666666669</ele><time>2026-05-02T09:40:48.954Z</time></trkpt><trkpt lat="43.5049367" lon="11.673305"><ele>214.0</ele><time>2026-05-02T09:40:50.953Z</time></trkpt><trkpt lat="43.504965" lon="11.6732"><ele>214.33333333333334</ele><time>2026-05-02T09:40:53.955Z</time></trkpt><trkpt lat="43.5049917" lon="11.6730783"><ele>214.66666666666669</ele><time>2026-05-02T09:40:56.954Z</time></trkpt><trkpt lat="43.505025" lon="11.6729633"><ele>215.0</ele><time>2026-05-02T09:40:59.956Z</time></trkpt><trkpt lat="43.505055" lon="11.6728283"><ele>215.57142857142856</ele><time>2026-05-02T09:41:02.955Z</time></trkpt><trkpt lat="43.505065" lon="11.67272"><ele>216.14285714285717</ele><time>2026-05-02T09:41:04.954Z</time></trkpt><trkpt lat="43.505075" lon="11.67262"><ele>216.71428571428572</ele><time>2026-05-02T09:41:06.955Z</time></trkpt><trkpt lat="43.505075" lon="11.67252"><ele>217.28571428571428</ele><time>2026-05-02T09:41:08.954Z</time></trkpt><trkpt lat="43.5050817" lon="11.67243"><ele>217.85714285714283</ele><time>2026-05-02T09:41:10.952Z</time></trkpt><trkpt lat="43.5050967" lon="11.6723417"><ele>218.42857142857144</ele><time>2026-05-02T09:41:12.952Z</time></trkpt><trkpt lat="43.5051183" lon="11.6722517"><ele>219.0</ele><time>2026-05-02T09:41:14.952Z</time></trkpt><trkpt lat="43.5051617" lon="11.67216"><ele>219.0</ele><time>2026-05-02T09:41:16.952Z</time></trkpt><trkpt lat="43.50525" lon="11.6720833"><ele>219.0</ele><time>2026-05-02T09:41:18.953Z</time></trkpt><trkpt lat="43.5053583" lon="11.6720367"><ele>219.0</ele><time>2026-05-02T09:41:20.952Z</time></trkpt><trkpt lat="43.5054833" lon="11.6721617"><ele>219.0</ele><time>2026-05-02T09:41:23.954Z</time></trkpt><trkpt lat="43.5055317" lon="11.6723183"><ele>219.0</ele><time>2026-05-02T09:41:25.952Z</time></trkpt><trkpt lat="43.5055567" lon="11.67241"><ele>219.0</ele><time>2026-05-02T09:41:26.953Z</time></trkpt><trkpt lat="43.5055883" lon="11.6725117"><ele>219.0</ele><time>2026-05-02T09:41:27.953Z</time></trkpt><trkpt lat="43.5056383" lon="11.67261"><ele>219.0</ele><time>2026-05-02T09:41:28.954Z</time></trkpt><trkpt lat="43.5056967" lon="11.6727117"><ele>219.0</ele><time>2026-05-02T09:41:29.954Z</time></trkpt><trkpt lat="43.505775" lon="11.6728117"><ele>219.0</ele><time>2026-05-02T09:41:30.953Z</time></trkpt><trkpt lat="43.5058533" lon="11.672915"><ele>219.0</ele><time>2026-05-02T09:41:31.952Z</time></trkpt><trkpt lat="43.5059233" lon="11.6730033"><ele>218.99999999999997</ele><time>2026-05-02T09:41:32.954Z</time></trkpt><trkpt lat="43.506" lon="11.6730833"><ele>218.99999999999997</ele><time>2026-05-02T09:41:33.954Z</time></trkpt><trkpt lat="43.5060767" lon="11.6731533"><ele>219.0</ele><time>2026-05-02T09:41:34.954Z</time></trkpt><trkpt lat="43.5061517" lon="11.6732083"><ele>219.0</ele><time>2026-05-02T09:41:35.956Z</time></trkpt><trkpt lat="43.5062283" lon="11.6732533"><ele>217.16666666666666</ele><time>2026-05-02T09:41:36.955Z</time></trkpt><trkpt lat="43.5063" lon="11.673305"><ele>215.33333333333331</ele><time>2026-05-02T09:41:37.953Z</time></trkpt><trkpt lat="43.50637" lon="11.6733567"><ele>213.5</ele><time>2026-05-02T09:41:38.954Z</time></trkpt><trkpt lat="43.50644" lon="11.6734133"><ele>211.66666666666666</ele><time>2026-05-02T09:41:39.955Z</time></trkpt><trkpt lat="43.5065083" lon="11.6734617"><ele>209.83333333333331</ele><time>2026-05-02T09:41:40.953Z</time></trkpt><trkpt lat="43.50657" lon="11.6735"><ele>208.0</ele><time>2026-05-02T09:41:41.953Z</time></trkpt><trkpt lat="43.5066367" lon="11.6735233"><ele>207.99999999999997</ele><time>2026-05-02T09:41:42.956Z</time></trkpt><trkpt lat="43.5067033" lon="11.6735183"><ele>208.0</ele><time>2026-05-02T09:41:43.953Z</time></trkpt><trkpt lat="43.5067633" lon="11.6734733"><ele>208.0</ele><time>2026-05-02T09:41:44.956Z</time></trkpt><trkpt lat="43.5068167" lon="11.6734067"><ele>208.0</ele><time>2026-05-02T09:41:45.952Z</time></trkpt><trkpt lat="43.5068717" lon="11.673325"><ele>207.99999999999997</ele><time>2026-05-02T09:41:46.953Z</time></trkpt><trkpt lat="43.5069317" lon="11.6732333"><ele>208.0</ele><time>2026-05-02T09:41:47.956Z</time></trkpt><trkpt lat="43.506995" lon="11.6731417"><ele>207.99999999999997</ele><time>2026-05-02T09:41:48.955Z</time></trkpt><trkpt lat="43.5070683" lon="11.673055"><ele>208.0</ele><time>2026-05-02T09:41:49.954Z</time></trkpt><trkpt lat="43.5071417" lon="11.67298"><ele>208.0</ele><time>2026-05-02T09:41:50.954Z</time></trkpt><trkpt lat="43.5072217" lon="11.6729217"><ele>208.0</ele><time>2026-05-02T09:41:51.954Z</time></trkpt><trkpt lat="43.5073017" lon="11.6728833"><ele>207.99999999999997</ele><time>2026-05-02T09:41:52.956Z</time></trkpt><trkpt lat="43.5073867" lon="11.67287"><ele>208.0</ele><time>2026-05-02T09:41:53.954Z</time></trkpt><trkpt lat="43.5074717" lon="11.6728667"><ele>208.16666666666666</ele><time>2026-05-02T09:41:54.954Z</time></trkpt><trkpt lat="43.507555" lon="11.6728683"><ele>208.33333333333331</ele><time>2026-05-02T09:41:55.953Z</time></trkpt><trkpt lat="43.5076383" lon="11.6728717"><ele>208.5</ele><time>2026-05-02T09:41:56.953Z</time></trkpt><trkpt lat="43.50772" lon="11.67289"><ele>208.66666666666669</ele><time>2026-05-02T09:41:57.953Z</time></trkpt><trkpt lat="43.5077967" lon="11.6729133"><ele>208.83333333333334</ele><time>2026-05-02T09:41:58.953Z</time></trkpt><trkpt lat="43.5078733" lon="11.672945"><ele>209.0</ele><time>2026-05-02T09:41:59.954Z</time></trkpt><trkpt lat="43.5079467" lon="11.6729883"><ele>209.00000000000003</ele><time>2026-05-02T09:42:00.955Z</time></trkpt><trkpt lat="43.5080133" lon="11.6730367"><ele>209.0</ele><time>2026-05-02T09:42:01.954Z</time></trkpt><trkpt lat="43.50808" lon="11.6730883"><ele>209.0</ele><time>2026-05-02T09:42:02.953Z</time></trkpt><trkpt lat="43.508145" lon="11.673135"><ele>209.0</ele><time>2026-05-02T09:42:03.953Z</time></trkpt><trkpt lat="43.508205" lon="11.6731817"><ele>209.00000000000003</ele><time>2026-05-02T09:42:04.955Z</time></trkpt><trkpt lat="43.5083067" lon="11.6732633"><ele>209.0</ele><time>2026-05-02T09:42:06.955Z</time></trkpt><trkpt lat="43.508395" lon="11.67334"><ele>209.0</ele><time>2026-05-02T09:42:08.955Z</time></trkpt><trkpt lat="43.5084733" lon="11.6734083"><ele>209.0</ele><time>2026-05-02T09:42:10.956Z</time></trkpt><trkpt lat="43.5085633" lon="11.67348"><ele>209.0</ele><time>2026-05-02T09:42:12.956Z</time></trkpt><trkpt lat="43.5086517" lon="11.6735483"><ele>209.0</ele><time>2026-05-02T09:42:14.954Z</time></trkpt><trkpt lat="43.5087567" lon="11.6736217"><ele>209.0</ele><time>2026-05-02T09:42:16.953Z</time></trkpt><trkpt lat="43.5088133" lon="11.6736667"><ele>208.85714285714286</ele><time>2026-05-02T09:42:17.954Z</time></trkpt><trkpt lat="43.508875" lon="11.673715"><ele>208.71428571428572</ele><time>2026-05-02T09:42:18.956Z</time></trkpt><trkpt lat="43.5089383" lon="11.6737617"><ele>208.57142857142856</ele><time>2026-05-02T09:42:19.954Z</time></trkpt><trkpt lat="43.5090017" lon="11.6738117"><ele>208.42857142857144</ele><time>2026-05-02T09:42:20.954Z</time></trkpt><trkpt lat="43.5090633" lon="11.6738667"><ele>208.2857142857143</ele><time>2026-05-02T09:42:21.955Z</time></trkpt><trkpt lat="43.50912" lon="11.6739267"><ele>208.14285714285714</ele><time>2026-05-02T09:42:22.954Z</time></trkpt><trkpt lat="43.5091667" lon="11.6739967"><ele>208.0</ele><time>2026-05-02T09:42:23.955Z</time></trkpt><trkpt lat="43.509215" lon="11.67407"><ele>207.99999999999997</ele><time>2026-05-02T09:42:24.954Z</time></trkpt><trkpt lat="43.509265" lon="11.674145"><ele>208.0</ele><time>2026-05-02T09:42:25.955Z</time></trkpt><trkpt lat="43.509325" lon="11.67421"><ele>208.0</ele><time>2026-05-02T09:42:26.954Z</time></trkpt><trkpt lat="43.5093983" lon="11.6742717"><ele>208.0</ele><time>2026-05-02T09:42:27.954Z</time></trkpt><trkpt lat="43.5094817" lon="11.6743183"><ele>207.99999999999997</ele><time>2026-05-02T09:42:28.955Z</time></trkpt><trkpt lat="43.5095783" lon="11.6743583"><ele>208.0</ele><time>2026-05-02T09:42:29.953Z</time></trkpt><trkpt lat="43.5096767" lon="11.674385"><ele>207.2</ele><time>2026-05-02T09:42:30.955Z</time></trkpt><trkpt lat="43.5097767" lon="11.6744083"><ele>206.4</ele><time>2026-05-02T09:42:31.954Z</time></trkpt><trkpt lat="43.509875" lon="11.6744383"><ele>205.6</ele><time>2026-05-02T09:42:32.954Z</time></trkpt><trkpt lat="43.5099717" lon="11.67448"><ele>204.79999999999998</ele><time>2026-05-02T09:42:33.954Z</time></trkpt><trkpt lat="43.51007" lon="11.674525"><ele>204.0</ele><time>2026-05-02T09:42:34.955Z</time></trkpt><trkpt lat="43.5101667" lon="11.6745717"><ele>204.0</ele><time>2026-05-02T09:42:35.955Z</time></trkpt><trkpt lat="43.5102617" lon="11.674615"><ele>204.0</ele><time>2026-05-02T09:42:36.956Z</time></trkpt><trkpt lat="43.510355" lon="11.674645"><ele>204.0</ele><time>2026-05-02T09:42:37.956Z</time></trkpt><trkpt lat="43.5104483" lon="11.6746683"><ele>204.0</ele><time>2026-05-02T09:42:38.956Z</time></trkpt><trkpt lat="43.5105417" lon="11.67469"><ele>204.0</ele><time>2026-05-02T09:42:39.954Z</time></trkpt><trkpt lat="43.5106333" lon="11.6747067"><ele>200.83333333333334</ele><time>2026-05-02T09:42:40.954Z</time></trkpt><trkpt lat="43.5107133" lon="11.6747183"><ele>197.66666666666666</ele><time>2026-05-02T09:42:41.954Z</time></trkpt><trkpt lat="43.5107867" lon="11.6747333"><ele>194.5</ele><time>2026-05-02T09:42:42.955Z</time></trkpt><trkpt lat="43.510865" lon="11.6747583"><ele>191.33333333333331</ele><time>2026-05-02T09:42:43.954Z</time></trkpt><trkpt lat="43.5109367" lon="11.6747917"><ele>188.16666666666666</ele><time>2026-05-02T09:42:44.955Z</time></trkpt><trkpt lat="43.5110117" lon="11.67483"><ele>185.0</ele><time>2026-05-02T09:42:45.954Z</time></trkpt><trkpt lat="43.5110833" lon="11.6748767"><ele>185.0</ele><time>2026-05-02T09:42:46.955Z</time></trkpt><trkpt lat="43.5111567" lon="11.6749233"><ele>185.0</ele><time>2026-05-02T09:42:47.955Z</time></trkpt><trkpt lat="43.5112333" lon="11.6749667"><ele>185.0</ele><time>2026-05-02T09:42:48.956Z</time></trkpt><trkpt lat="43.5113033" lon="11.6750083"><ele>185.0</ele><time>2026-05-02T09:42:49.954Z</time></trkpt><trkpt lat="43.5113733" lon="11.6750517"><ele>185.0</ele><time>2026-05-02T09:42:50.955Z</time></trkpt><trkpt lat="43.5114417" lon="11.6751"><ele>185.0</ele><time>2026-05-02T09:42:51.956Z</time></trkpt><trkpt lat="43.5115083" lon="11.6751533"><ele>185.16666666666666</ele><time>2026-05-02T09:42:52.956Z</time></trkpt><trkpt lat="43.511575" lon="11.6752017"><ele>185.33333333333331</ele><time>2026-05-02T09:42:53.955Z</time></trkpt><trkpt lat="43.511645" lon="11.6752517"><ele>185.5</ele><time>2026-05-02T09:42:54.955Z</time></trkpt><trkpt lat="43.5117117" lon="11.6753067"><ele>185.66666666666666</ele><time>2026-05-02T09:42:55.956Z</time></trkpt><trkpt lat="43.5117783" lon="11.6753567"><ele>185.83333333333334</ele><time>2026-05-02T09:42:56.954Z</time></trkpt><trkpt lat="43.511845" lon="11.6754"><ele>186.0</ele><time>2026-05-02T09:42:57.954Z</time></trkpt><trkpt lat="43.51191" lon="11.67544"><ele>186.00000000000003</ele><time>2026-05-02T09:42:58.953Z</time></trkpt><trkpt lat="43.5119767" lon="11.675475"><ele>186.0</ele><time>2026-05-02T09:42:59.955Z</time></trkpt><trkpt lat="43.512045" lon="11.6755067"><ele>186.0</ele><time>2026-05-02T09:43:00.953Z</time></trkpt><trkpt lat="43.5121117" lon="11.6755333"><ele>186.0</ele><time>2026-05-02T09:43:01.953Z</time></trkpt><trkpt lat="43.5121783" lon="11.67556"><ele>186.0</ele><time>2026-05-02T09:43:02.955Z</time></trkpt><trkpt lat="43.5122483" lon="11.6755867"><ele>186.00000000000003</ele><time>2026-05-02T09:43:03.953Z</time></trkpt><trkpt lat="43.512315" lon="11.6756133"><ele>186.0</ele><time>2026-05-02T09:43:04.954Z</time></trkpt><trkpt lat="43.5123833" lon="11.6756367"><ele>185.57142857142858</ele><time>2026-05-02T09:43:05.954Z</time></trkpt><trkpt lat="43.51245" lon="11.6756533"><ele>185.14285714285714</ele><time>2026-05-02T09:43:06.956Z</time></trkpt><trkpt lat="43.5125183" lon="11.6756683"><ele>184.71428571428572</ele><time>2026-05-02T09:43:07.956Z</time></trkpt><trkpt lat="43.512585" lon="11.675675"><ele>184.28571428571428</ele><time>2026-05-02T09:43:08.956Z</time></trkpt><trkpt lat="43.5126533" lon="11.6756733"><ele>183.85714285714286</ele><time>2026-05-02T09:43:09.954Z</time></trkpt><trkpt lat="43.51272" lon="11.6756633"><ele>183.42857142857144</ele><time>2026-05-02T09:43:10.954Z</time></trkpt><trkpt lat="43.512785" lon="11.675655"><ele>183.0</ele><time>2026-05-02T09:43:11.954Z</time></trkpt><trkpt lat="43.5129083" lon="11.6756383"><ele>183.0</ele><time>2026-05-02T09:43:13.956Z</time></trkpt><trkpt lat="43.5129717" lon="11.6756317"><ele>183.0</ele><time>2026-05-02T09:43:14.955Z</time></trkpt><trkpt lat="43.513035" lon="11.67562"><ele>183.0</ele><time>2026-05-02T09:43:15.956Z</time></trkpt><trkpt lat="43.5131033" lon="11.6756067"><ele>183.0</ele><time>2026-05-02T09:43:16.954Z</time></trkpt><trkpt lat="43.51323" lon="11.675575"><ele>183.0</ele><time>2026-05-02T09:43:18.955Z</time></trkpt><trkpt lat="43.513295" lon="11.675555"><ele>183.0</ele><time>2026-05-02T09:43:19.956Z</time></trkpt><trkpt lat="43.513365" lon="11.67553"><ele>183.0</ele><time>2026-05-02T09:43:20.955Z</time></trkpt><trkpt lat="43.5134317" lon="11.6755067"><ele>183.0</ele><time>2026-05-02T09:43:21.955Z</time></trkpt><trkpt lat="43.5134983" lon="11.6754817"><ele>183.0</ele><time>2026-05-02T09:43:22.955Z</time></trkpt><trkpt lat="43.513565" lon="11.6754583"><ele>183.0</ele><time>2026-05-02T09:43:23.955Z</time></trkpt><trkpt lat="43.51363" lon="11.67543"><ele>183.0</ele><time>2026-05-02T09:43:24.957Z</time></trkpt><trkpt lat="43.5136917" lon="11.675405"><ele>183.0</ele><time>2026-05-02T09:43:25.955Z</time></trkpt><trkpt lat="43.5137533" lon="11.67538"><ele>183.0</ele><time>2026-05-02T09:43:26.955Z</time></trkpt><trkpt lat="43.5138167" lon="11.6753533"><ele>183.14285714285714</ele><time>2026-05-02T09:43:27.954Z</time></trkpt><trkpt lat="43.5138783" lon="11.675325"><ele>183.28571428571428</ele><time>2026-05-02T09:43:28.956Z</time></trkpt><trkpt lat="43.5139417" lon="11.6753"><ele>183.42857142857144</ele><time>2026-05-02T09:43:29.955Z</time></trkpt><trkpt lat="43.5140083" lon="11.6752667"><ele>183.57142857142856</ele><time>2026-05-02T09:43:30.955Z</time></trkpt><trkpt lat="43.5140733" lon="11.6752383"><ele>183.7142857142857</ele><time>2026-05-02T09:43:31.954Z</time></trkpt><trkpt lat="43.5141383" lon="11.6752117"><ele>183.85714285714286</ele><time>2026-05-02T09:43:32.956Z</time></trkpt><trkpt lat="43.5142033" lon="11.6751867"><ele>184.0</ele><time>2026-05-02T09:43:33.955Z</time></trkpt><trkpt lat="43.51427" lon="11.6751583"><ele>184.0</ele><time>2026-05-02T09:43:34.954Z</time></trkpt><trkpt lat="43.5143367" lon="11.6751367"><ele>184.0</ele><time>2026-05-02T09:43:35.954Z</time></trkpt><trkpt lat="43.5144017" lon="11.675115"><ele>184.0</ele><time>2026-05-02T09:43:36.956Z</time></trkpt><trkpt lat="43.5144683" lon="11.675095"><ele>184.0</ele><time>2026-05-02T09:43:37.956Z</time></trkpt><trkpt lat="43.5145333" lon="11.675075"><ele>184.0</ele><time>2026-05-02T09:43:38.954Z</time></trkpt><trkpt lat="43.5146" lon="11.67506"><ele>184.0</ele><time>2026-05-02T09:43:39.955Z</time></trkpt><trkpt lat="43.5146633" lon="11.67505"><ele>184.0</ele><time>2026-05-02T09:43:40.956Z</time></trkpt><trkpt lat="43.5147267" lon="11.6750417"><ele>184.0</ele><time>2026-05-02T09:43:41.955Z</time></trkpt><trkpt lat="43.514845" lon="11.6750583"><ele>184.0</ele><time>2026-05-02T09:43:43.956Z</time></trkpt><trkpt lat="43.514945" lon="11.6751217"><ele>184.0</ele><time>2026-05-02T09:43:45.957Z</time></trkpt><trkpt lat="43.51504" lon="11.675225"><ele>184.0</ele><time>2026-05-02T09:43:47.956Z</time></trkpt><trkpt lat="43.51509" lon="11.6752817"><ele>184.0</ele><time>2026-05-02T09:43:48.955Z</time></trkpt><trkpt lat="43.51518" lon="11.6754"><ele>184.0</ele><time>2026-05-02T09:43:50.955Z</time></trkpt><trkpt lat="43.5152717" lon="11.6755233"><ele>184.0</ele><time>2026-05-02T09:43:52.954Z</time></trkpt><trkpt lat="43.5153167" lon="11.675585"><ele>184.0</ele><time>2026-05-02T09:43:53.956Z</time></trkpt><trkpt lat="43.5154133" lon="11.6756967"><ele>184.0</ele><time>2026-05-02T09:43:55.954Z</time></trkpt><trkpt lat="43.5154617" lon="11.6757533"><ele>184.0</ele><time>2026-05-02T09:43:56.954Z</time></trkpt><trkpt lat="43.5155117" lon="11.6758117"><ele>184.0</ele><time>2026-05-02T09:43:57.954Z</time></trkpt><trkpt lat="43.5155633" lon="11.67587"><ele>184.0</ele><time>2026-05-02T09:43:58.954Z</time></trkpt><trkpt lat="43.515615" lon="11.6759233"><ele>184.0</ele><time>2026-05-02T09:43:59.952Z</time></trkpt><trkpt lat="43.5156667" lon="11.6759783"><ele>184.0</ele><time>2026-05-02T09:44:00.955Z</time></trkpt><trkpt lat="43.51572" lon="11.6760317"><ele>184.0</ele><time>2026-05-02T09:44:01.954Z</time></trkpt><trkpt lat="43.5158217" lon="11.676135"><ele>184.0</ele><time>2026-05-02T09:44:03.956Z</time></trkpt><trkpt lat="43.5158733" lon="11.6761867"><ele>184.0</ele><time>2026-05-02T09:44:04.956Z</time></trkpt><trkpt lat="43.5159267" lon="11.6762383"><ele>183.85714285714286</ele><time>2026-05-02T09:44:05.955Z</time></trkpt><trkpt lat="43.5159817" lon="11.6762883"><ele>183.7142857142857</ele><time>2026-05-02T09:44:06.955Z</time></trkpt><trkpt lat="43.5160367" lon="11.6763383"><ele>183.57142857142856</ele><time>2026-05-02T09:44:07.954Z</time></trkpt><trkpt lat="43.51609" lon="11.6763883"><ele>183.42857142857144</ele><time>2026-05-02T09:44:08.954Z</time></trkpt><trkpt lat="43.516145" lon="11.6764383"><ele>183.28571428571428</ele><time>2026-05-02T09:44:09.954Z</time></trkpt><trkpt lat="43.5162" lon="11.6764883"><ele>183.14285714285714</ele><time>2026-05-02T09:44:10.952Z</time></trkpt><trkpt lat="43.5162567" lon="11.67654"><ele>183.0</ele><time>2026-05-02T09:44:11.954Z</time></trkpt><trkpt lat="43.5163133" lon="11.6765917"><ele>183.0</ele><time>2026-05-02T09:44:12.954Z</time></trkpt><trkpt lat="43.5163683" lon="11.67664"><ele>183.0</ele><time>2026-05-02T09:44:13.956Z</time></trkpt><trkpt lat="43.516425" lon="11.6766917"><ele>183.0</ele><time>2026-05-02T09:44:14.957Z</time></trkpt><trkpt lat="43.5164817" lon="11.6767517"><ele>183.0</ele><time>2026-05-02T09:44:15.954Z</time></trkpt><trkpt lat="43.5165383" lon="11.6768067"><ele>183.0</ele><time>2026-05-02T09:44:16.953Z</time></trkpt><trkpt lat="43.5165933" lon="11.6768567"><ele>183.0</ele><time>2026-05-02T09:44:17.955Z</time></trkpt><trkpt lat="43.51665" lon="11.67691"><ele>183.0</ele><time>2026-05-02T09:44:18.955Z</time></trkpt><trkpt lat="43.5167067" lon="11.6769617"><ele>183.5</ele><time>2026-05-02T09:44:19.954Z</time></trkpt><trkpt lat="43.516765" lon="11.67701"><ele>184.0</ele><time>2026-05-02T09:44:20.955Z</time></trkpt><trkpt lat="43.5168233" lon="11.6770617"><ele>184.5</ele><time>2026-05-02T09:44:21.958Z</time></trkpt><trkpt lat="43.51693" lon="11.6771683"><ele>185.0</ele><time>2026-05-02T09:44:23.955Z</time></trkpt><trkpt lat="43.516985" lon="11.6772233"><ele>185.5</ele><time>2026-05-02T09:44:24.954Z</time></trkpt><trkpt lat="43.5170383" lon="11.677285"><ele>186.0</ele><time>2026-05-02T09:44:25.954Z</time></trkpt><trkpt lat="43.5170883" lon="11.67735"><ele>186.00000000000003</ele><time>2026-05-02T09:44:26.957Z</time></trkpt><trkpt lat="43.51714" lon="11.6774117"><ele>186.0</ele><time>2026-05-02T09:44:27.955Z</time></trkpt><trkpt lat="43.51719" lon="11.6774683"><ele>186.0</ele><time>2026-05-02T09:44:28.954Z</time></trkpt><trkpt lat="43.517245" lon="11.677525"><ele>186.0</ele><time>2026-05-02T09:44:29.956Z</time></trkpt><trkpt lat="43.5173" lon="11.67758"><ele>186.0</ele><time>2026-05-02T09:44:30.956Z</time></trkpt><trkpt lat="43.5173567" lon="11.6776283"><ele>186.00000000000003</ele><time>2026-05-02T09:44:31.956Z</time></trkpt><trkpt lat="43.5174167" lon="11.6776683"><ele>186.0</ele><time>2026-05-02T09:44:32.955Z</time></trkpt><trkpt lat="43.517475" lon="11.6777133"><ele>186.83333333333334</ele><time>2026-05-02T09:44:33.954Z</time></trkpt><trkpt lat="43.51759" lon="11.6777817"><ele>187.66666666666666</ele><time>2026-05-02T09:44:35.954Z</time></trkpt><trkpt lat="43.5176517" lon="11.6778183"><ele>188.5</ele><time>2026-05-02T09:44:36.955Z</time></trkpt><trkpt lat="43.5177133" lon="11.6778517"><ele>189.33333333333331</ele><time>2026-05-02T09:44:37.956Z</time></trkpt><trkpt lat="43.5177733" lon="11.6778883"><ele>190.16666666666666</ele><time>2026-05-02T09:44:38.958Z</time></trkpt><trkpt lat="43.5178317" lon="11.677925"><ele>191.0</ele><time>2026-05-02T09:44:39.955Z</time></trkpt><trkpt lat="43.5178883" lon="11.6779667"><ele>190.42857142857144</ele><time>2026-05-02T09:44:40.955Z</time></trkpt><trkpt lat="43.5179433" lon="11.678015"><ele>189.85714285714283</ele><time>2026-05-02T09:44:41.956Z</time></trkpt><trkpt lat="43.5180467" lon="11.6780933"><ele>189.28571428571428</ele><time>2026-05-02T09:44:43.954Z</time></trkpt><trkpt lat="43.5181017" lon="11.6781367"><ele>188.71428571428572</ele><time>2026-05-02T09:44:44.955Z</time></trkpt><trkpt lat="43.5181583" lon="11.678175"><ele>188.14285714285717</ele><time>2026-05-02T09:44:45.955Z</time></trkpt><trkpt lat="43.5182183" lon="11.6782117"><ele>187.57142857142856</ele><time>2026-05-02T09:44:46.958Z</time></trkpt><trkpt lat="43.51828" lon="11.6782517"><ele>187.0</ele><time>2026-05-02T09:44:47.956Z</time></trkpt><trkpt lat="43.5183367" lon="11.67829"><ele>187.0</ele><time>2026-05-02T09:44:48.955Z</time></trkpt><trkpt lat="43.5183967" lon="11.67833"><ele>187.0</ele><time>2026-05-02T09:44:49.954Z</time></trkpt><trkpt lat="43.5184567" lon="11.678365"><ele>187.0</ele><time>2026-05-02T09:44:50.958Z</time></trkpt><trkpt lat="43.5185183" lon="11.6783967"><ele>187.0</ele><time>2026-05-02T09:44:51.957Z</time></trkpt><trkpt lat="43.5185833" lon="11.6784233"><ele>187.0</ele><time>2026-05-02T09:44:52.954Z</time></trkpt><trkpt lat="43.5186483" lon="11.6784533"><ele>187.0</ele><time>2026-05-02T09:44:53.955Z</time></trkpt><trkpt lat="43.5187117" lon="11.6784817"><ele>187.0</ele><time>2026-05-02T09:44:54.954Z</time></trkpt><trkpt lat="43.518775" lon="11.6785117"><ele>187.16666666666669</ele><time>2026-05-02T09:44:55.958Z</time></trkpt><trkpt lat="43.5188367" lon="11.67854"><ele>187.33333333333334</ele><time>2026-05-02T09:44:56.955Z</time></trkpt><trkpt lat="43.5189" lon="11.6785633"><ele>187.5</ele><time>2026-05-02T09:44:57.955Z</time></trkpt><trkpt lat="43.5190217" lon="11.678615"><ele>187.66666666666666</ele><time>2026-05-02T09:44:59.957Z</time></trkpt><trkpt lat="43.5190833" lon="11.678645"><ele>187.83333333333331</ele><time>2026-05-02T09:45:00.955Z</time></trkpt><trkpt lat="43.5191433" lon="11.6786767"><ele>188.0</ele><time>2026-05-02T09:45:01.956Z</time></trkpt><trkpt lat="43.5192633" lon="11.6787317"><ele>188.5</ele><time>2026-05-02T09:45:03.955Z</time></trkpt><trkpt lat="43.5193233" lon="11.6787617"><ele>189.0</ele><time>2026-05-02T09:45:04.955Z</time></trkpt><trkpt lat="43.5193833" lon="11.6787967"><ele>189.5</ele><time>2026-05-02T09:45:05.954Z</time></trkpt><trkpt lat="43.519505" lon="11.6788617"><ele>190.0</ele><time>2026-05-02T09:45:07.956Z</time></trkpt><trkpt lat="43.5195667" lon="11.6788933"><ele>190.5</ele><time>2026-05-02T09:45:08.953Z</time></trkpt><trkpt lat="43.5196267" lon="11.6789267"><ele>191.0</ele><time>2026-05-02T09:45:09.954Z</time></trkpt><trkpt lat="43.519685" lon="11.6789617"><ele>191.0</ele><time>2026-05-02T09:45:10.954Z</time></trkpt><trkpt lat="43.519795" lon="11.6790267"><ele>191.0</ele><time>2026-05-02T09:45:12.955Z</time></trkpt><trkpt lat="43.5198533" lon="11.6790617"><ele>191.0</ele><time>2026-05-02T09:45:13.954Z</time></trkpt><trkpt lat="43.51991" lon="11.6791"><ele>191.0</ele><time>2026-05-02T09:45:14.955Z</time></trkpt><trkpt lat="43.5199683" lon="11.6791417"><ele>191.0</ele><time>2026-05-02T09:45:15.956Z</time></trkpt><trkpt lat="43.5200783" lon="11.6792267"><ele>191.0</ele><time>2026-05-02T09:45:17.954Z</time></trkpt><trkpt lat="43.5201317" lon="11.6792783"><ele>191.0</ele><time>2026-05-02T09:45:18.957Z</time></trkpt><trkpt lat="43.520185" lon="11.679335"><ele>191.0</ele><time>2026-05-02T09:45:19.954Z</time></trkpt><trkpt lat="43.52024" lon="11.67939"><ele>191.0</ele><time>2026-05-02T09:45:20.957Z</time></trkpt><trkpt lat="43.5202917" lon="11.6794433"><ele>191.0</ele><time>2026-05-02T09:45:21.954Z</time></trkpt><trkpt lat="43.52034" lon="11.6795"><ele>191.0</ele><time>2026-05-02T09:45:22.955Z</time></trkpt><trkpt lat="43.5204317" lon="11.6796083"><ele>191.0</ele><time>2026-05-02T09:45:24.953Z</time></trkpt><trkpt lat="43.5205233" lon="11.6797183"><ele>192.25</ele><time>2026-05-02T09:45:26.956Z</time></trkpt><trkpt lat="43.52062" lon="11.6798183"><ele>193.5</ele><time>2026-05-02T09:45:28.954Z</time></trkpt><trkpt lat="43.5207117" lon="11.6799117"><ele>194.75</ele><time>2026-05-02T09:45:30.954Z</time></trkpt><trkpt lat="43.52081" lon="11.68"><ele>196.0</ele><time>2026-05-02T09:45:32.955Z</time></trkpt><trkpt lat="43.5209083" lon="11.6801017"><ele>195.99999999999997</ele><time>2026-05-02T09:45:34.955Z</time></trkpt><trkpt lat="43.5210117" lon="11.6802017"><ele>196.0</ele><time>2026-05-02T09:45:36.957Z</time></trkpt><trkpt lat="43.5210633" lon="11.6802533"><ele>196.0</ele><time>2026-05-02T09:45:37.956Z</time></trkpt><trkpt lat="43.5211167" lon="11.6803017"><ele>196.0</ele><time>2026-05-02T09:45:38.955Z</time></trkpt><trkpt lat="43.52117" lon="11.680355"><ele>195.99999999999997</ele><time>2026-05-02T09:45:39.954Z</time></trkpt><trkpt lat="43.5212233" lon="11.6804067"><ele>196.0</ele><time>2026-05-02T09:45:40.954Z</time></trkpt><trkpt lat="43.5212783" lon="11.680465"><ele>195.33333333333331</ele><time>2026-05-02T09:45:41.955Z</time></trkpt><trkpt lat="43.52133" lon="11.6805183"><ele>194.66666666666666</ele><time>2026-05-02T09:45:42.954Z</time></trkpt><trkpt lat="43.5213817" lon="11.68057"><ele>194.0</ele><time>2026-05-02T09:45:43.954Z</time></trkpt><trkpt lat="43.5214383" lon="11.6806233"><ele>193.33333333333331</ele><time>2026-05-02T09:45:44.953Z</time></trkpt><trkpt lat="43.5214933" lon="11.68068"><ele>192.66666666666666</ele><time>2026-05-02T09:45:45.954Z</time></trkpt><trkpt lat="43.5215467" lon="11.6807333"><ele>192.0</ele><time>2026-05-02T09:45:46.953Z</time></trkpt><trkpt lat="43.5216483" lon="11.6808433"><ele>191.99999999999997</ele><time>2026-05-02T09:45:48.953Z</time></trkpt><trkpt lat="43.5217" lon="11.6809"><ele>192.0</ele><time>2026-05-02T09:45:49.953Z</time></trkpt><trkpt lat="43.5217517" lon="11.68096"><ele>192.0</ele><time>2026-05-02T09:45:50.953Z</time></trkpt><trkpt lat="43.5218033" lon="11.68102"><ele>192.0</ele><time>2026-05-02T09:45:51.954Z</time></trkpt><trkpt lat="43.5218517" lon="11.6810833"><ele>192.0</ele><time>2026-05-02T09:45:52.956Z</time></trkpt><trkpt lat="43.5219017" lon="11.6811533"><ele>191.99999999999997</ele><time>2026-05-02T09:45:53.956Z</time></trkpt><trkpt lat="43.5219533" lon="11.68123"><ele>192.0</ele><time>2026-05-02T09:45:54.956Z</time></trkpt><trkpt lat="43.522005" lon="11.6813017"><ele>192.14285714285714</ele><time>2026-05-02T09:45:55.957Z</time></trkpt><trkpt lat="43.522055" lon="11.681375"><ele>192.28571428571428</ele><time>2026-05-02T09:45:56.957Z</time></trkpt><trkpt lat="43.522105" lon="11.6814483"><ele>192.42857142857144</ele><time>2026-05-02T09:45:57.954Z</time></trkpt><trkpt lat="43.522155" lon="11.6815167"><ele>192.57142857142856</ele><time>2026-05-02T09:45:58.955Z</time></trkpt><trkpt lat="43.5222033" lon="11.6815833"><ele>192.71428571428572</ele><time>2026-05-02T09:45:59.954Z</time></trkpt><trkpt lat="43.5222533" lon="11.681655"><ele>192.85714285714286</ele><time>2026-05-02T09:46:00.954Z</time></trkpt><trkpt lat="43.5223033" lon="11.6817283"><ele>193.0</ele><time>2026-05-02T09:46:01.955Z</time></trkpt><trkpt lat="43.52235" lon="11.681805"><ele>193.00000000000003</ele><time>2026-05-02T09:46:02.954Z</time></trkpt><trkpt lat="43.522395" lon="11.6818783"><ele>193.0</ele><time>2026-05-02T09:46:03.954Z</time></trkpt><trkpt lat="43.5224383" lon="11.6819467"><ele>193.0</ele><time>2026-05-02T09:46:04.954Z</time></trkpt><trkpt lat="43.52248" lon="11.6820167"><ele>193.0</ele><time>2026-05-02T09:46:05.955Z</time></trkpt><trkpt lat="43.5225233" lon="11.682095"><ele>193.0</ele><time>2026-05-02T09:46:06.955Z</time></trkpt><trkpt lat="43.5225617" lon="11.6821667"><ele>193.00000000000003</ele><time>2026-05-02T09:46:07.955Z</time></trkpt><trkpt lat="43.5226033" lon="11.6822383"><ele>193.0</ele><time>2026-05-02T09:46:08.954Z</time></trkpt><trkpt lat="43.522645" lon="11.6823083"><ele>193.14285714285717</ele><time>2026-05-02T09:46:09.956Z</time></trkpt><trkpt lat="43.5226867" lon="11.68238"><ele>193.28571428571428</ele><time>2026-05-02T09:46:10.954Z</time></trkpt><trkpt lat="43.52273" lon="11.6824467"><ele>193.42857142857144</ele><time>2026-05-02T09:46:11.955Z</time></trkpt><trkpt lat="43.5227783" lon="11.68252"><ele>193.57142857142858</ele><time>2026-05-02T09:46:12.956Z</time></trkpt><trkpt lat="43.522825" lon="11.68259"><ele>193.71428571428572</ele><time>2026-05-02T09:46:13.956Z</time></trkpt><trkpt lat="43.5228717" lon="11.6826583"><ele>193.85714285714286</ele><time>2026-05-02T09:46:14.956Z</time></trkpt><trkpt lat="43.5229217" lon="11.6827267"><ele>194.0</ele><time>2026-05-02T09:46:15.955Z</time></trkpt><trkpt lat="43.5229733" lon="11.6827983"><ele>194.42857142857142</ele><time>2026-05-02T09:46:16.955Z</time></trkpt><trkpt lat="43.523025" lon="11.6828733"><ele>194.85714285714286</ele><time>2026-05-02T09:46:17.956Z</time></trkpt><trkpt lat="43.5230783" lon="11.6829383"><ele>195.28571428571428</ele><time>2026-05-02T09:46:18.954Z</time></trkpt><trkpt lat="43.523135" lon="11.683"><ele>195.71428571428572</ele><time>2026-05-02T09:46:19.956Z</time></trkpt><trkpt lat="43.52319" lon="11.6830583"><ele>196.14285714285717</ele><time>2026-05-02T09:46:20.954Z</time></trkpt><trkpt lat="43.5232417" lon="11.6831167"><ele>196.57142857142858</ele><time>2026-05-02T09:46:21.954Z</time></trkpt><trkpt lat="43.5232933" lon="11.683175"><ele>197.0</ele><time>2026-05-02T09:46:22.955Z</time></trkpt><trkpt lat="43.5233467" lon="11.68323"><ele>197.00000000000003</ele><time>2026-05-02T09:46:23.954Z</time></trkpt><trkpt lat="43.5234033" lon="11.6832833"><ele>197.0</ele><time>2026-05-02T09:46:24.954Z</time></trkpt><trkpt lat="43.5234567" lon="11.68333"><ele>197.0</ele><time>2026-05-02T09:46:25.955Z</time></trkpt><trkpt lat="43.523535" lon="11.6833867"><ele>197.0</ele><time>2026-05-02T09:46:27.956Z</time></trkpt><trkpt lat="43.5236167" lon="11.6833683"><ele>197.00000000000003</ele><time>2026-05-02T09:46:30.955Z</time></trkpt><trkpt lat="43.5236567" lon="11.6832833"><ele>197.0</ele><time>2026-05-02T09:46:32.954Z</time></trkpt><trkpt lat="43.523715" lon="11.68319"><ele>197.0</ele><time>2026-05-02T09:46:34.952Z</time></trkpt><trkpt lat="43.5237817" lon="11.6831"><ele>197.0</ele><time>2026-05-02T09:46:36.953Z</time></trkpt><trkpt lat="43.5238533" lon="11.683015"><ele>197.0</ele><time>2026-05-02T09:46:38.956Z</time></trkpt><trkpt lat="43.5239267" lon="11.68292"><ele>197.0</ele><time>2026-05-02T09:46:40.954Z</time></trkpt><trkpt lat="43.5239983" lon="11.6828283"><ele>197.0</ele><time>2026-05-02T09:46:42.955Z</time></trkpt><trkpt lat="43.5240683" lon="11.682735"><ele>197.00000000000003</ele><time>2026-05-02T09:46:44.954Z</time></trkpt><trkpt lat="43.52414" lon="11.68264"><ele>197.0</ele><time>2026-05-02T09:46:46.954Z</time></trkpt><trkpt lat="43.524205" lon="11.68256"><ele>197.0</ele><time>2026-05-02T09:46:48.954Z</time></trkpt><trkpt lat="43.5242683" lon="11.6824767"><ele>197.0</ele><time>2026-05-02T09:46:50.953Z</time></trkpt><trkpt lat="43.5243283" lon="11.6824"><ele>197.00000000000003</ele><time>2026-05-02T09:46:52.953Z</time></trkpt><trkpt lat="43.5243867" lon="11.6823167"><ele>197.0</ele><time>2026-05-02T09:46:54.954Z</time></trkpt><trkpt lat="43.5244483" lon="11.6822317"><ele>197.00000000000003</ele><time>2026-05-02T09:46:56.955Z</time></trkpt><trkpt lat="43.5245083" lon="11.6821567"><ele>197.0</ele><time>2026-05-02T09:46:58.954Z</time></trkpt><trkpt lat="43.5245667" lon="11.6820983"><ele>197.0</ele><time>2026-05-02T09:47:00.953Z</time></trkpt><trkpt lat="43.524645" lon="11.6820417"><ele>197.0</ele><time>2026-05-02T09:47:03.953Z</time></trkpt><trkpt lat="43.5247267" lon="11.6820417"><ele>197.00000000000003</ele><time>2026-05-02T09:47:06.955Z</time></trkpt><trkpt lat="43.52479" lon="11.6821"><ele>197.0</ele><time>2026-05-02T09:47:09.954Z</time></trkpt><trkpt lat="43.524855" lon="11.6821733"><ele>198.50000000000003</ele><time>2026-05-02T09:47:12.955Z</time></trkpt><trkpt lat="43.52491" lon="11.68226"><ele>200.0</ele><time>2026-05-02T09:47:15.953Z</time></trkpt><trkpt lat="43.5249683" lon="11.682355"><ele>201.5</ele><time>2026-05-02T09:47:18.954Z</time></trkpt><trkpt lat="43.52501" lon="11.6824233"><ele>203.0</ele><time>2026-05-02T09:47:20.953Z</time></trkpt><trkpt lat="43.5250683" lon="11.68252"><ele>204.50000000000003</ele><time>2026-05-02T09:47:23.954Z</time></trkpt><trkpt lat="43.5251283" lon="11.6826017"><ele>206.0</ele><time>2026-05-02T09:47:26.953Z</time></trkpt><trkpt lat="43.525185" lon="11.682685"><ele>205.00000000000003</ele><time>2026-05-02T09:47:29.954Z</time></trkpt><trkpt lat="43.525245" lon="11.682775"><ele>204.0</ele><time>2026-05-02T09:47:32.954Z</time></trkpt><trkpt lat="43.5253133" lon="11.6828567"><ele>203.0</ele><time>2026-05-02T09:47:35.954Z</time></trkpt><trkpt lat="43.5253833" lon="11.6829333"><ele>202.0</ele><time>2026-05-02T09:47:38.953Z</time></trkpt><trkpt lat="43.525455" lon="11.6829933"><ele>201.00000000000003</ele><time>2026-05-02T09:47:41.953Z</time></trkpt><trkpt lat="43.5255367" lon="11.6830433"><ele>200.0</ele><time>2026-05-02T09:47:44.955Z</time></trkpt><trkpt lat="43.5256167" lon="11.6830883"><ele>202.00000000000003</ele><time>2026-05-02T09:47:47.953Z</time></trkpt><trkpt lat="43.5256917" lon="11.68312"><ele>204.0</ele><time>2026-05-02T09:47:50.954Z</time></trkpt><trkpt lat="43.5257683" lon="11.6831417"><ele>206.0</ele><time>2026-05-02T09:47:53.954Z</time></trkpt><trkpt lat="43.52585" lon="11.6831667"><ele>208.0</ele><time>2026-05-02T09:47:56.953Z</time></trkpt><trkpt lat="43.5259317" lon="11.68318"><ele>210.00000000000003</ele><time>2026-05-02T09:47:59.952Z</time></trkpt><trkpt lat="43.5260033" lon="11.683185"><ele>212.0</ele><time>2026-05-02T09:48:02.954Z</time></trkpt><trkpt lat="43.5260883" lon="11.6831833"><ele>212.00000000000003</ele><time>2026-05-02T09:48:05.954Z</time></trkpt><trkpt lat="43.5261733" lon="11.6831783"><ele>212.0</ele><time>2026-05-02T09:48:08.953Z</time></trkpt><trkpt lat="43.5262567" lon="11.6831633"><ele>212.0</ele><time>2026-05-02T09:48:11.952Z</time></trkpt><trkpt lat="43.5263317" lon="11.6831617"><ele>212.0</ele><time>2026-05-02T09:48:14.955Z</time></trkpt><trkpt lat="43.526395" lon="11.6831467"><ele>212.00000000000003</ele><time>2026-05-02T09:48:16.953Z</time></trkpt><trkpt lat="43.5264717" lon="11.68314"><ele>212.0</ele><time>2026-05-02T09:48:19.954Z</time></trkpt><trkpt lat="43.5265567" lon="11.6831283"><ele>213.33333333333334</ele><time>2026-05-02T09:48:22.953Z</time></trkpt><trkpt lat="43.52665" lon="11.6831117"><ele>214.66666666666669</ele><time>2026-05-02T09:48:25.954Z</time></trkpt><trkpt lat="43.5267383" lon="11.6830817"><ele>216.0</ele><time>2026-05-02T09:48:28.954Z</time></trkpt><trkpt lat="43.5268267" lon="11.6830417"><ele>217.33333333333331</ele><time>2026-05-02T09:48:31.954Z</time></trkpt><trkpt lat="43.526885" lon="11.6830033"><ele>218.66666666666666</ele><time>2026-05-02T09:48:33.954Z</time></trkpt><trkpt lat="43.526945" lon="11.68296"><ele>220.0</ele><time>2026-05-02T09:48:35.955Z</time></trkpt><trkpt lat="43.5270083" lon="11.6828833"><ele>219.99999999999997</ele><time>2026-05-02T09:48:38.954Z</time></trkpt><trkpt lat="43.5270517" lon="11.682815"><ele>220.0</ele><time>2026-05-02T09:48:40.954Z</time></trkpt><trkpt lat="43.5270983" lon="11.682745"><ele>220.0</ele><time>2026-05-02T09:48:42.954Z</time></trkpt><trkpt lat="43.5271483" lon="11.6826633"><ele>220.0</ele><time>2026-05-02T09:48:44.953Z</time></trkpt><trkpt lat="43.5271967" lon="11.682575"><ele>219.99999999999997</ele><time>2026-05-02T09:48:46.953Z</time></trkpt><trkpt lat="43.527245" lon="11.6824767"><ele>220.0</ele><time>2026-05-02T09:48:48.953Z</time></trkpt><trkpt lat="43.52729" lon="11.682375"><ele>222.0</ele><time>2026-05-02T09:48:50.954Z</time></trkpt><trkpt lat="43.5273383" lon="11.6822667"><ele>224.0</ele><time>2026-05-02T09:48:52.953Z</time></trkpt><trkpt lat="43.527385" lon="11.68216"><ele>226.0</ele><time>2026-05-02T09:48:54.953Z</time></trkpt><trkpt lat="43.52742" lon="11.68204"><ele>228.0</ele><time>2026-05-02T09:48:56.955Z</time></trkpt><trkpt lat="43.5274467" lon="11.68191"><ele>230.0</ele><time>2026-05-02T09:48:58.953Z</time></trkpt><trkpt lat="43.5274683" lon="11.681775"><ele>230.2</ele><time>2026-05-02T09:49:00.954Z</time></trkpt><trkpt lat="43.5274933" lon="11.681635"><ele>230.4</ele><time>2026-05-02T09:49:02.955Z</time></trkpt><trkpt lat="43.527515" lon="11.6814867"><ele>230.60000000000002</ele><time>2026-05-02T09:49:04.955Z</time></trkpt><trkpt lat="43.5275367" lon="11.6813367"><ele>230.8</ele><time>2026-05-02T09:49:06.955Z</time></trkpt><trkpt lat="43.5275583" lon="11.681185"><ele>231.0</ele><time>2026-05-02T09:49:08.955Z</time></trkpt><trkpt lat="43.5275833" lon="11.68103"><ele>231.0</ele><time>2026-05-02T09:49:10.955Z</time></trkpt><trkpt lat="43.52761" lon="11.680875"><ele>231.0</ele><time>2026-05-02T09:49:12.954Z</time></trkpt><trkpt lat="43.5276533" lon="11.680725"><ele>231.0</ele><time>2026-05-02T09:49:14.954Z</time></trkpt><trkpt lat="43.5277183" lon="11.680595"><ele>231.0</ele><time>2026-05-02T09:49:16.954Z</time></trkpt><trkpt lat="43.5278033" lon="11.68049"><ele>231.25</ele><time>2026-05-02T09:49:18.955Z</time></trkpt><trkpt lat="43.527905" lon="11.6804133"><ele>231.5</ele><time>2026-05-02T09:49:20.954Z</time></trkpt><trkpt lat="43.528015" lon="11.6803483"><ele>231.75</ele><time>2026-05-02T09:49:22.955Z</time></trkpt><trkpt lat="43.52813" lon="11.680295"><ele>232.0</ele><time>2026-05-02T09:49:24.953Z</time></trkpt><trkpt lat="43.5282433" lon="11.6802417"><ele>231.28571428571433</ele><time>2026-05-02T09:49:26.956Z</time></trkpt><trkpt lat="43.5283583" lon="11.68018"><ele>230.57142857142858</ele><time>2026-05-02T09:49:28.955Z</time></trkpt><trkpt lat="43.5284183" lon="11.6801467"><ele>229.8571428571429</ele><time>2026-05-02T09:49:29.953Z</time></trkpt><trkpt lat="43.52848" lon="11.6801133"><ele>229.14285714285717</ele><time>2026-05-02T09:49:30.955Z</time></trkpt><trkpt lat="43.52854" lon="11.68008"><ele>228.42857142857144</ele><time>2026-05-02T09:49:31.954Z</time></trkpt><trkpt lat="43.5286" lon="11.680045"><ele>227.71428571428572</ele><time>2026-05-02T09:49:32.955Z</time></trkpt><trkpt lat="43.52866" lon="11.6800167"><ele>227.0</ele><time>2026-05-02T09:49:33.952Z</time></trkpt><trkpt lat="43.5287217" lon="11.6799867"><ele>227.71428571428572</ele><time>2026-05-02T09:49:34.953Z</time></trkpt><trkpt lat="43.5287833" lon="11.6799583"><ele>228.42857142857144</ele><time>2026-05-02T09:49:35.957Z</time></trkpt><trkpt lat="43.5288433" lon="11.6799267"><ele>229.14285714285717</ele><time>2026-05-02T09:49:36.956Z</time></trkpt><trkpt lat="43.5289017" lon="11.6798933"><ele>229.8571428571429</ele><time>2026-05-02T09:49:37.954Z</time></trkpt><trkpt lat="43.5289633" lon="11.6798583"><ele>230.57142857142858</ele><time>2026-05-02T09:49:38.956Z</time></trkpt><trkpt lat="43.5290233" lon="11.6798217"><ele>231.28571428571433</ele><time>2026-05-02T09:49:39.958Z</time></trkpt><trkpt lat="43.529085" lon="11.679785"><ele>232.00000000000003</ele><time>2026-05-02T09:49:40.957Z</time></trkpt><trkpt lat="43.5291467" lon="11.67975"><ele>232.0</ele><time>2026-05-02T09:49:41.956Z</time></trkpt><trkpt lat="43.5292617" lon="11.6796883"><ele>232.0</ele><time>2026-05-02T09:49:43.953Z</time></trkpt><trkpt lat="43.5293783" lon="11.6796267"><ele>232.0</ele><time>2026-05-02T09:49:45.954Z</time></trkpt><trkpt lat="43.52949" lon="11.67957"><ele>232.0</ele><time>2026-05-02T09:49:47.956Z</time></trkpt><trkpt lat="43.5295967" lon="11.679525"><ele>232.39999999999998</ele><time>2026-05-02T09:49:49.954Z</time></trkpt><trkpt lat="43.5297" lon="11.6794917"><ele>232.79999999999998</ele><time>2026-05-02T09:49:51.955Z</time></trkpt><trkpt lat="43.5298067" lon="11.6794833"><ele>233.2</ele><time>2026-05-02T09:49:53.956Z</time></trkpt><trkpt lat="43.529915" lon="11.6794867"><ele>233.6</ele><time>2026-05-02T09:49:55.956Z</time></trkpt><trkpt lat="43.530035" lon="11.67949"><ele>234.0</ele><time>2026-05-02T09:49:57.955Z</time></trkpt><trkpt lat="43.5301433" lon="11.679495"><ele>234.0</ele><time>2026-05-02T09:49:59.954Z</time></trkpt><trkpt lat="43.5302483" lon="11.6795067"><ele>233.99999999999997</ele><time>2026-05-02T09:50:01.953Z</time></trkpt><trkpt lat="43.5303533" lon="11.6794933"><ele>233.99999999999997</ele><time>2026-05-02T09:50:03.956Z</time></trkpt><trkpt lat="43.5304567" lon="11.6794633"><ele>234.0</ele><time>2026-05-02T09:50:05.954Z</time></trkpt><trkpt lat="43.5305633" lon="11.6794183"><ele>234.0</ele><time>2026-05-02T09:50:07.954Z</time></trkpt><trkpt lat="43.530665" lon="11.67935"><ele>234.6</ele><time>2026-05-02T09:50:09.957Z</time></trkpt><trkpt lat="43.5307483" lon="11.6792667"><ele>235.2</ele><time>2026-05-02T09:50:11.953Z</time></trkpt><trkpt lat="43.5308167" lon="11.679165"><ele>235.79999999999998</ele><time>2026-05-02T09:50:13.955Z</time></trkpt><trkpt lat="43.530875" lon="11.67905"><ele>236.39999999999998</ele><time>2026-05-02T09:50:15.956Z</time></trkpt><trkpt lat="43.530925" lon="11.678935"><ele>237.0</ele><time>2026-05-02T09:50:17.955Z</time></trkpt><trkpt lat="43.53097" lon="11.6788167"><ele>237.0</ele><time>2026-05-02T09:50:19.955Z</time></trkpt><trkpt lat="43.531015" lon="11.6786933"><ele>237.0</ele><time>2026-05-02T09:50:21.954Z</time></trkpt><trkpt lat="43.531055" lon="11.6785717"><ele>237.0</ele><time>2026-05-02T09:50:23.957Z</time></trkpt><trkpt lat="43.5310933" lon="11.67845"><ele>237.0</ele><time>2026-05-02T09:50:25.954Z</time></trkpt><trkpt lat="43.5311367" lon="11.67833"><ele>237.0</ele><time>2026-05-02T09:50:27.954Z</time></trkpt><trkpt lat="43.5311783" lon="11.6782067"><ele>237.0</ele><time>2026-05-02T09:50:29.955Z</time></trkpt><trkpt lat="43.53122" lon="11.6780933"><ele>237.0</ele><time>2026-05-02T09:50:31.954Z</time></trkpt><trkpt lat="43.53126" lon="11.677985"><ele>237.0</ele><time>2026-05-02T09:50:33.955Z</time></trkpt><trkpt lat="43.5312983" lon="11.67788"><ele>237.0</ele><time>2026-05-02T09:50:35.953Z</time></trkpt><trkpt lat="43.5313383" lon="11.67778"><ele>237.0</ele><time>2026-05-02T09:50:37.953Z</time></trkpt><trkpt lat="43.5313783" lon="11.6776967"><ele>237.0</ele><time>2026-05-02T09:50:39.955Z</time></trkpt><trkpt lat="43.531415" lon="11.6776067"><ele>238.28571428571425</ele><time>2026-05-02T09:50:41.955Z</time></trkpt><trkpt lat="43.531455" lon="11.677525"><ele>239.57142857142856</ele><time>2026-05-02T09:50:43.953Z</time></trkpt><trkpt lat="43.5314983" lon="11.677445"><ele>240.85714285714286</ele><time>2026-05-02T09:50:45.954Z</time></trkpt><trkpt lat="43.5315467" lon="11.677365"><ele>242.14285714285714</ele><time>2026-05-02T09:50:47.954Z</time></trkpt><trkpt lat="43.5315933" lon="11.6772867"><ele>243.42857142857144</ele><time>2026-05-02T09:50:49.954Z</time></trkpt><trkpt lat="43.5316417" lon="11.6772067"><ele>244.71428571428575</ele><time>2026-05-02T09:50:51.952Z</time></trkpt><trkpt lat="43.53169" lon="11.6771317"><ele>246.00000000000003</ele><time>2026-05-02T09:50:53.953Z</time></trkpt><trkpt lat="43.531745" lon="11.6770483"><ele>246.0</ele><time>2026-05-02T09:50:55.953Z</time></trkpt><trkpt lat="43.5317933" lon="11.6769717"><ele>246.0</ele><time>2026-05-02T09:50:57.953Z</time></trkpt><trkpt lat="43.531845" lon="11.676885"><ele>246.0</ele><time>2026-05-02T09:50:59.953Z</time></trkpt><trkpt lat="43.531895" lon="11.6767983"><ele>246.0</ele><time>2026-05-02T09:51:01.953Z</time></trkpt><trkpt lat="43.5319433" lon="11.6767167"><ele>246.0</ele><time>2026-05-02T09:51:03.955Z</time></trkpt><trkpt lat="43.53199" lon="11.67664"><ele>246.0</ele><time>2026-05-02T09:51:05.956Z</time></trkpt><trkpt lat="43.5320417" lon="11.6765617"><ele>246.83333333333334</ele><time>2026-05-02T09:51:07.955Z</time></trkpt><trkpt lat="43.5320933" lon="11.6764917"><ele>247.66666666666669</ele><time>2026-05-02T09:51:09.953Z</time></trkpt><trkpt lat="43.532155" lon="11.6764333"><ele>248.5</ele><time>2026-05-02T09:51:11.955Z</time></trkpt><trkpt lat="43.53223" lon="11.6764067"><ele>249.33333333333334</ele><time>2026-05-02T09:51:13.954Z</time></trkpt><trkpt lat="43.5323" lon="11.676425"><ele>250.16666666666669</ele><time>2026-05-02T09:51:15.954Z</time></trkpt><trkpt lat="43.532365" lon="11.6764867"><ele>251.0</ele><time>2026-05-02T09:51:17.954Z</time></trkpt><trkpt lat="43.53242" lon="11.6765817"><ele>251.0</ele><time>2026-05-02T09:51:19.954Z</time></trkpt><trkpt lat="43.5324567" lon="11.6766933"><ele>251.00000000000003</ele><time>2026-05-02T09:51:21.955Z</time></trkpt><trkpt lat="43.5324883" lon="11.676815"><ele>251.00000000000003</ele><time>2026-05-02T09:51:23.954Z</time></trkpt><trkpt lat="43.5325283" lon="11.6769467"><ele>251.0</ele><time>2026-05-02T09:51:25.955Z</time></trkpt><trkpt lat="43.532575" lon="11.677075"><ele>251.0</ele><time>2026-05-02T09:51:27.955Z</time></trkpt><trkpt lat="43.5326233" lon="11.6772067"><ele>250.8</ele><time>2026-05-02T09:51:29.954Z</time></trkpt><trkpt lat="43.5326767" lon="11.67734"><ele>250.60000000000002</ele><time>2026-05-02T09:51:31.956Z</time></trkpt><trkpt lat="43.53273" lon="11.6774717"><ele>250.4</ele><time>2026-05-02T09:51:33.955Z</time></trkpt><trkpt lat="43.5327883" lon="11.6776033"><ele>250.2</ele><time>2026-05-02T09:51:35.955Z</time></trkpt><trkpt lat="43.5328483" lon="11.6777433"><ele>250.0</ele><time>2026-05-02T09:51:37.955Z</time></trkpt><trkpt lat="43.5329067" lon="11.6778883"><ele>250.49999999999997</ele><time>2026-05-02T09:51:39.954Z</time></trkpt><trkpt lat="43.5329367" lon="11.677965"><ele>251.0</ele><time>2026-05-02T09:51:40.955Z</time></trkpt><trkpt lat="43.5329933" lon="11.6781167"><ele>251.5</ele><time>2026-05-02T09:51:42.955Z</time></trkpt><trkpt lat="43.5330217" lon="11.6781983"><ele>252.0</ele><time>2026-05-02T09:51:43.957Z</time></trkpt><trkpt lat="43.5330533" lon="11.6782767"><ele>252.49999999999997</ele><time>2026-05-02T09:51:44.955Z</time></trkpt><trkpt lat="43.533085" lon="11.6783567"><ele>253.0</ele><time>2026-05-02T09:51:45.954Z</time></trkpt><trkpt lat="43.5331183" lon="11.67844"><ele>253.00000000000003</ele><time>2026-05-02T09:51:46.954Z</time></trkpt><trkpt lat="43.5331517" lon="11.6785217"><ele>253.0</ele><time>2026-05-02T09:51:47.954Z</time></trkpt><trkpt lat="43.5331833" lon="11.6786067"><ele>253.00000000000003</ele><time>2026-05-02T09:51:48.955Z</time></trkpt><trkpt lat="43.533215" lon="11.678695"><ele>253.00000000000003</ele><time>2026-05-02T09:51:49.954Z</time></trkpt><trkpt lat="43.5332483" lon="11.67878"><ele>253.0</ele><time>2026-05-02T09:51:50.955Z</time></trkpt><trkpt lat="43.53328" lon="11.6788617"><ele>253.00000000000003</ele><time>2026-05-02T09:51:51.954Z</time></trkpt><trkpt lat="43.5333117" lon="11.6789467"><ele>253.00000000000003</ele><time>2026-05-02T09:51:52.954Z</time></trkpt><trkpt lat="43.533345" lon="11.6790233"><ele>253.16666666666666</ele><time>2026-05-02T09:51:53.954Z</time></trkpt><trkpt lat="43.533385" lon="11.6790933"><ele>253.33333333333331</ele><time>2026-05-02T09:51:54.957Z</time></trkpt><trkpt lat="43.533485" lon="11.6792083"><ele>253.5</ele><time>2026-05-02T09:51:56.955Z</time></trkpt><trkpt lat="43.533545" lon="11.6792633"><ele>253.66666666666669</ele><time>2026-05-02T09:51:57.955Z</time></trkpt><trkpt lat="43.5336033" lon="11.6793083"><ele>253.83333333333334</ele><time>2026-05-02T09:51:58.955Z</time></trkpt><trkpt lat="43.5336633" lon="11.67936"><ele>254.0</ele><time>2026-05-02T09:51:59.954Z</time></trkpt><trkpt lat="43.533725" lon="11.6794183"><ele>252.50000000000003</ele><time>2026-05-02T09:52:00.956Z</time></trkpt><trkpt lat="43.533785" lon="11.679475"><ele>251.0</ele><time>2026-05-02T09:52:01.955Z</time></trkpt><trkpt lat="43.5338467" lon="11.6795317"><ele>249.5</ele><time>2026-05-02T09:52:02.954Z</time></trkpt><trkpt lat="43.5339117" lon="11.67959"><ele>248.0</ele><time>2026-05-02T09:52:03.954Z</time></trkpt><trkpt lat="43.5339767" lon="11.67965"><ele>246.50000000000003</ele><time>2026-05-02T09:52:04.951Z</time></trkpt><trkpt lat="43.5340417" lon="11.6797117"><ele>245.0</ele><time>2026-05-02T09:52:05.954Z</time></trkpt><trkpt lat="43.5341083" lon="11.679775"><ele>245.00000000000003</ele><time>2026-05-02T09:52:06.956Z</time></trkpt><trkpt lat="43.53418" lon="11.6798383"><ele>245.0</ele><time>2026-05-02T09:52:07.954Z</time></trkpt><trkpt lat="43.5342517" lon="11.6799"><ele>245.0</ele><time>2026-05-02T09:52:08.956Z</time></trkpt><trkpt lat="43.534325" lon="11.6799683"><ele>245.0</ele><time>2026-05-02T09:52:09.956Z</time></trkpt><trkpt lat="43.5344" lon="11.6800367"><ele>245.00000000000003</ele><time>2026-05-02T09:52:10.954Z</time></trkpt><trkpt lat="43.534475" lon="11.68011"><ele>245.0</ele><time>2026-05-02T09:52:11.955Z</time></trkpt><trkpt lat="43.5345483" lon="11.68018"><ele>244.66666666666669</ele><time>2026-05-02T09:52:12.954Z</time></trkpt><trkpt lat="43.5346217" lon="11.6802517"><ele>244.33333333333334</ele><time>2026-05-02T09:52:13.954Z</time></trkpt><trkpt lat="43.5346933" lon="11.680325"><ele>244.0</ele><time>2026-05-02T09:52:14.954Z</time></trkpt><trkpt lat="43.534765" lon="11.6803967"><ele>243.66666666666669</ele><time>2026-05-02T09:52:15.954Z</time></trkpt><trkpt lat="43.5348383" lon="11.6804717"><ele>243.33333333333334</ele><time>2026-05-02T09:52:16.955Z</time></trkpt><trkpt lat="43.53491" lon="11.6805467"><ele>243.0</ele><time>2026-05-02T09:52:17.956Z</time></trkpt><trkpt lat="43.53498" lon="11.6806133"><ele>242.5</ele><time>2026-05-02T09:52:18.955Z</time></trkpt><trkpt lat="43.5350517" lon="11.68068"><ele>242.0</ele><time>2026-05-02T09:52:19.955Z</time></trkpt><trkpt lat="43.53512" lon="11.680745"><ele>241.5</ele><time>2026-05-02T09:52:20.956Z</time></trkpt><trkpt lat="43.5351867" lon="11.6808133"><ele>241.0</ele><time>2026-05-02T09:52:21.953Z</time></trkpt><trkpt lat="43.535255" lon="11.6808733"><ele>240.5</ele><time>2026-05-02T09:52:22.952Z</time></trkpt><trkpt lat="43.5353233" lon="11.680935"><ele>240.0</ele><time>2026-05-02T09:52:23.954Z</time></trkpt><trkpt lat="43.5353867" lon="11.6809933"><ele>241.66666666666666</ele><time>2026-05-02T09:52:24.954Z</time></trkpt><trkpt lat="43.5354467" lon="11.6810533"><ele>243.33333333333331</ele><time>2026-05-02T09:52:25.955Z</time></trkpt><trkpt lat="43.5355017" lon="11.6811167"><ele>245.0</ele><time>2026-05-02T09:52:26.956Z</time></trkpt><trkpt lat="43.5355533" lon="11.6811783"><ele>246.66666666666666</ele><time>2026-05-02T09:52:27.953Z</time></trkpt><trkpt lat="43.5356333" lon="11.6813083"><ele>248.33333333333331</ele><time>2026-05-02T09:52:29.955Z</time></trkpt><trkpt lat="43.5356783" lon="11.6814317"><ele>250.0</ele><time>2026-05-02T09:52:31.955Z</time></trkpt><trkpt lat="43.5357267" lon="11.681555"><ele>250.0</ele><time>2026-05-02T09:52:33.953Z</time></trkpt><trkpt lat="43.5357883" lon="11.68169"><ele>250.0</ele><time>2026-05-02T09:52:35.954Z</time></trkpt><trkpt lat="43.5358433" lon="11.6818283"><ele>250.0</ele><time>2026-05-02T09:52:37.955Z</time></trkpt><trkpt lat="43.535895" lon="11.6819617"><ele>250.0</ele><time>2026-05-02T09:52:39.953Z</time></trkpt><trkpt lat="43.5359467" lon="11.6820933"><ele>250.0</ele><time>2026-05-02T09:52:41.954Z</time></trkpt><trkpt lat="43.5359917" lon="11.6822183"><ele>250.0</ele><time>2026-05-02T09:52:43.953Z</time></trkpt><trkpt lat="43.5360567" lon="11.6823433"><ele>250.0</ele><time>2026-05-02T09:52:45.954Z</time></trkpt><trkpt lat="43.5361433" lon="11.6824367"><ele>250.0</ele><time>2026-05-02T09:52:47.955Z</time></trkpt><trkpt lat="43.5362383" lon="11.68253"><ele>250.0</ele><time>2026-05-02T09:52:49.953Z</time></trkpt><trkpt lat="43.5363267" lon="11.6826383"><ele>250.66666666666666</ele><time>2026-05-02T09:52:51.953Z</time></trkpt><trkpt lat="43.5364133" lon="11.6827433"><ele>251.33333333333331</ele><time>2026-05-02T09:52:53.955Z</time></trkpt><trkpt lat="43.5365117" lon="11.6828517"><ele>252.0</ele><time>2026-05-02T09:52:55.955Z</time></trkpt><trkpt lat="43.5365667" lon="11.682905"><ele>252.66666666666669</ele><time>2026-05-02T09:52:56.954Z</time></trkpt><trkpt lat="43.5366217" lon="11.6829617"><ele>253.33333333333334</ele><time>2026-05-02T09:52:57.956Z</time></trkpt><trkpt lat="43.5366783" lon="11.6830233"><ele>254.0</ele><time>2026-05-02T09:52:58.954Z</time></trkpt><trkpt lat="43.5367367" lon="11.6830817"><ele>254.00000000000003</ele><time>2026-05-02T09:52:59.954Z</time></trkpt><trkpt lat="43.5367967" lon="11.68314"><ele>254.0</ele><time>2026-05-02T09:53:00.954Z</time></trkpt><trkpt lat="43.53686" lon="11.6832033"><ele>254.0</ele><time>2026-05-02T09:53:01.957Z</time></trkpt><trkpt lat="43.53692" lon="11.6832667"><ele>254.0</ele><time>2026-05-02T09:53:02.956Z</time></trkpt><trkpt lat="43.5369817" lon="11.683325"><ele>254.00000000000003</ele><time>2026-05-02T09:53:03.954Z</time></trkpt><trkpt lat="43.5370467" lon="11.683385"><ele>254.0</ele><time>2026-05-02T09:53:04.954Z</time></trkpt><trkpt lat="43.537115" lon="11.6834517"><ele>254.00000000000003</ele><time>2026-05-02T09:53:05.954Z</time></trkpt><trkpt lat="43.5371817" lon="11.68351"><ele>254.0</ele><time>2026-05-02T09:53:06.957Z</time></trkpt><trkpt lat="43.5372483" lon="11.6835733"><ele>254.0</ele><time>2026-05-02T09:53:07.954Z</time></trkpt><trkpt lat="43.5373133" lon="11.683635"><ele>254.0</ele><time>2026-05-02T09:53:08.956Z</time></trkpt><trkpt lat="43.537375" lon="11.6836933"><ele>254.00000000000003</ele><time>2026-05-02T09:53:09.954Z</time></trkpt><trkpt lat="43.537435" lon="11.6837533"><ele>254.0</ele><time>2026-05-02T09:53:10.955Z</time></trkpt><trkpt lat="43.5374933" lon="11.6838133"><ele>254.0</ele><time>2026-05-02T09:53:11.953Z</time></trkpt><trkpt lat="43.53755" lon="11.6838717"><ele>254.0</ele><time>2026-05-02T09:53:12.955Z</time></trkpt><trkpt lat="43.5376067" lon="11.6839283"><ele>254.0</ele><time>2026-05-02T09:53:13.956Z</time></trkpt><trkpt lat="43.537665" lon="11.6839867"><ele>254.0</ele><time>2026-05-02T09:53:14.956Z</time></trkpt><trkpt lat="43.537725" lon="11.6840433"><ele>254.0</ele><time>2026-05-02T09:53:15.955Z</time></trkpt><trkpt lat="43.5377833" lon="11.6840983"><ele>254.0</ele><time>2026-05-02T09:53:16.953Z</time></trkpt><trkpt lat="43.53784" lon="11.684155"><ele>254.0</ele><time>2026-05-02T09:53:17.953Z</time></trkpt><trkpt lat="43.5378917" lon="11.6842083"><ele>254.14285714285717</ele><time>2026-05-02T09:53:18.957Z</time></trkpt><trkpt lat="43.5379483" lon="11.6842617"><ele>254.28571428571428</ele><time>2026-05-02T09:53:19.955Z</time></trkpt><trkpt lat="43.5380033" lon="11.6843133"><ele>254.42857142857144</ele><time>2026-05-02T09:53:20.956Z</time></trkpt><trkpt lat="43.53806" lon="11.6843683"><ele>254.57142857142858</ele><time>2026-05-02T09:53:21.956Z</time></trkpt><trkpt lat="43.5381183" lon="11.684425"><ele>254.71428571428572</ele><time>2026-05-02T09:53:22.956Z</time></trkpt><trkpt lat="43.5381767" lon="11.68448"><ele>254.85714285714286</ele><time>2026-05-02T09:53:23.955Z</time></trkpt><trkpt lat="43.5382367" lon="11.684535"><ele>255.0</ele><time>2026-05-02T09:53:24.956Z</time></trkpt><trkpt lat="43.5382917" lon="11.6845867"><ele>255.0</ele><time>2026-05-02T09:53:25.957Z</time></trkpt><trkpt lat="43.5383517" lon="11.68464"><ele>255.00000000000003</ele><time>2026-05-02T09:53:26.957Z</time></trkpt><trkpt lat="43.53841" lon="11.6846867"><ele>255.0</ele><time>2026-05-02T09:53:27.955Z</time></trkpt><trkpt lat="43.5384717" lon="11.6847333"><ele>255.0</ele><time>2026-05-02T09:53:28.953Z</time></trkpt><trkpt lat="43.5385267" lon="11.6847783"><ele>255.00000000000003</ele><time>2026-05-02T09:53:29.954Z</time></trkpt><trkpt lat="43.538585" lon="11.68482"><ele>255.0</ele><time>2026-05-02T09:53:30.956Z</time></trkpt><trkpt lat="43.5386417" lon="11.6848667"><ele>255.0</ele><time>2026-05-02T09:53:31.955Z</time></trkpt><trkpt lat="43.5387" lon="11.6849117"><ele>255.2</ele><time>2026-05-02T09:53:32.955Z</time></trkpt><trkpt lat="43.5387583" lon="11.684955"><ele>255.4</ele><time>2026-05-02T09:53:33.956Z</time></trkpt><trkpt lat="43.5388717" lon="11.6850383"><ele>255.60000000000002</ele><time>2026-05-02T09:53:35.954Z</time></trkpt><trkpt lat="43.5389867" lon="11.6851183"><ele>255.8</ele><time>2026-05-02T09:53:37.954Z</time></trkpt><trkpt lat="43.539045" lon="11.68517"><ele>256.0</ele><time>2026-05-02T09:53:38.955Z</time></trkpt><trkpt lat="43.5391017" lon="11.685215"><ele>256.2857142857143</ele><time>2026-05-02T09:53:39.957Z</time></trkpt><trkpt lat="43.5391567" lon="11.6852633"><ele>256.57142857142856</ele><time>2026-05-02T09:53:40.952Z</time></trkpt><trkpt lat="43.5392117" lon="11.6853067"><ele>256.85714285714283</ele><time>2026-05-02T09:53:41.955Z</time></trkpt><trkpt lat="43.53927" lon="11.6853567"><ele>257.1428571428571</ele><time>2026-05-02T09:53:42.956Z</time></trkpt><trkpt lat="43.5393267" lon="11.6854033"><ele>257.42857142857144</ele><time>2026-05-02T09:53:43.954Z</time></trkpt><trkpt lat="43.5393833" lon="11.6854483"><ele>257.71428571428567</ele><time>2026-05-02T09:53:44.955Z</time></trkpt><trkpt lat="43.5394383" lon="11.6854967"><ele>258.0</ele><time>2026-05-02T09:53:45.955Z</time></trkpt><trkpt lat="43.539495" lon="11.68554"><ele>257.99999999999994</ele><time>2026-05-02T09:53:46.956Z</time></trkpt><trkpt lat="43.5395567" lon="11.685585"><ele>258.0</ele><time>2026-05-02T09:53:47.955Z</time></trkpt><trkpt lat="43.53962" lon="11.6856283"><ele>258.0</ele><time>2026-05-02T09:53:48.953Z</time></trkpt><trkpt lat="43.5396833" lon="11.6856683"><ele>258.0</ele><time>2026-05-02T09:53:49.957Z</time></trkpt><trkpt lat="43.5397467" lon="11.68571"><ele>258.0</ele><time>2026-05-02T09:53:50.955Z</time></trkpt><trkpt lat="43.5398033" lon="11.6857517"><ele>257.99999999999994</ele><time>2026-05-02T09:53:51.954Z</time></trkpt><trkpt lat="43.5398633" lon="11.6857967"><ele>258.0</ele><time>2026-05-02T09:53:52.953Z</time></trkpt><trkpt lat="43.5399233" lon="11.68584"><ele>257.99999999999994</ele><time>2026-05-02T09:53:53.953Z</time></trkpt><trkpt lat="43.5399833" lon="11.6858817"><ele>258.0</ele><time>2026-05-02T09:53:54.957Z</time></trkpt><trkpt lat="43.540045" lon="11.6859233"><ele>258.0</ele><time>2026-05-02T09:53:55.956Z</time></trkpt><trkpt lat="43.540105" lon="11.6859633"><ele>258.0</ele><time>2026-05-02T09:53:56.955Z</time></trkpt><trkpt lat="43.54017" lon="11.6859917"><ele>258.0</ele><time>2026-05-02T09:53:57.954Z</time></trkpt><trkpt lat="43.540235" lon="11.68601"><ele>257.99999999999994</ele><time>2026-05-02T09:53:58.953Z</time></trkpt><trkpt lat="43.5403" lon="11.6860133"><ele>258.0</ele><time>2026-05-02T09:53:59.958Z</time></trkpt><trkpt lat="43.54037" lon="11.6860167"><ele>257.99999999999994</ele><time>2026-05-02T09:54:00.953Z</time></trkpt><trkpt lat="43.5404383" lon="11.686025"><ele>258.0</ele><time>2026-05-02T09:54:01.956Z</time></trkpt><trkpt lat="43.5405083" lon="11.68604"><ele>258.0</ele><time>2026-05-02T09:54:02.956Z</time></trkpt><trkpt lat="43.540575" lon="11.6860567"><ele>258.0</ele><time>2026-05-02T09:54:03.956Z</time></trkpt><trkpt lat="43.54064" lon="11.6860767"><ele>258.0</ele><time>2026-05-02T09:54:04.955Z</time></trkpt><trkpt lat="43.5407067" lon="11.6861017"><ele>257.99999999999994</ele><time>2026-05-02T09:54:05.955Z</time></trkpt><trkpt lat="43.5407733" lon="11.686125"><ele>258.0</ele><time>2026-05-02T09:54:06.957Z</time></trkpt><trkpt lat="43.54084" lon="11.6861483"><ele>257.85714285714283</ele><time>2026-05-02T09:54:07.957Z</time></trkpt><trkpt lat="43.5409083" lon="11.6861733"><ele>257.7142857142857</ele><time>2026-05-02T09:54:08.955Z</time></trkpt><trkpt lat="43.5409733" lon="11.686195"><ele>257.57142857142856</ele><time>2026-05-02T09:54:09.955Z</time></trkpt><trkpt lat="43.5410433" lon="11.68622"><ele>257.42857142857144</ele><time>2026-05-02T09:54:10.955Z</time></trkpt><trkpt lat="43.5411133" lon="11.686235"><ele>257.2857142857143</ele><time>2026-05-02T09:54:11.953Z</time></trkpt><trkpt lat="43.5411833" lon="11.6862433"><ele>257.1428571428571</ele><time>2026-05-02T09:54:12.955Z</time></trkpt><trkpt lat="43.5412583" lon="11.68625"><ele>257.0</ele><time>2026-05-02T09:54:13.955Z</time></trkpt><trkpt lat="43.54133" lon="11.686245"><ele>256.1666666666667</ele><time>2026-05-02T09:54:14.955Z</time></trkpt><trkpt lat="43.5414033" lon="11.6862333"><ele>255.33333333333334</ele><time>2026-05-02T09:54:15.957Z</time></trkpt><trkpt lat="43.5414783" lon="11.6862183"><ele>254.5</ele><time>2026-05-02T09:54:16.954Z</time></trkpt><trkpt lat="43.5415483" lon="11.6862017"><ele>253.66666666666669</ele><time>2026-05-02T09:54:17.957Z</time></trkpt><trkpt lat="43.541625" lon="11.6861883"><ele>252.83333333333334</ele><time>2026-05-02T09:54:18.956Z</time></trkpt><trkpt lat="43.541705" lon="11.6861783"><ele>252.0</ele><time>2026-05-02T09:54:19.957Z</time></trkpt><trkpt lat="43.5417883" lon="11.686165"><ele>252.0</ele><time>2026-05-02T09:54:20.956Z</time></trkpt><trkpt lat="43.5418683" lon="11.68616"><ele>252.0</ele><time>2026-05-02T09:54:21.956Z</time></trkpt><trkpt lat="43.54195" lon="11.6861767"><ele>252.0</ele><time>2026-05-02T09:54:22.955Z</time></trkpt><trkpt lat="43.5420283" lon="11.68621"><ele>252.0</ele><time>2026-05-02T09:54:23.957Z</time></trkpt><trkpt lat="43.5421" lon="11.68626"><ele>252.0</ele><time>2026-05-02T09:54:24.955Z</time></trkpt><trkpt lat="43.5421633" lon="11.6863267"><ele>252.0</ele><time>2026-05-02T09:54:25.955Z</time></trkpt><trkpt lat="43.5422217" lon="11.6864"><ele>252.83333333333334</ele><time>2026-05-02T09:54:26.954Z</time></trkpt><trkpt lat="43.5422783" lon="11.686475"><ele>253.66666666666669</ele><time>2026-05-02T09:54:27.955Z</time></trkpt><trkpt lat="43.5423383" lon="11.686545"><ele>254.5</ele><time>2026-05-02T09:54:28.954Z</time></trkpt><trkpt lat="43.5424033" lon="11.68661"><ele>255.33333333333334</ele><time>2026-05-02T09:54:29.955Z</time></trkpt><trkpt lat="43.54247" lon="11.6866633"><ele>256.1666666666667</ele><time>2026-05-02T09:54:30.954Z</time></trkpt><trkpt lat="43.542535" lon="11.6867083"><ele>257.0</ele><time>2026-05-02T09:54:31.955Z</time></trkpt><trkpt lat="43.5426017" lon="11.6867517"><ele>257.0</ele><time>2026-05-02T09:54:32.954Z</time></trkpt><trkpt lat="43.54267" lon="11.6867883"><ele>257.0</ele><time>2026-05-02T09:54:33.956Z</time></trkpt><trkpt lat="43.5427367" lon="11.6868233"><ele>257.0</ele><time>2026-05-02T09:54:34.954Z</time></trkpt><trkpt lat="43.5428033" lon="11.6868517"><ele>257.0</ele><time>2026-05-02T09:54:35.955Z</time></trkpt><trkpt lat="43.5428667" lon="11.6868733"><ele>257.0</ele><time>2026-05-02T09:54:36.954Z</time></trkpt><trkpt lat="43.5429867" lon="11.6869167"><ele>257.0</ele><time>2026-05-02T09:54:38.952Z</time></trkpt><trkpt lat="43.5431033" lon="11.6869517"><ele>257.75</ele><time>2026-05-02T09:54:40.955Z</time></trkpt><trkpt lat="43.5432133" lon="11.6869883"><ele>258.5</ele><time>2026-05-02T09:54:42.955Z</time></trkpt><trkpt lat="43.5433283" lon="11.687025"><ele>259.25</ele><time>2026-05-02T09:54:44.955Z</time></trkpt><trkpt lat="43.54344" lon="11.68705"><ele>260.0</ele><time>2026-05-02T09:54:46.953Z</time></trkpt><trkpt lat="43.5435483" lon="11.6870767"><ele>260.0</ele><time>2026-05-02T09:54:48.955Z</time></trkpt><trkpt lat="43.5436633" lon="11.6871133"><ele>260.0</ele><time>2026-05-02T09:54:50.954Z</time></trkpt><trkpt lat="43.543775" lon="11.6871467"><ele>260.0</ele><time>2026-05-02T09:54:52.955Z</time></trkpt><trkpt lat="43.5438833" lon="11.6871783"><ele>260.0</ele><time>2026-05-02T09:54:54.955Z</time></trkpt><trkpt lat="43.5439917" lon="11.6872117"><ele>260.2</ele><time>2026-05-02T09:54:56.954Z</time></trkpt><trkpt lat="43.5441017" lon="11.68725"><ele>260.4</ele><time>2026-05-02T09:54:58.954Z</time></trkpt><trkpt lat="43.5442067" lon="11.6872783"><ele>260.6</ele><time>2026-05-02T09:55:00.953Z</time></trkpt><trkpt lat="43.544305" lon="11.6872967"><ele>260.8</ele><time>2026-05-02T09:55:02.955Z</time></trkpt><trkpt lat="43.544395" lon="11.6873167"><ele>261.0</ele><time>2026-05-02T09:55:04.954Z</time></trkpt><trkpt lat="43.5444683" lon="11.6873333"><ele>260.6666666666667</ele><time>2026-05-02T09:55:06.958Z</time></trkpt><trkpt lat="43.544555" lon="11.6873267"><ele>260.3333333333333</ele><time>2026-05-02T09:55:09.954Z</time></trkpt><trkpt lat="43.544625" lon="11.68733"><ele>260.0</ele><time>2026-05-02T09:55:51.953Z</time></trkpt><trkpt lat="43.5446933" lon="11.6872833"><ele>259.66666666666663</ele><time>2026-05-02T09:55:55.954Z</time></trkpt><trkpt lat="43.5447633" lon="11.6872317"><ele>259.3333333333333</ele><time>2026-05-02T09:55:58.952Z</time></trkpt><trkpt lat="43.54482" lon="11.6871833"><ele>259.0</ele><time>2026-05-02T09:56:00.955Z</time></trkpt><trkpt lat="43.5449033" lon="11.687135"><ele>259.0</ele><time>2026-05-02T09:56:03.953Z</time></trkpt><trkpt lat="43.5449733" lon="11.6871167"><ele>259.0</ele><time>2026-05-02T09:56:05.955Z</time></trkpt><trkpt lat="43.5450383" lon="11.6871167"><ele>259.0</ele><time>2026-05-02T09:56:07.954Z</time></trkpt><trkpt lat="43.5451133" lon="11.6871333"><ele>259.0</ele><time>2026-05-02T09:56:09.955Z</time></trkpt><trkpt lat="43.5451933" lon="11.687155"><ele>259.0</ele><time>2026-05-02T09:56:11.953Z</time></trkpt><trkpt lat="43.545275" lon="11.6871767"><ele>259.0</ele><time>2026-05-02T09:56:13.954Z</time></trkpt><trkpt lat="43.5453633" lon="11.6872"><ele>260.4</ele><time>2026-05-02T09:56:15.953Z</time></trkpt><trkpt lat="43.54545" lon="11.6872183"><ele>261.79999999999995</ele><time>2026-05-02T09:56:17.955Z</time></trkpt><trkpt lat="43.54554" lon="11.68722"><ele>263.20000000000005</ele><time>2026-05-02T09:56:19.957Z</time></trkpt><trkpt lat="43.5456317" lon="11.687215"><ele>264.6</ele><time>2026-05-02T09:56:21.954Z</time></trkpt><trkpt lat="43.545725" lon="11.687215"><ele>266.0</ele><time>2026-05-02T09:56:23.955Z</time></trkpt><trkpt lat="43.54582" lon="11.687225"><ele>266.0</ele><time>2026-05-02T09:56:25.953Z</time></trkpt><trkpt lat="43.5459083" lon="11.687285"><ele>266.0</ele><time>2026-05-02T09:56:27.954Z</time></trkpt><trkpt lat="43.54599" lon="11.6873717"><ele>266.0</ele><time>2026-05-02T09:56:29.954Z</time></trkpt><trkpt lat="43.5460733" lon="11.68744"><ele>266.0</ele><time>2026-05-02T09:56:31.955Z</time></trkpt><trkpt lat="43.5461617" lon="11.6875067"><ele>266.0</ele><time>2026-05-02T09:56:33.952Z</time></trkpt><trkpt lat="43.5462517" lon="11.6875767"><ele>266.40000000000003</ele><time>2026-05-02T09:56:35.954Z</time></trkpt><trkpt lat="43.54634" lon="11.6876433"><ele>266.8</ele><time>2026-05-02T09:56:37.955Z</time></trkpt><trkpt lat="43.546425" lon="11.687705"><ele>267.20000000000005</ele><time>2026-05-02T09:56:39.954Z</time></trkpt><trkpt lat="43.5465067" lon="11.687765"><ele>267.6</ele><time>2026-05-02T09:56:41.955Z</time></trkpt><trkpt lat="43.5465917" lon="11.6878283"><ele>268.0</ele><time>2026-05-02T09:56:43.955Z</time></trkpt><trkpt lat="43.546675" lon="11.6878967"><ele>268.0</ele><time>2026-05-02T09:56:45.955Z</time></trkpt><trkpt lat="43.5467667" lon="11.6879633"><ele>268.0</ele><time>2026-05-02T09:56:47.955Z</time></trkpt><trkpt lat="43.546855" lon="11.6880217"><ele>268.0</ele><time>2026-05-02T09:56:49.954Z</time></trkpt><trkpt lat="43.546935" lon="11.68807"><ele>268.0</ele><time>2026-05-02T09:56:51.954Z</time></trkpt><trkpt lat="43.5470167" lon="11.688125"><ele>268.0</ele><time>2026-05-02T09:56:53.954Z</time></trkpt><trkpt lat="43.5471" lon="11.688185"><ele>269.0</ele><time>2026-05-02T09:56:55.955Z</time></trkpt><trkpt lat="43.5471867" lon="11.6882483"><ele>270.0</ele><time>2026-05-02T09:56:57.955Z</time></trkpt><trkpt lat="43.547275" lon="11.6883117"><ele>271.0</ele><time>2026-05-02T09:56:59.956Z</time></trkpt><trkpt lat="43.5473667" lon="11.6883817"><ele>272.0</ele><time>2026-05-02T09:57:01.955Z</time></trkpt><trkpt lat="43.54746" lon="11.6884483"><ele>273.0</ele><time>2026-05-02T09:57:03.954Z</time></trkpt><trkpt lat="43.5475483" lon="11.6885117"><ele>273.0</ele><time>2026-05-02T09:57:05.954Z</time></trkpt><trkpt lat="43.5476383" lon="11.6885767"><ele>273.0</ele><time>2026-05-02T09:57:07.956Z</time></trkpt><trkpt lat="43.5477267" lon="11.688635"><ele>273.0</ele><time>2026-05-02T09:57:09.955Z</time></trkpt><trkpt lat="43.5478167" lon="11.6886767"><ele>273.0</ele><time>2026-05-02T09:57:11.955Z</time></trkpt><trkpt lat="43.5479083" lon="11.68871"><ele>273.0</ele><time>2026-05-02T09:57:13.954Z</time></trkpt><trkpt lat="43.5480033" lon="11.68875"><ele>273.4</ele><time>2026-05-02T09:57:15.954Z</time></trkpt><trkpt lat="43.5480917" lon="11.6888083"><ele>273.8</ele><time>2026-05-02T09:57:17.955Z</time></trkpt><trkpt lat="43.54818" lon="11.68887"><ele>274.2</ele><time>2026-05-02T09:57:19.956Z</time></trkpt><trkpt lat="43.5482633" lon="11.6889283"><ele>274.6</ele><time>2026-05-02T09:57:21.955Z</time></trkpt><trkpt lat="43.5483467" lon="11.6889933"><ele>275.0</ele><time>2026-05-02T09:57:23.956Z</time></trkpt><trkpt lat="43.54843" lon="11.68907"><ele>275.0</ele><time>2026-05-02T09:57:25.954Z</time></trkpt><trkpt lat="43.5485017" lon="11.6891667"><ele>275.0</ele><time>2026-05-02T09:57:27.954Z</time></trkpt><trkpt lat="43.5485767" lon="11.6892483"><ele>275.0</ele><time>2026-05-02T09:57:29.956Z</time></trkpt><trkpt lat="43.5486583" lon="11.6893133"><ele>275.0</ele><time>2026-05-02T09:57:31.954Z</time></trkpt><trkpt lat="43.548745" lon="11.68938"><ele>275.0</ele><time>2026-05-02T09:57:33.954Z</time></trkpt><trkpt lat="43.5488317" lon="11.6894417"><ele>276.0</ele><time>2026-05-02T09:57:35.953Z</time></trkpt><trkpt lat="43.5489217" lon="11.6895017"><ele>277.0</ele><time>2026-05-02T09:57:37.954Z</time></trkpt><trkpt lat="43.5490067" lon="11.6895567"><ele>278.0</ele><time>2026-05-02T09:57:39.954Z</time></trkpt><trkpt lat="43.5490917" lon="11.6896167"><ele>279.0</ele><time>2026-05-02T09:57:41.955Z</time></trkpt><trkpt lat="43.54918" lon="11.689675"><ele>280.0</ele><time>2026-05-02T09:57:43.953Z</time></trkpt><trkpt lat="43.5492683" lon="11.689735"><ele>280.0</ele><time>2026-05-02T09:57:45.956Z</time></trkpt><trkpt lat="43.5493483" lon="11.6897917"><ele>280.0</ele><time>2026-05-02T09:57:47.955Z</time></trkpt><trkpt lat="43.5494183" lon="11.6898367"><ele>280.0</ele><time>2026-05-02T09:57:49.955Z</time></trkpt><trkpt lat="43.5494917" lon="11.689885"><ele>280.0</ele><time>2026-05-02T09:57:51.953Z</time></trkpt><trkpt lat="43.5495633" lon="11.689925"><ele>280.0</ele><time>2026-05-02T09:57:53.953Z</time></trkpt><trkpt lat="43.5496317" lon="11.6899667"><ele>280.0</ele><time>2026-05-02T09:57:55.956Z</time></trkpt><trkpt lat="43.54969" lon="11.69"><ele>281.0</ele><time>2026-05-02T09:57:57.951Z</time></trkpt><trkpt lat="43.549755" lon="11.69003"><ele>282.0</ele><time>2026-05-02T09:57:59.951Z</time></trkpt><trkpt lat="43.549825" lon="11.6900683"><ele>283.0</ele><time>2026-05-02T09:58:01.953Z</time></trkpt><trkpt lat="43.5499067" lon="11.6901183"><ele>284.0</ele><time>2026-05-02T09:58:03.952Z</time></trkpt><trkpt lat="43.5499833" lon="11.690165"><ele>285.0</ele><time>2026-05-02T09:58:05.952Z</time></trkpt><trkpt lat="43.550055" lon="11.69022"><ele>286.0</ele><time>2026-05-02T09:58:07.952Z</time></trkpt><trkpt lat="43.5501283" lon="11.69027"><ele>286.5</ele><time>2026-05-02T09:58:09.954Z</time></trkpt><trkpt lat="43.550195" lon="11.6903267"><ele>287.0</ele><time>2026-05-02T09:58:11.952Z</time></trkpt><trkpt lat="43.55026" lon="11.6903817"><ele>287.5</ele><time>2026-05-02T09:58:13.955Z</time></trkpt><trkpt lat="43.550315" lon="11.6904517"><ele>288.0</ele><time>2026-05-02T09:58:15.954Z</time></trkpt><trkpt lat="43.55037" lon="11.69052"><ele>288.5</ele><time>2026-05-02T09:58:17.952Z</time></trkpt><trkpt lat="43.5504167" lon="11.690595"><ele>289.0</ele><time>2026-05-02T09:58:19.953Z</time></trkpt><trkpt lat="43.550465" lon="11.6906883"><ele>291.2</ele><time>2026-05-02T09:58:22.953Z</time></trkpt><trkpt lat="43.5505267" lon="11.6908283"><ele>293.4</ele><time>2026-05-02T09:58:35.952Z</time></trkpt><trkpt lat="43.55059" lon="11.6907967"><ele>295.6</ele><time>2026-05-02T09:58:38.953Z</time></trkpt><trkpt lat="43.550655" lon="11.6907333"><ele>297.8</ele><time>2026-05-02T09:58:40.953Z</time></trkpt><trkpt lat="43.5507533" lon="11.69067"><ele>300.0</ele><time>2026-05-02T09:58:42.953Z</time></trkpt><trkpt lat="43.5508617" lon="11.6906167"><ele>300.0</ele><time>2026-05-02T09:58:44.954Z</time></trkpt><trkpt lat="43.5509783" lon="11.69056"><ele>300.0</ele><time>2026-05-02T09:58:46.953Z</time></trkpt><trkpt lat="43.5510383" lon="11.69053"><ele>300.0</ele><time>2026-05-02T09:58:47.956Z</time></trkpt><trkpt lat="43.5510983" lon="11.6904933"><ele>300.0</ele><time>2026-05-02T09:58:48.953Z</time></trkpt><trkpt lat="43.5511567" lon="11.6904517"><ele>300.0</ele><time>2026-05-02T09:58:49.954Z</time></trkpt><trkpt lat="43.55121" lon="11.690395"><ele>300.0</ele><time>2026-05-02T09:58:50.954Z</time></trkpt><trkpt lat="43.551255" lon="11.6903267"><ele>300.85714285714283</ele><time>2026-05-02T09:58:51.954Z</time></trkpt><trkpt lat="43.5512833" lon="11.6902433"><ele>301.7142857142857</ele><time>2026-05-02T09:58:52.952Z</time></trkpt><trkpt lat="43.5513" lon="11.6901533"><ele>302.57142857142856</ele><time>2026-05-02T09:58:53.954Z</time></trkpt><trkpt lat="43.5513033" lon="11.6900617"><ele>303.42857142857144</ele><time>2026-05-02T09:58:54.955Z</time></trkpt><trkpt lat="43.551295" lon="11.68997"><ele>304.2857142857143</ele><time>2026-05-02T09:58:55.954Z</time></trkpt><trkpt lat="43.5512733" lon="11.6898867"><ele>305.1428571428571</ele><time>2026-05-02T09:58:56.955Z</time></trkpt><trkpt lat="43.5512517" lon="11.6898"><ele>306.0</ele><time>2026-05-02T09:58:57.953Z</time></trkpt><trkpt lat="43.55124" lon="11.6897017"><ele>306.0</ele><time>2026-05-02T09:58:58.955Z</time></trkpt><trkpt lat="43.5512383" lon="11.6896"><ele>306.0</ele><time>2026-05-02T09:58:59.955Z</time></trkpt><trkpt lat="43.551245" lon="11.6895"><ele>306.0</ele><time>2026-05-02T09:59:00.954Z</time></trkpt><trkpt lat="43.5512583" lon="11.6894017"><ele>306.0</ele><time>2026-05-02T09:59:01.954Z</time></trkpt><trkpt lat="43.55128" lon="11.6893017"><ele>306.0</ele><time>2026-05-02T09:59:02.954Z</time></trkpt><trkpt lat="43.551305" lon="11.6892033"><ele>306.0</ele><time>2026-05-02T09:59:03.953Z</time></trkpt><trkpt lat="43.55133" lon="11.689105"><ele>306.0</ele><time>2026-05-02T09:59:04.953Z</time></trkpt><trkpt lat="43.5513567" lon="11.6890083"><ele>305.0</ele><time>2026-05-02T09:59:05.955Z</time></trkpt><trkpt lat="43.5513867" lon="11.688905"><ele>304.0</ele><time>2026-05-02T09:59:06.955Z</time></trkpt><trkpt lat="43.55142" lon="11.688795"><ele>303.0</ele><time>2026-05-02T09:59:07.954Z</time></trkpt><trkpt lat="43.5514533" lon="11.68869"><ele>302.0</ele><time>2026-05-02T09:59:08.954Z</time></trkpt><trkpt lat="43.5514883" lon="11.6885833"><ele>301.0</ele><time>2026-05-02T09:59:09.953Z</time></trkpt><trkpt lat="43.551525" lon="11.6884783"><ele>300.0</ele><time>2026-05-02T09:59:10.953Z</time></trkpt><trkpt lat="43.5515667" lon="11.6883733"><ele>299.0</ele><time>2026-05-02T09:59:11.951Z</time></trkpt><trkpt lat="43.5516133" lon="11.688275"><ele>298.0</ele><time>2026-05-02T09:59:12.954Z</time></trkpt><trkpt lat="43.5516633" lon="11.6881783"><ele>297.0</ele><time>2026-05-02T09:59:13.953Z</time></trkpt><trkpt lat="43.5517167" lon="11.6880833"><ele>296.0</ele><time>2026-05-02T09:59:14.957Z</time></trkpt><trkpt lat="43.5517683" lon="11.6879983"><ele>295.0</ele><time>2026-05-02T09:59:15.955Z</time></trkpt><trkpt lat="43.5518233" lon="11.6879133"><ele>294.0</ele><time>2026-05-02T09:59:16.954Z</time></trkpt><trkpt lat="43.551875" lon="11.68783"><ele>293.5</ele><time>2026-05-02T09:59:17.953Z</time></trkpt><trkpt lat="43.5519283" lon="11.687745"><ele>293.0</ele><time>2026-05-02T09:59:18.953Z</time></trkpt><trkpt lat="43.5519833" lon="11.687665"><ele>292.5</ele><time>2026-05-02T09:59:19.952Z</time></trkpt><trkpt lat="43.55204" lon="11.687585"><ele>292.0</ele><time>2026-05-02T09:59:20.954Z</time></trkpt><trkpt lat="43.5520983" lon="11.68751"><ele>291.5</ele><time>2026-05-02T09:59:21.954Z</time></trkpt><trkpt lat="43.5521533" lon="11.6874383"><ele>291.0</ele><time>2026-05-02T09:59:22.955Z</time></trkpt><trkpt lat="43.5522083" lon="11.6873633"><ele>291.42857142857144</ele><time>2026-05-02T09:59:23.952Z</time></trkpt><trkpt lat="43.55226" lon="11.687285"><ele>291.85714285714283</ele><time>2026-05-02T09:59:24.953Z</time></trkpt><trkpt lat="43.55231" lon="11.6872083"><ele>292.2857142857143</ele><time>2026-05-02T09:59:25.953Z</time></trkpt><trkpt lat="43.5523517" lon="11.68713"><ele>292.7142857142857</ele><time>2026-05-02T09:59:26.953Z</time></trkpt><trkpt lat="43.5523917" lon="11.6870467"><ele>293.1428571428571</ele><time>2026-05-02T09:59:27.955Z</time></trkpt><trkpt lat="43.5524233" lon="11.686955"><ele>293.57142857142856</ele><time>2026-05-02T09:59:28.954Z</time></trkpt><trkpt lat="43.55245" lon="11.6868617"><ele>294.0</ele><time>2026-05-02T09:59:29.953Z</time></trkpt><trkpt lat="43.5524717" lon="11.6867583"><ele>294.0</ele><time>2026-05-02T09:59:30.955Z</time></trkpt><trkpt lat="43.5524833" lon="11.6866533"><ele>294.0</ele><time>2026-05-02T09:59:31.954Z</time></trkpt><trkpt lat="43.5524917" lon="11.6865483"><ele>294.0</ele><time>2026-05-02T09:59:32.952Z</time></trkpt><trkpt lat="43.5525017" lon="11.6864417"><ele>294.0</ele><time>2026-05-02T09:59:33.953Z</time></trkpt><trkpt lat="43.552515" lon="11.6863417"><ele>294.0</ele><time>2026-05-02T09:59:34.954Z</time></trkpt><trkpt lat="43.5525417" lon="11.6862433"><ele>294.0</ele><time>2026-05-02T09:59:35.953Z</time></trkpt><trkpt lat="43.5525783" lon="11.6861517"><ele>293.7142857142857</ele><time>2026-05-02T09:59:36.955Z</time></trkpt><trkpt lat="43.5526233" lon="11.6860733"><ele>293.42857142857144</ele><time>2026-05-02T09:59:37.956Z</time></trkpt><trkpt lat="43.5526667" lon="11.68601"><ele>293.1428571428571</ele><time>2026-05-02T09:59:38.954Z</time></trkpt><trkpt lat="43.5527167" lon="11.6859417"><ele>292.8571428571429</ele><time>2026-05-02T09:59:39.953Z</time></trkpt><trkpt lat="43.552765" lon="11.6858733"><ele>292.57142857142856</ele><time>2026-05-02T09:59:40.954Z</time></trkpt><trkpt lat="43.5528117" lon="11.6858"><ele>292.2857142857143</ele><time>2026-05-02T09:59:41.953Z</time></trkpt><trkpt lat="43.5528583" lon="11.6857233"><ele>292.0</ele><time>2026-05-02T09:59:42.953Z</time></trkpt><trkpt lat="43.5529" lon="11.685645"><ele>293.1428571428571</ele><time>2026-05-02T09:59:43.953Z</time></trkpt><trkpt lat="43.55294" lon="11.685565"><ele>294.2857142857143</ele><time>2026-05-02T09:59:44.953Z</time></trkpt><trkpt lat="43.5529783" lon="11.6854817"><ele>295.42857142857144</ele><time>2026-05-02T09:59:45.953Z</time></trkpt><trkpt lat="43.5530167" lon="11.6854017"><ele>296.57142857142856</ele><time>2026-05-02T09:59:46.953Z</time></trkpt><trkpt lat="43.5530533" lon="11.68532"><ele>297.7142857142857</ele><time>2026-05-02T09:59:47.953Z</time></trkpt><trkpt lat="43.55309" lon="11.6852383"><ele>298.85714285714283</ele><time>2026-05-02T09:59:48.953Z</time></trkpt><trkpt lat="43.5531233" lon="11.6851617"><ele>300.0</ele><time>2026-05-02T09:59:49.954Z</time></trkpt><trkpt lat="43.5531583" lon="11.685085"><ele>300.0</ele><time>2026-05-02T09:59:50.954Z</time></trkpt><trkpt lat="43.55322" lon="11.6849417"><ele>300.0</ele><time>2026-05-02T09:59:52.954Z</time></trkpt><trkpt lat="43.5532567" lon="11.6848667"><ele>300.0</ele><time>2026-05-02T09:59:53.954Z</time></trkpt><trkpt lat="43.5533233" lon="11.6847283"><ele>300.0</ele><time>2026-05-02T09:59:55.954Z</time></trkpt><trkpt lat="43.5534117" lon="11.6846017"><ele>300.0</ele><time>2026-05-02T09:59:57.953Z</time></trkpt><trkpt lat="43.5534633" lon="11.6845417"><ele>299.99999999999994</ele><time>2026-05-02T09:59:58.954Z</time></trkpt><trkpt lat="43.5535133" lon="11.6844817"><ele>300.0</ele><time>2026-05-02T09:59:59.953Z</time></trkpt><trkpt lat="43.5535683" lon="11.6844217"><ele>300.0</ele><time>2026-05-02T10:00:00.953Z</time></trkpt><trkpt lat="43.5536233" lon="11.6843617"><ele>300.0</ele><time>2026-05-02T10:00:01.952Z</time></trkpt><trkpt lat="43.55368" lon="11.6843"><ele>300.0</ele><time>2026-05-02T10:00:02.952Z</time></trkpt><trkpt lat="43.553735" lon="11.68424"><ele>299.99999999999994</ele><time>2026-05-02T10:00:03.952Z</time></trkpt><trkpt lat="43.5537917" lon="11.6841817"><ele>300.0</ele><time>2026-05-02T10:00:04.953Z</time></trkpt><trkpt lat="43.5538467" lon="11.6841217"><ele>300.57142857142856</ele><time>2026-05-02T10:00:05.955Z</time></trkpt><trkpt lat="43.5539017" lon="11.68406"><ele>301.1428571428571</ele><time>2026-05-02T10:00:06.952Z</time></trkpt><trkpt lat="43.55395" lon="11.6840033"><ele>301.71428571428567</ele><time>2026-05-02T10:00:07.953Z</time></trkpt><trkpt lat="43.5539983" lon="11.6839433"><ele>302.2857142857143</ele><time>2026-05-02T10:00:08.955Z</time></trkpt><trkpt lat="43.55405" lon="11.6838783"><ele>302.8571428571429</ele><time>2026-05-02T10:00:09.954Z</time></trkpt><trkpt lat="43.5541017" lon="11.68381"><ele>303.4285714285714</ele><time>2026-05-02T10:00:10.954Z</time></trkpt><trkpt lat="43.5541483" lon="11.6837367"><ele>304.0</ele><time>2026-05-02T10:00:11.952Z</time></trkpt><trkpt lat="43.55419" lon="11.6836583"><ele>302.3333333333333</ele><time>2026-05-02T10:00:12.954Z</time></trkpt><trkpt lat="43.5542267" lon="11.6835717"><ele>300.66666666666663</ele><time>2026-05-02T10:00:13.954Z</time></trkpt><trkpt lat="43.5542567" lon="11.68348"><ele>299.0</ele><time>2026-05-02T10:00:14.955Z</time></trkpt><trkpt lat="43.554285" lon="11.683385"><ele>297.3333333333333</ele><time>2026-05-02T10:00:15.953Z</time></trkpt><trkpt lat="43.5543167" lon="11.68328"><ele>295.6666666666667</ele><time>2026-05-02T10:00:16.952Z</time></trkpt><trkpt lat="43.5543467" lon="11.68318"><ele>294.0</ele><time>2026-05-02T10:00:17.955Z</time></trkpt><trkpt lat="43.554375" lon="11.6830817"><ele>294.0</ele><time>2026-05-02T10:00:18.955Z</time></trkpt><trkpt lat="43.5544" lon="11.6829833"><ele>294.0</ele><time>2026-05-02T10:00:19.953Z</time></trkpt><trkpt lat="43.554425" lon="11.682885"><ele>294.0</ele><time>2026-05-02T10:00:20.953Z</time></trkpt><trkpt lat="43.55445" lon="11.6827883"><ele>294.0</ele><time>2026-05-02T10:00:21.955Z</time></trkpt><trkpt lat="43.5544767" lon="11.6826883"><ele>294.0</ele><time>2026-05-02T10:00:22.953Z</time></trkpt><trkpt lat="43.5545033" lon="11.6825867"><ele>294.0</ele><time>2026-05-02T10:00:23.955Z</time></trkpt><trkpt lat="43.55453" lon="11.6824867"><ele>294.5</ele><time>2026-05-02T10:00:24.953Z</time></trkpt><trkpt lat="43.5545567" lon="11.6823867"><ele>295.0</ele><time>2026-05-02T10:00:25.956Z</time></trkpt><trkpt lat="43.554585" lon="11.6822883"><ele>295.5</ele><time>2026-05-02T10:00:26.957Z</time></trkpt><trkpt lat="43.5546117" lon="11.6821883"><ele>296.0</ele><time>2026-05-02T10:00:27.954Z</time></trkpt><trkpt lat="43.5546383" lon="11.682085"><ele>296.5</ele><time>2026-05-02T10:00:28.955Z</time></trkpt><trkpt lat="43.554665" lon="11.6819817"><ele>297.0</ele><time>2026-05-02T10:00:29.954Z</time></trkpt><trkpt lat="43.55469" lon="11.6818867"><ele>297.0</ele><time>2026-05-02T10:00:30.955Z</time></trkpt><trkpt lat="43.554715" lon="11.6817883"><ele>297.0</ele><time>2026-05-02T10:00:31.955Z</time></trkpt><trkpt lat="43.5547417" lon="11.6816883"><ele>297.0</ele><time>2026-05-02T10:00:32.957Z</time></trkpt><trkpt lat="43.5547667" lon="11.6815883"><ele>297.0</ele><time>2026-05-02T10:00:33.954Z</time></trkpt><trkpt lat="43.5547933" lon="11.6814883"><ele>297.0</ele><time>2026-05-02T10:00:34.954Z</time></trkpt><trkpt lat="43.5548167" lon="11.6813933"><ele>297.0</ele><time>2026-05-02T10:00:35.953Z</time></trkpt><trkpt lat="43.554845" lon="11.6812933"><ele>297.0</ele><time>2026-05-02T10:00:36.954Z</time></trkpt><trkpt lat="43.5548767" lon="11.6811917"><ele>297.0</ele><time>2026-05-02T10:00:37.955Z</time></trkpt><trkpt lat="43.554915" lon="11.6810983"><ele>297.0</ele><time>2026-05-02T10:00:38.954Z</time></trkpt><trkpt lat="43.5549583" lon="11.68101"><ele>297.0</ele><time>2026-05-02T10:00:39.954Z</time></trkpt><trkpt lat="43.5550083" lon="11.680925"><ele>297.0</ele><time>2026-05-02T10:00:40.955Z</time></trkpt><trkpt lat="43.5550633" lon="11.68085"><ele>297.0</ele><time>2026-05-02T10:00:41.954Z</time></trkpt><trkpt lat="43.5551233" lon="11.6807817"><ele>296.3333333333333</ele><time>2026-05-02T10:00:42.955Z</time></trkpt><trkpt lat="43.5551917" lon="11.680725"><ele>295.6666666666667</ele><time>2026-05-02T10:00:43.954Z</time></trkpt><trkpt lat="43.5552617" lon="11.68068"><ele>295.0</ele><time>2026-05-02T10:00:44.954Z</time></trkpt><trkpt lat="43.5553317" lon="11.6806483"><ele>294.33333333333337</ele><time>2026-05-02T10:00:45.954Z</time></trkpt><trkpt lat="43.5554033" lon="11.6806217"><ele>293.6666666666667</ele><time>2026-05-02T10:00:46.955Z</time></trkpt><trkpt lat="43.5554767" lon="11.6805967"><ele>293.0</ele><time>2026-05-02T10:00:47.952Z</time></trkpt><trkpt lat="43.5555483" lon="11.68057"><ele>292.99999999999994</ele><time>2026-05-02T10:00:48.953Z</time></trkpt><trkpt lat="43.55562" lon="11.68053"><ele>293.0</ele><time>2026-05-02T10:00:49.954Z</time></trkpt><trkpt lat="43.5556867" lon="11.6804817"><ele>293.0</ele><time>2026-05-02T10:00:50.954Z</time></trkpt><trkpt lat="43.55575" lon="11.6804233"><ele>293.0</ele><time>2026-05-02T10:00:51.954Z</time></trkpt><trkpt lat="43.5558083" lon="11.68036"><ele>293.0</ele><time>2026-05-02T10:00:52.951Z</time></trkpt><trkpt lat="43.55586" lon="11.68029"><ele>292.99999999999994</ele><time>2026-05-02T10:00:53.955Z</time></trkpt><trkpt lat="43.555905" lon="11.6802117"><ele>293.0</ele><time>2026-05-02T10:00:54.953Z</time></trkpt><trkpt lat="43.5559417" lon="11.680125"><ele>292.4285714285714</ele><time>2026-05-02T10:00:55.956Z</time></trkpt><trkpt lat="43.55597" lon="11.6800317"><ele>291.85714285714283</ele><time>2026-05-02T10:00:56.954Z</time></trkpt><trkpt lat="43.55599" lon="11.679935"><ele>291.2857142857143</ele><time>2026-05-02T10:00:57.954Z</time></trkpt><trkpt lat="43.556005" lon="11.679835"><ele>290.71428571428567</ele><time>2026-05-02T10:00:58.954Z</time></trkpt><trkpt lat="43.5560167" lon="11.679735"><ele>290.1428571428571</ele><time>2026-05-02T10:00:59.956Z</time></trkpt><trkpt lat="43.5560233" lon="11.6796317"><ele>289.57142857142856</ele><time>2026-05-02T10:01:00.955Z</time></trkpt><trkpt lat="43.5560283" lon="11.6795333"><ele>289.0</ele><time>2026-05-02T10:01:01.953Z</time></trkpt><trkpt lat="43.5560317" lon="11.67944"><ele>289.2857142857143</ele><time>2026-05-02T10:01:02.955Z</time></trkpt><trkpt lat="43.5560367" lon="11.67934"><ele>289.57142857142856</ele><time>2026-05-02T10:01:03.957Z</time></trkpt><trkpt lat="43.5560467" lon="11.6792383"><ele>289.85714285714283</ele><time>2026-05-02T10:01:04.954Z</time></trkpt><trkpt lat="43.5560617" lon="11.6791467"><ele>290.1428571428571</ele><time>2026-05-02T10:01:05.954Z</time></trkpt><trkpt lat="43.55609" lon="11.6790567"><ele>290.4285714285714</ele><time>2026-05-02T10:01:06.957Z</time></trkpt><trkpt lat="43.5561233" lon="11.6789783"><ele>290.7142857142857</ele><time>2026-05-02T10:01:07.956Z</time></trkpt><trkpt lat="43.55616" lon="11.6789017"><ele>291.0</ele><time>2026-05-02T10:01:08.955Z</time></trkpt><trkpt lat="43.5562067" lon="11.6788267"><ele>291.85714285714283</ele><time>2026-05-02T10:01:09.957Z</time></trkpt><trkpt lat="43.556255" lon="11.6787533"><ele>292.71428571428567</ele><time>2026-05-02T10:01:10.954Z</time></trkpt><trkpt lat="43.556305" lon="11.6786867"><ele>293.57142857142856</ele><time>2026-05-02T10:01:11.952Z</time></trkpt><trkpt lat="43.5563583" lon="11.6786183"><ele>294.42857142857144</ele><time>2026-05-02T10:01:12.953Z</time></trkpt><trkpt lat="43.5564083" lon="11.6785567"><ele>295.28571428571433</ele><time>2026-05-02T10:01:13.955Z</time></trkpt><trkpt lat="43.55646" lon="11.6785017"><ele>296.14285714285717</ele><time>2026-05-02T10:01:14.954Z</time></trkpt><trkpt lat="43.556515" lon="11.6784433"><ele>297.0</ele><time>2026-05-02T10:01:15.955Z</time></trkpt><trkpt lat="43.5565683" lon="11.6783867"><ele>297.0</ele><time>2026-05-02T10:01:16.952Z</time></trkpt><trkpt lat="43.5566233" lon="11.6783267"><ele>297.0</ele><time>2026-05-02T10:01:17.955Z</time></trkpt><trkpt lat="43.5566767" lon="11.67827"><ele>297.0</ele><time>2026-05-02T10:01:18.954Z</time></trkpt><trkpt lat="43.5567333" lon="11.678215"><ele>297.0</ele><time>2026-05-02T10:01:19.953Z</time></trkpt><trkpt lat="43.5567933" lon="11.6781583"><ele>297.0</ele><time>2026-05-02T10:01:20.954Z</time></trkpt><trkpt lat="43.5568517" lon="11.6781"><ele>297.0</ele><time>2026-05-02T10:01:21.954Z</time></trkpt><trkpt lat="43.5569083" lon="11.678045"><ele>297.0</ele><time>2026-05-02T10:01:22.954Z</time></trkpt><trkpt lat="43.556965" lon="11.6779867"><ele>297.0</ele><time>2026-05-02T10:01:23.952Z</time></trkpt><trkpt lat="43.5570217" lon="11.6779267"><ele>297.0</ele><time>2026-05-02T10:01:24.954Z</time></trkpt><trkpt lat="43.5570767" lon="11.677865"><ele>297.0</ele><time>2026-05-02T10:01:25.954Z</time></trkpt><trkpt lat="43.5571333" lon="11.6777983"><ele>297.0</ele><time>2026-05-02T10:01:26.954Z</time></trkpt><trkpt lat="43.5571867" lon="11.6777333"><ele>297.0</ele><time>2026-05-02T10:01:27.956Z</time></trkpt><trkpt lat="43.5572333" lon="11.6776633"><ele>297.0</ele><time>2026-05-02T10:01:28.954Z</time></trkpt><trkpt lat="43.557275" lon="11.67759"><ele>297.0</ele><time>2026-05-02T10:01:29.952Z</time></trkpt><trkpt lat="43.55731" lon="11.6775133"><ele>297.1666666666667</ele><time>2026-05-02T10:01:30.954Z</time></trkpt><trkpt lat="43.5573433" lon="11.6774283"><ele>297.3333333333333</ele><time>2026-05-02T10:01:31.955Z</time></trkpt><trkpt lat="43.557375" lon="11.6773417"><ele>297.5</ele><time>2026-05-02T10:01:32.954Z</time></trkpt><trkpt lat="43.5574017" lon="11.6772583"><ele>297.66666666666663</ele><time>2026-05-02T10:01:33.955Z</time></trkpt><trkpt lat="43.557425" lon="11.677175"><ele>297.8333333333333</ele><time>2026-05-02T10:01:34.955Z</time></trkpt><trkpt lat="43.5574483" lon="11.6770933"><ele>298.0</ele><time>2026-05-02T10:01:35.953Z</time></trkpt><trkpt lat="43.5574917" lon="11.67694"><ele>297.75</ele><time>2026-05-02T10:01:37.953Z</time></trkpt><trkpt lat="43.557535" lon="11.6767967"><ele>297.5</ele><time>2026-05-02T10:01:39.955Z</time></trkpt><trkpt lat="43.557585" lon="11.6766583"><ele>297.25</ele><time>2026-05-02T10:01:41.955Z</time></trkpt><trkpt lat="43.557655" lon="11.676525"><ele>297.0</ele><time>2026-05-02T10:01:43.956Z</time></trkpt><trkpt lat="43.5577383" lon="11.6764083"><ele>297.0</ele><time>2026-05-02T10:01:45.957Z</time></trkpt><trkpt lat="43.557835" lon="11.6763233"><ele>297.0</ele><time>2026-05-02T10:01:47.954Z</time></trkpt><trkpt lat="43.5579367" lon="11.676265"><ele>297.0</ele><time>2026-05-02T10:01:49.954Z</time></trkpt><trkpt lat="43.558045" lon="11.67622"><ele>297.0</ele><time>2026-05-02T10:01:51.956Z</time></trkpt><trkpt lat="43.5581517" lon="11.6761783"><ele>297.0</ele><time>2026-05-02T10:01:53.956Z</time></trkpt><trkpt lat="43.5582667" lon="11.6761417"><ele>297.75</ele><time>2026-05-02T10:01:55.955Z</time></trkpt><trkpt lat="43.55838" lon="11.6761017"><ele>298.5</ele><time>2026-05-02T10:01:57.959Z</time></trkpt><trkpt lat="43.5584883" lon="11.67605"><ele>299.25</ele><time>2026-05-02T10:01:59.954Z</time></trkpt><trkpt lat="43.55859" lon="11.6759783"><ele>300.0</ele><time>2026-05-02T10:02:01.955Z</time></trkpt><trkpt lat="43.5586783" lon="11.675875"><ele>302.25</ele><time>2026-05-02T10:02:03.953Z</time></trkpt><trkpt lat="43.55875" lon="11.6757467"><ele>304.5</ele><time>2026-05-02T10:02:05.955Z</time></trkpt><trkpt lat="43.5587917" lon="11.675595"><ele>306.75</ele><time>2026-05-02T10:02:07.955Z</time></trkpt><trkpt lat="43.5587983" lon="11.67543"><ele>309.0</ele><time>2026-05-02T10:02:09.956Z</time></trkpt><trkpt lat="43.5587783" lon="11.67527"><ele>309.5</ele><time>2026-05-02T10:02:11.952Z</time></trkpt><trkpt lat="43.558745" lon="11.6751083"><ele>310.0</ele><time>2026-05-02T10:02:13.954Z</time></trkpt><trkpt lat="43.55871" lon="11.6749467"><ele>310.5</ele><time>2026-05-02T10:02:15.953Z</time></trkpt><trkpt lat="43.55869" lon="11.6747867"><ele>311.0</ele><time>2026-05-02T10:02:17.954Z</time></trkpt><trkpt lat="43.5586767" lon="11.67463"><ele>311.0</ele><time>2026-05-02T10:02:19.954Z</time></trkpt><trkpt lat="43.5586667" lon="11.6744767"><ele>311.0</ele><time>2026-05-02T10:02:21.954Z</time></trkpt><trkpt lat="43.558665" lon="11.6743217"><ele>311.0</ele><time>2026-05-02T10:02:23.955Z</time></trkpt><trkpt lat="43.5586867" lon="11.674175"><ele>311.0</ele><time>2026-05-02T10:02:25.956Z</time></trkpt><trkpt lat="43.5587533" lon="11.67405"><ele>311.0</ele><time>2026-05-02T10:02:27.953Z</time></trkpt><trkpt lat="43.55885" lon="11.6739567"><ele>311.0</ele><time>2026-05-02T10:02:29.953Z</time></trkpt><trkpt lat="43.5589533" lon="11.6738833"><ele>311.0</ele><time>2026-05-02T10:02:31.956Z</time></trkpt><trkpt lat="43.559065" lon="11.6738283"><ele>311.0</ele><time>2026-05-02T10:02:33.953Z</time></trkpt><trkpt lat="43.55918" lon="11.67378"><ele>311.0</ele><time>2026-05-02T10:02:35.954Z</time></trkpt><trkpt lat="43.5592933" lon="11.6737433"><ele>311.0</ele><time>2026-05-02T10:02:37.954Z</time></trkpt><trkpt lat="43.5594133" lon="11.67372"><ele>311.0</ele><time>2026-05-02T10:02:39.955Z</time></trkpt><trkpt lat="43.5595283" lon="11.67371"><ele>311.0</ele><time>2026-05-02T10:02:41.954Z</time></trkpt><trkpt lat="43.5596433" lon="11.67372"><ele>311.0</ele><time>2026-05-02T10:02:43.955Z</time></trkpt><trkpt lat="43.5597583" lon="11.673735"><ele>312.5</ele><time>2026-05-02T10:02:45.954Z</time></trkpt><trkpt lat="43.5598717" lon="11.6737483"><ele>314.0</ele><time>2026-05-02T10:02:47.954Z</time></trkpt><trkpt lat="43.5599933" lon="11.6737567"><ele>315.5</ele><time>2026-05-02T10:02:49.954Z</time></trkpt><trkpt lat="43.5601083" lon="11.6737483"><ele>317.0</ele><time>2026-05-02T10:02:51.954Z</time></trkpt><trkpt lat="43.5602167" lon="11.6737133"><ele>317.0</ele><time>2026-05-02T10:02:53.952Z</time></trkpt><trkpt lat="43.560295" lon="11.673615"><ele>317.0</ele><time>2026-05-02T10:02:55.953Z</time></trkpt><trkpt lat="43.560335" lon="11.6734767"><ele>317.0</ele><time>2026-05-02T10:02:57.954Z</time></trkpt><trkpt lat="43.56033" lon="11.67331"><ele>317.0</ele><time>2026-05-02T10:02:59.956Z</time></trkpt><trkpt lat="43.5602933" lon="11.67315"><ele>316.0</ele><time>2026-05-02T10:03:01.954Z</time></trkpt><trkpt lat="43.56027" lon="11.673065"><ele>315.0</ele><time>2026-05-02T10:03:02.954Z</time></trkpt><trkpt lat="43.56023" lon="11.6729067"><ele>314.0</ele><time>2026-05-02T10:03:04.953Z</time></trkpt><trkpt lat="43.560195" lon="11.6727517"><ele>313.0</ele><time>2026-05-02T10:03:06.954Z</time></trkpt><trkpt lat="43.56017" lon="11.6725967"><ele>312.0</ele><time>2026-05-02T10:03:08.955Z</time></trkpt><trkpt lat="43.5601567" lon="11.67244"><ele>312.0</ele><time>2026-05-02T10:03:10.954Z</time></trkpt><trkpt lat="43.5601517" lon="11.6722817"><ele>312.0</ele><time>2026-05-02T10:03:12.954Z</time></trkpt><trkpt lat="43.56014" lon="11.6721167"><ele>312.0</ele><time>2026-05-02T10:03:14.953Z</time></trkpt><trkpt lat="43.56013" lon="11.67195"><ele>312.0</ele><time>2026-05-02T10:03:16.955Z</time></trkpt><trkpt lat="43.560125" lon="11.67178"><ele>312.0</ele><time>2026-05-02T10:03:18.953Z</time></trkpt><trkpt lat="43.5601167" lon="11.6716183"><ele>312.0</ele><time>2026-05-02T10:03:20.953Z</time></trkpt><trkpt lat="43.5601133" lon="11.67153"><ele>312.0</ele><time>2026-05-02T10:03:21.953Z</time></trkpt><trkpt lat="43.560115" lon="11.6713633"><ele>312.0</ele><time>2026-05-02T10:03:23.953Z</time></trkpt><trkpt lat="43.56014" lon="11.6711983"><ele>312.0</ele><time>2026-05-02T10:03:25.953Z</time></trkpt><trkpt lat="43.560165" lon="11.6711167"><ele>311.8333333333333</ele><time>2026-05-02T10:03:26.953Z</time></trkpt><trkpt lat="43.5602233" lon="11.6709617"><ele>311.6666666666667</ele><time>2026-05-02T10:03:28.955Z</time></trkpt><trkpt lat="43.560255" lon="11.67088"><ele>311.5</ele><time>2026-05-02T10:03:29.953Z</time></trkpt><trkpt lat="43.5602883" lon="11.670795"><ele>311.33333333333337</ele><time>2026-05-02T10:03:30.953Z</time></trkpt><trkpt lat="43.5603233" lon="11.6707083"><ele>311.1666666666667</ele><time>2026-05-02T10:03:31.952Z</time></trkpt><trkpt lat="43.5603583" lon="11.670625"><ele>311.0</ele><time>2026-05-02T10:03:32.953Z</time></trkpt><trkpt lat="43.560395" lon="11.6705417"><ele>311.85714285714283</ele><time>2026-05-02T10:03:33.954Z</time></trkpt><trkpt lat="43.56043" lon="11.6704617"><ele>312.7142857142857</ele><time>2026-05-02T10:03:34.954Z</time></trkpt><trkpt lat="43.5604633" lon="11.6703767"><ele>313.57142857142856</ele><time>2026-05-02T10:03:35.953Z</time></trkpt><trkpt lat="43.5604933" lon="11.67029"><ele>314.42857142857144</ele><time>2026-05-02T10:03:36.955Z</time></trkpt><trkpt lat="43.56052" lon="11.6701983"><ele>315.2857142857143</ele><time>2026-05-02T10:03:37.954Z</time></trkpt><trkpt lat="43.56054" lon="11.670105"><ele>316.14285714285717</ele><time>2026-05-02T10:03:38.953Z</time></trkpt><trkpt lat="43.5605517" lon="11.6700083"><ele>317.0</ele><time>2026-05-02T10:03:39.956Z</time></trkpt><trkpt lat="43.5605533" lon="11.6699117"><ele>317.14285714285717</ele><time>2026-05-02T10:03:40.955Z</time></trkpt><trkpt lat="43.5605483" lon="11.669815"><ele>317.2857142857143</ele><time>2026-05-02T10:03:41.954Z</time></trkpt><trkpt lat="43.560535" lon="11.669725"><ele>317.42857142857144</ele><time>2026-05-02T10:03:42.954Z</time></trkpt><trkpt lat="43.5605133" lon="11.6696383"><ele>317.57142857142856</ele><time>2026-05-02T10:03:43.953Z</time></trkpt><trkpt lat="43.5604817" lon="11.6695567"><ele>317.7142857142857</ele><time>2026-05-02T10:03:44.954Z</time></trkpt><trkpt lat="43.5604467" lon="11.6694783"><ele>317.85714285714283</ele><time>2026-05-02T10:03:45.954Z</time></trkpt><trkpt lat="43.5604117" lon="11.669395"><ele>318.0</ele><time>2026-05-02T10:03:46.953Z</time></trkpt><trkpt lat="43.5603783" lon="11.6693067"><ele>316.2857142857143</ele><time>2026-05-02T10:03:47.953Z</time></trkpt><trkpt lat="43.5603467" lon="11.669215"><ele>314.5714285714286</ele><time>2026-05-02T10:03:48.954Z</time></trkpt><trkpt lat="43.56032" lon="11.6691217"><ele>312.8571428571429</ele><time>2026-05-02T10:03:49.953Z</time></trkpt><trkpt lat="43.5602983" lon="11.6690267"><ele>311.1428571428571</ele><time>2026-05-02T10:03:50.955Z</time></trkpt><trkpt lat="43.5602833" lon="11.6689333"><ele>309.42857142857144</ele><time>2026-05-02T10:03:51.953Z</time></trkpt><trkpt lat="43.5602683" lon="11.6688383"><ele>307.7142857142857</ele><time>2026-05-02T10:03:52.954Z</time></trkpt><trkpt lat="43.560255" lon="11.6687433"><ele>306.0</ele><time>2026-05-02T10:03:53.954Z</time></trkpt><trkpt lat="43.5602483" lon="11.6686417"><ele>306.3333333333333</ele><time>2026-05-02T10:03:54.954Z</time></trkpt><trkpt lat="43.5602483" lon="11.6685383"><ele>306.6666666666667</ele><time>2026-05-02T10:03:55.953Z</time></trkpt><trkpt lat="43.5602517" lon="11.6684283"><ele>307.0</ele><time>2026-05-02T10:03:56.953Z</time></trkpt><trkpt lat="43.56026" lon="11.6683183"><ele>307.33333333333337</ele><time>2026-05-02T10:03:57.954Z</time></trkpt><trkpt lat="43.5602733" lon="11.6682083"><ele>307.6666666666667</ele><time>2026-05-02T10:03:58.954Z</time></trkpt><trkpt lat="43.5602883" lon="11.6681"><ele>308.0</ele><time>2026-05-02T10:03:59.953Z</time></trkpt><trkpt lat="43.5603067" lon="11.66799"><ele>308.0</ele><time>2026-05-02T10:04:00.954Z</time></trkpt><trkpt lat="43.560325" lon="11.6678783"><ele>308.0</ele><time>2026-05-02T10:04:01.955Z</time></trkpt><trkpt lat="43.5603433" lon="11.6677667"><ele>308.0</ele><time>2026-05-02T10:04:02.955Z</time></trkpt><trkpt lat="43.5603617" lon="11.667655"><ele>308.0</ele><time>2026-05-02T10:04:03.952Z</time></trkpt><trkpt lat="43.5603817" lon="11.6675433"><ele>308.0</ele><time>2026-05-02T10:04:04.953Z</time></trkpt><trkpt lat="43.5604" lon="11.66743"><ele>308.0</ele><time>2026-05-02T10:04:05.956Z</time></trkpt><trkpt lat="43.5604133" lon="11.6673167"><ele>307.5</ele><time>2026-05-02T10:04:06.953Z</time></trkpt><trkpt lat="43.56042" lon="11.6672067"><ele>307.0</ele><time>2026-05-02T10:04:07.953Z</time></trkpt><trkpt lat="43.560425" lon="11.6670883"><ele>306.5</ele><time>2026-05-02T10:04:08.952Z</time></trkpt><trkpt lat="43.560415" lon="11.666975"><ele>306.0</ele><time>2026-05-02T10:04:09.953Z</time></trkpt><trkpt lat="43.5603933" lon="11.66687"><ele>305.5</ele><time>2026-05-02T10:04:10.952Z</time></trkpt><trkpt lat="43.56037" lon="11.66676"><ele>305.0</ele><time>2026-05-02T10:04:11.952Z</time></trkpt><trkpt lat="43.5603467" lon="11.6666483"><ele>305.0</ele><time>2026-05-02T10:04:12.953Z</time></trkpt><trkpt lat="43.5603233" lon="11.666535"><ele>305.0</ele><time>2026-05-02T10:04:13.954Z</time></trkpt><trkpt lat="43.5603067" lon="11.66642"><ele>305.0</ele><time>2026-05-02T10:04:14.954Z</time></trkpt><trkpt lat="43.5603" lon="11.666305"><ele>305.0</ele><time>2026-05-02T10:04:15.954Z</time></trkpt><trkpt lat="43.560305" lon="11.6661917"><ele>305.0</ele><time>2026-05-02T10:04:16.954Z</time></trkpt><trkpt lat="43.5603133" lon="11.666085"><ele>305.0</ele><time>2026-05-02T10:04:17.952Z</time></trkpt><trkpt lat="43.5603283" lon="11.66598"><ele>305.14285714285717</ele><time>2026-05-02T10:04:18.954Z</time></trkpt><trkpt lat="43.560345" lon="11.665875"><ele>305.2857142857143</ele><time>2026-05-02T10:04:19.952Z</time></trkpt><trkpt lat="43.5603633" lon="11.6657717"><ele>305.42857142857144</ele><time>2026-05-02T10:04:20.954Z</time></trkpt><trkpt lat="43.5603867" lon="11.6656767"><ele>305.57142857142856</ele><time>2026-05-02T10:04:21.953Z</time></trkpt><trkpt lat="43.5604183" lon="11.6655867"><ele>305.7142857142857</ele><time>2026-05-02T10:04:22.953Z</time></trkpt><trkpt lat="43.5604567" lon="11.6655067"><ele>305.85714285714283</ele><time>2026-05-02T10:04:23.954Z</time></trkpt><trkpt lat="43.5605017" lon="11.665435"><ele>306.0</ele><time>2026-05-02T10:04:24.952Z</time></trkpt><trkpt lat="43.56055" lon="11.665375"><ele>306.7142857142857</ele><time>2026-05-02T10:04:25.955Z</time></trkpt><trkpt lat="43.5606083" lon="11.665325"><ele>307.42857142857144</ele><time>2026-05-02T10:04:26.954Z</time></trkpt><trkpt lat="43.5606683" lon="11.6652867"><ele>308.1428571428571</ele><time>2026-05-02T10:04:27.953Z</time></trkpt><trkpt lat="43.5607317" lon="11.6652567"><ele>308.8571428571429</ele><time>2026-05-02T10:04:28.954Z</time></trkpt><trkpt lat="43.5607967" lon="11.665235"><ele>309.5714285714286</ele><time>2026-05-02T10:04:29.955Z</time></trkpt><trkpt lat="43.560865" lon="11.6652167"><ele>310.2857142857143</ele><time>2026-05-02T10:04:30.956Z</time></trkpt><trkpt lat="43.5609333" lon="11.6652017"><ele>311.0</ele><time>2026-05-02T10:04:31.956Z</time></trkpt><trkpt lat="43.561005" lon="11.66519"><ele>311.0</ele><time>2026-05-02T10:04:32.954Z</time></trkpt><trkpt lat="43.561075" lon="11.6651733"><ele>311.0</ele><time>2026-05-02T10:04:33.955Z</time></trkpt><trkpt lat="43.5611433" lon="11.6651467"><ele>311.0</ele><time>2026-05-02T10:04:34.953Z</time></trkpt><trkpt lat="43.561205" lon="11.6651017"><ele>311.0</ele><time>2026-05-02T10:04:35.954Z</time></trkpt><trkpt lat="43.561255" lon="11.6650383"><ele>311.0</ele><time>2026-05-02T10:04:36.952Z</time></trkpt><trkpt lat="43.5612967" lon="11.66496"><ele>311.0</ele><time>2026-05-02T10:04:37.952Z</time></trkpt><trkpt lat="43.5613233" lon="11.6648733"><ele>311.0</ele><time>2026-05-02T10:04:38.956Z</time></trkpt><trkpt lat="43.5613333" lon="11.6647817"><ele>312.2857142857143</ele><time>2026-05-02T10:04:39.954Z</time></trkpt><trkpt lat="43.5613317" lon="11.6646833"><ele>313.5714285714286</ele><time>2026-05-02T10:04:40.955Z</time></trkpt><trkpt lat="43.56132" lon="11.6645833"><ele>314.8571428571429</ele><time>2026-05-02T10:04:41.954Z</time></trkpt><trkpt lat="43.5613067" lon="11.6644867"><ele>316.1428571428571</ele><time>2026-05-02T10:04:42.955Z</time></trkpt><trkpt lat="43.5612933" lon="11.66439"><ele>317.42857142857144</ele><time>2026-05-02T10:04:43.956Z</time></trkpt><trkpt lat="43.5612833" lon="11.6642967"><ele>318.7142857142857</ele><time>2026-05-02T10:04:44.954Z</time></trkpt><trkpt lat="43.5612767" lon="11.6642"><ele>320.0</ele><time>2026-05-02T10:04:45.951Z</time></trkpt><trkpt lat="43.5612833" lon="11.6641033"><ele>320.0</ele><time>2026-05-02T10:04:46.954Z</time></trkpt><trkpt lat="43.5613067" lon="11.66401"><ele>320.0</ele><time>2026-05-02T10:04:47.955Z</time></trkpt><trkpt lat="43.5613483" lon="11.6639283"><ele>320.0</ele><time>2026-05-02T10:04:48.953Z</time></trkpt><trkpt lat="43.561405" lon="11.66386"><ele>320.0</ele><time>2026-05-02T10:04:49.956Z</time></trkpt><trkpt lat="43.5614683" lon="11.6638183"><ele>320.0</ele><time>2026-05-02T10:04:50.957Z</time></trkpt><trkpt lat="43.5615383" lon="11.663795"><ele>320.0</ele><time>2026-05-02T10:04:51.952Z</time></trkpt><trkpt lat="43.5616117" lon="11.6637817"><ele>320.0</ele><time>2026-05-02T10:04:52.954Z</time></trkpt><trkpt lat="43.56168" lon="11.6637717"><ele>320.0</ele><time>2026-05-02T10:04:53.954Z</time></trkpt><trkpt lat="43.5617533" lon="11.6637533"><ele>320.0</ele><time>2026-05-02T10:04:54.957Z</time></trkpt><trkpt lat="43.5618233" lon="11.6637217"><ele>320.0</ele><time>2026-05-02T10:04:55.955Z</time></trkpt><trkpt lat="43.5618883" lon="11.6636717"><ele>320.0</ele><time>2026-05-02T10:04:56.953Z</time></trkpt><trkpt lat="43.5619433" lon="11.663605"><ele>320.0</ele><time>2026-05-02T10:04:57.953Z</time></trkpt><trkpt lat="43.5619917" lon="11.6635217"><ele>320.0</ele><time>2026-05-02T10:04:58.952Z</time></trkpt><trkpt lat="43.5620317" lon="11.6634367"><ele>320.0</ele><time>2026-05-02T10:04:59.953Z</time></trkpt><trkpt lat="43.56207" lon="11.6633517"><ele>320.5</ele><time>2026-05-02T10:05:00.954Z</time></trkpt><trkpt lat="43.5621117" lon="11.6632617"><ele>321.0</ele><time>2026-05-02T10:05:01.953Z</time></trkpt><trkpt lat="43.5621567" lon="11.6631733"><ele>321.5</ele><time>2026-05-02T10:05:02.953Z</time></trkpt><trkpt lat="43.5622083" lon="11.6630933"><ele>322.0</ele><time>2026-05-02T10:05:03.955Z</time></trkpt><trkpt lat="43.5622717" lon="11.6630283"><ele>322.5</ele><time>2026-05-02T10:05:04.953Z</time></trkpt><trkpt lat="43.56234" lon="11.662985"><ele>323.0</ele><time>2026-05-02T10:05:05.954Z</time></trkpt><trkpt lat="43.56241" lon="11.66296"><ele>323.0</ele><time>2026-05-02T10:05:06.953Z</time></trkpt><trkpt lat="43.562485" lon="11.6629433"><ele>323.0</ele><time>2026-05-02T10:05:07.953Z</time></trkpt><trkpt lat="43.5625617" lon="11.6629333"><ele>323.0</ele><time>2026-05-02T10:05:08.955Z</time></trkpt><trkpt lat="43.562635" lon="11.66293"><ele>323.0</ele><time>2026-05-02T10:05:09.954Z</time></trkpt><trkpt lat="43.5627083" lon="11.6629317"><ele>323.0</ele><time>2026-05-02T10:05:10.953Z</time></trkpt><trkpt lat="43.562785" lon="11.6629367"><ele>323.0</ele><time>2026-05-02T10:05:11.953Z</time></trkpt><trkpt lat="43.5628633" lon="11.6629367"><ele>322.5714285714286</ele><time>2026-05-02T10:05:12.953Z</time></trkpt><trkpt lat="43.56294" lon="11.6629283"><ele>322.14285714285717</ele><time>2026-05-02T10:05:13.953Z</time></trkpt><trkpt lat="43.5630133" lon="11.6629017"><ele>321.7142857142857</ele><time>2026-05-02T10:05:14.955Z</time></trkpt><trkpt lat="43.5630783" lon="11.6628533"><ele>321.28571428571433</ele><time>2026-05-02T10:05:15.955Z</time></trkpt><trkpt lat="43.5631317" lon="11.6627833"><ele>320.8571428571429</ele><time>2026-05-02T10:05:16.956Z</time></trkpt><trkpt lat="43.5631717" lon="11.6627"><ele>320.42857142857144</ele><time>2026-05-02T10:05:17.956Z</time></trkpt><trkpt lat="43.5632017" lon="11.6626117"><ele>320.0</ele><time>2026-05-02T10:05:18.953Z</time></trkpt><trkpt lat="43.563225" lon="11.6625167"><ele>320.0</ele><time>2026-05-02T10:05:19.955Z</time></trkpt><trkpt lat="43.5632417" lon="11.662415"><ele>320.0</ele><time>2026-05-02T10:05:20.956Z</time></trkpt><trkpt lat="43.5632533" lon="11.6623117"><ele>320.0</ele><time>2026-05-02T10:05:21.955Z</time></trkpt><trkpt lat="43.5632667" lon="11.6622117"><ele>320.0</ele><time>2026-05-02T10:05:22.953Z</time></trkpt><trkpt lat="43.56328" lon="11.6621167"><ele>320.0</ele><time>2026-05-02T10:05:23.956Z</time></trkpt><trkpt lat="43.5632917" lon="11.6620283"><ele>320.0</ele><time>2026-05-02T10:05:24.953Z</time></trkpt><trkpt lat="43.56332" lon="11.661855"><ele>319.1428571428571</ele><time>2026-05-02T10:05:26.953Z</time></trkpt><trkpt lat="43.5633383" lon="11.661765"><ele>318.2857142857143</ele><time>2026-05-02T10:05:27.953Z</time></trkpt><trkpt lat="43.5633667" lon="11.6616767"><ele>317.42857142857144</ele><time>2026-05-02T10:05:28.953Z</time></trkpt><trkpt lat="43.5634017" lon="11.661595"><ele>316.57142857142856</ele><time>2026-05-02T10:05:29.955Z</time></trkpt><trkpt lat="43.5634383" lon="11.6615183"><ele>315.7142857142857</ele><time>2026-05-02T10:05:30.953Z</time></trkpt><trkpt lat="43.5634833" lon="11.661445"><ele>314.85714285714283</ele><time>2026-05-02T10:05:31.955Z</time></trkpt><trkpt lat="43.5635333" lon="11.6613767"><ele>314.0</ele><time>2026-05-02T10:05:32.954Z</time></trkpt><trkpt lat="43.5635817" lon="11.66132"><ele>314.0</ele><time>2026-05-02T10:05:33.955Z</time></trkpt><trkpt lat="43.5636317" lon="11.6612617"><ele>314.0</ele><time>2026-05-02T10:05:34.953Z</time></trkpt><trkpt lat="43.5637283" lon="11.6611567"><ele>314.0</ele><time>2026-05-02T10:05:36.955Z</time></trkpt><trkpt lat="43.5638133" lon="11.66103"><ele>314.0</ele><time>2026-05-02T10:05:38.956Z</time></trkpt><trkpt lat="43.5638467" lon="11.660955"><ele>314.0</ele><time>2026-05-02T10:05:39.954Z</time></trkpt><trkpt lat="43.5638667" lon="11.66087"><ele>314.0</ele><time>2026-05-02T10:05:40.954Z</time></trkpt><trkpt lat="43.563885" lon="11.660695"><ele>315.2857142857143</ele><time>2026-05-02T10:05:42.957Z</time></trkpt><trkpt lat="43.5638867" lon="11.660605"><ele>316.57142857142856</ele><time>2026-05-02T10:05:43.957Z</time></trkpt><trkpt lat="43.5638883" lon="11.6605167"><ele>317.8571428571429</ele><time>2026-05-02T10:05:44.954Z</time></trkpt><trkpt lat="43.5638933" lon="11.66043"><ele>319.1428571428571</ele><time>2026-05-02T10:05:45.954Z</time></trkpt><trkpt lat="43.5639033" lon="11.66034"><ele>320.42857142857144</ele><time>2026-05-02T10:05:46.954Z</time></trkpt><trkpt lat="43.5639167" lon="11.6602517"><ele>321.7142857142857</ele><time>2026-05-02T10:05:47.955Z</time></trkpt><trkpt lat="43.5639333" lon="11.6601633"><ele>323.0</ele><time>2026-05-02T10:05:48.952Z</time></trkpt><trkpt lat="43.563985" lon="11.6600017"><ele>323.0</ele><time>2026-05-02T10:05:50.954Z</time></trkpt><trkpt lat="43.5640467" lon="11.6598567"><ele>323.0</ele><time>2026-05-02T10:05:52.955Z</time></trkpt><trkpt lat="43.5641233" lon="11.6597167"><ele>323.0</ele><time>2026-05-02T10:05:54.954Z</time></trkpt><trkpt lat="43.5641717" lon="11.6596517"><ele>323.0</ele><time>2026-05-02T10:05:55.955Z</time></trkpt><trkpt lat="43.5642217" lon="11.6595917"><ele>323.0</ele><time>2026-05-02T10:05:56.954Z</time></trkpt><trkpt lat="43.5642733" lon="11.6595333"><ele>323.0</ele><time>2026-05-02T10:05:57.953Z</time></trkpt><trkpt lat="43.56433" lon="11.65948"><ele>322.8571428571429</ele><time>2026-05-02T10:05:58.954Z</time></trkpt><trkpt lat="43.564385" lon="11.6594333"><ele>322.7142857142857</ele><time>2026-05-02T10:05:59.953Z</time></trkpt><trkpt lat="43.5644417" lon="11.6593867"><ele>322.57142857142856</ele><time>2026-05-02T10:06:00.955Z</time></trkpt><trkpt lat="43.5644967" lon="11.6593417"><ele>322.42857142857144</ele><time>2026-05-02T10:06:01.953Z</time></trkpt><trkpt lat="43.564555" lon="11.659295"><ele>322.2857142857143</ele><time>2026-05-02T10:06:02.954Z</time></trkpt><trkpt lat="43.5646117" lon="11.6592467"><ele>322.14285714285717</ele><time>2026-05-02T10:06:03.955Z</time></trkpt><trkpt lat="43.5646683" lon="11.6591967"><ele>322.0</ele><time>2026-05-02T10:06:04.956Z</time></trkpt><trkpt lat="43.5647267" lon="11.6591533"><ele>322.0</ele><time>2026-05-02T10:06:05.954Z</time></trkpt><trkpt lat="43.564785" lon="11.6591117"><ele>322.0</ele><time>2026-05-02T10:06:06.953Z</time></trkpt><trkpt lat="43.5648983" lon="11.6590267"><ele>322.0</ele><time>2026-05-02T10:06:08.955Z</time></trkpt><trkpt lat="43.5649567" lon="11.658985"><ele>322.0</ele><time>2026-05-02T10:06:09.955Z</time></trkpt><trkpt lat="43.565015" lon="11.65894"><ele>322.0</ele><time>2026-05-02T10:06:10.955Z</time></trkpt><trkpt lat="43.5650733" lon="11.6588967"><ele>322.0</ele><time>2026-05-02T10:06:11.956Z</time></trkpt><trkpt lat="43.5651333" lon="11.65885"><ele>322.0</ele><time>2026-05-02T10:06:12.954Z</time></trkpt><trkpt lat="43.56519" lon="11.6588083"><ele>322.0</ele><time>2026-05-02T10:06:13.956Z</time></trkpt><trkpt lat="43.56525" lon="11.6587667"><ele>322.0</ele><time>2026-05-02T10:06:14.956Z</time></trkpt><trkpt lat="43.5653117" lon="11.6587267"><ele>322.0</ele><time>2026-05-02T10:06:15.954Z</time></trkpt><trkpt lat="43.5653767" lon="11.6586833"><ele>322.0</ele><time>2026-05-02T10:06:16.954Z</time></trkpt><trkpt lat="43.565445" lon="11.6586433"><ele>322.0</ele><time>2026-05-02T10:06:17.953Z</time></trkpt><trkpt lat="43.565515" lon="11.6586083"><ele>322.0</ele><time>2026-05-02T10:06:18.954Z</time></trkpt><trkpt lat="43.5655917" lon="11.65858"><ele>321.5</ele><time>2026-05-02T10:06:19.952Z</time></trkpt><trkpt lat="43.5656717" lon="11.6585567"><ele>321.0</ele><time>2026-05-02T10:06:20.955Z</time></trkpt><trkpt lat="43.565755" lon="11.658535"><ele>320.5</ele><time>2026-05-02T10:06:21.954Z</time></trkpt><trkpt lat="43.5658417" lon="11.6585167"><ele>320.0</ele><time>2026-05-02T10:06:22.955Z</time></trkpt><trkpt lat="43.5659267" lon="11.6584983"><ele>319.5</ele><time>2026-05-02T10:06:23.955Z</time></trkpt><trkpt lat="43.5660133" lon="11.6584783"><ele>319.0</ele><time>2026-05-02T10:06:24.956Z</time></trkpt><trkpt lat="43.5661017" lon="11.6584567"><ele>319.0</ele><time>2026-05-02T10:06:25.954Z</time></trkpt><trkpt lat="43.56619" lon="11.6584333"><ele>319.0</ele><time>2026-05-02T10:06:26.955Z</time></trkpt><trkpt lat="43.5662783" lon="11.6584017"><ele>319.0</ele><time>2026-05-02T10:06:27.955Z</time></trkpt><trkpt lat="43.566365" lon="11.65836"><ele>319.0</ele><time>2026-05-02T10:06:28.953Z</time></trkpt><trkpt lat="43.5664483" lon="11.6583117"><ele>319.0</ele><time>2026-05-02T10:06:29.954Z</time></trkpt><trkpt lat="43.5665333" lon="11.6582583"><ele>319.6</ele><time>2026-05-02T10:06:30.955Z</time></trkpt><trkpt lat="43.5666117" lon="11.6581983"><ele>320.2</ele><time>2026-05-02T10:06:31.954Z</time></trkpt><trkpt lat="43.56669" lon="11.65813"><ele>320.8</ele><time>2026-05-02T10:06:32.955Z</time></trkpt><trkpt lat="43.5667617" lon="11.6580517"><ele>321.40000000000003</ele><time>2026-05-02T10:06:33.955Z</time></trkpt><trkpt lat="43.566835" lon="11.657975"><ele>322.0</ele><time>2026-05-02T10:06:34.955Z</time></trkpt><trkpt lat="43.5669017" lon="11.6578867"><ele>322.0</ele><time>2026-05-02T10:06:35.955Z</time></trkpt><trkpt lat="43.5669717" lon="11.6577967"><ele>322.0</ele><time>2026-05-02T10:06:36.955Z</time></trkpt><trkpt lat="43.5670367" lon="11.6577083"><ele>322.0</ele><time>2026-05-02T10:06:37.953Z</time></trkpt><trkpt lat="43.567095" lon="11.6576083"><ele>322.0</ele><time>2026-05-02T10:06:38.955Z</time></trkpt><trkpt lat="43.5671467" lon="11.6575133"><ele>322.0</ele><time>2026-05-02T10:06:39.954Z</time></trkpt><trkpt lat="43.5671967" lon="11.6574033"><ele>322.0</ele><time>2026-05-02T10:06:40.955Z</time></trkpt><trkpt lat="43.5672433" lon="11.6572833"><ele>322.0</ele><time>2026-05-02T10:06:41.955Z</time></trkpt><trkpt lat="43.567285" lon="11.657165"><ele>322.0</ele><time>2026-05-02T10:06:42.953Z</time></trkpt><trkpt lat="43.5673267" lon="11.6570467"><ele>322.0</ele><time>2026-05-02T10:06:43.956Z</time></trkpt><trkpt lat="43.56737" lon="11.6569283"><ele>322.0</ele><time>2026-05-02T10:06:44.954Z</time></trkpt><trkpt lat="43.5674133" lon="11.656815"><ele>320.8</ele><time>2026-05-02T10:06:45.953Z</time></trkpt><trkpt lat="43.5674617" lon="11.6566983"><ele>319.6</ele><time>2026-05-02T10:06:46.954Z</time></trkpt><trkpt lat="43.5675133" lon="11.65659"><ele>318.40000000000003</ele><time>2026-05-02T10:06:47.954Z</time></trkpt><trkpt lat="43.5675733" lon="11.65649"><ele>317.20000000000005</ele><time>2026-05-02T10:06:48.954Z</time></trkpt><trkpt lat="43.5676367" lon="11.6563983"><ele>316.0</ele><time>2026-05-02T10:06:49.952Z</time></trkpt><trkpt lat="43.5677033" lon="11.6563183"><ele>316.0</ele><time>2026-05-02T10:06:50.954Z</time></trkpt><trkpt lat="43.5677733" lon="11.6562467"><ele>316.0</ele><time>2026-05-02T10:06:51.955Z</time></trkpt><trkpt lat="43.5678467" lon="11.6561917"><ele>316.0</ele><time>2026-05-02T10:06:52.954Z</time></trkpt><trkpt lat="43.5679217" lon="11.6561533"><ele>316.0</ele><time>2026-05-02T10:06:53.955Z</time></trkpt><trkpt lat="43.568" lon="11.6561267"><ele>316.0</ele><time>2026-05-02T10:06:54.957Z</time></trkpt><trkpt lat="43.5680767" lon="11.6561083"><ele>316.0</ele><time>2026-05-02T10:06:55.954Z</time></trkpt><trkpt lat="43.5681567" lon="11.656095"><ele>315.8333333333333</ele><time>2026-05-02T10:06:56.954Z</time></trkpt><trkpt lat="43.5682383" lon="11.6560817"><ele>315.66666666666663</ele><time>2026-05-02T10:06:57.954Z</time></trkpt><trkpt lat="43.5683133" lon="11.65607"><ele>315.5</ele><time>2026-05-02T10:06:58.954Z</time></trkpt><trkpt lat="43.56839" lon="11.6560533"><ele>315.3333333333333</ele><time>2026-05-02T10:06:59.955Z</time></trkpt><trkpt lat="43.5684667" lon="11.656035"><ele>315.1666666666667</ele><time>2026-05-02T10:07:00.953Z</time></trkpt><trkpt lat="43.5685433" lon="11.65601"><ele>315.0</ele><time>2026-05-02T10:07:01.953Z</time></trkpt><trkpt lat="43.568615" lon="11.6559683"><ele>315.0</ele><time>2026-05-02T10:07:02.955Z</time></trkpt><trkpt lat="43.5686767" lon="11.655905"><ele>315.0</ele><time>2026-05-02T10:07:03.955Z</time></trkpt><trkpt lat="43.56872" lon="11.6558167"><ele>315.0</ele><time>2026-05-02T10:07:04.954Z</time></trkpt><trkpt lat="43.5687417" lon="11.6557167"><ele>315.0</ele><time>2026-05-02T10:07:05.954Z</time></trkpt><trkpt lat="43.5687383" lon="11.6556117"><ele>315.0</ele><time>2026-05-02T10:07:06.952Z</time></trkpt><trkpt lat="43.5687167" lon="11.6555083"><ele>315.0</ele><time>2026-05-02T10:07:07.958Z</time></trkpt><trkpt lat="43.5686783" lon="11.6554133"><ele>315.0</ele><time>2026-05-02T10:07:08.955Z</time></trkpt><trkpt lat="43.56863" lon="11.655325"><ele>315.0</ele><time>2026-05-02T10:07:09.953Z</time></trkpt><trkpt lat="43.56858" lon="11.6552417"><ele>315.0</ele><time>2026-05-02T10:07:10.954Z</time></trkpt><trkpt lat="43.56853" lon="11.6551683"><ele>315.0</ele><time>2026-05-02T10:07:11.951Z</time></trkpt><trkpt lat="43.5684833" lon="11.65509"><ele>315.0</ele><time>2026-05-02T10:07:12.955Z</time></trkpt><trkpt lat="43.5684417" lon="11.6550067"><ele>315.0</ele><time>2026-05-02T10:07:13.954Z</time></trkpt><trkpt lat="43.5684" lon="11.6549217"><ele>315.0</ele><time>2026-05-02T10:07:14.955Z</time></trkpt><trkpt lat="43.5683633" lon="11.6548367"><ele>315.0</ele><time>2026-05-02T10:07:15.958Z</time></trkpt><trkpt lat="43.5683367" lon="11.654745"><ele>315.0</ele><time>2026-05-02T10:07:16.955Z</time></trkpt><trkpt lat="43.5683183" lon="11.654645"><ele>315.0</ele><time>2026-05-02T10:07:17.955Z</time></trkpt><trkpt lat="43.5683133" lon="11.65454"><ele>315.0</ele><time>2026-05-02T10:07:18.953Z</time></trkpt><trkpt lat="43.5683217" lon="11.6544317"><ele>315.0</ele><time>2026-05-02T10:07:19.956Z</time></trkpt><trkpt lat="43.56834" lon="11.65433"><ele>315.0</ele><time>2026-05-02T10:07:20.954Z</time></trkpt><trkpt lat="43.56837" lon="11.6542367"><ele>315.0</ele><time>2026-05-02T10:07:21.953Z</time></trkpt><trkpt lat="43.5684117" lon="11.654145"><ele>315.0</ele><time>2026-05-02T10:07:22.953Z</time></trkpt><trkpt lat="43.568455" lon="11.6540567"><ele>315.0</ele><time>2026-05-02T10:07:23.953Z</time></trkpt><trkpt lat="43.5685" lon="11.6539767"><ele>315.0</ele><time>2026-05-02T10:07:24.954Z</time></trkpt><trkpt lat="43.5685467" lon="11.653895"><ele>315.0</ele><time>2026-05-02T10:07:25.954Z</time></trkpt><trkpt lat="43.5685917" lon="11.65382"><ele>315.0</ele><time>2026-05-02T10:07:26.954Z</time></trkpt><trkpt lat="43.5686367" lon="11.6537367"><ele>315.0</ele><time>2026-05-02T10:07:27.954Z</time></trkpt><trkpt lat="43.5686817" lon="11.6536533"><ele>315.0</ele><time>2026-05-02T10:07:28.954Z</time></trkpt><trkpt lat="43.56873" lon="11.65357"><ele>315.0</ele><time>2026-05-02T10:07:29.954Z</time></trkpt><trkpt lat="43.568775" lon="11.65349"><ele>315.0</ele><time>2026-05-02T10:07:30.954Z</time></trkpt><trkpt lat="43.5688217" lon="11.6534067"><ele>315.0</ele><time>2026-05-02T10:07:31.954Z</time></trkpt><trkpt lat="43.5688667" lon="11.6533217"><ele>315.0</ele><time>2026-05-02T10:07:32.956Z</time></trkpt><trkpt lat="43.5689133" lon="11.6532417"><ele>315.5</ele><time>2026-05-02T10:07:33.956Z</time></trkpt><trkpt lat="43.56896" lon="11.65316"><ele>316.0</ele><time>2026-05-02T10:07:34.954Z</time></trkpt><trkpt lat="43.5690067" lon="11.653075"><ele>316.5</ele><time>2026-05-02T10:07:35.954Z</time></trkpt><trkpt lat="43.5690583" lon="11.65299"><ele>317.0</ele><time>2026-05-02T10:07:36.955Z</time></trkpt><trkpt lat="43.5691067" lon="11.652905"><ele>317.5</ele><time>2026-05-02T10:07:37.955Z</time></trkpt><trkpt lat="43.569155" lon="11.6528217"><ele>318.0</ele><time>2026-05-02T10:07:38.958Z</time></trkpt><trkpt lat="43.5692033" lon="11.6527367"><ele>318.0</ele><time>2026-05-02T10:07:39.955Z</time></trkpt><trkpt lat="43.56925" lon="11.6526517"><ele>318.0</ele><time>2026-05-02T10:07:40.955Z</time></trkpt><trkpt lat="43.569295" lon="11.6525667"><ele>318.0</ele><time>2026-05-02T10:07:41.954Z</time></trkpt><trkpt lat="43.5693417" lon="11.6524833"><ele>318.0</ele><time>2026-05-02T10:07:42.954Z</time></trkpt><trkpt lat="43.5693883" lon="11.6524"><ele>318.0</ele><time>2026-05-02T10:07:43.955Z</time></trkpt><trkpt lat="43.5694333" lon="11.65232"><ele>318.0</ele><time>2026-05-02T10:07:44.954Z</time></trkpt><trkpt lat="43.5694783" lon="11.6522367"><ele>318.0</ele><time>2026-05-02T10:07:45.955Z</time></trkpt><trkpt lat="43.569525" lon="11.6521533"><ele>318.0</ele><time>2026-05-02T10:07:46.955Z</time></trkpt><trkpt lat="43.56957" lon="11.6520733"><ele>318.0</ele><time>2026-05-02T10:07:47.955Z</time></trkpt><trkpt lat="43.56962" lon="11.6519967"><ele>318.0</ele><time>2026-05-02T10:07:48.954Z</time></trkpt><trkpt lat="43.569675" lon="11.6519283"><ele>318.0</ele><time>2026-05-02T10:07:49.957Z</time></trkpt><trkpt lat="43.5697367" lon="11.6518767"><ele>318.0</ele><time>2026-05-02T10:07:50.954Z</time></trkpt><trkpt lat="43.569805" lon="11.651845"><ele>318.0</ele><time>2026-05-02T10:07:51.954Z</time></trkpt><trkpt lat="43.5698783" lon="11.6518317"><ele>317.7142857142857</ele><time>2026-05-02T10:07:52.955Z</time></trkpt><trkpt lat="43.569955" lon="11.651835"><ele>317.42857142857144</ele><time>2026-05-02T10:07:53.955Z</time></trkpt><trkpt lat="43.57003" lon="11.651855"><ele>317.14285714285717</ele><time>2026-05-02T10:07:54.954Z</time></trkpt><trkpt lat="43.5701017" lon="11.6518867"><ele>316.8571428571429</ele><time>2026-05-02T10:07:55.953Z</time></trkpt><trkpt lat="43.5701717" lon="11.6519183"><ele>316.57142857142856</ele><time>2026-05-02T10:07:56.953Z</time></trkpt><trkpt lat="43.57024" lon="11.6519483"><ele>316.28571428571433</ele><time>2026-05-02T10:07:57.954Z</time></trkpt><trkpt lat="43.5703117" lon="11.6519767"><ele>316.0</ele><time>2026-05-02T10:07:58.957Z</time></trkpt><trkpt lat="43.57038" lon="11.6520083"><ele>317.5</ele><time>2026-05-02T10:07:59.954Z</time></trkpt><trkpt lat="43.5704517" lon="11.6520383"><ele>319.0</ele><time>2026-05-02T10:08:00.957Z</time></trkpt><trkpt lat="43.5705217" lon="11.65207"><ele>320.5</ele><time>2026-05-02T10:08:01.956Z</time></trkpt><trkpt lat="43.570595" lon="11.6521"><ele>322.0</ele><time>2026-05-02T10:08:02.955Z</time></trkpt><trkpt lat="43.57067" lon="11.6521267"><ele>323.5</ele><time>2026-05-02T10:08:03.955Z</time></trkpt><trkpt lat="43.570745" lon="11.6521467"><ele>325.0</ele><time>2026-05-02T10:08:04.952Z</time></trkpt><trkpt lat="43.5708183" lon="11.6521583"><ele>325.0</ele><time>2026-05-02T10:08:05.955Z</time></trkpt><trkpt lat="43.5708917" lon="11.6521583"><ele>325.0</ele><time>2026-05-02T10:08:06.955Z</time></trkpt><trkpt lat="43.5709667" lon="11.652155"><ele>325.0</ele><time>2026-05-02T10:08:07.954Z</time></trkpt><trkpt lat="43.5710417" lon="11.65213"><ele>325.0</ele><time>2026-05-02T10:08:08.955Z</time></trkpt><trkpt lat="43.5711133" lon="11.6520867"><ele>325.0</ele><time>2026-05-02T10:08:09.953Z</time></trkpt><trkpt lat="43.571175" lon="11.6520217"><ele>325.0</ele><time>2026-05-02T10:08:10.953Z</time></trkpt><trkpt lat="43.5712217" lon="11.6519417"><ele>325.57142857142856</ele><time>2026-05-02T10:08:11.952Z</time></trkpt><trkpt lat="43.5712533" lon="11.6518567"><ele>326.14285714285717</ele><time>2026-05-02T10:08:12.953Z</time></trkpt><trkpt lat="43.57126" lon="11.6517617"><ele>326.7142857142857</ele><time>2026-05-02T10:08:13.951Z</time></trkpt><trkpt lat="43.5712467" lon="11.6516633"><ele>327.2857142857143</ele><time>2026-05-02T10:08:14.955Z</time></trkpt><trkpt lat="43.5712167" lon="11.6515767"><ele>327.8571428571429</ele><time>2026-05-02T10:08:15.954Z</time></trkpt><trkpt lat="43.5711867" lon="11.65149"><ele>328.42857142857144</ele><time>2026-05-02T10:08:16.951Z</time></trkpt><trkpt lat="43.571155" lon="11.65141"><ele>329.0</ele><time>2026-05-02T10:08:17.953Z</time></trkpt><trkpt lat="43.5711217" lon="11.6513267"><ele>326.2</ele><time>2026-05-02T10:08:18.952Z</time></trkpt><trkpt lat="43.5710917" lon="11.6512417"><ele>323.4</ele><time>2026-05-02T10:08:19.955Z</time></trkpt><trkpt lat="43.571075" lon="11.6511567"><ele>320.6</ele><time>2026-05-02T10:08:20.954Z</time></trkpt><trkpt lat="43.571075" lon="11.650995"><ele>317.8</ele><time>2026-05-02T10:08:22.953Z</time></trkpt><trkpt lat="43.571105" lon="11.6508433"><ele>315.0</ele><time>2026-05-02T10:08:24.955Z</time></trkpt><trkpt lat="43.5711517" lon="11.6506933"><ele>314.3333333333333</ele><time>2026-05-02T10:08:26.954Z</time></trkpt><trkpt lat="43.5711817" lon="11.6506167"><ele>313.6666666666667</ele><time>2026-05-02T10:08:27.953Z</time></trkpt><trkpt lat="43.5712133" lon="11.65054"><ele>313.0</ele><time>2026-05-02T10:08:28.953Z</time></trkpt><trkpt lat="43.5712783" lon="11.65039"><ele>312.33333333333337</ele><time>2026-05-02T10:08:30.953Z</time></trkpt><trkpt lat="43.5713633" lon="11.6502633"><ele>311.6666666666667</ele><time>2026-05-02T10:08:32.954Z</time></trkpt><trkpt lat="43.5714183" lon="11.6502167"><ele>311.0</ele><time>2026-05-02T10:08:33.954Z</time></trkpt><trkpt lat="43.57148" lon="11.650185"><ele>313.0</ele><time>2026-05-02T10:08:34.954Z</time></trkpt><trkpt lat="43.5715433" lon="11.650165"><ele>315.0</ele><time>2026-05-02T10:08:35.953Z</time></trkpt><trkpt lat="43.5716667" lon="11.6501667"><ele>317.0</ele><time>2026-05-02T10:08:37.953Z</time></trkpt><trkpt lat="43.57178" lon="11.6502"><ele>319.0</ele><time>2026-05-02T10:08:39.953Z</time></trkpt><trkpt lat="43.57189" lon="11.650245"><ele>321.0</ele><time>2026-05-02T10:08:41.953Z</time></trkpt><trkpt lat="43.5720017" lon="11.65028"><ele>322.20000000000005</ele><time>2026-05-02T10:08:43.952Z</time></trkpt><trkpt lat="43.5721133" lon="11.6502933"><ele>323.40000000000003</ele><time>2026-05-02T10:08:45.953Z</time></trkpt><trkpt lat="43.572225" lon="11.65026"><ele>324.6</ele><time>2026-05-02T10:08:47.954Z</time></trkpt><trkpt lat="43.5723117" lon="11.6501767"><ele>325.8</ele><time>2026-05-02T10:08:49.954Z</time></trkpt><trkpt lat="43.5723783" lon="11.650055"><ele>327.0</ele><time>2026-05-02T10:08:51.953Z</time></trkpt><trkpt lat="43.5724167" lon="11.6499183"><ele>327.0</ele><time>2026-05-02T10:08:53.953Z</time></trkpt><trkpt lat="43.572455" lon="11.6497783"><ele>327.0</ele><time>2026-05-02T10:08:55.953Z</time></trkpt><trkpt lat="43.5725017" lon="11.64964"><ele>327.0</ele><time>2026-05-02T10:08:57.954Z</time></trkpt><trkpt lat="43.5725683" lon="11.6495183"><ele>327.0</ele><time>2026-05-02T10:08:59.953Z</time></trkpt><trkpt lat="43.5726567" lon="11.649425"><ele>327.0</ele><time>2026-05-02T10:09:01.953Z</time></trkpt><trkpt lat="43.572765" lon="11.6493683"><ele>327.8</ele><time>2026-05-02T10:09:03.953Z</time></trkpt><trkpt lat="43.57288" lon="11.6493333"><ele>328.6</ele><time>2026-05-02T10:09:05.955Z</time></trkpt><trkpt lat="43.573005" lon="11.649295"><ele>329.40000000000003</ele><time>2026-05-02T10:09:07.955Z</time></trkpt><trkpt lat="43.5730667" lon="11.6492683"><ele>330.20000000000005</ele><time>2026-05-02T10:09:08.954Z</time></trkpt><trkpt lat="43.573185" lon="11.6491883"><ele>331.0</ele><time>2026-05-02T10:09:10.955Z</time></trkpt><trkpt lat="43.57324" lon="11.6491317"><ele>331.0</ele><time>2026-05-02T10:09:11.953Z</time></trkpt><trkpt lat="43.5732867" lon="11.6490667"><ele>331.0</ele><time>2026-05-02T10:09:12.956Z</time></trkpt><trkpt lat="43.5733333" lon="11.6489967"><ele>331.0</ele><time>2026-05-02T10:09:13.955Z</time></trkpt><trkpt lat="43.5733783" lon="11.64892"><ele>331.0</ele><time>2026-05-02T10:09:14.954Z</time></trkpt><trkpt lat="43.5734233" lon="11.64884"><ele>331.0</ele><time>2026-05-02T10:09:15.954Z</time></trkpt><trkpt lat="43.57347" lon="11.648755"><ele>331.0</ele><time>2026-05-02T10:09:16.955Z</time></trkpt><trkpt lat="43.5735183" lon="11.6486717"><ele>331.0</ele><time>2026-05-02T10:09:17.953Z</time></trkpt><trkpt lat="43.5735667" lon="11.64859"><ele>331.8333333333333</ele><time>2026-05-02T10:09:18.953Z</time></trkpt><trkpt lat="43.5736167" lon="11.6485083"><ele>332.66666666666663</ele><time>2026-05-02T10:09:19.953Z</time></trkpt><trkpt lat="43.57367" lon="11.6484233"><ele>333.5</ele><time>2026-05-02T10:09:20.953Z</time></trkpt><trkpt lat="43.5737233" lon="11.64834"><ele>334.3333333333333</ele><time>2026-05-02T10:09:21.954Z</time></trkpt><trkpt lat="43.5737783" lon="11.6482517"><ele>335.1666666666667</ele><time>2026-05-02T10:09:22.954Z</time></trkpt><trkpt lat="43.5738317" lon="11.6481583"><ele>336.0</ele><time>2026-05-02T10:09:23.954Z</time></trkpt><trkpt lat="43.573875" lon="11.6480567"><ele>336.0</ele><time>2026-05-02T10:09:24.953Z</time></trkpt><trkpt lat="43.5738967" lon="11.647945"><ele>336.0</ele><time>2026-05-02T10:09:25.953Z</time></trkpt><trkpt lat="43.573895" lon="11.6478283"><ele>336.0</ele><time>2026-05-02T10:09:26.954Z</time></trkpt><trkpt lat="43.573875" lon="11.6477083"><ele>336.0</ele><time>2026-05-02T10:09:27.953Z</time></trkpt><trkpt lat="43.5738483" lon="11.6475917"><ele>336.0</ele><time>2026-05-02T10:09:28.953Z</time></trkpt><trkpt lat="43.573825" lon="11.64747"><ele>336.0</ele><time>2026-05-02T10:09:29.956Z</time></trkpt><trkpt lat="43.5738133" lon="11.6473483"><ele>335.1666666666667</ele><time>2026-05-02T10:09:30.955Z</time></trkpt><trkpt lat="43.5738133" lon="11.6472283"><ele>334.3333333333333</ele><time>2026-05-02T10:09:31.953Z</time></trkpt><trkpt lat="43.57382" lon="11.6471083"><ele>333.5</ele><time>2026-05-02T10:09:32.956Z</time></trkpt><trkpt lat="43.573835" lon="11.6469867"><ele>332.66666666666663</ele><time>2026-05-02T10:09:33.955Z</time></trkpt><trkpt lat="43.5738533" lon="11.6468667"><ele>331.8333333333333</ele><time>2026-05-02T10:09:34.953Z</time></trkpt><trkpt lat="43.573875" lon="11.646745"><ele>331.0</ele><time>2026-05-02T10:09:35.955Z</time></trkpt><trkpt lat="43.5738967" lon="11.6466217"><ele>330.20000000000005</ele><time>2026-05-02T10:09:36.953Z</time></trkpt><trkpt lat="43.5739183" lon="11.6464967"><ele>329.40000000000003</ele><time>2026-05-02T10:09:37.953Z</time></trkpt><trkpt lat="43.5739433" lon="11.6463633"><ele>328.6</ele><time>2026-05-02T10:09:38.955Z</time></trkpt><trkpt lat="43.5739683" lon="11.6462367"><ele>327.8</ele><time>2026-05-02T10:09:39.954Z</time></trkpt><trkpt lat="43.5739983" lon="11.6461133"><ele>327.0</ele><time>2026-05-02T10:09:40.953Z</time></trkpt><trkpt lat="43.57404" lon="11.645995"><ele>325.40000000000003</ele><time>2026-05-02T10:09:41.954Z</time></trkpt><trkpt lat="43.5740917" lon="11.6458833"><ele>323.8</ele><time>2026-05-02T10:09:42.956Z</time></trkpt><trkpt lat="43.5741567" lon="11.6457883"><ele>322.2</ele><time>2026-05-02T10:09:43.953Z</time></trkpt><trkpt lat="43.5742267" lon="11.6457"><ele>320.6</ele><time>2026-05-02T10:09:44.955Z</time></trkpt><trkpt lat="43.574305" lon="11.645615"><ele>319.0</ele><time>2026-05-02T10:09:45.955Z</time></trkpt><trkpt lat="43.5743817" lon="11.64554"><ele>319.0</ele><time>2026-05-02T10:09:46.954Z</time></trkpt><trkpt lat="43.5744633" lon="11.64547"><ele>319.0</ele><time>2026-05-02T10:09:47.953Z</time></trkpt><trkpt lat="43.574545" lon="11.6454017"><ele>319.0</ele><time>2026-05-02T10:09:48.955Z</time></trkpt><trkpt lat="43.5746283" lon="11.645335"><ele>319.0</ele><time>2026-05-02T10:09:49.955Z</time></trkpt><trkpt lat="43.5747117" lon="11.6452667"><ele>319.0</ele><time>2026-05-02T10:09:50.956Z</time></trkpt><trkpt lat="43.574795" lon="11.6451983"><ele>318.8</ele><time>2026-05-02T10:09:51.957Z</time></trkpt><trkpt lat="43.5748733" lon="11.6451217"><ele>318.59999999999997</ele><time>2026-05-02T10:09:52.954Z</time></trkpt><trkpt lat="43.57494" lon="11.6450317"><ele>318.4</ele><time>2026-05-02T10:09:53.954Z</time></trkpt><trkpt lat="43.575" lon="11.64493"><ele>318.2</ele><time>2026-05-02T10:09:54.953Z</time></trkpt><trkpt lat="43.5750483" lon="11.6448183"><ele>318.0</ele><time>2026-05-02T10:09:55.954Z</time></trkpt><trkpt lat="43.575085" lon="11.6447033"><ele>318.0</ele><time>2026-05-02T10:09:56.956Z</time></trkpt><trkpt lat="43.5751133" lon="11.6445817"><ele>318.0</ele><time>2026-05-02T10:09:57.953Z</time></trkpt><trkpt lat="43.5751333" lon="11.64446"><ele>318.0</ele><time>2026-05-02T10:09:58.955Z</time></trkpt><trkpt lat="43.5751517" lon="11.6443367"><ele>318.0</ele><time>2026-05-02T10:09:59.953Z</time></trkpt><trkpt lat="43.57517" lon="11.6442167"><ele>318.0</ele><time>2026-05-02T10:10:00.954Z</time></trkpt><trkpt lat="43.5751933" lon="11.6440983"><ele>318.0</ele><time>2026-05-02T10:10:01.955Z</time></trkpt><trkpt lat="43.5752283" lon="11.6439833"><ele>318.0</ele><time>2026-05-02T10:10:02.957Z</time></trkpt><trkpt lat="43.5752717" lon="11.643875"><ele>318.0</ele><time>2026-05-02T10:10:03.953Z</time></trkpt><trkpt lat="43.57532" lon="11.64377"><ele>318.0</ele><time>2026-05-02T10:10:04.953Z</time></trkpt><trkpt lat="43.575365" lon="11.6436717"><ele>318.0</ele><time>2026-05-02T10:10:05.954Z</time></trkpt><trkpt lat="43.5754117" lon="11.643575"><ele>318.0</ele><time>2026-05-02T10:10:06.952Z</time></trkpt><trkpt lat="43.5754683" lon="11.6434733"><ele>318.0</ele><time>2026-05-02T10:10:07.952Z</time></trkpt><trkpt lat="43.5755333" lon="11.6433683"><ele>318.0</ele><time>2026-05-02T10:10:08.953Z</time></trkpt><trkpt lat="43.5755983" lon="11.6432733"><ele>318.0</ele><time>2026-05-02T10:10:09.953Z</time></trkpt><trkpt lat="43.575665" lon="11.6431833"><ele>318.0</ele><time>2026-05-02T10:10:10.953Z</time></trkpt><trkpt lat="43.5757333" lon="11.6430983"><ele>318.0</ele><time>2026-05-02T10:10:11.952Z</time></trkpt><trkpt lat="43.57581" lon="11.6430267"><ele>318.0</ele><time>2026-05-02T10:10:12.953Z</time></trkpt><trkpt lat="43.5758917" lon="11.642965"><ele>318.0</ele><time>2026-05-02T10:10:13.954Z</time></trkpt><trkpt lat="43.575975" lon="11.6429167"><ele>318.0</ele><time>2026-05-02T10:10:14.955Z</time></trkpt><trkpt lat="43.5760617" lon="11.6428683"><ele>318.0</ele><time>2026-05-02T10:10:15.956Z</time></trkpt><trkpt lat="43.5761433" lon="11.6428217"><ele>318.0</ele><time>2026-05-02T10:10:16.951Z</time></trkpt><trkpt lat="43.5762233" lon="11.64278"><ele>316.8333333333333</ele><time>2026-05-02T10:10:17.954Z</time></trkpt><trkpt lat="43.5762967" lon="11.642745"><ele>315.6666666666667</ele><time>2026-05-02T10:10:18.951Z</time></trkpt><trkpt lat="43.5763717" lon="11.6427067"><ele>314.5</ele><time>2026-05-02T10:10:19.953Z</time></trkpt><trkpt lat="43.5764483" lon="11.6426667"><ele>313.33333333333337</ele><time>2026-05-02T10:10:20.953Z</time></trkpt><trkpt lat="43.5765267" lon="11.6426267"><ele>312.1666666666667</ele><time>2026-05-02T10:10:21.955Z</time></trkpt><trkpt lat="43.576605" lon="11.6425867"><ele>311.0</ele><time>2026-05-02T10:10:22.956Z</time></trkpt><trkpt lat="43.5766817" lon="11.6425483"><ele>311.0</ele><time>2026-05-02T10:10:23.956Z</time></trkpt><trkpt lat="43.5767583" lon="11.6425133"><ele>311.0</ele><time>2026-05-02T10:10:24.953Z</time></trkpt><trkpt lat="43.5768333" lon="11.64249"><ele>311.0</ele><time>2026-05-02T10:10:25.954Z</time></trkpt><trkpt lat="43.57691" lon="11.6424733"><ele>311.0</ele><time>2026-05-02T10:10:26.956Z</time></trkpt><trkpt lat="43.576985" lon="11.6424683"><ele>311.0</ele><time>2026-05-02T10:10:27.956Z</time></trkpt><trkpt lat="43.57706" lon="11.64247"><ele>311.0</ele><time>2026-05-02T10:10:28.953Z</time></trkpt><trkpt lat="43.577135" lon="11.6424767"><ele>311.57142857142856</ele><time>2026-05-02T10:10:29.954Z</time></trkpt><trkpt lat="43.57721" lon="11.6424783"><ele>312.14285714285717</ele><time>2026-05-02T10:10:30.956Z</time></trkpt><trkpt lat="43.5772833" lon="11.6424767"><ele>312.7142857142857</ele><time>2026-05-02T10:10:31.954Z</time></trkpt><trkpt lat="43.577355" lon="11.6424733"><ele>313.2857142857143</ele><time>2026-05-02T10:10:32.955Z</time></trkpt><trkpt lat="43.5774267" lon="11.6424683"><ele>313.8571428571429</ele><time>2026-05-02T10:10:33.955Z</time></trkpt><trkpt lat="43.5775017" lon="11.64246"><ele>314.42857142857144</ele><time>2026-05-02T10:10:34.952Z</time></trkpt><trkpt lat="43.577575" lon="11.6424567"><ele>315.0</ele><time>2026-05-02T10:10:35.956Z</time></trkpt><trkpt lat="43.57765" lon="11.64245"><ele>315.0</ele><time>2026-05-02T10:10:36.953Z</time></trkpt><trkpt lat="43.5777233" lon="11.64244"><ele>315.0</ele><time>2026-05-02T10:10:37.953Z</time></trkpt><trkpt lat="43.5777967" lon="11.64243"><ele>315.0</ele><time>2026-05-02T10:10:38.955Z</time></trkpt><trkpt lat="43.5778667" lon="11.6424167"><ele>315.0</ele><time>2026-05-02T10:10:39.953Z</time></trkpt><trkpt lat="43.577935" lon="11.6423933"><ele>315.0</ele><time>2026-05-02T10:10:40.955Z</time></trkpt><trkpt lat="43.5780033" lon="11.6423633"><ele>315.0</ele><time>2026-05-02T10:10:41.954Z</time></trkpt><trkpt lat="43.5780717" lon="11.6423233"><ele>315.0</ele><time>2026-05-02T10:10:42.952Z</time></trkpt><trkpt lat="43.578135" lon="11.64227"><ele>315.2857142857143</ele><time>2026-05-02T10:10:43.955Z</time></trkpt><trkpt lat="43.57819" lon="11.6422017"><ele>315.57142857142856</ele><time>2026-05-02T10:10:44.954Z</time></trkpt><trkpt lat="43.5782333" lon="11.64212"><ele>315.8571428571429</ele><time>2026-05-02T10:10:45.954Z</time></trkpt><trkpt lat="43.57827" lon="11.6420267"><ele>316.1428571428571</ele><time>2026-05-02T10:10:46.954Z</time></trkpt><trkpt lat="43.5782917" lon="11.6419283"><ele>316.42857142857144</ele><time>2026-05-02T10:10:47.956Z</time></trkpt><trkpt lat="43.5782967" lon="11.64183"><ele>316.7142857142857</ele><time>2026-05-02T10:10:48.955Z</time></trkpt><trkpt lat="43.57829" lon="11.6417267"><ele>317.0</ele><time>2026-05-02T10:10:49.955Z</time></trkpt><trkpt lat="43.5782783" lon="11.6416233"><ele>317.0</ele><time>2026-05-02T10:10:50.957Z</time></trkpt><trkpt lat="43.578265" lon="11.6415217"><ele>317.0</ele><time>2026-05-02T10:10:51.956Z</time></trkpt><trkpt lat="43.5782533" lon="11.64142"><ele>317.0</ele><time>2026-05-02T10:10:52.956Z</time></trkpt><trkpt lat="43.578245" lon="11.6413133"><ele>317.0</ele><time>2026-05-02T10:10:53.954Z</time></trkpt><trkpt lat="43.5782483" lon="11.6412017"><ele>317.0</ele><time>2026-05-02T10:10:54.957Z</time></trkpt><trkpt lat="43.5782583" lon="11.6410933"><ele>317.0</ele><time>2026-05-02T10:10:55.953Z</time></trkpt><trkpt lat="43.578275" lon="11.640985"><ele>316.5</ele><time>2026-05-02T10:10:56.957Z</time></trkpt><trkpt lat="43.5782983" lon="11.6408783"><ele>316.0</ele><time>2026-05-02T10:10:57.955Z</time></trkpt><trkpt lat="43.5783217" lon="11.64077"><ele>315.5</ele><time>2026-05-02T10:10:58.954Z</time></trkpt><trkpt lat="43.5783417" lon="11.640665"><ele>315.0</ele><time>2026-05-02T10:10:59.955Z</time></trkpt><trkpt lat="43.578365" lon="11.6405567"><ele>314.5</ele><time>2026-05-02T10:11:00.954Z</time></trkpt><trkpt lat="43.578385" lon="11.640455"><ele>314.0</ele><time>2026-05-02T10:11:01.953Z</time></trkpt><trkpt lat="43.5784083" lon="11.640345"><ele>313.5</ele><time>2026-05-02T10:11:02.955Z</time></trkpt><trkpt lat="43.5784317" lon="11.6402333"><ele>313.0</ele><time>2026-05-02T10:11:03.955Z</time></trkpt><trkpt lat="43.5784567" lon="11.6401167"><ele>312.5</ele><time>2026-05-02T10:11:04.955Z</time></trkpt><trkpt lat="43.5784817" lon="11.640005"><ele>312.0</ele><time>2026-05-02T10:11:05.952Z</time></trkpt><trkpt lat="43.5785067" lon="11.6398967"><ele>311.5</ele><time>2026-05-02T10:11:06.956Z</time></trkpt><trkpt lat="43.5785333" lon="11.639785"><ele>311.0</ele><time>2026-05-02T10:11:07.955Z</time></trkpt><trkpt lat="43.57856" lon="11.6396767"><ele>311.0</ele><time>2026-05-02T10:11:08.955Z</time></trkpt><trkpt lat="43.5785867" lon="11.63957"><ele>311.0</ele><time>2026-05-02T10:11:09.953Z</time></trkpt><trkpt lat="43.5786083" lon="11.639465"><ele>311.0</ele><time>2026-05-02T10:11:10.953Z</time></trkpt><trkpt lat="43.57863" lon="11.63936"><ele>311.0</ele><time>2026-05-02T10:11:11.952Z</time></trkpt><trkpt lat="43.57865" lon="11.6392567"><ele>311.0</ele><time>2026-05-02T10:11:12.954Z</time></trkpt><trkpt lat="43.57867" lon="11.6391583"><ele>311.0</ele><time>2026-05-02T10:11:13.954Z</time></trkpt><trkpt lat="43.578695" lon="11.6390533"><ele>312.5</ele><time>2026-05-02T10:11:14.955Z</time></trkpt><trkpt lat="43.57872" lon="11.63895"><ele>314.0</ele><time>2026-05-02T10:11:15.954Z</time></trkpt><trkpt lat="43.5787433" lon="11.6388467"><ele>315.5</ele><time>2026-05-02T10:11:16.954Z</time></trkpt><trkpt lat="43.5787633" lon="11.6387483"><ele>317.0</ele><time>2026-05-02T10:11:17.954Z</time></trkpt><trkpt lat="43.5787833" lon="11.6386467"><ele>318.5</ele><time>2026-05-02T10:11:18.955Z</time></trkpt><trkpt lat="43.578805" lon="11.6385467"><ele>320.0</ele><time>2026-05-02T10:11:19.957Z</time></trkpt><trkpt lat="43.5788267" lon="11.6384483"><ele>319.85714285714283</ele><time>2026-05-02T10:11:20.955Z</time></trkpt><trkpt lat="43.5788483" lon="11.6383483"><ele>319.7142857142857</ele><time>2026-05-02T10:11:21.955Z</time></trkpt><trkpt lat="43.57887" lon="11.6382483"><ele>319.57142857142856</ele><time>2026-05-02T10:11:22.955Z</time></trkpt><trkpt lat="43.5788917" lon="11.6381483"><ele>319.42857142857144</ele><time>2026-05-02T10:11:23.955Z</time></trkpt><trkpt lat="43.5789133" lon="11.63805"><ele>319.2857142857143</ele><time>2026-05-02T10:11:24.956Z</time></trkpt><trkpt lat="43.578935" lon="11.6379533"><ele>319.14285714285717</ele><time>2026-05-02T10:11:25.955Z</time></trkpt><trkpt lat="43.578955" lon="11.63786"><ele>319.0</ele><time>2026-05-02T10:11:26.955Z</time></trkpt><trkpt lat="43.5789767" lon="11.637765"><ele>319.0</ele><time>2026-05-02T10:11:27.954Z</time></trkpt><trkpt lat="43.5790017" lon="11.6376633"><ele>319.0</ele><time>2026-05-02T10:11:28.955Z</time></trkpt><trkpt lat="43.5790217" lon="11.63757"><ele>319.0</ele><time>2026-05-02T10:11:29.953Z</time></trkpt><trkpt lat="43.5790433" lon="11.6374733"><ele>319.0</ele><time>2026-05-02T10:11:30.956Z</time></trkpt><trkpt lat="43.5790667" lon="11.6373767"><ele>319.0</ele><time>2026-05-02T10:11:31.954Z</time></trkpt><trkpt lat="43.5790933" lon="11.6372817"><ele>319.0</ele><time>2026-05-02T10:11:32.954Z</time></trkpt><trkpt lat="43.5791183" lon="11.6371883"><ele>319.0</ele><time>2026-05-02T10:11:33.953Z</time></trkpt><trkpt lat="43.5791433" lon="11.6370933"><ele>319.0</ele><time>2026-05-02T10:11:34.955Z</time></trkpt><trkpt lat="43.5791683" lon="11.6370017"><ele>319.0</ele><time>2026-05-02T10:11:35.954Z</time></trkpt><trkpt lat="43.579195" lon="11.6369133"><ele>319.0</ele><time>2026-05-02T10:11:36.955Z</time></trkpt><trkpt lat="43.579225" lon="11.6368283"><ele>319.0</ele><time>2026-05-02T10:11:37.953Z</time></trkpt><trkpt lat="43.57926" lon="11.6367433"><ele>319.0</ele><time>2026-05-02T10:11:38.954Z</time></trkpt><trkpt lat="43.5792983" lon="11.6366633"><ele>319.0</ele><time>2026-05-02T10:11:39.953Z</time></trkpt><trkpt lat="43.57934" lon="11.6365833"><ele>319.0</ele><time>2026-05-02T10:11:40.953Z</time></trkpt><trkpt lat="43.5793817" lon="11.636505"><ele>319.2857142857143</ele><time>2026-05-02T10:11:41.953Z</time></trkpt><trkpt lat="43.5794267" lon="11.6364267"><ele>319.57142857142856</ele><time>2026-05-02T10:11:42.954Z</time></trkpt><trkpt lat="43.5794717" lon="11.63635"><ele>319.85714285714283</ele><time>2026-05-02T10:11:43.955Z</time></trkpt><trkpt lat="43.5795167" lon="11.6362733"><ele>320.1428571428571</ele><time>2026-05-02T10:11:44.954Z</time></trkpt><trkpt lat="43.57956" lon="11.6361917"><ele>320.42857142857144</ele><time>2026-05-02T10:11:45.956Z</time></trkpt><trkpt lat="43.5796" lon="11.6361117"><ele>320.71428571428567</ele><time>2026-05-02T10:11:46.954Z</time></trkpt><trkpt lat="43.5796417" lon="11.63603"><ele>321.0</ele><time>2026-05-02T10:11:47.954Z</time></trkpt><trkpt lat="43.57968" lon="11.6359533"><ele>320.99999999999994</ele><time>2026-05-02T10:11:48.954Z</time></trkpt><trkpt lat="43.5797233" lon="11.6358717"><ele>321.0</ele><time>2026-05-02T10:11:49.956Z</time></trkpt><trkpt lat="43.5797633" lon="11.635795"><ele>321.0</ele><time>2026-05-02T10:11:50.955Z</time></trkpt><trkpt lat="43.5798067" lon="11.6357167"><ele>321.0</ele><time>2026-05-02T10:11:51.955Z</time></trkpt><trkpt lat="43.5798467" lon="11.63564"><ele>321.0</ele><time>2026-05-02T10:11:52.954Z</time></trkpt><trkpt lat="43.57989" lon="11.6355633"><ele>320.99999999999994</ele><time>2026-05-02T10:11:53.954Z</time></trkpt><trkpt lat="43.5799367" lon="11.6354883"><ele>321.0</ele><time>2026-05-02T10:11:54.955Z</time></trkpt><trkpt lat="43.5799867" lon="11.6354133"><ele>320.99999999999994</ele><time>2026-05-02T10:11:55.955Z</time></trkpt><trkpt lat="43.5800367" lon="11.6353417"><ele>321.0</ele><time>2026-05-02T10:11:56.954Z</time></trkpt><trkpt lat="43.580085" lon="11.635275"><ele>321.0</ele><time>2026-05-02T10:11:57.953Z</time></trkpt><trkpt lat="43.5801367" lon="11.6352067"><ele>321.0</ele><time>2026-05-02T10:11:58.955Z</time></trkpt><trkpt lat="43.5801917" lon="11.63514"><ele>321.0</ele><time>2026-05-02T10:11:59.955Z</time></trkpt><trkpt lat="43.5802517" lon="11.6350767"><ele>320.99999999999994</ele><time>2026-05-02T10:12:00.954Z</time></trkpt><trkpt lat="43.580315" lon="11.635015"><ele>321.0</ele><time>2026-05-02T10:12:01.956Z</time></trkpt><trkpt lat="43.580375" lon="11.63495"><ele>321.6666666666667</ele><time>2026-05-02T10:12:02.954Z</time></trkpt><trkpt lat="43.5804367" lon="11.6348833"><ele>322.3333333333333</ele><time>2026-05-02T10:12:03.954Z</time></trkpt><trkpt lat="43.5804983" lon="11.634815"><ele>323.0</ele><time>2026-05-02T10:12:04.953Z</time></trkpt><trkpt lat="43.5805633" lon="11.6347483"><ele>323.66666666666663</ele><time>2026-05-02T10:12:05.953Z</time></trkpt><trkpt lat="43.58063" lon="11.6346833"><ele>324.3333333333333</ele><time>2026-05-02T10:12:06.955Z</time></trkpt><trkpt lat="43.580695" lon="11.634615"><ele>325.0</ele><time>2026-05-02T10:12:07.956Z</time></trkpt><trkpt lat="43.58076" lon="11.6345483"><ele>325.0</ele><time>2026-05-02T10:12:08.954Z</time></trkpt><trkpt lat="43.5808267" lon="11.6344767"><ele>325.0</ele><time>2026-05-02T10:12:09.954Z</time></trkpt><trkpt lat="43.5808933" lon="11.6344067"><ele>325.0</ele><time>2026-05-02T10:12:10.954Z</time></trkpt><trkpt lat="43.58096" lon="11.63434"><ele>325.0</ele><time>2026-05-02T10:12:11.953Z</time></trkpt><trkpt lat="43.581025" lon="11.6342733"><ele>325.0</ele><time>2026-05-02T10:12:12.954Z</time></trkpt><trkpt lat="43.581095" lon="11.6342083"><ele>325.0</ele><time>2026-05-02T10:12:13.954Z</time></trkpt><trkpt lat="43.5811633" lon="11.634155"><ele>324.3333333333333</ele><time>2026-05-02T10:12:14.956Z</time></trkpt><trkpt lat="43.5812417" lon="11.63411"><ele>323.66666666666663</ele><time>2026-05-02T10:12:15.956Z</time></trkpt><trkpt lat="43.5813217" lon="11.6340817"><ele>323.0</ele><time>2026-05-02T10:12:16.953Z</time></trkpt><trkpt lat="43.5814033" lon="11.63408"><ele>322.3333333333333</ele><time>2026-05-02T10:12:17.955Z</time></trkpt><trkpt lat="43.5814767" lon="11.6340917"><ele>321.6666666666667</ele><time>2026-05-02T10:12:18.956Z</time></trkpt><trkpt lat="43.5815633" lon="11.634105"><ele>321.0</ele><time>2026-05-02T10:12:19.954Z</time></trkpt><trkpt lat="43.58165" lon="11.6341167"><ele>321.0</ele><time>2026-05-02T10:12:20.954Z</time></trkpt><trkpt lat="43.5817367" lon="11.634125"><ele>321.0</ele><time>2026-05-02T10:12:21.954Z</time></trkpt><trkpt lat="43.58182" lon="11.6340967"><ele>321.0</ele><time>2026-05-02T10:12:22.954Z</time></trkpt><trkpt lat="43.581895" lon="11.6340517"><ele>321.0</ele><time>2026-05-02T10:12:23.956Z</time></trkpt><trkpt lat="43.5819617" lon="11.6339817"><ele>321.0</ele><time>2026-05-02T10:12:24.956Z</time></trkpt><trkpt lat="43.58202" lon="11.63389"><ele>321.0</ele><time>2026-05-02T10:12:25.954Z</time></trkpt><trkpt lat="43.5820717" lon="11.6337933"><ele>321.5</ele><time>2026-05-02T10:12:26.955Z</time></trkpt><trkpt lat="43.582125" lon="11.6336983"><ele>322.0</ele><time>2026-05-02T10:12:27.957Z</time></trkpt><trkpt lat="43.5821817" lon="11.633615"><ele>322.5</ele><time>2026-05-02T10:12:28.955Z</time></trkpt><trkpt lat="43.582245" lon="11.63354"><ele>323.0</ele><time>2026-05-02T10:12:29.953Z</time></trkpt><trkpt lat="43.5823183" lon="11.633475"><ele>323.5</ele><time>2026-05-02T10:12:30.953Z</time></trkpt><trkpt lat="43.582405" lon="11.63343"><ele>324.0</ele><time>2026-05-02T10:12:31.954Z</time></trkpt><trkpt lat="43.5824933" lon="11.6334033"><ele>321.59999999999997</ele><time>2026-05-02T10:12:32.956Z</time></trkpt><trkpt lat="43.5825817" lon="11.6333883"><ele>319.2</ele><time>2026-05-02T10:12:33.955Z</time></trkpt><trkpt lat="43.58268" lon="11.6333767"><ele>316.79999999999995</ele><time>2026-05-02T10:12:34.956Z</time></trkpt><trkpt lat="43.5827733" lon="11.6333767"><ele>314.4</ele><time>2026-05-02T10:12:35.954Z</time></trkpt><trkpt lat="43.58287" lon="11.6333817"><ele>312.0</ele><time>2026-05-02T10:12:36.954Z</time></trkpt><trkpt lat="43.582965" lon="11.6333817"><ele>311.6</ele><time>2026-05-02T10:12:37.953Z</time></trkpt><trkpt lat="43.58306" lon="11.6333883"><ele>311.2</ele><time>2026-05-02T10:12:38.954Z</time></trkpt><trkpt lat="43.5831583" lon="11.6333967"><ele>310.8</ele><time>2026-05-02T10:12:39.954Z</time></trkpt><trkpt lat="43.5832533" lon="11.6334067"><ele>310.4</ele><time>2026-05-02T10:12:40.956Z</time></trkpt><trkpt lat="43.5833483" lon="11.63342"><ele>310.0</ele><time>2026-05-02T10:12:41.955Z</time></trkpt><trkpt lat="43.58344" lon="11.6334283"><ele>310.0</ele><time>2026-05-02T10:12:42.955Z</time></trkpt><trkpt lat="43.5835317" lon="11.6334433"><ele>310.0</ele><time>2026-05-02T10:12:43.956Z</time></trkpt><trkpt lat="43.5836217" lon="11.6334633"><ele>310.0</ele><time>2026-05-02T10:12:44.955Z</time></trkpt><trkpt lat="43.58371" lon="11.633485"><ele>310.0</ele><time>2026-05-02T10:12:45.956Z</time></trkpt><trkpt lat="43.5837983" lon="11.6335117"><ele>310.0</ele><time>2026-05-02T10:12:46.955Z</time></trkpt><trkpt lat="43.5838817" lon="11.63354"><ele>310.0</ele><time>2026-05-02T10:12:47.955Z</time></trkpt><trkpt lat="43.5839617" lon="11.6335683"><ele>310.16666666666663</ele><time>2026-05-02T10:12:48.958Z</time></trkpt><trkpt lat="43.5840367" lon="11.6335967"><ele>310.3333333333333</ele><time>2026-05-02T10:12:49.954Z</time></trkpt><trkpt lat="43.5841133" lon="11.6336267"><ele>310.5</ele><time>2026-05-02T10:12:50.954Z</time></trkpt><trkpt lat="43.5841867" lon="11.6336517"><ele>310.6666666666667</ele><time>2026-05-02T10:12:51.954Z</time></trkpt><trkpt lat="43.5842567" lon="11.6336783"><ele>310.83333333333337</ele><time>2026-05-02T10:12:52.956Z</time></trkpt><trkpt lat="43.5843267" lon="11.6337067"><ele>311.0</ele><time>2026-05-02T10:12:53.955Z</time></trkpt><trkpt lat="43.5843967" lon="11.6337333"><ele>312.83333333333337</ele><time>2026-05-02T10:12:54.955Z</time></trkpt><trkpt lat="43.5844633" lon="11.6337567"><ele>314.6666666666667</ele><time>2026-05-02T10:12:55.954Z</time></trkpt><trkpt lat="43.58453" lon="11.6337817"><ele>316.5</ele><time>2026-05-02T10:12:56.955Z</time></trkpt><trkpt lat="43.584595" lon="11.6338083"><ele>318.3333333333333</ele><time>2026-05-02T10:12:57.956Z</time></trkpt><trkpt lat="43.5846583" lon="11.6338333"><ele>320.16666666666663</ele><time>2026-05-02T10:12:58.956Z</time></trkpt><trkpt lat="43.5847217" lon="11.63386"><ele>322.0</ele><time>2026-05-02T10:12:59.957Z</time></trkpt><trkpt lat="43.5848467" lon="11.6339033"><ele>322.0</ele><time>2026-05-02T10:13:01.955Z</time></trkpt><trkpt lat="43.58491" lon="11.6339267"><ele>322.0</ele><time>2026-05-02T10:13:02.953Z</time></trkpt><trkpt lat="43.5849717" lon="11.6339533"><ele>322.0</ele><time>2026-05-02T10:13:03.955Z</time></trkpt><trkpt lat="43.5850933" lon="11.6340033"><ele>322.0</ele><time>2026-05-02T10:13:05.954Z</time></trkpt><trkpt lat="43.585155" lon="11.6340267"><ele>322.0</ele><time>2026-05-02T10:13:06.955Z</time></trkpt><trkpt lat="43.58527" lon="11.63407"><ele>322.0</ele><time>2026-05-02T10:13:08.954Z</time></trkpt><trkpt lat="43.5853833" lon="11.6341133"><ele>321.8</ele><time>2026-05-02T10:13:10.955Z</time></trkpt><trkpt lat="43.5854967" lon="11.6341533"><ele>321.6</ele><time>2026-05-02T10:13:12.955Z</time></trkpt><trkpt lat="43.58561" lon="11.6341983"><ele>321.40000000000003</ele><time>2026-05-02T10:13:14.955Z</time></trkpt><trkpt lat="43.5857267" lon="11.6342433"><ele>321.20000000000005</ele><time>2026-05-02T10:13:16.955Z</time></trkpt><trkpt lat="43.5857883" lon="11.6342683"><ele>321.0</ele><time>2026-05-02T10:13:17.956Z</time></trkpt><trkpt lat="43.5859083" lon="11.634315"><ele>321.0</ele><time>2026-05-02T10:13:19.955Z</time></trkpt><trkpt lat="43.5860233" lon="11.6343617"><ele>321.0</ele><time>2026-05-02T10:13:21.955Z</time></trkpt><trkpt lat="43.5861383" lon="11.6344133"><ele>321.0</ele><time>2026-05-02T10:13:23.953Z</time></trkpt><trkpt lat="43.5862" lon="11.6344367"><ele>321.0</ele><time>2026-05-02T10:13:24.952Z</time></trkpt><trkpt lat="43.5863183" lon="11.6344717"><ele>321.0</ele><time>2026-05-02T10:13:26.953Z</time></trkpt><trkpt lat="43.5863817" lon="11.63448"><ele>320.8</ele><time>2026-05-02T10:13:27.953Z</time></trkpt><trkpt lat="43.586505" lon="11.6344567"><ele>320.6</ele><time>2026-05-02T10:13:29.954Z</time></trkpt><trkpt lat="43.5865683" lon="11.6344283"><ele>320.4</ele><time>2026-05-02T10:13:30.957Z</time></trkpt><trkpt lat="43.5866817" lon="11.6343483"><ele>320.2</ele><time>2026-05-02T10:13:32.956Z</time></trkpt><trkpt lat="43.5867367" lon="11.6342933"><ele>320.0</ele><time>2026-05-02T10:13:33.952Z</time></trkpt><trkpt lat="43.586785" lon="11.634225"><ele>320.0</ele><time>2026-05-02T10:13:34.953Z</time></trkpt><trkpt lat="43.586825" lon="11.6341467"><ele>320.0</ele><time>2026-05-02T10:13:35.955Z</time></trkpt><trkpt lat="43.5868583" lon="11.634055"><ele>320.0</ele><time>2026-05-02T10:13:36.953Z</time></trkpt><trkpt lat="43.58688" lon="11.6339533"><ele>320.0</ele><time>2026-05-02T10:13:37.953Z</time></trkpt><trkpt lat="43.5868983" lon="11.6338433"><ele>320.0</ele><time>2026-05-02T10:13:38.954Z</time></trkpt><trkpt lat="43.58692" lon="11.6337183"><ele>320.0</ele><time>2026-05-02T10:13:39.955Z</time></trkpt><trkpt lat="43.5869433" lon="11.6335933"><ele>319.2</ele><time>2026-05-02T10:13:40.954Z</time></trkpt><trkpt lat="43.5869783" lon="11.633465"><ele>318.4</ele><time>2026-05-02T10:13:41.954Z</time></trkpt><trkpt lat="43.5870267" lon="11.6333433"><ele>317.6</ele><time>2026-05-02T10:13:42.955Z</time></trkpt><trkpt lat="43.58709" lon="11.6332333"><ele>316.8</ele><time>2026-05-02T10:13:43.954Z</time></trkpt><trkpt lat="43.5871617" lon="11.6331317"><ele>316.0</ele><time>2026-05-02T10:13:44.956Z</time></trkpt><trkpt lat="43.5872417" lon="11.6330367"><ele>316.0</ele><time>2026-05-02T10:13:45.953Z</time></trkpt><trkpt lat="43.58733" lon="11.63296"><ele>316.0</ele><time>2026-05-02T10:13:46.956Z</time></trkpt><trkpt lat="43.5874267" lon="11.6328983"><ele>316.0</ele><time>2026-05-02T10:13:47.955Z</time></trkpt><trkpt lat="43.5875233" lon="11.63285"><ele>316.0</ele><time>2026-05-02T10:13:48.955Z</time></trkpt><trkpt lat="43.5876267" lon="11.6328133"><ele>316.0</ele><time>2026-05-02T10:13:49.953Z</time></trkpt><trkpt lat="43.587735" lon="11.6327833"><ele>313.6</ele><time>2026-05-02T10:13:50.954Z</time></trkpt><trkpt lat="43.58784" lon="11.6327567"><ele>311.20000000000005</ele><time>2026-05-02T10:13:51.957Z</time></trkpt><trkpt lat="43.5879417" lon="11.63273"><ele>308.79999999999995</ele><time>2026-05-02T10:13:52.952Z</time></trkpt><trkpt lat="43.5880417" lon="11.6327083"><ele>306.4</ele><time>2026-05-02T10:13:53.954Z</time></trkpt><trkpt lat="43.5881417" lon="11.6326867"><ele>304.0</ele><time>2026-05-02T10:13:54.954Z</time></trkpt><trkpt lat="43.58824" lon="11.632665"><ele>303.8</ele><time>2026-05-02T10:13:55.956Z</time></trkpt><trkpt lat="43.5883383" lon="11.632645"><ele>303.59999999999997</ele><time>2026-05-02T10:13:56.955Z</time></trkpt><trkpt lat="43.5884383" lon="11.6326183"><ele>303.4</ele><time>2026-05-02T10:13:57.954Z</time></trkpt><trkpt lat="43.58854" lon="11.632595"><ele>303.2</ele><time>2026-05-02T10:13:58.955Z</time></trkpt><trkpt lat="43.5886383" lon="11.6325767"><ele>303.0</ele><time>2026-05-02T10:13:59.953Z</time></trkpt><trkpt lat="43.5887367" lon="11.632565"><ele>303.0</ele><time>2026-05-02T10:14:00.953Z</time></trkpt><trkpt lat="43.58884" lon="11.63257"><ele>303.0</ele><time>2026-05-02T10:14:01.954Z</time></trkpt><trkpt lat="43.5889433" lon="11.632595"><ele>303.0</ele><time>2026-05-02T10:14:02.954Z</time></trkpt><trkpt lat="43.5890483" lon="11.6326267"><ele>303.0</ele><time>2026-05-02T10:14:03.953Z</time></trkpt><trkpt lat="43.5891533" lon="11.6326583"><ele>303.0</ele><time>2026-05-02T10:14:04.953Z</time></trkpt><trkpt lat="43.5892583" lon="11.6326717"><ele>303.0</ele><time>2026-05-02T10:14:05.954Z</time></trkpt><trkpt lat="43.589365" lon="11.6326667"><ele>303.0</ele><time>2026-05-02T10:14:06.955Z</time></trkpt><trkpt lat="43.5894667" lon="11.63264"><ele>303.0</ele><time>2026-05-02T10:14:07.955Z</time></trkpt><trkpt lat="43.589565" lon="11.6326017"><ele>303.0</ele><time>2026-05-02T10:14:08.954Z</time></trkpt><trkpt lat="43.5896617" lon="11.6325633"><ele>303.0</ele><time>2026-05-02T10:14:09.953Z</time></trkpt><trkpt lat="43.5897567" lon="11.6325283"><ele>304.2</ele><time>2026-05-02T10:14:10.954Z</time></trkpt><trkpt lat="43.5898483" lon="11.6324917"><ele>305.4</ele><time>2026-05-02T10:14:11.957Z</time></trkpt><trkpt lat="43.5899417" lon="11.6324617"><ele>306.59999999999997</ele><time>2026-05-02T10:14:12.955Z</time></trkpt><trkpt lat="43.5900367" lon="11.6324417"><ele>307.8</ele><time>2026-05-02T10:14:13.956Z</time></trkpt><trkpt lat="43.5901333" lon="11.63244"><ele>309.0</ele><time>2026-05-02T10:14:14.955Z</time></trkpt><trkpt lat="43.5902317" lon="11.6324517"><ele>309.0</ele><time>2026-05-02T10:14:15.953Z</time></trkpt><trkpt lat="43.590325" lon="11.632475"><ele>309.0</ele><time>2026-05-02T10:14:16.954Z</time></trkpt><trkpt lat="43.5904167" lon="11.6325033"><ele>309.0</ele><time>2026-05-02T10:14:17.954Z</time></trkpt><trkpt lat="43.5905083" lon="11.6325367"><ele>309.0</ele><time>2026-05-02T10:14:18.954Z</time></trkpt><trkpt lat="43.5905933" lon="11.63257"><ele>309.0</ele><time>2026-05-02T10:14:19.954Z</time></trkpt><trkpt lat="43.5906833" lon="11.632615"><ele>309.2</ele><time>2026-05-02T10:14:20.956Z</time></trkpt><trkpt lat="43.5907733" lon="11.6326667"><ele>309.4</ele><time>2026-05-02T10:14:21.955Z</time></trkpt><trkpt lat="43.5908583" lon="11.6327233"><ele>309.6</ele><time>2026-05-02T10:14:22.955Z</time></trkpt><trkpt lat="43.5909433" lon="11.632785"><ele>309.8</ele><time>2026-05-02T10:14:23.954Z</time></trkpt><trkpt lat="43.5910233" lon="11.632845"><ele>310.0</ele><time>2026-05-02T10:14:24.954Z</time></trkpt><trkpt lat="43.591105" lon="11.6329033"><ele>313.2</ele><time>2026-05-02T10:14:25.956Z</time></trkpt><trkpt lat="43.59119" lon="11.6329567"><ele>316.4</ele><time>2026-05-02T10:14:26.956Z</time></trkpt><trkpt lat="43.59128" lon="11.6330017"><ele>319.6</ele><time>2026-05-02T10:14:27.956Z</time></trkpt><trkpt lat="43.5913717" lon="11.6330383"><ele>322.8</ele><time>2026-05-02T10:14:28.955Z</time></trkpt><trkpt lat="43.59146" lon="11.6330583"><ele>326.0</ele><time>2026-05-02T10:14:29.954Z</time></trkpt><trkpt lat="43.59155" lon="11.6330617"><ele>326.0</ele><time>2026-05-02T10:14:30.954Z</time></trkpt><trkpt lat="43.5916383" lon="11.6330433"><ele>326.0</ele><time>2026-05-02T10:14:31.954Z</time></trkpt><trkpt lat="43.5917233" lon="11.633015"><ele>326.0</ele><time>2026-05-02T10:14:32.955Z</time></trkpt><trkpt lat="43.5918033" lon="11.63298"><ele>326.0</ele><time>2026-05-02T10:14:33.955Z</time></trkpt><trkpt lat="43.5918833" lon="11.6329667"><ele>326.0</ele><time>2026-05-02T10:14:34.956Z</time></trkpt><trkpt lat="43.59196" lon="11.6329717"><ele>326.0</ele><time>2026-05-02T10:14:35.955Z</time></trkpt><trkpt lat="43.59203" lon="11.6329933"><ele>326.20000000000005</ele><time>2026-05-02T10:14:36.955Z</time></trkpt><trkpt lat="43.59214" lon="11.6330633"><ele>326.40000000000003</ele><time>2026-05-02T10:14:38.955Z</time></trkpt><trkpt lat="43.592225" lon="11.6331383"><ele>326.6</ele><time>2026-05-02T10:14:40.953Z</time></trkpt><trkpt lat="43.5923017" lon="11.63319"><ele>326.8</ele><time>2026-05-02T10:14:42.954Z</time></trkpt><trkpt lat="43.5923867" lon="11.6332133"><ele>327.0</ele><time>2026-05-02T10:14:44.954Z</time></trkpt><trkpt lat="43.5924767" lon="11.6331817"><ele>327.0</ele><time>2026-05-02T10:14:46.954Z</time></trkpt><trkpt lat="43.5925583" lon="11.6331183"><ele>327.0</ele><time>2026-05-02T10:14:48.957Z</time></trkpt><trkpt lat="43.592615" lon="11.6330567"><ele>327.0</ele><time>2026-05-02T10:14:50.955Z</time></trkpt><trkpt lat="43.5926517" lon="11.6329833"><ele>327.0</ele><time>2026-05-02T10:14:52.955Z</time></trkpt><trkpt lat="43.59268" lon="11.6328783"><ele>327.0</ele><time>2026-05-02T10:14:55.954Z</time></trkpt><trkpt lat="43.5927017" lon="11.6327933"><ele>327.0</ele><time>2026-05-02T10:14:58.954Z</time></trkpt><trkpt lat="43.5927283" lon="11.6327017"><ele>327.0</ele><time>2026-05-02T10:15:01.954Z</time></trkpt><trkpt lat="43.5927717" lon="11.632635"><ele>326.1666666666667</ele><time>2026-05-02T10:15:03.953Z</time></trkpt><trkpt lat="43.5927983" lon="11.6325317"><ele>325.3333333333333</ele><time>2026-05-02T10:15:05.954Z</time></trkpt><trkpt lat="43.5927917" lon="11.6324133"><ele>324.5</ele><time>2026-05-02T10:15:07.954Z</time></trkpt><trkpt lat="43.5927683" lon="11.6322933"><ele>323.66666666666663</ele><time>2026-05-02T10:15:09.953Z</time></trkpt><trkpt lat="43.5927383" lon="11.63221"><ele>322.8333333333333</ele><time>2026-05-02T10:15:11.953Z</time></trkpt><trkpt lat="43.59275" lon="11.632075"><ele>322.0</ele><time>2026-05-02T10:15:15.954Z</time></trkpt><trkpt lat="43.5928583" lon="11.6318917"><ele>321.20000000000005</ele><time>2026-05-02T10:15:19.952Z</time></trkpt><trkpt lat="43.5929117" lon="11.631845"><ele>320.40000000000003</ele><time>2026-05-02T10:15:20.952Z</time></trkpt><trkpt lat="43.5930467" lon="11.6317733"><ele>319.6</ele><time>2026-05-02T10:15:23.952Z</time></trkpt><trkpt lat="43.5931183" lon="11.6317033"><ele>318.8</ele><time>2026-05-02T10:15:25.952Z</time></trkpt><trkpt lat="43.5931617" lon="11.6316033"><ele>318.0</ele><time>2026-05-02T10:15:27.952Z</time></trkpt><trkpt lat="43.5931567" lon="11.63149"><ele>318.0</ele><time>2026-05-02T10:15:29.953Z</time></trkpt><trkpt lat="43.5931233" lon="11.63137"><ele>318.0</ele><time>2026-05-02T10:15:31.953Z</time></trkpt><trkpt lat="43.593085" lon="11.63124"><ele>318.0</ele><time>2026-05-02T10:15:33.952Z</time></trkpt><trkpt lat="43.5930617" lon="11.6311383"><ele>318.0</ele><time>2026-05-02T10:15:35.953Z</time></trkpt><trkpt lat="43.5930433" lon="11.6310467"><ele>318.0</ele><time>2026-05-02T10:15:37.952Z</time></trkpt><trkpt lat="43.5930267" lon="11.6309433"><ele>318.0</ele><time>2026-05-02T10:15:39.952Z</time></trkpt><trkpt lat="43.593005" lon="11.630845"><ele>318.0</ele><time>2026-05-02T10:15:41.952Z</time></trkpt><trkpt lat="43.592945" lon="11.6307567"><ele>318.0</ele><time>2026-05-02T10:15:44.955Z</time></trkpt><trkpt lat="43.5928767" lon="11.6307133"><ele>318.0</ele><time>2026-05-02T10:15:46.954Z</time></trkpt><trkpt lat="43.5927917" lon="11.6306833"><ele>318.0</ele><time>2026-05-02T10:15:48.953Z</time></trkpt><trkpt lat="43.592695" lon="11.630665"><ele>318.0</ele><time>2026-05-02T10:15:50.957Z</time></trkpt><trkpt lat="43.5925983" lon="11.63064"><ele>318.0</ele><time>2026-05-02T10:15:52.955Z</time></trkpt><trkpt lat="43.592505" lon="11.6306167"><ele>317.6</ele><time>2026-05-02T10:15:54.954Z</time></trkpt><trkpt lat="43.5924217" lon="11.6306033"><ele>317.20000000000005</ele><time>2026-05-02T10:15:56.953Z</time></trkpt><trkpt lat="43.5923467" lon="11.6306017"><ele>316.8</ele><time>2026-05-02T10:15:58.954Z</time></trkpt><trkpt lat="43.592245" lon="11.6305933"><ele>316.40000000000003</ele><time>2026-05-02T10:16:00.953Z</time></trkpt><trkpt lat="43.5921283" lon="11.6305917"><ele>316.0</ele><time>2026-05-02T10:16:02.954Z</time></trkpt><trkpt lat="43.5920067" lon="11.6306117"><ele>315.2</ele><time>2026-05-02T10:16:04.955Z</time></trkpt><trkpt lat="43.5918867" lon="11.630645"><ele>314.40000000000003</ele><time>2026-05-02T10:16:06.953Z</time></trkpt><trkpt lat="43.591825" lon="11.6306633"><ele>313.6</ele><time>2026-05-02T10:16:07.956Z</time></trkpt><trkpt lat="43.59171" lon="11.6307017"><ele>312.8</ele><time>2026-05-02T10:16:09.954Z</time></trkpt><trkpt lat="43.5915883" lon="11.6307183"><ele>312.0</ele><time>2026-05-02T10:16:11.953Z</time></trkpt><trkpt lat="43.591525" lon="11.63072"><ele>312.0</ele><time>2026-05-02T10:16:12.955Z</time></trkpt><trkpt lat="43.59146" lon="11.6307133"><ele>312.0</ele><time>2026-05-02T10:16:13.954Z</time></trkpt><trkpt lat="43.5913967" lon="11.6306983"><ele>312.0</ele><time>2026-05-02T10:16:14.957Z</time></trkpt><trkpt lat="43.5912833" lon="11.630635"><ele>312.0</ele><time>2026-05-02T10:16:16.956Z</time></trkpt><trkpt lat="43.591225" lon="11.6305883"><ele>312.0</ele><time>2026-05-02T10:16:17.955Z</time></trkpt><trkpt lat="43.591175" lon="11.6305317"><ele>312.0</ele><time>2026-05-02T10:16:18.955Z</time></trkpt><trkpt lat="43.5911267" lon="11.6304717"><ele>312.0</ele><time>2026-05-02T10:16:19.954Z</time></trkpt><trkpt lat="43.5910783" lon="11.6304083"><ele>312.8333333333333</ele><time>2026-05-02T10:16:20.955Z</time></trkpt><trkpt lat="43.5910333" lon="11.6303433"><ele>313.6666666666667</ele><time>2026-05-02T10:16:21.954Z</time></trkpt><trkpt lat="43.59095" lon="11.6302083"><ele>314.5</ele><time>2026-05-02T10:16:23.956Z</time></trkpt><trkpt lat="43.590905" lon="11.6301417"><ele>315.33333333333337</ele><time>2026-05-02T10:16:24.953Z</time></trkpt><trkpt lat="43.59086" lon="11.630075"><ele>316.1666666666667</ele><time>2026-05-02T10:16:25.956Z</time></trkpt><trkpt lat="43.59082" lon="11.6300067"><ele>317.0</ele><time>2026-05-02T10:16:26.955Z</time></trkpt><trkpt lat="43.590735" lon="11.629885"><ele>317.0</ele><time>2026-05-02T10:16:28.956Z</time></trkpt><trkpt lat="43.5906883" lon="11.6298267"><ele>317.0</ele><time>2026-05-02T10:16:29.956Z</time></trkpt><trkpt lat="43.5906367" lon="11.62977"><ele>317.0</ele><time>2026-05-02T10:16:30.953Z</time></trkpt><trkpt lat="43.5905817" lon="11.6297183"><ele>317.0</ele><time>2026-05-02T10:16:31.954Z</time></trkpt><trkpt lat="43.5905233" lon="11.62967"><ele>317.0</ele><time>2026-05-02T10:16:32.953Z</time></trkpt><trkpt lat="43.5904683" lon="11.6296267"><ele>317.0</ele><time>2026-05-02T10:16:33.952Z</time></trkpt><trkpt lat="43.5903567" lon="11.6295467"><ele>317.2857142857143</ele><time>2026-05-02T10:16:35.954Z</time></trkpt><trkpt lat="43.5903" lon="11.629505"><ele>317.57142857142856</ele><time>2026-05-02T10:16:36.953Z</time></trkpt><trkpt lat="43.59024" lon="11.6294667"><ele>317.8571428571429</ele><time>2026-05-02T10:16:37.954Z</time></trkpt><trkpt lat="43.59018" lon="11.629425"><ele>318.1428571428571</ele><time>2026-05-02T10:16:38.955Z</time></trkpt><trkpt lat="43.5901183" lon="11.629385"><ele>318.4285714285714</ele><time>2026-05-02T10:16:39.955Z</time></trkpt><trkpt lat="43.5900567" lon="11.62934"><ele>318.7142857142857</ele><time>2026-05-02T10:16:40.953Z</time></trkpt><trkpt lat="43.589995" lon="11.6292967"><ele>319.0</ele><time>2026-05-02T10:16:41.952Z</time></trkpt><trkpt lat="43.589935" lon="11.6292517"><ele>319.0</ele><time>2026-05-02T10:16:42.953Z</time></trkpt><trkpt lat="43.5898767" lon="11.6292133"><ele>319.0</ele><time>2026-05-02T10:16:43.953Z</time></trkpt><trkpt lat="43.5898167" lon="11.6291683"><ele>319.0</ele><time>2026-05-02T10:16:44.955Z</time></trkpt><trkpt lat="43.5897567" lon="11.62912"><ele>319.0</ele><time>2026-05-02T10:16:45.954Z</time></trkpt><trkpt lat="43.5897017" lon="11.6290683"><ele>319.0</ele><time>2026-05-02T10:16:46.953Z</time></trkpt><trkpt lat="43.589645" lon="11.6290233"><ele>319.0</ele><time>2026-05-02T10:16:47.953Z</time></trkpt><trkpt lat="43.589585" lon="11.6289767"><ele>319.0</ele><time>2026-05-02T10:16:48.955Z</time></trkpt><trkpt lat="43.5895233" lon="11.6289283"><ele>319.42857142857144</ele><time>2026-05-02T10:16:49.954Z</time></trkpt><trkpt lat="43.5894633" lon="11.62888"><ele>319.85714285714283</ele><time>2026-05-02T10:16:50.955Z</time></trkpt><trkpt lat="43.5894033" lon="11.6288283"><ele>320.2857142857143</ele><time>2026-05-02T10:16:51.953Z</time></trkpt><trkpt lat="43.58934" lon="11.62878"><ele>320.7142857142857</ele><time>2026-05-02T10:16:52.955Z</time></trkpt><trkpt lat="43.5892783" lon="11.6287333"><ele>321.1428571428571</ele><time>2026-05-02T10:16:53.955Z</time></trkpt><trkpt lat="43.5892133" lon="11.6286867"><ele>321.57142857142856</ele><time>2026-05-02T10:16:54.955Z</time></trkpt><trkpt lat="43.5891533" lon="11.62864"><ele>322.0</ele><time>2026-05-02T10:16:55.954Z</time></trkpt><trkpt lat="43.58909" lon="11.6285917"><ele>322.0</ele><time>2026-05-02T10:16:56.953Z</time></trkpt><trkpt lat="43.5890267" lon="11.6285417"><ele>322.0</ele><time>2026-05-02T10:16:57.953Z</time></trkpt><trkpt lat="43.5889633" lon="11.62849"><ele>322.0</ele><time>2026-05-02T10:16:58.953Z</time></trkpt><trkpt lat="43.5889" lon="11.6284383"><ele>322.0</ele><time>2026-05-02T10:16:59.954Z</time></trkpt><trkpt lat="43.5888333" lon="11.628385"><ele>322.0</ele><time>2026-05-02T10:17:00.956Z</time></trkpt><trkpt lat="43.5887683" lon="11.6283283"><ele>322.0</ele><time>2026-05-02T10:17:01.954Z</time></trkpt><trkpt lat="43.5886983" lon="11.6282683"><ele>321.8333333333333</ele><time>2026-05-02T10:17:02.954Z</time></trkpt><trkpt lat="43.5886317" lon="11.6282067"><ele>321.66666666666663</ele><time>2026-05-02T10:17:03.954Z</time></trkpt><trkpt lat="43.5885617" lon="11.6281433"><ele>321.5</ele><time>2026-05-02T10:17:04.955Z</time></trkpt><trkpt lat="43.588495" lon="11.628075"><ele>321.3333333333333</ele><time>2026-05-02T10:17:05.953Z</time></trkpt><trkpt lat="43.5884333" lon="11.628"><ele>321.1666666666667</ele><time>2026-05-02T10:17:06.954Z</time></trkpt><trkpt lat="43.5883767" lon="11.6279183"><ele>321.0</ele><time>2026-05-02T10:17:07.953Z</time></trkpt><trkpt lat="43.588325" lon="11.6278283"><ele>321.0</ele><time>2026-05-02T10:17:08.954Z</time></trkpt><trkpt lat="43.58828" lon="11.6277417"><ele>321.0</ele><time>2026-05-02T10:17:09.954Z</time></trkpt><trkpt lat="43.5882483" lon="11.6276433"><ele>321.0</ele><time>2026-05-02T10:17:10.952Z</time></trkpt><trkpt lat="43.58823" lon="11.6275383"><ele>321.0</ele><time>2026-05-02T10:17:11.954Z</time></trkpt><trkpt lat="43.5882233" lon="11.6274267"><ele>321.0</ele><time>2026-05-02T10:17:12.954Z</time></trkpt><trkpt lat="43.58822" lon="11.627315"><ele>321.0</ele><time>2026-05-02T10:17:13.953Z</time></trkpt><trkpt lat="43.5882217" lon="11.6271967"><ele>321.0</ele><time>2026-05-02T10:17:14.954Z</time></trkpt><trkpt lat="43.5882233" lon="11.6270767"><ele>321.0</ele><time>2026-05-02T10:17:15.955Z</time></trkpt><trkpt lat="43.5882267" lon="11.626955"><ele>321.0</ele><time>2026-05-02T10:17:16.955Z</time></trkpt><trkpt lat="43.5882317" lon="11.6268283"><ele>321.0</ele><time>2026-05-02T10:17:17.957Z</time></trkpt><trkpt lat="43.588235" lon="11.626705"><ele>321.0</ele><time>2026-05-02T10:17:18.954Z</time></trkpt><trkpt lat="43.5882383" lon="11.62658"><ele>321.0</ele><time>2026-05-02T10:17:19.955Z</time></trkpt><trkpt lat="43.5882417" lon="11.6264517"><ele>320.8</ele><time>2026-05-02T10:17:20.954Z</time></trkpt><trkpt lat="43.58824" lon="11.6263283"><ele>320.6</ele><time>2026-05-02T10:17:21.953Z</time></trkpt><trkpt lat="43.588235" lon="11.6262017"><ele>320.4</ele><time>2026-05-02T10:17:22.955Z</time></trkpt><trkpt lat="43.588215" lon="11.6260783"><ele>320.2</ele><time>2026-05-02T10:17:23.954Z</time></trkpt><trkpt lat="43.588175" lon="11.6259633"><ele>320.0</ele><time>2026-05-02T10:17:24.953Z</time></trkpt><trkpt lat="43.58813" lon="11.62585"><ele>320.0</ele><time>2026-05-02T10:17:25.953Z</time></trkpt><trkpt lat="43.5880783" lon="11.625735"><ele>320.0</ele><time>2026-05-02T10:17:26.955Z</time></trkpt><trkpt lat="43.588025" lon="11.6256267"><ele>320.0</ele><time>2026-05-02T10:17:27.952Z</time></trkpt><trkpt lat="43.5879683" lon="11.6255133"><ele>320.0</ele><time>2026-05-02T10:17:28.955Z</time></trkpt><trkpt lat="43.58791" lon="11.6254083"><ele>320.0</ele><time>2026-05-02T10:17:29.954Z</time></trkpt><trkpt lat="43.5878533" lon="11.6253017"><ele>318.4</ele><time>2026-05-02T10:17:30.955Z</time></trkpt><trkpt lat="43.5878" lon="11.6251933"><ele>316.8</ele><time>2026-05-02T10:17:31.955Z</time></trkpt><trkpt lat="43.587745" lon="11.6250833"><ele>315.2</ele><time>2026-05-02T10:17:32.953Z</time></trkpt><trkpt lat="43.5876933" lon="11.6249733"><ele>313.6</ele><time>2026-05-02T10:17:33.953Z</time></trkpt><trkpt lat="43.5876433" lon="11.6248567"><ele>312.0</ele><time>2026-05-02T10:17:34.956Z</time></trkpt><trkpt lat="43.5876033" lon="11.6247367"><ele>312.0</ele><time>2026-05-02T10:17:35.956Z</time></trkpt><trkpt lat="43.5875733" lon="11.62461"><ele>312.0</ele><time>2026-05-02T10:17:36.954Z</time></trkpt><trkpt lat="43.58755" lon="11.6244767"><ele>312.0</ele><time>2026-05-02T10:17:37.955Z</time></trkpt><trkpt lat="43.58753" lon="11.6243433"><ele>312.0</ele><time>2026-05-02T10:17:38.954Z</time></trkpt><trkpt lat="43.5875117" lon="11.6242117"><ele>312.0</ele><time>2026-05-02T10:17:39.955Z</time></trkpt><trkpt lat="43.587495" lon="11.624085"><ele>312.0</ele><time>2026-05-02T10:17:40.953Z</time></trkpt><trkpt lat="43.5874767" lon="11.6239583"><ele>312.0</ele><time>2026-05-02T10:17:41.954Z</time></trkpt><trkpt lat="43.5874583" lon="11.623835"><ele>312.0</ele><time>2026-05-02T10:17:42.954Z</time></trkpt><trkpt lat="43.5874367" lon="11.6237183"><ele>312.0</ele><time>2026-05-02T10:17:43.956Z</time></trkpt><trkpt lat="43.5874133" lon="11.623605"><ele>312.0</ele><time>2026-05-02T10:17:44.954Z</time></trkpt><trkpt lat="43.5873867" lon="11.6234917"><ele>312.0</ele><time>2026-05-02T10:17:45.953Z</time></trkpt><trkpt lat="43.587355" lon="11.6233783"><ele>311.8333333333333</ele><time>2026-05-02T10:17:46.954Z</time></trkpt><trkpt lat="43.5873217" lon="11.62327"><ele>311.6666666666667</ele><time>2026-05-02T10:17:47.956Z</time></trkpt><trkpt lat="43.5872867" lon="11.6231633"><ele>311.5</ele><time>2026-05-02T10:17:48.956Z</time></trkpt><trkpt lat="43.587255" lon="11.6230483"><ele>311.33333333333337</ele><time>2026-05-02T10:17:49.954Z</time></trkpt><trkpt lat="43.5872283" lon="11.622935"><ele>311.1666666666667</ele><time>2026-05-02T10:17:50.954Z</time></trkpt><trkpt lat="43.5872133" lon="11.6228133"><ele>311.0</ele><time>2026-05-02T10:17:51.953Z</time></trkpt><trkpt lat="43.58721" lon="11.6226933"><ele>311.0</ele><time>2026-05-02T10:17:52.956Z</time></trkpt><trkpt lat="43.58721" lon="11.622575"><ele>311.0</ele><time>2026-05-02T10:17:53.954Z</time></trkpt><trkpt lat="43.587205" lon="11.62246"><ele>311.0</ele><time>2026-05-02T10:17:54.953Z</time></trkpt><trkpt lat="43.5872017" lon="11.6223433"><ele>311.0</ele><time>2026-05-02T10:17:55.954Z</time></trkpt><trkpt lat="43.5872" lon="11.6222233"><ele>311.0</ele><time>2026-05-02T10:17:56.956Z</time></trkpt><trkpt lat="43.5871967" lon="11.6221033"><ele>311.0</ele><time>2026-05-02T10:17:57.954Z</time></trkpt><trkpt lat="43.587195" lon="11.62198"><ele>311.1666666666667</ele><time>2026-05-02T10:17:58.955Z</time></trkpt><trkpt lat="43.5871933" lon="11.6218633"><ele>311.33333333333337</ele><time>2026-05-02T10:17:59.955Z</time></trkpt><trkpt lat="43.587195" lon="11.6217483"><ele>311.5</ele><time>2026-05-02T10:18:00.956Z</time></trkpt><trkpt lat="43.5872" lon="11.6216367"><ele>311.6666666666667</ele><time>2026-05-02T10:18:01.955Z</time></trkpt><trkpt lat="43.5872067" lon="11.62153"><ele>311.8333333333333</ele><time>2026-05-02T10:18:02.957Z</time></trkpt><trkpt lat="43.58722" lon="11.6214183"><ele>312.0</ele><time>2026-05-02T10:18:03.955Z</time></trkpt><trkpt lat="43.5872367" lon="11.6213133"><ele>312.0</ele><time>2026-05-02T10:18:04.955Z</time></trkpt><trkpt lat="43.5872567" lon="11.6212067"><ele>312.0</ele><time>2026-05-02T10:18:05.954Z</time></trkpt><trkpt lat="43.5872817" lon="11.6210983"><ele>312.0</ele><time>2026-05-02T10:18:06.953Z</time></trkpt><trkpt lat="43.58731" lon="11.62099"><ele>312.0</ele><time>2026-05-02T10:18:07.954Z</time></trkpt><trkpt lat="43.5873383" lon="11.62088"><ele>312.0</ele><time>2026-05-02T10:18:08.957Z</time></trkpt><trkpt lat="43.5873683" lon="11.62077"><ele>312.0</ele><time>2026-05-02T10:18:09.955Z</time></trkpt><trkpt lat="43.5873983" lon="11.62066"><ele>311.8333333333333</ele><time>2026-05-02T10:18:10.953Z</time></trkpt><trkpt lat="43.5874267" lon="11.62055"><ele>311.6666666666667</ele><time>2026-05-02T10:18:11.956Z</time></trkpt><trkpt lat="43.5874567" lon="11.6204417"><ele>311.5</ele><time>2026-05-02T10:18:12.956Z</time></trkpt><trkpt lat="43.587485" lon="11.6203333"><ele>311.33333333333337</ele><time>2026-05-02T10:18:13.954Z</time></trkpt><trkpt lat="43.5875133" lon="11.6202267"><ele>311.1666666666667</ele><time>2026-05-02T10:18:14.955Z</time></trkpt><trkpt lat="43.587535" lon="11.62012"><ele>311.0</ele><time>2026-05-02T10:18:15.954Z</time></trkpt><trkpt lat="43.5875517" lon="11.6200133"><ele>310.83333333333337</ele><time>2026-05-02T10:18:16.954Z</time></trkpt><trkpt lat="43.5875617" lon="11.61991"><ele>310.6666666666667</ele><time>2026-05-02T10:18:17.954Z</time></trkpt><trkpt lat="43.5875683" lon="11.6198017"><ele>310.5</ele><time>2026-05-02T10:18:18.954Z</time></trkpt><trkpt lat="43.5875717" lon="11.6196883"><ele>310.3333333333333</ele><time>2026-05-02T10:18:19.954Z</time></trkpt><trkpt lat="43.5875717" lon="11.6195717"><ele>310.16666666666663</ele><time>2026-05-02T10:18:20.953Z</time></trkpt><trkpt lat="43.5875717" lon="11.619455"><ele>310.0</ele><time>2026-05-02T10:18:21.953Z</time></trkpt><trkpt lat="43.5875783" lon="11.6193417"><ele>309.66666666666663</ele><time>2026-05-02T10:18:22.954Z</time></trkpt><trkpt lat="43.587595" lon="11.6192267"><ele>309.3333333333333</ele><time>2026-05-02T10:18:23.956Z</time></trkpt><trkpt lat="43.5876217" lon="11.61912"><ele>309.0</ele><time>2026-05-02T10:18:24.955Z</time></trkpt><trkpt lat="43.587655" lon="11.619015"><ele>308.6666666666667</ele><time>2026-05-02T10:18:25.955Z</time></trkpt><trkpt lat="43.5877" lon="11.6189183"><ele>308.33333333333337</ele><time>2026-05-02T10:18:26.955Z</time></trkpt><trkpt lat="43.5877483" lon="11.6188233"><ele>308.0</ele><time>2026-05-02T10:18:27.954Z</time></trkpt><trkpt lat="43.5878033" lon="11.618725"><ele>308.0</ele><time>2026-05-02T10:18:28.953Z</time></trkpt><trkpt lat="43.5878533" lon="11.6186283"><ele>308.0</ele><time>2026-05-02T10:18:29.957Z</time></trkpt><trkpt lat="43.58791" lon="11.6185267"><ele>308.0</ele><time>2026-05-02T10:18:30.955Z</time></trkpt><trkpt lat="43.5879633" lon="11.6184183"><ele>308.0</ele><time>2026-05-02T10:18:31.955Z</time></trkpt><trkpt lat="43.5880133" lon="11.6183033"><ele>308.0</ele><time>2026-05-02T10:18:32.952Z</time></trkpt><trkpt lat="43.5880583" lon="11.6181833"><ele>308.0</ele><time>2026-05-02T10:18:33.954Z</time></trkpt><trkpt lat="43.5880917" lon="11.6180533"><ele>308.0</ele><time>2026-05-02T10:18:34.953Z</time></trkpt><trkpt lat="43.5881133" lon="11.6179133"><ele>308.0</ele><time>2026-05-02T10:18:35.955Z</time></trkpt><trkpt lat="43.5881217" lon="11.6177667"><ele>308.0</ele><time>2026-05-02T10:18:36.954Z</time></trkpt><trkpt lat="43.5881217" lon="11.6176233"><ele>308.0</ele><time>2026-05-02T10:18:37.954Z</time></trkpt><trkpt lat="43.5881083" lon="11.6174817"><ele>307.6</ele><time>2026-05-02T10:18:38.954Z</time></trkpt><trkpt lat="43.5880833" lon="11.6173383"><ele>307.20000000000005</ele><time>2026-05-02T10:18:39.954Z</time></trkpt><trkpt lat="43.5880533" lon="11.6171967"><ele>306.8</ele><time>2026-05-02T10:18:40.952Z</time></trkpt><trkpt lat="43.5880233" lon="11.61705"><ele>306.40000000000003</ele><time>2026-05-02T10:18:41.954Z</time></trkpt><trkpt lat="43.5879917" lon="11.616905"><ele>306.0</ele><time>2026-05-02T10:18:42.955Z</time></trkpt><trkpt lat="43.5879567" lon="11.6167633"><ele>305.6</ele><time>2026-05-02T10:18:43.952Z</time></trkpt><trkpt lat="43.5879183" lon="11.6166283"><ele>305.20000000000005</ele><time>2026-05-02T10:18:44.952Z</time></trkpt><trkpt lat="43.587885" lon="11.61649"><ele>304.79999999999995</ele><time>2026-05-02T10:18:45.954Z</time></trkpt><trkpt lat="43.5878533" lon="11.616345"><ele>304.4</ele><time>2026-05-02T10:18:46.951Z</time></trkpt><trkpt lat="43.5878233" lon="11.6161983"><ele>304.0</ele><time>2026-05-02T10:18:47.953Z</time></trkpt><trkpt lat="43.5878017" lon="11.6160567"><ele>302.4</ele><time>2026-05-02T10:18:48.952Z</time></trkpt><trkpt lat="43.58779" lon="11.6159117"><ele>300.79999999999995</ele><time>2026-05-02T10:18:49.955Z</time></trkpt><trkpt lat="43.5877867" lon="11.61577"><ele>299.20000000000005</ele><time>2026-05-02T10:18:50.954Z</time></trkpt><trkpt lat="43.5877883" lon="11.6156333"><ele>297.6</ele><time>2026-05-02T10:18:51.952Z</time></trkpt><trkpt lat="43.58779" lon="11.6154917"><ele>296.0</ele><time>2026-05-02T10:18:52.953Z</time></trkpt><trkpt lat="43.58779" lon="11.6153567"><ele>296.2</ele><time>2026-05-02T10:18:53.952Z</time></trkpt><trkpt lat="43.5877917" lon="11.6152183"><ele>296.40000000000003</ele><time>2026-05-02T10:18:54.953Z</time></trkpt><trkpt lat="43.5877933" lon="11.6150817"><ele>296.6</ele><time>2026-05-02T10:18:55.952Z</time></trkpt><trkpt lat="43.587795" lon="11.614945"><ele>296.8</ele><time>2026-05-02T10:18:56.955Z</time></trkpt><trkpt lat="43.5877967" lon="11.6148083"><ele>297.0</ele><time>2026-05-02T10:18:57.954Z</time></trkpt><trkpt lat="43.5878" lon="11.6146667"><ele>297.0</ele><time>2026-05-02T10:18:58.954Z</time></trkpt><trkpt lat="43.5878017" lon="11.6145267"><ele>297.0</ele><time>2026-05-02T10:18:59.953Z</time></trkpt><trkpt lat="43.5878083" lon="11.614385"><ele>297.0</ele><time>2026-05-02T10:19:00.952Z</time></trkpt><trkpt lat="43.5878183" lon="11.6142417"><ele>297.0</ele><time>2026-05-02T10:19:01.953Z</time></trkpt><trkpt lat="43.5878367" lon="11.6141"><ele>297.0</ele><time>2026-05-02T10:19:02.955Z</time></trkpt><trkpt lat="43.58787" lon="11.6139567"><ele>297.8</ele><time>2026-05-02T10:19:03.954Z</time></trkpt><trkpt lat="43.5879117" lon="11.613815"><ele>298.6</ele><time>2026-05-02T10:19:04.953Z</time></trkpt><trkpt lat="43.5879567" lon="11.6136767"><ele>299.40000000000003</ele><time>2026-05-02T10:19:05.953Z</time></trkpt><trkpt lat="43.588" lon="11.61354"><ele>300.2</ele><time>2026-05-02T10:19:06.953Z</time></trkpt><trkpt lat="43.5880467" lon="11.6134033"><ele>301.0</ele><time>2026-05-02T10:19:07.954Z</time></trkpt><trkpt lat="43.588095" lon="11.6132667"><ele>299.40000000000003</ele><time>2026-05-02T10:19:08.954Z</time></trkpt><trkpt lat="43.5881517" lon="11.6131317"><ele>297.8</ele><time>2026-05-02T10:19:09.953Z</time></trkpt><trkpt lat="43.5882217" lon="11.6130133"><ele>296.20000000000005</ele><time>2026-05-02T10:19:10.951Z</time></trkpt><trkpt lat="43.58831" lon="11.6129183"><ele>294.6</ele><time>2026-05-02T10:19:11.952Z</time></trkpt><trkpt lat="43.5884117" lon="11.6128483"><ele>293.0</ele><time>2026-05-02T10:19:12.954Z</time></trkpt><trkpt lat="43.5885217" lon="11.6128067"><ele>291.8</ele><time>2026-05-02T10:19:13.953Z</time></trkpt><trkpt lat="43.5886383" lon="11.6127833"><ele>290.6</ele><time>2026-05-02T10:19:14.954Z</time></trkpt><trkpt lat="43.588755" lon="11.61277"><ele>289.4</ele><time>2026-05-02T10:19:15.954Z</time></trkpt><trkpt lat="43.588865" lon="11.6127533"><ele>288.2</ele><time>2026-05-02T10:19:16.952Z</time></trkpt><trkpt lat="43.5889633" lon="11.6127417"><ele>287.0</ele><time>2026-05-02T10:19:17.954Z</time></trkpt><trkpt lat="43.5890517" lon="11.6127233"><ele>287.0</ele><time>2026-05-02T10:19:18.953Z</time></trkpt><trkpt lat="43.5891283" lon="11.6126883"><ele>287.0</ele><time>2026-05-02T10:19:19.954Z</time></trkpt><trkpt lat="43.589195" lon="11.6126267"><ele>287.0</ele><time>2026-05-02T10:19:20.953Z</time></trkpt><trkpt lat="43.5892367" lon="11.6125383"><ele>287.0</ele><time>2026-05-02T10:19:21.954Z</time></trkpt><trkpt lat="43.5892467" lon="11.6124333"><ele>287.0</ele><time>2026-05-02T10:19:22.955Z</time></trkpt><trkpt lat="43.5892283" lon="11.6123283"><ele>287.0</ele><time>2026-05-02T10:19:23.955Z</time></trkpt><trkpt lat="43.5892033" lon="11.612225"><ele>287.0</ele><time>2026-05-02T10:19:24.955Z</time></trkpt><trkpt lat="43.5891717" lon="11.61214"><ele>287.0</ele><time>2026-05-02T10:19:25.952Z</time></trkpt><trkpt lat="43.5891317" lon="11.612065"><ele>287.0</ele><time>2026-05-02T10:19:26.953Z</time></trkpt><trkpt lat="43.58909" lon="11.6119933"><ele>287.0</ele><time>2026-05-02T10:19:27.956Z</time></trkpt><trkpt lat="43.58904" lon="11.6119317"><ele>287.0</ele><time>2026-05-02T10:19:28.954Z</time></trkpt><trkpt lat="43.58896" lon="11.6117967"><ele>287.0</ele><time>2026-05-02T10:19:30.954Z</time></trkpt><trkpt lat="43.58886" lon="11.61171"><ele>286.5</ele><time>2026-05-02T10:19:32.955Z</time></trkpt><trkpt lat="43.588765" lon="11.61163"><ele>286.0</ele><time>2026-05-02T10:19:34.954Z</time></trkpt><trkpt lat="43.5886483" lon="11.6115817"><ele>285.5</ele><time>2026-05-02T10:19:36.954Z</time></trkpt><trkpt lat="43.5885433" lon="11.6115167"><ele>285.0</ele><time>2026-05-02T10:19:38.954Z</time></trkpt><trkpt lat="43.588435" lon="11.6114483"><ele>285.0</ele><time>2026-05-02T10:19:40.955Z</time></trkpt><trkpt lat="43.58833" lon="11.611385"><ele>285.0</ele><time>2026-05-02T10:19:42.953Z</time></trkpt><trkpt lat="43.5882733" lon="11.6113467"><ele>285.0</ele><time>2026-05-02T10:19:43.954Z</time></trkpt><trkpt lat="43.5881633" lon="11.6112667"><ele>285.0</ele><time>2026-05-02T10:19:45.954Z</time></trkpt><trkpt lat="43.588105" lon="11.6112217"><ele>285.0</ele><time>2026-05-02T10:19:46.953Z</time></trkpt><trkpt lat="43.5880017" lon="11.611135"><ele>285.75</ele><time>2026-05-02T10:19:48.952Z</time></trkpt><trkpt lat="43.5878983" lon="11.61105"><ele>286.5</ele><time>2026-05-02T10:19:50.955Z</time></trkpt><trkpt lat="43.5878083" lon="11.6109483"><ele>287.25</ele><time>2026-05-02T10:19:52.953Z</time></trkpt><trkpt lat="43.58775" lon="11.6108117"><ele>288.0</ele><time>2026-05-02T10:19:54.954Z</time></trkpt><trkpt lat="43.587745" lon="11.61065"><ele>288.0</ele><time>2026-05-02T10:19:56.954Z</time></trkpt><trkpt lat="43.5878" lon="11.6105033"><ele>288.0</ele><time>2026-05-02T10:19:58.954Z</time></trkpt><trkpt lat="43.58786" lon="11.6103583"><ele>288.0</ele><time>2026-05-02T10:20:00.954Z</time></trkpt><trkpt lat="43.587945" lon="11.6102333"><ele>288.0</ele><time>2026-05-02T10:20:02.957Z</time></trkpt><trkpt lat="43.588" lon="11.61018"><ele>288.0</ele><time>2026-05-02T10:20:03.954Z</time></trkpt><trkpt lat="43.5880633" lon="11.6101283"><ele>288.1666666666667</ele><time>2026-05-02T10:20:04.954Z</time></trkpt><trkpt lat="43.5881317" lon="11.610075"><ele>288.3333333333333</ele><time>2026-05-02T10:20:05.955Z</time></trkpt><trkpt lat="43.5882017" lon="11.610025"><ele>288.5</ele><time>2026-05-02T10:20:06.954Z</time></trkpt><trkpt lat="43.588275" lon="11.6099733"><ele>288.66666666666663</ele><time>2026-05-02T10:20:07.957Z</time></trkpt><trkpt lat="43.5883517" lon="11.609925"><ele>288.8333333333333</ele><time>2026-05-02T10:20:08.955Z</time></trkpt><trkpt lat="43.5884317" lon="11.6098783"><ele>289.0</ele><time>2026-05-02T10:20:09.954Z</time></trkpt><trkpt lat="43.5885117" lon="11.6098283"><ele>289.0</ele><time>2026-05-02T10:20:10.953Z</time></trkpt><trkpt lat="43.5885867" lon="11.6097683"><ele>289.0</ele><time>2026-05-02T10:20:11.952Z</time></trkpt><trkpt lat="43.58865" lon="11.6096967"><ele>289.0</ele><time>2026-05-02T10:20:12.954Z</time></trkpt><trkpt lat="43.5887" lon="11.6096067"><ele>289.0</ele><time>2026-05-02T10:20:13.954Z</time></trkpt><trkpt lat="43.5887383" lon="11.60951"><ele>289.0</ele><time>2026-05-02T10:20:14.953Z</time></trkpt><trkpt lat="43.5887667" lon="11.6094083"><ele>289.0</ele><time>2026-05-02T10:20:15.952Z</time></trkpt><trkpt lat="43.5887883" lon="11.609305"><ele>289.42857142857144</ele><time>2026-05-02T10:20:16.953Z</time></trkpt><trkpt lat="43.5888017" lon="11.6092083"><ele>289.85714285714283</ele><time>2026-05-02T10:20:17.953Z</time></trkpt><trkpt lat="43.5888117" lon="11.6091083"><ele>290.2857142857143</ele><time>2026-05-02T10:20:18.955Z</time></trkpt><trkpt lat="43.5888233" lon="11.6090133"><ele>290.7142857142857</ele><time>2026-05-02T10:20:19.954Z</time></trkpt><trkpt lat="43.5888317" lon="11.6089183"><ele>291.14285714285717</ele><time>2026-05-02T10:20:20.955Z</time></trkpt><trkpt lat="43.5888367" lon="11.6088183"><ele>291.57142857142856</ele><time>2026-05-02T10:20:21.953Z</time></trkpt><trkpt lat="43.5888333" lon="11.6087267"><ele>292.0</ele><time>2026-05-02T10:20:22.953Z</time></trkpt><trkpt lat="43.5888217" lon="11.60864"><ele>292.2</ele><time>2026-05-02T10:20:23.955Z</time></trkpt><trkpt lat="43.5887933" lon="11.608485"><ele>292.4</ele><time>2026-05-02T10:20:25.954Z</time></trkpt><trkpt lat="43.5887683" lon="11.6083383"><ele>292.6</ele><time>2026-05-02T10:20:27.953Z</time></trkpt><trkpt lat="43.588755" lon="11.6081983"><ele>292.8</ele><time>2026-05-02T10:20:29.955Z</time></trkpt><trkpt lat="43.588765" lon="11.608065"><ele>293.0</ele><time>2026-05-02T10:20:31.953Z</time></trkpt><trkpt lat="43.5888083" lon="11.607945"><ele>293.0</ele><time>2026-05-02T10:20:33.954Z</time></trkpt><trkpt lat="43.588865" lon="11.6078367"><ele>293.0</ele><time>2026-05-02T10:20:35.951Z</time></trkpt><trkpt lat="43.5889217" lon="11.6077267"><ele>293.0</ele><time>2026-05-02T10:20:37.954Z</time></trkpt><trkpt lat="43.588975" lon="11.607615"><ele>293.0</ele><time>2026-05-02T10:20:39.953Z</time></trkpt><trkpt lat="43.5890317" lon="11.6075083"><ele>293.0</ele><time>2026-05-02T10:20:41.955Z</time></trkpt><trkpt lat="43.5890933" lon="11.6073967"><ele>293.0</ele><time>2026-05-02T10:20:43.955Z</time></trkpt><trkpt lat="43.5891583" lon="11.6072867"><ele>293.0</ele><time>2026-05-02T10:20:45.955Z</time></trkpt><trkpt lat="43.5892133" lon="11.6071883"><ele>293.0</ele><time>2026-05-02T10:20:47.953Z</time></trkpt><trkpt lat="43.5892733" lon="11.6070833"><ele>293.0</ele><time>2026-05-02T10:20:49.954Z</time></trkpt><trkpt lat="43.5893267" lon="11.6069817"><ele>293.0</ele><time>2026-05-02T10:20:51.953Z</time></trkpt><trkpt lat="43.5893783" lon="11.6068833"><ele>293.0</ele><time>2026-05-02T10:20:53.953Z</time></trkpt><trkpt lat="43.5894333" lon="11.6067733"><ele>293.0</ele><time>2026-05-02T10:20:55.955Z</time></trkpt><trkpt lat="43.5895017" lon="11.60667"><ele>293.0</ele><time>2026-05-02T10:20:57.954Z</time></trkpt><trkpt lat="43.58959" lon="11.6065783"><ele>293.0</ele><time>2026-05-02T10:20:59.953Z</time></trkpt><trkpt lat="43.5896933" lon="11.6065067"><ele>293.0</ele><time>2026-05-02T10:21:01.953Z</time></trkpt><trkpt lat="43.5898117" lon="11.6064567"><ele>293.4285714285714</ele><time>2026-05-02T10:21:03.952Z</time></trkpt><trkpt lat="43.5898733" lon="11.606435"><ele>293.85714285714283</ele><time>2026-05-02T10:21:04.955Z</time></trkpt><trkpt lat="43.5899367" lon="11.6064133"><ele>294.2857142857143</ele><time>2026-05-02T10:21:05.953Z</time></trkpt><trkpt lat="43.5900033" lon="11.60639"><ele>294.71428571428567</ele><time>2026-05-02T10:21:06.954Z</time></trkpt><trkpt lat="43.5900717" lon="11.6063633"><ele>295.1428571428571</ele><time>2026-05-02T10:21:07.954Z</time></trkpt><trkpt lat="43.59014" lon="11.6063433"><ele>295.57142857142856</ele><time>2026-05-02T10:21:08.955Z</time></trkpt><trkpt lat="43.5902083" lon="11.6063317"><ele>296.0</ele><time>2026-05-02T10:21:09.953Z</time></trkpt><trkpt lat="43.5902783" lon="11.6063367"><ele>295.7142857142857</ele><time>2026-05-02T10:21:10.955Z</time></trkpt><trkpt lat="43.5903483" lon="11.6063583"><ele>295.42857142857144</ele><time>2026-05-02T10:21:11.954Z</time></trkpt><trkpt lat="43.590415" lon="11.606395"><ele>295.1428571428571</ele><time>2026-05-02T10:21:12.956Z</time></trkpt><trkpt lat="43.5904733" lon="11.6064483"><ele>294.8571428571429</ele><time>2026-05-02T10:21:13.955Z</time></trkpt><trkpt lat="43.59053" lon="11.606515"><ele>294.57142857142856</ele><time>2026-05-02T10:21:14.957Z</time></trkpt><trkpt lat="43.590585" lon="11.6065917"><ele>294.2857142857143</ele><time>2026-05-02T10:21:15.955Z</time></trkpt><trkpt lat="43.59064" lon="11.6066733"><ele>294.0</ele><time>2026-05-02T10:21:16.953Z</time></trkpt><trkpt lat="43.5906983" lon="11.606755"><ele>294.0</ele><time>2026-05-02T10:21:17.955Z</time></trkpt><trkpt lat="43.5907633" lon="11.6068283"><ele>294.0</ele><time>2026-05-02T10:21:18.955Z</time></trkpt><trkpt lat="43.5908333" lon="11.6068967"><ele>294.0</ele><time>2026-05-02T10:21:19.956Z</time></trkpt><trkpt lat="43.5909067" lon="11.6069467"><ele>294.0</ele><time>2026-05-02T10:21:20.955Z</time></trkpt><trkpt lat="43.5909817" lon="11.6069817"><ele>294.0</ele><time>2026-05-02T10:21:21.955Z</time></trkpt><trkpt lat="43.5910567" lon="11.60697"><ele>294.0</ele><time>2026-05-02T10:21:22.954Z</time></trkpt><trkpt lat="43.5911217" lon="11.606915"><ele>294.0</ele><time>2026-05-02T10:21:23.955Z</time></trkpt><trkpt lat="43.5911833" lon="11.6068433"><ele>294.0</ele><time>2026-05-02T10:21:24.956Z</time></trkpt><trkpt lat="43.5912267" lon="11.6067567"><ele>294.0</ele><time>2026-05-02T10:21:25.954Z</time></trkpt><trkpt lat="43.5912417" lon="11.6066533"><ele>294.0</ele><time>2026-05-02T10:21:26.954Z</time></trkpt><trkpt lat="43.5912267" lon="11.6065517"><ele>294.0</ele><time>2026-05-02T10:21:27.953Z</time></trkpt><trkpt lat="43.5911867" lon="11.606465"><ele>294.0</ele><time>2026-05-02T10:21:28.956Z</time></trkpt><trkpt lat="43.591145" lon="11.6063767"><ele>294.0</ele><time>2026-05-02T10:21:29.957Z</time></trkpt><trkpt lat="43.59111" lon="11.606285"><ele>294.0</ele><time>2026-05-02T10:21:30.956Z</time></trkpt><trkpt lat="43.5910833" lon="11.6061883"><ele>294.0</ele><time>2026-05-02T10:21:31.955Z</time></trkpt><trkpt lat="43.5910717" lon="11.6060883"><ele>294.0</ele><time>2026-05-02T10:21:32.955Z</time></trkpt><trkpt lat="43.5910733" lon="11.6059917"><ele>294.0</ele><time>2026-05-02T10:21:33.955Z</time></trkpt><trkpt lat="43.59108" lon="11.60589"><ele>294.0</ele><time>2026-05-02T10:21:34.952Z</time></trkpt><trkpt lat="43.5910867" lon="11.6057917"><ele>294.0</ele><time>2026-05-02T10:21:35.954Z</time></trkpt><trkpt lat="43.5910967" lon="11.6056917"><ele>293.7142857142857</ele><time>2026-05-02T10:21:36.954Z</time></trkpt><trkpt lat="43.5911083" lon="11.60559"><ele>293.42857142857144</ele><time>2026-05-02T10:21:37.953Z</time></trkpt><trkpt lat="43.5911183" lon="11.6054883"><ele>293.1428571428571</ele><time>2026-05-02T10:21:38.955Z</time></trkpt><trkpt lat="43.5911233" lon="11.6053917"><ele>292.8571428571429</ele><time>2026-05-02T10:21:39.955Z</time></trkpt><trkpt lat="43.59113" lon="11.605295"><ele>292.57142857142856</ele><time>2026-05-02T10:21:40.954Z</time></trkpt><trkpt lat="43.5911417" lon="11.6052017"><ele>292.2857142857143</ele><time>2026-05-02T10:21:41.956Z</time></trkpt><trkpt lat="43.591155" lon="11.6051167"><ele>292.0</ele><time>2026-05-02T10:21:42.953Z</time></trkpt><trkpt lat="43.59117" lon="11.60503"><ele>294.75</ele><time>2026-05-02T10:21:43.957Z</time></trkpt><trkpt lat="43.5912083" lon="11.6048867"><ele>297.5</ele><time>2026-05-02T10:21:45.953Z</time></trkpt><trkpt lat="43.59127" lon="11.604775"><ele>300.25</ele><time>2026-05-02T10:21:47.955Z</time></trkpt><trkpt lat="43.591365" lon="11.6046767"><ele>303.0</ele><time>2026-05-02T10:21:49.955Z</time></trkpt><trkpt lat="43.5914667" lon="11.60457"><ele>303.0</ele><time>2026-05-02T10:21:51.957Z</time></trkpt><trkpt lat="43.5915167" lon="11.6045117"><ele>303.0</ele><time>2026-05-02T10:21:52.953Z</time></trkpt><trkpt lat="43.5915683" lon="11.6044567"><ele>303.0</ele><time>2026-05-02T10:21:53.953Z</time></trkpt><trkpt lat="43.59162" lon="11.6043983"><ele>303.0</ele><time>2026-05-02T10:21:54.954Z</time></trkpt><trkpt lat="43.591675" lon="11.6043383"><ele>303.0</ele><time>2026-05-02T10:21:55.953Z</time></trkpt><trkpt lat="43.59173" lon="11.6042833"><ele>303.0</ele><time>2026-05-02T10:21:56.954Z</time></trkpt><trkpt lat="43.5917833" lon="11.6042267"><ele>303.0</ele><time>2026-05-02T10:21:57.953Z</time></trkpt><trkpt lat="43.5918333" lon="11.60417"><ele>303.42857142857144</ele><time>2026-05-02T10:21:58.954Z</time></trkpt><trkpt lat="43.5918833" lon="11.6041117"><ele>303.85714285714283</ele><time>2026-05-02T10:21:59.953Z</time></trkpt><trkpt lat="43.5919317" lon="11.60405"><ele>304.2857142857143</ele><time>2026-05-02T10:22:00.954Z</time></trkpt><trkpt lat="43.5919817" lon="11.6039833"><ele>304.7142857142857</ele><time>2026-05-02T10:22:01.953Z</time></trkpt><trkpt lat="43.5920283" lon="11.6039117"><ele>305.14285714285717</ele><time>2026-05-02T10:22:02.954Z</time></trkpt><trkpt lat="43.5920717" lon="11.60384"><ele>305.57142857142856</ele><time>2026-05-02T10:22:03.955Z</time></trkpt><trkpt lat="43.5921133" lon="11.6037633"><ele>306.0</ele><time>2026-05-02T10:22:04.955Z</time></trkpt><trkpt lat="43.5921433" lon="11.6036833"><ele>305.42857142857144</ele><time>2026-05-02T10:22:05.955Z</time></trkpt><trkpt lat="43.592175" lon="11.6036017"><ele>304.8571428571429</ele><time>2026-05-02T10:22:06.956Z</time></trkpt><trkpt lat="43.5922067" lon="11.60352"><ele>304.28571428571433</ele><time>2026-05-02T10:22:07.956Z</time></trkpt><trkpt lat="43.5922383" lon="11.6034383"><ele>303.7142857142857</ele><time>2026-05-02T10:22:08.954Z</time></trkpt><trkpt lat="43.592265" lon="11.6033483"><ele>303.14285714285717</ele><time>2026-05-02T10:22:09.956Z</time></trkpt><trkpt lat="43.59228" lon="11.6032567"><ele>302.5714285714286</ele><time>2026-05-02T10:22:10.953Z</time></trkpt><trkpt lat="43.5922767" lon="11.6031667"><ele>302.0</ele><time>2026-05-02T10:22:11.953Z</time></trkpt><trkpt lat="43.5922233" lon="11.6030133"><ele>302.00000000000006</ele><time>2026-05-02T10:22:13.955Z</time></trkpt><trkpt lat="43.5921783" lon="11.6029483"><ele>302.0</ele><time>2026-05-02T10:22:14.954Z</time></trkpt><trkpt lat="43.5921283" lon="11.6028883"><ele>302.0</ele><time>2026-05-02T10:22:15.955Z</time></trkpt><trkpt lat="43.5920783" lon="11.602825"><ele>302.0</ele><time>2026-05-02T10:22:16.954Z</time></trkpt><trkpt lat="43.5920367" lon="11.60275"><ele>302.0</ele><time>2026-05-02T10:22:17.955Z</time></trkpt><trkpt lat="43.5920133" lon="11.6026667"><ele>302.00000000000006</ele><time>2026-05-02T10:22:18.956Z</time></trkpt><trkpt lat="43.5920133" lon="11.6025783"><ele>302.0</ele><time>2026-05-02T10:22:19.954Z</time></trkpt><trkpt lat="43.5920367" lon="11.6024883"><ele>302.33333333333337</ele><time>2026-05-02T10:22:20.956Z</time></trkpt><trkpt lat="43.5920767" lon="11.6023983"><ele>302.6666666666667</ele><time>2026-05-02T10:22:21.955Z</time></trkpt><trkpt lat="43.5921233" lon="11.6023083"><ele>303.0</ele><time>2026-05-02T10:22:22.954Z</time></trkpt><trkpt lat="43.5921783" lon="11.6022217"><ele>303.3333333333333</ele><time>2026-05-02T10:22:23.954Z</time></trkpt><trkpt lat="43.5922333" lon="11.6021483"><ele>303.66666666666663</ele><time>2026-05-02T10:22:24.954Z</time></trkpt><trkpt lat="43.592295" lon="11.6020767"><ele>304.0</ele><time>2026-05-02T10:22:25.955Z</time></trkpt><trkpt lat="43.5923683" lon="11.602015"><ele>302.8333333333333</ele><time>2026-05-02T10:22:26.955Z</time></trkpt><trkpt lat="43.5924417" lon="11.60197"><ele>301.66666666666663</ele><time>2026-05-02T10:22:27.956Z</time></trkpt><trkpt lat="43.5925133" lon="11.6019167"><ele>300.5</ele><time>2026-05-02T10:22:28.954Z</time></trkpt><trkpt lat="43.59258" lon="11.6018417"><ele>299.3333333333333</ele><time>2026-05-02T10:22:29.952Z</time></trkpt><trkpt lat="43.5926233" lon="11.601755"><ele>298.1666666666667</ele><time>2026-05-02T10:22:30.953Z</time></trkpt><trkpt lat="43.5926417" lon="11.6016517"><ele>297.0</ele><time>2026-05-02T10:22:31.955Z</time></trkpt><trkpt lat="43.5926433" lon="11.6015417"><ele>297.0</ele><time>2026-05-02T10:22:32.953Z</time></trkpt><trkpt lat="43.592615" lon="11.6014417"><ele>297.0</ele><time>2026-05-02T10:22:33.957Z</time></trkpt><trkpt lat="43.59257" lon="11.60135"><ele>297.0</ele><time>2026-05-02T10:22:34.953Z</time></trkpt><trkpt lat="43.592515" lon="11.6012667"><ele>297.0</ele><time>2026-05-02T10:22:35.955Z</time></trkpt><trkpt lat="43.5924517" lon="11.6011883"><ele>297.0</ele><time>2026-05-02T10:22:36.955Z</time></trkpt><trkpt lat="43.5923883" lon="11.60112"><ele>297.0</ele><time>2026-05-02T10:22:37.954Z</time></trkpt><trkpt lat="43.5923217" lon="11.6010483"><ele>297.8333333333333</ele><time>2026-05-02T10:22:38.956Z</time></trkpt><trkpt lat="43.59226" lon="11.6009733"><ele>298.6666666666667</ele><time>2026-05-02T10:22:39.954Z</time></trkpt><trkpt lat="43.5922033" lon="11.6009"><ele>299.5</ele><time>2026-05-02T10:22:40.954Z</time></trkpt><trkpt lat="43.5921517" lon="11.6008217"><ele>300.33333333333337</ele><time>2026-05-02T10:22:41.955Z</time></trkpt><trkpt lat="43.5921067" lon="11.6007417"><ele>301.1666666666667</ele><time>2026-05-02T10:22:42.957Z</time></trkpt><trkpt lat="43.5920667" lon="11.6006533"><ele>302.0</ele><time>2026-05-02T10:22:43.956Z</time></trkpt><trkpt lat="43.592025" lon="11.6005717"><ele>300.5</ele><time>2026-05-02T10:22:44.956Z</time></trkpt><trkpt lat="43.591985" lon="11.6004867"><ele>299.0</ele><time>2026-05-02T10:22:45.954Z</time></trkpt><trkpt lat="43.5919417" lon="11.600395"><ele>297.5</ele><time>2026-05-02T10:22:46.956Z</time></trkpt><trkpt lat="43.5918983" lon="11.6003033"><ele>296.0</ele><time>2026-05-02T10:22:47.955Z</time></trkpt><trkpt lat="43.59186" lon="11.60021"><ele>294.5</ele><time>2026-05-02T10:22:48.953Z</time></trkpt><trkpt lat="43.591825" lon="11.60012"><ele>293.0</ele><time>2026-05-02T10:22:49.954Z</time></trkpt><trkpt lat="43.5917883" lon="11.60003"><ele>293.0</ele><time>2026-05-02T10:22:50.957Z</time></trkpt><trkpt lat="43.5917517" lon="11.5999367"><ele>293.0</ele><time>2026-05-02T10:22:51.954Z</time></trkpt><trkpt lat="43.5917167" lon="11.599835"><ele>293.0</ele><time>2026-05-02T10:22:52.956Z</time></trkpt><trkpt lat="43.5916867" lon="11.5997267"><ele>293.0</ele><time>2026-05-02T10:22:53.955Z</time></trkpt><trkpt lat="43.5916617" lon="11.5996133"><ele>293.0</ele><time>2026-05-02T10:22:54.954Z</time></trkpt><trkpt lat="43.5916467" lon="11.5994933"><ele>293.0</ele><time>2026-05-02T10:22:55.954Z</time></trkpt><trkpt lat="43.5916417" lon="11.5993633"><ele>293.0</ele><time>2026-05-02T10:22:56.955Z</time></trkpt><trkpt lat="43.5916517" lon="11.5992333"><ele>293.0</ele><time>2026-05-02T10:22:57.957Z</time></trkpt><trkpt lat="43.5916767" lon="11.599105"><ele>293.0</ele><time>2026-05-02T10:22:58.955Z</time></trkpt><trkpt lat="43.5917117" lon="11.5989767"><ele>293.0</ele><time>2026-05-02T10:22:59.955Z</time></trkpt><trkpt lat="43.5917583" lon="11.5988683"><ele>293.0</ele><time>2026-05-02T10:23:00.955Z</time></trkpt><trkpt lat="43.5918183" lon="11.598765"><ele>293.0</ele><time>2026-05-02T10:23:01.953Z</time></trkpt><trkpt lat="43.5918833" lon="11.5986733"><ele>293.0</ele><time>2026-05-02T10:23:02.956Z</time></trkpt><trkpt lat="43.5919483" lon="11.5985833"><ele>293.0</ele><time>2026-05-02T10:23:03.956Z</time></trkpt><trkpt lat="43.5920133" lon="11.5984917"><ele>293.0</ele><time>2026-05-02T10:23:04.955Z</time></trkpt><trkpt lat="43.5920717" lon="11.59839"><ele>293.0</ele><time>2026-05-02T10:23:05.954Z</time></trkpt><trkpt lat="43.5921183" lon="11.5982817"><ele>293.5</ele><time>2026-05-02T10:23:06.955Z</time></trkpt><trkpt lat="43.59215" lon="11.5981617"><ele>294.0</ele><time>2026-05-02T10:23:07.954Z</time></trkpt><trkpt lat="43.59216" lon="11.5980367"><ele>294.5</ele><time>2026-05-02T10:23:08.954Z</time></trkpt><trkpt lat="43.5921533" lon="11.59792"><ele>295.0</ele><time>2026-05-02T10:23:09.954Z</time></trkpt><trkpt lat="43.5921417" lon="11.597805"><ele>295.5</ele><time>2026-05-02T10:23:10.954Z</time></trkpt><trkpt lat="43.592135" lon="11.597695"><ele>296.0</ele><time>2026-05-02T10:23:11.952Z</time></trkpt><trkpt lat="43.592145" lon="11.5975867"><ele>296.0</ele><time>2026-05-02T10:23:12.954Z</time></trkpt><trkpt lat="43.5921717" lon="11.597485"><ele>296.0</ele><time>2026-05-02T10:23:13.956Z</time></trkpt><trkpt lat="43.59221" lon="11.5974"><ele>296.0</ele><time>2026-05-02T10:23:14.955Z</time></trkpt><trkpt lat="43.59226" lon="11.5973233"><ele>296.0</ele><time>2026-05-02T10:23:15.955Z</time></trkpt><trkpt lat="43.5923183" lon="11.59726"><ele>296.0</ele><time>2026-05-02T10:23:16.956Z</time></trkpt><trkpt lat="43.5923817" lon="11.5972017"><ele>296.0</ele><time>2026-05-02T10:23:17.954Z</time></trkpt><trkpt lat="43.5924433" lon="11.597145"><ele>296.0</ele><time>2026-05-02T10:23:18.955Z</time></trkpt><trkpt lat="43.5925017" lon="11.5970883"><ele>296.0</ele><time>2026-05-02T10:23:19.957Z</time></trkpt><trkpt lat="43.5925583" lon="11.597035"><ele>296.0</ele><time>2026-05-02T10:23:20.957Z</time></trkpt><trkpt lat="43.592615" lon="11.5969817"><ele>296.0</ele><time>2026-05-02T10:23:21.955Z</time></trkpt><trkpt lat="43.59267" lon="11.5969267"><ele>296.0</ele><time>2026-05-02T10:23:22.955Z</time></trkpt><trkpt lat="43.5927283" lon="11.5968733"><ele>296.0</ele><time>2026-05-02T10:23:23.956Z</time></trkpt><trkpt lat="43.592785" lon="11.596825"><ele>296.0</ele><time>2026-05-02T10:23:24.956Z</time></trkpt><trkpt lat="43.5929017" lon="11.596755"><ele>296.7142857142857</ele><time>2026-05-02T10:23:26.955Z</time></trkpt><trkpt lat="43.5929667" lon="11.5967267"><ele>297.42857142857144</ele><time>2026-05-02T10:23:27.957Z</time></trkpt><trkpt lat="43.5930283" lon="11.596695"><ele>298.1428571428571</ele><time>2026-05-02T10:23:28.956Z</time></trkpt><trkpt lat="43.59309" lon="11.59665"><ele>298.8571428571429</ele><time>2026-05-02T10:23:29.955Z</time></trkpt><trkpt lat="43.5931383" lon="11.596585"><ele>299.57142857142856</ele><time>2026-05-02T10:23:30.956Z</time></trkpt><trkpt lat="43.5931733" lon="11.596505"><ele>300.2857142857143</ele><time>2026-05-02T10:23:31.956Z</time></trkpt><trkpt lat="43.5931833" lon="11.596415"><ele>301.0</ele><time>2026-05-02T10:23:32.955Z</time></trkpt><trkpt lat="43.5931317" lon="11.5962633"><ele>301.0</ele><time>2026-05-02T10:23:34.955Z</time></trkpt><trkpt lat="43.593075" lon="11.5962133"><ele>301.0</ele><time>2026-05-02T10:23:35.954Z</time></trkpt><trkpt lat="43.5930083" lon="11.596175"><ele>301.0</ele><time>2026-05-02T10:23:36.953Z</time></trkpt><trkpt lat="43.5929417" lon="11.5961333"><ele>301.0</ele><time>2026-05-02T10:23:37.954Z</time></trkpt><trkpt lat="43.5928717" lon="11.59609"><ele>301.0</ele><time>2026-05-02T10:23:38.955Z</time></trkpt><trkpt lat="43.5928033" lon="11.5960433"><ele>301.0</ele><time>2026-05-02T10:23:39.955Z</time></trkpt><trkpt lat="43.592735" lon="11.5959933"><ele>301.0</ele><time>2026-05-02T10:23:40.954Z</time></trkpt><trkpt lat="43.5926667" lon="11.5959383"><ele>299.5</ele><time>2026-05-02T10:23:41.956Z</time></trkpt><trkpt lat="43.5926" lon="11.5958783"><ele>298.0</ele><time>2026-05-02T10:23:42.955Z</time></trkpt><trkpt lat="43.5925367" lon="11.595805"><ele>296.5</ele><time>2026-05-02T10:23:43.954Z</time></trkpt><trkpt lat="43.592475" lon="11.5957217"><ele>295.0</ele><time>2026-05-02T10:23:44.953Z</time></trkpt><trkpt lat="43.5924233" lon="11.5956317"><ele>293.5</ele><time>2026-05-02T10:23:45.955Z</time></trkpt><trkpt lat="43.5923817" lon="11.5955383"><ele>292.0</ele><time>2026-05-02T10:23:46.953Z</time></trkpt><trkpt lat="43.5923483" lon="11.595445"><ele>292.0</ele><time>2026-05-02T10:23:47.953Z</time></trkpt><trkpt lat="43.5923217" lon="11.5953467"><ele>292.0</ele><time>2026-05-02T10:23:48.954Z</time></trkpt><trkpt lat="43.59231" lon="11.5952467"><ele>292.0</ele><time>2026-05-02T10:23:49.954Z</time></trkpt><trkpt lat="43.5923117" lon="11.5951417"><ele>292.0</ele><time>2026-05-02T10:23:50.954Z</time></trkpt><trkpt lat="43.5923233" lon="11.5950433"><ele>292.0</ele><time>2026-05-02T10:23:51.954Z</time></trkpt><trkpt lat="43.59234" lon="11.59495"><ele>292.0</ele><time>2026-05-02T10:23:52.953Z</time></trkpt><trkpt lat="43.5923633" lon="11.59485"><ele>292.0</ele><time>2026-05-02T10:23:53.955Z</time></trkpt><trkpt lat="43.5923967" lon="11.5947533"><ele>292.16666666666663</ele><time>2026-05-02T10:23:54.955Z</time></trkpt><trkpt lat="43.5924383" lon="11.5946683"><ele>292.3333333333333</ele><time>2026-05-02T10:23:55.953Z</time></trkpt><trkpt lat="43.5924917" lon="11.59459"><ele>292.5</ele><time>2026-05-02T10:23:56.954Z</time></trkpt><trkpt lat="43.5925583" lon="11.5945083"><ele>292.6666666666667</ele><time>2026-05-02T10:23:57.954Z</time></trkpt><trkpt lat="43.5926333" lon="11.59444"><ele>292.83333333333337</ele><time>2026-05-02T10:23:58.954Z</time></trkpt><trkpt lat="43.5927133" lon="11.594375"><ele>293.0</ele><time>2026-05-02T10:23:59.953Z</time></trkpt><trkpt lat="43.592795" lon="11.5943133"><ele>292.8</ele><time>2026-05-02T10:24:00.953Z</time></trkpt><trkpt lat="43.5928783" lon="11.5942483"><ele>292.6</ele><time>2026-05-02T10:24:01.953Z</time></trkpt><trkpt lat="43.5929583" lon="11.594185"><ele>292.4</ele><time>2026-05-02T10:24:02.954Z</time></trkpt><trkpt lat="43.5930417" lon="11.5941183"><ele>292.2</ele><time>2026-05-02T10:24:03.954Z</time></trkpt><trkpt lat="43.593125" lon="11.5940483"><ele>292.0</ele><time>2026-05-02T10:24:04.952Z</time></trkpt><trkpt lat="43.5932067" lon="11.59398"><ele>292.0</ele><time>2026-05-02T10:24:05.953Z</time></trkpt><trkpt lat="43.5932833" lon="11.5939083"><ele>292.0</ele><time>2026-05-02T10:24:06.953Z</time></trkpt><trkpt lat="43.5933533" lon="11.593825"><ele>292.0</ele><time>2026-05-02T10:24:07.955Z</time></trkpt><trkpt lat="43.5934133" lon="11.5937317"><ele>292.0</ele><time>2026-05-02T10:24:08.953Z</time></trkpt><trkpt lat="43.5934533" lon="11.59362"><ele>292.0</ele><time>2026-05-02T10:24:09.953Z</time></trkpt><trkpt lat="43.5934633" lon="11.5934983"><ele>290.8</ele><time>2026-05-02T10:24:10.955Z</time></trkpt><trkpt lat="43.5934483" lon="11.5933683"><ele>289.6</ele><time>2026-05-02T10:24:11.954Z</time></trkpt><trkpt lat="43.59342" lon="11.5932367"><ele>288.40000000000003</ele><time>2026-05-02T10:24:12.953Z</time></trkpt><trkpt lat="43.5933883" lon="11.5931083"><ele>287.2</ele><time>2026-05-02T10:24:13.954Z</time></trkpt><trkpt lat="43.5933583" lon="11.592975"><ele>286.0</ele><time>2026-05-02T10:24:14.954Z</time></trkpt><trkpt lat="43.593325" lon="11.59285"><ele>285.8</ele><time>2026-05-02T10:24:15.953Z</time></trkpt><trkpt lat="43.593295" lon="11.592725"><ele>285.6</ele><time>2026-05-02T10:24:16.954Z</time></trkpt><trkpt lat="43.5932633" lon="11.5926"><ele>285.4</ele><time>2026-05-02T10:24:17.953Z</time></trkpt><trkpt lat="43.59323" lon="11.5924817"><ele>285.2</ele><time>2026-05-02T10:24:18.954Z</time></trkpt><trkpt lat="43.5932033" lon="11.5923683"><ele>285.0</ele><time>2026-05-02T10:24:19.954Z</time></trkpt><trkpt lat="43.5931933" lon="11.5922533"><ele>285.0</ele><time>2026-05-02T10:24:20.954Z</time></trkpt><trkpt lat="43.59321" lon="11.5921433"><ele>285.0</ele><time>2026-05-02T10:24:21.954Z</time></trkpt><trkpt lat="43.59325" lon="11.5920517"><ele>285.0</ele><time>2026-05-02T10:24:22.956Z</time></trkpt><trkpt lat="43.5933183" lon="11.5919833"><ele>285.0</ele><time>2026-05-02T10:24:23.955Z</time></trkpt><trkpt lat="43.59341" lon="11.59193"><ele>285.0</ele><time>2026-05-02T10:24:24.953Z</time></trkpt><trkpt lat="43.5935033" lon="11.5918983"><ele>285.0</ele><time>2026-05-02T10:24:25.953Z</time></trkpt><trkpt lat="43.5935917" lon="11.591875"><ele>285.6666666666667</ele><time>2026-05-02T10:24:26.955Z</time></trkpt><trkpt lat="43.5936833" lon="11.5918433"><ele>286.3333333333333</ele><time>2026-05-02T10:24:27.955Z</time></trkpt><trkpt lat="43.593765" lon="11.5917833"><ele>287.0</ele><time>2026-05-02T10:24:28.954Z</time></trkpt><trkpt lat="43.5938233" lon="11.5916983"><ele>287.66666666666663</ele><time>2026-05-02T10:24:29.953Z</time></trkpt><trkpt lat="43.5938583" lon="11.5915967"><ele>288.3333333333333</ele><time>2026-05-02T10:24:30.953Z</time></trkpt><trkpt lat="43.5938617" lon="11.591475"><ele>289.0</ele><time>2026-05-02T10:24:31.955Z</time></trkpt><trkpt lat="43.593855" lon="11.5913617"><ele>289.0</ele><time>2026-05-02T10:24:32.955Z</time></trkpt><trkpt lat="43.5938567" lon="11.591255"><ele>289.0</ele><time>2026-05-02T10:24:33.954Z</time></trkpt><trkpt lat="43.5938633" lon="11.5911617"><ele>289.0</ele><time>2026-05-02T10:24:34.954Z</time></trkpt><trkpt lat="43.5938783" lon="11.591075"><ele>289.0</ele><time>2026-05-02T10:24:35.955Z</time></trkpt><trkpt lat="43.5939017" lon="11.5909933"><ele>289.0</ele><time>2026-05-02T10:24:36.956Z</time></trkpt><trkpt lat="43.5939283" lon="11.5909133"><ele>289.0</ele><time>2026-05-02T10:24:37.955Z</time></trkpt><trkpt lat="43.5939567" lon="11.5908317"><ele>289.0</ele><time>2026-05-02T10:24:38.956Z</time></trkpt><trkpt lat="43.5940133" lon="11.59069"><ele>288.5</ele><time>2026-05-02T10:24:40.955Z</time></trkpt><trkpt lat="43.5940767" lon="11.5905483"><ele>288.0</ele><time>2026-05-02T10:24:42.953Z</time></trkpt><trkpt lat="43.5941483" lon="11.59041"><ele>287.5</ele><time>2026-05-02T10:24:44.956Z</time></trkpt><trkpt lat="43.5942217" lon="11.59027"><ele>287.0</ele><time>2026-05-02T10:24:46.953Z</time></trkpt><trkpt lat="43.5942883" lon="11.5901233"><ele>286.14285714285717</ele><time>2026-05-02T10:24:48.955Z</time></trkpt><trkpt lat="43.5943217" lon="11.5900467"><ele>285.2857142857143</ele><time>2026-05-02T10:24:49.954Z</time></trkpt><trkpt lat="43.594355" lon="11.5899683"><ele>284.42857142857144</ele><time>2026-05-02T10:24:50.954Z</time></trkpt><trkpt lat="43.5943867" lon="11.5898883"><ele>283.57142857142856</ele><time>2026-05-02T10:24:51.953Z</time></trkpt><trkpt lat="43.59442" lon="11.589805"><ele>282.7142857142857</ele><time>2026-05-02T10:24:52.955Z</time></trkpt><trkpt lat="43.5944517" lon="11.5897233"><ele>281.8571428571429</ele><time>2026-05-02T10:24:53.954Z</time></trkpt><trkpt lat="43.5944817" lon="11.5896383"><ele>281.0</ele><time>2026-05-02T10:24:54.953Z</time></trkpt><trkpt lat="43.59451" lon="11.5895533"><ele>282.5714285714286</ele><time>2026-05-02T10:24:55.953Z</time></trkpt><trkpt lat="43.594535" lon="11.5894617"><ele>284.14285714285717</ele><time>2026-05-02T10:24:56.954Z</time></trkpt><trkpt lat="43.59456" lon="11.5893767"><ele>285.7142857142857</ele><time>2026-05-02T10:24:57.955Z</time></trkpt><trkpt lat="43.59458" lon="11.58929"><ele>287.28571428571433</ele><time>2026-05-02T10:24:58.956Z</time></trkpt><trkpt lat="43.594595" lon="11.5891983"><ele>288.8571428571429</ele><time>2026-05-02T10:24:59.953Z</time></trkpt><trkpt lat="43.594605" lon="11.5891067"><ele>290.42857142857144</ele><time>2026-05-02T10:25:00.955Z</time></trkpt><trkpt lat="43.5946033" lon="11.5890167"><ele>292.0</ele><time>2026-05-02T10:25:01.953Z</time></trkpt><trkpt lat="43.5945967" lon="11.5889217"><ele>292.0</ele><time>2026-05-02T10:25:02.954Z</time></trkpt><trkpt lat="43.5945817" lon="11.5888317"><ele>292.0</ele><time>2026-05-02T10:25:03.953Z</time></trkpt><trkpt lat="43.5945633" lon="11.5887433"><ele>292.0</ele><time>2026-05-02T10:25:04.953Z</time></trkpt><trkpt lat="43.594545" lon="11.5886567"><ele>292.0</ele><time>2026-05-02T10:25:05.953Z</time></trkpt><trkpt lat="43.594525" lon="11.588565"><ele>292.0</ele><time>2026-05-02T10:25:06.953Z</time></trkpt><trkpt lat="43.594505" lon="11.5884817"><ele>292.0</ele><time>2026-05-02T10:25:07.954Z</time></trkpt><trkpt lat="43.594485" lon="11.588395"><ele>292.0</ele><time>2026-05-02T10:25:08.956Z</time></trkpt><trkpt lat="43.5944667" lon="11.5883083"><ele>290.42857142857144</ele><time>2026-05-02T10:25:09.954Z</time></trkpt><trkpt lat="43.5944533" lon="11.5882217"><ele>288.8571428571429</ele><time>2026-05-02T10:25:10.955Z</time></trkpt><trkpt lat="43.594445" lon="11.5881317"><ele>287.28571428571433</ele><time>2026-05-02T10:25:11.954Z</time></trkpt><trkpt lat="43.5944417" lon="11.5880417"><ele>285.7142857142857</ele><time>2026-05-02T10:25:12.953Z</time></trkpt><trkpt lat="43.594445" lon="11.5879483"><ele>284.14285714285717</ele><time>2026-05-02T10:25:13.953Z</time></trkpt><trkpt lat="43.5944517" lon="11.5878583"><ele>282.5714285714286</ele><time>2026-05-02T10:25:14.955Z</time></trkpt><trkpt lat="43.5944667" lon="11.5877633"><ele>281.0</ele><time>2026-05-02T10:25:15.954Z</time></trkpt><trkpt lat="43.5944883" lon="11.5876733"><ele>282.42857142857144</ele><time>2026-05-02T10:25:16.955Z</time></trkpt><trkpt lat="43.5945133" lon="11.5875817"><ele>283.8571428571429</ele><time>2026-05-02T10:25:17.953Z</time></trkpt><trkpt lat="43.5945433" lon="11.5874917"><ele>285.2857142857143</ele><time>2026-05-02T10:25:18.953Z</time></trkpt><trkpt lat="43.5945733" lon="11.5874067"><ele>286.7142857142857</ele><time>2026-05-02T10:25:19.953Z</time></trkpt><trkpt lat="43.5946033" lon="11.5873233"><ele>288.1428571428571</ele><time>2026-05-02T10:25:20.956Z</time></trkpt><trkpt lat="43.5946367" lon="11.5872433"><ele>289.57142857142856</ele><time>2026-05-02T10:25:21.955Z</time></trkpt><trkpt lat="43.594675" lon="11.587165"><ele>291.0</ele><time>2026-05-02T10:25:22.953Z</time></trkpt><trkpt lat="43.59472" lon="11.587095"><ele>291.0</ele><time>2026-05-02T10:25:23.952Z</time></trkpt><trkpt lat="43.5947767" lon="11.5870333"><ele>291.0</ele><time>2026-05-02T10:25:24.955Z</time></trkpt><trkpt lat="43.5948367" lon="11.58698"><ele>291.0</ele><time>2026-05-02T10:25:25.956Z</time></trkpt><trkpt lat="43.5949" lon="11.586935"><ele>291.0</ele><time>2026-05-02T10:25:26.954Z</time></trkpt><trkpt lat="43.5949667" lon="11.5868933"><ele>291.0</ele><time>2026-05-02T10:25:27.954Z</time></trkpt><trkpt lat="43.5950367" lon="11.586855"><ele>291.0</ele><time>2026-05-02T10:25:28.953Z</time></trkpt><trkpt lat="43.5951083" lon="11.5868333"><ele>291.0</ele><time>2026-05-02T10:25:29.952Z</time></trkpt><trkpt lat="43.595185" lon="11.586825"><ele>289.6666666666667</ele><time>2026-05-02T10:25:30.954Z</time></trkpt><trkpt lat="43.5952617" lon="11.58683"><ele>288.3333333333333</ele><time>2026-05-02T10:25:31.954Z</time></trkpt><trkpt lat="43.5953417" lon="11.5868433"><ele>287.0</ele><time>2026-05-02T10:25:32.955Z</time></trkpt><trkpt lat="43.59542" lon="11.5868733"><ele>285.66666666666663</ele><time>2026-05-02T10:25:33.953Z</time></trkpt><trkpt lat="43.5954967" lon="11.5869067"><ele>284.3333333333333</ele><time>2026-05-02T10:25:34.957Z</time></trkpt><trkpt lat="43.5955717" lon="11.58694"><ele>283.0</ele><time>2026-05-02T10:25:35.955Z</time></trkpt><trkpt lat="43.59565" lon="11.5869767"><ele>284.8333333333333</ele><time>2026-05-02T10:25:36.956Z</time></trkpt><trkpt lat="43.5957267" lon="11.5870133"><ele>286.66666666666663</ele><time>2026-05-02T10:25:37.956Z</time></trkpt><trkpt lat="43.595805" lon="11.58705"><ele>288.5</ele><time>2026-05-02T10:25:38.956Z</time></trkpt><trkpt lat="43.5958817" lon="11.5870867"><ele>290.3333333333333</ele><time>2026-05-02T10:25:39.953Z</time></trkpt><trkpt lat="43.5959583" lon="11.5871267"><ele>292.1666666666667</ele><time>2026-05-02T10:25:40.954Z</time></trkpt><trkpt lat="43.5960367" lon="11.5871667"><ele>294.0</ele><time>2026-05-02T10:25:41.954Z</time></trkpt><trkpt lat="43.5961133" lon="11.5872"><ele>293.1666666666667</ele><time>2026-05-02T10:25:42.952Z</time></trkpt><trkpt lat="43.5961933" lon="11.5872217"><ele>292.3333333333333</ele><time>2026-05-02T10:25:43.954Z</time></trkpt><trkpt lat="43.5962733" lon="11.5872167"><ele>291.5</ele><time>2026-05-02T10:25:44.955Z</time></trkpt><trkpt lat="43.5963533" lon="11.5871833"><ele>290.66666666666663</ele><time>2026-05-02T10:25:45.955Z</time></trkpt><trkpt lat="43.5964233" lon="11.5871183"><ele>289.8333333333333</ele><time>2026-05-02T10:25:46.953Z</time></trkpt><trkpt lat="43.5964883" lon="11.587045"><ele>289.0</ele><time>2026-05-02T10:25:47.953Z</time></trkpt><trkpt lat="43.5965483" lon="11.58697"><ele>288.3333333333333</ele><time>2026-05-02T10:25:48.954Z</time></trkpt><trkpt lat="43.596605" lon="11.5868933"><ele>287.66666666666663</ele><time>2026-05-02T10:25:49.952Z</time></trkpt><trkpt lat="43.5966583" lon="11.5868217"><ele>287.0</ele><time>2026-05-02T10:25:50.955Z</time></trkpt><trkpt lat="43.5967" lon="11.586745"><ele>286.3333333333333</ele><time>2026-05-02T10:25:51.956Z</time></trkpt><trkpt lat="43.59673" lon="11.586665"><ele>285.6666666666667</ele><time>2026-05-02T10:25:52.954Z</time></trkpt><trkpt lat="43.5967483" lon="11.58658"><ele>285.0</ele><time>2026-05-02T10:25:53.956Z</time></trkpt><trkpt lat="43.5967517" lon="11.5864133"><ele>285.0</ele><time>2026-05-02T10:25:55.955Z</time></trkpt><trkpt lat="43.5967467" lon="11.5862483"><ele>285.0</ele><time>2026-05-02T10:25:57.956Z</time></trkpt><trkpt lat="43.5967717" lon="11.5860917"><ele>285.0</ele><time>2026-05-02T10:25:59.955Z</time></trkpt><trkpt lat="43.5968183" lon="11.5859633"><ele>285.0</ele><time>2026-05-02T10:26:01.956Z</time></trkpt><trkpt lat="43.5968867" lon="11.5858633"><ele>285.0</ele><time>2026-05-02T10:26:03.956Z</time></trkpt><trkpt lat="43.59697" lon="11.5857783"><ele>287.0</ele><time>2026-05-02T10:26:05.955Z</time></trkpt><trkpt lat="43.5970617" lon="11.58571"><ele>289.0</ele><time>2026-05-02T10:26:07.955Z</time></trkpt><trkpt lat="43.5971533" lon="11.5856467"><ele>291.0</ele><time>2026-05-02T10:26:09.958Z</time></trkpt><trkpt lat="43.5972483" lon="11.5856"><ele>293.0</ele><time>2026-05-02T10:26:11.957Z</time></trkpt><trkpt lat="43.5973433" lon="11.5855467"><ele>295.0</ele><time>2026-05-02T10:26:13.953Z</time></trkpt><trkpt lat="43.597435" lon="11.5855033"><ele>295.0</ele><time>2026-05-02T10:26:15.953Z</time></trkpt><trkpt lat="43.5975167" lon="11.5854533"><ele>295.0</ele><time>2026-05-02T10:26:17.956Z</time></trkpt><trkpt lat="43.597605" lon="11.5854083"><ele>295.0</ele><time>2026-05-02T10:26:19.957Z</time></trkpt><trkpt lat="43.59769" lon="11.5853667"><ele>295.0</ele><time>2026-05-02T10:26:21.954Z</time></trkpt><trkpt lat="43.5977817" lon="11.58532"><ele>295.0</ele><time>2026-05-02T10:26:23.953Z</time></trkpt><trkpt lat="43.59786" lon="11.5852567"><ele>295.6</ele><time>2026-05-02T10:26:25.954Z</time></trkpt><trkpt lat="43.5979283" lon="11.58518"><ele>296.2</ele><time>2026-05-02T10:26:27.954Z</time></trkpt><trkpt lat="43.5979883" lon="11.5850733"><ele>296.8</ele><time>2026-05-02T10:26:29.954Z</time></trkpt><trkpt lat="43.5980417" lon="11.58496"><ele>297.4</ele><time>2026-05-02T10:26:31.952Z</time></trkpt><trkpt lat="43.5980933" lon="11.58484"><ele>298.0</ele><time>2026-05-02T10:26:33.955Z</time></trkpt><trkpt lat="43.5981483" lon="11.5847183"><ele>298.0</ele><time>2026-05-02T10:26:35.954Z</time></trkpt><trkpt lat="43.5982083" lon="11.58459"><ele>298.0</ele><time>2026-05-02T10:26:37.954Z</time></trkpt><trkpt lat="43.59827" lon="11.5844767"><ele>298.0</ele><time>2026-05-02T10:26:39.956Z</time></trkpt><trkpt lat="43.5983517" lon="11.5843833"><ele>298.0</ele><time>2026-05-02T10:26:41.956Z</time></trkpt><trkpt lat="43.5984533" lon="11.584315"><ele>298.0</ele><time>2026-05-02T10:26:43.955Z</time></trkpt><trkpt lat="43.59857" lon="11.5842833"><ele>299.5</ele><time>2026-05-02T10:26:45.955Z</time></trkpt><trkpt lat="43.5986833" lon="11.584255"><ele>301.0</ele><time>2026-05-02T10:26:47.956Z</time></trkpt><trkpt lat="43.59879" lon="11.5841867"><ele>302.5</ele><time>2026-05-02T10:26:49.955Z</time></trkpt><trkpt lat="43.5988633" lon="11.58407"><ele>304.0</ele><time>2026-05-02T10:26:51.953Z</time></trkpt><trkpt lat="43.5988917" lon="11.5839267"><ele>304.0</ele><time>2026-05-02T10:26:53.954Z</time></trkpt><trkpt lat="43.59889" lon="11.5837767"><ele>304.0</ele><time>2026-05-02T10:26:55.955Z</time></trkpt><trkpt lat="43.5988767" lon="11.5836267"><ele>304.0</ele><time>2026-05-02T10:26:57.956Z</time></trkpt><trkpt lat="43.5988667" lon="11.5834733"><ele>304.0</ele><time>2026-05-02T10:26:59.956Z</time></trkpt><trkpt lat="43.5988567" lon="11.583315"><ele>304.0</ele><time>2026-05-02T10:27:01.954Z</time></trkpt><trkpt lat="43.5988483" lon="11.5831633"><ele>303.3333333333333</ele><time>2026-05-02T10:27:03.955Z</time></trkpt><trkpt lat="43.5988533" lon="11.5830033"><ele>302.66666666666663</ele><time>2026-05-02T10:27:05.956Z</time></trkpt><trkpt lat="43.5988733" lon="11.582835"><ele>302.0</ele><time>2026-05-02T10:27:07.954Z</time></trkpt><trkpt lat="43.5988867" lon="11.5827433"><ele>301.3333333333333</ele><time>2026-05-02T10:27:08.954Z</time></trkpt><trkpt lat="43.5989033" lon="11.5826517"><ele>300.6666666666667</ele><time>2026-05-02T10:27:09.954Z</time></trkpt><trkpt lat="43.59892" lon="11.582555"><ele>300.0</ele><time>2026-05-02T10:27:10.954Z</time></trkpt><trkpt lat="43.5989367" lon="11.5824583"><ele>299.5</ele><time>2026-05-02T10:27:11.953Z</time></trkpt><trkpt lat="43.5989533" lon="11.5823617"><ele>299.0</ele><time>2026-05-02T10:27:12.955Z</time></trkpt><trkpt lat="43.59897" lon="11.5822617"><ele>298.5</ele><time>2026-05-02T10:27:13.954Z</time></trkpt><trkpt lat="43.5989867" lon="11.5821617"><ele>298.0</ele><time>2026-05-02T10:27:14.954Z</time></trkpt><trkpt lat="43.599005" lon="11.5820583"><ele>297.5</ele><time>2026-05-02T10:27:15.952Z</time></trkpt><trkpt lat="43.599025" lon="11.581955"><ele>297.0</ele><time>2026-05-02T10:27:16.954Z</time></trkpt><trkpt lat="43.5990467" lon="11.5818517"><ele>296.3333333333333</ele><time>2026-05-02T10:27:17.955Z</time></trkpt><trkpt lat="43.599075" lon="11.5817533"><ele>295.6666666666667</ele><time>2026-05-02T10:27:18.955Z</time></trkpt><trkpt lat="43.5991167" lon="11.581665"><ele>295.0</ele><time>2026-05-02T10:27:19.954Z</time></trkpt><trkpt lat="43.5991717" lon="11.5815967"><ele>294.33333333333337</ele><time>2026-05-02T10:27:20.954Z</time></trkpt><trkpt lat="43.5992367" lon="11.5815483"><ele>293.6666666666667</ele><time>2026-05-02T10:27:21.955Z</time></trkpt><trkpt lat="43.59931" lon="11.5815167"><ele>293.0</ele><time>2026-05-02T10:27:22.956Z</time></trkpt><trkpt lat="43.5993867" lon="11.5815067"><ele>293.0</ele><time>2026-05-02T10:27:23.957Z</time></trkpt><trkpt lat="43.59947" lon="11.5815083"><ele>293.0</ele><time>2026-05-02T10:27:24.955Z</time></trkpt><trkpt lat="43.5995517" lon="11.581525"><ele>293.0</ele><time>2026-05-02T10:27:25.955Z</time></trkpt><trkpt lat="43.5996317" lon="11.5815533"><ele>293.0</ele><time>2026-05-02T10:27:26.954Z</time></trkpt><trkpt lat="43.599705" lon="11.5816067"><ele>293.0</ele><time>2026-05-02T10:27:27.954Z</time></trkpt><trkpt lat="43.5997767" lon="11.5816733"><ele>293.0</ele><time>2026-05-02T10:27:28.955Z</time></trkpt><trkpt lat="43.5998433" lon="11.5817633"><ele>292.0</ele><time>2026-05-02T10:27:29.956Z</time></trkpt><trkpt lat="43.599905" lon="11.5818633"><ele>291.0</ele><time>2026-05-02T10:27:30.956Z</time></trkpt><trkpt lat="43.59997" lon="11.581965"><ele>290.0</ele><time>2026-05-02T10:27:31.956Z</time></trkpt><trkpt lat="43.6000367" lon="11.582065"><ele>289.0</ele><time>2026-05-02T10:27:32.954Z</time></trkpt><trkpt lat="43.6001083" lon="11.58216"><ele>288.0</ele><time>2026-05-02T10:27:33.954Z</time></trkpt><trkpt lat="43.6001817" lon="11.5822533"><ele>289.4</ele><time>2026-05-02T10:27:34.954Z</time></trkpt><trkpt lat="43.6002533" lon="11.582345"><ele>290.8</ele><time>2026-05-02T10:27:35.955Z</time></trkpt><trkpt lat="43.6003267" lon="11.5824383"><ele>292.2</ele><time>2026-05-02T10:27:36.956Z</time></trkpt><trkpt lat="43.6004" lon="11.58254"><ele>293.6</ele><time>2026-05-02T10:27:37.954Z</time></trkpt><trkpt lat="43.60047" lon="11.5826367"><ele>295.0</ele><time>2026-05-02T10:27:38.956Z</time></trkpt><trkpt lat="43.600535" lon="11.58272"><ele>295.0</ele><time>2026-05-02T10:27:39.957Z</time></trkpt><trkpt lat="43.6006033" lon="11.5827767"><ele>295.0</ele><time>2026-05-02T10:27:40.955Z</time></trkpt><trkpt lat="43.600675" lon="11.582795"><ele>295.0</ele><time>2026-05-02T10:27:41.957Z</time></trkpt><trkpt lat="43.6007483" lon="11.5827433"><ele>295.0</ele><time>2026-05-02T10:27:42.957Z</time></trkpt><trkpt lat="43.6008083" lon="11.5826667"><ele>295.0</ele><time>2026-05-02T10:27:43.955Z</time></trkpt><trkpt lat="43.600855" lon="11.5825717"><ele>295.0</ele><time>2026-05-02T10:27:44.955Z</time></trkpt><trkpt lat="43.6008783" lon="11.582475"><ele>295.00000000000006</ele><time>2026-05-02T10:27:45.955Z</time></trkpt><trkpt lat="43.600885" lon="11.58237"><ele>295.0</ele><time>2026-05-02T10:27:46.955Z</time></trkpt><trkpt lat="43.6008617" lon="11.5822683"><ele>295.0</ele><time>2026-05-02T10:27:47.954Z</time></trkpt><trkpt lat="43.6008333" lon="11.5821733"><ele>295.0</ele><time>2026-05-02T10:27:48.954Z</time></trkpt><trkpt lat="43.6008" lon="11.5820817"><ele>295.0</ele><time>2026-05-02T10:27:49.955Z</time></trkpt><trkpt lat="43.6007633" lon="11.581995"><ele>295.00000000000006</ele><time>2026-05-02T10:27:50.955Z</time></trkpt><trkpt lat="43.6007283" lon="11.581905"><ele>295.0</ele><time>2026-05-02T10:27:51.956Z</time></trkpt><trkpt lat="43.6006983" lon="11.5818167"><ele>295.28571428571433</ele><time>2026-05-02T10:27:52.955Z</time></trkpt><trkpt lat="43.6006733" lon="11.58173"><ele>295.57142857142856</ele><time>2026-05-02T10:27:53.955Z</time></trkpt><trkpt lat="43.6006533" lon="11.58164"><ele>295.8571428571429</ele><time>2026-05-02T10:27:54.956Z</time></trkpt><trkpt lat="43.6006333" lon="11.5815467"><ele>296.14285714285717</ele><time>2026-05-02T10:27:55.955Z</time></trkpt><trkpt lat="43.6006133" lon="11.5814567"><ele>296.42857142857144</ele><time>2026-05-02T10:27:56.956Z</time></trkpt><trkpt lat="43.6005933" lon="11.5813633"><ele>296.7142857142857</ele><time>2026-05-02T10:27:57.953Z</time></trkpt><trkpt lat="43.6005767" lon="11.5812683"><ele>297.0</ele><time>2026-05-02T10:27:58.953Z</time></trkpt><trkpt lat="43.600555" lon="11.58118"><ele>297.1666666666667</ele><time>2026-05-02T10:27:59.956Z</time></trkpt><trkpt lat="43.60053" lon="11.581095"><ele>297.3333333333333</ele><time>2026-05-02T10:28:00.956Z</time></trkpt><trkpt lat="43.6004717" lon="11.5809467"><ele>297.5</ele><time>2026-05-02T10:28:02.954Z</time></trkpt><trkpt lat="43.60041" lon="11.580805"><ele>297.66666666666663</ele><time>2026-05-02T10:28:04.954Z</time></trkpt><trkpt lat="43.6003883" lon="11.58072"><ele>297.8333333333333</ele><time>2026-05-02T10:28:05.954Z</time></trkpt><trkpt lat="43.600365" lon="11.5806383"><ele>298.0</ele><time>2026-05-02T10:28:06.956Z</time></trkpt><trkpt lat="43.60035" lon="11.5805517"><ele>298.0</ele><time>2026-05-02T10:28:07.955Z</time></trkpt><trkpt lat="43.6003467" lon="11.5803833"><ele>298.0</ele><time>2026-05-02T10:28:09.954Z</time></trkpt><trkpt lat="43.6003717" lon="11.5802217"><ele>298.0</ele><time>2026-05-02T10:28:11.956Z</time></trkpt><trkpt lat="43.6003983" lon="11.580135"><ele>298.0</ele><time>2026-05-02T10:28:12.954Z</time></trkpt><trkpt lat="43.6004767" lon="11.5799983"><ele>298.0</ele><time>2026-05-02T10:28:14.956Z</time></trkpt><trkpt lat="43.6005133" lon="11.5799267"><ele>297.5</ele><time>2026-05-02T10:28:15.954Z</time></trkpt><trkpt lat="43.6005817" lon="11.5797867"><ele>297.0</ele><time>2026-05-02T10:28:17.956Z</time></trkpt><trkpt lat="43.6006533" lon="11.5796433"><ele>296.5</ele><time>2026-05-02T10:28:19.954Z</time></trkpt><trkpt lat="43.6007283" lon="11.57951"><ele>296.0</ele><time>2026-05-02T10:28:21.954Z</time></trkpt><trkpt lat="43.60081" lon="11.5793883"><ele>295.8</ele><time>2026-05-02T10:28:23.954Z</time></trkpt><trkpt lat="43.6008983" lon="11.5792867"><ele>295.6</ele><time>2026-05-02T10:28:25.956Z</time></trkpt><trkpt lat="43.6010033" lon="11.57922"><ele>295.4</ele><time>2026-05-02T10:28:27.955Z</time></trkpt><trkpt lat="43.60111" lon="11.5791783"><ele>295.2</ele><time>2026-05-02T10:28:29.956Z</time></trkpt><trkpt lat="43.601215" lon="11.5791467"><ele>295.0</ele><time>2026-05-02T10:28:31.954Z</time></trkpt><trkpt lat="43.6013267" lon="11.5791467"><ele>295.4</ele><time>2026-05-02T10:28:33.955Z</time></trkpt><trkpt lat="43.6014367" lon="11.5791817"><ele>295.8</ele><time>2026-05-02T10:28:35.954Z</time></trkpt><trkpt lat="43.6015417" lon="11.5792217"><ele>296.2</ele><time>2026-05-02T10:28:37.956Z</time></trkpt><trkpt lat="43.6016517" lon="11.57924"><ele>296.6</ele><time>2026-05-02T10:28:39.956Z</time></trkpt><trkpt lat="43.6017583" lon="11.5792217"><ele>297.0</ele><time>2026-05-02T10:28:41.956Z</time></trkpt><trkpt lat="43.6018733" lon="11.5791967"><ele>297.0</ele><time>2026-05-02T10:28:43.955Z</time></trkpt><trkpt lat="43.6019917" lon="11.5791683"><ele>297.0</ele><time>2026-05-02T10:28:45.957Z</time></trkpt><trkpt lat="43.6021167" lon="11.5791367"><ele>297.0</ele><time>2026-05-02T10:28:47.955Z</time></trkpt><trkpt lat="43.6022433" lon="11.5791017"><ele>297.0</ele><time>2026-05-02T10:28:49.954Z</time></trkpt><trkpt lat="43.60231" lon="11.579085"><ele>297.0</ele><time>2026-05-02T10:28:50.955Z</time></trkpt><trkpt lat="43.6023783" lon="11.5790667"><ele>296.57142857142856</ele><time>2026-05-02T10:28:51.953Z</time></trkpt><trkpt lat="43.6024433" lon="11.5790367"><ele>296.14285714285717</ele><time>2026-05-02T10:28:52.953Z</time></trkpt><trkpt lat="43.6025033" lon="11.578985"><ele>295.7142857142857</ele><time>2026-05-02T10:28:53.953Z</time></trkpt><trkpt lat="43.6025517" lon="11.578915"><ele>295.2857142857143</ele><time>2026-05-02T10:28:54.956Z</time></trkpt><trkpt lat="43.6025983" lon="11.5788367"><ele>294.8571428571429</ele><time>2026-05-02T10:28:55.956Z</time></trkpt><trkpt lat="43.6026333" lon="11.5787517"><ele>294.42857142857144</ele><time>2026-05-02T10:28:56.953Z</time></trkpt><trkpt lat="43.60267" lon="11.578665"><ele>294.0</ele><time>2026-05-02T10:28:57.953Z</time></trkpt><trkpt lat="43.6027167" lon="11.5785833"><ele>294.0</ele><time>2026-05-02T10:28:58.953Z</time></trkpt><trkpt lat="43.602775" lon="11.5785133"><ele>294.0</ele><time>2026-05-02T10:28:59.953Z</time></trkpt><trkpt lat="43.6028483" lon="11.5784617"><ele>294.0</ele><time>2026-05-02T10:29:00.954Z</time></trkpt><trkpt lat="43.6029267" lon="11.5784183"><ele>294.0</ele><time>2026-05-02T10:29:01.953Z</time></trkpt><trkpt lat="43.6030017" lon="11.57837"><ele>294.0</ele><time>2026-05-02T10:29:02.954Z</time></trkpt><trkpt lat="43.6030717" lon="11.5783033"><ele>294.0</ele><time>2026-05-02T10:29:03.955Z</time></trkpt><trkpt lat="43.6031233" lon="11.5782167"><ele>294.5</ele><time>2026-05-02T10:29:04.953Z</time></trkpt><trkpt lat="43.603155" lon="11.578115"><ele>295.0</ele><time>2026-05-02T10:29:05.954Z</time></trkpt><trkpt lat="43.6031683" lon="11.5780067"><ele>295.5</ele><time>2026-05-02T10:29:06.955Z</time></trkpt><trkpt lat="43.60317" lon="11.57789"><ele>296.0</ele><time>2026-05-02T10:29:07.956Z</time></trkpt><trkpt lat="43.60317" lon="11.5777683"><ele>296.5</ele><time>2026-05-02T10:29:08.954Z</time></trkpt><trkpt lat="43.603165" lon="11.5776483"><ele>297.0</ele><time>2026-05-02T10:29:09.953Z</time></trkpt><trkpt lat="43.6031633" lon="11.577525"><ele>297.0</ele><time>2026-05-02T10:29:10.955Z</time></trkpt><trkpt lat="43.6031667" lon="11.5774017"><ele>297.0</ele><time>2026-05-02T10:29:11.951Z</time></trkpt><trkpt lat="43.6031833" lon="11.57728"><ele>297.0</ele><time>2026-05-02T10:29:12.953Z</time></trkpt><trkpt lat="43.6032183" lon="11.5771633"><ele>297.0</ele><time>2026-05-02T10:29:13.954Z</time></trkpt><trkpt lat="43.60327" lon="11.577055"><ele>297.0</ele><time>2026-05-02T10:29:14.954Z</time></trkpt><trkpt lat="43.60333" lon="11.5769567"><ele>295.8</ele><time>2026-05-02T10:29:15.955Z</time></trkpt><trkpt lat="43.6034017" lon="11.5768633"><ele>294.6</ele><time>2026-05-02T10:29:16.951Z</time></trkpt><trkpt lat="43.6034767" lon="11.576775"><ele>293.40000000000003</ele><time>2026-05-02T10:29:17.953Z</time></trkpt><trkpt lat="43.6035567" lon="11.5766933"><ele>292.2</ele><time>2026-05-02T10:29:18.953Z</time></trkpt><trkpt lat="43.6036433" lon="11.57662"><ele>291.0</ele><time>2026-05-02T10:29:19.956Z</time></trkpt><trkpt lat="43.6037333" lon="11.576565"><ele>291.0</ele><time>2026-05-02T10:29:20.953Z</time></trkpt><trkpt lat="43.6038333" lon="11.5765333"><ele>291.0</ele><time>2026-05-02T10:29:21.954Z</time></trkpt><trkpt lat="43.6039367" lon="11.57654"><ele>291.0</ele><time>2026-05-02T10:29:22.954Z</time></trkpt><trkpt lat="43.6040383" lon="11.5765767"><ele>291.0</ele><time>2026-05-02T10:29:23.955Z</time></trkpt><trkpt lat="43.6041383" lon="11.5766233"><ele>291.0</ele><time>2026-05-02T10:29:24.954Z</time></trkpt><trkpt lat="43.6042417" lon="11.5766667"><ele>291.0</ele><time>2026-05-02T10:29:25.953Z</time></trkpt><trkpt lat="43.604345" lon="11.5767017"><ele>291.0</ele><time>2026-05-02T10:29:26.953Z</time></trkpt><trkpt lat="43.6044483" lon="11.5767267"><ele>291.0</ele><time>2026-05-02T10:29:27.953Z</time></trkpt><trkpt lat="43.6045533" lon="11.5767467"><ele>291.0</ele><time>2026-05-02T10:29:28.954Z</time></trkpt><trkpt lat="43.6046533" lon="11.57675"><ele>291.0</ele><time>2026-05-02T10:29:29.953Z</time></trkpt><trkpt lat="43.6047517" lon="11.576725"><ele>290.8</ele><time>2026-05-02T10:29:30.954Z</time></trkpt><trkpt lat="43.604845" lon="11.5766717"><ele>290.6</ele><time>2026-05-02T10:29:31.955Z</time></trkpt><trkpt lat="43.6049233" lon="11.5765917"><ele>290.4</ele><time>2026-05-02T10:29:32.953Z</time></trkpt><trkpt lat="43.60498" lon="11.5764833"><ele>290.2</ele><time>2026-05-02T10:29:33.954Z</time></trkpt><trkpt lat="43.6050183" lon="11.57636"><ele>290.0</ele><time>2026-05-02T10:29:34.954Z</time></trkpt><trkpt lat="43.6050433" lon="11.576225"><ele>288.6</ele><time>2026-05-02T10:29:35.953Z</time></trkpt><trkpt lat="43.6050567" lon="11.576085"><ele>287.2</ele><time>2026-05-02T10:29:36.954Z</time></trkpt><trkpt lat="43.6050667" lon="11.5759433"><ele>285.8</ele><time>2026-05-02T10:29:37.954Z</time></trkpt><trkpt lat="43.6050733" lon="11.5758"><ele>284.4</ele><time>2026-05-02T10:29:38.956Z</time></trkpt><trkpt lat="43.60508" lon="11.5756583"><ele>283.0</ele><time>2026-05-02T10:29:39.955Z</time></trkpt><trkpt lat="43.60509" lon="11.57552"><ele>283.0</ele><time>2026-05-02T10:29:40.953Z</time></trkpt><trkpt lat="43.6051167" lon="11.5753833"><ele>283.0</ele><time>2026-05-02T10:29:41.955Z</time></trkpt><trkpt lat="43.6051633" lon="11.575265"><ele>283.0</ele><time>2026-05-02T10:29:42.953Z</time></trkpt><trkpt lat="43.6052367" lon="11.5751733"><ele>283.0</ele><time>2026-05-02T10:29:43.954Z</time></trkpt><trkpt lat="43.60532" lon="11.57511"><ele>283.0</ele><time>2026-05-02T10:29:44.954Z</time></trkpt><trkpt lat="43.605405" lon="11.5750617"><ele>283.4</ele><time>2026-05-02T10:29:45.953Z</time></trkpt><trkpt lat="43.6054917" lon="11.5750233"><ele>283.8</ele><time>2026-05-02T10:29:46.954Z</time></trkpt><trkpt lat="43.6055783" lon="11.57498"><ele>284.2</ele><time>2026-05-02T10:29:47.953Z</time></trkpt><trkpt lat="43.6056617" lon="11.5749267"><ele>284.6</ele><time>2026-05-02T10:29:48.954Z</time></trkpt><trkpt lat="43.6057417" lon="11.5748633"><ele>285.0</ele><time>2026-05-02T10:29:49.953Z</time></trkpt><trkpt lat="43.60582" lon="11.5747867"><ele>285.0</ele><time>2026-05-02T10:29:50.955Z</time></trkpt><trkpt lat="43.6058867" lon="11.5746983"><ele>285.0</ele><time>2026-05-02T10:29:51.954Z</time></trkpt><trkpt lat="43.6059483" lon="11.5746"><ele>285.0</ele><time>2026-05-02T10:29:52.954Z</time></trkpt><trkpt lat="43.606" lon="11.5744983"><ele>285.0</ele><time>2026-05-02T10:29:53.954Z</time></trkpt><trkpt lat="43.6060483" lon="11.5744"><ele>285.0</ele><time>2026-05-02T10:29:54.953Z</time></trkpt><trkpt lat="43.6060967" lon="11.5743067"><ele>285.0</ele><time>2026-05-02T10:29:55.954Z</time></trkpt><trkpt lat="43.6061483" lon="11.57422"><ele>285.5</ele><time>2026-05-02T10:29:56.954Z</time></trkpt><trkpt lat="43.6062067" lon="11.5741383"><ele>286.0</ele><time>2026-05-02T10:29:57.953Z</time></trkpt><trkpt lat="43.6062683" lon="11.574065"><ele>286.5</ele><time>2026-05-02T10:29:58.956Z</time></trkpt><trkpt lat="43.60633" lon="11.574"><ele>287.0</ele><time>2026-05-02T10:29:59.955Z</time></trkpt><trkpt lat="43.6063917" lon="11.573935"><ele>287.5</ele><time>2026-05-02T10:30:00.956Z</time></trkpt><trkpt lat="43.6064517" lon="11.57387"><ele>288.0</ele><time>2026-05-02T10:30:01.954Z</time></trkpt><trkpt lat="43.6065133" lon="11.5738017"><ele>288.0</ele><time>2026-05-02T10:30:02.954Z</time></trkpt><trkpt lat="43.6065783" lon="11.573735"><ele>288.0</ele><time>2026-05-02T10:30:03.953Z</time></trkpt><trkpt lat="43.606645" lon="11.5736733"><ele>288.0</ele><time>2026-05-02T10:30:04.953Z</time></trkpt><trkpt lat="43.6067167" lon="11.5736267"><ele>288.0</ele><time>2026-05-02T10:30:05.955Z</time></trkpt><trkpt lat="43.606795" lon="11.5735983"><ele>288.0</ele><time>2026-05-02T10:30:06.952Z</time></trkpt><trkpt lat="43.606875" lon="11.5735883"><ele>288.0</ele><time>2026-05-02T10:30:07.954Z</time></trkpt><trkpt lat="43.6069567" lon="11.5735917"><ele>287.5</ele><time>2026-05-02T10:30:08.955Z</time></trkpt><trkpt lat="43.6070367" lon="11.5736033"><ele>287.0</ele><time>2026-05-02T10:30:09.951Z</time></trkpt><trkpt lat="43.6071167" lon="11.5736167"><ele>286.5</ele><time>2026-05-02T10:30:10.955Z</time></trkpt><trkpt lat="43.607195" lon="11.57362"><ele>286.0</ele><time>2026-05-02T10:30:11.952Z</time></trkpt><trkpt lat="43.60727" lon="11.573595"><ele>285.5</ele><time>2026-05-02T10:30:12.954Z</time></trkpt><trkpt lat="43.607335" lon="11.5735333"><ele>285.0</ele><time>2026-05-02T10:30:13.955Z</time></trkpt><trkpt lat="43.6073783" lon="11.5734417"><ele>285.0</ele><time>2026-05-02T10:30:14.954Z</time></trkpt><trkpt lat="43.6073933" lon="11.573335"><ele>285.0</ele><time>2026-05-02T10:30:15.953Z</time></trkpt><trkpt lat="43.6073883" lon="11.5732333"><ele>285.0</ele><time>2026-05-02T10:30:16.953Z</time></trkpt><trkpt lat="43.60737" lon="11.573135"><ele>285.0</ele><time>2026-05-02T10:30:17.955Z</time></trkpt><trkpt lat="43.6073533" lon="11.573035"><ele>285.0</ele><time>2026-05-02T10:30:18.955Z</time></trkpt><trkpt lat="43.6073383" lon="11.5729433"><ele>285.0</ele><time>2026-05-02T10:30:19.956Z</time></trkpt><trkpt lat="43.6073233" lon="11.5728567"><ele>285.0</ele><time>2026-05-02T10:30:20.953Z</time></trkpt><trkpt lat="43.6072967" lon="11.5726933"><ele>285.0</ele><time>2026-05-02T10:30:22.956Z</time></trkpt><trkpt lat="43.6072733" lon="11.5725367"><ele>285.0</ele><time>2026-05-02T10:30:24.955Z</time></trkpt><trkpt lat="43.6072617" lon="11.5723833"><ele>285.0</ele><time>2026-05-02T10:30:26.955Z</time></trkpt><trkpt lat="43.6072667" lon="11.5722267"><ele>285.0</ele><time>2026-05-02T10:30:28.952Z</time></trkpt><trkpt lat="43.6072933" lon="11.57209"><ele>285.0</ele><time>2026-05-02T10:30:30.954Z</time></trkpt><trkpt lat="43.607345" lon="11.5719583"><ele>285.0</ele><time>2026-05-02T10:30:32.956Z</time></trkpt><trkpt lat="43.6074067" lon="11.5718383"><ele>285.0</ele><time>2026-05-02T10:30:34.954Z</time></trkpt><trkpt lat="43.6074833" lon="11.5717367"><ele>285.0</ele><time>2026-05-02T10:30:36.953Z</time></trkpt><trkpt lat="43.6075683" lon="11.57165"><ele>285.0</ele><time>2026-05-02T10:30:38.954Z</time></trkpt><trkpt lat="43.6076633" lon="11.5715783"><ele>285.0</ele><time>2026-05-02T10:30:40.954Z</time></trkpt><trkpt lat="43.6077617" lon="11.5715067"><ele>286.0</ele><time>2026-05-02T10:30:42.954Z</time></trkpt><trkpt lat="43.6078733" lon="11.5714383"><ele>287.0</ele><time>2026-05-02T10:30:44.955Z</time></trkpt><trkpt lat="43.6079917" lon="11.5713967"><ele>288.0</ele><time>2026-05-02T10:30:46.954Z</time></trkpt><trkpt lat="43.608055" lon="11.5713867"><ele>289.0</ele><time>2026-05-02T10:30:47.956Z</time></trkpt><trkpt lat="43.60812" lon="11.5713783"><ele>290.0</ele><time>2026-05-02T10:30:48.954Z</time></trkpt><trkpt lat="43.608245" lon="11.5713667"><ele>290.0</ele><time>2026-05-02T10:30:50.955Z</time></trkpt><trkpt lat="43.60831" lon="11.5713633"><ele>290.0</ele><time>2026-05-02T10:30:51.956Z</time></trkpt><trkpt lat="43.608435" lon="11.5713567"><ele>290.0</ele><time>2026-05-02T10:30:53.954Z</time></trkpt><trkpt lat="43.6085033" lon="11.5713467"><ele>290.0</ele><time>2026-05-02T10:30:54.954Z</time></trkpt><trkpt lat="43.60857" lon="11.5713317"><ele>290.0</ele><time>2026-05-02T10:30:55.955Z</time></trkpt><trkpt lat="43.6086367" lon="11.57132"><ele>290.0</ele><time>2026-05-02T10:30:56.954Z</time></trkpt><trkpt lat="43.6087017" lon="11.57131"><ele>291.25</ele><time>2026-05-02T10:30:57.952Z</time></trkpt><trkpt lat="43.608825" lon="11.5712867"><ele>292.5</ele><time>2026-05-02T10:30:59.955Z</time></trkpt><trkpt lat="43.60894" lon="11.57126"><ele>293.75</ele><time>2026-05-02T10:31:01.956Z</time></trkpt><trkpt lat="43.60906" lon="11.5712333"><ele>295.0</ele><time>2026-05-02T10:31:03.956Z</time></trkpt><trkpt lat="43.6091767" lon="11.5712133"><ele>294.25</ele><time>2026-05-02T10:31:05.954Z</time></trkpt><trkpt lat="43.60929" lon="11.5711867"><ele>293.5</ele><time>2026-05-02T10:31:07.956Z</time></trkpt><trkpt lat="43.609405" lon="11.5711633"><ele>292.75</ele><time>2026-05-02T10:31:09.954Z</time></trkpt><trkpt lat="43.609515" lon="11.5711317"><ele>292.0</ele><time>2026-05-02T10:31:11.953Z</time></trkpt><trkpt lat="43.6096233" lon="11.571105"><ele>292.0</ele><time>2026-05-02T10:31:13.952Z</time></trkpt><trkpt lat="43.6097333" lon="11.5710817"><ele>292.0</ele><time>2026-05-02T10:31:15.953Z</time></trkpt><trkpt lat="43.6098417" lon="11.5710633"><ele>292.0</ele><time>2026-05-02T10:31:17.956Z</time></trkpt><trkpt lat="43.6099533" lon="11.5710367"><ele>292.0</ele><time>2026-05-02T10:31:19.954Z</time></trkpt><trkpt lat="43.610065" lon="11.5710167"><ele>292.0</ele><time>2026-05-02T10:31:21.955Z</time></trkpt><trkpt lat="43.6101833" lon="11.5710133"><ele>292.0</ele><time>2026-05-02T10:31:23.954Z</time></trkpt><trkpt lat="43.61029" lon="11.5710283"><ele>292.0</ele><time>2026-05-02T10:31:25.955Z</time></trkpt><trkpt lat="43.6103983" lon="11.5710683"><ele>292.0</ele><time>2026-05-02T10:31:27.957Z</time></trkpt><trkpt lat="43.6105017" lon="11.571145"><ele>292.0</ele><time>2026-05-02T10:31:29.956Z</time></trkpt><trkpt lat="43.6105517" lon="11.5712067"><ele>292.0</ele><time>2026-05-02T10:31:30.956Z</time></trkpt><trkpt lat="43.6105917" lon="11.5712783"><ele>292.2</ele><time>2026-05-02T10:31:31.954Z</time></trkpt><trkpt lat="43.6106217" lon="11.571355"><ele>292.4</ele><time>2026-05-02T10:31:32.955Z</time></trkpt><trkpt lat="43.6106683" lon="11.5715067"><ele>292.6</ele><time>2026-05-02T10:31:34.958Z</time></trkpt><trkpt lat="43.6107117" lon="11.5716717"><ele>292.8</ele><time>2026-05-02T10:31:36.955Z</time></trkpt><trkpt lat="43.6107367" lon="11.571755"><ele>293.0</ele><time>2026-05-02T10:31:37.955Z</time></trkpt><trkpt lat="43.6107833" lon="11.571915"><ele>294.0</ele><time>2026-05-02T10:31:39.954Z</time></trkpt><trkpt lat="43.610825" lon="11.5720883"><ele>295.0</ele><time>2026-05-02T10:31:41.955Z</time></trkpt><trkpt lat="43.61085" lon="11.57218"><ele>296.0</ele><time>2026-05-02T10:31:42.954Z</time></trkpt><trkpt lat="43.6108733" lon="11.572275"><ele>297.0</ele><time>2026-05-02T10:31:43.954Z</time></trkpt><trkpt lat="43.610895" lon="11.5723683"><ele>298.0</ele><time>2026-05-02T10:31:44.955Z</time></trkpt><trkpt lat="43.6109167" lon="11.5724617"><ele>299.0</ele><time>2026-05-02T10:31:45.954Z</time></trkpt><trkpt lat="43.6109383" lon="11.5725517"><ele>299.0</ele><time>2026-05-02T10:31:46.955Z</time></trkpt><trkpt lat="43.6109617" lon="11.5726367"><ele>299.0</ele><time>2026-05-02T10:31:47.953Z</time></trkpt><trkpt lat="43.610985" lon="11.57273"><ele>299.0</ele><time>2026-05-02T10:31:48.954Z</time></trkpt><trkpt lat="43.6110083" lon="11.5728217"><ele>299.0</ele><time>2026-05-02T10:31:49.955Z</time></trkpt><trkpt lat="43.611035" lon="11.5729117"><ele>299.0</ele><time>2026-05-02T10:31:50.955Z</time></trkpt><trkpt lat="43.611065" lon="11.5729983"><ele>299.0</ele><time>2026-05-02T10:31:51.954Z</time></trkpt><trkpt lat="43.6111017" lon="11.57308"><ele>299.0</ele><time>2026-05-02T10:31:52.952Z</time></trkpt><trkpt lat="43.6111517" lon="11.5731483"><ele>299.1666666666667</ele><time>2026-05-02T10:31:53.954Z</time></trkpt><trkpt lat="43.6112133" lon="11.5731933"><ele>299.33333333333337</ele><time>2026-05-02T10:31:54.955Z</time></trkpt><trkpt lat="43.61128" lon="11.5732"><ele>299.5</ele><time>2026-05-02T10:31:55.955Z</time></trkpt><trkpt lat="43.6113817" lon="11.5731033"><ele>299.6666666666667</ele><time>2026-05-02T10:31:57.954Z</time></trkpt><trkpt lat="43.6114217" lon="11.573025"><ele>299.8333333333333</ele><time>2026-05-02T10:31:58.954Z</time></trkpt><trkpt lat="43.61146" lon="11.5729383"><ele>300.0</ele><time>2026-05-02T10:31:59.955Z</time></trkpt><trkpt lat="43.6114967" lon="11.5728433"><ele>300.0</ele><time>2026-05-02T10:32:00.956Z</time></trkpt><trkpt lat="43.61152" lon="11.5727417"><ele>300.0</ele><time>2026-05-02T10:32:01.954Z</time></trkpt><trkpt lat="43.611535" lon="11.5726433"><ele>300.0</ele><time>2026-05-02T10:32:02.954Z</time></trkpt><trkpt lat="43.6115433" lon="11.57254"><ele>300.0</ele><time>2026-05-02T10:32:03.954Z</time></trkpt><trkpt lat="43.6115483" lon="11.5724433"><ele>300.0</ele><time>2026-05-02T10:32:04.953Z</time></trkpt><trkpt lat="43.611555" lon="11.5723483"><ele>300.0</ele><time>2026-05-02T10:32:05.954Z</time></trkpt><trkpt lat="43.6115617" lon="11.5721883"><ele>300.0</ele><time>2026-05-02T10:32:07.955Z</time></trkpt><trkpt lat="43.6115717" lon="11.5720333"><ele>300.0</ele><time>2026-05-02T10:32:09.954Z</time></trkpt><trkpt lat="43.6115783" lon="11.5718733"><ele>300.0</ele><time>2026-05-02T10:32:11.954Z</time></trkpt><trkpt lat="43.6115833" lon="11.57171"><ele>300.0</ele><time>2026-05-02T10:32:13.951Z</time></trkpt><trkpt lat="43.611585" lon="11.57156"><ele>299.6</ele><time>2026-05-02T10:32:15.951Z</time></trkpt><trkpt lat="43.61159" lon="11.5714733"><ele>299.2</ele><time>2026-05-02T10:32:16.953Z</time></trkpt><trkpt lat="43.6116017" lon="11.5712983"><ele>298.8</ele><time>2026-05-02T10:32:18.951Z</time></trkpt><trkpt lat="43.6116117" lon="11.57121"><ele>298.4</ele><time>2026-05-02T10:32:19.952Z</time></trkpt><trkpt lat="43.6116517" lon="11.57105"><ele>298.0</ele><time>2026-05-02T10:32:21.951Z</time></trkpt><trkpt lat="43.6117283" lon="11.57092"><ele>297.57142857142856</ele><time>2026-05-02T10:32:23.956Z</time></trkpt><trkpt lat="43.6117733" lon="11.5708533"><ele>297.1428571428571</ele><time>2026-05-02T10:32:24.955Z</time></trkpt><trkpt lat="43.6118217" lon="11.57079"><ele>296.7142857142857</ele><time>2026-05-02T10:32:25.954Z</time></trkpt><trkpt lat="43.6118833" lon="11.570735"><ele>296.2857142857143</ele><time>2026-05-02T10:32:26.958Z</time></trkpt><trkpt lat="43.61195" lon="11.57069"><ele>295.8571428571429</ele><time>2026-05-02T10:32:27.955Z</time></trkpt><trkpt lat="43.6120183" lon="11.5706717"><ele>295.42857142857144</ele><time>2026-05-02T10:32:28.954Z</time></trkpt><trkpt lat="43.6120883" lon="11.57066"><ele>295.0</ele><time>2026-05-02T10:32:29.954Z</time></trkpt><trkpt lat="43.6121583" lon="11.5706483"><ele>295.00000000000006</ele><time>2026-05-02T10:32:30.955Z</time></trkpt><trkpt lat="43.6122233" lon="11.5706383"><ele>295.0</ele><time>2026-05-02T10:32:31.957Z</time></trkpt><trkpt lat="43.612295" lon="11.57062"><ele>295.0</ele><time>2026-05-02T10:32:32.955Z</time></trkpt><trkpt lat="43.612365" lon="11.57059"><ele>295.0</ele><time>2026-05-02T10:32:33.955Z</time></trkpt><trkpt lat="43.61243" lon="11.5705483"><ele>295.0</ele><time>2026-05-02T10:32:34.955Z</time></trkpt><trkpt lat="43.6124867" lon="11.5704933"><ele>295.00000000000006</ele><time>2026-05-02T10:32:35.957Z</time></trkpt><trkpt lat="43.6125367" lon="11.5704267"><ele>295.0</ele><time>2026-05-02T10:32:36.954Z</time></trkpt><trkpt lat="43.612585" lon="11.570355"><ele>295.00000000000006</ele><time>2026-05-02T10:32:37.954Z</time></trkpt><trkpt lat="43.6126283" lon="11.57028"><ele>295.0</ele><time>2026-05-02T10:32:38.954Z</time></trkpt><trkpt lat="43.6126733" lon="11.5701967"><ele>295.0</ele><time>2026-05-02T10:32:39.954Z</time></trkpt><trkpt lat="43.612715" lon="11.5701167"><ele>295.0</ele><time>2026-05-02T10:32:40.955Z</time></trkpt><trkpt lat="43.6127583" lon="11.5700383"><ele>295.0</ele><time>2026-05-02T10:32:41.955Z</time></trkpt><trkpt lat="43.6128033" lon="11.5699533"><ele>295.00000000000006</ele><time>2026-05-02T10:32:42.958Z</time></trkpt><trkpt lat="43.61285" lon="11.56987"><ele>295.0</ele><time>2026-05-02T10:32:43.957Z</time></trkpt><trkpt lat="43.6129" lon="11.5697933"><ele>295.3333333333333</ele><time>2026-05-02T10:32:44.954Z</time></trkpt><trkpt lat="43.612955" lon="11.5697217"><ele>295.66666666666663</ele><time>2026-05-02T10:32:45.953Z</time></trkpt><trkpt lat="43.61302" lon="11.56966"><ele>296.0</ele><time>2026-05-02T10:32:46.955Z</time></trkpt><trkpt lat="43.6130817" lon="11.569605"><ele>296.3333333333333</ele><time>2026-05-02T10:32:47.957Z</time></trkpt><trkpt lat="43.61315" lon="11.5695567"><ele>296.6666666666667</ele><time>2026-05-02T10:32:48.954Z</time></trkpt><trkpt lat="43.613215" lon="11.5695117"><ele>297.0</ele><time>2026-05-02T10:32:49.954Z</time></trkpt><trkpt lat="43.613285" lon="11.5694633"><ele>297.0</ele><time>2026-05-02T10:32:50.954Z</time></trkpt><trkpt lat="43.6133567" lon="11.5694117"><ele>297.0</ele><time>2026-05-02T10:32:51.957Z</time></trkpt><trkpt lat="43.6134283" lon="11.5693583"><ele>297.0</ele><time>2026-05-02T10:32:52.957Z</time></trkpt><trkpt lat="43.6135017" lon="11.5693017"><ele>297.0</ele><time>2026-05-02T10:32:53.956Z</time></trkpt><trkpt lat="43.613575" lon="11.5692483"><ele>297.0</ele><time>2026-05-02T10:32:54.956Z</time></trkpt><trkpt lat="43.6136483" lon="11.56919"><ele>297.0</ele><time>2026-05-02T10:32:55.957Z</time></trkpt><trkpt lat="43.613725" lon="11.5691333"><ele>297.3333333333333</ele><time>2026-05-02T10:32:56.956Z</time></trkpt><trkpt lat="43.6138017" lon="11.5690767"><ele>297.6666666666667</ele><time>2026-05-02T10:32:57.954Z</time></trkpt><trkpt lat="43.61388" lon="11.5690183"><ele>298.0</ele><time>2026-05-02T10:32:58.956Z</time></trkpt><trkpt lat="43.6139583" lon="11.5689617"><ele>298.33333333333337</ele><time>2026-05-02T10:32:59.956Z</time></trkpt><trkpt lat="43.6140383" lon="11.5689083"><ele>298.6666666666667</ele><time>2026-05-02T10:33:00.954Z</time></trkpt><trkpt lat="43.61412" lon="11.5688617"><ele>299.0</ele><time>2026-05-02T10:33:01.956Z</time></trkpt><trkpt lat="43.614205" lon="11.568825"><ele>299.0</ele><time>2026-05-02T10:33:02.954Z</time></trkpt><trkpt lat="43.6142917" lon="11.5688067"><ele>299.0</ele><time>2026-05-02T10:33:03.954Z</time></trkpt><trkpt lat="43.6143767" lon="11.56881"><ele>299.0</ele><time>2026-05-02T10:33:04.958Z</time></trkpt><trkpt lat="43.6144633" lon="11.5688417"><ele>299.0</ele><time>2026-05-02T10:33:05.956Z</time></trkpt><trkpt lat="43.6145467" lon="11.568905"><ele>299.0</ele><time>2026-05-02T10:33:06.955Z</time></trkpt><trkpt lat="43.6146167" lon="11.5690017"><ele>298.5</ele><time>2026-05-02T10:33:07.954Z</time></trkpt><trkpt lat="43.61467" lon="11.5691117"><ele>298.0</ele><time>2026-05-02T10:33:08.955Z</time></trkpt><trkpt lat="43.61472" lon="11.5692167"><ele>297.5</ele><time>2026-05-02T10:33:09.954Z</time></trkpt><trkpt lat="43.614775" lon="11.5692983"><ele>297.0</ele><time>2026-05-02T10:33:10.956Z</time></trkpt><trkpt lat="43.6148383" lon="11.5693433"><ele>296.5</ele><time>2026-05-02T10:33:11.953Z</time></trkpt><trkpt lat="43.614905" lon="11.569355"><ele>296.0</ele><time>2026-05-02T10:33:12.954Z</time></trkpt><trkpt lat="43.6149683" lon="11.5693317"><ele>296.0</ele><time>2026-05-02T10:33:13.956Z</time></trkpt><trkpt lat="43.6150183" lon="11.56927"><ele>296.0</ele><time>2026-05-02T10:33:14.955Z</time></trkpt><trkpt lat="43.6150533" lon="11.56918"><ele>296.0</ele><time>2026-05-02T10:33:15.955Z</time></trkpt><trkpt lat="43.6150783" lon="11.5690783"><ele>296.0</ele><time>2026-05-02T10:33:16.954Z</time></trkpt><trkpt lat="43.6150933" lon="11.5689683"><ele>296.0</ele><time>2026-05-02T10:33:17.955Z</time></trkpt><trkpt lat="43.6151017" lon="11.5688567"><ele>296.0</ele><time>2026-05-02T10:33:18.956Z</time></trkpt><trkpt lat="43.6151117" lon="11.5687417"><ele>295.83333333333337</ele><time>2026-05-02T10:33:19.955Z</time></trkpt><trkpt lat="43.6151233" lon="11.56863"><ele>295.6666666666667</ele><time>2026-05-02T10:33:20.954Z</time></trkpt><trkpt lat="43.6151317" lon="11.5685183"><ele>295.5</ele><time>2026-05-02T10:33:21.956Z</time></trkpt><trkpt lat="43.61514" lon="11.5684"><ele>295.3333333333333</ele><time>2026-05-02T10:33:22.957Z</time></trkpt><trkpt lat="43.615145" lon="11.56828"><ele>295.16666666666663</ele><time>2026-05-02T10:33:23.955Z</time></trkpt><trkpt lat="43.6151417" lon="11.5681567"><ele>295.0</ele><time>2026-05-02T10:33:24.956Z</time></trkpt><trkpt lat="43.6151367" lon="11.568035"><ele>295.0</ele><time>2026-05-02T10:33:25.958Z</time></trkpt><trkpt lat="43.6151333" lon="11.56791"><ele>295.0</ele><time>2026-05-02T10:33:26.953Z</time></trkpt><trkpt lat="43.6151333" lon="11.567785"><ele>295.0</ele><time>2026-05-02T10:33:27.955Z</time></trkpt><trkpt lat="43.6151433" lon="11.5676567"><ele>295.0</ele><time>2026-05-02T10:33:28.954Z</time></trkpt><trkpt lat="43.6151567" lon="11.56753"><ele>295.0</ele><time>2026-05-02T10:33:29.956Z</time></trkpt><trkpt lat="43.61518" lon="11.5674"><ele>295.2</ele><time>2026-05-02T10:33:30.955Z</time></trkpt><trkpt lat="43.6152133" lon="11.56727"><ele>295.4</ele><time>2026-05-02T10:33:31.954Z</time></trkpt><trkpt lat="43.6152483" lon="11.5671367"><ele>295.6</ele><time>2026-05-02T10:33:32.954Z</time></trkpt><trkpt lat="43.6152833" lon="11.5670117"><ele>295.8</ele><time>2026-05-02T10:33:33.956Z</time></trkpt><trkpt lat="43.6153217" lon="11.5668867"><ele>296.0</ele><time>2026-05-02T10:33:34.957Z</time></trkpt><trkpt lat="43.61536" lon="11.56676"><ele>296.0</ele><time>2026-05-02T10:33:35.953Z</time></trkpt><trkpt lat="43.6153967" lon="11.5666333"><ele>296.0</ele><time>2026-05-02T10:33:36.955Z</time></trkpt><trkpt lat="43.6154317" lon="11.566505"><ele>296.0</ele><time>2026-05-02T10:33:37.955Z</time></trkpt><trkpt lat="43.61547" lon="11.5663783"><ele>296.0</ele><time>2026-05-02T10:33:38.954Z</time></trkpt><trkpt lat="43.61551" lon="11.5662533"><ele>296.0</ele><time>2026-05-02T10:33:39.954Z</time></trkpt><trkpt lat="43.6155633" lon="11.5661333"><ele>293.40000000000003</ele><time>2026-05-02T10:33:40.954Z</time></trkpt><trkpt lat="43.61563" lon="11.5660267"><ele>290.8</ele><time>2026-05-02T10:33:41.954Z</time></trkpt><trkpt lat="43.61571" lon="11.56593"><ele>288.20000000000005</ele><time>2026-05-02T10:33:42.954Z</time></trkpt><trkpt lat="43.6157983" lon="11.5658517"><ele>285.6</ele><time>2026-05-02T10:33:43.953Z</time></trkpt><trkpt lat="43.61589" lon="11.5658"><ele>283.0</ele><time>2026-05-02T10:33:44.955Z</time></trkpt><trkpt lat="43.6159883" lon="11.5657633"><ele>283.0</ele><time>2026-05-02T10:33:45.956Z</time></trkpt><trkpt lat="43.6160867" lon="11.5657417"><ele>283.0</ele><time>2026-05-02T10:33:46.955Z</time></trkpt><trkpt lat="43.6161867" lon="11.5657233"><ele>283.0</ele><time>2026-05-02T10:33:47.955Z</time></trkpt><trkpt lat="43.61628" lon="11.565705"><ele>283.0</ele><time>2026-05-02T10:33:48.956Z</time></trkpt><trkpt lat="43.6163783" lon="11.565695"><ele>283.0</ele><time>2026-05-02T10:33:49.956Z</time></trkpt><trkpt lat="43.6164817" lon="11.5656933"><ele>283.4</ele><time>2026-05-02T10:33:50.954Z</time></trkpt><trkpt lat="43.6165817" lon="11.5656867"><ele>283.8</ele><time>2026-05-02T10:33:51.954Z</time></trkpt><trkpt lat="43.616685" lon="11.5656767"><ele>284.2</ele><time>2026-05-02T10:33:52.955Z</time></trkpt><trkpt lat="43.6167867" lon="11.5656583"><ele>284.6</ele><time>2026-05-02T10:33:53.955Z</time></trkpt><trkpt lat="43.6168817" lon="11.5656283"><ele>285.0</ele><time>2026-05-02T10:33:54.955Z</time></trkpt><trkpt lat="43.6169683" lon="11.5655767"><ele>285.3333333333333</ele><time>2026-05-02T10:33:55.953Z</time></trkpt><trkpt lat="43.6170433" lon="11.5655017"><ele>285.6666666666667</ele><time>2026-05-02T10:33:56.955Z</time></trkpt><trkpt lat="43.6170983" lon="11.5654067"><ele>286.0</ele><time>2026-05-02T10:33:57.953Z</time></trkpt><trkpt lat="43.6171367" lon="11.5653033"><ele>286.33333333333337</ele><time>2026-05-02T10:33:58.955Z</time></trkpt><trkpt lat="43.61717" lon="11.565195"><ele>286.6666666666667</ele><time>2026-05-02T10:33:59.954Z</time></trkpt><trkpt lat="43.6171967" lon="11.565085"><ele>287.0</ele><time>2026-05-02T10:34:00.954Z</time></trkpt><trkpt lat="43.6172183" lon="11.5649783"><ele>287.0</ele><time>2026-05-02T10:34:01.954Z</time></trkpt><trkpt lat="43.6172383" lon="11.564875"><ele>287.0</ele><time>2026-05-02T10:34:02.955Z</time></trkpt><trkpt lat="43.6172633" lon="11.5647733"><ele>287.0</ele><time>2026-05-02T10:34:03.953Z</time></trkpt><trkpt lat="43.61729" lon="11.5646767"><ele>287.0</ele><time>2026-05-02T10:34:04.954Z</time></trkpt><trkpt lat="43.6173283" lon="11.564585"><ele>287.0</ele><time>2026-05-02T10:34:05.954Z</time></trkpt><trkpt lat="43.6173717" lon="11.5644967"><ele>287.0</ele><time>2026-05-02T10:34:06.953Z</time></trkpt><trkpt lat="43.6174217" lon="11.5644183"><ele>286.57142857142856</ele><time>2026-05-02T10:34:07.956Z</time></trkpt><trkpt lat="43.6174767" lon="11.5643483"><ele>286.1428571428571</ele><time>2026-05-02T10:34:08.954Z</time></trkpt><trkpt lat="43.617535" lon="11.564285"><ele>285.7142857142857</ele><time>2026-05-02T10:34:09.953Z</time></trkpt><trkpt lat="43.6175967" lon="11.5642233"><ele>285.2857142857143</ele><time>2026-05-02T10:34:10.955Z</time></trkpt><trkpt lat="43.6176567" lon="11.5641683"><ele>284.85714285714283</ele><time>2026-05-02T10:34:11.954Z</time></trkpt><trkpt lat="43.6177217" lon="11.564115"><ele>284.42857142857144</ele><time>2026-05-02T10:34:12.953Z</time></trkpt><trkpt lat="43.61779" lon="11.5640733"><ele>284.0</ele><time>2026-05-02T10:34:13.954Z</time></trkpt><trkpt lat="43.6178667" lon="11.5640383"><ele>284.0</ele><time>2026-05-02T10:34:14.955Z</time></trkpt><trkpt lat="43.617945" lon="11.564015"><ele>284.0</ele><time>2026-05-02T10:34:15.953Z</time></trkpt><trkpt lat="43.6180317" lon="11.5639967"><ele>284.0</ele><time>2026-05-02T10:34:16.959Z</time></trkpt><trkpt lat="43.618125" lon="11.5639833"><ele>284.0</ele><time>2026-05-02T10:34:17.958Z</time></trkpt><trkpt lat="43.6182183" lon="11.5639683"><ele>284.0</ele><time>2026-05-02T10:34:18.956Z</time></trkpt><trkpt lat="43.618315" lon="11.5639533"><ele>284.0</ele><time>2026-05-02T10:34:19.953Z</time></trkpt><trkpt lat="43.6184083" lon="11.5639267"><ele>284.0</ele><time>2026-05-02T10:34:20.954Z</time></trkpt><trkpt lat="43.6184967" lon="11.56388"><ele>284.0</ele><time>2026-05-02T10:34:21.955Z</time></trkpt><trkpt lat="43.6185783" lon="11.5638133"><ele>284.0</ele><time>2026-05-02T10:34:22.955Z</time></trkpt><trkpt lat="43.6186533" lon="11.5637333"><ele>284.0</ele><time>2026-05-02T10:34:23.955Z</time></trkpt><trkpt lat="43.618725" lon="11.563645"><ele>282.59999999999997</ele><time>2026-05-02T10:34:24.954Z</time></trkpt><trkpt lat="43.6187983" lon="11.5635583"><ele>281.2</ele><time>2026-05-02T10:34:25.955Z</time></trkpt><trkpt lat="43.6188733" lon="11.5634767"><ele>279.79999999999995</ele><time>2026-05-02T10:34:26.956Z</time></trkpt><trkpt lat="43.6189567" lon="11.5634067"><ele>278.4</ele><time>2026-05-02T10:34:27.953Z</time></trkpt><trkpt lat="43.6190483" lon="11.5633583"><ele>277.0</ele><time>2026-05-02T10:34:28.956Z</time></trkpt><trkpt lat="43.6191417" lon="11.5633317"><ele>277.0</ele><time>2026-05-02T10:34:29.956Z</time></trkpt><trkpt lat="43.61924" lon="11.563305"><ele>277.0</ele><time>2026-05-02T10:34:30.955Z</time></trkpt><trkpt lat="43.619335" lon="11.5632783"><ele>277.0</ele><time>2026-05-02T10:34:31.954Z</time></trkpt><trkpt lat="43.6194267" lon="11.5632467"><ele>277.0</ele><time>2026-05-02T10:34:32.955Z</time></trkpt><trkpt lat="43.6195183" lon="11.5632133"><ele>277.0</ele><time>2026-05-02T10:34:33.953Z</time></trkpt><trkpt lat="43.6196083" lon="11.563175"><ele>277.4</ele><time>2026-05-02T10:34:34.953Z</time></trkpt><trkpt lat="43.6196917" lon="11.5631267"><ele>277.79999999999995</ele><time>2026-05-02T10:34:35.954Z</time></trkpt><trkpt lat="43.619775" lon="11.5630667"><ele>278.2</ele><time>2026-05-02T10:34:36.954Z</time></trkpt><trkpt lat="43.6198517" lon="11.5629933"><ele>278.59999999999997</ele><time>2026-05-02T10:34:37.953Z</time></trkpt><trkpt lat="43.6199167" lon="11.5629033"><ele>279.0</ele><time>2026-05-02T10:34:38.954Z</time></trkpt><trkpt lat="43.6199733" lon="11.5628067"><ele>279.0</ele><time>2026-05-02T10:34:39.954Z</time></trkpt><trkpt lat="43.6200267" lon="11.56271"><ele>279.0</ele><time>2026-05-02T10:34:40.955Z</time></trkpt><trkpt lat="43.620075" lon="11.56261"><ele>279.0</ele><time>2026-05-02T10:34:41.953Z</time></trkpt><trkpt lat="43.6201183" lon="11.5625167"><ele>279.0</ele><time>2026-05-02T10:34:42.955Z</time></trkpt><trkpt lat="43.62016" lon="11.5624267"><ele>279.0</ele><time>2026-05-02T10:34:43.955Z</time></trkpt><trkpt lat="43.6202" lon="11.5623383"><ele>279.0</ele><time>2026-05-02T10:34:44.953Z</time></trkpt><trkpt lat="43.6202383" lon="11.5622483"><ele>279.0</ele><time>2026-05-02T10:34:45.954Z</time></trkpt><trkpt lat="43.6202783" lon="11.5621617"><ele>279.0</ele><time>2026-05-02T10:34:46.954Z</time></trkpt><trkpt lat="43.6203133" lon="11.56208"><ele>279.0</ele><time>2026-05-02T10:34:47.954Z</time></trkpt><trkpt lat="43.62035" lon="11.5619983"><ele>279.0</ele><time>2026-05-02T10:34:48.954Z</time></trkpt><trkpt lat="43.6203867" lon="11.5619167"><ele>279.0</ele><time>2026-05-02T10:34:49.954Z</time></trkpt><trkpt lat="43.62042" lon="11.56184"><ele>279.0</ele><time>2026-05-02T10:34:50.954Z</time></trkpt><trkpt lat="43.6204833" lon="11.561695"><ele>281.0</ele><time>2026-05-02T10:34:52.953Z</time></trkpt><trkpt lat="43.6205467" lon="11.5615517"><ele>283.0</ele><time>2026-05-02T10:34:54.955Z</time></trkpt><trkpt lat="43.6206083" lon="11.561415"><ele>285.0</ele><time>2026-05-02T10:34:56.956Z</time></trkpt><trkpt lat="43.62067" lon="11.561275"><ele>287.0</ele><time>2026-05-02T10:34:58.953Z</time></trkpt><trkpt lat="43.6207283" lon="11.5611383"><ele>287.0</ele><time>2026-05-02T10:35:00.955Z</time></trkpt><trkpt lat="43.6207883" lon="11.561005"><ele>287.0</ele><time>2026-05-02T10:35:02.955Z</time></trkpt><trkpt lat="43.6208183" lon="11.560925"><ele>287.0</ele><time>2026-05-02T10:35:03.955Z</time></trkpt><trkpt lat="43.6208817" lon="11.5607883"><ele>287.0</ele><time>2026-05-02T10:35:05.955Z</time></trkpt><trkpt lat="43.620945" lon="11.5606567"><ele>287.0</ele><time>2026-05-02T10:35:07.954Z</time></trkpt><trkpt lat="43.6210117" lon="11.5605233"><ele>287.0</ele><time>2026-05-02T10:35:09.955Z</time></trkpt><trkpt lat="43.62108" lon="11.5603983"><ele>287.0</ele><time>2026-05-02T10:35:11.954Z</time></trkpt><trkpt lat="43.6211483" lon="11.5602667"><ele>287.0</ele><time>2026-05-02T10:35:13.953Z</time></trkpt><trkpt lat="43.6212217" lon="11.5601333"><ele>287.0</ele><time>2026-05-02T10:35:15.954Z</time></trkpt><trkpt lat="43.621295" lon="11.56001"><ele>287.0</ele><time>2026-05-02T10:35:17.952Z</time></trkpt><trkpt lat="43.62137" lon="11.5598833"><ele>287.0</ele><time>2026-05-02T10:35:19.957Z</time></trkpt><trkpt lat="43.62145" lon="11.55976"><ele>287.0</ele><time>2026-05-02T10:35:21.953Z</time></trkpt><trkpt lat="43.6215367" lon="11.5596467"><ele>287.0</ele><time>2026-05-02T10:35:23.956Z</time></trkpt><trkpt lat="43.6216333" lon="11.559555"><ele>286.75</ele><time>2026-05-02T10:35:25.954Z</time></trkpt><trkpt lat="43.6217417" lon="11.5594933"><ele>286.5</ele><time>2026-05-02T10:35:27.953Z</time></trkpt><trkpt lat="43.6218533" lon="11.5594467"><ele>286.25</ele><time>2026-05-02T10:35:29.954Z</time></trkpt><trkpt lat="43.62197" lon="11.55941"><ele>286.0</ele><time>2026-05-02T10:35:31.955Z</time></trkpt><trkpt lat="43.6220817" lon="11.5593817"><ele>286.0</ele><time>2026-05-02T10:35:33.955Z</time></trkpt><trkpt lat="43.6221917" lon="11.5593733"><ele>286.0</ele><time>2026-05-02T10:35:35.953Z</time></trkpt><trkpt lat="43.6222983" lon="11.5593833"><ele>286.0</ele><time>2026-05-02T10:35:37.954Z</time></trkpt><trkpt lat="43.6223967" lon="11.5593733"><ele>286.0</ele><time>2026-05-02T10:35:39.955Z</time></trkpt><trkpt lat="43.62247" lon="11.5592917"><ele>286.0</ele><time>2026-05-02T10:35:41.954Z</time></trkpt><trkpt lat="43.6224783" lon="11.5591567"><ele>286.0</ele><time>2026-05-02T10:35:43.953Z</time></trkpt><trkpt lat="43.6224233" lon="11.5590117"><ele>286.0</ele><time>2026-05-02T10:35:45.954Z</time></trkpt><trkpt lat="43.622385" lon="11.5589383"><ele>286.0</ele><time>2026-05-02T10:35:46.952Z</time></trkpt><trkpt lat="43.622355" lon="11.558855"><ele>286.0</ele><time>2026-05-02T10:35:47.955Z</time></trkpt><trkpt lat="43.622335" lon="11.5587617"><ele>286.0</ele><time>2026-05-02T10:35:48.954Z</time></trkpt><trkpt lat="43.6223183" lon="11.55866"><ele>286.0</ele><time>2026-05-02T10:35:49.954Z</time></trkpt><trkpt lat="43.6223" lon="11.5585567"><ele>285.3333333333333</ele><time>2026-05-02T10:35:50.954Z</time></trkpt><trkpt lat="43.6222733" lon="11.55846"><ele>284.66666666666663</ele><time>2026-05-02T10:35:51.957Z</time></trkpt><trkpt lat="43.6222383" lon="11.5583683"><ele>284.0</ele><time>2026-05-02T10:35:52.955Z</time></trkpt><trkpt lat="43.6221933" lon="11.5582817"><ele>283.3333333333333</ele><time>2026-05-02T10:35:53.955Z</time></trkpt><trkpt lat="43.62214" lon="11.5582"><ele>282.6666666666667</ele><time>2026-05-02T10:35:54.954Z</time></trkpt><trkpt lat="43.62208" lon="11.5581233"><ele>282.0</ele><time>2026-05-02T10:35:55.955Z</time></trkpt><trkpt lat="43.6220133" lon="11.5580583"><ele>282.5</ele><time>2026-05-02T10:35:56.957Z</time></trkpt><trkpt lat="43.6219433" lon="11.5579967"><ele>283.0</ele><time>2026-05-02T10:35:57.953Z</time></trkpt><trkpt lat="43.6218683" lon="11.5579333"><ele>283.5</ele><time>2026-05-02T10:35:58.955Z</time></trkpt><trkpt lat="43.6217933" lon="11.5578683"><ele>284.0</ele><time>2026-05-02T10:35:59.953Z</time></trkpt><trkpt lat="43.6217167" lon="11.5578"><ele>284.5</ele><time>2026-05-02T10:36:00.956Z</time></trkpt><trkpt lat="43.6216417" lon="11.5577317"><ele>285.0</ele><time>2026-05-02T10:36:01.953Z</time></trkpt><trkpt lat="43.621565" lon="11.5576617"><ele>285.0</ele><time>2026-05-02T10:36:02.956Z</time></trkpt><trkpt lat="43.6214867" lon="11.5575933"><ele>285.0</ele><time>2026-05-02T10:36:03.953Z</time></trkpt><trkpt lat="43.6214083" lon="11.557525"><ele>285.0</ele><time>2026-05-02T10:36:04.955Z</time></trkpt><trkpt lat="43.6213383" lon="11.5574483"><ele>285.0</ele><time>2026-05-02T10:36:05.953Z</time></trkpt><trkpt lat="43.6212817" lon="11.557355"><ele>285.0</ele><time>2026-05-02T10:36:06.956Z</time></trkpt><trkpt lat="43.6212417" lon="11.5572483"><ele>285.0</ele><time>2026-05-02T10:36:07.956Z</time></trkpt><trkpt lat="43.6212267" lon="11.5571383"><ele>285.0</ele><time>2026-05-02T10:36:08.956Z</time></trkpt><trkpt lat="43.621235" lon="11.5570283"><ele>285.0</ele><time>2026-05-02T10:36:09.954Z</time></trkpt><trkpt lat="43.621265" lon="11.5569267"><ele>285.0</ele><time>2026-05-02T10:36:10.954Z</time></trkpt><trkpt lat="43.621315" lon="11.5568483"><ele>285.0</ele><time>2026-05-02T10:36:11.954Z</time></trkpt><trkpt lat="43.6213767" lon="11.5567883"><ele>285.0</ele><time>2026-05-02T10:36:12.953Z</time></trkpt><trkpt lat="43.6214433" lon="11.5567317"><ele>284.8333333333333</ele><time>2026-05-02T10:36:13.954Z</time></trkpt><trkpt lat="43.62151" lon="11.556675"><ele>284.6666666666667</ele><time>2026-05-02T10:36:14.956Z</time></trkpt><trkpt lat="43.621575" lon="11.5566133"><ele>284.5</ele><time>2026-05-02T10:36:15.955Z</time></trkpt><trkpt lat="43.6216367" lon="11.5565533"><ele>284.33333333333337</ele><time>2026-05-02T10:36:16.952Z</time></trkpt><trkpt lat="43.6217017" lon="11.5564867"><ele>284.1666666666667</ele><time>2026-05-02T10:36:17.957Z</time></trkpt><trkpt lat="43.62176" lon="11.5564217"><ele>284.0</ele><time>2026-05-02T10:36:18.953Z</time></trkpt><trkpt lat="43.6218167" lon="11.55636"><ele>284.0</ele><time>2026-05-02T10:36:19.955Z</time></trkpt><trkpt lat="43.6218783" lon="11.5563017"><ele>284.0</ele><time>2026-05-02T10:36:20.954Z</time></trkpt><trkpt lat="43.6219383" lon="11.556245"><ele>284.0</ele><time>2026-05-02T10:36:21.955Z</time></trkpt><trkpt lat="43.621995" lon="11.5561817"><ele>284.0</ele><time>2026-05-02T10:36:22.955Z</time></trkpt><trkpt lat="43.6220567" lon="11.55612"><ele>284.0</ele><time>2026-05-02T10:36:23.953Z</time></trkpt><trkpt lat="43.6221183" lon="11.556055"><ele>284.0</ele><time>2026-05-02T10:36:24.954Z</time></trkpt><trkpt lat="43.62218" lon="11.5559917"><ele>284.0</ele><time>2026-05-02T10:36:25.954Z</time></trkpt><trkpt lat="43.6222417" lon="11.55593"><ele>284.0</ele><time>2026-05-02T10:36:26.954Z</time></trkpt><trkpt lat="43.6223033" lon="11.55587"><ele>284.0</ele><time>2026-05-02T10:36:27.954Z</time></trkpt><trkpt lat="43.622365" lon="11.5558033"><ele>284.0</ele><time>2026-05-02T10:36:28.953Z</time></trkpt><trkpt lat="43.6224233" lon="11.55573"><ele>284.0</ele><time>2026-05-02T10:36:29.954Z</time></trkpt><trkpt lat="43.6224767" lon="11.5556533"><ele>284.0</ele><time>2026-05-02T10:36:30.954Z</time></trkpt><trkpt lat="43.62252" lon="11.5555667"><ele>284.0</ele><time>2026-05-02T10:36:31.954Z</time></trkpt><trkpt lat="43.6225583" lon="11.555475"><ele>284.0</ele><time>2026-05-02T10:36:32.954Z</time></trkpt><trkpt lat="43.6225967" lon="11.5553783"><ele>284.0</ele><time>2026-05-02T10:36:33.954Z</time></trkpt><trkpt lat="43.622625" lon="11.555275"><ele>284.0</ele><time>2026-05-02T10:36:34.954Z</time></trkpt><trkpt lat="43.622645" lon="11.55517"><ele>284.0</ele><time>2026-05-02T10:36:35.954Z</time></trkpt><trkpt lat="43.6226617" lon="11.555065"><ele>284.0</ele><time>2026-05-02T10:36:36.955Z</time></trkpt><trkpt lat="43.6226683" lon="11.554965"><ele>283.5</ele><time>2026-05-02T10:36:37.954Z</time></trkpt><trkpt lat="43.6226717" lon="11.5548617"><ele>283.0</ele><time>2026-05-02T10:36:38.957Z</time></trkpt><trkpt lat="43.6226683" lon="11.5547583"><ele>282.5</ele><time>2026-05-02T10:36:39.955Z</time></trkpt><trkpt lat="43.6226633" lon="11.5546533"><ele>282.0</ele><time>2026-05-02T10:36:40.953Z</time></trkpt><trkpt lat="43.622655" lon="11.5545533"><ele>281.5</ele><time>2026-05-02T10:36:41.955Z</time></trkpt><trkpt lat="43.62265" lon="11.5544433"><ele>281.0</ele><time>2026-05-02T10:36:42.956Z</time></trkpt><trkpt lat="43.6226433" lon="11.5543383"><ele>280.6666666666667</ele><time>2026-05-02T10:36:43.955Z</time></trkpt><trkpt lat="43.622635" lon="11.5542317"><ele>280.33333333333337</ele><time>2026-05-02T10:36:44.955Z</time></trkpt><trkpt lat="43.6226233" lon="11.5541167"><ele>280.0</ele><time>2026-05-02T10:36:45.954Z</time></trkpt><trkpt lat="43.6226067" lon="11.5540033"><ele>279.6666666666667</ele><time>2026-05-02T10:36:46.953Z</time></trkpt><trkpt lat="43.622585" lon="11.5538833"><ele>279.3333333333333</ele><time>2026-05-02T10:36:47.954Z</time></trkpt><trkpt lat="43.6225583" lon="11.5537617"><ele>279.0</ele><time>2026-05-02T10:36:48.955Z</time></trkpt><trkpt lat="43.6225267" lon="11.5536467"><ele>278.8333333333333</ele><time>2026-05-02T10:36:49.954Z</time></trkpt><trkpt lat="43.622485" lon="11.5535417"><ele>278.6666666666667</ele><time>2026-05-02T10:36:50.955Z</time></trkpt><trkpt lat="43.6224367" lon="11.5534417"><ele>278.5</ele><time>2026-05-02T10:36:51.955Z</time></trkpt><trkpt lat="43.622385" lon="11.5533467"><ele>278.33333333333337</ele><time>2026-05-02T10:36:52.953Z</time></trkpt><trkpt lat="43.62233" lon="11.5532567"><ele>278.1666666666667</ele><time>2026-05-02T10:36:53.953Z</time></trkpt><trkpt lat="43.62227" lon="11.5531683"><ele>278.0</ele><time>2026-05-02T10:36:54.953Z</time></trkpt><trkpt lat="43.622205" lon="11.5530833"><ele>278.0</ele><time>2026-05-02T10:36:55.956Z</time></trkpt><trkpt lat="43.6221383" lon="11.5530033"><ele>278.0</ele><time>2026-05-02T10:36:56.954Z</time></trkpt><trkpt lat="43.622065" lon="11.5529317"><ele>278.0</ele><time>2026-05-02T10:36:57.955Z</time></trkpt><trkpt lat="43.6219867" lon="11.5528717"><ele>278.0</ele><time>2026-05-02T10:36:58.953Z</time></trkpt><trkpt lat="43.6219067" lon="11.5528233"><ele>278.0</ele><time>2026-05-02T10:36:59.957Z</time></trkpt><trkpt lat="43.6218217" lon="11.5527817"><ele>278.0</ele><time>2026-05-02T10:37:00.953Z</time></trkpt><trkpt lat="43.6217383" lon="11.5527433"><ele>277.0</ele><time>2026-05-02T10:37:01.954Z</time></trkpt><trkpt lat="43.6216517" lon="11.5527167"><ele>276.0</ele><time>2026-05-02T10:37:02.956Z</time></trkpt><trkpt lat="43.6215667" lon="11.5526983"><ele>275.0</ele><time>2026-05-02T10:37:03.955Z</time></trkpt><trkpt lat="43.62148" lon="11.5526917"><ele>274.0</ele><time>2026-05-02T10:37:04.956Z</time></trkpt><trkpt lat="43.6213883" lon="11.55269"><ele>273.0</ele><time>2026-05-02T10:37:05.954Z</time></trkpt><trkpt lat="43.6213" lon="11.552695"><ele>272.0</ele><time>2026-05-02T10:37:06.956Z</time></trkpt><trkpt lat="43.6212167" lon="11.5527017"><ele>272.1666666666667</ele><time>2026-05-02T10:37:07.955Z</time></trkpt><trkpt lat="43.62113" lon="11.5527117"><ele>272.33333333333337</ele><time>2026-05-02T10:37:08.955Z</time></trkpt><trkpt lat="43.6210467" lon="11.5527233"><ele>272.5</ele><time>2026-05-02T10:37:09.954Z</time></trkpt><trkpt lat="43.6209683" lon="11.5527333"><ele>272.6666666666667</ele><time>2026-05-02T10:37:10.956Z</time></trkpt><trkpt lat="43.62089" lon="11.55274"><ele>272.8333333333333</ele><time>2026-05-02T10:37:11.954Z</time></trkpt><trkpt lat="43.62082" lon="11.5527467"><ele>273.0</ele><time>2026-05-02T10:37:12.956Z</time></trkpt><trkpt lat="43.620755" lon="11.5527433"><ele>273.0</ele><time>2026-05-02T10:37:13.955Z</time></trkpt><trkpt lat="43.62069" lon="11.5527267"><ele>273.0</ele><time>2026-05-02T10:37:14.955Z</time></trkpt><trkpt lat="43.62063" lon="11.5526767"><ele>273.0</ele><time>2026-05-02T10:37:15.954Z</time></trkpt><trkpt lat="43.6206" lon="11.55259"><ele>273.0</ele><time>2026-05-02T10:37:16.956Z</time></trkpt><trkpt lat="43.6205817" lon="11.5524983"><ele>273.0</ele><time>2026-05-02T10:37:17.954Z</time></trkpt><trkpt lat="43.62059" lon="11.5524033"><ele>273.0</ele><time>2026-05-02T10:37:18.954Z</time></trkpt><trkpt lat="43.6206033" lon="11.5523083"><ele>273.0</ele><time>2026-05-02T10:37:19.954Z</time></trkpt><trkpt lat="43.6206117" lon="11.55221"><ele>273.0</ele><time>2026-05-02T10:37:20.955Z</time></trkpt><trkpt lat="43.6206183" lon="11.5521033"><ele>273.0</ele><time>2026-05-02T10:37:21.954Z</time></trkpt><trkpt lat="43.6206267" lon="11.5519967"><ele>273.0</ele><time>2026-05-02T10:37:22.957Z</time></trkpt><trkpt lat="43.6206317" lon="11.5518917"><ele>273.0</ele><time>2026-05-02T10:37:23.952Z</time></trkpt><trkpt lat="43.6206333" lon="11.5517767"><ele>273.0</ele><time>2026-05-02T10:37:24.955Z</time></trkpt><trkpt lat="43.6206367" lon="11.5516567"><ele>273.0</ele><time>2026-05-02T10:37:25.952Z</time></trkpt><trkpt lat="43.6206383" lon="11.5515317"><ele>272.2</ele><time>2026-05-02T10:37:26.954Z</time></trkpt><trkpt lat="43.6206417" lon="11.5514017"><ele>271.4</ele><time>2026-05-02T10:37:27.956Z</time></trkpt><trkpt lat="43.6206417" lon="11.55127"><ele>270.59999999999997</ele><time>2026-05-02T10:37:28.954Z</time></trkpt><trkpt lat="43.6206433" lon="11.5511317"><ele>269.8</ele><time>2026-05-02T10:37:29.954Z</time></trkpt><trkpt lat="43.6206483" lon="11.55099"><ele>269.0</ele><time>2026-05-02T10:37:30.955Z</time></trkpt><trkpt lat="43.6206533" lon="11.5508433"><ele>268.59999999999997</ele><time>2026-05-02T10:37:31.957Z</time></trkpt><trkpt lat="43.62066" lon="11.5506917"><ele>268.2</ele><time>2026-05-02T10:37:32.954Z</time></trkpt><trkpt lat="43.6206667" lon="11.5505417"><ele>267.79999999999995</ele><time>2026-05-02T10:37:33.955Z</time></trkpt><trkpt lat="43.62067" lon="11.5503883"><ele>267.4</ele><time>2026-05-02T10:37:34.955Z</time></trkpt><trkpt lat="43.6206733" lon="11.5502333"><ele>267.0</ele><time>2026-05-02T10:37:35.955Z</time></trkpt><trkpt lat="43.6206783" lon="11.55007"><ele>266.25</ele><time>2026-05-02T10:37:36.954Z</time></trkpt><trkpt lat="43.6206817" lon="11.5499017"><ele>265.5</ele><time>2026-05-02T10:37:37.954Z</time></trkpt><trkpt lat="43.6206767" lon="11.5497283"><ele>264.75</ele><time>2026-05-02T10:37:38.956Z</time></trkpt><trkpt lat="43.620665" lon="11.5495533"><ele>264.0</ele><time>2026-05-02T10:37:39.955Z</time></trkpt><trkpt lat="43.6206533" lon="11.549375"><ele>262.5</ele><time>2026-05-02T10:37:40.958Z</time></trkpt><trkpt lat="43.6206483" lon="11.549185"><ele>261.0</ele><time>2026-05-02T10:37:41.956Z</time></trkpt><trkpt lat="43.620645" lon="11.5489833"><ele>259.5</ele><time>2026-05-02T10:37:42.955Z</time></trkpt><trkpt lat="43.6206417" lon="11.5487833"><ele>258.0</ele><time>2026-05-02T10:37:43.955Z</time></trkpt><trkpt lat="43.62064" lon="11.5485833"><ele>255.33333333333331</ele><time>2026-05-02T10:37:44.955Z</time></trkpt><trkpt lat="43.62064" lon="11.54838"><ele>252.66666666666666</ele><time>2026-05-02T10:37:45.955Z</time></trkpt><trkpt lat="43.620645" lon="11.5481733"><ele>250.0</ele><time>2026-05-02T10:37:46.954Z</time></trkpt><trkpt lat="43.6206617" lon="11.5479633"><ele>249.0</ele><time>2026-05-02T10:37:47.957Z</time></trkpt><trkpt lat="43.620685" lon="11.5477483"><ele>248.0</ele><time>2026-05-02T10:37:48.953Z</time></trkpt><trkpt lat="43.620715" lon="11.547535"><ele>247.0</ele><time>2026-05-02T10:37:49.952Z</time></trkpt><trkpt lat="43.6207467" lon="11.5473233"><ele>247.0</ele><time>2026-05-02T10:37:50.954Z</time></trkpt><trkpt lat="43.62078" lon="11.5471117"><ele>247.0</ele><time>2026-05-02T10:37:51.952Z</time></trkpt><trkpt lat="43.6208167" lon="11.5469083"><ele>247.0</ele><time>2026-05-02T10:37:52.953Z</time></trkpt><trkpt lat="43.62085" lon="11.5467183"><ele>245.25</ele><time>2026-05-02T10:37:53.955Z</time></trkpt><trkpt lat="43.6208817" lon="11.5465367"><ele>243.5</ele><time>2026-05-02T10:37:54.955Z</time></trkpt><trkpt lat="43.6209067" lon="11.5463667"><ele>241.75</ele><time>2026-05-02T10:37:55.953Z</time></trkpt><trkpt lat="43.620935" lon="11.5462"><ele>240.0</ele><time>2026-05-02T10:37:56.955Z</time></trkpt><trkpt lat="43.62096" lon="11.5460367"><ele>238.5</ele><time>2026-05-02T10:37:57.953Z</time></trkpt><trkpt lat="43.6209767" lon="11.54588"><ele>237.0</ele><time>2026-05-02T10:37:58.952Z</time></trkpt><trkpt lat="43.6209767" lon="11.5457217"><ele>235.5</ele><time>2026-05-02T10:37:59.952Z</time></trkpt><trkpt lat="43.6209567" lon="11.545565"><ele>234.0</ele><time>2026-05-02T10:38:00.953Z</time></trkpt><trkpt lat="43.6209183" lon="11.54542"><ele>235.25</ele><time>2026-05-02T10:38:01.955Z</time></trkpt><trkpt lat="43.6208617" lon="11.5452833"><ele>236.5</ele><time>2026-05-02T10:38:02.953Z</time></trkpt><trkpt lat="43.6207917" lon="11.54516"><ele>237.75</ele><time>2026-05-02T10:38:03.952Z</time></trkpt><trkpt lat="43.6207067" lon="11.5450417"><ele>239.0</ele><time>2026-05-02T10:38:04.954Z</time></trkpt><trkpt lat="43.6206083" lon="11.5449433"><ele>239.0</ele><time>2026-05-02T10:38:05.953Z</time></trkpt><trkpt lat="43.620495" lon="11.54487"><ele>239.0</ele><time>2026-05-02T10:38:06.953Z</time></trkpt><trkpt lat="43.6203783" lon="11.5448083"><ele>239.0</ele><time>2026-05-02T10:38:07.955Z</time></trkpt><trkpt lat="43.6202583" lon="11.5447517"><ele>239.0</ele><time>2026-05-02T10:38:08.955Z</time></trkpt><trkpt lat="43.6201417" lon="11.544695"><ele>237.75</ele><time>2026-05-02T10:38:09.954Z</time></trkpt><trkpt lat="43.6200317" lon="11.5446433"><ele>236.5</ele><time>2026-05-02T10:38:10.955Z</time></trkpt><trkpt lat="43.619925" lon="11.5445883"><ele>235.25</ele><time>2026-05-02T10:38:11.952Z</time></trkpt><trkpt lat="43.6198283" lon="11.54452"><ele>234.0</ele><time>2026-05-02T10:38:12.956Z</time></trkpt><trkpt lat="43.6197383" lon="11.544425"><ele>234.0</ele><time>2026-05-02T10:38:13.955Z</time></trkpt><trkpt lat="43.6196667" lon="11.5443033"><ele>234.0</ele><time>2026-05-02T10:38:14.956Z</time></trkpt><trkpt lat="43.6196167" lon="11.544155"><ele>234.0</ele><time>2026-05-02T10:38:15.955Z</time></trkpt><trkpt lat="43.6195933" lon="11.5439917"><ele>234.0</ele><time>2026-05-02T10:38:16.953Z</time></trkpt><trkpt lat="43.6195867" lon="11.54382"><ele>234.0</ele><time>2026-05-02T10:38:17.954Z</time></trkpt><trkpt lat="43.6195883" lon="11.54365"><ele>234.0</ele><time>2026-05-02T10:38:18.952Z</time></trkpt><trkpt lat="43.619595" lon="11.5434767"><ele>234.0</ele><time>2026-05-02T10:38:19.955Z</time></trkpt><trkpt lat="43.6196017" lon="11.5432983"><ele>234.0</ele><time>2026-05-02T10:38:20.955Z</time></trkpt><trkpt lat="43.619605" lon="11.5431233"><ele>234.0</ele><time>2026-05-02T10:38:21.953Z</time></trkpt><trkpt lat="43.6196083" lon="11.54295"><ele>234.0</ele><time>2026-05-02T10:38:22.954Z</time></trkpt><trkpt lat="43.6196133" lon="11.5427683"><ele>234.0</ele><time>2026-05-02T10:38:23.954Z</time></trkpt><trkpt lat="43.6196183" lon="11.5425917"><ele>234.0</ele><time>2026-05-02T10:38:24.955Z</time></trkpt><trkpt lat="43.619625" lon="11.5424117"><ele>232.75</ele><time>2026-05-02T10:38:25.954Z</time></trkpt><trkpt lat="43.6196317" lon="11.5422367"><ele>231.5</ele><time>2026-05-02T10:38:26.956Z</time></trkpt><trkpt lat="43.6196417" lon="11.54207"><ele>230.25</ele><time>2026-05-02T10:38:27.955Z</time></trkpt><trkpt lat="43.619665" lon="11.5419117"><ele>229.0</ele><time>2026-05-02T10:38:28.955Z</time></trkpt><trkpt lat="43.619705" lon="11.5417633"><ele>229.0</ele><time>2026-05-02T10:38:29.954Z</time></trkpt><trkpt lat="43.6197767" lon="11.5416267"><ele>228.99999999999997</ele><time>2026-05-02T10:38:30.954Z</time></trkpt><trkpt lat="43.6198533" lon="11.5415183"><ele>228.99999999999997</ele><time>2026-05-02T10:38:31.954Z</time></trkpt><trkpt lat="43.619925" lon="11.5414217"><ele>229.0</ele><time>2026-05-02T10:38:32.955Z</time></trkpt><trkpt lat="43.6200083" lon="11.5413317"><ele>229.0</ele><time>2026-05-02T10:38:33.953Z</time></trkpt><trkpt lat="43.620095" lon="11.5412467"><ele>216.0</ele><time>2026-05-02T10:38:34.954Z</time></trkpt><trkpt lat="43.6205833" lon="11.5408083"><ele>216.0</ele><time>2026-05-02T10:38:39.956Z</time></trkpt><trkpt lat="43.6207383" lon="11.5407467"><ele>216.0</ele><time>2026-05-02T10:38:40.955Z</time></trkpt><trkpt lat="43.6209183" lon="11.5406733"><ele>216.0</ele><time>2026-05-02T10:38:41.954Z</time></trkpt><trkpt lat="43.6211217" lon="11.5405867"><ele>213.0</ele><time>2026-05-02T10:38:42.954Z</time></trkpt><trkpt lat="43.62128" lon="11.540455"><ele>210.0</ele><time>2026-05-02T10:38:43.957Z</time></trkpt><trkpt lat="43.621445" lon="11.5403083"><ele>207.0</ele><time>2026-05-02T10:38:44.956Z</time></trkpt><trkpt lat="43.6215917" lon="11.540155"><ele>201.0</ele><time>2026-05-02T10:38:45.952Z</time></trkpt><trkpt lat="43.6217367" lon="11.5400083"><ele>195.0</ele><time>2026-05-02T10:38:46.953Z</time></trkpt><trkpt lat="43.6218733" lon="11.53986"><ele>189.0</ele><time>2026-05-02T10:38:47.954Z</time></trkpt><trkpt lat="43.622" lon="11.5397117"><ele>188.66666666666666</ele><time>2026-05-02T10:38:48.954Z</time></trkpt><trkpt lat="43.6221233" lon="11.5395617"><ele>188.33333333333331</ele><time>2026-05-02T10:38:49.953Z</time></trkpt><trkpt lat="43.6222433" lon="11.53941"><ele>188.0</ele><time>2026-05-02T10:38:50.956Z</time></trkpt><trkpt lat="43.6223583" lon="11.5392517"><ele>185.0</ele><time>2026-05-02T10:38:51.954Z</time></trkpt><trkpt lat="43.62247" lon="11.53909"><ele>182.0</ele><time>2026-05-02T10:38:52.954Z</time></trkpt><trkpt lat="43.6225733" lon="11.538925"><ele>179.0</ele><time>2026-05-02T10:38:53.954Z</time></trkpt><trkpt lat="43.622675" lon="11.5387567"><ele>177.66666666666666</ele><time>2026-05-02T10:38:54.953Z</time></trkpt><trkpt lat="43.6227733" lon="11.53858"><ele>176.33333333333334</ele><time>2026-05-02T10:38:55.954Z</time></trkpt><trkpt lat="43.62287" lon="11.5384"><ele>175.0</ele><time>2026-05-02T10:38:56.955Z</time></trkpt><trkpt lat="43.622965" lon="11.5382183"><ele>172.33333333333334</ele><time>2026-05-02T10:38:57.954Z</time></trkpt><trkpt lat="43.623055" lon="11.538035"><ele>169.66666666666666</ele><time>2026-05-02T10:38:58.956Z</time></trkpt><trkpt lat="43.6231433" lon="11.53785"><ele>167.0</ele><time>2026-05-02T10:38:59.955Z</time></trkpt><trkpt lat="43.6232333" lon="11.53767"><ele>166.0</ele><time>2026-05-02T10:39:00.952Z</time></trkpt><trkpt lat="43.62332" lon="11.5374867"><ele>165.0</ele><time>2026-05-02T10:39:01.955Z</time></trkpt><trkpt lat="43.6234067" lon="11.5373017"><ele>164.0</ele><time>2026-05-02T10:39:02.956Z</time></trkpt><trkpt lat="43.62349" lon="11.5371183"><ele>164.33333333333331</ele><time>2026-05-02T10:39:03.956Z</time></trkpt><trkpt lat="43.6235767" lon="11.5369383"><ele>164.66666666666666</ele><time>2026-05-02T10:39:04.955Z</time></trkpt><trkpt lat="43.6236667" lon="11.5367617"><ele>165.0</ele><time>2026-05-02T10:39:05.954Z</time></trkpt><trkpt lat="43.6237517" lon="11.5365883"><ele>164.25</ele><time>2026-05-02T10:39:06.957Z</time></trkpt><trkpt lat="43.6238333" lon="11.5364133"><ele>163.5</ele><time>2026-05-02T10:39:07.954Z</time></trkpt><trkpt lat="43.6239133" lon="11.5362433"><ele>162.75</ele><time>2026-05-02T10:39:08.955Z</time></trkpt><trkpt lat="43.6239933" lon="11.5360783"><ele>162.0</ele><time>2026-05-02T10:39:09.953Z</time></trkpt><trkpt lat="43.6240667" lon="11.5359133"><ele>161.75</ele><time>2026-05-02T10:39:10.954Z</time></trkpt><trkpt lat="43.6241367" lon="11.535755"><ele>161.5</ele><time>2026-05-02T10:39:11.953Z</time></trkpt><trkpt lat="43.6242083" lon="11.535595"><ele>161.25</ele><time>2026-05-02T10:39:12.954Z</time></trkpt><trkpt lat="43.6242767" lon="11.5354383"><ele>161.0</ele><time>2026-05-02T10:39:13.955Z</time></trkpt><trkpt lat="43.6243383" lon="11.5352867"><ele>160.5</ele><time>2026-05-02T10:39:14.953Z</time></trkpt><trkpt lat="43.6243967" lon="11.5351417"><ele>160.0</ele><time>2026-05-02T10:39:15.954Z</time></trkpt><trkpt lat="43.6244517" lon="11.5349983"><ele>159.5</ele><time>2026-05-02T10:39:16.954Z</time></trkpt><trkpt lat="43.624505" lon="11.5348617"><ele>159.0</ele><time>2026-05-02T10:39:17.954Z</time></trkpt><trkpt lat="43.6245517" lon="11.534725"><ele>160.0</ele><time>2026-05-02T10:39:18.953Z</time></trkpt><trkpt lat="43.6245983" lon="11.53459"><ele>161.0</ele><time>2026-05-02T10:39:19.953Z</time></trkpt><trkpt lat="43.62464" lon="11.5344567"><ele>162.0</ele><time>2026-05-02T10:39:20.953Z</time></trkpt><trkpt lat="43.62468" lon="11.53432"><ele>163.0</ele><time>2026-05-02T10:39:21.953Z</time></trkpt><trkpt lat="43.6247117" lon="11.5341867"><ele>164.0</ele><time>2026-05-02T10:39:22.952Z</time></trkpt><trkpt lat="43.62474" lon="11.5340583"><ele>164.2</ele><time>2026-05-02T10:39:23.952Z</time></trkpt><trkpt lat="43.6247717" lon="11.5339317"><ele>164.39999999999998</ele><time>2026-05-02T10:39:24.952Z</time></trkpt><trkpt lat="43.6248033" lon="11.5337967"><ele>164.6</ele><time>2026-05-02T10:39:25.951Z</time></trkpt><trkpt lat="43.6248367" lon="11.533665"><ele>164.8</ele><time>2026-05-02T10:39:26.954Z</time></trkpt><trkpt lat="43.6248667" lon="11.5335367"><ele>165.0</ele><time>2026-05-02T10:39:27.952Z</time></trkpt><trkpt lat="43.6249" lon="11.533405"><ele>164.2</ele><time>2026-05-02T10:39:28.954Z</time></trkpt><trkpt lat="43.6249333" lon="11.5332733"><ele>163.4</ele><time>2026-05-02T10:39:29.953Z</time></trkpt><trkpt lat="43.6249633" lon="11.53315"><ele>162.60000000000002</ele><time>2026-05-02T10:39:30.954Z</time></trkpt><trkpt lat="43.6249933" lon="11.533025"><ele>161.8</ele><time>2026-05-02T10:39:31.953Z</time></trkpt><trkpt lat="43.6250217" lon="11.5329017"><ele>161.0</ele><time>2026-05-02T10:39:32.953Z</time></trkpt><trkpt lat="43.6250533" lon="11.5327767"><ele>160.20000000000002</ele><time>2026-05-02T10:39:33.956Z</time></trkpt><trkpt lat="43.6250833" lon="11.5326583"><ele>159.4</ele><time>2026-05-02T10:39:34.953Z</time></trkpt><trkpt lat="43.6251133" lon="11.53254"><ele>158.6</ele><time>2026-05-02T10:39:35.952Z</time></trkpt><trkpt lat="43.6251433" lon="11.5324167"><ele>157.8</ele><time>2026-05-02T10:39:36.954Z</time></trkpt><trkpt lat="43.625175" lon="11.5322933"><ele>157.0</ele><time>2026-05-02T10:39:37.954Z</time></trkpt><trkpt lat="43.625205" lon="11.5321733"><ele>156.79999999999998</ele><time>2026-05-02T10:39:38.953Z</time></trkpt><trkpt lat="43.6252367" lon="11.5320533"><ele>156.6</ele><time>2026-05-02T10:39:39.953Z</time></trkpt><trkpt lat="43.6252683" lon="11.531935"><ele>156.39999999999998</ele><time>2026-05-02T10:39:40.954Z</time></trkpt><trkpt lat="43.6253" lon="11.5318167"><ele>156.2</ele><time>2026-05-02T10:39:41.954Z</time></trkpt><trkpt lat="43.62533" lon="11.5317"><ele>156.0</ele><time>2026-05-02T10:39:42.955Z</time></trkpt><trkpt lat="43.6253583" lon="11.5315867"><ele>156.33333333333334</ele><time>2026-05-02T10:39:43.953Z</time></trkpt><trkpt lat="43.6253867" lon="11.531465"><ele>156.66666666666666</ele><time>2026-05-02T10:39:44.954Z</time></trkpt><trkpt lat="43.625415" lon="11.53135"><ele>157.0</ele><time>2026-05-02T10:39:45.952Z</time></trkpt><trkpt lat="43.62544" lon="11.5312383"><ele>157.33333333333331</ele><time>2026-05-02T10:39:46.955Z</time></trkpt><trkpt lat="43.6254667" lon="11.531125"><ele>157.66666666666666</ele><time>2026-05-02T10:39:47.955Z</time></trkpt><trkpt lat="43.62549" lon="11.5310117"><ele>158.0</ele><time>2026-05-02T10:39:48.954Z</time></trkpt><trkpt lat="43.62551" lon="11.5308983"><ele>158.0</ele><time>2026-05-02T10:39:49.953Z</time></trkpt><trkpt lat="43.6255283" lon="11.5307833"><ele>158.0</ele><time>2026-05-02T10:39:50.954Z</time></trkpt><trkpt lat="43.625545" lon="11.5306667"><ele>158.0</ele><time>2026-05-02T10:39:51.953Z</time></trkpt><trkpt lat="43.6255617" lon="11.530545"><ele>158.0</ele><time>2026-05-02T10:39:52.953Z</time></trkpt><trkpt lat="43.62558" lon="11.5304183"><ele>158.0</ele><time>2026-05-02T10:39:53.955Z</time></trkpt><trkpt lat="43.6255867" lon="11.5302917"><ele>158.0</ele><time>2026-05-02T10:39:54.954Z</time></trkpt><trkpt lat="43.6255917" lon="11.530165"><ele>157.8</ele><time>2026-05-02T10:39:55.952Z</time></trkpt><trkpt lat="43.6255967" lon="11.530035"><ele>157.60000000000002</ele><time>2026-05-02T10:39:56.953Z</time></trkpt><trkpt lat="43.625595" lon="11.5299083"><ele>157.39999999999998</ele><time>2026-05-02T10:39:57.952Z</time></trkpt><trkpt lat="43.6255883" lon="11.5297867"><ele>157.2</ele><time>2026-05-02T10:39:58.955Z</time></trkpt><trkpt lat="43.6255783" lon="11.52966"><ele>157.0</ele><time>2026-05-02T10:39:59.955Z</time></trkpt><trkpt lat="43.6255667" lon="11.52954"><ele>156.4</ele><time>2026-05-02T10:40:00.952Z</time></trkpt><trkpt lat="43.62555" lon="11.5294167"><ele>155.79999999999998</ele><time>2026-05-02T10:40:01.951Z</time></trkpt><trkpt lat="43.6255317" lon="11.52929"><ele>155.2</ele><time>2026-05-02T10:40:02.954Z</time></trkpt><trkpt lat="43.6255117" lon="11.52916"><ele>154.6</ele><time>2026-05-02T10:40:03.953Z</time></trkpt><trkpt lat="43.6254933" lon="11.52903"><ele>154.0</ele><time>2026-05-02T10:40:04.953Z</time></trkpt><trkpt lat="43.62547" lon="11.5289017"><ele>154.0</ele><time>2026-05-02T10:40:05.953Z</time></trkpt><trkpt lat="43.625445" lon="11.5287767"><ele>154.0</ele><time>2026-05-02T10:40:06.953Z</time></trkpt><trkpt lat="43.6254217" lon="11.5286517"><ele>154.0</ele><time>2026-05-02T10:40:07.953Z</time></trkpt><trkpt lat="43.6253983" lon="11.5285217"><ele>154.0</ele><time>2026-05-02T10:40:08.954Z</time></trkpt><trkpt lat="43.6253733" lon="11.528395"><ele>154.0</ele><time>2026-05-02T10:40:09.953Z</time></trkpt><trkpt lat="43.6253483" lon="11.52827"><ele>153.4</ele><time>2026-05-02T10:40:10.955Z</time></trkpt><trkpt lat="43.625325" lon="11.5281467"><ele>152.8</ele><time>2026-05-02T10:40:11.953Z</time></trkpt><trkpt lat="43.6253017" lon="11.528025"><ele>152.2</ele><time>2026-05-02T10:40:12.954Z</time></trkpt><trkpt lat="43.6252767" lon="11.527905"><ele>151.6</ele><time>2026-05-02T10:40:13.954Z</time></trkpt><trkpt lat="43.6252533" lon="11.5277867"><ele>151.0</ele><time>2026-05-02T10:40:14.955Z</time></trkpt><trkpt lat="43.6252317" lon="11.5276667"><ele>150.8</ele><time>2026-05-02T10:40:15.952Z</time></trkpt><trkpt lat="43.62521" lon="11.5275483"><ele>150.6</ele><time>2026-05-02T10:40:16.95Z</time></trkpt><trkpt lat="43.62519" lon="11.527435"><ele>150.4</ele><time>2026-05-02T10:40:17.951Z</time></trkpt><trkpt lat="43.62517" lon="11.527315"><ele>150.2</ele><time>2026-05-02T10:40:18.951Z</time></trkpt><trkpt lat="43.6251517" lon="11.5271867"><ele>150.0</ele><time>2026-05-02T10:40:19.95Z</time></trkpt><trkpt lat="43.625135" lon="11.5270583"><ele>150.0</ele><time>2026-05-02T10:40:20.952Z</time></trkpt><trkpt lat="43.6251183" lon="11.5269333"><ele>150.0</ele><time>2026-05-02T10:40:21.95Z</time></trkpt><trkpt lat="43.6251067" lon="11.5268033"><ele>150.0</ele><time>2026-05-02T10:40:22.951Z</time></trkpt><trkpt lat="43.6250967" lon="11.52667"><ele>150.0</ele><time>2026-05-02T10:40:23.952Z</time></trkpt><trkpt lat="43.625085" lon="11.5265383"><ele>150.0</ele><time>2026-05-02T10:40:24.951Z</time></trkpt><trkpt lat="43.625075" lon="11.5264067"><ele>150.0</ele><time>2026-05-02T10:40:25.954Z</time></trkpt><trkpt lat="43.6250683" lon="11.5262817"><ele>150.0</ele><time>2026-05-02T10:40:26.954Z</time></trkpt><trkpt lat="43.6250633" lon="11.5261567"><ele>150.0</ele><time>2026-05-02T10:40:27.953Z</time></trkpt><trkpt lat="43.6250583" lon="11.526035"><ele>150.0</ele><time>2026-05-02T10:40:28.952Z</time></trkpt><trkpt lat="43.625055" lon="11.5259117"><ele>150.0</ele><time>2026-05-02T10:40:29.955Z</time></trkpt><trkpt lat="43.6250517" lon="11.5257917"><ele>150.0</ele><time>2026-05-02T10:40:30.953Z</time></trkpt><trkpt lat="43.62505" lon="11.5256683"><ele>149.66666666666666</ele><time>2026-05-02T10:40:31.955Z</time></trkpt><trkpt lat="43.6250517" lon="11.52555"><ele>149.33333333333334</ele><time>2026-05-02T10:40:32.955Z</time></trkpt><trkpt lat="43.6250533" lon="11.5254333"><ele>149.0</ele><time>2026-05-02T10:40:33.953Z</time></trkpt><trkpt lat="43.625055" lon="11.525315"><ele>148.66666666666669</ele><time>2026-05-02T10:40:34.953Z</time></trkpt><trkpt lat="43.62506" lon="11.525195"><ele>148.33333333333334</ele><time>2026-05-02T10:40:35.953Z</time></trkpt><trkpt lat="43.625065" lon="11.52508"><ele>148.0</ele><time>2026-05-02T10:40:36.955Z</time></trkpt><trkpt lat="43.6250667" lon="11.5249567"><ele>148.0</ele><time>2026-05-02T10:40:37.954Z</time></trkpt><trkpt lat="43.6250667" lon="11.5248367"><ele>148.0</ele><time>2026-05-02T10:40:38.953Z</time></trkpt><trkpt lat="43.6250683" lon="11.5247133"><ele>148.0</ele><time>2026-05-02T10:40:39.954Z</time></trkpt><trkpt lat="43.6250717" lon="11.52459"><ele>148.0</ele><time>2026-05-02T10:40:40.953Z</time></trkpt><trkpt lat="43.6250767" lon="11.52447"><ele>148.0</ele><time>2026-05-02T10:40:41.951Z</time></trkpt><trkpt lat="43.6250817" lon="11.5243533"><ele>148.0</ele><time>2026-05-02T10:40:42.954Z</time></trkpt><trkpt lat="43.625085" lon="11.5242333"><ele>148.16666666666669</ele><time>2026-05-02T10:40:43.953Z</time></trkpt><trkpt lat="43.6250867" lon="11.524115"><ele>148.33333333333334</ele><time>2026-05-02T10:40:44.955Z</time></trkpt><trkpt lat="43.6250917" lon="11.5239983"><ele>148.5</ele><time>2026-05-02T10:40:45.953Z</time></trkpt><trkpt lat="43.6250967" lon="11.5238767"><ele>148.66666666666666</ele><time>2026-05-02T10:40:46.955Z</time></trkpt><trkpt lat="43.6251033" lon="11.5237567"><ele>148.83333333333331</ele><time>2026-05-02T10:40:47.954Z</time></trkpt><trkpt lat="43.6251117" lon="11.5236433"><ele>149.0</ele><time>2026-05-02T10:40:48.954Z</time></trkpt><trkpt lat="43.6251267" lon="11.5235333"><ele>149.0</ele><time>2026-05-02T10:40:49.953Z</time></trkpt><trkpt lat="43.625145" lon="11.5234267"><ele>149.0</ele><time>2026-05-02T10:40:50.955Z</time></trkpt><trkpt lat="43.6251683" lon="11.523325"><ele>149.0</ele><time>2026-05-02T10:40:51.953Z</time></trkpt><trkpt lat="43.6252" lon="11.5232317"><ele>149.0</ele><time>2026-05-02T10:40:52.954Z</time></trkpt><trkpt lat="43.6252433" lon="11.5231483"><ele>149.0</ele><time>2026-05-02T10:40:53.953Z</time></trkpt><trkpt lat="43.6252983" lon="11.5230883"><ele>149.0</ele><time>2026-05-02T10:40:54.953Z</time></trkpt><trkpt lat="43.625365" lon="11.5230517"><ele>149.0</ele><time>2026-05-02T10:40:55.953Z</time></trkpt><trkpt lat="43.6254317" lon="11.5230333"><ele>149.0</ele><time>2026-05-02T10:40:56.954Z</time></trkpt><trkpt lat="43.6255" lon="11.5230233"><ele>149.0</ele><time>2026-05-02T10:40:57.953Z</time></trkpt><trkpt lat="43.6255683" lon="11.52301"><ele>149.0</ele><time>2026-05-02T10:40:58.954Z</time></trkpt><trkpt lat="43.625635" lon="11.5229967"><ele>149.0</ele><time>2026-05-02T10:40:59.953Z</time></trkpt><trkpt lat="43.6257017" lon="11.52298"><ele>149.0</ele><time>2026-05-02T10:41:00.955Z</time></trkpt><trkpt lat="43.6257667" lon="11.52296"><ele>149.0</ele><time>2026-05-02T10:41:01.953Z</time></trkpt><trkpt lat="43.6258317" lon="11.52294"><ele>149.0</ele><time>2026-05-02T10:41:02.954Z</time></trkpt><trkpt lat="43.6258967" lon="11.5229183"><ele>149.0</ele><time>2026-05-02T10:41:03.953Z</time></trkpt><trkpt lat="43.62596" lon="11.522895"><ele>149.0</ele><time>2026-05-02T10:41:04.954Z</time></trkpt><trkpt lat="43.62602" lon="11.5228617"><ele>149.0</ele><time>2026-05-02T10:41:05.954Z</time></trkpt><trkpt lat="43.626075" lon="11.5228167"><ele>149.0</ele><time>2026-05-02T10:41:06.953Z</time></trkpt><trkpt lat="43.62613" lon="11.5227633"><ele>149.0</ele><time>2026-05-02T10:41:07.954Z</time></trkpt><trkpt lat="43.62618" lon="11.5227083"><ele>149.0</ele><time>2026-05-02T10:41:08.956Z</time></trkpt><trkpt lat="43.6262283" lon="11.5226483"><ele>149.0</ele><time>2026-05-02T10:41:09.953Z</time></trkpt><trkpt lat="43.626275" lon="11.522585"><ele>149.28571428571428</ele><time>2026-05-02T10:41:10.951Z</time></trkpt><trkpt lat="43.6263217" lon="11.5225217"><ele>149.57142857142856</ele><time>2026-05-02T10:41:11.952Z</time></trkpt><trkpt lat="43.6263667" lon="11.5224583"><ele>149.85714285714286</ele><time>2026-05-02T10:41:12.953Z</time></trkpt><trkpt lat="43.6264117" lon="11.5223833"><ele>150.14285714285714</ele><time>2026-05-02T10:41:13.953Z</time></trkpt><trkpt lat="43.6264567" lon="11.52231"><ele>150.42857142857144</ele><time>2026-05-02T10:41:14.955Z</time></trkpt><trkpt lat="43.6265033" lon="11.5222367"><ele>150.71428571428572</ele><time>2026-05-02T10:41:15.957Z</time></trkpt><trkpt lat="43.6265483" lon="11.5221667"><ele>151.0</ele><time>2026-05-02T10:41:16.955Z</time></trkpt><trkpt lat="43.6265933" lon="11.5220933"><ele>150.71428571428572</ele><time>2026-05-02T10:41:17.955Z</time></trkpt><trkpt lat="43.6266367" lon="11.522015"><ele>150.42857142857144</ele><time>2026-05-02T10:41:18.953Z</time></trkpt><trkpt lat="43.6266783" lon="11.5219317"><ele>150.14285714285714</ele><time>2026-05-02T10:41:19.956Z</time></trkpt><trkpt lat="43.6267183" lon="11.5218417"><ele>149.85714285714286</ele><time>2026-05-02T10:41:20.956Z</time></trkpt><trkpt lat="43.6267617" lon="11.5217567"><ele>149.57142857142856</ele><time>2026-05-02T10:41:21.955Z</time></trkpt><trkpt lat="43.626805" lon="11.5216717"><ele>149.28571428571428</ele><time>2026-05-02T10:41:22.953Z</time></trkpt><trkpt lat="43.62685" lon="11.5215883"><ele>149.0</ele><time>2026-05-02T10:41:23.957Z</time></trkpt><trkpt lat="43.6268933" lon="11.5215033"><ele>149.0</ele><time>2026-05-02T10:41:24.952Z</time></trkpt><trkpt lat="43.6269433" lon="11.5214133"><ele>149.0</ele><time>2026-05-02T10:41:25.951Z</time></trkpt><trkpt lat="43.6269867" lon="11.52133"><ele>149.0</ele><time>2026-05-02T10:41:26.951Z</time></trkpt><trkpt lat="43.6270267" lon="11.5212467"><ele>149.0</ele><time>2026-05-02T10:41:27.95Z</time></trkpt><trkpt lat="43.627065" lon="11.5211567"><ele>149.0</ele><time>2026-05-02T10:41:28.951Z</time></trkpt><trkpt lat="43.6271033" lon="11.5210683"><ele>149.0</ele><time>2026-05-02T10:41:29.952Z</time></trkpt><trkpt lat="43.6271383" lon="11.52098"><ele>149.14285714285714</ele><time>2026-05-02T10:41:30.951Z</time></trkpt><trkpt lat="43.6271717" lon="11.5208917"><ele>149.28571428571428</ele><time>2026-05-02T10:41:31.952Z</time></trkpt><trkpt lat="43.627205" lon="11.520795"><ele>149.42857142857142</ele><time>2026-05-02T10:41:32.954Z</time></trkpt><trkpt lat="43.6272367" lon="11.5207133"><ele>149.57142857142856</ele><time>2026-05-02T10:41:33.953Z</time></trkpt><trkpt lat="43.627265" lon="11.5206333"><ele>149.71428571428572</ele><time>2026-05-02T10:41:34.952Z</time></trkpt><trkpt lat="43.6272933" lon="11.5205517"><ele>149.85714285714283</ele><time>2026-05-02T10:41:35.955Z</time></trkpt><trkpt lat="43.6273217" lon="11.5204733"><ele>150.0</ele><time>2026-05-02T10:41:36.953Z</time></trkpt><trkpt lat="43.6273683" lon="11.5203267"><ele>150.6</ele><time>2026-05-02T10:41:38.954Z</time></trkpt><trkpt lat="43.6274067" lon="11.5201967"><ele>151.2</ele><time>2026-05-02T10:41:40.956Z</time></trkpt><trkpt lat="43.6274417" lon="11.5200733"><ele>151.8</ele><time>2026-05-02T10:41:42.953Z</time></trkpt><trkpt lat="43.62747" lon="11.5199533"><ele>152.4</ele><time>2026-05-02T10:41:44.956Z</time></trkpt><trkpt lat="43.6274933" lon="11.5198317"><ele>153.0</ele><time>2026-05-02T10:41:46.953Z</time></trkpt><trkpt lat="43.6275267" lon="11.5197033"><ele>153.0</ele><time>2026-05-02T10:41:48.954Z</time></trkpt><trkpt lat="43.6275633" lon="11.51957"><ele>153.0</ele><time>2026-05-02T10:41:50.955Z</time></trkpt><trkpt lat="43.6275967" lon="11.51944"><ele>153.0</ele><time>2026-05-02T10:41:52.953Z</time></trkpt><trkpt lat="43.6276267" lon="11.51931"><ele>153.0</ele><time>2026-05-02T10:41:54.953Z</time></trkpt><trkpt lat="43.6276467" lon="11.5191817"><ele>153.0</ele><time>2026-05-02T10:41:56.954Z</time></trkpt><trkpt lat="43.6276733" lon="11.51905"><ele>153.20000000000002</ele><time>2026-05-02T10:41:58.954Z</time></trkpt><trkpt lat="43.6277017" lon="11.5189317"><ele>153.4</ele><time>2026-05-02T10:42:00.953Z</time></trkpt><trkpt lat="43.6277267" lon="11.5188083"><ele>153.60000000000002</ele><time>2026-05-02T10:42:02.955Z</time></trkpt><trkpt lat="43.6277467" lon="11.5186833"><ele>153.8</ele><time>2026-05-02T10:42:04.955Z</time></trkpt><trkpt lat="43.627775" lon="11.5185517"><ele>154.0</ele><time>2026-05-02T10:42:06.953Z</time></trkpt><trkpt lat="43.6278017" lon="11.5184083"><ele>154.6</ele><time>2026-05-02T10:42:08.956Z</time></trkpt><trkpt lat="43.6278267" lon="11.51825"><ele>155.2</ele><time>2026-05-02T10:42:10.955Z</time></trkpt><trkpt lat="43.6278433" lon="11.518085"><ele>155.79999999999998</ele><time>2026-05-02T10:42:12.953Z</time></trkpt><trkpt lat="43.6278467" lon="11.5179917"><ele>156.4</ele><time>2026-05-02T10:42:13.953Z</time></trkpt><trkpt lat="43.6278517" lon="11.5178917"><ele>157.0</ele><time>2026-05-02T10:42:14.955Z</time></trkpt><trkpt lat="43.6278567" lon="11.51779"><ele>157.0</ele><time>2026-05-02T10:42:15.955Z</time></trkpt><trkpt lat="43.627865" lon="11.517685"><ele>157.0</ele><time>2026-05-02T10:42:16.953Z</time></trkpt><trkpt lat="43.6278717" lon="11.5175883"><ele>157.0</ele><time>2026-05-02T10:42:17.953Z</time></trkpt><trkpt lat="43.627875" lon="11.5174983"><ele>157.0</ele><time>2026-05-02T10:42:18.954Z</time></trkpt><trkpt lat="43.627875" lon="11.5173633"><ele>157.0</ele><time>2026-05-02T10:42:20.954Z</time></trkpt><trkpt lat="43.6278333" lon="11.5172717"><ele>157.0</ele><time>2026-05-02T10:42:22.955Z</time></trkpt><trkpt lat="43.6277517" lon="11.5172667"><ele>155.6</ele><time>2026-05-02T10:42:24.951Z</time></trkpt><trkpt lat="43.6276683" lon="11.5173267"><ele>154.2</ele><time>2026-05-02T10:42:26.953Z</time></trkpt><trkpt lat="43.62756" lon="11.5173467"><ele>152.8</ele><time>2026-05-02T10:42:28.955Z</time></trkpt><trkpt lat="43.6274667" lon="11.5172733"><ele>151.4</ele><time>2026-05-02T10:42:30.954Z</time></trkpt><trkpt lat="43.6274367" lon="11.5171133"><ele>150.0</ele><time>2026-05-02T10:42:32.956Z</time></trkpt><trkpt lat="43.6274583" lon="11.5169417"><ele>149.5</ele><time>2026-05-02T10:42:34.953Z</time></trkpt><trkpt lat="43.627465" lon="11.5168483"><ele>149.0</ele><time>2026-05-02T10:42:35.954Z</time></trkpt><trkpt lat="43.6274617" lon="11.5167517"><ele>148.5</ele><time>2026-05-02T10:42:36.955Z</time></trkpt><trkpt lat="43.6274483" lon="11.5166433"><ele>148.0</ele><time>2026-05-02T10:42:38.954Z</time></trkpt><trkpt lat="43.6274567" lon="11.5165267"><ele>147.5</ele><time>2026-05-02T10:42:41.955Z</time></trkpt><trkpt lat="43.6274583" lon="11.5164083"><ele>147.0</ele><time>2026-05-02T10:42:44.955Z</time></trkpt><trkpt lat="43.6273717" lon="11.5164867"><ele>147.0</ele><time>2026-05-02T10:43:33.953Z</time></trkpt><trkpt lat="43.6273584" lon="11.5162206"><ele>145.0</ele><time>2026-05-02T10:44:05.45Z</time></trkpt></trkseg></trk></gpx>